<?xml version='1.0' encoding='UTF-8'?><gpx version="1.1" creator="JPX - https://github.com/jenetics/jpx" xmlns="http://www.topografix.com/GPX/1/1"><trk><trkseg><trkpt lat="39.22343865172958" lon="9.195866919278108"><ele>2.0</ele><time>2026-04-10T07:39:32Z</time></trkpt><trkpt lat="39.22349582494815" lon="9.195930126254165"><ele>2.0</ele><time>2026-04-10T07:39:46.999Z</time></trkpt><trkpt lat="39.22357834691669" lon="9.195865341399408"><ele>2.0</ele><time>2026-04-10T07:40:47Z</time></trkpt><trkpt lat="39.223711878729624" lon="9.195847713135272"><ele>2.0</ele><time>2026-04-10T07:40:49Z</time></trkpt><trkpt lat="39.22379449864935" lon="9.195815975434417"><ele>2.0</ele><time>2026-04-10T07:40:50Z</time></trkpt><trkpt lat="39.22386841723096" lon="9.19575641682637"><ele>1.8</ele><time>2026-04-10T07:40:51Z</time></trkpt><trkpt lat="39.2239325501543" lon="9.195658920986741"><ele>1.6</ele><time>2026-04-10T07:40:52Z</time></trkpt><trkpt lat="39.22396884331488" lon="9.195533433431185"><ele>1.4000000000000001</ele><time>2026-04-10T07:40:53Z</time></trkpt><trkpt lat="39.223978505545226" lon="9.195390016236944"><ele>1.2000000000000002</ele><time>2026-04-10T07:40:54Z</time></trkpt><trkpt lat="39.22395638111443" lon="9.195263864372313"><ele>1.0</ele><time>2026-04-10T07:40:55Z</time></trkpt><trkpt lat="39.223935893199396" lon="9.195164476299768"><ele>0.3333333333333333</ele><time>2026-04-10T07:40:56Z</time></trkpt><trkpt lat="39.22410092074825" lon="9.195058434558186"><ele>-0.3333333333333333</ele><time>2026-04-10T07:40:57Z</time></trkpt><trkpt lat="39.224208375387114" lon="9.194939903695703"><ele>-1.0</ele><time>2026-04-10T07:40:58Z</time></trkpt><trkpt lat="39.224322381094126" lon="9.194861194673855"><ele>-1.0</ele><time>2026-04-10T07:40:59Z</time></trkpt><trkpt lat="39.22444147199459" lon="9.194776151782438"><ele>-1.0</ele><time>2026-04-10T07:41:00Z</time></trkpt><trkpt lat="39.224544076169074" lon="9.194689324293739"><ele>-1.0</ele><time>2026-04-10T07:41:01Z</time></trkpt><trkpt lat="39.22462838216391" lon="9.194619915049858"><ele>-1.0</ele><time>2026-04-10T07:41:02Z</time></trkpt><trkpt lat="39.22470706674403" lon="9.19455275720741"><ele>-1.0</ele><time>2026-04-10T07:41:03Z</time></trkpt><trkpt lat="39.2247789252535" lon="9.194492202176031"><ele>-1.0</ele><time>2026-04-10T07:41:04Z</time></trkpt><trkpt lat="39.22483874842963" lon="9.194442769494861"><ele>-1.0</ele><time>2026-04-10T07:41:05Z</time></trkpt><trkpt lat="39.22491687743889" lon="9.194373390707474"><ele>-1.0</ele><time>2026-04-10T07:41:06Z</time></trkpt><trkpt lat="39.22500309916717" lon="9.19429382048191"><ele>-1.0</ele><time>2026-04-10T07:41:07Z</time></trkpt><trkpt lat="39.22509740821692" lon="9.194211552794869"><ele>-1.2000000000000002</ele><time>2026-04-10T07:41:08Z</time></trkpt><trkpt lat="39.22518898661651" lon="9.194130256866497"><ele>-1.4000000000000001</ele><time>2026-04-10T07:41:09Z</time></trkpt><trkpt lat="39.225268735785" lon="9.19406023813632"><ele>-1.6</ele><time>2026-04-10T07:41:10Z</time></trkpt><trkpt lat="39.22534187025553" lon="9.19399664538315"><ele>-1.8</ele><time>2026-04-10T07:41:11Z</time></trkpt><trkpt lat="39.22541517797738" lon="9.193929798428426"><ele>-2.0</ele><time>2026-04-10T07:41:12Z</time></trkpt><trkpt lat="39.2254937389598" lon="9.193858193255664"><ele>-2.0</ele><time>2026-04-10T07:41:13Z</time></trkpt><trkpt lat="39.22557810216199" lon="9.193784195979688"><ele>-2.0</ele><time>2026-04-10T07:41:14Z</time></trkpt><trkpt lat="39.225666935119314" lon="9.193703895677952"><ele>-2.0</ele><time>2026-04-10T07:41:15Z</time></trkpt><trkpt lat="39.22576211989214" lon="9.19361546465749"><ele>-2.0</ele><time>2026-04-10T07:41:16Z</time></trkpt><trkpt lat="39.22586350784519" lon="9.193524980826167"><ele>-2.0</ele><time>2026-04-10T07:41:17Z</time></trkpt><trkpt lat="39.22596923608513" lon="9.193432351325768"><ele>-2.0</ele><time>2026-04-10T07:41:18Z</time></trkpt><trkpt lat="39.226067136271375" lon="9.19334927387214"><ele>-2.0</ele><time>2026-04-10T07:41:19Z</time></trkpt><trkpt lat="39.22615011508898" lon="9.193275055391219"><ele>-2.0</ele><time>2026-04-10T07:41:20Z</time></trkpt><trkpt lat="39.226234037660156" lon="9.193199122376429"><ele>-2.0</ele><time>2026-04-10T07:41:21Z</time></trkpt><trkpt lat="39.22632732164561" lon="9.193116534219229"><ele>-2.0</ele><time>2026-04-10T07:41:22Z</time></trkpt><trkpt lat="39.22643337628455" lon="9.193021319254465"><ele>-2.0</ele><time>2026-04-10T07:41:23Z</time></trkpt><trkpt lat="39.226547677415745" lon="9.192917957897496"><ele>-2.0</ele><time>2026-04-10T07:41:24Z</time></trkpt><trkpt lat="39.22667218446346" lon="9.192806856909971"><ele>-2.0</ele><time>2026-04-10T07:41:25Z</time></trkpt><trkpt lat="39.226804936601525" lon="9.192689267060148"><ele>-2.0</ele><time>2026-04-10T07:41:26Z</time></trkpt><trkpt lat="39.22692912003648" lon="9.192578041310577"><ele>-2.0</ele><time>2026-04-10T07:41:27Z</time></trkpt><trkpt lat="39.227058132535625" lon="9.192463027912055"><ele>-2.0</ele><time>2026-04-10T07:41:28Z</time></trkpt><trkpt lat="39.22717773449025" lon="9.19235518692811"><ele>-2.0</ele><time>2026-04-10T07:41:29Z</time></trkpt><trkpt lat="39.22728920900501" lon="9.192256643868669"><ele>-2.0</ele><time>2026-04-10T07:41:30Z</time></trkpt><trkpt lat="39.227405044779125" lon="9.192155699010728"><ele>-2.0</ele><time>2026-04-10T07:41:31Z</time></trkpt><trkpt lat="39.22752132167242" lon="9.1920482575214"><ele>-2.0</ele><time>2026-04-10T07:41:32Z</time></trkpt><trkpt lat="39.22764597031685" lon="9.19193724296146"><ele>-2.0</ele><time>2026-04-10T07:41:33Z</time></trkpt><trkpt lat="39.22776771415317" lon="9.191829014581712"><ele>-2.0</ele><time>2026-04-10T07:41:34Z</time></trkpt><trkpt lat="39.22787968962196" lon="9.191729356193726"><ele>-2.0</ele><time>2026-04-10T07:41:35Z</time></trkpt><trkpt lat="39.227988725678316" lon="9.191631167793473"><ele>-2.0</ele><time>2026-04-10T07:41:36Z</time></trkpt><trkpt lat="39.22810192442361" lon="9.191529907693301"><ele>-1.25</ele><time>2026-04-10T07:41:37Z</time></trkpt><trkpt lat="39.22821733886749" lon="9.191427692577694"><ele>-0.5</ele><time>2026-04-10T07:41:38Z</time></trkpt><trkpt lat="39.2283321956761" lon="9.19132827711559"><ele>0.25</ele><time>2026-04-10T07:41:39Z</time></trkpt><trkpt lat="39.22843643854719" lon="9.191234281938284"><ele>1.0</ele><time>2026-04-10T07:41:40Z</time></trkpt><trkpt lat="39.228533142079065" lon="9.191147505419304"><ele>1.0</ele><time>2026-04-10T07:41:41Z</time></trkpt><trkpt lat="39.22862273332063" lon="9.191069275860315"><ele>1.0</ele><time>2026-04-10T07:41:42Z</time></trkpt><trkpt lat="39.22871501193308" lon="9.190980926475321"><ele>1.0</ele><time>2026-04-10T07:41:43Z</time></trkpt><trkpt lat="39.228815258879735" lon="9.190891424535362"><ele>1.0</ele><time>2026-04-10T07:41:44Z</time></trkpt><trkpt lat="39.22891474548037" lon="9.190800273971515"><ele>1.0</ele><time>2026-04-10T07:41:45Z</time></trkpt><trkpt lat="39.22901813309857" lon="9.190709705968635"><ele>1.0</ele><time>2026-04-10T07:41:46Z</time></trkpt><trkpt lat="39.22911826789535" lon="9.190615058967666"><ele>1.0</ele><time>2026-04-10T07:41:46.999Z</time></trkpt><trkpt lat="39.22922190701301" lon="9.190523394382367"><ele>1.0</ele><time>2026-04-10T07:41:47.999Z</time></trkpt><trkpt lat="39.22932474526996" lon="9.190429827337695"><ele>1.2000000000000002</ele><time>2026-04-10T07:41:48.999Z</time></trkpt><trkpt lat="39.22942254169437" lon="9.190345474514565"><ele>1.4000000000000001</ele><time>2026-04-10T07:41:49.999Z</time></trkpt><trkpt lat="39.22952326227364" lon="9.190261133404588"><ele>1.6</ele><time>2026-04-10T07:41:50.999Z</time></trkpt><trkpt lat="39.229603429343754" lon="9.19018712216032"><ele>1.8</ele><time>2026-04-10T07:41:51.999Z</time></trkpt><trkpt lat="39.22967995598392" lon="9.190114220532573"><ele>2.0</ele><time>2026-04-10T07:41:52.999Z</time></trkpt><trkpt lat="39.229760924707826" lon="9.190037320392616"><ele>2.75</ele><time>2026-04-10T07:41:53.999Z</time></trkpt><trkpt lat="39.22985342337671" lon="9.189951300691849"><ele>3.5</ele><time>2026-04-10T07:41:54.999Z</time></trkpt><trkpt lat="39.22995123791799" lon="9.189861259670748"><ele>4.25</ele><time>2026-04-10T07:41:55.999Z</time></trkpt><trkpt lat="39.230055534364794" lon="9.18977246824459"><ele>5.0</ele><time>2026-04-10T07:41:56.999Z</time></trkpt><trkpt lat="39.23016075916204" lon="9.189673723396323"><ele>5.2</ele><time>2026-04-10T07:41:57.999Z</time></trkpt><trkpt lat="39.23025957316" lon="9.189583995474084"><ele>5.4</ele><time>2026-04-10T07:41:58.999Z</time></trkpt><trkpt lat="39.23034946796746" lon="9.189513302965906"><ele>5.6</ele><time>2026-04-10T07:41:59.999Z</time></trkpt><trkpt lat="39.23042421488782" lon="9.189438465557492"><ele>5.8</ele><time>2026-04-10T07:42:00.999Z</time></trkpt><trkpt lat="39.23048851118592" lon="9.18935723382618"><ele>6.0</ele><time>2026-04-10T07:42:01.999Z</time></trkpt><trkpt lat="39.23055008964644" lon="9.189304434621771"><ele>5.999999999999999</ele><time>2026-04-10T07:42:02.999Z</time></trkpt><trkpt lat="39.230606701230265" lon="9.189256977692358"><ele>6.0</ele><time>2026-04-10T07:42:03.999Z</time></trkpt><trkpt lat="39.23068364271646" lon="9.189194087707653"><ele>6.0</ele><time>2026-04-10T07:42:05.999Z</time></trkpt><trkpt lat="39.230740901413164" lon="9.189140253802673"><ele>6.0</ele><time>2026-04-10T07:42:08Z</time></trkpt><trkpt lat="39.23079684336877" lon="9.1890811610209"><ele>6.0</ele><time>2026-04-10T07:42:11Z</time></trkpt><trkpt lat="39.23085224303387" lon="9.189040985219956"><ele>5.999999999999999</ele><time>2026-04-10T07:42:14Z</time></trkpt><trkpt lat="39.23091148375245" lon="9.188985156904298"><ele>6.0</ele><time>2026-04-10T07:42:18Z</time></trkpt><trkpt lat="39.23099427386249" lon="9.188934513685693"><ele>6.4</ele><time>2026-04-10T07:42:23Z</time></trkpt><trkpt lat="39.23109579859699" lon="9.188835126005708"><ele>6.8</ele><time>2026-04-10T07:42:25Z</time></trkpt><trkpt lat="39.23115078037934" lon="9.18876929025169"><ele>7.200000000000001</ele><time>2026-04-10T07:42:26Z</time></trkpt><trkpt lat="39.23121782693736" lon="9.188697359771353"><ele>7.6000000000000005</ele><time>2026-04-10T07:42:27Z</time></trkpt><trkpt lat="39.231312607767734" lon="9.188635797218055"><ele>8.0</ele><time>2026-04-10T07:42:28Z</time></trkpt><trkpt lat="39.231416164693215" lon="9.18854519874626"><ele>8.0</ele><time>2026-04-10T07:42:29Z</time></trkpt><trkpt lat="39.23152451229493" lon="9.188450409407597"><ele>8.0</ele><time>2026-04-10T07:42:30Z</time></trkpt><trkpt lat="39.23163743413838" lon="9.18834818765313"><ele>8.0</ele><time>2026-04-10T07:42:31Z</time></trkpt><trkpt lat="39.23174284922572" lon="9.188225636373442"><ele>8.0</ele><time>2026-04-10T07:42:32Z</time></trkpt><trkpt lat="39.231846269615616" lon="9.188126259654023"><ele>8.0</ele><time>2026-04-10T07:42:33Z</time></trkpt><trkpt lat="39.231939202412256" lon="9.188016976186235"><ele>8.0</ele><time>2026-04-10T07:42:34Z</time></trkpt><trkpt lat="39.23202185404072" lon="9.187908987911925"><ele>8.0</ele><time>2026-04-10T07:42:35Z</time></trkpt><trkpt lat="39.232113264434005" lon="9.187819301378605"><ele>8.0</ele><time>2026-04-10T07:42:36Z</time></trkpt><trkpt lat="39.23219140027111" lon="9.187713922614414"><ele>8.0</ele><time>2026-04-10T07:42:37Z</time></trkpt><trkpt lat="39.232257045396764" lon="9.187593087693658"><ele>8.0</ele><time>2026-04-10T07:42:38Z</time></trkpt><trkpt lat="39.23232434560724" lon="9.187498820643665"><ele>8.0</ele><time>2026-04-10T07:42:39Z</time></trkpt><trkpt lat="39.232381866269165" lon="9.187406414618662"><ele>8.0</ele><time>2026-04-10T07:42:40Z</time></trkpt><trkpt lat="39.2324348444326" lon="9.187323564842066"><ele>8.0</ele><time>2026-04-10T07:42:41Z</time></trkpt><trkpt lat="39.232480685817336" lon="9.187251165046602"><ele>7.999999999999999</ele><time>2026-04-10T07:42:42Z</time></trkpt><trkpt lat="39.232525698896886" lon="9.18718687806528"><ele>8.0</ele><time>2026-04-10T07:42:43Z</time></trkpt><trkpt lat="39.232567683722536" lon="9.187116681519958"><ele>8.0</ele><time>2026-04-10T07:42:44Z</time></trkpt><trkpt lat="39.23261419054407" lon="9.187038663851304"><ele>8.0</ele><time>2026-04-10T07:42:45Z</time></trkpt><trkpt lat="39.23267082714899" lon="9.186953829520599"><ele>7.999999999999999</ele><time>2026-04-10T07:42:46Z</time></trkpt><trkpt lat="39.23272256648591" lon="9.18687114243815"><ele>8.0</ele><time>2026-04-10T07:42:47Z</time></trkpt><trkpt lat="39.23277818331171" lon="9.186785231178497"><ele>7.999999999999999</ele><time>2026-04-10T07:42:48Z</time></trkpt><trkpt lat="39.232829362920555" lon="9.186703561793358"><ele>8.0</ele><time>2026-04-10T07:42:49Z</time></trkpt><trkpt lat="39.23287582939344" lon="9.186629908793638"><ele>8.0</ele><time>2026-04-10T07:42:50Z</time></trkpt><trkpt lat="39.23292556784305" lon="9.186549981154382"><ele>8.0</ele><time>2026-04-10T07:42:51Z</time></trkpt><trkpt lat="39.23296749182405" lon="9.186478039168136"><ele>7.999999999999999</ele><time>2026-04-10T07:42:52Z</time></trkpt><trkpt lat="39.23303057256093" lon="9.186368845085074"><ele>8.0</ele><time>2026-04-10T07:42:54Z</time></trkpt><trkpt lat="39.233083539089385" lon="9.18628154404557"><ele>7.800000000000001</ele><time>2026-04-10T07:42:56Z</time></trkpt><trkpt lat="39.23313599910011" lon="9.186195961063515"><ele>7.6000000000000005</ele><time>2026-04-10T07:42:58Z</time></trkpt><trkpt lat="39.23320721270222" lon="9.186109050847275"><ele>7.3999999999999995</ele><time>2026-04-10T07:43:00Z</time></trkpt><trkpt lat="39.233279462225056" lon="9.185993926398176"><ele>7.199999999999999</ele><time>2026-04-10T07:43:02Z</time></trkpt><trkpt lat="39.23333479314553" lon="9.185905760528613"><ele>7.0</ele><time>2026-04-10T07:43:04Z</time></trkpt><trkpt lat="39.23338578705196" lon="9.185824505404787"><ele>6.8</ele><time>2026-04-10T07:43:06Z</time></trkpt><trkpt lat="39.233431193616894" lon="9.185729912655"><ele>6.6</ele><time>2026-04-10T07:43:08Z</time></trkpt><trkpt lat="39.23348120979958" lon="9.185656977037198"><ele>6.3999999999999995</ele><time>2026-04-10T07:43:11Z</time></trkpt><trkpt lat="39.23354696730256" lon="9.185598008087055"><ele>6.199999999999999</ele><time>2026-04-10T07:43:14Z</time></trkpt><trkpt lat="39.23362959053997" lon="9.185470571322433"><ele>6.0</ele><time>2026-04-10T07:43:16Z</time></trkpt><trkpt lat="39.23369752192839" lon="9.185381198777884"><ele>6.0</ele><time>2026-04-10T07:43:17Z</time></trkpt><trkpt lat="39.23377008357593" lon="9.185264226128599"><ele>6.0</ele><time>2026-04-10T07:43:18Z</time></trkpt><trkpt lat="39.23384100014934" lon="9.185138047742592"><ele>6.0</ele><time>2026-04-10T07:43:19Z</time></trkpt><trkpt lat="39.23390780393712" lon="9.184994020115807"><ele>6.0</ele><time>2026-04-10T07:43:20Z</time></trkpt><trkpt lat="39.23397895065111" lon="9.184858705732903"><ele>6.4</ele><time>2026-04-10T07:43:21Z</time></trkpt><trkpt lat="39.23404649890557" lon="9.18474206515329"><ele>6.8</ele><time>2026-04-10T07:43:22Z</time></trkpt><trkpt lat="39.23412310264846" lon="9.184651547735237"><ele>7.200000000000001</ele><time>2026-04-10T07:43:23Z</time></trkpt><trkpt lat="39.2341769721178" lon="9.184565067571034"><ele>7.6000000000000005</ele><time>2026-04-10T07:43:24Z</time></trkpt><trkpt lat="39.23421919128039" lon="9.184497657745478"><ele>8.0</ele><time>2026-04-10T07:43:25Z</time></trkpt><trkpt lat="39.234291208593405" lon="9.184382670260133"><ele>8.0</ele><time>2026-04-10T07:43:27Z</time></trkpt><trkpt lat="39.234369867146064" lon="9.184257328365952"><ele>8.0</ele><time>2026-04-10T07:43:29Z</time></trkpt><trkpt lat="39.23441122614636" lon="9.184172955498234"><ele>8.0</ele><time>2026-04-10T07:43:30Z</time></trkpt><trkpt lat="39.23446166204883" lon="9.184089527941941"><ele>8.0</ele><time>2026-04-10T07:43:31Z</time></trkpt><trkpt lat="39.23451277291866" lon="9.18400980498316"><ele>8.0</ele><time>2026-04-10T07:43:32Z</time></trkpt><trkpt lat="39.23456706915909" lon="9.183923662412122"><ele>7.999999999999999</ele><time>2026-04-10T07:43:33Z</time></trkpt><trkpt lat="39.23462583452387" lon="9.183830927138303"><ele>8.0</ele><time>2026-04-10T07:43:34Z</time></trkpt><trkpt lat="39.23468312143582" lon="9.183736524500464"><ele>8.0</ele><time>2026-04-10T07:43:35Z</time></trkpt><trkpt lat="39.23473999920007" lon="9.18364615725382"><ele>8.0</ele><time>2026-04-10T07:43:36Z</time></trkpt><trkpt lat="39.23478986390201" lon="9.183563852559402"><ele>7.999999999999999</ele><time>2026-04-10T07:43:37Z</time></trkpt><trkpt lat="39.23483372669181" lon="9.18349042230821"><ele>8.0</ele><time>2026-04-10T07:43:38Z</time></trkpt><trkpt lat="39.234882589594456" lon="9.183427455612001"><ele>7.999999999999999</ele><time>2026-04-10T07:43:39Z</time></trkpt><trkpt lat="39.234929292705296" lon="9.183350932733832"><ele>8.0</ele><time>2026-04-10T07:43:40Z</time></trkpt><trkpt lat="39.23498389105417" lon="9.183267897702173"><ele>8.0</ele><time>2026-04-10T07:43:41Z</time></trkpt><trkpt lat="39.23503343884207" lon="9.183193243746397"><ele>8.0</ele><time>2026-04-10T07:43:42Z</time></trkpt><trkpt lat="39.235075772950516" lon="9.183127941727"><ele>7.999999999999999</ele><time>2026-04-10T07:43:43Z</time></trkpt><trkpt lat="39.235151065064436" lon="9.183016361829234"><ele>8.0</ele><time>2026-04-10T07:43:45Z</time></trkpt><trkpt lat="39.23524257104546" lon="9.182896164535606"><ele>8.166666666666666</ele><time>2026-04-10T07:43:47Z</time></trkpt><trkpt lat="39.23529762751318" lon="9.18282532198732"><ele>8.333333333333332</ele><time>2026-04-10T07:43:48Z</time></trkpt><trkpt lat="39.23535597777836" lon="9.182755516474252"><ele>8.5</ele><time>2026-04-10T07:43:49Z</time></trkpt><trkpt lat="39.23541642425712" lon="9.182693232409425"><ele>8.666666666666666</ele><time>2026-04-10T07:43:50Z</time></trkpt><trkpt lat="39.235477943859294" lon="9.18263433083135"><ele>8.833333333333334</ele><time>2026-04-10T07:43:51Z</time></trkpt><trkpt lat="39.235540296319606" lon="9.182571641892661"><ele>9.0</ele><time>2026-04-10T07:43:52Z</time></trkpt><trkpt lat="39.235605327759004" lon="9.182508062326363"><ele>9.0</ele><time>2026-04-10T07:43:52.999Z</time></trkpt><trkpt lat="39.23567142695846" lon="9.182444857329601"><ele>9.0</ele><time>2026-04-10T07:43:53.999Z</time></trkpt><trkpt lat="39.23574051653114" lon="9.182385777386735"><ele>9.0</ele><time>2026-04-10T07:43:54.999Z</time></trkpt><trkpt lat="39.23581158661967" lon="9.182333630455153"><ele>9.0</ele><time>2026-04-10T07:43:55.999Z</time></trkpt><trkpt lat="39.23587626620313" lon="9.1822751927241"><ele>9.0</ele><time>2026-04-10T07:43:56.999Z</time></trkpt><trkpt lat="39.235940722832346" lon="9.182222643844867"><ele>9.0</ele><time>2026-04-10T07:43:57.999Z</time></trkpt><trkpt lat="39.23600108649367" lon="9.18217090951833"><ele>8.833333333333334</ele><time>2026-04-10T07:43:58.999Z</time></trkpt><trkpt lat="39.23607384313186" lon="9.182129287848102"><ele>8.666666666666666</ele><time>2026-04-10T07:43:59.999Z</time></trkpt><trkpt lat="39.236141580113184" lon="9.18207128805863"><ele>8.5</ele><time>2026-04-10T07:44:00.999Z</time></trkpt><trkpt lat="39.2362121407054" lon="9.18201311373011"><ele>8.333333333333332</ele><time>2026-04-10T07:44:01.999Z</time></trkpt><trkpt lat="39.23628049892421" lon="9.18195407664127"><ele>8.166666666666666</ele><time>2026-04-10T07:44:02.999Z</time></trkpt><trkpt lat="39.23635326302346" lon="9.181893886409425"><ele>8.0</ele><time>2026-04-10T07:44:03.999Z</time></trkpt><trkpt lat="39.23642491214524" lon="9.181836156925897"><ele>8.166666666666666</ele><time>2026-04-10T07:44:04.999Z</time></trkpt><trkpt lat="39.23650236660943" lon="9.181788925822996"><ele>8.333333333333332</ele><time>2026-04-10T07:44:05.999Z</time></trkpt><trkpt lat="39.23657717585661" lon="9.181729908767714"><ele>8.5</ele><time>2026-04-10T07:44:06.999Z</time></trkpt><trkpt lat="39.236644833334026" lon="9.181665939062869"><ele>8.666666666666666</ele><time>2026-04-10T07:44:07.999Z</time></trkpt><trkpt lat="39.23671620689624" lon="9.181621144804375"><ele>8.833333333333334</ele><time>2026-04-10T07:44:08.999Z</time></trkpt><trkpt lat="39.236777549956315" lon="9.181568492196279"><ele>9.0</ele><time>2026-04-10T07:44:09.999Z</time></trkpt><trkpt lat="39.23683644155446" lon="9.181516753160523"><ele>8.714285714285715</ele><time>2026-04-10T07:44:10.999Z</time></trkpt><trkpt lat="39.23690232216316" lon="9.181475379495986"><ele>8.428571428571429</ele><time>2026-04-10T07:44:12Z</time></trkpt><trkpt lat="39.23696045816981" lon="9.181423540748625"><ele>8.142857142857142</ele><time>2026-04-10T07:44:13Z</time></trkpt><trkpt lat="39.23702308835324" lon="9.181383912285533"><ele>7.857142857142858</ele><time>2026-04-10T07:44:14Z</time></trkpt><trkpt lat="39.23707672789359" lon="9.181333831654321"><ele>7.571428571428571</ele><time>2026-04-10T07:44:15Z</time></trkpt><trkpt lat="39.23713798545174" lon="9.181295240835496"><ele>7.285714285714286</ele><time>2026-04-10T07:44:16Z</time></trkpt><trkpt lat="39.23719378202186" lon="9.1812496444913"><ele>7.0</ele><time>2026-04-10T07:44:17Z</time></trkpt><trkpt lat="39.23724604339488" lon="9.18120188148299"><ele>7.166666666666667</ele><time>2026-04-10T07:44:18Z</time></trkpt><trkpt lat="39.237337754121675" lon="9.181113678457509"><ele>7.333333333333334</ele><time>2026-04-10T07:44:20Z</time></trkpt><trkpt lat="39.23741256003614" lon="9.181043806304979"><ele>7.5</ele><time>2026-04-10T07:44:22Z</time></trkpt><trkpt lat="39.23747089168596" lon="9.180988475656005"><ele>7.666666666666666</ele><time>2026-04-10T07:44:24Z</time></trkpt><trkpt lat="39.2375362374129" lon="9.180940613903086"><ele>7.833333333333333</ele><time>2026-04-10T07:44:26Z</time></trkpt><trkpt lat="39.23760751360065" lon="9.180869618027842"><ele>8.0</ele><time>2026-04-10T07:44:28Z</time></trkpt><trkpt lat="39.2377078704488" lon="9.180778805045668"><ele>7.999999999999999</ele><time>2026-04-10T07:44:30Z</time></trkpt><trkpt lat="39.23776672460743" lon="9.18072284946582"><ele>8.0</ele><time>2026-04-10T07:44:31Z</time></trkpt><trkpt lat="39.23782109412174" lon="9.180665633294641"><ele>8.0</ele><time>2026-04-10T07:44:32Z</time></trkpt><trkpt lat="39.23790872385663" lon="9.18057639248361"><ele>8.0</ele><time>2026-04-10T07:44:34Z</time></trkpt><trkpt lat="39.23799525843736" lon="9.180522305311438"><ele>7.999999999999999</ele><time>2026-04-10T07:44:36Z</time></trkpt><trkpt lat="39.238041286126524" lon="9.180463777994555"><ele>8.0</ele><time>2026-04-10T07:44:37Z</time></trkpt><trkpt lat="39.238136829577606" lon="9.1803847738263"><ele>7.833333333333333</ele><time>2026-04-10T07:44:39Z</time></trkpt><trkpt lat="39.23818895410327" lon="9.180332484586902"><ele>7.666666666666666</ele><time>2026-04-10T07:44:40Z</time></trkpt><trkpt lat="39.238243099718225" lon="9.18028102184852"><ele>7.5</ele><time>2026-04-10T07:44:41Z</time></trkpt><trkpt lat="39.23829478068569" lon="9.18023202393943"><ele>7.333333333333334</ele><time>2026-04-10T07:44:42Z</time></trkpt><trkpt lat="39.238371608990235" lon="9.180151838428543"><ele>7.166666666666667</ele><time>2026-04-10T07:44:44Z</time></trkpt><trkpt lat="39.238460616522914" lon="9.180096715994162"><ele>7.0</ele><time>2026-04-10T07:44:47Z</time></trkpt><trkpt lat="39.23852318171473" lon="9.180013758511235"><ele>7.0</ele><time>2026-04-10T07:44:49Z</time></trkpt><trkpt lat="39.238620237584" lon="9.179929124115557"><ele>6.999999999999999</ele><time>2026-04-10T07:44:51Z</time></trkpt><trkpt lat="39.238683214298135" lon="9.179868723459201"><ele>6.999999999999999</ele><time>2026-04-10T07:44:52Z</time></trkpt><trkpt lat="39.23874570174363" lon="9.179808830313604"><ele>7.0</ele><time>2026-04-10T07:44:53Z</time></trkpt><trkpt lat="39.23881035890808" lon="9.179773999438789"><ele>7.0</ele><time>2026-04-10T07:44:54Z</time></trkpt><trkpt lat="39.23890405750768" lon="9.179688006380866"><ele>7.000000000000001</ele><time>2026-04-10T07:44:56Z</time></trkpt><trkpt lat="39.23897697388395" lon="9.179621087205907"><ele>7.0</ele><time>2026-04-10T07:44:58Z</time></trkpt><trkpt lat="39.239042202606115" lon="9.179561224045186"><ele>7.0</ele><time>2026-04-10T07:45:00Z</time></trkpt><trkpt lat="39.23911796615382" lon="9.179490749395901"><ele>7.0</ele><time>2026-04-10T07:45:02Z</time></trkpt><trkpt lat="39.239185487935735" lon="9.179411446909828"><ele>7.000000000000001</ele><time>2026-04-10T07:45:04Z</time></trkpt><trkpt lat="39.239258374596226" lon="9.179339087521015"><ele>7.0</ele><time>2026-04-10T07:45:06Z</time></trkpt><trkpt lat="39.23932806777408" lon="9.179297479319382"><ele>7.000000000000001</ele><time>2026-04-10T07:45:08Z</time></trkpt><trkpt lat="39.239382647793676" lon="9.179247041899979"><ele>7.0</ele><time>2026-04-10T07:45:11Z</time></trkpt><trkpt lat="39.239441489791666" lon="9.179177680607362"><ele>7.0</ele><time>2026-04-10T07:45:15Z</time></trkpt><trkpt lat="39.239500524004825" lon="9.17913262832887"><ele>7.0</ele><time>2026-04-10T07:45:18Z</time></trkpt><trkpt lat="39.239578195425814" lon="9.17905622078018"><ele>7.000000000000001</ele><time>2026-04-10T07:45:21Z</time></trkpt><trkpt lat="39.23966835842568" lon="9.178969983470028"><ele>7.0</ele><time>2026-04-10T07:45:23Z</time></trkpt><trkpt lat="39.23977753515433" lon="9.178883365689009"><ele>7.199999999999999</ele><time>2026-04-10T07:45:25Z</time></trkpt><trkpt lat="39.23983713965213" lon="9.17882772999253"><ele>7.3999999999999995</ele><time>2026-04-10T07:45:26Z</time></trkpt><trkpt lat="39.23990489993823" lon="9.178764479961854"><ele>7.6000000000000005</ele><time>2026-04-10T07:45:27Z</time></trkpt><trkpt lat="39.239980598658605" lon="9.178694007288179"><ele>7.800000000000001</ele><time>2026-04-10T07:45:28Z</time></trkpt><trkpt lat="39.24006320623965" lon="9.17861703700955"><ele>8.0</ele><time>2026-04-10T07:45:29Z</time></trkpt><trkpt lat="39.24014536870301" lon="9.17854048158018"><ele>7.999999999999999</ele><time>2026-04-10T07:45:30Z</time></trkpt><trkpt lat="39.2402139108284" lon="9.17845931861534"><ele>8.0</ele><time>2026-04-10T07:45:31Z</time></trkpt><trkpt lat="39.240280804568854" lon="9.178405298624611"><ele>8.0</ele><time>2026-04-10T07:45:32Z</time></trkpt><trkpt lat="39.2403361875045" lon="9.178352149419938"><ele>8.0</ele><time>2026-04-10T07:45:33Z</time></trkpt><trkpt lat="39.24043740221957" lon="9.178255204514336"><ele>7.999999999999999</ele><time>2026-04-10T07:45:35Z</time></trkpt><trkpt lat="39.24048885827772" lon="9.178205998380486"><ele>8.0</ele><time>2026-04-10T07:45:36Z</time></trkpt><trkpt lat="39.24054977934535" lon="9.17814892264222"><ele>7.833333333333333</ele><time>2026-04-10T07:45:37Z</time></trkpt><trkpt lat="39.24061186034251" lon="9.178092034257118"><ele>7.666666666666666</ele><time>2026-04-10T07:45:38Z</time></trkpt><trkpt lat="39.240681698477836" lon="9.178042015033423"><ele>7.5</ele><time>2026-04-10T07:45:39Z</time></trkpt><trkpt lat="39.240744380769094" lon="9.177978889796398"><ele>7.333333333333334</ele><time>2026-04-10T07:45:40Z</time></trkpt><trkpt lat="39.240807016128926" lon="9.177920066737403"><ele>7.166666666666667</ele><time>2026-04-10T07:45:41Z</time></trkpt><trkpt lat="39.24086978355792" lon="9.17786174533689"><ele>7.0</ele><time>2026-04-10T07:45:42Z</time></trkpt><trkpt lat="39.24093144942868" lon="9.177801928753963"><ele>7.333333333333334</ele><time>2026-04-10T07:45:43Z</time></trkpt><trkpt lat="39.24098288180224" lon="9.177754462676493"><ele>7.666666666666667</ele><time>2026-04-10T07:45:44Z</time></trkpt><trkpt lat="39.24107327815211" lon="9.177675420079664"><ele>8.0</ele><time>2026-04-10T07:45:46Z</time></trkpt><trkpt lat="39.24115872927852" lon="9.17759087478028"><ele>8.333333333333334</ele><time>2026-04-10T07:45:48Z</time></trkpt><trkpt lat="39.241237778424804" lon="9.177529641227236"><ele>8.666666666666666</ele><time>2026-04-10T07:45:50Z</time></trkpt><trkpt lat="39.241295258494205" lon="9.177474362875051"><ele>9.0</ele><time>2026-04-10T07:45:52Z</time></trkpt><trkpt lat="39.24134523168586" lon="9.1774246453449"><ele>9.0</ele><time>2026-04-10T07:45:54Z</time></trkpt><trkpt lat="39.24141062700857" lon="9.177399407762053"><ele>9.0</ele><time>2026-04-10T07:45:57Z</time></trkpt><trkpt lat="39.24147437349673" lon="9.177363275839081"><ele>9.0</ele><time>2026-04-10T07:46:01.999Z</time></trkpt><trkpt lat="39.241533630974025" lon="9.1773169922781"><ele>9.0</ele><time>2026-04-10T07:46:14Z</time></trkpt><trkpt lat="39.241615631151724" lon="9.177343510808656"><ele>9.0</ele><time>2026-04-10T07:46:16Z</time></trkpt><trkpt lat="39.24170671981513" lon="9.177416409096459"><ele>9.0</ele><time>2026-04-10T07:46:18Z</time></trkpt><trkpt lat="39.24177271373639" lon="9.177234589208041"><ele>9.0</ele><time>2026-04-10T07:46:19Z</time></trkpt><trkpt lat="39.24174679757826" lon="9.177120456025934"><ele>9.0</ele><time>2026-04-10T07:46:20Z</time></trkpt><trkpt lat="39.24176402871567" lon="9.177015754683472"><ele>9.0</ele><time>2026-04-10T07:46:21Z</time></trkpt><trkpt lat="39.24178455171033" lon="9.176901742937385"><ele>9.0</ele><time>2026-04-10T07:46:22Z</time></trkpt><trkpt lat="39.241800558650844" lon="9.176791491873365"><ele>9.0</ele><time>2026-04-10T07:46:23Z</time></trkpt><trkpt lat="39.24181533566226" lon="9.176685154991826"><ele>9.0</ele><time>2026-04-10T07:46:24Z</time></trkpt><trkpt lat="39.24182920901785" lon="9.176581661078318"><ele>9.333333333333334</ele><time>2026-04-10T07:46:25Z</time></trkpt><trkpt lat="39.24184258598505" lon="9.176481870365528"><ele>9.666666666666666</ele><time>2026-04-10T07:46:26Z</time></trkpt><trkpt lat="39.24186353229588" lon="9.176324141285008"><ele>10.0</ele><time>2026-04-10T07:46:28Z</time></trkpt><trkpt lat="39.241874412574134" lon="9.176242125146262"><ele>10.333333333333332</ele><time>2026-04-10T07:46:29Z</time></trkpt><trkpt lat="39.24188772904808" lon="9.176146264580266"><ele>10.666666666666666</ele><time>2026-04-10T07:46:30Z</time></trkpt><trkpt lat="39.241866744927" lon="9.176030030278753"><ele>11.0</ele><time>2026-04-10T07:46:31Z</time></trkpt><trkpt lat="39.241884598272485" lon="9.175913404722218"><ele>11.0</ele><time>2026-04-10T07:46:32Z</time></trkpt><trkpt lat="39.24189915640775" lon="9.175798946760127"><ele>11.0</ele><time>2026-04-10T07:46:33Z</time></trkpt><trkpt lat="39.24191323392217" lon="9.175706669153838"><ele>11.0</ele><time>2026-04-10T07:46:34Z</time></trkpt><trkpt lat="39.24196491953675" lon="9.175572945387207"><ele>11.0</ele><time>2026-04-10T07:46:36Z</time></trkpt><trkpt lat="39.24196684165079" lon="9.175429669738477"><ele>11.0</ele><time>2026-04-10T07:46:38Z</time></trkpt><trkpt lat="39.24198867125546" lon="9.175333608413998"><ele>10.8</ele><time>2026-04-10T07:46:40Z</time></trkpt><trkpt lat="39.24200727387119" lon="9.175204150162637"><ele>10.600000000000001</ele><time>2026-04-10T07:46:42Z</time></trkpt><trkpt lat="39.242027625803296" lon="9.175037341525556"><ele>10.4</ele><time>2026-04-10T07:46:44Z</time></trkpt><trkpt lat="39.24204617799685" lon="9.174928823449044"><ele>10.2</ele><time>2026-04-10T07:46:45Z</time></trkpt><trkpt lat="39.24206322076567" lon="9.174813403262831"><ele>10.0</ele><time>2026-04-10T07:46:46Z</time></trkpt><trkpt lat="39.24207899460127" lon="9.174697076902724"><ele>9.0</ele><time>2026-04-10T07:46:47Z</time></trkpt><trkpt lat="39.242091778001765" lon="9.174579222310422"><ele>8.0</ele><time>2026-04-10T07:46:48Z</time></trkpt><trkpt lat="39.242104843084576" lon="9.174477368481583"><ele>7.0</ele><time>2026-04-10T07:46:49Z</time></trkpt><trkpt lat="39.242124810889216" lon="9.174333344603225"><ele>6.0</ele><time>2026-04-10T07:46:51Z</time></trkpt><trkpt lat="39.242139315535084" lon="9.174226741998186"><ele>5.0</ele><time>2026-04-10T07:46:53Z</time></trkpt><trkpt lat="39.24215705762021" lon="9.174101642033062"><ele>4.5</ele><time>2026-04-10T07:46:55Z</time></trkpt><trkpt lat="39.242169059144594" lon="9.174007913522098"><ele>4.0</ele><time>2026-04-10T07:46:56Z</time></trkpt><trkpt lat="39.24218186984483" lon="9.173909223604886"><ele>3.5</ele><time>2026-04-10T07:46:57Z</time></trkpt><trkpt lat="39.24219530863008" lon="9.173812695455315"><ele>3.0</ele><time>2026-04-10T07:46:58Z</time></trkpt><trkpt lat="39.2422082688831" lon="9.173717398198884"><ele>2.5</ele><time>2026-04-10T07:46:59Z</time></trkpt><trkpt lat="39.24221901428388" lon="9.173623908495632"><ele>2.0</ele><time>2026-04-10T07:47:00Z</time></trkpt><trkpt lat="39.242229768346704" lon="9.173524782794164"><ele>2.0</ele><time>2026-04-10T07:47:01Z</time></trkpt><trkpt lat="39.24224372703102" lon="9.173418665294076"><ele>2.0</ele><time>2026-04-10T07:47:02Z</time></trkpt><trkpt lat="39.24225788358877" lon="9.17330150477082"><ele>2.0</ele><time>2026-04-10T07:47:03Z</time></trkpt><trkpt lat="39.242274222577855" lon="9.17316876881242"><ele>2.0</ele><time>2026-04-10T07:47:04Z</time></trkpt><trkpt lat="39.242290048068654" lon="9.173035052625151"><ele>2.0</ele><time>2026-04-10T07:47:05Z</time></trkpt><trkpt lat="39.24230467860695" lon="9.172902572355811"><ele>2.5</ele><time>2026-04-10T07:47:06Z</time></trkpt><trkpt lat="39.24232041710769" lon="9.172762279943"><ele>3.0</ele><time>2026-04-10T07:47:07Z</time></trkpt><trkpt lat="39.242339699311096" lon="9.172619885408853"><ele>3.5</ele><time>2026-04-10T07:47:08Z</time></trkpt><trkpt lat="39.242360115855135" lon="9.172476610800127"><ele>4.0</ele><time>2026-04-10T07:47:09Z</time></trkpt><trkpt lat="39.242378228915165" lon="9.17232841606318"><ele>4.0</ele><time>2026-04-10T07:47:10Z</time></trkpt><trkpt lat="39.24240103775148" lon="9.172182204487894"><ele>4.0</ele><time>2026-04-10T07:47:11Z</time></trkpt><trkpt lat="39.24242417711412" lon="9.172037438159796"><ele>4.0</ele><time>2026-04-10T07:47:12Z</time></trkpt><trkpt lat="39.242444985634776" lon="9.171893709936368"><ele>4.0</ele><time>2026-04-10T07:47:13Z</time></trkpt><trkpt lat="39.24246395126592" lon="9.17175517982726"><ele>4.0</ele><time>2026-04-10T07:47:14Z</time></trkpt><trkpt lat="39.24248097486883" lon="9.171620698318286"><ele>4.0</ele><time>2026-04-10T07:47:15Z</time></trkpt><trkpt lat="39.2425004393088" lon="9.171482429574997"><ele>4.0</ele><time>2026-04-10T07:47:16Z</time></trkpt><trkpt lat="39.24251726523265" lon="9.171339298641701"><ele>4.0</ele><time>2026-04-10T07:47:17Z</time></trkpt><trkpt lat="39.24253691601429" lon="9.171195609919556"><ele>4.0</ele><time>2026-04-10T07:47:18Z</time></trkpt><trkpt lat="39.242557068957346" lon="9.171045938400763"><ele>3.75</ele><time>2026-04-10T07:47:19Z</time></trkpt><trkpt lat="39.242576475277005" lon="9.170895214736955"><ele>3.5</ele><time>2026-04-10T07:47:20Z</time></trkpt><trkpt lat="39.24259753641221" lon="9.170736904332532"><ele>3.25</ele><time>2026-04-10T07:47:21Z</time></trkpt><trkpt lat="39.24261941265708" lon="9.17057056861205"><ele>3.0</ele><time>2026-04-10T07:47:22Z</time></trkpt><trkpt lat="39.242641722149976" lon="9.170397589436597"><ele>2.25</ele><time>2026-04-10T07:47:23Z</time></trkpt><trkpt lat="39.24266279310151" lon="9.170236589516515"><ele>1.5</ele><time>2026-04-10T07:47:24Z</time></trkpt><trkpt lat="39.242682744267654" lon="9.170082746407177"><ele>0.75</ele><time>2026-04-10T07:47:25Z</time></trkpt><trkpt lat="39.2427032050325" lon="9.169925041862061"><ele>0.0</ele><time>2026-04-10T07:47:26Z</time></trkpt><trkpt lat="39.242724430420445" lon="9.169757235328277"><ele>0.0</ele><time>2026-04-10T07:47:27Z</time></trkpt><trkpt lat="39.242745591653275" lon="9.169581641609355"><ele>0.0</ele><time>2026-04-10T07:47:28Z</time></trkpt><trkpt lat="39.24276808061056" lon="9.169408662416382"><ele>0.0</ele><time>2026-04-10T07:47:29Z</time></trkpt><trkpt lat="39.24278957944132" lon="9.16925033931711"><ele>0.0</ele><time>2026-04-10T07:47:30Z</time></trkpt><trkpt lat="39.242808331500946" lon="9.169105293027519"><ele>0.5</ele><time>2026-04-10T07:47:31Z</time></trkpt><trkpt lat="39.242825845667795" lon="9.168968534254523"><ele>1.0</ele><time>2026-04-10T07:47:32Z</time></trkpt><trkpt lat="39.242845022479486" lon="9.168825366344326"><ele>1.5</ele><time>2026-04-10T07:47:33Z</time></trkpt><trkpt lat="39.24286744494062" lon="9.168669565131301"><ele>2.0</ele><time>2026-04-10T07:47:34Z</time></trkpt><trkpt lat="39.24289081699043" lon="9.168505987980424"><ele>2.0</ele><time>2026-04-10T07:47:35Z</time></trkpt><trkpt lat="39.242910941345485" lon="9.168342513411844"><ele>2.0</ele><time>2026-04-10T07:47:36Z</time></trkpt><trkpt lat="39.24293143554643" lon="9.168178603465119"><ele>2.0</ele><time>2026-04-10T07:47:37Z</time></trkpt><trkpt lat="39.24294901297477" lon="9.168026357165994"><ele>2.0</ele><time>2026-04-10T07:47:38Z</time></trkpt><trkpt lat="39.24296696135577" lon="9.167887947885378"><ele>2.2</ele><time>2026-04-10T07:47:39Z</time></trkpt><trkpt lat="39.242985006141126" lon="9.167757444788526"><ele>2.4000000000000004</ele><time>2026-04-10T07:47:40Z</time></trkpt><trkpt lat="39.24300076108185" lon="9.167636088126388"><ele>2.5999999999999996</ele><time>2026-04-10T07:47:41Z</time></trkpt><trkpt lat="39.24301562805703" lon="9.16752429907644"><ele>2.8</ele><time>2026-04-10T07:47:42Z</time></trkpt><trkpt lat="39.243030256148174" lon="9.16741725168573"><ele>3.0</ele><time>2026-04-10T07:47:43Z</time></trkpt><trkpt lat="39.24304617081337" lon="9.167301051938828"><ele>2.5</ele><time>2026-04-10T07:47:44Z</time></trkpt><trkpt lat="39.24306266323191" lon="9.16716116644952"><ele>2.0</ele><time>2026-04-10T07:47:45Z</time></trkpt><trkpt lat="39.24308012676426" lon="9.167009833109304"><ele>1.5</ele><time>2026-04-10T07:47:46Z</time></trkpt><trkpt lat="39.24310075078489" lon="9.1668427020726"><ele>1.0</ele><time>2026-04-10T07:47:47Z</time></trkpt><trkpt lat="39.2431274717177" lon="9.166649850934911"><ele>3.333333333333333</ele><time>2026-04-10T07:47:48Z</time></trkpt><trkpt lat="39.24315989835984" lon="9.16643953029864"><ele>5.666666666666666</ele><time>2026-04-10T07:47:49Z</time></trkpt><trkpt lat="39.243188753911404" lon="9.166223685663443"><ele>8.0</ele><time>2026-04-10T07:47:50Z</time></trkpt><trkpt lat="39.24321497518659" lon="9.166012027370027"><ele>8.0</ele><time>2026-04-10T07:47:51Z</time></trkpt><trkpt lat="39.243240289971006" lon="9.165809150825716"><ele>8.0</ele><time>2026-04-10T07:47:52Z</time></trkpt><trkpt lat="39.24326424615012" lon="9.165621948151422"><ele>8.0</ele><time>2026-04-10T07:47:53Z</time></trkpt><trkpt lat="39.24329002173471" lon="9.165430840934189"><ele>8.333333333333332</ele><time>2026-04-10T07:47:54.001Z</time></trkpt><trkpt lat="39.24331909957914" lon="9.165222684877596"><ele>8.666666666666666</ele><time>2026-04-10T07:47:55.001Z</time></trkpt><trkpt lat="39.24334801726436" lon="9.165014222358252"><ele>9.0</ele><time>2026-04-10T07:47:56.001Z</time></trkpt><trkpt lat="39.24337118560113" lon="9.164819329433744"><ele>7.666666666666667</ele><time>2026-04-10T07:47:57.001Z</time></trkpt><trkpt lat="39.24340172673761" lon="9.16461246140719"><ele>6.333333333333334</ele><time>2026-04-10T07:47:58.001Z</time></trkpt><trkpt lat="39.243430977943845" lon="9.16440665060325"><ele>5.0</ele><time>2026-04-10T07:47:59.001Z</time></trkpt><trkpt lat="39.24345710946084" lon="9.164191943702516"><ele>4.0</ele><time>2026-04-10T07:48:00.001Z</time></trkpt><trkpt lat="39.24348707202338" lon="9.163968280143118"><ele>3.0</ele><time>2026-04-10T07:48:01.001Z</time></trkpt><trkpt lat="39.24351576444758" lon="9.163751737800133"><ele>2.0</ele><time>2026-04-10T07:48:02.001Z</time></trkpt><trkpt lat="39.24354576650861" lon="9.163533229691117"><ele>2.0</ele><time>2026-04-10T07:48:03.001Z</time></trkpt><trkpt lat="39.24357410842513" lon="9.163318246934182"><ele>2.0</ele><time>2026-04-10T07:48:04.001Z</time></trkpt><trkpt lat="39.24360250328092" lon="9.1631024369254"><ele>2.0</ele><time>2026-04-10T07:48:05Z</time></trkpt><trkpt lat="39.243630267235645" lon="9.162883065432707"><ele>2.0</ele><time>2026-04-10T07:48:06Z</time></trkpt><trkpt lat="39.24365796689482" lon="9.162662525519979"><ele>2.0</ele><time>2026-04-10T07:48:07Z</time></trkpt><trkpt lat="39.24368523723197" lon="9.162438788266805"><ele>2.0</ele><time>2026-04-10T07:48:08Z</time></trkpt><trkpt lat="39.24371363693718" lon="9.162217207328295"><ele>2.0</ele><time>2026-04-10T07:48:09Z</time></trkpt><trkpt lat="39.24374433597972" lon="9.161998224408435"><ele>2.0</ele><time>2026-04-10T07:48:10Z</time></trkpt><trkpt lat="39.2437760387794" lon="9.161777316554463"><ele>2.0</ele><time>2026-04-10T07:48:11Z</time></trkpt><trkpt lat="39.243802108260844" lon="9.161563674122757"><ele>2.333333333333333</ele><time>2026-04-10T07:48:12Z</time></trkpt><trkpt lat="39.243832526136686" lon="9.161355308399795"><ele>2.6666666666666665</ele><time>2026-04-10T07:48:13Z</time></trkpt><trkpt lat="39.243862910660866" lon="9.161150801785574"><ele>3.0</ele><time>2026-04-10T07:48:14Z</time></trkpt><trkpt lat="39.243898750972036" lon="9.160944242113372"><ele>3.0</ele><time>2026-04-10T07:48:15Z</time></trkpt><trkpt lat="39.24393607682321" lon="9.160749104102848"><ele>3.0</ele><time>2026-04-10T07:48:16Z</time></trkpt><trkpt lat="39.24396910718533" lon="9.160560929572982"><ele>3.0</ele><time>2026-04-10T07:48:17Z</time></trkpt><trkpt lat="39.244004966183226" lon="9.160368745337548"><ele>3.0</ele><time>2026-04-10T07:48:18Z</time></trkpt><trkpt lat="39.24403852532828" lon="9.16017274274356"><ele>3.0</ele><time>2026-04-10T07:48:19Z</time></trkpt><trkpt lat="39.24406918115616" lon="9.159966747410344"><ele>3.0</ele><time>2026-04-10T07:48:20Z</time></trkpt><trkpt lat="39.24409838688277" lon="9.159753075068346"><ele>3.0</ele><time>2026-04-10T07:48:21Z</time></trkpt><trkpt lat="39.24412731247922" lon="9.159533977708984"><ele>3.0</ele><time>2026-04-10T07:48:22Z</time></trkpt><trkpt lat="39.24415667141111" lon="9.159306515504932"><ele>3.0</ele><time>2026-04-10T07:48:23Z</time></trkpt><trkpt lat="39.244186646598166" lon="9.159070942040023"><ele>2.0</ele><time>2026-04-10T07:48:24Z</time></trkpt><trkpt lat="39.24421793897209" lon="9.1588474010941"><ele>1.0</ele><time>2026-04-10T07:48:25Z</time></trkpt><trkpt lat="39.244246169219686" lon="9.158637121509495"><ele>0.0</ele><time>2026-04-10T07:48:26Z</time></trkpt><trkpt lat="39.24427315881539" lon="9.158428973553674"><ele>0.0</ele><time>2026-04-10T07:48:27Z</time></trkpt><trkpt lat="39.244298551186716" lon="9.15821874733845"><ele>0.0</ele><time>2026-04-10T07:48:28Z</time></trkpt><trkpt lat="39.244316977516036" lon="9.158005043991277"><ele>0.0</ele><time>2026-04-10T07:48:29Z</time></trkpt><trkpt lat="39.24433161564452" lon="9.157788613482504"><ele>1.6666666666666667</ele><time>2026-04-10T07:48:30Z</time></trkpt><trkpt lat="39.24433653771505" lon="9.157567977444577"><ele>3.3333333333333335</ele><time>2026-04-10T07:48:31Z</time></trkpt><trkpt lat="39.24433231982391" lon="9.157343992439465"><ele>5.0</ele><time>2026-04-10T07:48:32Z</time></trkpt><trkpt lat="39.244322272706036" lon="9.157121866777285"><ele>5.0</ele><time>2026-04-10T07:48:33Z</time></trkpt><trkpt lat="39.24430758896641" lon="9.156909321413522"><ele>5.0</ele><time>2026-04-10T07:48:34Z</time></trkpt><trkpt lat="39.24428645972482" lon="9.156710003445962"><ele>5.0</ele><time>2026-04-10T07:48:35Z</time></trkpt><trkpt lat="39.24425897004583" lon="9.156524383311345"><ele>5.25</ele><time>2026-04-10T07:48:36Z</time></trkpt><trkpt lat="39.244227641622324" lon="9.156347110636865"><ele>5.5</ele><time>2026-04-10T07:48:37Z</time></trkpt><trkpt lat="39.24419071753604" lon="9.156161103525578"><ele>5.75</ele><time>2026-04-10T07:48:38Z</time></trkpt><trkpt lat="39.244151830967" lon="9.155973848266846"><ele>6.0</ele><time>2026-04-10T07:48:39Z</time></trkpt><trkpt lat="39.24411529133621" lon="9.155781315126742"><ele>5.0</ele><time>2026-04-10T07:48:40Z</time></trkpt><trkpt lat="39.24407553853255" lon="9.155584915410856"><ele>4.0</ele><time>2026-04-10T07:48:41Z</time></trkpt><trkpt lat="39.2440363224752" lon="9.155395002527428"><ele>3.0</ele><time>2026-04-10T07:48:42Z</time></trkpt><trkpt lat="39.24399694091056" lon="9.155203138187893"><ele>3.0</ele><time>2026-04-10T07:48:43Z</time></trkpt><trkpt lat="39.243954966721944" lon="9.155014728538672"><ele>3.0</ele><time>2026-04-10T07:48:44Z</time></trkpt><trkpt lat="39.24391260148869" lon="9.154827543145647"><ele>3.0</ele><time>2026-04-10T07:48:45Z</time></trkpt><trkpt lat="39.24386805954749" lon="9.154642314517071"><ele>3.0</ele><time>2026-04-10T07:48:46Z</time></trkpt><trkpt lat="39.243817696988074" lon="9.154456155439812"><ele>3.0</ele><time>2026-04-10T07:48:47Z</time></trkpt><trkpt lat="39.24376166041116" lon="9.154269646651194"><ele>3.0</ele><time>2026-04-10T07:48:48Z</time></trkpt><trkpt lat="39.243696889692494" lon="9.154084498208245"><ele>2.6666666666666665</ele><time>2026-04-10T07:48:49Z</time></trkpt><trkpt lat="39.24362761736422" lon="9.153900701163806"><ele>2.333333333333333</ele><time>2026-04-10T07:48:50Z</time></trkpt><trkpt lat="39.243554189330254" lon="9.153721919286504"><ele>2.0</ele><time>2026-04-10T07:48:51Z</time></trkpt><trkpt lat="39.24347821154652" lon="9.153551657224634"><ele>2.0</ele><time>2026-04-10T07:48:52Z</time></trkpt><trkpt lat="39.24339742364166" lon="9.153393896823445"><ele>2.0</ele><time>2026-04-10T07:48:53Z</time></trkpt><trkpt lat="39.24331418635192" lon="9.153246590318147"><ele>2.0</ele><time>2026-04-10T07:48:54Z</time></trkpt><trkpt lat="39.243228239546" lon="9.153100702755205"><ele>2.0</ele><time>2026-04-10T07:48:55Z</time></trkpt><trkpt lat="39.24313626774283" lon="9.152952145442782"><ele>2.0</ele><time>2026-04-10T07:48:56Z</time></trkpt><trkpt lat="39.24303478903404" lon="9.152794993389662"><ele>2.0</ele><time>2026-04-10T07:48:57Z</time></trkpt><trkpt lat="39.242930417527965" lon="9.15263760802545"><ele>2.0</ele><time>2026-04-10T07:48:58Z</time></trkpt><trkpt lat="39.24282703064796" lon="9.152484434934276"><ele>3.0</ele><time>2026-04-10T07:48:59Z</time></trkpt><trkpt lat="39.24272769701379" lon="9.152332965547037"><ele>4.0</ele><time>2026-04-10T07:49:00Z</time></trkpt><trkpt lat="39.24262614649781" lon="9.152181213964944"><ele>5.0</ele><time>2026-04-10T07:49:01Z</time></trkpt><trkpt lat="39.24252257830609" lon="9.15202767018731"><ele>5.0</ele><time>2026-04-10T07:49:02Z</time></trkpt><trkpt lat="39.24242118848344" lon="9.15186935710384"><ele>5.0</ele><time>2026-04-10T07:49:03Z</time></trkpt><trkpt lat="39.24231790738804" lon="9.151704127854222"><ele>5.0</ele><time>2026-04-10T07:49:04Z</time></trkpt><trkpt lat="39.24221767158757" lon="9.151527920501634"><ele>4.666666666666667</ele><time>2026-04-10T07:49:05Z</time></trkpt><trkpt lat="39.24211485841091" lon="9.15134354145054"><ele>4.333333333333333</ele><time>2026-04-10T07:49:06Z</time></trkpt><trkpt lat="39.24200925398178" lon="9.151155345880767"><ele>4.0</ele><time>2026-04-10T07:49:07Z</time></trkpt><trkpt lat="39.24190125144193" lon="9.150969786950922"><ele>4.0</ele><time>2026-04-10T07:49:08Z</time></trkpt><trkpt lat="39.241793815725885" lon="9.150783696251413"><ele>4.0</ele><time>2026-04-10T07:49:09Z</time></trkpt><trkpt lat="39.241689539875686" lon="9.1506015911528"><ele>4.0</ele><time>2026-04-10T07:49:10Z</time></trkpt><trkpt lat="39.24159038030664" lon="9.150429400690527"><ele>4.5</ele><time>2026-04-10T07:49:11Z</time></trkpt><trkpt lat="39.241500629251846" lon="9.150273778188254"><ele>5.0</ele><time>2026-04-10T07:49:12Z</time></trkpt><trkpt lat="39.24142627095106" lon="9.150136203188001"><ele>5.5</ele><time>2026-04-10T07:49:13Z</time></trkpt><trkpt lat="39.24136087589527" lon="9.15001655804394"><ele>6.0</ele><time>2026-04-10T07:49:14Z</time></trkpt><trkpt lat="39.2413161395554" lon="9.14989722264231"><ele>5.8</ele><time>2026-04-10T07:49:15Z</time></trkpt><trkpt lat="39.24126413754842" lon="9.149795856640287"><ele>5.6</ele><time>2026-04-10T07:49:16Z</time></trkpt><trkpt lat="39.24121467792998" lon="9.149700774873942"><ele>5.4</ele><time>2026-04-10T07:49:17Z</time></trkpt><trkpt lat="39.24116603773846" lon="9.149607593904685"><ele>5.2</ele><time>2026-04-10T07:49:18Z</time></trkpt><trkpt lat="39.24111022623819" lon="9.149500674662423"><ele>5.0</ele><time>2026-04-10T07:49:19Z</time></trkpt><trkpt lat="39.24103659579702" lon="9.149392532521507"><ele>5.0</ele><time>2026-04-10T07:49:20Z</time></trkpt><trkpt lat="39.24097120563306" lon="9.149266019637253"><ele>5.0</ele><time>2026-04-10T07:49:21Z</time></trkpt><trkpt lat="39.240901234109955" lon="9.149138957560305"><ele>5.0</ele><time>2026-04-10T07:49:22Z</time></trkpt><trkpt lat="39.24083399972871" lon="9.149016283254229"><ele>5.0</ele><time>2026-04-10T07:49:23Z</time></trkpt><trkpt lat="39.24077137224283" lon="9.148904123118237"><ele>4.75</ele><time>2026-04-10T07:49:24.001Z</time></trkpt><trkpt lat="39.24071050493736" lon="9.148791971185224"><ele>4.5</ele><time>2026-04-10T07:49:25.001Z</time></trkpt><trkpt lat="39.240649307504896" lon="9.148677935237034"><ele>4.25</ele><time>2026-04-10T07:49:26.001Z</time></trkpt><trkpt lat="39.240585110335324" lon="9.14855218134328"><ele>4.0</ele><time>2026-04-10T07:49:27.001Z</time></trkpt><trkpt lat="39.240512812401874" lon="9.148416302758099"><ele>4.0</ele><time>2026-04-10T07:49:28.001Z</time></trkpt><trkpt lat="39.24043736751777" lon="9.148273541678874"><ele>4.0</ele><time>2026-04-10T07:49:29.001Z</time></trkpt><trkpt lat="39.240360601566984" lon="9.148133827161388"><ele>4.0</ele><time>2026-04-10T07:49:30.001Z</time></trkpt><trkpt lat="39.24028550997429" lon="9.147996527377702"><ele>4.0</ele><time>2026-04-10T07:49:31.001Z</time></trkpt><trkpt lat="39.24020659574287" lon="9.14785047216119"><ele>4.0</ele><time>2026-04-10T07:49:32.001Z</time></trkpt><trkpt lat="39.240120869372454" lon="9.147692605358545"><ele>4.0</ele><time>2026-04-10T07:49:33.001Z</time></trkpt><trkpt lat="39.240034977904166" lon="9.147535870162322"><ele>4.0</ele><time>2026-04-10T07:49:34.001Z</time></trkpt><trkpt lat="39.23994984116667" lon="9.14738136454343"><ele>4.0</ele><time>2026-04-10T07:49:35.001Z</time></trkpt><trkpt lat="39.23986829677944" lon="9.147240812206716"><ele>4.0</ele><time>2026-04-10T07:49:36.001Z</time></trkpt><trkpt lat="39.23978988179872" lon="9.147102979179342"><ele>4.0</ele><time>2026-04-10T07:49:37.001Z</time></trkpt><trkpt lat="39.23970993946966" lon="9.146968619545023"><ele>4.0</ele><time>2026-04-10T07:49:38.001Z</time></trkpt><trkpt lat="39.23963238116433" lon="9.14683175970812"><ele>4.0</ele><time>2026-04-10T07:49:39.001Z</time></trkpt><trkpt lat="39.23954762959337" lon="9.14668345750346"><ele>4.0</ele><time>2026-04-10T07:49:40.001Z</time></trkpt><trkpt lat="39.23945413709305" lon="9.146521019585874"><ele>4.0</ele><time>2026-04-10T07:49:41.001Z</time></trkpt><trkpt lat="39.2393565310692" lon="9.146352028164292"><ele>4.0</ele><time>2026-04-10T07:49:42.001Z</time></trkpt><trkpt lat="39.239257997620015" lon="9.146179513336103"><ele>4.0</ele><time>2026-04-10T07:49:43.001Z</time></trkpt><trkpt lat="39.23916341363867" lon="9.14601667269495"><ele>4.0</ele><time>2026-04-10T07:49:44.001Z</time></trkpt><trkpt lat="39.23907418524817" lon="9.14586406467875"><ele>4.0</ele><time>2026-04-10T07:49:45.001Z</time></trkpt><trkpt lat="39.23898963383148" lon="9.145718558044198"><ele>4.0</ele><time>2026-04-10T07:49:46.001Z</time></trkpt><trkpt lat="39.23889979638913" lon="9.145575729256723"><ele>4.666666666666666</ele><time>2026-04-10T07:49:47.001Z</time></trkpt><trkpt lat="39.23880227462391" lon="9.145421337821038"><ele>5.333333333333333</ele><time>2026-04-10T07:49:48.001Z</time></trkpt><trkpt lat="39.23869577602804" lon="9.145252327760625"><ele>6.0</ele><time>2026-04-10T07:49:49.001Z</time></trkpt><trkpt lat="39.23859208617843" lon="9.145080381269494"><ele>6.0</ele><time>2026-04-10T07:49:50.001Z</time></trkpt><trkpt lat="39.23850693092708" lon="9.14490056260581"><ele>6.0</ele><time>2026-04-10T07:49:51.001Z</time></trkpt><trkpt lat="39.23841412522369" lon="9.144742575871827"><ele>6.0</ele><time>2026-04-10T07:49:52.001Z</time></trkpt><trkpt lat="39.23832626823528" lon="9.14459301343329"><ele>6.0</ele><time>2026-04-10T07:49:53.001Z</time></trkpt><trkpt lat="39.23824383509289" lon="9.144452684266156"><ele>6.0</ele><time>2026-04-10T07:49:54.001Z</time></trkpt><trkpt lat="39.23816623017442" lon="9.144320135729625"><ele>6.0</ele><time>2026-04-10T07:49:55.001Z</time></trkpt><trkpt lat="39.23809196942595" lon="9.144193007535831"><ele>6.0</ele><time>2026-04-10T07:49:56.001Z</time></trkpt><trkpt lat="39.23801460596245" lon="9.144060567602192"><ele>5.75</ele><time>2026-04-10T07:49:57.001Z</time></trkpt><trkpt lat="39.237923257306" lon="9.14394922203829"><ele>5.5</ele><time>2026-04-10T07:49:58.001Z</time></trkpt><trkpt lat="39.237852261226536" lon="9.143827896077529"><ele>5.25</ele><time>2026-04-10T07:49:59.001Z</time></trkpt><trkpt lat="39.23778264860266" lon="9.143708180096207"><ele>5.0</ele><time>2026-04-10T07:50:00.001Z</time></trkpt><trkpt lat="39.23771331476001" lon="9.143588454600899"><ele>5.0</ele><time>2026-04-10T07:50:01.001Z</time></trkpt><trkpt lat="39.23764162281364" lon="9.143467196274491"><ele>5.0</ele><time>2026-04-10T07:50:02.001Z</time></trkpt><trkpt lat="39.237589756989955" lon="9.143331584095126"><ele>5.0</ele><time>2026-04-10T07:50:03.001Z</time></trkpt><trkpt lat="39.23751456801064" lon="9.143201096076112"><ele>5.0</ele><time>2026-04-10T07:50:04.001Z</time></trkpt><trkpt lat="39.23743616963573" lon="9.14306519268233"><ele>5.25</ele><time>2026-04-10T07:50:05.001Z</time></trkpt><trkpt lat="39.237357333167644" lon="9.142927805132212"><ele>5.5</ele><time>2026-04-10T07:50:06.001Z</time></trkpt><trkpt lat="39.23725286780872" lon="9.14280052656057"><ele>5.75</ele><time>2026-04-10T07:50:07.001Z</time></trkpt><trkpt lat="39.23716870854852" lon="9.142655712088834"><ele>6.0</ele><time>2026-04-10T07:50:08.001Z</time></trkpt><trkpt lat="39.237083697091315" lon="9.142511219708911"><ele>6.0</ele><time>2026-04-10T07:50:09.001Z</time></trkpt><trkpt lat="39.23699485794006" lon="9.142365368560117"><ele>6.0</ele><time>2026-04-10T07:50:10.001Z</time></trkpt><trkpt lat="39.23690637789467" lon="9.142212715874004"><ele>6.0</ele><time>2026-04-10T07:50:11.001Z</time></trkpt><trkpt lat="39.23681369472224" lon="9.142054358908917"><ele>6.0</ele><time>2026-04-10T07:50:12.001Z</time></trkpt><trkpt lat="39.23671405466779" lon="9.141882664324811"><ele>6.0</ele><time>2026-04-10T07:50:13.001Z</time></trkpt><trkpt lat="39.23664326231057" lon="9.141688992935713"><ele>6.0</ele><time>2026-04-10T07:50:14.001Z</time></trkpt><trkpt lat="39.236553413153764" lon="9.141532305863503"><ele>6.0</ele><time>2026-04-10T07:50:15.001Z</time></trkpt><trkpt lat="39.23646906717219" lon="9.141385437363512"><ele>5.8</ele><time>2026-04-10T07:50:16.001Z</time></trkpt><trkpt lat="39.236393176243496" lon="9.141253288509267"><ele>5.6</ele><time>2026-04-10T07:50:17.001Z</time></trkpt><trkpt lat="39.23632490589038" lon="9.141134421049374"><ele>5.4</ele><time>2026-04-10T07:50:18.001Z</time></trkpt><trkpt lat="39.23626272207215" lon="9.14102653450999"><ele>5.2</ele><time>2026-04-10T07:50:19.001Z</time></trkpt><trkpt lat="39.236203273024906" lon="9.140921980679536"><ele>5.0</ele><time>2026-04-10T07:50:20.001Z</time></trkpt><trkpt lat="39.23613842847301" lon="9.140809586862114"><ele>4.5</ele><time>2026-04-10T07:50:21.001Z</time></trkpt><trkpt lat="39.23606623119172" lon="9.140683656510006"><ele>4.0</ele><time>2026-04-10T07:50:22.001Z</time></trkpt><trkpt lat="39.23599631812009" lon="9.140562712725506"><ele>3.5</ele><time>2026-04-10T07:50:23.001Z</time></trkpt><trkpt lat="39.23593138375749" lon="9.140451697342883"><ele>3.0</ele><time>2026-04-10T07:50:24.001Z</time></trkpt><trkpt lat="39.23586845381525" lon="9.140345496286312"><ele>3.0</ele><time>2026-04-10T07:50:25.001Z</time></trkpt><trkpt lat="39.235802449423424" lon="9.140237367922289"><ele>3.0</ele><time>2026-04-10T07:50:26Z</time></trkpt><trkpt lat="39.235724162689834" lon="9.140115900528226"><ele>3.0</ele><time>2026-04-10T07:50:27Z</time></trkpt><trkpt lat="39.23564718311311" lon="9.140000682565605"><ele>3.0</ele><time>2026-04-10T07:50:28Z</time></trkpt><trkpt lat="39.235566496309275" lon="9.139887705576726"><ele>3.5</ele><time>2026-04-10T07:50:29Z</time></trkpt><trkpt lat="39.23548055532071" lon="9.13976540496221"><ele>4.0</ele><time>2026-04-10T07:50:30Z</time></trkpt><trkpt lat="39.235386471978686" lon="9.139641308522606"><ele>4.5</ele><time>2026-04-10T07:50:31Z</time></trkpt><trkpt lat="39.235286843294205" lon="9.139509258274138"><ele>5.0</ele><time>2026-04-10T07:50:32Z</time></trkpt><trkpt lat="39.23519305866568" lon="9.139382198612433"><ele>5.0</ele><time>2026-04-10T07:50:33Z</time></trkpt><trkpt lat="39.23510900258001" lon="9.139268415497037"><ele>5.0</ele><time>2026-04-10T07:50:34Z</time></trkpt><trkpt lat="39.23501016391866" lon="9.139188567968974"><ele>5.0</ele><time>2026-04-10T07:50:35Z</time></trkpt><trkpt lat="39.234935805132395" lon="9.13909775015213"><ele>5.0</ele><time>2026-04-10T07:50:36Z</time></trkpt><trkpt lat="39.23486788046926" lon="9.13900589397956"><ele>5.0</ele><time>2026-04-10T07:50:37Z</time></trkpt><trkpt lat="39.234792134114436" lon="9.138906893466833"><ele>5.25</ele><time>2026-04-10T07:50:38Z</time></trkpt><trkpt lat="39.234716060771994" lon="9.138801509184987"><ele>5.5</ele><time>2026-04-10T07:50:39Z</time></trkpt><trkpt lat="39.23466300232671" lon="9.138662798492739"><ele>5.75</ele><time>2026-04-10T07:50:40Z</time></trkpt><trkpt lat="39.23458081854367" lon="9.138550271269034"><ele>6.0</ele><time>2026-04-10T07:50:41Z</time></trkpt><trkpt lat="39.23449933214141" lon="9.138438696834095"><ele>6.0</ele><time>2026-04-10T07:50:42Z</time></trkpt><trkpt lat="39.23441781426643" lon="9.138326436125714"><ele>6.0</ele><time>2026-04-10T07:50:43Z</time></trkpt><trkpt lat="39.23433431310785" lon="9.138214429038037"><ele>6.0</ele><time>2026-04-10T07:50:44Z</time></trkpt><trkpt lat="39.23424959226265" lon="9.138100274360893"><ele>6.0</ele><time>2026-04-10T07:50:45Z</time></trkpt><trkpt lat="39.234162901376386" lon="9.137981787410371"><ele>5.5</ele><time>2026-04-10T07:50:46Z</time></trkpt><trkpt lat="39.23407525548585" lon="9.137861798816733"><ele>5.0</ele><time>2026-04-10T07:50:47Z</time></trkpt><trkpt lat="39.23394867054777" lon="9.137782507496903"><ele>4.5</ele><time>2026-04-10T07:50:48Z</time></trkpt><trkpt lat="39.23385781778343" lon="9.137663988519138"><ele>4.0</ele><time>2026-04-10T07:50:49Z</time></trkpt><trkpt lat="39.23377654278157" lon="9.137551894927496"><ele>4.0</ele><time>2026-04-10T07:50:50Z</time></trkpt><trkpt lat="39.23370023358749" lon="9.137450309866637"><ele>4.0</ele><time>2026-04-10T07:50:51Z</time></trkpt><trkpt lat="39.23366640780954" lon="9.137307846266925"><ele>4.0</ele><time>2026-04-10T07:50:52Z</time></trkpt><trkpt lat="39.23359009262015" lon="9.137204375253589"><ele>4.0</ele><time>2026-04-10T07:50:53Z</time></trkpt><trkpt lat="39.23350633634818" lon="9.137090818098628"><ele>4.5</ele><time>2026-04-10T07:50:54Z</time></trkpt><trkpt lat="39.233410043129524" lon="9.136959199798854"><ele>5.0</ele><time>2026-04-10T07:50:55Z</time></trkpt><trkpt lat="39.23331066113051" lon="9.136822353882431"><ele>5.5</ele><time>2026-04-10T07:50:56Z</time></trkpt><trkpt lat="39.23321751997963" lon="9.136693552139114"><ele>6.0</ele><time>2026-04-10T07:50:57Z</time></trkpt><trkpt lat="39.23312451441785" lon="9.13657393066933"><ele>6.0</ele><time>2026-04-10T07:50:58Z</time></trkpt><trkpt lat="39.23303472175849" lon="9.136457290513023"><ele>6.0</ele><time>2026-04-10T07:50:59Z</time></trkpt><trkpt lat="39.232942248841326" lon="9.136337944178326"><ele>6.0</ele><time>2026-04-10T07:51:00Z</time></trkpt><trkpt lat="39.23285536392728" lon="9.136232498205786"><ele>6.0</ele><time>2026-04-10T07:51:01Z</time></trkpt><trkpt lat="39.23278074488932" lon="9.136143335288859"><ele>6.0</ele><time>2026-04-10T07:51:02Z</time></trkpt><trkpt lat="39.23270936329124" lon="9.136059956440086"><ele>6.0</ele><time>2026-04-10T07:51:03Z</time></trkpt><trkpt lat="39.23263799400586" lon="9.13597743384793"><ele>6.0</ele><time>2026-04-10T07:51:04Z</time></trkpt><trkpt lat="39.232561492485516" lon="9.135891485533255"><ele>6.0</ele><time>2026-04-10T07:51:05Z</time></trkpt><trkpt lat="39.23248908803762" lon="9.135810463146296"><ele>6.0</ele><time>2026-04-10T07:51:06Z</time></trkpt><trkpt lat="39.232424071302304" lon="9.135747852127075"><ele>6.333333333333333</ele><time>2026-04-10T07:51:07Z</time></trkpt><trkpt lat="39.23235526228804" lon="9.13567260417478"><ele>6.666666666666666</ele><time>2026-04-10T07:51:08Z</time></trkpt><trkpt lat="39.2322911991826" lon="9.135591696540713"><ele>7.0</ele><time>2026-04-10T07:51:09Z</time></trkpt><trkpt lat="39.23224399788675" lon="9.135528396453662"><ele>7.333333333333333</ele><time>2026-04-10T07:51:10Z</time></trkpt><trkpt lat="39.23217620696617" lon="9.13539583813853"><ele>7.666666666666666</ele><time>2026-04-10T07:51:12Z</time></trkpt><trkpt lat="39.2321897351296" lon="9.1353047037782"><ele>8.0</ele><time>2026-04-10T07:51:13Z</time></trkpt><trkpt lat="39.23222379459831" lon="9.135202148925458"><ele>7.999999999999999</ele><time>2026-04-10T07:51:15Z</time></trkpt><trkpt lat="39.23228471201678" lon="9.135117411207492"><ele>8.0</ele><time>2026-04-10T07:51:17.001Z</time></trkpt><trkpt lat="39.232329490005974" lon="9.135055021780042"><ele>8.0</ele><time>2026-04-10T07:51:18.001Z</time></trkpt><trkpt lat="39.23238375965819" lon="9.134985489485299"><ele>8.0</ele><time>2026-04-10T07:51:19.001Z</time></trkpt><trkpt lat="39.232443903781274" lon="9.134896335156444"><ele>7.999999999999999</ele><time>2026-04-10T07:51:20.001Z</time></trkpt><trkpt lat="39.232504554024075" lon="9.134798240613918"><ele>8.0</ele><time>2026-04-10T07:51:21.001Z</time></trkpt><trkpt lat="39.232569774550754" lon="9.134696468221463"><ele>9.0</ele><time>2026-04-10T07:51:22.001Z</time></trkpt><trkpt lat="39.2326258953551" lon="9.134609017267989"><ele>10.0</ele><time>2026-04-10T07:51:23.001Z</time></trkpt><trkpt lat="39.232680945444855" lon="9.134530655019047"><ele>11.0</ele><time>2026-04-10T07:51:24.001Z</time></trkpt><trkpt lat="39.232724868964645" lon="9.134466037007835"><ele>12.0</ele><time>2026-04-10T07:51:25.001Z</time></trkpt><trkpt lat="39.23277470416055" lon="9.134394190691193"><ele>13.000000000000002</ele><time>2026-04-10T07:51:26.001Z</time></trkpt><trkpt lat="39.23282231085933" lon="9.134320990061813"><ele>14.0</ele><time>2026-04-10T07:51:27.001Z</time></trkpt><trkpt lat="39.23286450247894" lon="9.134244484261671"><ele>14.000000000000002</ele><time>2026-04-10T07:51:28.001Z</time></trkpt><trkpt lat="39.23289805857224" lon="9.134158014610556"><ele>14.0</ele><time>2026-04-10T07:51:29.001Z</time></trkpt><trkpt lat="39.2329207073705" lon="9.134067705973518"><ele>14.0</ele><time>2026-04-10T07:51:30.001Z</time></trkpt><trkpt lat="39.23293301404636" lon="9.133961741927655"><ele>14.0</ele><time>2026-04-10T07:51:31.001Z</time></trkpt><trkpt lat="39.23293548094505" lon="9.133839226123047"><ele>14.000000000000002</ele><time>2026-04-10T07:51:32.001Z</time></trkpt><trkpt lat="39.2329356230214" lon="9.133714256522351"><ele>14.0</ele><time>2026-04-10T07:51:33.001Z</time></trkpt><trkpt lat="39.23294377360103" lon="9.133585382680346"><ele>13.75</ele><time>2026-04-10T07:51:34.001Z</time></trkpt><trkpt lat="39.23299584564341" lon="9.133445980287773"><ele>13.5</ele><time>2026-04-10T07:51:35.001Z</time></trkpt><trkpt lat="39.233032734363164" lon="9.133315212104778"><ele>13.25</ele><time>2026-04-10T07:51:36.001Z</time></trkpt><trkpt lat="39.233080650819936" lon="9.133183689637615"><ele>13.0</ele><time>2026-04-10T07:51:37.001Z</time></trkpt><trkpt lat="39.23312420975059" lon="9.133040319158942"><ele>13.8</ele><time>2026-04-10T07:51:38.001Z</time></trkpt><trkpt lat="39.2331959235455" lon="9.132910393620028"><ele>14.600000000000001</ele><time>2026-04-10T07:51:39.001Z</time></trkpt><trkpt lat="39.2332560331239" lon="9.132799316555822"><ele>15.399999999999999</ele><time>2026-04-10T07:51:40.001Z</time></trkpt><trkpt lat="39.23329567332399" lon="9.132712124658099"><ele>16.2</ele><time>2026-04-10T07:51:41.001Z</time></trkpt><trkpt lat="39.23334708404211" lon="9.132596275762113"><ele>17.0</ele><time>2026-04-10T07:51:43.001Z</time></trkpt><trkpt lat="39.23338781540807" lon="9.132485656066605"><ele>17.8</ele><time>2026-04-10T07:51:45.001Z</time></trkpt><trkpt lat="39.23344038435095" lon="9.132326119798881"><ele>18.6</ele><time>2026-04-10T07:51:47.001Z</time></trkpt><trkpt lat="39.23347766341906" lon="9.132221454650946"><ele>19.400000000000002</ele><time>2026-04-10T07:51:48.001Z</time></trkpt><trkpt lat="39.23351577886554" lon="9.132105708380871"><ele>20.2</ele><time>2026-04-10T07:51:49.001Z</time></trkpt><trkpt lat="39.233559073460356" lon="9.131982984461423"><ele>21.0</ele><time>2026-04-10T07:51:50.001Z</time></trkpt><trkpt lat="39.233606504071396" lon="9.131847690924635"><ele>21.0</ele><time>2026-04-10T07:51:51.001Z</time></trkpt><trkpt lat="39.23366290936893" lon="9.131704462377307"><ele>21.0</ele><time>2026-04-10T07:51:52.001Z</time></trkpt><trkpt lat="39.23372970566589" lon="9.131532109299268"><ele>21.0</ele><time>2026-04-10T07:51:53.001Z</time></trkpt><trkpt lat="39.23380189214163" lon="9.131352868966948"><ele>21.0</ele><time>2026-04-10T07:51:54.001Z</time></trkpt><trkpt lat="39.23387303548213" lon="9.131161946063054"><ele>22.666666666666664</ele><time>2026-04-10T07:51:55.001Z</time></trkpt><trkpt lat="39.233948335765824" lon="9.130978746537519"><ele>24.333333333333332</ele><time>2026-04-10T07:51:56.001Z</time></trkpt><trkpt lat="39.2340172723508" lon="9.130809452822914"><ele>26.0</ele><time>2026-04-10T07:51:57.001Z</time></trkpt><trkpt lat="39.23408187414987" lon="9.130646435153192"><ele>27.5</ele><time>2026-04-10T07:51:58.001Z</time></trkpt><trkpt lat="39.23413951472251" lon="9.130500935295517"><ele>29.0</ele><time>2026-04-10T07:51:59.001Z</time></trkpt><trkpt lat="39.23418788245299" lon="9.130373758319116"><ele>30.5</ele><time>2026-04-10T07:52:00.001Z</time></trkpt><trkpt lat="39.2342348560469" lon="9.130252572678017"><ele>32.0</ele><time>2026-04-10T07:52:01.001Z</time></trkpt><trkpt lat="39.234286759102886" lon="9.13012653680076"><ele>32.0</ele><time>2026-04-10T07:52:02.001Z</time></trkpt><trkpt lat="39.234336814272226" lon="9.130009689871589"><ele>32.0</ele><time>2026-04-10T07:52:03.001Z</time></trkpt><trkpt lat="39.23439238552862" lon="9.129880980586515"><ele>32.0</ele><time>2026-04-10T07:52:04.001Z</time></trkpt><trkpt lat="39.234454614889074" lon="9.129728789359019"><ele>32.0</ele><time>2026-04-10T07:52:05.001Z</time></trkpt><trkpt lat="39.23452616360183" lon="9.12953242473063"><ele>32.666666666666664</ele><time>2026-04-10T07:52:06.001Z</time></trkpt><trkpt lat="39.23460444321013" lon="9.129316237998202"><ele>33.333333333333336</ele><time>2026-04-10T07:52:07.001Z</time></trkpt><trkpt lat="39.234689517207116" lon="9.129104201855379"><ele>34.0</ele><time>2026-04-10T07:52:08.001Z</time></trkpt><trkpt lat="39.234775589321295" lon="9.128900106381828"><ele>34.0</ele><time>2026-04-10T07:52:09.001Z</time></trkpt><trkpt lat="39.234857865651996" lon="9.12869926164092"><ele>34.0</ele><time>2026-04-10T07:52:10.001Z</time></trkpt><trkpt lat="39.23493419607922" lon="9.128507998930463"><ele>34.0</ele><time>2026-04-10T07:52:11.001Z</time></trkpt><trkpt lat="39.23500871669882" lon="9.128331738741835"><ele>33.5</ele><time>2026-04-10T07:52:12.001Z</time></trkpt><trkpt lat="39.23508008123391" lon="9.128166308166849"><ele>33.0</ele><time>2026-04-10T07:52:13.001Z</time></trkpt><trkpt lat="39.2351494739227" lon="9.12800294671681"><ele>32.5</ele><time>2026-04-10T07:52:14.001Z</time></trkpt><trkpt lat="39.23521765232361" lon="9.127833540581246"><ele>32.0</ele><time>2026-04-10T07:52:15.001Z</time></trkpt><trkpt lat="39.23528120161534" lon="9.127670034950999"><ele>32.0</ele><time>2026-04-10T07:52:16.001Z</time></trkpt><trkpt lat="39.23534549128614" lon="9.127523891309977"><ele>32.0</ele><time>2026-04-10T07:52:17.001Z</time></trkpt><trkpt lat="39.235410337254706" lon="9.127376588272973"><ele>32.0</ele><time>2026-04-10T07:52:18.001Z</time></trkpt><trkpt lat="39.23547926117939" lon="9.127216503021831"><ele>32.0</ele><time>2026-04-10T07:52:19.001Z</time></trkpt><trkpt lat="39.23554407656061" lon="9.12706315710376"><ele>31.75</ele><time>2026-04-10T07:52:20.001Z</time></trkpt><trkpt lat="39.235611929750874" lon="9.126939306576327"><ele>31.5</ele><time>2026-04-10T07:52:21.001Z</time></trkpt><trkpt lat="39.2356860811468" lon="9.126803222609565"><ele>31.25</ele><time>2026-04-10T07:52:22.001Z</time></trkpt><trkpt lat="39.23576576037588" lon="9.12666450970656"><ele>31.0</ele><time>2026-04-10T07:52:23.001Z</time></trkpt><trkpt lat="39.2358386993472" lon="9.126531962540481"><ele>30.75</ele><time>2026-04-10T07:52:24.001Z</time></trkpt><trkpt lat="39.235905547160144" lon="9.126388696563899"><ele>30.5</ele><time>2026-04-10T07:52:25.001Z</time></trkpt><trkpt lat="39.235967794518686" lon="9.12623605061375"><ele>30.25</ele><time>2026-04-10T07:52:26.001Z</time></trkpt><trkpt lat="39.23601789378632" lon="9.126070050834569"><ele>30.0</ele><time>2026-04-10T07:52:27.001Z</time></trkpt><trkpt lat="39.23606299958785" lon="9.12589850270513"><ele>28.75</ele><time>2026-04-10T07:52:28Z</time></trkpt><trkpt lat="39.236109500650464" lon="9.125716533595917"><ele>27.5</ele><time>2026-04-10T07:52:29Z</time></trkpt><trkpt lat="39.23615721018829" lon="9.125534235377845"><ele>26.25</ele><time>2026-04-10T07:52:30Z</time></trkpt><trkpt lat="39.236201961069554" lon="9.125350122690723"><ele>25.0</ele><time>2026-04-10T07:52:31Z</time></trkpt><trkpt lat="39.2362473104558" lon="9.125165443022734"><ele>25.0</ele><time>2026-04-10T07:52:32Z</time></trkpt><trkpt lat="39.236294142003324" lon="9.124972120373814"><ele>25.0</ele><time>2026-04-10T07:52:33Z</time></trkpt><trkpt lat="39.236343946944025" lon="9.124780340913084"><ele>25.0</ele><time>2026-04-10T07:52:34Z</time></trkpt><trkpt lat="39.23638797899546" lon="9.124602942318571"><ele>25.25</ele><time>2026-04-10T07:52:35Z</time></trkpt><trkpt lat="39.23643146418582" lon="9.12443486517143"><ele>25.5</ele><time>2026-04-10T07:52:36Z</time></trkpt><trkpt lat="39.236472549186466" lon="9.124278380989487"><ele>25.75</ele><time>2026-04-10T07:52:37Z</time></trkpt><trkpt lat="39.236514155317955" lon="9.124126397997864"><ele>26.0</ele><time>2026-04-10T07:52:38Z</time></trkpt><trkpt lat="39.236553666143934" lon="9.123964717301746"><ele>24.333333333333332</ele><time>2026-04-10T07:52:39Z</time></trkpt><trkpt lat="39.23659926485851" lon="9.12378570920808"><ele>22.666666666666664</ele><time>2026-04-10T07:52:40Z</time></trkpt><trkpt lat="39.23664664644919" lon="9.123593121755183"><ele>21.0</ele><time>2026-04-10T07:52:41Z</time></trkpt><trkpt lat="39.236692791862055" lon="9.123394236002587"><ele>21.666666666666668</ele><time>2026-04-10T07:52:42Z</time></trkpt><trkpt lat="39.236746380359094" lon="9.123195168262832"><ele>22.333333333333336</ele><time>2026-04-10T07:52:43Z</time></trkpt><trkpt lat="39.23679208973824" lon="9.123011179247559"><ele>23.0</ele><time>2026-04-10T07:52:44Z</time></trkpt><trkpt lat="39.23683620471566" lon="9.12282954194429"><ele>23.0</ele><time>2026-04-10T07:52:45Z</time></trkpt><trkpt lat="39.236880187224244" lon="9.122653444932027"><ele>23.0</ele><time>2026-04-10T07:52:46Z</time></trkpt><trkpt lat="39.23692709278271" lon="9.122472461179084"><ele>23.0</ele><time>2026-04-10T07:52:47Z</time></trkpt><trkpt lat="39.23697355453245" lon="9.12228529534736"><ele>23.0</ele><time>2026-04-10T07:52:48Z</time></trkpt><trkpt lat="39.2370204337189" lon="9.122086479067812"><ele>24.0</ele><time>2026-04-10T07:52:49Z</time></trkpt><trkpt lat="39.23706749601855" lon="9.12189573848412"><ele>25.0</ele><time>2026-04-10T07:52:50Z</time></trkpt><trkpt lat="39.237114986261204" lon="9.121712629141348"><ele>26.0</ele><time>2026-04-10T07:52:51Z</time></trkpt><trkpt lat="39.237162045338565" lon="9.12152627107068"><ele>23.666666666666664</ele><time>2026-04-10T07:52:52Z</time></trkpt><trkpt lat="39.237211068981246" lon="9.121332994876235"><ele>21.333333333333332</ele><time>2026-04-10T07:52:53Z</time></trkpt><trkpt lat="39.23726392308922" lon="9.121143673159445"><ele>19.0</ele><time>2026-04-10T07:52:54Z</time></trkpt><trkpt lat="39.23732445259139" lon="9.120955703211456"><ele>19.0</ele><time>2026-04-10T07:52:55Z</time></trkpt><trkpt lat="39.23739827733589" lon="9.12077438015707"><ele>19.0</ele><time>2026-04-10T07:52:56Z</time></trkpt><trkpt lat="39.23748707711617" lon="9.120604684973232"><ele>19.0</ele><time>2026-04-10T07:52:57Z</time></trkpt><trkpt lat="39.237580778947525" lon="9.120435755072295"><ele>19.0</ele><time>2026-04-10T07:52:58Z</time></trkpt><trkpt lat="39.237677970799055" lon="9.120276727626528"><ele>19.0</ele><time>2026-04-10T07:52:59Z</time></trkpt><trkpt lat="39.23778058018256" lon="9.12013635047602"><ele>19.0</ele><time>2026-04-10T07:53:00Z</time></trkpt><trkpt lat="39.237887028576935" lon="9.120019688000296"><ele>19.0</ele><time>2026-04-10T07:53:01Z</time></trkpt><trkpt lat="39.238003160011985" lon="9.119910557350664"><ele>19.333333333333332</ele><time>2026-04-10T07:53:02Z</time></trkpt><trkpt lat="39.238133244336936" lon="9.119820407464125"><ele>19.666666666666668</ele><time>2026-04-10T07:53:03Z</time></trkpt><trkpt lat="39.23827649632029" lon="9.11973859352421"><ele>20.0</ele><time>2026-04-10T07:53:04Z</time></trkpt><trkpt lat="39.23842776380187" lon="9.119673354378675"><ele>19.0</ele><time>2026-04-10T07:53:05Z</time></trkpt><trkpt lat="39.23857595737473" lon="9.119606727636997"><ele>18.0</ele><time>2026-04-10T07:53:06Z</time></trkpt><trkpt lat="39.238735790528125" lon="9.119542706073867"><ele>17.0</ele><time>2026-04-10T07:53:07Z</time></trkpt><trkpt lat="39.23889856218434" lon="9.119467020794124"><ele>16.666666666666668</ele><time>2026-04-10T07:53:08Z</time></trkpt><trkpt lat="39.239062783355514" lon="9.119392049483277"><ele>16.333333333333332</ele><time>2026-04-10T07:53:09Z</time></trkpt><trkpt lat="39.23922174605029" lon="9.119317072917942"><ele>16.0</ele><time>2026-04-10T07:53:10Z</time></trkpt><trkpt lat="39.239380060474325" lon="9.119243978011234"><ele>16.0</ele><time>2026-04-10T07:53:11Z</time></trkpt><trkpt lat="39.23954048907357" lon="9.119170901202464"><ele>16.0</ele><time>2026-04-10T07:53:12Z</time></trkpt><trkpt lat="39.2397010000564" lon="9.119095477763743"><ele>16.0</ele><time>2026-04-10T07:53:13Z</time></trkpt><trkpt lat="39.239852114827436" lon="9.119028051855889"><ele>16.75</ele><time>2026-04-10T07:53:14Z</time></trkpt><trkpt lat="39.239987839367004" lon="9.118963751979665"><ele>17.5</ele><time>2026-04-10T07:53:15Z</time></trkpt><trkpt lat="39.24011964323035" lon="9.118900883375986"><ele>18.25</ele><time>2026-04-10T07:53:16Z</time></trkpt><trkpt lat="39.24025024516157" lon="9.118843978515732"><ele>19.0</ele><time>2026-04-10T07:53:17Z</time></trkpt><trkpt lat="39.24038866617461" lon="9.118776276109243"><ele>19.0</ele><time>2026-04-10T07:53:18Z</time></trkpt><trkpt lat="39.24054137082082" lon="9.118706950345064"><ele>19.0</ele><time>2026-04-10T07:53:19Z</time></trkpt><trkpt lat="39.24070488823226" lon="9.118634380245275"><ele>19.0</ele><time>2026-04-10T07:53:20Z</time></trkpt><trkpt lat="39.2408745689889" lon="9.118556510895406"><ele>19.0</ele><time>2026-04-10T07:53:21.001Z</time></trkpt><trkpt lat="39.24102505825011" lon="9.118490462673481"><ele>19.0</ele><time>2026-04-10T07:53:22.001Z</time></trkpt><trkpt lat="39.24115569846374" lon="9.118431614774588"><ele>19.0</ele><time>2026-04-10T07:53:23.001Z</time></trkpt><trkpt lat="39.24129116219872" lon="9.118366686263487"><ele>19.0</ele><time>2026-04-10T07:53:24.001Z</time></trkpt><trkpt lat="39.241437858287846" lon="9.118297870294205"><ele>21.0</ele><time>2026-04-10T07:53:25.001Z</time></trkpt><trkpt lat="39.24159945453653" lon="9.118221641810669"><ele>23.0</ele><time>2026-04-10T07:53:26.001Z</time></trkpt><trkpt lat="39.241773880981626" lon="9.11813935518716"><ele>25.0</ele><time>2026-04-10T07:53:27.001Z</time></trkpt><trkpt lat="39.24195076562609" lon="9.118060645197213"><ele>25.0</ele><time>2026-04-10T07:53:28.001Z</time></trkpt><trkpt lat="39.242129770484176" lon="9.117984818622414"><ele>25.0</ele><time>2026-04-10T07:53:29.001Z</time></trkpt><trkpt lat="39.24230885503001" lon="9.117907716373562"><ele>25.0</ele><time>2026-04-10T07:53:30.001Z</time></trkpt><trkpt lat="39.24248305741029" lon="9.117829513230634"><ele>24.0</ele><time>2026-04-10T07:53:31.001Z</time></trkpt><trkpt lat="39.24265540236614" lon="9.117745361005609"><ele>23.0</ele><time>2026-04-10T07:53:32.001Z</time></trkpt><trkpt lat="39.24281445085247" lon="9.117672221684948"><ele>22.0</ele><time>2026-04-10T07:53:33.001Z</time></trkpt><trkpt lat="39.24296001453749" lon="9.117613218359857"><ele>22.0</ele><time>2026-04-10T07:53:34.001Z</time></trkpt><trkpt lat="39.24309924937117" lon="9.117553629172564"><ele>22.0</ele><time>2026-04-10T07:53:35.001Z</time></trkpt><trkpt lat="39.243226139081564" lon="9.117502221498649"><ele>22.0</ele><time>2026-04-10T07:53:36.001Z</time></trkpt><trkpt lat="39.24335772315086" lon="9.117448506420958"><ele>22.0</ele><time>2026-04-10T07:53:37.001Z</time></trkpt><trkpt lat="39.24349770341965" lon="9.117402200660784"><ele>22.0</ele><time>2026-04-10T07:53:38.001Z</time></trkpt><trkpt lat="39.24364809432868" lon="9.117353912673888"><ele>22.0</ele><time>2026-04-10T07:53:39.001Z</time></trkpt><trkpt lat="39.243797650923725" lon="9.117295889802792"><ele>22.0</ele><time>2026-04-10T07:53:40.001Z</time></trkpt><trkpt lat="39.243936418559834" lon="9.117236358751354"><ele>23.25</ele><time>2026-04-10T07:53:41.001Z</time></trkpt><trkpt lat="39.24407282345185" lon="9.117181304060356"><ele>24.5</ele><time>2026-04-10T07:53:42.001Z</time></trkpt><trkpt lat="39.2442090156807" lon="9.11712627815383"><ele>25.75</ele><time>2026-04-10T07:53:43.001Z</time></trkpt><trkpt lat="39.24433835147187" lon="9.117073345037609"><ele>27.0</ele><time>2026-04-10T07:53:44.001Z</time></trkpt><trkpt lat="39.2444723108587" lon="9.117017967196132"><ele>27.0</ele><time>2026-04-10T07:53:45.001Z</time></trkpt><trkpt lat="39.24460927096897" lon="9.116958714873345"><ele>27.0</ele><time>2026-04-10T07:53:46.001Z</time></trkpt><trkpt lat="39.24474425511943" lon="9.116901485925366"><ele>27.0</ele><time>2026-04-10T07:53:47.001Z</time></trkpt><trkpt lat="39.24487054380423" lon="9.116846773983859"><ele>27.0</ele><time>2026-04-10T07:53:48.001Z</time></trkpt><trkpt lat="39.244992889434506" lon="9.116800076003662"><ele>26.5</ele><time>2026-04-10T07:53:49.001Z</time></trkpt><trkpt lat="39.24511289571049" lon="9.116755395985864"><ele>26.0</ele><time>2026-04-10T07:53:50.001Z</time></trkpt><trkpt lat="39.24523286201487" lon="9.116710099753872"><ele>25.5</ele><time>2026-04-10T07:53:51.001Z</time></trkpt><trkpt lat="39.24535633864098" lon="9.116667561782869"><ele>25.0</ele><time>2026-04-10T07:53:52.001Z</time></trkpt><trkpt lat="39.24548539874032" lon="9.116621310790176"><ele>25.0</ele><time>2026-04-10T07:53:53.001Z</time></trkpt><trkpt lat="39.24561927514038" lon="9.116570402411229"><ele>25.0</ele><time>2026-04-10T07:53:54.001Z</time></trkpt><trkpt lat="39.24575872491603" lon="9.116516025662735"><ele>25.0</ele><time>2026-04-10T07:53:55.001Z</time></trkpt><trkpt lat="39.24590570405853" lon="9.116457259385102"><ele>25.0</ele><time>2026-04-10T07:53:56.001Z</time></trkpt><trkpt lat="39.24605841104198" lon="9.116396696763347"><ele>25.666666666666668</ele><time>2026-04-10T07:53:57.001Z</time></trkpt><trkpt lat="39.24621554253237" lon="9.116335203192367"><ele>26.333333333333336</ele><time>2026-04-10T07:53:58.001Z</time></trkpt><trkpt lat="39.246376289753144" lon="9.116270609137166"><ele>27.0</ele><time>2026-04-10T07:53:59.001Z</time></trkpt><trkpt lat="39.24654349733731" lon="9.11620361021919"><ele>27.0</ele><time>2026-04-10T07:54:00.001Z</time></trkpt><trkpt lat="39.24671413286111" lon="9.11613548582235"><ele>27.0</ele><time>2026-04-10T07:54:01.001Z</time></trkpt><trkpt lat="39.24688587194054" lon="9.11606777959665"><ele>27.0</ele><time>2026-04-10T07:54:02.001Z</time></trkpt><trkpt lat="39.24705393113936" lon="9.115999313487883"><ele>27.0</ele><time>2026-04-10T07:54:03.001Z</time></trkpt><trkpt lat="39.24722320270526" lon="9.115933279179446"><ele>27.0</ele><time>2026-04-10T07:54:04.001Z</time></trkpt><trkpt lat="39.24738931270148" lon="9.115868767701448"><ele>27.0</ele><time>2026-04-10T07:54:05.001Z</time></trkpt><trkpt lat="39.24754798878159" lon="9.11580270797183"><ele>27.0</ele><time>2026-04-10T07:54:06.001Z</time></trkpt><trkpt lat="39.24770333717749" lon="9.115739354122267"><ele>27.0</ele><time>2026-04-10T07:54:07.001Z</time></trkpt><trkpt lat="39.247856037013996" lon="9.115677605590962"><ele>27.0</ele><time>2026-04-10T07:54:08.001Z</time></trkpt><trkpt lat="39.24800699739016" lon="9.115617656016935"><ele>26.0</ele><time>2026-04-10T07:54:09.001Z</time></trkpt><trkpt lat="39.24815441993134" lon="9.115559052694378"><ele>25.0</ele><time>2026-04-10T07:54:10.001Z</time></trkpt><trkpt lat="39.24829762851394" lon="9.115502936025624"><ele>24.0</ele><time>2026-04-10T07:54:11.001Z</time></trkpt><trkpt lat="39.24844091972889" lon="9.11544451602474"><ele>24.0</ele><time>2026-04-10T07:54:12.001Z</time></trkpt><trkpt lat="39.2485836523263" lon="9.115383246741954"><ele>24.0</ele><time>2026-04-10T07:54:13.001Z</time></trkpt><trkpt lat="39.24872886998557" lon="9.11532360550814"><ele>24.0</ele><time>2026-04-10T07:54:14.001Z</time></trkpt><trkpt lat="39.248877002954835" lon="9.115268477354379"><ele>25.25</ele><time>2026-04-10T07:54:15.001Z</time></trkpt><trkpt lat="39.24902105769644" lon="9.115209670195727"><ele>26.5</ele><time>2026-04-10T07:54:16.001Z</time></trkpt><trkpt lat="39.24915936724119" lon="9.115156088625366"><ele>27.75</ele><time>2026-04-10T07:54:17.001Z</time></trkpt><trkpt lat="39.249299507492346" lon="9.115100536425405"><ele>29.0</ele><time>2026-04-10T07:54:18.001Z</time></trkpt><trkpt lat="39.24944406756328" lon="9.115044833985277"><ele>29.0</ele><time>2026-04-10T07:54:19.001Z</time></trkpt><trkpt lat="39.24959086562623" lon="9.114987808125315"><ele>29.0</ele><time>2026-04-10T07:54:20.001Z</time></trkpt><trkpt lat="39.24974071361672" lon="9.11493064348723"><ele>29.0</ele><time>2026-04-10T07:54:21.001Z</time></trkpt><trkpt lat="39.249891200339896" lon="9.114871289516486"><ele>29.666666666666664</ele><time>2026-04-10T07:54:22.001Z</time></trkpt><trkpt lat="39.250046168197514" lon="9.114810028365035"><ele>30.333333333333336</ele><time>2026-04-10T07:54:23Z</time></trkpt><trkpt lat="39.25020173893013" lon="9.114749433410314"><ele>31.0</ele><time>2026-04-10T07:54:24Z</time></trkpt><trkpt lat="39.250359110200975" lon="9.114686536481603"><ele>31.0</ele><time>2026-04-10T07:54:25Z</time></trkpt><trkpt lat="39.25052097627863" lon="9.11462234558995"><ele>31.0</ele><time>2026-04-10T07:54:26Z</time></trkpt><trkpt lat="39.250684221693625" lon="9.114555312445827"><ele>31.0</ele><time>2026-04-10T07:54:27Z</time></trkpt><trkpt lat="39.25085208076736" lon="9.114487759281893"><ele>31.333333333333336</ele><time>2026-04-10T07:54:28Z</time></trkpt><trkpt lat="39.251015922327156" lon="9.114426128678199"><ele>31.666666666666664</ele><time>2026-04-10T07:54:29Z</time></trkpt><trkpt lat="39.25116996768873" lon="9.114362733514008"><ele>32.0</ele><time>2026-04-10T07:54:30Z</time></trkpt><trkpt lat="39.25132797883244" lon="9.114298935362648"><ele>33.666666666666664</ele><time>2026-04-10T07:54:31Z</time></trkpt><trkpt lat="39.25148670173416" lon="9.114232479875518"><ele>35.333333333333336</ele><time>2026-04-10T07:54:32Z</time></trkpt><trkpt lat="39.25164412832518" lon="9.114157084616515"><ele>37.0</ele><time>2026-04-10T07:54:33Z</time></trkpt><trkpt lat="39.2518019602987" lon="9.11407280660493"><ele>37.0</ele><time>2026-04-10T07:54:34Z</time></trkpt><trkpt lat="39.25196105446118" lon="9.1139792830639"><ele>37.0</ele><time>2026-04-10T07:54:35Z</time></trkpt><trkpt lat="39.25212257228479" lon="9.113881120425974"><ele>37.0</ele><time>2026-04-10T07:54:36Z</time></trkpt><trkpt lat="39.2522819905708" lon="9.113782877624981"><ele>38.333333333333336</ele><time>2026-04-10T07:54:37Z</time></trkpt><trkpt lat="39.25243679035405" lon="9.113683817325615"><ele>39.666666666666664</ele><time>2026-04-10T07:54:38Z</time></trkpt><trkpt lat="39.252585908177046" lon="9.113588752062883"><ele>41.0</ele><time>2026-04-10T07:54:39Z</time></trkpt><trkpt lat="39.25272567197326" lon="9.11349925623513"><ele>41.0</ele><time>2026-04-10T07:54:40Z</time></trkpt><trkpt lat="39.252855702078456" lon="9.113416817121973"><ele>41.0</ele><time>2026-04-10T07:54:41Z</time></trkpt><trkpt lat="39.25297718920344" lon="9.113340338539349"><ele>41.0</ele><time>2026-04-10T07:54:42Z</time></trkpt><trkpt lat="39.25309733390923" lon="9.113265227138628"><ele>41.0</ele><time>2026-04-10T07:54:43Z</time></trkpt><trkpt lat="39.253228619930525" lon="9.113182369426164"><ele>43.666666666666664</ele><time>2026-04-10T07:54:44Z</time></trkpt><trkpt lat="39.25335977099163" lon="9.113099185494615"><ele>46.33333333333333</ele><time>2026-04-10T07:54:45Z</time></trkpt><trkpt lat="39.25350431049003" lon="9.113008307383778"><ele>49.0</ele><time>2026-04-10T07:54:46Z</time></trkpt><trkpt lat="39.25365012621765" lon="9.112924453195731"><ele>49.0</ele><time>2026-04-10T07:54:47Z</time></trkpt><trkpt lat="39.253793825361164" lon="9.112836394488756"><ele>49.0</ele><time>2026-04-10T07:54:48Z</time></trkpt><trkpt lat="39.253932606595896" lon="9.112747485695907"><ele>49.0</ele><time>2026-04-10T07:54:49Z</time></trkpt><trkpt lat="39.25407569761425" lon="9.112654659412943"><ele>50.33333333333333</ele><time>2026-04-10T07:54:50Z</time></trkpt><trkpt lat="39.25421800524936" lon="9.112563502754057"><ele>51.66666666666667</ele><time>2026-04-10T07:54:51Z</time></trkpt><trkpt lat="39.2543635146134" lon="9.112473967390175"><ele>53.0</ele><time>2026-04-10T07:54:52Z</time></trkpt><trkpt lat="39.25451159551556" lon="9.112379738035028"><ele>53.66666666666667</ele><time>2026-04-10T07:54:53Z</time></trkpt><trkpt lat="39.25466498303426" lon="9.11228149986598"><ele>54.33333333333333</ele><time>2026-04-10T07:54:54Z</time></trkpt><trkpt lat="39.25481832185569" lon="9.112181357952684"><ele>55.0</ele><time>2026-04-10T07:54:55Z</time></trkpt><trkpt lat="39.25497605933987" lon="9.112083199505394"><ele>55.0</ele><time>2026-04-10T07:54:56Z</time></trkpt><trkpt lat="39.255134282243" lon="9.11198368944085"><ele>55.0</ele><time>2026-04-10T07:54:57Z</time></trkpt><trkpt lat="39.2552909522074" lon="9.111885605876761"><ele>55.0</ele><time>2026-04-10T07:54:58Z</time></trkpt><trkpt lat="39.255436255657806" lon="9.111790007761476"><ele>55.0</ele><time>2026-04-10T07:54:59Z</time></trkpt><trkpt lat="39.255581958860596" lon="9.111699437478276"><ele>55.0</ele><time>2026-04-10T07:55:00Z</time></trkpt><trkpt lat="39.25572205796835" lon="9.111610495049401"><ele>55.0</ele><time>2026-04-10T07:55:01Z</time></trkpt><trkpt lat="39.255852734735974" lon="9.111522394873871"><ele>53.33333333333333</ele><time>2026-04-10T07:55:02Z</time></trkpt><trkpt lat="39.25598900267592" lon="9.111435756042578"><ele>51.66666666666667</ele><time>2026-04-10T07:55:03Z</time></trkpt><trkpt lat="39.2561393324151" lon="9.111339189084081"><ele>50.0</ele><time>2026-04-10T07:55:04Z</time></trkpt><trkpt lat="39.25628928161667" lon="9.111224318766727"><ele>50.0</ele><time>2026-04-10T07:55:05Z</time></trkpt><trkpt lat="39.25644228154517" lon="9.111088094815713"><ele>50.0</ele><time>2026-04-10T07:55:06Z</time></trkpt><trkpt lat="39.25659942421493" lon="9.110935736653772"><ele>50.0</ele><time>2026-04-10T07:55:07Z</time></trkpt><trkpt lat="39.25675514522214" lon="9.110771668228132"><ele>49.66666666666667</ele><time>2026-04-10T07:55:08Z</time></trkpt><trkpt lat="39.25691311240779" lon="9.11060332270252"><ele>49.33333333333333</ele><time>2026-04-10T07:55:09Z</time></trkpt><trkpt lat="39.25707033413188" lon="9.110432018904417"><ele>49.0</ele><time>2026-04-10T07:55:10Z</time></trkpt><trkpt lat="39.25723108554061" lon="9.110263516954959"><ele>48.33333333333333</ele><time>2026-04-10T07:55:11Z</time></trkpt><trkpt lat="39.25739254607252" lon="9.110096947848964"><ele>47.666666666666664</ele><time>2026-04-10T07:55:12Z</time></trkpt><trkpt lat="39.25754596024816" lon="9.109931341446012"><ele>47.0</ele><time>2026-04-10T07:55:13Z</time></trkpt><trkpt lat="39.2576958623542" lon="9.109774611007905"><ele>47.0</ele><time>2026-04-10T07:55:14Z</time></trkpt><trkpt lat="39.257844451165944" lon="9.10961256736479"><ele>47.0</ele><time>2026-04-10T07:55:15Z</time></trkpt><trkpt lat="39.25799208216171" lon="9.109453408605003"><ele>47.0</ele><time>2026-04-10T07:55:16Z</time></trkpt><trkpt lat="39.25814429746686" lon="9.109293697551502"><ele>45.0</ele><time>2026-04-10T07:55:17Z</time></trkpt><trkpt lat="39.258290126574316" lon="9.109131717814137"><ele>43.0</ele><time>2026-04-10T07:55:18Z</time></trkpt><trkpt lat="39.25844615557422" lon="9.108970974266029"><ele>41.0</ele><time>2026-04-10T07:55:19Z</time></trkpt><trkpt lat="39.25859920574481" lon="9.108807676860838"><ele>41.0</ele><time>2026-04-10T07:55:20Z</time></trkpt><trkpt lat="39.2587503575334" lon="9.108644975098445"><ele>41.0</ele><time>2026-04-10T07:55:21Z</time></trkpt><trkpt lat="39.25890482486825" lon="9.108478538984249"><ele>41.0</ele><time>2026-04-10T07:55:22Z</time></trkpt><trkpt lat="39.259059592266055" lon="9.10831694136154"><ele>38.33333333333333</ele><time>2026-04-10T07:55:23Z</time></trkpt><trkpt lat="39.25920979620108" lon="9.108155475578284"><ele>35.666666666666664</ele><time>2026-04-10T07:55:24Z</time></trkpt><trkpt lat="39.259362426204774" lon="9.107992792957871"><ele>33.0</ele><time>2026-04-10T07:55:25Z</time></trkpt><trkpt lat="39.259512985865385" lon="9.107833589760489"><ele>33.0</ele><time>2026-04-10T07:55:26Z</time></trkpt><trkpt lat="39.25966006387567" lon="9.10767611669536"><ele>33.0</ele><time>2026-04-10T07:55:27Z</time></trkpt><trkpt lat="39.259808440837546" lon="9.107522975616707"><ele>33.0</ele><time>2026-04-10T07:55:28Z</time></trkpt><trkpt lat="39.25995146206077" lon="9.10737625830191"><ele>31.666666666666664</ele><time>2026-04-10T07:55:29Z</time></trkpt><trkpt lat="39.260087585867424" lon="9.107231316575966"><ele>30.333333333333332</ele><time>2026-04-10T07:55:30Z</time></trkpt><trkpt lat="39.260214010056465" lon="9.107092862326821"><ele>29.0</ele><time>2026-04-10T07:55:31Z</time></trkpt><trkpt lat="39.26033759263987" lon="9.106965151985644"><ele>29.0</ele><time>2026-04-10T07:55:32Z</time></trkpt><trkpt lat="39.26045716460203" lon="9.10683748532848"><ele>29.0</ele><time>2026-04-10T07:55:33Z</time></trkpt><trkpt lat="39.260576248923186" lon="9.10670904204585"><ele>29.0</ele><time>2026-04-10T07:55:34Z</time></trkpt><trkpt lat="39.26070395109388" lon="9.10657706749403"><ele>28.666666666666664</ele><time>2026-04-10T07:55:35Z</time></trkpt><trkpt lat="39.26083314258352" lon="9.106439967050859"><ele>28.333333333333336</ele><time>2026-04-10T07:55:36Z</time></trkpt><trkpt lat="39.260967129043784" lon="9.106302361706678"><ele>28.0</ele><time>2026-04-10T07:55:37Z</time></trkpt><trkpt lat="39.26109589473567" lon="9.10616854443769"><ele>28.0</ele><time>2026-04-10T07:55:38Z</time></trkpt><trkpt lat="39.26121503596203" lon="9.106044695400685"><ele>28.0</ele><time>2026-04-10T07:55:39Z</time></trkpt><trkpt lat="39.26132381593988" lon="9.105927983638983"><ele>28.0</ele><time>2026-04-10T07:55:40Z</time></trkpt><trkpt lat="39.26143045894001" lon="9.10580720617246"><ele>28.0</ele><time>2026-04-10T07:55:41Z</time></trkpt><trkpt lat="39.26154452269537" lon="9.10568562028455"><ele>27.666666666666668</ele><time>2026-04-10T07:55:42Z</time></trkpt><trkpt lat="39.26165943893885" lon="9.105561111416016"><ele>27.333333333333336</ele><time>2026-04-10T07:55:43Z</time></trkpt><trkpt lat="39.2617806564794" lon="9.105436450987703"><ele>27.0</ele><time>2026-04-10T07:55:44Z</time></trkpt><trkpt lat="39.26190606509296" lon="9.105308409294464"><ele>27.0</ele><time>2026-04-10T07:55:45Z</time></trkpt><trkpt lat="39.262028413305416" lon="9.105182682073576"><ele>27.0</ele><time>2026-04-10T07:55:46Z</time></trkpt><trkpt lat="39.262144016014126" lon="9.105063705131231"><ele>27.0</ele><time>2026-04-10T07:55:47Z</time></trkpt><trkpt lat="39.262260739969115" lon="9.104942603741721"><ele>27.25</ele><time>2026-04-10T07:55:48Z</time></trkpt><trkpt lat="39.26237516911874" lon="9.104818634591737"><ele>27.5</ele><time>2026-04-10T07:55:49Z</time></trkpt><trkpt lat="39.26249037095083" lon="9.10469547345553"><ele>27.75</ele><time>2026-04-10T07:55:50Z</time></trkpt><trkpt lat="39.26259845716692" lon="9.104581365171564"><ele>28.0</ele><time>2026-04-10T07:55:51Z</time></trkpt><trkpt lat="39.26268899349473" lon="9.104485226855497"><ele>28.0</ele><time>2026-04-10T07:55:52Z</time></trkpt><trkpt lat="39.26276815661613" lon="9.104404194160841"><ele>28.0</ele><time>2026-04-10T07:55:53Z</time></trkpt><trkpt lat="39.262847114717665" lon="9.104323496446302"><ele>28.0</ele><time>2026-04-10T07:55:54Z</time></trkpt><trkpt lat="39.26293807131508" lon="9.10422883815061"><ele>28.0</ele><time>2026-04-10T07:55:55Z</time></trkpt><trkpt lat="39.2630465894019" lon="9.104116477363807"><ele>28.666666666666668</ele><time>2026-04-10T07:55:56Z</time></trkpt><trkpt lat="39.26316347164329" lon="9.103995195002696"><ele>29.333333333333336</ele><time>2026-04-10T07:55:57Z</time></trkpt><trkpt lat="39.26328095280751" lon="9.10386549076338"><ele>30.0</ele><time>2026-04-10T07:55:58Z</time></trkpt><trkpt lat="39.26340571630633" lon="9.103719225781253"><ele>30.0</ele><time>2026-04-10T07:55:59Z</time></trkpt><trkpt lat="39.26352977139752" lon="9.10355410556729"><ele>30.0</ele><time>2026-04-10T07:56:00Z</time></trkpt><trkpt lat="39.263645446242805" lon="9.103368908969987"><ele>30.0</ele><time>2026-04-10T07:56:01Z</time></trkpt><trkpt lat="39.263752211875016" lon="9.10317116638618"><ele>29.666666666666664</ele><time>2026-04-10T07:56:02Z</time></trkpt><trkpt lat="39.263853617966156" lon="9.102956721884345"><ele>29.333333333333332</ele><time>2026-04-10T07:56:03Z</time></trkpt><trkpt lat="39.26394353668545" lon="9.102730157667247"><ele>29.0</ele><time>2026-04-10T07:56:04Z</time></trkpt><trkpt lat="39.2640273583207" lon="9.102498228901222"><ele>27.333333333333332</ele><time>2026-04-10T07:56:05Z</time></trkpt><trkpt lat="39.26409942437268" lon="9.102277416915754"><ele>25.666666666666664</ele><time>2026-04-10T07:56:06Z</time></trkpt><trkpt lat="39.264163141955414" lon="9.10206928856827"><ele>24.0</ele><time>2026-04-10T07:56:07Z</time></trkpt><trkpt lat="39.26422875037632" lon="9.101866983169499"><ele>24.0</ele><time>2026-04-10T07:56:08Z</time></trkpt><trkpt lat="39.26429369166184" lon="9.101667172815779"><ele>24.0</ele><time>2026-04-10T07:56:09Z</time></trkpt><trkpt lat="39.264362821573236" lon="9.101463456118488"><ele>24.0</ele><time>2026-04-10T07:56:10Z</time></trkpt><trkpt lat="39.26442810516476" lon="9.10126526867731"><ele>23.333333333333332</ele><time>2026-04-10T07:56:11Z</time></trkpt><trkpt lat="39.26449334700134" lon="9.101074454918292"><ele>22.666666666666664</ele><time>2026-04-10T07:56:12Z</time></trkpt><trkpt lat="39.264555280736346" lon="9.100887589460289"><ele>22.0</ele><time>2026-04-10T07:56:13Z</time></trkpt><trkpt lat="39.264615351643315" lon="9.10070519341301"><ele>22.0</ele><time>2026-04-10T07:56:14Z</time></trkpt><trkpt lat="39.26467105791544" lon="9.100533733582754"><ele>22.0</ele><time>2026-04-10T07:56:15Z</time></trkpt><trkpt lat="39.264731387198005" lon="9.100364279231192"><ele>22.0</ele><time>2026-04-10T07:56:16Z</time></trkpt><trkpt lat="39.26478412326349" lon="9.100202158731802"><ele>22.0</ele><time>2026-04-10T07:56:17Z</time></trkpt><trkpt lat="39.264839144175774" lon="9.100033957982246"><ele>20.666666666666664</ele><time>2026-04-10T07:56:18Z</time></trkpt><trkpt lat="39.264897650516104" lon="9.099862658108606"><ele>19.333333333333332</ele><time>2026-04-10T07:56:19Z</time></trkpt><trkpt lat="39.26496170865906" lon="9.099681305120589"><ele>18.0</ele><time>2026-04-10T07:56:20Z</time></trkpt><trkpt lat="39.26502629032049" lon="9.09948989740104"><ele>18.0</ele><time>2026-04-10T07:56:21Z</time></trkpt><trkpt lat="39.26509329496141" lon="9.099294355504666"><ele>18.0</ele><time>2026-04-10T07:56:22Z</time></trkpt><trkpt lat="39.2651614504022" lon="9.099092163724357"><ele>18.0</ele><time>2026-04-10T07:56:23Z</time></trkpt><trkpt lat="39.265231822029435" lon="9.098886009718479"><ele>18.666666666666668</ele><time>2026-04-10T07:56:24Z</time></trkpt><trkpt lat="39.26530336272241" lon="9.09867605105147"><ele>19.333333333333336</ele><time>2026-04-10T07:56:25Z</time></trkpt><trkpt lat="39.26536964403134" lon="9.09847370913379"><ele>20.0</ele><time>2026-04-10T07:56:26Z</time></trkpt><trkpt lat="39.265433257596186" lon="9.098276174958594"><ele>19.333333333333336</ele><time>2026-04-10T07:56:27Z</time></trkpt><trkpt lat="39.26550048238962" lon="9.098084651874638"><ele>18.666666666666668</ele><time>2026-04-10T07:56:28Z</time></trkpt><trkpt lat="39.265565126484766" lon="9.097885784883045"><ele>18.0</ele><time>2026-04-10T07:56:29Z</time></trkpt><trkpt lat="39.265632277461044" lon="9.097683955443813"><ele>15.333333333333334</ele><time>2026-04-10T07:56:30Z</time></trkpt><trkpt lat="39.26570054580242" lon="9.097480568768859"><ele>12.666666666666668</ele><time>2026-04-10T07:56:31Z</time></trkpt><trkpt lat="39.26576697448637" lon="9.097280097878397"><ele>10.0</ele><time>2026-04-10T07:56:32Z</time></trkpt><trkpt lat="39.2658290304449" lon="9.09709144180139"><ele>10.0</ele><time>2026-04-10T07:56:33Z</time></trkpt><trkpt lat="39.2658899252119" lon="9.09691492695687"><ele>10.0</ele><time>2026-04-10T07:56:34Z</time></trkpt><trkpt lat="39.265947879649495" lon="9.096739539534743"><ele>10.0</ele><time>2026-04-10T07:56:35Z</time></trkpt><trkpt lat="39.266008250795046" lon="9.096559510328552"><ele>10.0</ele><time>2026-04-10T07:56:36Z</time></trkpt><trkpt lat="39.26606857972485" lon="9.096374370133542"><ele>9.666666666666668</ele><time>2026-04-10T07:56:37Z</time></trkpt><trkpt lat="39.2661307362229" lon="9.096188555520744"><ele>9.333333333333334</ele><time>2026-04-10T07:56:38Z</time></trkpt><trkpt lat="39.266192653768044" lon="9.095995608313315"><ele>9.0</ele><time>2026-04-10T07:56:39Z</time></trkpt><trkpt lat="39.26625914038913" lon="9.095800830432381"><ele>9.333333333333334</ele><time>2026-04-10T07:56:40Z</time></trkpt><trkpt lat="39.26632535816725" lon="9.095603318122466"><ele>9.666666666666668</ele><time>2026-04-10T07:56:41Z</time></trkpt><trkpt lat="39.26639186693547" lon="9.095405281407638"><ele>10.0</ele><time>2026-04-10T07:56:42Z</time></trkpt><trkpt lat="39.266459688402165" lon="9.09520639398664"><ele>10.0</ele><time>2026-04-10T07:56:43Z</time></trkpt><trkpt lat="39.26652894556184" lon="9.095008816277048"><ele>10.0</ele><time>2026-04-10T07:56:44Z</time></trkpt><trkpt lat="39.266595719676346" lon="9.094810457920492"><ele>10.0</ele><time>2026-04-10T07:56:45Z</time></trkpt><trkpt lat="39.26665984917111" lon="9.094612372294582"><ele>9.0</ele><time>2026-04-10T07:56:46Z</time></trkpt><trkpt lat="39.26672774330674" lon="9.094413222543748"><ele>8.0</ele><time>2026-04-10T07:56:47Z</time></trkpt><trkpt lat="39.26679364661615" lon="9.09421126528166"><ele>7.0</ele><time>2026-04-10T07:56:48Z</time></trkpt><trkpt lat="39.26685996368809" lon="9.09401207541391"><ele>6.333333333333334</ele><time>2026-04-10T07:56:49Z</time></trkpt><trkpt lat="39.266930046035846" lon="9.09381150516042"><ele>5.666666666666667</ele><time>2026-04-10T07:56:50Z</time></trkpt><trkpt lat="39.26699909630103" lon="9.09361109411409"><ele>5.0</ele><time>2026-04-10T07:56:51Z</time></trkpt><trkpt lat="39.26706899497784" lon="9.09340605407047"><ele>4.666666666666667</ele><time>2026-04-10T07:56:52Z</time></trkpt><trkpt lat="39.267136091161525" lon="9.093200669847343"><ele>4.333333333333333</ele><time>2026-04-10T07:56:53Z</time></trkpt><trkpt lat="39.26720285611376" lon="9.093000391651703"><ele>4.0</ele><time>2026-04-10T07:56:54Z</time></trkpt><trkpt lat="39.2672671005462" lon="9.092806648119586"><ele>4.25</ele><time>2026-04-10T07:56:55Z</time></trkpt><trkpt lat="39.267329894669" lon="9.092626784302992"><ele>4.5</ele><time>2026-04-10T07:56:56Z</time></trkpt><trkpt lat="39.26738773278495" lon="9.092454438677969"><ele>4.75</ele><time>2026-04-10T07:56:57Z</time></trkpt><trkpt lat="39.26744360928937" lon="9.092292541439448"><ele>5.0</ele><time>2026-04-10T07:56:58Z</time></trkpt><trkpt lat="39.26749547911038" lon="9.092135111926222"><ele>4.75</ele><time>2026-04-10T07:56:59Z</time></trkpt><trkpt lat="39.26755134780642" lon="9.091978464503438"><ele>4.5</ele><time>2026-04-10T07:57:00Z</time></trkpt><trkpt lat="39.26760621086458" lon="9.091807218978646"><ele>4.25</ele><time>2026-04-10T07:57:01Z</time></trkpt><trkpt lat="39.26766353476802" lon="9.09162940369201"><ele>4.0</ele><time>2026-04-10T07:57:02Z</time></trkpt><trkpt lat="39.26772603843775" lon="9.091449051436163"><ele>4.0</ele><time>2026-04-10T07:57:03Z</time></trkpt><trkpt lat="39.26778653660272" lon="9.0912617591347"><ele>4.0</ele><time>2026-04-10T07:57:04Z</time></trkpt><trkpt lat="39.267850661319606" lon="9.091070878837904"><ele>4.0</ele><time>2026-04-10T07:57:05Z</time></trkpt><trkpt lat="39.26791641099238" lon="9.090879365721165"><ele>4.0</ele><time>2026-04-10T07:57:06Z</time></trkpt><trkpt lat="39.267982618813896" lon="9.090682307566452"><ele>4.0</ele><time>2026-04-10T07:57:07Z</time></trkpt><trkpt lat="39.268048044230675" lon="9.090483865734265"><ele>4.0</ele><time>2026-04-10T07:57:08Z</time></trkpt><trkpt lat="39.26811753701902" lon="9.090281259982891"><ele>4.0</ele><time>2026-04-10T07:57:09Z</time></trkpt><trkpt lat="39.26818682891107" lon="9.090073808103844"><ele>4.0</ele><time>2026-04-10T07:57:10Z</time></trkpt><trkpt lat="39.2682576676489" lon="9.089864292761055"><ele>4.0</ele><time>2026-04-10T07:57:11Z</time></trkpt><trkpt lat="39.26833019501222" lon="9.089644736767278"><ele>4.0</ele><time>2026-04-10T07:57:12Z</time></trkpt><trkpt lat="39.268402304634634" lon="9.089430221358523"><ele>4.0</ele><time>2026-04-10T07:57:13Z</time></trkpt><trkpt lat="39.268472567473175" lon="9.089218535066026"><ele>4.0</ele><time>2026-04-10T07:57:14Z</time></trkpt><trkpt lat="39.26854282939687" lon="9.089008533639857"><ele>3.6666666666666665</ele><time>2026-04-10T07:57:15Z</time></trkpt><trkpt lat="39.2686145386452" lon="9.088802462151948"><ele>3.333333333333333</ele><time>2026-04-10T07:57:16Z</time></trkpt><trkpt lat="39.26868343440159" lon="9.088596054286937"><ele>3.0</ele><time>2026-04-10T07:57:17Z</time></trkpt><trkpt lat="39.26874754222222" lon="9.088398929121263"><ele>3.0</ele><time>2026-04-10T07:57:18Z</time></trkpt><trkpt lat="39.268813057952535" lon="9.088204891124155"><ele>3.0</ele><time>2026-04-10T07:57:19Z</time></trkpt><trkpt lat="39.268876857099386" lon="9.088013003414266"><ele>3.0</ele><time>2026-04-10T07:57:20Z</time></trkpt><trkpt lat="39.26893997684605" lon="9.087824670989045"><ele>4.0</ele><time>2026-04-10T07:57:21Z</time></trkpt><trkpt lat="39.26900451268309" lon="9.08763965175766"><ele>5.0</ele><time>2026-04-10T07:57:22Z</time></trkpt><trkpt lat="39.26906721951218" lon="9.087458862867367"><ele>6.0</ele><time>2026-04-10T07:57:23Z</time></trkpt><trkpt lat="39.26912674913168" lon="9.087281280629796"><ele>8.333333333333332</ele><time>2026-04-10T07:57:24Z</time></trkpt><trkpt lat="39.26918934527754" lon="9.0870975090073"><ele>10.666666666666666</ele><time>2026-04-10T07:57:25Z</time></trkpt><trkpt lat="39.26925022266707" lon="9.086912147026693"><ele>13.0</ele><time>2026-04-10T07:57:26Z</time></trkpt><trkpt lat="39.269314297646275" lon="9.086726932492281"><ele>14.333333333333332</ele><time>2026-04-10T07:57:27Z</time></trkpt><trkpt lat="39.269374134182314" lon="9.086542547679727"><ele>15.666666666666668</ele><time>2026-04-10T07:57:28Z</time></trkpt><trkpt lat="39.269435294485106" lon="9.08635493657374"><ele>17.0</ele><time>2026-04-10T07:57:29Z</time></trkpt><trkpt lat="39.269497514544035" lon="9.086169841456089"><ele>17.0</ele><time>2026-04-10T07:57:30Z</time></trkpt><trkpt lat="39.26956147328022" lon="9.085979643468661"><ele>17.0</ele><time>2026-04-10T07:57:31Z</time></trkpt><trkpt lat="39.269625597994434" lon="9.08579349449045"><ele>17.0</ele><time>2026-04-10T07:57:32Z</time></trkpt><trkpt lat="39.26968854192964" lon="9.085604693074933"><ele>16.666666666666668</ele><time>2026-04-10T07:57:33Z</time></trkpt><trkpt lat="39.26974996725176" lon="9.085413620255986"><ele>16.333333333333332</ele><time>2026-04-10T07:57:34Z</time></trkpt><trkpt lat="39.26981765385998" lon="9.085224301586958"><ele>16.0</ele><time>2026-04-10T07:57:35Z</time></trkpt><trkpt lat="39.269880654546526" lon="9.085032417941317"><ele>18.0</ele><time>2026-04-10T07:57:36Z</time></trkpt><trkpt lat="39.26994669555835" lon="9.084837627909788"><ele>20.0</ele><time>2026-04-10T07:57:37Z</time></trkpt><trkpt lat="39.270015218135256" lon="9.084644459443854"><ele>22.0</ele><time>2026-04-10T07:57:38Z</time></trkpt><trkpt lat="39.27008135885793" lon="9.084443964898906"><ele>22.0</ele><time>2026-04-10T07:57:39Z</time></trkpt><trkpt lat="39.270149682687126" lon="9.084240886158367"><ele>22.0</ele><time>2026-04-10T07:57:40Z</time></trkpt><trkpt lat="39.27021600321384" lon="9.084034752134475"><ele>22.0</ele><time>2026-04-10T07:57:41Z</time></trkpt><trkpt lat="39.27028716912257" lon="9.083828625910325"><ele>22.333333333333332</ele><time>2026-04-10T07:57:42Z</time></trkpt><trkpt lat="39.270358640969384" lon="9.083615568081752"><ele>22.666666666666668</ele><time>2026-04-10T07:57:43Z</time></trkpt><trkpt lat="39.27042992849673" lon="9.083398323898"><ele>23.0</ele><time>2026-04-10T07:57:44Z</time></trkpt><trkpt lat="39.270503254163785" lon="9.083188076523776"><ele>24.333333333333336</ele><time>2026-04-10T07:57:45Z</time></trkpt><trkpt lat="39.270572710960025" lon="9.08297803325544"><ele>25.666666666666668</ele><time>2026-04-10T07:57:46Z</time></trkpt><trkpt lat="39.27064212350049" lon="9.082764036974183"><ele>27.0</ele><time>2026-04-10T07:57:47Z</time></trkpt><trkpt lat="39.27070829552568" lon="9.082564903971916"><ele>29.0</ele><time>2026-04-10T07:57:48Z</time></trkpt><trkpt lat="39.27076896200232" lon="9.082376141960014"><ele>31.0</ele><time>2026-04-10T07:57:49Z</time></trkpt><trkpt lat="39.270828760004704" lon="9.082193437415599"><ele>33.0</ele><time>2026-04-10T07:57:50Z</time></trkpt><trkpt lat="39.27088818908093" lon="9.082015237326374"><ele>33.0</ele><time>2026-04-10T07:57:51Z</time></trkpt><trkpt lat="39.27094960945207" lon="9.081835588910444"><ele>33.0</ele><time>2026-04-10T07:57:52Z</time></trkpt><trkpt lat="39.27101238952334" lon="9.081654036931573"><ele>33.0</ele><time>2026-04-10T07:57:53Z</time></trkpt><trkpt lat="39.271077550904124" lon="9.08145773002495"><ele>33.0</ele><time>2026-04-10T07:57:54Z</time></trkpt><trkpt lat="39.271150004679626" lon="9.081247750724112"><ele>33.0</ele><time>2026-04-10T07:57:55Z</time></trkpt><trkpt lat="39.271221666528625" lon="9.081031779208814"><ele>33.0</ele><time>2026-04-10T07:57:56Z</time></trkpt><trkpt lat="39.271289064983925" lon="9.080810712881705"><ele>33.333333333333336</ele><time>2026-04-10T07:57:57Z</time></trkpt><trkpt lat="39.271360320288274" lon="9.080601162266522"><ele>33.66666666666667</ele><time>2026-04-10T07:57:58Z</time></trkpt><trkpt lat="39.271427430149096" lon="9.080394254154665"><ele>34.0</ele><time>2026-04-10T07:57:59Z</time></trkpt><trkpt lat="39.27149675402362" lon="9.08019639216361"><ele>34.0</ele><time>2026-04-10T07:58:00Z</time></trkpt><trkpt lat="39.27156196021733" lon="9.080014105987583"><ele>34.0</ele><time>2026-04-10T07:58:01Z</time></trkpt><trkpt lat="39.27163397227061" lon="9.079849747483928"><ele>34.0</ele><time>2026-04-10T07:58:02Z</time></trkpt><trkpt lat="39.27172203157275" lon="9.079704530441944"><ele>34.0</ele><time>2026-04-10T07:58:03Z</time></trkpt><trkpt lat="39.2718257131941" lon="9.07957797420745"><ele>33.75</ele><time>2026-04-10T07:58:04Z</time></trkpt><trkpt lat="39.27194181258148" lon="9.079471213427837"><ele>33.5</ele><time>2026-04-10T07:58:05Z</time></trkpt><trkpt lat="39.27206466002304" lon="9.079382178076596"><ele>33.25</ele><time>2026-04-10T07:58:06Z</time></trkpt><trkpt lat="39.272168050492645" lon="9.079277546181812"><ele>33.0</ele><time>2026-04-10T07:58:07Z</time></trkpt><trkpt lat="39.27227798951193" lon="9.079221279065928"><ele>33.833333333333336</ele><time>2026-04-10T07:58:08Z</time></trkpt><trkpt lat="39.27237067440622" lon="9.07917375624566"><ele>34.666666666666664</ele><time>2026-04-10T07:58:09Z</time></trkpt><trkpt lat="39.27244161522266" lon="9.079151760942429"><ele>35.5</ele><time>2026-04-10T07:58:10Z</time></trkpt><trkpt lat="39.27253470034511" lon="9.07910335162893"><ele>36.33333333333333</ele><time>2026-04-10T07:58:12Z</time></trkpt><trkpt lat="39.27259500621981" lon="9.079077042391287"><ele>37.166666666666664</ele><time>2026-04-10T07:58:14Z</time></trkpt><trkpt lat="39.27265686147997" lon="9.079047651256486"><ele>38.0</ele><time>2026-04-10T07:58:17Z</time></trkpt><trkpt lat="39.27273994599102" lon="9.079001572021763"><ele>38.0</ele><time>2026-04-10T07:58:21Z</time></trkpt><trkpt lat="39.27280414902892" lon="9.078968001063703"><ele>38.0</ele><time>2026-04-10T07:58:23Z</time></trkpt><trkpt lat="39.27286209945488" lon="9.078922988504118"><ele>38.0</ele><time>2026-04-10T07:58:27Z</time></trkpt><trkpt lat="39.27295339470235" lon="9.078887154997144"><ele>38.0</ele><time>2026-04-10T07:58:46Z</time></trkpt><trkpt lat="39.27299217413009" lon="9.078820819506868"><ele>38.0</ele><time>2026-04-10T07:58:47Z</time></trkpt><trkpt lat="39.273068068402324" lon="9.07880591408986"><ele>38.0</ele><time>2026-04-10T07:58:48Z</time></trkpt><trkpt lat="39.27315218864468" lon="9.078763910273313"><ele>38.4</ele><time>2026-04-10T07:58:49Z</time></trkpt><trkpt lat="39.27323429744949" lon="9.078721869778951"><ele>38.8</ele><time>2026-04-10T07:58:50Z</time></trkpt><trkpt lat="39.273323964157214" lon="9.078671371797515"><ele>39.2</ele><time>2026-04-10T07:58:51Z</time></trkpt><trkpt lat="39.273410561084816" lon="9.078628181921639"><ele>39.6</ele><time>2026-04-10T07:58:52Z</time></trkpt><trkpt lat="39.2735108514003" lon="9.078576083488672"><ele>40.0</ele><time>2026-04-10T07:58:53Z</time></trkpt><trkpt lat="39.27362196782835" lon="9.078518899163434"><ele>40.0</ele><time>2026-04-10T07:58:54Z</time></trkpt><trkpt lat="39.27375589337256" lon="9.078450253833854"><ele>40.0</ele><time>2026-04-10T07:58:55Z</time></trkpt><trkpt lat="39.27389877560242" lon="9.078381259126322"><ele>40.0</ele><time>2026-04-10T07:58:56Z</time></trkpt><trkpt lat="39.274039706911026" lon="9.07831114663837"><ele>40.0</ele><time>2026-04-10T07:58:57Z</time></trkpt><trkpt lat="39.274177780504324" lon="9.078240450583419"><ele>39.5</ele><time>2026-04-10T07:58:58Z</time></trkpt><trkpt lat="39.27430382205081" lon="9.07817433674156"><ele>39.0</ele><time>2026-04-10T07:58:59Z</time></trkpt><trkpt lat="39.27442604277456" lon="9.078113949357876"><ele>38.5</ele><time>2026-04-10T07:59:00Z</time></trkpt><trkpt lat="39.27454860956695" lon="9.078057981782436"><ele>38.0</ele><time>2026-04-10T07:59:01Z</time></trkpt><trkpt lat="39.27467394317138" lon="9.078002348590742"><ele>37.5</ele><time>2026-04-10T07:59:02Z</time></trkpt><trkpt lat="39.27479036069826" lon="9.077948842410015"><ele>37.0</ele><time>2026-04-10T07:59:03Z</time></trkpt><trkpt lat="39.27490011455598" lon="9.07789517219684"><ele>36.5</ele><time>2026-04-10T07:59:04Z</time></trkpt><trkpt lat="39.275014922698716" lon="9.077840701751972"><ele>36.0</ele><time>2026-04-10T07:59:05Z</time></trkpt><trkpt lat="39.27513149117653" lon="9.07778313828644"><ele>36.0</ele><time>2026-04-10T07:59:06Z</time></trkpt><trkpt lat="39.2752480832914" lon="9.077723745792296"><ele>36.0</ele><time>2026-04-10T07:59:07Z</time></trkpt><trkpt lat="39.275367867604444" lon="9.07766478129742"><ele>36.0</ele><time>2026-04-10T07:59:08Z</time></trkpt><trkpt lat="39.27548458594951" lon="9.077606550782344"><ele>36.0</ele><time>2026-04-10T07:59:09Z</time></trkpt><trkpt lat="39.2756161158747" lon="9.077539998857656"><ele>35.0</ele><time>2026-04-10T07:59:10Z</time></trkpt><trkpt lat="39.2757575123496" lon="9.077471849592504"><ele>34.0</ele><time>2026-04-10T07:59:11Z</time></trkpt><trkpt lat="39.275898172265364" lon="9.07740391627717"><ele>33.0</ele><time>2026-04-10T07:59:12Z</time></trkpt><trkpt lat="39.2760418142583" lon="9.07733348645531"><ele>31.0</ele><time>2026-04-10T07:59:13Z</time></trkpt><trkpt lat="39.27619597395425" lon="9.077261291738704"><ele>29.0</ele><time>2026-04-10T07:59:14Z</time></trkpt><trkpt lat="39.276343558698926" lon="9.077187521809774"><ele>27.0</ele><time>2026-04-10T07:59:15Z</time></trkpt><trkpt lat="39.27647743939314" lon="9.07711738656149"><ele>26.75</ele><time>2026-04-10T07:59:16Z</time></trkpt><trkpt lat="39.276607859382025" lon="9.07704974196756"><ele>26.5</ele><time>2026-04-10T07:59:17Z</time></trkpt><trkpt lat="39.27673376912415" lon="9.076988136014075"><ele>26.25</ele><time>2026-04-10T07:59:18Z</time></trkpt><trkpt lat="39.27686698621105" lon="9.076922664436626"><ele>26.0</ele><time>2026-04-10T07:59:19Z</time></trkpt><trkpt lat="39.27700602010006" lon="9.07685862693395"><ele>26.0</ele><time>2026-04-10T07:59:20Z</time></trkpt><trkpt lat="39.277143332533065" lon="9.076796162630679"><ele>26.0</ele><time>2026-04-10T07:59:21Z</time></trkpt><trkpt lat="39.27728240527207" lon="9.076728086611421"><ele>26.0</ele><time>2026-04-10T07:59:22Z</time></trkpt><trkpt lat="39.2774265337465" lon="9.076661607490403"><ele>26.0</ele><time>2026-04-10T07:59:23Z</time></trkpt><trkpt lat="39.277561523650526" lon="9.076596880371126"><ele>24.75</ele><time>2026-04-10T07:59:24Z</time></trkpt><trkpt lat="39.277693665060276" lon="9.07653171454349"><ele>23.5</ele><time>2026-04-10T07:59:25Z</time></trkpt><trkpt lat="39.277823618594844" lon="9.076462441100041"><ele>22.25</ele><time>2026-04-10T07:59:26Z</time></trkpt><trkpt lat="39.2779596087362" lon="9.076390346429683"><ele>21.0</ele><time>2026-04-10T07:59:27Z</time></trkpt><trkpt lat="39.27809834061078" lon="9.076322311848594"><ele>21.25</ele><time>2026-04-10T07:59:28Z</time></trkpt><trkpt lat="39.27822414160838" lon="9.076259256153442"><ele>21.5</ele><time>2026-04-10T07:59:29Z</time></trkpt><trkpt lat="39.278345437110886" lon="9.07619797702933"><ele>21.75</ele><time>2026-04-10T07:59:30Z</time></trkpt><trkpt lat="39.27845661170963" lon="9.076136405627526"><ele>22.0</ele><time>2026-04-10T07:59:31Z</time></trkpt><trkpt lat="39.27856626528622" lon="9.076072138641265"><ele>22.0</ele><time>2026-04-10T07:59:32Z</time></trkpt><trkpt lat="39.27867500646781" lon="9.076011794710318"><ele>22.0</ele><time>2026-04-10T07:59:33Z</time></trkpt><trkpt lat="39.278778009706045" lon="9.075958571558601"><ele>22.0</ele><time>2026-04-10T07:59:34Z</time></trkpt><trkpt lat="39.27886546437529" lon="9.075913932702456"><ele>22.0</ele><time>2026-04-10T07:59:35Z</time></trkpt><trkpt lat="39.278940119026366" lon="9.075878285589768"><ele>22.0</ele><time>2026-04-10T07:59:36Z</time></trkpt><trkpt lat="39.27902751371744" lon="9.07584590763135"><ele>22.166666666666664</ele><time>2026-04-10T07:59:38Z</time></trkpt><trkpt lat="39.27911255393786" lon="9.075821416172486"><ele>22.333333333333332</ele><time>2026-04-10T07:59:41Z</time></trkpt><trkpt lat="39.27921249210268" lon="9.075843064936686"><ele>22.5</ele><time>2026-04-10T07:59:43Z</time></trkpt><trkpt lat="39.27927419178112" lon="9.075869325468071"><ele>22.666666666666668</ele><time>2026-04-10T07:59:44Z</time></trkpt><trkpt lat="39.27934259760104" lon="9.07587526273367"><ele>22.833333333333336</ele><time>2026-04-10T07:59:45Z</time></trkpt><trkpt lat="39.279416609405324" lon="9.075866017303275"><ele>23.0</ele><time>2026-04-10T07:59:46Z</time></trkpt><trkpt lat="39.279479094910386" lon="9.075831724319201"><ele>22.799999999999997</ele><time>2026-04-10T07:59:47Z</time></trkpt><trkpt lat="39.27952212375526" lon="9.075730763771581"><ele>22.6</ele><time>2026-04-10T07:59:48Z</time></trkpt><trkpt lat="39.27951638557688" lon="9.075617123779281"><ele>22.4</ele><time>2026-04-10T07:59:49Z</time></trkpt><trkpt lat="39.2795088872313" lon="9.075515294282827"><ele>22.200000000000003</ele><time>2026-04-10T07:59:50Z</time></trkpt><trkpt lat="39.27947628780754" lon="9.075413570214186"><ele>22.0</ele><time>2026-04-10T07:59:51Z</time></trkpt><trkpt lat="39.279353372040866" lon="9.075359984237945"><ele>22.0</ele><time>2026-04-10T07:59:52Z</time></trkpt><trkpt lat="39.27926527695224" lon="9.075293351986584"><ele>22.0</ele><time>2026-04-10T07:59:53Z</time></trkpt><trkpt lat="39.279178107948425" lon="9.075197056812948"><ele>22.0</ele><time>2026-04-10T07:59:54Z</time></trkpt><trkpt lat="39.279104010833805" lon="9.075074671027112"><ele>22.0</ele><time>2026-04-10T07:59:55Z</time></trkpt><trkpt lat="39.27903768667865" lon="9.074932145589141"><ele>22.0</ele><time>2026-04-10T07:59:56Z</time></trkpt><trkpt lat="39.27896699185305" lon="9.074774138803187"><ele>22.0</ele><time>2026-04-10T07:59:57Z</time></trkpt><trkpt lat="39.278898419117205" lon="9.074596575223755"><ele>22.0</ele><time>2026-04-10T07:59:58Z</time></trkpt><trkpt lat="39.27882840344364" lon="9.07441350072443"><ele>21.666666666666664</ele><time>2026-04-10T07:59:59Z</time></trkpt><trkpt lat="39.27875503743571" lon="9.074228958612498"><ele>21.333333333333332</ele><time>2026-04-10T08:00:00Z</time></trkpt><trkpt lat="39.2786773892889" lon="9.07404233145467"><ele>21.0</ele><time>2026-04-10T08:00:01Z</time></trkpt><trkpt lat="39.2785973052898" lon="9.073861613979254"><ele>21.0</ele><time>2026-04-10T08:00:02Z</time></trkpt><trkpt lat="39.27851679696633" lon="9.073683706860663"><ele>21.0</ele><time>2026-04-10T08:00:03Z</time></trkpt><trkpt lat="39.2784360902566" lon="9.07350916988949"><ele>21.0</ele><time>2026-04-10T08:00:04Z</time></trkpt><trkpt lat="39.27835638864027" lon="9.073327245406126"><ele>20.666666666666668</ele><time>2026-04-10T08:00:05Z</time></trkpt><trkpt lat="39.278274529821516" lon="9.073138131941382"><ele>20.333333333333336</ele><time>2026-04-10T08:00:06Z</time></trkpt><trkpt lat="39.27819294712233" lon="9.072940323120752"><ele>20.0</ele><time>2026-04-10T08:00:07Z</time></trkpt><trkpt lat="39.2781119278876" lon="9.072738424758596"><ele>20.333333333333336</ele><time>2026-04-10T08:00:08Z</time></trkpt><trkpt lat="39.27802468624114" lon="9.072528130101329"><ele>20.666666666666668</ele><time>2026-04-10T08:00:09Z</time></trkpt><trkpt lat="39.27794053097561" lon="9.072321777627199"><ele>21.0</ele><time>2026-04-10T08:00:10Z</time></trkpt><trkpt lat="39.27785384462794" lon="9.072114466671541"><ele>20.0</ele><time>2026-04-10T08:00:11Z</time></trkpt><trkpt lat="39.277755999934215" lon="9.071909136311909"><ele>19.0</ele><time>2026-04-10T08:00:12Z</time></trkpt><trkpt lat="39.27767310669887" lon="9.07170848759811"><ele>18.0</ele><time>2026-04-10T08:00:13Z</time></trkpt><trkpt lat="39.2775825154253" lon="9.071503530910817"><ele>17.666666666666668</ele><time>2026-04-10T08:00:14Z</time></trkpt><trkpt lat="39.277495899073635" lon="9.07130814429576"><ele>17.333333333333336</ele><time>2026-04-10T08:00:15Z</time></trkpt><trkpt lat="39.277407870241156" lon="9.071120466809523"><ele>17.0</ele><time>2026-04-10T08:00:16Z</time></trkpt><trkpt lat="39.2773197755859" lon="9.0709486443182"><ele>17.333333333333336</ele><time>2026-04-10T08:00:17Z</time></trkpt><trkpt lat="39.27722171931812" lon="9.070773021858972"><ele>17.666666666666668</ele><time>2026-04-10T08:00:18Z</time></trkpt><trkpt lat="39.27712639855183" lon="9.070602182027084"><ele>18.0</ele><time>2026-04-10T08:00:19Z</time></trkpt><trkpt lat="39.277023880882986" lon="9.070429165592103"><ele>18.0</ele><time>2026-04-10T08:00:20Z</time></trkpt><trkpt lat="39.276922359652" lon="9.070252216336694"><ele>18.0</ele><time>2026-04-10T08:00:21Z</time></trkpt><trkpt lat="39.27681811644752" lon="9.070071547271933"><ele>18.0</ele><time>2026-04-10T08:00:22Z</time></trkpt><trkpt lat="39.27670892068763" lon="9.069893949710602"><ele>17.666666666666668</ele><time>2026-04-10T08:00:23Z</time></trkpt><trkpt lat="39.27659525344903" lon="9.069709425926868"><ele>17.333333333333336</ele><time>2026-04-10T08:00:24Z</time></trkpt><trkpt lat="39.27647969409711" lon="9.069522921316297"><ele>17.0</ele><time>2026-04-10T08:00:25Z</time></trkpt><trkpt lat="39.276364145453584" lon="9.069332359381958"><ele>17.0</ele><time>2026-04-10T08:00:26Z</time></trkpt><trkpt lat="39.2762513451979" lon="9.06914734292969"><ele>17.0</ele><time>2026-04-10T08:00:27Z</time></trkpt><trkpt lat="39.276137431045825" lon="9.06895826248649"><ele>17.0</ele><time>2026-04-10T08:00:28Z</time></trkpt><trkpt lat="39.27602703381187" lon="9.068772941286412"><ele>17.0</ele><time>2026-04-10T08:00:29Z</time></trkpt><trkpt lat="39.27591442243366" lon="9.068582589184395"><ele>17.0</ele><time>2026-04-10T08:00:30Z</time></trkpt><trkpt lat="39.27580501637421" lon="9.068402343976114"><ele>17.0</ele><time>2026-04-10T08:00:31Z</time></trkpt><trkpt lat="39.27569959827096" lon="9.068222276578146"><ele>17.0</ele><time>2026-04-10T08:00:32Z</time></trkpt><trkpt lat="39.27559025816436" lon="9.068042996888227"><ele>17.0</ele><time>2026-04-10T08:00:33Z</time></trkpt><trkpt lat="39.27548427070876" lon="9.067864113313222"><ele>17.0</ele><time>2026-04-10T08:00:34Z</time></trkpt><trkpt lat="39.27537581401845" lon="9.067683553661077"><ele>17.0</ele><time>2026-04-10T08:00:35Z</time></trkpt><trkpt lat="39.27526805811971" lon="9.067506463219313"><ele>17.0</ele><time>2026-04-10T08:00:36Z</time></trkpt><trkpt lat="39.27515952642499" lon="9.067327243811386"><ele>17.0</ele><time>2026-04-10T08:00:37Z</time></trkpt><trkpt lat="39.27504814086729" lon="9.067146125662955"><ele>16.333333333333336</ele><time>2026-04-10T08:00:38Z</time></trkpt><trkpt lat="39.274939415890266" lon="9.066965033191183"><ele>15.666666666666668</ele><time>2026-04-10T08:00:39Z</time></trkpt><trkpt lat="39.27482828447781" lon="9.066781162044297"><ele>15.0</ele><time>2026-04-10T08:00:40Z</time></trkpt><trkpt lat="39.27471480150171" lon="9.066602482479796"><ele>15.0</ele><time>2026-04-10T08:00:41Z</time></trkpt><trkpt lat="39.274604837738934" lon="9.066420975693248"><ele>15.0</ele><time>2026-04-10T08:00:42Z</time></trkpt><trkpt lat="39.27449293597998" lon="9.06623468665376"><ele>15.0</ele><time>2026-04-10T08:00:43Z</time></trkpt><trkpt lat="39.27438164924441" lon="9.066051082268919"><ele>15.0</ele><time>2026-04-10T08:00:44Z</time></trkpt><trkpt lat="39.27427076957607" lon="9.065867617912987"><ele>15.0</ele><time>2026-04-10T08:00:45Z</time></trkpt><trkpt lat="39.27415859069809" lon="9.065684111864401"><ele>15.0</ele><time>2026-04-10T08:00:46Z</time></trkpt><trkpt lat="39.27404479106146" lon="9.065496911916705"><ele>14.0</ele><time>2026-04-10T08:00:47Z</time></trkpt><trkpt lat="39.27393249972744" lon="9.065313605899474"><ele>13.0</ele><time>2026-04-10T08:00:48Z</time></trkpt><trkpt lat="39.273818685796115" lon="9.06513099091155"><ele>12.0</ele><time>2026-04-10T08:00:49Z</time></trkpt><trkpt lat="39.27370463091805" lon="9.064949094817326"><ele>11.666666666666666</ele><time>2026-04-10T08:00:50Z</time></trkpt><trkpt lat="39.27358914116185" lon="9.064762550794663"><ele>11.333333333333332</ele><time>2026-04-10T08:00:51Z</time></trkpt><trkpt lat="39.27347381223632" lon="9.064576361953803"><ele>11.0</ele><time>2026-04-10T08:00:52Z</time></trkpt><trkpt lat="39.27335640040534" lon="9.06438788805266"><ele>11.0</ele><time>2026-04-10T08:00:53Z</time></trkpt><trkpt lat="39.273236420415444" lon="9.064197953859749"><ele>11.0</ele><time>2026-04-10T08:00:54Z</time></trkpt><trkpt lat="39.27311760703804" lon="9.064010385820312"><ele>11.0</ele><time>2026-04-10T08:00:55Z</time></trkpt><trkpt lat="39.27299900607564" lon="9.063823348322"><ele>10.666666666666666</ele><time>2026-04-10T08:00:56Z</time></trkpt><trkpt lat="39.27287889692087" lon="9.063635532365122"><ele>10.333333333333334</ele><time>2026-04-10T08:00:57Z</time></trkpt><trkpt lat="39.2727629381936" lon="9.063452059301337"><ele>10.0</ele><time>2026-04-10T08:00:58Z</time></trkpt><trkpt lat="39.272643860154126" lon="9.063266728044518"><ele>10.0</ele><time>2026-04-10T08:00:59Z</time></trkpt><trkpt lat="39.27252965285938" lon="9.063080292455538"><ele>10.0</ele><time>2026-04-10T08:01:00Z</time></trkpt><trkpt lat="39.272416128847496" lon="9.062887557296799"><ele>10.0</ele><time>2026-04-10T08:01:01Z</time></trkpt><trkpt lat="39.272314570075174" lon="9.062689599632773"><ele>10.0</ele><time>2026-04-10T08:01:02Z</time></trkpt><trkpt lat="39.272231714806374" lon="9.062487562612333"><ele>10.0</ele><time>2026-04-10T08:01:03Z</time></trkpt><trkpt lat="39.27215183954909" lon="9.06228068360455"><ele>10.0</ele><time>2026-04-10T08:01:04Z</time></trkpt><trkpt lat="39.27208775916238" lon="9.06206763334183"><ele>9.666666666666668</ele><time>2026-04-10T08:01:05Z</time></trkpt><trkpt lat="39.27203379312101" lon="9.061849544678948"><ele>9.333333333333334</ele><time>2026-04-10T08:01:06Z</time></trkpt><trkpt lat="39.27199521734229" lon="9.061633232555842"><ele>9.0</ele><time>2026-04-10T08:01:07Z</time></trkpt><trkpt lat="39.27196240897082" lon="9.061418159776126"><ele>9.0</ele><time>2026-04-10T08:01:08Z</time></trkpt><trkpt lat="39.27193171851695" lon="9.061212904590107"><ele>9.0</ele><time>2026-04-10T08:01:09Z</time></trkpt><trkpt lat="39.271905703985055" lon="9.061025769758682"><ele>9.0</ele><time>2026-04-10T08:01:10Z</time></trkpt><trkpt lat="39.2718778531261" lon="9.060849091545096"><ele>9.0</ele><time>2026-04-10T08:01:11Z</time></trkpt><trkpt lat="39.27185387170905" lon="9.060679281120597"><ele>9.0</ele><time>2026-04-10T08:01:12Z</time></trkpt><trkpt lat="39.271822976397445" lon="9.060514612126791"><ele>9.0</ele><time>2026-04-10T08:01:13Z</time></trkpt><trkpt lat="39.27179406378601" lon="9.060339105009968"><ele>9.0</ele><time>2026-04-10T08:01:14Z</time></trkpt><trkpt lat="39.271759359946344" lon="9.060162675098452"><ele>9.0</ele><time>2026-04-10T08:01:15Z</time></trkpt><trkpt lat="39.271730047466896" lon="9.059991479643834"><ele>9.25</ele><time>2026-04-10T08:01:16Z</time></trkpt><trkpt lat="39.271668532389214" lon="9.059842022714239"><ele>9.5</ele><time>2026-04-10T08:01:17Z</time></trkpt><trkpt lat="39.27157031257874" lon="9.059722941791394"><ele>9.75</ele><time>2026-04-10T08:01:18Z</time></trkpt><trkpt lat="39.27148809071213" lon="9.059596973516072"><ele>10.0</ele><time>2026-04-10T08:01:19Z</time></trkpt><trkpt lat="39.27141053407505" lon="9.059482234523575"><ele>9.8</ele><time>2026-04-10T08:01:20Z</time></trkpt><trkpt lat="39.271337618492325" lon="9.059370861391043"><ele>9.6</ele><time>2026-04-10T08:01:21Z</time></trkpt><trkpt lat="39.271275809848156" lon="9.05926898088876"><ele>9.4</ele><time>2026-04-10T08:01:22Z</time></trkpt><trkpt lat="39.27121677108693" lon="9.059185313960354"><ele>9.2</ele><time>2026-04-10T08:01:23Z</time></trkpt><trkpt lat="39.2711726443878" lon="9.059116705507614"><ele>9.0</ele><time>2026-04-10T08:01:24Z</time></trkpt><trkpt lat="39.27112549509972" lon="9.059011093263452"><ele>9.0</ele><time>2026-04-10T08:01:26Z</time></trkpt><trkpt lat="39.27111596743676" lon="9.058915460946192"><ele>9.0</ele><time>2026-04-10T08:01:29Z</time></trkpt><trkpt lat="39.271101521997366" lon="9.058825268538056"><ele>9.0</ele><time>2026-04-10T08:01:33Z</time></trkpt><trkpt lat="39.27115225692894" lon="9.058735609459365"><ele>9.0</ele><time>2026-04-10T08:01:36Z</time></trkpt><trkpt lat="39.271238160041754" lon="9.058621474267127"><ele>9.0</ele><time>2026-04-10T08:01:38Z</time></trkpt><trkpt lat="39.271310666548" lon="9.058531980467528"><ele>9.0</ele><time>2026-04-10T08:01:40Z</time></trkpt><trkpt lat="39.27137550499666" lon="9.058451218559307"><ele>9.0</ele><time>2026-04-10T08:01:43Z</time></trkpt><trkpt lat="39.27145436047148" lon="9.058333598871497"><ele>9.0</ele><time>2026-04-10T08:01:45Z</time></trkpt><trkpt lat="39.27150579697651" lon="9.058248075256456"><ele>9.0</ele><time>2026-04-10T08:01:46Z</time></trkpt><trkpt lat="39.271557771066725" lon="9.05815463241993"><ele>9.0</ele><time>2026-04-10T08:01:47Z</time></trkpt><trkpt lat="39.271602257148274" lon="9.058064259179215"><ele>9.333333333333334</ele><time>2026-04-10T08:01:48Z</time></trkpt><trkpt lat="39.271623573431995" lon="9.057986825219611"><ele>9.666666666666666</ele><time>2026-04-10T08:01:49Z</time></trkpt><trkpt lat="39.27164553037269" lon="9.057893848151629"><ele>10.0</ele><time>2026-04-10T08:01:51Z</time></trkpt><trkpt lat="39.27167988169057" lon="9.057814338517021"><ele>10.333333333333332</ele><time>2026-04-10T08:01:54Z</time></trkpt><trkpt lat="39.27172878188941" lon="9.057718554440694"><ele>10.666666666666666</ele><time>2026-04-10T08:01:56Z</time></trkpt><trkpt lat="39.27180438011343" lon="9.057589049615691"><ele>11.0</ele><time>2026-04-10T08:01:58Z</time></trkpt><trkpt lat="39.27185088081096" lon="9.057506160741392"><ele>10.75</ele><time>2026-04-10T08:01:59Z</time></trkpt><trkpt lat="39.271886613753395" lon="9.057407367619296"><ele>10.5</ele><time>2026-04-10T08:02:00Z</time></trkpt><trkpt lat="39.27193039586685" lon="9.057285518633055"><ele>10.25</ele><time>2026-04-10T08:02:01Z</time></trkpt><trkpt lat="39.27198371916806" lon="9.057133697301909"><ele>10.0</ele><time>2026-04-10T08:02:02Z</time></trkpt><trkpt lat="39.27204369328842" lon="9.056976174898994"><ele>10.0</ele><time>2026-04-10T08:02:03Z</time></trkpt><trkpt lat="39.27211286383086" lon="9.056789590710487"><ele>10.0</ele><time>2026-04-10T08:02:04Z</time></trkpt><trkpt lat="39.272189527134415" lon="9.056589650965009"><ele>10.0</ele><time>2026-04-10T08:02:05Z</time></trkpt><trkpt lat="39.27226346100773" lon="9.056382676594856"><ele>10.0</ele><time>2026-04-10T08:02:06Z</time></trkpt><trkpt lat="39.27233052123709" lon="9.056175966892924"><ele>10.0</ele><time>2026-04-10T08:02:07Z</time></trkpt><trkpt lat="39.27238716861353" lon="9.055979567599776"><ele>10.0</ele><time>2026-04-10T08:02:08Z</time></trkpt><trkpt lat="39.27243402486455" lon="9.05579319544734"><ele>9.75</ele><time>2026-04-10T08:02:09Z</time></trkpt><trkpt lat="39.272477516223766" lon="9.05561677767063"><ele>9.5</ele><time>2026-04-10T08:02:10Z</time></trkpt><trkpt lat="39.272517923335926" lon="9.055455363334168"><ele>9.25</ele><time>2026-04-10T08:02:11Z</time></trkpt><trkpt lat="39.27255473001288" lon="9.055310657126633"><ele>9.0</ele><time>2026-04-10T08:02:12Z</time></trkpt><trkpt lat="39.272583790880425" lon="9.055177936526848"><ele>9.0</ele><time>2026-04-10T08:02:13Z</time></trkpt><trkpt lat="39.27260430368588" lon="9.055073972271789"><ele>9.0</ele><time>2026-04-10T08:02:14Z</time></trkpt><trkpt lat="39.27261990398486" lon="9.054988374547952"><ele>9.0</ele><time>2026-04-10T08:02:15Z</time></trkpt><trkpt lat="39.272637410730496" lon="9.054866552151212"><ele>9.0</ele><time>2026-04-10T08:02:17Z</time></trkpt><trkpt lat="39.27263035857598" lon="9.054784919599559"><ele>9.0</ele><time>2026-04-10T08:02:19Z</time></trkpt><trkpt lat="39.27265123173296" lon="9.054671302798946"><ele>9.0</ele><time>2026-04-10T08:03:05Z</time></trkpt><trkpt lat="39.272685150287806" lon="9.054496240463187"><ele>9.166666666666666</ele><time>2026-04-10T08:03:07Z</time></trkpt><trkpt lat="39.27270417796636" lon="9.054395177961903"><ele>9.333333333333334</ele><time>2026-04-10T08:03:08Z</time></trkpt><trkpt lat="39.27272370683376" lon="9.054286550343127"><ele>9.5</ele><time>2026-04-10T08:03:09Z</time></trkpt><trkpt lat="39.27274111081311" lon="9.054186883019698"><ele>9.666666666666668</ele><time>2026-04-10T08:03:10Z</time></trkpt><trkpt lat="39.27275614211052" lon="9.054100388220228"><ele>9.833333333333334</ele><time>2026-04-10T08:03:11Z</time></trkpt><trkpt lat="39.272771888733466" lon="9.054008943807412"><ele>10.0</ele><time>2026-04-10T08:03:12Z</time></trkpt><trkpt lat="39.27278845224164" lon="9.053906470146417"><ele>9.5</ele><time>2026-04-10T08:03:13Z</time></trkpt><trkpt lat="39.27281156516819" lon="9.053786424459284"><ele>9.0</ele><time>2026-04-10T08:03:14Z</time></trkpt><trkpt lat="39.27283919971441" lon="9.053637062123673"><ele>8.5</ele><time>2026-04-10T08:03:15Z</time></trkpt><trkpt lat="39.27286893437469" lon="9.05347287435937"><ele>8.0</ele><time>2026-04-10T08:03:16Z</time></trkpt><trkpt lat="39.27289594269205" lon="9.053315816786899"><ele>7.75</ele><time>2026-04-10T08:03:17Z</time></trkpt><trkpt lat="39.27292327217475" lon="9.0531549991255"><ele>7.5</ele><time>2026-04-10T08:03:18Z</time></trkpt><trkpt lat="39.272953681650584" lon="9.052979018892811"><ele>7.25</ele><time>2026-04-10T08:03:19Z</time></trkpt><trkpt lat="39.272987879939734" lon="9.052796548530692"><ele>7.0</ele><time>2026-04-10T08:03:20Z</time></trkpt><trkpt lat="39.273020401415664" lon="9.05261365042501"><ele>7.0</ele><time>2026-04-10T08:03:21Z</time></trkpt><trkpt lat="39.27305334214685" lon="9.05242935637995"><ele>7.0</ele><time>2026-04-10T08:03:22Z</time></trkpt><trkpt lat="39.27308417648728" lon="9.05225654797887"><ele>7.0</ele><time>2026-04-10T08:03:23Z</time></trkpt><trkpt lat="39.273111960579" lon="9.052097442407264"><ele>7.0</ele><time>2026-04-10T08:03:24Z</time></trkpt><trkpt lat="39.273137556115536" lon="9.051947321434085"><ele>7.0</ele><time>2026-04-10T08:03:25Z</time></trkpt><trkpt lat="39.273162497262284" lon="9.051811418717804"><ele>6.999999999999999</ele><time>2026-04-10T08:03:26Z</time></trkpt><trkpt lat="39.273186327339225" lon="9.051681004362905"><ele>6.999999999999999</ele><time>2026-04-10T08:03:27Z</time></trkpt><trkpt lat="39.27320880257207" lon="9.051550079677538"><ele>7.0</ele><time>2026-04-10T08:03:28Z</time></trkpt><trkpt lat="39.27323473152317" lon="9.051402769727243"><ele>7.0</ele><time>2026-04-10T08:03:29Z</time></trkpt><trkpt lat="39.27326248734124" lon="9.051236191607265"><ele>7.0</ele><time>2026-04-10T08:03:30Z</time></trkpt><trkpt lat="39.27329179711449" lon="9.051068347588005"><ele>7.0</ele><time>2026-04-10T08:03:31Z</time></trkpt><trkpt lat="39.27332265221244" lon="9.050894401546998"><ele>7.0</ele><time>2026-04-10T08:03:32Z</time></trkpt><trkpt lat="39.273351962477804" lon="9.050722740183323"><ele>7.0</ele><time>2026-04-10T08:03:33Z</time></trkpt><trkpt lat="39.27338034922903" lon="9.050564112577225"><ele>7.0</ele><time>2026-04-10T08:03:34Z</time></trkpt><trkpt lat="39.27340782602213" lon="9.050409363999352"><ele>7.0</ele><time>2026-04-10T08:03:35Z</time></trkpt><trkpt lat="39.273435195943364" lon="9.050254919680661"><ele>7.0</ele><time>2026-04-10T08:03:36Z</time></trkpt><trkpt lat="39.273460985459046" lon="9.050093255877652"><ele>7.0</ele><time>2026-04-10T08:03:37Z</time></trkpt><trkpt lat="39.27349238638402" lon="9.049917327401053"><ele>7.0</ele><time>2026-04-10T08:03:38Z</time></trkpt><trkpt lat="39.27352535543842" lon="9.049734127398525"><ele>7.0</ele><time>2026-04-10T08:03:39Z</time></trkpt><trkpt lat="39.273558139377755" lon="9.049545116262278"><ele>7.0</ele><time>2026-04-10T08:03:40Z</time></trkpt><trkpt lat="39.273594591633795" lon="9.04934735350273"><ele>7.0</ele><time>2026-04-10T08:03:41Z</time></trkpt><trkpt lat="39.273634961583234" lon="9.049147246500477"><ele>7.0</ele><time>2026-04-10T08:03:42Z</time></trkpt><trkpt lat="39.27367812405018" lon="9.048942353252855"><ele>7.0</ele><time>2026-04-10T08:03:43Z</time></trkpt><trkpt lat="39.273725379743176" lon="9.048740596920037"><ele>7.666666666666667</ele><time>2026-04-10T08:03:44Z</time></trkpt><trkpt lat="39.27377843660334" lon="9.048536806420119"><ele>8.333333333333334</ele><time>2026-04-10T08:03:45Z</time></trkpt><trkpt lat="39.273833341307665" lon="9.048337156976194"><ele>9.0</ele><time>2026-04-10T08:03:46Z</time></trkpt><trkpt lat="39.27389188885414" lon="9.04814616837378"><ele>9.333333333333334</ele><time>2026-04-10T08:03:47Z</time></trkpt><trkpt lat="39.273954025426974" lon="9.04796128940248"><ele>9.666666666666668</ele><time>2026-04-10T08:03:48Z</time></trkpt><trkpt lat="39.2740188811797" lon="9.04778610300626"><ele>10.0</ele><time>2026-04-10T08:03:49Z</time></trkpt><trkpt lat="39.27408563014641" lon="9.047614855381537"><ele>9.666666666666668</ele><time>2026-04-10T08:03:50Z</time></trkpt><trkpt lat="39.27415738125314" lon="9.047440989093044"><ele>9.333333333333334</ele><time>2026-04-10T08:03:51Z</time></trkpt><trkpt lat="39.27423284767649" lon="9.047267541704052"><ele>9.0</ele><time>2026-04-10T08:03:52Z</time></trkpt><trkpt lat="39.274316090102445" lon="9.047091519981374"><ele>9.0</ele><time>2026-04-10T08:03:53Z</time></trkpt><trkpt lat="39.27440307256808" lon="9.046917686489811"><ele>9.0</ele><time>2026-04-10T08:03:54Z</time></trkpt><trkpt lat="39.27449470415498" lon="9.046742071332096"><ele>9.0</ele><time>2026-04-10T08:03:55Z</time></trkpt><trkpt lat="39.27458404532996" lon="9.046569532371981"><ele>8.0</ele><time>2026-04-10T08:03:56Z</time></trkpt><trkpt lat="39.27467259880489" lon="9.046399693881975"><ele>7.0</ele><time>2026-04-10T08:03:57Z</time></trkpt><trkpt lat="39.2747608240441" lon="9.04623571427887"><ele>6.0</ele><time>2026-04-10T08:03:58Z</time></trkpt><trkpt lat="39.274847244689404" lon="9.046072059140034"><ele>6.0</ele><time>2026-04-10T08:03:59Z</time></trkpt><trkpt lat="39.27493343320342" lon="9.04591041634693"><ele>6.0</ele><time>2026-04-10T08:04:00Z</time></trkpt><trkpt lat="39.275019019507035" lon="9.045748752572788"><ele>6.0</ele><time>2026-04-10T08:04:01Z</time></trkpt><trkpt lat="39.275106482986665" lon="9.045586269914365"><ele>5.333333333333333</ele><time>2026-04-10T08:04:02Z</time></trkpt><trkpt lat="39.275192282968376" lon="9.045420480067348"><ele>4.666666666666666</ele><time>2026-04-10T08:04:03Z</time></trkpt><trkpt lat="39.27528189451826" lon="9.045251061731916"><ele>4.0</ele><time>2026-04-10T08:04:04Z</time></trkpt><trkpt lat="39.27536895122834" lon="9.045089984909527"><ele>4.0</ele><time>2026-04-10T08:04:05Z</time></trkpt><trkpt lat="39.27545556712127" lon="9.044929635841052"><ele>4.0</ele><time>2026-04-10T08:04:06Z</time></trkpt><trkpt lat="39.27554007005681" lon="9.04477043175615"><ele>4.0</ele><time>2026-04-10T08:04:07Z</time></trkpt><trkpt lat="39.275625468861755" lon="9.044607974968715"><ele>4.0</ele><time>2026-04-10T08:04:08Z</time></trkpt><trkpt lat="39.27571294602764" lon="9.044442216762592"><ele>4.0</ele><time>2026-04-10T08:04:09Z</time></trkpt><trkpt lat="39.27580417382387" lon="9.04427191825755"><ele>4.0</ele><time>2026-04-10T08:04:10Z</time></trkpt><trkpt lat="39.27589566096103" lon="9.044098324610706"><ele>4.666666666666666</ele><time>2026-04-10T08:04:11Z</time></trkpt><trkpt lat="39.275987987388" lon="9.043921794000063"><ele>5.333333333333333</ele><time>2026-04-10T08:04:12Z</time></trkpt><trkpt lat="39.27608034710483" lon="9.043746846175454"><ele>6.0</ele><time>2026-04-10T08:04:13Z</time></trkpt><trkpt lat="39.27617004065971" lon="9.043577784403977"><ele>6.0</ele><time>2026-04-10T08:04:14Z</time></trkpt><trkpt lat="39.276254538603766" lon="9.04341641287144"><ele>6.0</ele><time>2026-04-10T08:04:15Z</time></trkpt><trkpt lat="39.27633588641414" lon="9.043261871855737"><ele>6.0</ele><time>2026-04-10T08:04:16Z</time></trkpt><trkpt lat="39.276416516471464" lon="9.043109797551429"><ele>6.0</ele><time>2026-04-10T08:04:17Z</time></trkpt><trkpt lat="39.27649383970142" lon="9.042956675834578"><ele>6.0</ele><time>2026-04-10T08:04:18Z</time></trkpt><trkpt lat="39.27657416071367" lon="9.04279862932708"><ele>6.0</ele><time>2026-04-10T08:04:19Z</time></trkpt><trkpt lat="39.27665553122488" lon="9.042649746796455"><ele>6.0</ele><time>2026-04-10T08:04:20Z</time></trkpt><trkpt lat="39.276740636927926" lon="9.042500662840823"><ele>6.0</ele><time>2026-04-10T08:04:21Z</time></trkpt><trkpt lat="39.27682793943006" lon="9.042348410599379"><ele>6.0</ele><time>2026-04-10T08:04:22Z</time></trkpt><trkpt lat="39.27691315791505" lon="9.042192295006396"><ele>6.0</ele><time>2026-04-10T08:04:23Z</time></trkpt><trkpt lat="39.27699915181103" lon="9.042029238035402"><ele>6.0</ele><time>2026-04-10T08:04:24Z</time></trkpt><trkpt lat="39.27708637149551" lon="9.041858494439577"><ele>6.0</ele><time>2026-04-10T08:04:25Z</time></trkpt><trkpt lat="39.27717885833596" lon="9.041684310550403"><ele>6.0</ele><time>2026-04-10T08:04:26Z</time></trkpt><trkpt lat="39.277273263265336" lon="9.041507038246165"><ele>6.0</ele><time>2026-04-10T08:04:27Z</time></trkpt><trkpt lat="39.27736781741229" lon="9.041327384278121"><ele>6.0</ele><time>2026-04-10T08:04:28Z</time></trkpt><trkpt lat="39.27746457943253" lon="9.041145465617895"><ele>6.0</ele><time>2026-04-10T08:04:29Z</time></trkpt><trkpt lat="39.277564366194994" lon="9.040957239737939"><ele>6.0</ele><time>2026-04-10T08:04:30Z</time></trkpt><trkpt lat="39.27767213008765" lon="9.040755361372717"><ele>6.666666666666666</ele><time>2026-04-10T08:04:31Z</time></trkpt><trkpt lat="39.27778306106977" lon="9.040546968574189"><ele>7.333333333333333</ele><time>2026-04-10T08:04:32Z</time></trkpt><trkpt lat="39.277892823312825" lon="9.040341207295512"><ele>8.0</ele><time>2026-04-10T08:04:33Z</time></trkpt><trkpt lat="39.27799879302608" lon="9.04013935956563"><ele>7.666666666666666</ele><time>2026-04-10T08:04:34Z</time></trkpt><trkpt lat="39.27810668907908" lon="9.039940138508605"><ele>7.333333333333334</ele><time>2026-04-10T08:04:35Z</time></trkpt><trkpt lat="39.27821543064639" lon="9.039738469335271"><ele>7.0</ele><time>2026-04-10T08:04:36Z</time></trkpt><trkpt lat="39.27832282555747" lon="9.039536170141082"><ele>7.0</ele><time>2026-04-10T08:04:37Z</time></trkpt><trkpt lat="39.278430207481755" lon="9.039333912778"><ele>7.0</ele><time>2026-04-10T08:04:38Z</time></trkpt><trkpt lat="39.2785358673705" lon="9.039134989945882"><ele>7.0</ele><time>2026-04-10T08:04:39Z</time></trkpt><trkpt lat="39.2786363404883" lon="9.038947754150447"><ele>6.666666666666667</ele><time>2026-04-10T08:04:40Z</time></trkpt><trkpt lat="39.27873047601746" lon="9.038769282306674"><ele>6.333333333333334</ele><time>2026-04-10T08:04:41Z</time></trkpt><trkpt lat="39.278821245419266" lon="9.038598461892791"><ele>6.0</ele><time>2026-04-10T08:04:42Z</time></trkpt><trkpt lat="39.27891394158835" lon="9.038424478165487"><ele>6.333333333333334</ele><time>2026-04-10T08:04:43Z</time></trkpt><trkpt lat="39.2790089475015" lon="9.038248912621594"><ele>6.666666666666667</ele><time>2026-04-10T08:04:44Z</time></trkpt><trkpt lat="39.27910500467633" lon="9.038069711904692"><ele>7.0</ele><time>2026-04-10T08:04:45Z</time></trkpt><trkpt lat="39.27920193837095" lon="9.037888059835808"><ele>7.0</ele><time>2026-04-10T08:04:46Z</time></trkpt><trkpt lat="39.27929943671465" lon="9.037706086158655"><ele>7.0</ele><time>2026-04-10T08:04:47Z</time></trkpt><trkpt lat="39.279398271781105" lon="9.037520668891133"><ele>7.0</ele><time>2026-04-10T08:04:48Z</time></trkpt><trkpt lat="39.27949764478505" lon="9.037333414849117"><ele>7.0</ele><time>2026-04-10T08:04:49Z</time></trkpt><trkpt lat="39.27959802869349" lon="9.037143882329866"><ele>7.0</ele><time>2026-04-10T08:04:50Z</time></trkpt><trkpt lat="39.27969927280701" lon="9.03695012645934"><ele>7.0</ele><time>2026-04-10T08:04:51Z</time></trkpt><trkpt lat="39.27979719639004" lon="9.036757904936573"><ele>7.0</ele><time>2026-04-10T08:04:52Z</time></trkpt><trkpt lat="39.27989524206749" lon="9.036571683509115"><ele>7.0</ele><time>2026-04-10T08:04:53Z</time></trkpt><trkpt lat="39.27998941983249" lon="9.036396195090536"><ele>7.0</ele><time>2026-04-10T08:04:54Z</time></trkpt><trkpt lat="39.2800780373037" lon="9.03622924376152"><ele>7.0</ele><time>2026-04-10T08:04:55Z</time></trkpt><trkpt lat="39.2801628373353" lon="9.03606751805518"><ele>7.0</ele><time>2026-04-10T08:04:56Z</time></trkpt><trkpt lat="39.28024769086836" lon="9.035905131037518"><ele>7.0</ele><time>2026-04-10T08:04:57Z</time></trkpt><trkpt lat="39.28033318700045" lon="9.035741211464089"><ele>7.333333333333334</ele><time>2026-04-10T08:04:58Z</time></trkpt><trkpt lat="39.28042042976036" lon="9.03557200701681"><ele>7.666666666666666</ele><time>2026-04-10T08:04:59Z</time></trkpt><trkpt lat="39.28051032022152" lon="9.035397135310006"><ele>8.0</ele><time>2026-04-10T08:05:00Z</time></trkpt><trkpt lat="39.28060604758463" lon="9.035218987262681"><ele>8.0</ele><time>2026-04-10T08:05:01Z</time></trkpt><trkpt lat="39.280704816409866" lon="9.03503477099543"><ele>8.0</ele><time>2026-04-10T08:05:02Z</time></trkpt><trkpt lat="39.28080599400269" lon="9.034845053900709"><ele>8.0</ele><time>2026-04-10T08:05:03Z</time></trkpt><trkpt lat="39.280910604203385" lon="9.034653718402343"><ele>7.666666666666666</ele><time>2026-04-10T08:05:04Z</time></trkpt><trkpt lat="39.28102158355448" lon="9.034453823840249"><ele>7.333333333333334</ele><time>2026-04-10T08:05:05Z</time></trkpt><trkpt lat="39.28112761088785" lon="9.034250571111585"><ele>7.0</ele><time>2026-04-10T08:05:06Z</time></trkpt><trkpt lat="39.28123492654365" lon="9.034045776469595"><ele>7.0</ele><time>2026-04-10T08:05:07Z</time></trkpt><trkpt lat="39.281339502122066" lon="9.03384171098295"><ele>7.0</ele><time>2026-04-10T08:05:08Z</time></trkpt><trkpt lat="39.28144621600482" lon="9.033639052814392"><ele>7.0</ele><time>2026-04-10T08:05:09Z</time></trkpt><trkpt lat="39.2815535904579" lon="9.033437214840509"><ele>8.0</ele><time>2026-04-10T08:05:10Z</time></trkpt><trkpt lat="39.281660761314086" lon="9.03323560138751"><ele>9.0</ele><time>2026-04-10T08:05:11Z</time></trkpt><trkpt lat="39.28176806331611" lon="9.033037367023724"><ele>10.0</ele><time>2026-04-10T08:05:12Z</time></trkpt><trkpt lat="39.28187111061781" lon="9.032842481034185"><ele>10.0</ele><time>2026-04-10T08:05:13Z</time></trkpt><trkpt lat="39.28197011963577" lon="9.032651450959488"><ele>10.0</ele><time>2026-04-10T08:05:14Z</time></trkpt><trkpt lat="39.282067208226344" lon="9.032467975411194"><ele>10.0</ele><time>2026-04-10T08:05:15Z</time></trkpt><trkpt lat="39.28216210483195" lon="9.032287779276217"><ele>9.0</ele><time>2026-04-10T08:05:16Z</time></trkpt><trkpt lat="39.28225654309372" lon="9.032109592100102"><ele>8.0</ele><time>2026-04-10T08:05:17Z</time></trkpt><trkpt lat="39.28234833806192" lon="9.031932823945125"><ele>7.0</ele><time>2026-04-10T08:05:18Z</time></trkpt><trkpt lat="39.282441992504836" lon="9.031754461468973"><ele>6.333333333333334</ele><time>2026-04-10T08:05:19Z</time></trkpt><trkpt lat="39.2825359779595" lon="9.031575389148246"><ele>5.666666666666667</ele><time>2026-04-10T08:05:20Z</time></trkpt><trkpt lat="39.28263256542268" lon="9.03139555200785"><ele>5.0</ele><time>2026-04-10T08:05:21Z</time></trkpt><trkpt lat="39.28273018443094" lon="9.031216205350551"><ele>5.0</ele><time>2026-04-10T08:05:22Z</time></trkpt><trkpt lat="39.28282816899257" lon="9.031035207970069"><ele>5.0</ele><time>2026-04-10T08:05:23Z</time></trkpt><trkpt lat="39.282925177828105" lon="9.030851520834235"><ele>5.0</ele><time>2026-04-10T08:05:24Z</time></trkpt><trkpt lat="39.283019756641224" lon="9.030671608183301"><ele>4.666666666666667</ele><time>2026-04-10T08:05:25Z</time></trkpt><trkpt lat="39.283114101688135" lon="9.030493169157172"><ele>4.333333333333333</ele><time>2026-04-10T08:05:26Z</time></trkpt><trkpt lat="39.283209653231836" lon="9.030315207209634"><ele>4.0</ele><time>2026-04-10T08:05:27Z</time></trkpt><trkpt lat="39.283299131662986" lon="9.030147976342825"><ele>4.0</ele><time>2026-04-10T08:05:28Z</time></trkpt><trkpt lat="39.28338315907044" lon="9.029989377615617"><ele>4.0</ele><time>2026-04-10T08:05:29Z</time></trkpt><trkpt lat="39.283463795562554" lon="9.02983588874301"><ele>4.0</ele><time>2026-04-10T08:05:30Z</time></trkpt><trkpt lat="39.283545268444776" lon="9.029680279716422"><ele>4.0</ele><time>2026-04-10T08:05:31Z</time></trkpt><trkpt lat="39.283629447708606" lon="9.029521323455425"><ele>4.333333333333333</ele><time>2026-04-10T08:05:32Z</time></trkpt><trkpt lat="39.28371941946772" lon="9.029355910333075"><ele>4.666666666666667</ele><time>2026-04-10T08:05:33Z</time></trkpt><trkpt lat="39.283810390427526" lon="9.029182323468397"><ele>5.0</ele><time>2026-04-10T08:05:34Z</time></trkpt><trkpt lat="39.28390220823957" lon="9.029002340255929"><ele>6.0</ele><time>2026-04-10T08:05:35Z</time></trkpt><trkpt lat="39.28399972227005" lon="9.028814569921225"><ele>7.0</ele><time>2026-04-10T08:05:36Z</time></trkpt><trkpt lat="39.284098449129175" lon="9.028629322029683"><ele>8.0</ele><time>2026-04-10T08:05:37Z</time></trkpt><trkpt lat="39.28418881976563" lon="9.028456564194133"><ele>8.0</ele><time>2026-04-10T08:05:38Z</time></trkpt><trkpt lat="39.284276466919884" lon="9.028289177962325"><ele>8.0</ele><time>2026-04-10T08:05:39Z</time></trkpt><trkpt lat="39.28435563415625" lon="9.028131747736746"><ele>8.0</ele><time>2026-04-10T08:05:40Z</time></trkpt><trkpt lat="39.28443402485279" lon="9.02798665509615"><ele>8.0</ele><time>2026-04-10T08:05:41Z</time></trkpt><trkpt lat="39.28450661145446" lon="9.027860257574359"><ele>8.0</ele><time>2026-04-10T08:05:42Z</time></trkpt><trkpt lat="39.28458189309431" lon="9.027738819955601"><ele>8.0</ele><time>2026-04-10T08:05:43Z</time></trkpt><trkpt lat="39.284653367228934" lon="9.027610793241418"><ele>8.0</ele><time>2026-04-10T08:05:44Z</time></trkpt><trkpt lat="39.284720862195144" lon="9.02748992032253"><ele>8.0</ele><time>2026-04-10T08:05:45Z</time></trkpt><trkpt lat="39.284785127338004" lon="9.027374749221702"><ele>7.6000000000000005</ele><time>2026-04-10T08:05:46Z</time></trkpt><trkpt lat="39.284841831364695" lon="9.027268874862797"><ele>7.200000000000001</ele><time>2026-04-10T08:05:47Z</time></trkpt><trkpt lat="39.28489486008535" lon="9.027167154279313"><ele>6.8</ele><time>2026-04-10T08:05:48Z</time></trkpt><trkpt lat="39.28495177468353" lon="9.027059081141786"><ele>6.4</ele><time>2026-04-10T08:05:49Z</time></trkpt><trkpt lat="39.28501290517989" lon="9.026950396242913"><ele>6.0</ele><time>2026-04-10T08:05:50Z</time></trkpt><trkpt lat="39.28507531472562" lon="9.026854999310425"><ele>6.0</ele><time>2026-04-10T08:05:51Z</time></trkpt><trkpt lat="39.28515061620546" lon="9.026755516975511"><ele>6.0</ele><time>2026-04-10T08:05:52Z</time></trkpt><trkpt lat="39.2852396948327" lon="9.026670130367764"><ele>6.0</ele><time>2026-04-10T08:05:53Z</time></trkpt><trkpt lat="39.285338722186225" lon="9.02659881412515"><ele>6.0</ele><time>2026-04-10T08:05:54Z</time></trkpt><trkpt lat="39.28544702632701" lon="9.026557943387038"><ele>6.0</ele><time>2026-04-10T08:05:55Z</time></trkpt><trkpt lat="39.285560139627734" lon="9.026546331290604"><ele>6.199999999999999</ele><time>2026-04-10T08:05:56Z</time></trkpt><trkpt lat="39.28567309927047" lon="9.026564684609758"><ele>6.3999999999999995</ele><time>2026-04-10T08:05:57Z</time></trkpt><trkpt lat="39.28578235937154" lon="9.026609213514329"><ele>6.6</ele><time>2026-04-10T08:05:58Z</time></trkpt><trkpt lat="39.28586712126363" lon="9.026675329510823"><ele>6.8</ele><time>2026-04-10T08:05:59Z</time></trkpt><trkpt lat="39.28595218124612" lon="9.026735828237259"><ele>7.0</ele><time>2026-04-10T08:06:00Z</time></trkpt><trkpt lat="39.28601792380175" lon="9.026831697860137"><ele>7.0</ele><time>2026-04-10T08:06:01Z</time></trkpt><trkpt lat="39.286073669335885" lon="9.0269549044328"><ele>7.0</ele><time>2026-04-10T08:06:02Z</time></trkpt><trkpt lat="39.28611228919673" lon="9.027091498981017"><ele>7.0</ele><time>2026-04-10T08:06:03Z</time></trkpt><trkpt lat="39.2861239626111" lon="9.027234657169966"><ele>7.0</ele><time>2026-04-10T08:06:04Z</time></trkpt><trkpt lat="39.28611197654113" lon="9.027385378675604"><ele>7.199999999999999</ele><time>2026-04-10T08:06:05Z</time></trkpt><trkpt lat="39.28606394374879" lon="9.02751723105361"><ele>7.3999999999999995</ele><time>2026-04-10T08:06:06Z</time></trkpt><trkpt lat="39.28601677832586" lon="9.027640611534354"><ele>7.6000000000000005</ele><time>2026-04-10T08:06:07Z</time></trkpt><trkpt lat="39.28594864642524" lon="9.027749921534276"><ele>7.800000000000001</ele><time>2026-04-10T08:06:08Z</time></trkpt><trkpt lat="39.285865910829514" lon="9.027838366755352"><ele>8.0</ele><time>2026-04-10T08:06:09Z</time></trkpt><trkpt lat="39.285781461221475" lon="9.027935653316847"><ele>8.0</ele><time>2026-04-10T08:06:10Z</time></trkpt><trkpt lat="39.28567515483837" lon="9.02798598702146"><ele>8.0</ele><time>2026-04-10T08:06:11Z</time></trkpt><trkpt lat="39.285572416034185" lon="9.028031496833908"><ele>8.0</ele><time>2026-04-10T08:06:12Z</time></trkpt><trkpt lat="39.28545891613437" lon="9.028042783014275"><ele>8.0</ele><time>2026-04-10T08:06:13Z</time></trkpt><trkpt lat="39.285337643899474" lon="9.02799983591562"><ele>7.666666666666666</ele><time>2026-04-10T08:06:14Z</time></trkpt><trkpt lat="39.285205613474645" lon="9.02797241449101"><ele>7.333333333333334</ele><time>2026-04-10T08:06:15Z</time></trkpt><trkpt lat="39.28507396257711" lon="9.027842420808142"><ele>7.0</ele><time>2026-04-10T08:06:16Z</time></trkpt><trkpt lat="39.28492975013293" lon="9.027739670522381"><ele>7.0</ele><time>2026-04-10T08:06:17Z</time></trkpt><trkpt lat="39.28478430342377" lon="9.027641924846785"><ele>7.0</ele><time>2026-04-10T08:06:18Z</time></trkpt><trkpt lat="39.28463223474261" lon="9.027544916712108"><ele>7.0</ele><time>2026-04-10T08:06:19Z</time></trkpt><trkpt lat="39.28447687932595" lon="9.027447397660875"><ele>7.0</ele><time>2026-04-10T08:06:20Z</time></trkpt><trkpt lat="39.284319735339274" lon="9.02734469677941"><ele>7.0</ele><time>2026-04-10T08:06:21Z</time></trkpt><trkpt lat="39.284163462451865" lon="9.02723686807211"><ele>7.0</ele><time>2026-04-10T08:06:22Z</time></trkpt><trkpt lat="39.28401239601274" lon="9.027129948963259"><ele>7.0</ele><time>2026-04-10T08:06:23Z</time></trkpt><trkpt lat="39.28386552537034" lon="9.027027110552448"><ele>7.0</ele><time>2026-04-10T08:06:24Z</time></trkpt><trkpt lat="39.28372551638006" lon="9.026927025617143"><ele>7.0</ele><time>2026-04-10T08:06:25Z</time></trkpt><trkpt lat="39.283589003684675" lon="9.026830998624005"><ele>7.0</ele><time>2026-04-10T08:06:26Z</time></trkpt><trkpt lat="39.283457265691474" lon="9.026738912624854"><ele>7.0</ele><time>2026-04-10T08:06:27Z</time></trkpt><trkpt lat="39.283321528065" lon="9.026642969510322"><ele>7.0</ele><time>2026-04-10T08:06:28Z</time></trkpt><trkpt lat="39.283183525141425" lon="9.02654365858863"><ele>6.666666666666667</ele><time>2026-04-10T08:06:29Z</time></trkpt><trkpt lat="39.283042512094866" lon="9.026438370302044"><ele>6.333333333333334</ele><time>2026-04-10T08:06:30Z</time></trkpt><trkpt lat="39.28289919510841" lon="9.026333121607133"><ele>6.0</ele><time>2026-04-10T08:06:31Z</time></trkpt><trkpt lat="39.28275267009771" lon="9.026227532005931"><ele>6.0</ele><time>2026-04-10T08:06:32Z</time></trkpt><trkpt lat="39.28260499886656" lon="9.026122259107947"><ele>6.0</ele><time>2026-04-10T08:06:33Z</time></trkpt><trkpt lat="39.282454748032954" lon="9.026016366905408"><ele>6.0</ele><time>2026-04-10T08:06:34Z</time></trkpt><trkpt lat="39.28230536836899" lon="9.025906238620014"><ele>6.333333333333334</ele><time>2026-04-10T08:06:35Z</time></trkpt><trkpt lat="39.28215866465918" lon="9.0257987111417"><ele>6.666666666666667</ele><time>2026-04-10T08:06:36Z</time></trkpt><trkpt lat="39.28201940050729" lon="9.02569776287357"><ele>7.0</ele><time>2026-04-10T08:06:37Z</time></trkpt><trkpt lat="39.28188276150979" lon="9.025600344074919"><ele>7.0</ele><time>2026-04-10T08:06:38Z</time></trkpt><trkpt lat="39.28174793177061" lon="9.025503404077853"><ele>7.0</ele><time>2026-04-10T08:06:39Z</time></trkpt><trkpt lat="39.281612432364255" lon="9.025406497921999"><ele>7.0</ele><time>2026-04-10T08:06:40Z</time></trkpt><trkpt lat="39.28147771693049" lon="9.025311274649505"><ele>6.333333333333334</ele><time>2026-04-10T08:06:41Z</time></trkpt><trkpt lat="39.28134492970208" lon="9.025216372096846"><ele>5.666666666666667</ele><time>2026-04-10T08:06:42Z</time></trkpt><trkpt lat="39.28121123734915" lon="9.025120025860545"><ele>5.0</ele><time>2026-04-10T08:06:43Z</time></trkpt><trkpt lat="39.28107955896328" lon="9.025023776491402"><ele>5.0</ele><time>2026-04-10T08:06:44Z</time></trkpt><trkpt lat="39.28094779222441" lon="9.024927426724261"><ele>5.0</ele><time>2026-04-10T08:06:45Z</time></trkpt><trkpt lat="39.28081482860628" lon="9.024830303929681"><ele>5.0</ele><time>2026-04-10T08:06:46Z</time></trkpt><trkpt lat="39.28068343268115" lon="9.024732605324944"><ele>5.0</ele><time>2026-04-10T08:06:47Z</time></trkpt><trkpt lat="39.28055007279551" lon="9.024637289213773"><ele>5.0</ele><time>2026-04-10T08:06:48Z</time></trkpt><trkpt lat="39.28041547046671" lon="9.024539163508999"><ele>5.0</ele><time>2026-04-10T08:06:49Z</time></trkpt><trkpt lat="39.280281294596485" lon="9.024441201739998"><ele>5.0</ele><time>2026-04-10T08:06:50Z</time></trkpt><trkpt lat="39.28014488595754" lon="9.024339324648441"><ele>5.0</ele><time>2026-04-10T08:06:51Z</time></trkpt><trkpt lat="39.2800047318466" lon="9.02423396619472"><ele>5.0</ele><time>2026-04-10T08:06:52.001Z</time></trkpt><trkpt lat="39.27985996553351" lon="9.024125882490464"><ele>5.666666666666667</ele><time>2026-04-10T08:06:53.001Z</time></trkpt><trkpt lat="39.279714906691964" lon="9.024017235848607"><ele>6.333333333333334</ele><time>2026-04-10T08:06:54.001Z</time></trkpt><trkpt lat="39.279571140797756" lon="9.023902811628327"><ele>7.0</ele><time>2026-04-10T08:06:55.001Z</time></trkpt><trkpt lat="39.279429145206485" lon="9.023787876596417"><ele>7.0</ele><time>2026-04-10T08:06:56.001Z</time></trkpt><trkpt lat="39.27928251508873" lon="9.0236733265585"><ele>7.0</ele><time>2026-04-10T08:06:57.001Z</time></trkpt><trkpt lat="39.27913494335404" lon="9.023554238465058"><ele>7.0</ele><time>2026-04-10T08:06:58.001Z</time></trkpt><trkpt lat="39.278988197298645" lon="9.023428568365956"><ele>8.0</ele><time>2026-04-10T08:06:59Z</time></trkpt><trkpt lat="39.27884451341148" lon="9.023302655200538"><ele>9.0</ele><time>2026-04-10T08:07:00Z</time></trkpt><trkpt lat="39.27870170913004" lon="9.023174912128928"><ele>10.0</ele><time>2026-04-10T08:07:01Z</time></trkpt><trkpt lat="39.27856278504083" lon="9.02304705164355"><ele>10.0</ele><time>2026-04-10T08:07:02Z</time></trkpt><trkpt lat="39.27842713244911" lon="9.022921853983105"><ele>10.0</ele><time>2026-04-10T08:07:03Z</time></trkpt><trkpt lat="39.278296087112636" lon="9.022796022753422"><ele>10.0</ele><time>2026-04-10T08:07:04Z</time></trkpt><trkpt lat="39.2781627063033" lon="9.022667650490732"><ele>9.0</ele><time>2026-04-10T08:07:05Z</time></trkpt><trkpt lat="39.278033577041825" lon="9.02253307841801"><ele>8.0</ele><time>2026-04-10T08:07:06Z</time></trkpt><trkpt lat="39.27790934993688" lon="9.02239250196224"><ele>7.0</ele><time>2026-04-10T08:07:07Z</time></trkpt><trkpt lat="39.27778533296125" lon="9.022244221034704"><ele>6.333333333333334</ele><time>2026-04-10T08:07:08Z</time></trkpt><trkpt lat="39.27766407426556" lon="9.022099998826743"><ele>5.666666666666667</ele><time>2026-04-10T08:07:09Z</time></trkpt><trkpt lat="39.27754654219403" lon="9.021954194628174"><ele>5.0</ele><time>2026-04-10T08:07:10Z</time></trkpt><trkpt lat="39.27742712324857" lon="9.021803736089542"><ele>4.666666666666667</ele><time>2026-04-10T08:07:11Z</time></trkpt><trkpt lat="39.27730824159204" lon="9.021644169881931"><ele>4.333333333333333</ele><time>2026-04-10T08:07:12Z</time></trkpt><trkpt lat="39.277188350496864" lon="9.021474950743615"><ele>4.0</ele><time>2026-04-10T08:07:13Z</time></trkpt><trkpt lat="39.27707215832536" lon="9.021298270807243"><ele>3.6666666666666665</ele><time>2026-04-10T08:07:14Z</time></trkpt><trkpt lat="39.276956025474" lon="9.02111982114694"><ele>3.333333333333333</ele><time>2026-04-10T08:07:15Z</time></trkpt><trkpt lat="39.2768452529283" lon="9.02092766124398"><ele>3.0</ele><time>2026-04-10T08:07:16Z</time></trkpt><trkpt lat="39.27673802729083" lon="9.020731750662375"><ele>2.6666666666666665</ele><time>2026-04-10T08:07:17Z</time></trkpt><trkpt lat="39.276637113250125" lon="9.020534778494858"><ele>2.333333333333333</ele><time>2026-04-10T08:07:18Z</time></trkpt><trkpt lat="39.27654408808539" lon="9.020343205815786"><ele>2.0</ele><time>2026-04-10T08:07:19Z</time></trkpt><trkpt lat="39.27645878516885" lon="9.020155434834187"><ele>2.6666666666666665</ele><time>2026-04-10T08:07:20Z</time></trkpt><trkpt lat="39.27638137023837" lon="9.019971724337909"><ele>3.333333333333333</ele><time>2026-04-10T08:07:21Z</time></trkpt><trkpt lat="39.27630397637086" lon="9.019780571706042"><ele>4.0</ele><time>2026-04-10T08:07:22Z</time></trkpt><trkpt lat="39.27622474879229" lon="9.019580921978491"><ele>4.0</ele><time>2026-04-10T08:07:23Z</time></trkpt><trkpt lat="39.27614975647539" lon="9.019371068282869"><ele>4.0</ele><time>2026-04-10T08:07:24Z</time></trkpt><trkpt lat="39.27607677504623" lon="9.019149161798534"><ele>4.0</ele><time>2026-04-10T08:07:25Z</time></trkpt><trkpt lat="39.27600442260637" lon="9.018913296710664"><ele>3.6666666666666665</ele><time>2026-04-10T08:07:26Z</time></trkpt><trkpt lat="39.275931984550695" lon="9.018668884760203"><ele>3.333333333333333</ele><time>2026-04-10T08:07:27Z</time></trkpt><trkpt lat="39.275862067961626" lon="9.018415777151892"><ele>3.0</ele><time>2026-04-10T08:07:28Z</time></trkpt><trkpt lat="39.275796506745415" lon="9.018150257893868"><ele>2.3333333333333335</ele><time>2026-04-10T08:07:29Z</time></trkpt><trkpt lat="39.2757352419146" lon="9.017875809356457"><ele>1.6666666666666665</ele><time>2026-04-10T08:07:30Z</time></trkpt><trkpt lat="39.27567502170826" lon="9.017594352423968"><ele>1.0</ele><time>2026-04-10T08:07:31Z</time></trkpt><trkpt lat="39.2756165828193" lon="9.017307360987573"><ele>0.5</ele><time>2026-04-10T08:07:32Z</time></trkpt><trkpt lat="39.27556155488499" lon="9.01701893302924"><ele>0.0</ele><time>2026-04-10T08:07:33Z</time></trkpt><trkpt lat="39.275509950321656" lon="9.01673149264134"><ele>0.6666666666666666</ele><time>2026-04-10T08:07:34Z</time></trkpt><trkpt lat="39.27546233545051" lon="9.016444365507152"><ele>1.3333333333333333</ele><time>2026-04-10T08:07:35Z</time></trkpt><trkpt lat="39.27541834714695" lon="9.016163495499208"><ele>2.0</ele><time>2026-04-10T08:07:36Z</time></trkpt><trkpt lat="39.27538023879113" lon="9.015882102033137"><ele>2.0</ele><time>2026-04-10T08:07:37Z</time></trkpt><trkpt lat="39.27534316688933" lon="9.015601340183"><ele>2.0</ele><time>2026-04-10T08:07:38Z</time></trkpt><trkpt lat="39.275304861978135" lon="9.015329171663346"><ele>2.0</ele><time>2026-04-10T08:07:39Z</time></trkpt><trkpt lat="39.27526829427714" lon="9.015059870406091"><ele>2.333333333333333</ele><time>2026-04-10T08:07:40Z</time></trkpt><trkpt lat="39.275232845207135" lon="9.014794283422919"><ele>2.6666666666666665</ele><time>2026-04-10T08:07:41Z</time></trkpt><trkpt lat="39.27519722955264" lon="9.014530423264423"><ele>3.0</ele><time>2026-04-10T08:07:42Z</time></trkpt><trkpt lat="39.27516263246743" lon="9.0142736396768"><ele>2.0</ele><time>2026-04-10T08:07:43Z</time></trkpt><trkpt lat="39.27512961605726" lon="9.014029160459264"><ele>1.0</ele><time>2026-04-10T08:07:44Z</time></trkpt><trkpt lat="39.27509991274873" lon="9.013794494037453"><ele>0.0</ele><time>2026-04-10T08:07:45Z</time></trkpt><trkpt lat="39.27507002609653" lon="9.013561729026579"><ele>0.0</ele><time>2026-04-10T08:07:46Z</time></trkpt><trkpt lat="39.27504101577851" lon="9.013328676668813"><ele>0.0</ele><time>2026-04-10T08:07:47Z</time></trkpt><trkpt lat="39.275012937381376" lon="9.013097835160211"><ele>0.0</ele><time>2026-04-10T08:07:48Z</time></trkpt><trkpt lat="39.27499165415106" lon="9.012869163283082"><ele>0.0</ele><time>2026-04-10T08:07:49Z</time></trkpt><trkpt lat="39.27495831095955" lon="9.012635211624431"><ele>0.0</ele><time>2026-04-10T08:07:50Z</time></trkpt><trkpt lat="39.274925063686084" lon="9.012399759079923"><ele>0.0</ele><time>2026-04-10T08:07:51Z</time></trkpt><trkpt lat="39.27489429748168" lon="9.012162069734972"><ele>0.0</ele><time>2026-04-10T08:07:52Z</time></trkpt><trkpt lat="39.27486500522279" lon="9.011921234329046"><ele>0.0</ele><time>2026-04-10T08:07:53Z</time></trkpt><trkpt lat="39.274834656085616" lon="9.011677549905023"><ele>0.0</ele><time>2026-04-10T08:07:54Z</time></trkpt><trkpt lat="39.27480194702169" lon="9.011430496029082"><ele>-0.6666666666666666</ele><time>2026-04-10T08:07:55Z</time></trkpt><trkpt lat="39.274769060956785" lon="9.01118473980981"><ele>-1.3333333333333333</ele><time>2026-04-10T08:07:56Z</time></trkpt><trkpt lat="39.27473864378739" lon="9.01093925177334"><ele>-2.0</ele><time>2026-04-10T08:07:57Z</time></trkpt><trkpt lat="39.27470733909183" lon="9.010693180419477"><ele>-2.0</ele><time>2026-04-10T08:07:58Z</time></trkpt><trkpt lat="39.27467869098709" lon="9.010447680441839"><ele>-2.0</ele><time>2026-04-10T08:07:59Z</time></trkpt><trkpt lat="39.27464441985155" lon="9.01020337539776"><ele>-2.0</ele><time>2026-04-10T08:08:00Z</time></trkpt><trkpt lat="39.274609701564515" lon="9.0099564075299"><ele>-1.6666666666666665</ele><time>2026-04-10T08:08:01Z</time></trkpt><trkpt lat="39.27457760501174" lon="9.009703044444564"><ele>-1.3333333333333333</ele><time>2026-04-10T08:08:02Z</time></trkpt><trkpt lat="39.27454310863842" lon="9.009451968705388"><ele>-1.0</ele><time>2026-04-10T08:08:03Z</time></trkpt><trkpt lat="39.27450953581245" lon="9.009196695523066"><ele>-0.6666666666666666</ele><time>2026-04-10T08:08:04Z</time></trkpt><trkpt lat="39.27447617290696" lon="9.00894018632894"><ele>-0.3333333333333333</ele><time>2026-04-10T08:08:05Z</time></trkpt><trkpt lat="39.27444320029843" lon="9.00868253148401"><ele>0.0</ele><time>2026-04-10T08:08:06Z</time></trkpt><trkpt lat="39.27441024564349" lon="9.008431858735124"><ele>0.3333333333333333</ele><time>2026-04-10T08:08:07Z</time></trkpt><trkpt lat="39.27437889213972" lon="9.008182379152348"><ele>0.6666666666666666</ele><time>2026-04-10T08:08:08Z</time></trkpt><trkpt lat="39.27434637074765" lon="9.007939637415202"><ele>1.0</ele><time>2026-04-10T08:08:09Z</time></trkpt><trkpt lat="39.27431503977649" lon="9.007698835787052"><ele>1.0</ele><time>2026-04-10T08:08:10Z</time></trkpt><trkpt lat="39.274284634769145" lon="9.007457803403982"><ele>1.0</ele><time>2026-04-10T08:08:11Z</time></trkpt><trkpt lat="39.27425434640779" lon="9.007215119216506"><ele>1.0</ele><time>2026-04-10T08:08:12Z</time></trkpt><trkpt lat="39.2742244012421" lon="9.00697474361585"><ele>1.0</ele><time>2026-04-10T08:08:13Z</time></trkpt><trkpt lat="39.274192742912966" lon="9.006735712651459"><ele>1.0</ele><time>2026-04-10T08:08:14Z</time></trkpt><trkpt lat="39.274161779131894" lon="9.006494815421107"><ele>1.0</ele><time>2026-04-10T08:08:15Z</time></trkpt><trkpt lat="39.2741320031813" lon="9.006249201080283"><ele>0.6666666666666666</ele><time>2026-04-10T08:08:16Z</time></trkpt><trkpt lat="39.27410184658063" lon="9.006004127108625"><ele>0.3333333333333333</ele><time>2026-04-10T08:08:17Z</time></trkpt><trkpt lat="39.274071064599354" lon="9.005756393261407"><ele>0.0</ele><time>2026-04-10T08:08:18Z</time></trkpt><trkpt lat="39.27403827464884" lon="9.005514332015613"><ele>0.0</ele><time>2026-04-10T08:08:19Z</time></trkpt><trkpt lat="39.27400783907029" lon="9.005279426937365"><ele>0.0</ele><time>2026-04-10T08:08:20Z</time></trkpt><trkpt lat="39.27397848897596" lon="9.005059593747095"><ele>0.0</ele><time>2026-04-10T08:08:21Z</time></trkpt><trkpt lat="39.2739484993426" lon="9.004840142389885"><ele>0.6666666666666666</ele><time>2026-04-10T08:08:22Z</time></trkpt><trkpt lat="39.27392139381385" lon="9.004634878132482"><ele>1.3333333333333333</ele><time>2026-04-10T08:08:23Z</time></trkpt><trkpt lat="39.27389286621352" lon="9.004432159325583"><ele>2.0</ele><time>2026-04-10T08:08:24Z</time></trkpt><trkpt lat="39.27386509704354" lon="9.004226349072013"><ele>2.0</ele><time>2026-04-10T08:08:25Z</time></trkpt><trkpt lat="39.27383984066603" lon="9.004012856065382"><ele>2.0</ele><time>2026-04-10T08:08:26Z</time></trkpt><trkpt lat="39.273811117010695" lon="9.003792167715988"><ele>2.0</ele><time>2026-04-10T08:08:27Z</time></trkpt><trkpt lat="39.27378003141365" lon="9.003569920251554"><ele>2.0</ele><time>2026-04-10T08:08:28Z</time></trkpt><trkpt lat="39.273751366383294" lon="9.003354289573249"><ele>2.0</ele><time>2026-04-10T08:08:29Z</time></trkpt><trkpt lat="39.27372315802109" lon="9.003137532795995"><ele>2.0</ele><time>2026-04-10T08:08:30Z</time></trkpt><trkpt lat="39.273692033992" lon="9.002915142897674"><ele>1.6666666666666665</ele><time>2026-04-10T08:08:31Z</time></trkpt><trkpt lat="39.27366167588206" lon="9.002694205749066"><ele>1.3333333333333333</ele><time>2026-04-10T08:08:32Z</time></trkpt><trkpt lat="39.27363143815553" lon="9.00247069700945"><ele>1.0</ele><time>2026-04-10T08:08:33Z</time></trkpt><trkpt lat="39.27360103470577" lon="9.002244045441152"><ele>1.0</ele><time>2026-04-10T08:08:34Z</time></trkpt><trkpt lat="39.27356935554776" lon="9.002018137002347"><ele>1.0</ele><time>2026-04-10T08:08:35Z</time></trkpt><trkpt lat="39.273538916880106" lon="9.001791669289913"><ele>1.0</ele><time>2026-04-10T08:08:36Z</time></trkpt><trkpt lat="39.273509893031026" lon="9.001566841839335"><ele>1.3333333333333333</ele><time>2026-04-10T08:08:37Z</time></trkpt><trkpt lat="39.27347977178923" lon="9.001339505627678"><ele>1.6666666666666665</ele><time>2026-04-10T08:08:38Z</time></trkpt><trkpt lat="39.273449671138756" lon="9.001108786433344"><ele>2.0</ele><time>2026-04-10T08:08:39Z</time></trkpt><trkpt lat="39.2734189729382" lon="9.000882184011777"><ele>2.0</ele><time>2026-04-10T08:08:40Z</time></trkpt><trkpt lat="39.273389714896304" lon="9.000659631583936"><ele>2.0</ele><time>2026-04-10T08:08:41Z</time></trkpt><trkpt lat="39.27336185724483" lon="9.000441549769048"><ele>2.0</ele><time>2026-04-10T08:08:42Z</time></trkpt><trkpt lat="39.273333416323446" lon="9.000217073926251"><ele>2.0</ele><time>2026-04-10T08:08:43Z</time></trkpt><trkpt lat="39.273304862318575" lon="8.999996147169092"><ele>2.0</ele><time>2026-04-10T08:08:44Z</time></trkpt><trkpt lat="39.27327472531623" lon="8.999768767304635"><ele>2.0</ele><time>2026-04-10T08:08:45Z</time></trkpt><trkpt lat="39.27324483295293" lon="8.999545231152492"><ele>2.0</ele><time>2026-04-10T08:08:46Z</time></trkpt><trkpt lat="39.27321426231238" lon="8.999316624546427"><ele>2.0</ele><time>2026-04-10T08:08:47Z</time></trkpt><trkpt lat="39.27318639156844" lon="8.999088230745155"><ele>2.0</ele><time>2026-04-10T08:08:48Z</time></trkpt><trkpt lat="39.27315632032207" lon="8.998858618108935"><ele>1.3333333333333333</ele><time>2026-04-10T08:08:49Z</time></trkpt><trkpt lat="39.27312615965085" lon="8.998628126302249"><ele>0.6666666666666666</ele><time>2026-04-10T08:08:50.001Z</time></trkpt><trkpt lat="39.273097030516674" lon="8.998399251796872"><ele>0.0</ele><time>2026-04-10T08:08:51.001Z</time></trkpt><trkpt lat="39.273067160273854" lon="8.998172632293391"><ele>-0.3333333333333333</ele><time>2026-04-10T08:08:52.001Z</time></trkpt><trkpt lat="39.27303673530269" lon="8.99794022347839"><ele>-0.6666666666666666</ele><time>2026-04-10T08:08:53.001Z</time></trkpt><trkpt lat="39.27300515917616" lon="8.997704509021554"><ele>-1.0</ele><time>2026-04-10T08:08:54.001Z</time></trkpt><trkpt lat="39.272973674234294" lon="8.99746820857201"><ele>-1.0</ele><time>2026-04-10T08:08:55.001Z</time></trkpt><trkpt lat="39.27294374082265" lon="8.997226732640472"><ele>-1.0</ele><time>2026-04-10T08:08:56.001Z</time></trkpt><trkpt lat="39.272913404987776" lon="8.996985684086432"><ele>-1.0</ele><time>2026-04-10T08:08:57.001Z</time></trkpt><trkpt lat="39.272881557647324" lon="8.996742938235558"><ele>-0.6666666666666666</ele><time>2026-04-10T08:08:58.001Z</time></trkpt><trkpt lat="39.272847975787165" lon="8.996498566796072"><ele>-0.3333333333333333</ele><time>2026-04-10T08:08:59.001Z</time></trkpt><trkpt lat="39.27281697977425" lon="8.99625412938111"><ele>0.0</ele><time>2026-04-10T08:09:00.001Z</time></trkpt><trkpt lat="39.272784470019865" lon="8.996007807899508"><ele>0.6666666666666666</ele><time>2026-04-10T08:09:01.001Z</time></trkpt><trkpt lat="39.27274978090217" lon="8.995758755201878"><ele>1.3333333333333333</ele><time>2026-04-10T08:09:02.001Z</time></trkpt><trkpt lat="39.272714824685316" lon="8.995508189534346"><ele>2.0</ele><time>2026-04-10T08:09:03.001Z</time></trkpt><trkpt lat="39.27267857051836" lon="8.995255061444261"><ele>1.3333333333333333</ele><time>2026-04-10T08:09:04.001Z</time></trkpt><trkpt lat="39.27264596103441" lon="8.994998230038487"><ele>0.6666666666666666</ele><time>2026-04-10T08:09:05Z</time></trkpt><trkpt lat="39.27260881858511" lon="8.994726756234963"><ele>0.0</ele><time>2026-04-10T08:09:06Z</time></trkpt><trkpt lat="39.27257269491362" lon="8.994444816503673"><ele>0.3333333333333333</ele><time>2026-04-10T08:09:07Z</time></trkpt><trkpt lat="39.272535149026" lon="8.994169802085006"><ele>0.6666666666666666</ele><time>2026-04-10T08:09:08Z</time></trkpt><trkpt lat="39.272497729476015" lon="8.99388449170055"><ele>1.0</ele><time>2026-04-10T08:09:09Z</time></trkpt><trkpt lat="39.27246352593419" lon="8.993599383771077"><ele>0.6666666666666666</ele><time>2026-04-10T08:09:10Z</time></trkpt><trkpt lat="39.27242651075386" lon="8.993315414991772"><ele>0.3333333333333333</ele><time>2026-04-10T08:09:11Z</time></trkpt><trkpt lat="39.27238761796604" lon="8.993028917404201"><ele>0.0</ele><time>2026-04-10T08:09:12Z</time></trkpt><trkpt lat="39.272351237667266" lon="8.992738734484066"><ele>1.0</ele><time>2026-04-10T08:09:13Z</time></trkpt><trkpt lat="39.27231338418768" lon="8.99245091217009"><ele>2.0</ele><time>2026-04-10T08:09:14Z</time></trkpt><trkpt lat="39.27227519643889" lon="8.99215954495191"><ele>1.5</ele><time>2026-04-10T08:09:15Z</time></trkpt><trkpt lat="39.272237541357214" lon="8.99186929066653"><ele>1.0</ele><time>2026-04-10T08:09:16Z</time></trkpt><trkpt lat="39.27219697474843" lon="8.991577413006993"><ele>1.0</ele><time>2026-04-10T08:09:17Z</time></trkpt><trkpt lat="39.272158151470734" lon="8.991288860290826"><ele>1.0</ele><time>2026-04-10T08:09:18Z</time></trkpt><trkpt lat="39.27212043559344" lon="8.991003498217724"><ele>1.0</ele><time>2026-04-10T08:09:19Z</time></trkpt><trkpt lat="39.27208094578848" lon="8.99071532395431"><ele>1.0</ele><time>2026-04-10T08:09:20Z</time></trkpt><trkpt lat="39.27204554675568" lon="8.990426916040477"><ele>1.0</ele><time>2026-04-10T08:09:21Z</time></trkpt><trkpt lat="39.27200786511125" lon="8.990139369141275"><ele>1.0</ele><time>2026-04-10T08:09:22Z</time></trkpt><trkpt lat="39.271973140061334" lon="8.989849641273745"><ele>2.0</ele><time>2026-04-10T08:09:23Z</time></trkpt><trkpt lat="39.27193773005786" lon="8.989558861787769"><ele>3.0</ele><time>2026-04-10T08:09:24Z</time></trkpt><trkpt lat="39.27190065403396" lon="8.989267423304302"><ele>2.5</ele><time>2026-04-10T08:09:25Z</time></trkpt><trkpt lat="39.27186343771341" lon="8.98897404779414"><ele>2.0</ele><time>2026-04-10T08:09:26Z</time></trkpt><trkpt lat="39.27182477626914" lon="8.988676440747508"><ele>2.0</ele><time>2026-04-10T08:09:27Z</time></trkpt><trkpt lat="39.27178653825642" lon="8.98837630410614"><ele>2.0</ele><time>2026-04-10T08:09:28Z</time></trkpt><trkpt lat="39.27174693630273" lon="8.988074410610688"><ele>1.5</ele><time>2026-04-10T08:09:29Z</time></trkpt><trkpt lat="39.27170662763823" lon="8.987772220962574"><ele>1.0</ele><time>2026-04-10T08:09:30Z</time></trkpt><trkpt lat="39.27166643840543" lon="8.987465701409361"><ele>0.5</ele><time>2026-04-10T08:09:31Z</time></trkpt><trkpt lat="39.27162685817359" lon="8.987159042541093"><ele>0.0</ele><time>2026-04-10T08:09:32Z</time></trkpt><trkpt lat="39.2715849845784" lon="8.986853153828276"><ele>-0.5</ele><time>2026-04-10T08:09:33Z</time></trkpt><trkpt lat="39.27154513589895" lon="8.986544942890916"><ele>-1.0</ele><time>2026-04-10T08:09:34Z</time></trkpt><trkpt lat="39.2715059869971" lon="8.986237119917956"><ele>-1.0</ele><time>2026-04-10T08:09:35Z</time></trkpt><trkpt lat="39.27146558827556" lon="8.985930345664206"><ele>-1.0</ele><time>2026-04-10T08:09:36Z</time></trkpt><trkpt lat="39.27142424206174" lon="8.985624061027526"><ele>-1.0</ele><time>2026-04-10T08:09:37Z</time></trkpt><trkpt lat="39.27138525987522" lon="8.985319010687306"><ele>-1.0</ele><time>2026-04-10T08:09:38Z</time></trkpt><trkpt lat="39.27134370551172" lon="8.985011221498889"><ele>-0.5</ele><time>2026-04-10T08:09:39Z</time></trkpt><trkpt lat="39.27130486845047" lon="8.984704677474383"><ele>0.0</ele><time>2026-04-10T08:09:40Z</time></trkpt><trkpt lat="39.27126166951021" lon="8.984401266653046"><ele>-1.0</ele><time>2026-04-10T08:09:41Z</time></trkpt><trkpt lat="39.27122190921871" lon="8.984094291893998"><ele>-2.0</ele><time>2026-04-10T08:09:42Z</time></trkpt><trkpt lat="39.27118355967386" lon="8.983788807122668"><ele>-2.0</ele><time>2026-04-10T08:09:43Z</time></trkpt><trkpt lat="39.271145653461936" lon="8.983493568132575"><ele>-2.0</ele><time>2026-04-10T08:09:44Z</time></trkpt><trkpt lat="39.27110793226249" lon="8.983205083418504"><ele>-1.5</ele><time>2026-04-10T08:09:45Z</time></trkpt><trkpt lat="39.27106811430023" lon="8.982918329904317"><ele>-1.0</ele><time>2026-04-10T08:09:46Z</time></trkpt><trkpt lat="39.27103068926347" lon="8.982631259174966"><ele>-0.6666666666666666</ele><time>2026-04-10T08:09:47Z</time></trkpt><trkpt lat="39.27099473432964" lon="8.9823490699987"><ele>-0.3333333333333333</ele><time>2026-04-10T08:09:48Z</time></trkpt><trkpt lat="39.27095645365391" lon="8.982065367037432"><ele>0.0</ele><time>2026-04-10T08:09:49Z</time></trkpt><trkpt lat="39.27091995010687" lon="8.98178555587239"><ele>0.3333333333333333</ele><time>2026-04-10T08:09:50Z</time></trkpt><trkpt lat="39.270883226698146" lon="8.981508613463841"><ele>0.6666666666666666</ele><time>2026-04-10T08:09:51Z</time></trkpt><trkpt lat="39.27084736980323" lon="8.981233401472785"><ele>1.0</ele><time>2026-04-10T08:09:52Z</time></trkpt><trkpt lat="39.270811345090706" lon="8.980960202410296"><ele>1.0</ele><time>2026-04-10T08:09:53Z</time></trkpt><trkpt lat="39.27077416245674" lon="8.980681297047957"><ele>1.0</ele><time>2026-04-10T08:09:54Z</time></trkpt><trkpt lat="39.27073688637946" lon="8.980400456329978"><ele>1.0</ele><time>2026-04-10T08:09:55Z</time></trkpt><trkpt lat="39.27069790456632" lon="8.980116823808583"><ele>0.5</ele><time>2026-04-10T08:09:56Z</time></trkpt><trkpt lat="39.27065962058591" lon="8.97983031514442"><ele>0.0</ele><time>2026-04-10T08:09:57Z</time></trkpt><trkpt lat="39.270621125137765" lon="8.979543643445716"><ele>0.5</ele><time>2026-04-10T08:09:58Z</time></trkpt><trkpt lat="39.270582493607044" lon="8.97925216596427"><ele>1.0</ele><time>2026-04-10T08:09:59Z</time></trkpt><trkpt lat="39.27054309990131" lon="8.978958850467206"><ele>1.5</ele><time>2026-04-10T08:10:00Z</time></trkpt><trkpt lat="39.27050377050719" lon="8.978665358240807"><ele>2.0</ele><time>2026-04-10T08:10:01Z</time></trkpt><trkpt lat="39.27046431984092" lon="8.978366421863399"><ele>1.0</ele><time>2026-04-10T08:10:02Z</time></trkpt><trkpt lat="39.27042365347888" lon="8.978066568680362"><ele>0.0</ele><time>2026-04-10T08:10:03Z</time></trkpt><trkpt lat="39.270384997326865" lon="8.977762391699954"><ele>-1.0</ele><time>2026-04-10T08:10:04Z</time></trkpt><trkpt lat="39.270343587825096" lon="8.977455751209405"><ele>-2.0</ele><time>2026-04-10T08:10:05Z</time></trkpt><trkpt lat="39.27030346060543" lon="8.977148433574111"><ele>-2.0</ele><time>2026-04-10T08:10:06Z</time></trkpt><trkpt lat="39.27026415061587" lon="8.976841582070518"><ele>-2.0</ele><time>2026-04-10T08:10:07Z</time></trkpt><trkpt lat="39.27022336224185" lon="8.976533991911237"><ele>-1.5</ele><time>2026-04-10T08:10:08Z</time></trkpt><trkpt lat="39.27018244780786" lon="8.976220356354856"><ele>-1.0</ele><time>2026-04-10T08:10:09Z</time></trkpt><trkpt lat="39.27014017492599" lon="8.975903296833577"><ele>-0.5</ele><time>2026-04-10T08:10:10Z</time></trkpt><trkpt lat="39.27009836768043" lon="8.975582963820177"><ele>0.0</ele><time>2026-04-10T08:10:11Z</time></trkpt><trkpt lat="39.27005581689469" lon="8.975259670094411"><ele>-0.5</ele><time>2026-04-10T08:10:12Z</time></trkpt><trkpt lat="39.270015488028335" lon="8.974936548616018"><ele>-1.0</ele><time>2026-04-10T08:10:13Z</time></trkpt><trkpt lat="39.269973189416234" lon="8.974607467830058"><ele>-1.0</ele><time>2026-04-10T08:10:14Z</time></trkpt><trkpt lat="39.2699288268237" lon="8.97427790875845"><ele>-1.0</ele><time>2026-04-10T08:10:15Z</time></trkpt><trkpt lat="39.2698838987353" lon="8.973944935997876"><ele>0.0</ele><time>2026-04-10T08:10:16Z</time></trkpt><trkpt lat="39.269838593534814" lon="8.973611215075023"><ele>1.0</ele><time>2026-04-10T08:10:17Z</time></trkpt><trkpt lat="39.26979342231087" lon="8.973271139903053"><ele>0.5</ele><time>2026-04-10T08:10:18Z</time></trkpt><trkpt lat="39.26975008316666" lon="8.97293196193608"><ele>0.0</ele><time>2026-04-10T08:10:19Z</time></trkpt><trkpt lat="39.26970347982483" lon="8.972595817138696"><ele>0.0</ele><time>2026-04-10T08:10:20Z</time></trkpt><trkpt lat="39.26965775699856" lon="8.97226724454023"><ele>0.0</ele><time>2026-04-10T08:10:21Z</time></trkpt><trkpt lat="39.26961204662281" lon="8.971936395953719"><ele>-0.5</ele><time>2026-04-10T08:10:22Z</time></trkpt><trkpt lat="39.269566204837716" lon="8.971605744501783"><ele>-1.0</ele><time>2026-04-10T08:10:23Z</time></trkpt><trkpt lat="39.26951679101084" lon="8.971275447511617"><ele>-1.0</ele><time>2026-04-10T08:10:24Z</time></trkpt><trkpt lat="39.26946451084439" lon="8.970946076626918"><ele>-1.0</ele><time>2026-04-10T08:10:25Z</time></trkpt><trkpt lat="39.26940936720399" lon="8.97061650230587"><ele>-1.0</ele><time>2026-04-10T08:10:26Z</time></trkpt><trkpt lat="39.26934939372191" lon="8.970287952912585"><ele>-1.0</ele><time>2026-04-10T08:10:27Z</time></trkpt><trkpt lat="39.26928743375754" lon="8.969966934060922"><ele>-1.0</ele><time>2026-04-10T08:10:28Z</time></trkpt><trkpt lat="39.269221861493904" lon="8.969646486658641"><ele>-1.0</ele><time>2026-04-10T08:10:29Z</time></trkpt><trkpt lat="39.26915416865295" lon="8.96932861952938"><ele>-0.5</ele><time>2026-04-10T08:10:30Z</time></trkpt><trkpt lat="39.269078425577824" lon="8.969018203517825"><ele>0.0</ele><time>2026-04-10T08:10:31Z</time></trkpt><trkpt lat="39.26899768391065" lon="8.968712112937414"><ele>1.0</ele><time>2026-04-10T08:10:32Z</time></trkpt><trkpt lat="39.26892020991022" lon="8.968402081911176"><ele>2.0</ele><time>2026-04-10T08:10:33Z</time></trkpt><trkpt lat="39.2688375473134" lon="8.968095052794016"><ele>2.0</ele><time>2026-04-10T08:10:34Z</time></trkpt><trkpt lat="39.268749149788135" lon="8.96779235315777"><ele>2.0</ele><time>2026-04-10T08:10:35Z</time></trkpt><trkpt lat="39.26865688974852" lon="8.967489783508164"><ele>1.5</ele><time>2026-04-10T08:10:36Z</time></trkpt><trkpt lat="39.26856220529526" lon="8.96718795370446"><ele>1.0</ele><time>2026-04-10T08:10:37Z</time></trkpt><trkpt lat="39.268470756389426" lon="8.96688708413008"><ele>2.0</ele><time>2026-04-10T08:10:38Z</time></trkpt><trkpt lat="39.26838254714234" lon="8.96659236156215"><ele>3.0</ele><time>2026-04-10T08:10:39Z</time></trkpt><trkpt lat="39.268300889474865" lon="8.966314462725164"><ele>3.0</ele><time>2026-04-10T08:10:40Z</time></trkpt><trkpt lat="39.268227318758186" lon="8.96606746516499"><ele>3.0</ele><time>2026-04-10T08:10:41Z</time></trkpt><trkpt lat="39.26816076404037" lon="8.965840756049102"><ele>3.0</ele><time>2026-04-10T08:10:42Z</time></trkpt><trkpt lat="39.26809487195992" lon="8.965625156824627"><ele>2.3333333333333335</ele><time>2026-04-10T08:10:43Z</time></trkpt><trkpt lat="39.268030880253335" lon="8.965416310161743"><ele>1.6666666666666665</ele><time>2026-04-10T08:10:44Z</time></trkpt><trkpt lat="39.26797260280012" lon="8.965217359299217"><ele>1.0</ele><time>2026-04-10T08:10:45Z</time></trkpt><trkpt lat="39.267918506598384" lon="8.96502625890791"><ele>1.0</ele><time>2026-04-10T08:10:46.001Z</time></trkpt><trkpt lat="39.2678641488751" lon="8.964845458769336"><ele>1.0</ele><time>2026-04-10T08:10:47.001Z</time></trkpt><trkpt lat="39.26781303381605" lon="8.964678171098113"><ele>1.0</ele><time>2026-04-10T08:10:48.001Z</time></trkpt><trkpt lat="39.26776578060496" lon="8.964522858037292"><ele>1.0</ele><time>2026-04-10T08:10:49.001Z</time></trkpt><trkpt lat="39.26772550864901" lon="8.96438356092058"><ele>1.0</ele><time>2026-04-10T08:10:50.001Z</time></trkpt><trkpt lat="39.26768951034845" lon="8.964253533844813"><ele>1.0</ele><time>2026-04-10T08:10:51.001Z</time></trkpt><trkpt lat="39.26765916867667" lon="8.964129481783244"><ele>1.0</ele><time>2026-04-10T08:10:52.001Z</time></trkpt><trkpt lat="39.26762686415229" lon="8.96399448324764"><ele>1.0</ele><time>2026-04-10T08:10:53.001Z</time></trkpt><trkpt lat="39.267580227536804" lon="8.96384172855367"><ele>1.0</ele><time>2026-04-10T08:10:54.001Z</time></trkpt><trkpt lat="39.26751759145551" lon="8.963673191795637"><ele>1.0</ele><time>2026-04-10T08:10:55.001Z</time></trkpt><trkpt lat="39.267450605020734" lon="8.963491117087385"><ele>1.0</ele><time>2026-04-10T08:10:56.001Z</time></trkpt><trkpt lat="39.26738877403744" lon="8.963315492915875"><ele>1.0</ele><time>2026-04-10T08:10:57.001Z</time></trkpt><trkpt lat="39.267337529403136" lon="8.963156175005572"><ele>1.0</ele><time>2026-04-10T08:10:58.001Z</time></trkpt><trkpt lat="39.26729421056094" lon="8.963010113741216"><ele>1.2000000000000002</ele><time>2026-04-10T08:10:59.001Z</time></trkpt><trkpt lat="39.26725303033384" lon="8.962879218558378"><ele>1.4000000000000001</ele><time>2026-04-10T08:11:00.001Z</time></trkpt><trkpt lat="39.267213739333975" lon="8.962758180149576"><ele>1.6</ele><time>2026-04-10T08:11:01.001Z</time></trkpt><trkpt lat="39.26717469001539" lon="8.962645226216482"><ele>1.8</ele><time>2026-04-10T08:11:02.001Z</time></trkpt><trkpt lat="39.26714013047076" lon="8.962531095643651"><ele>2.0</ele><time>2026-04-10T08:11:03.001Z</time></trkpt><trkpt lat="39.26710058795525" lon="8.962406725160944"><ele>2.0</ele><time>2026-04-10T08:11:04.001Z</time></trkpt><trkpt lat="39.26705447089729" lon="8.962270571070482"><ele>2.0</ele><time>2026-04-10T08:11:05.001Z</time></trkpt><trkpt lat="39.26701134022629" lon="8.9621340978535"><ele>2.0</ele><time>2026-04-10T08:11:06.001Z</time></trkpt><trkpt lat="39.266974829897684" lon="8.961996706193867"><ele>2.0</ele><time>2026-04-10T08:11:07.001Z</time></trkpt><trkpt lat="39.26693177104669" lon="8.961845769528335"><ele>2.333333333333333</ele><time>2026-04-10T08:11:08.001Z</time></trkpt><trkpt lat="39.26688175828095" lon="8.961678964950877"><ele>2.6666666666666665</ele><time>2026-04-10T08:11:09.001Z</time></trkpt><trkpt lat="39.26682754443592" lon="8.961499961441481"><ele>3.0</ele><time>2026-04-10T08:11:10.001Z</time></trkpt><trkpt lat="39.266754388072535" lon="8.961258916724931"><ele>3.0</ele><time>2026-04-10T08:11:11Z</time></trkpt><trkpt lat="39.266664260908165" lon="8.960968789137858"><ele>3.0</ele><time>2026-04-10T08:11:12Z</time></trkpt><trkpt lat="39.26656274387966" lon="8.960644880510536"><ele>3.0</ele><time>2026-04-10T08:11:13Z</time></trkpt><trkpt lat="39.26645465171438" lon="8.960298100099227"><ele>3.0</ele><time>2026-04-10T08:11:14Z</time></trkpt><trkpt lat="39.266342843822976" lon="8.95994910832806"><ele>3.0</ele><time>2026-04-10T08:11:15Z</time></trkpt><trkpt lat="39.26624424499001" lon="8.959627476035145"><ele>3.0</ele><time>2026-04-10T08:11:16Z</time></trkpt><trkpt lat="39.266148641383744" lon="8.959317176195013"><ele>3.5</ele><time>2026-04-10T08:11:17Z</time></trkpt><trkpt lat="39.26605591910315" lon="8.959023208009492"><ele>4.0</ele><time>2026-04-10T08:11:18Z</time></trkpt><trkpt lat="39.26598498339456" lon="8.958727583472063"><ele>4.0</ele><time>2026-04-10T08:11:19Z</time></trkpt><trkpt lat="39.265885265322375" lon="8.958458961534868"><ele>4.0</ele><time>2026-04-10T08:11:20Z</time></trkpt><trkpt lat="39.26580058753247" lon="8.958181209363122"><ele>4.5</ele><time>2026-04-10T08:11:21Z</time></trkpt><trkpt lat="39.26573015252067" lon="8.957888925676741"><ele>5.0</ele><time>2026-04-10T08:11:22Z</time></trkpt><trkpt lat="39.26564415796083" lon="8.957598026470517"><ele>5.5</ele><time>2026-04-10T08:11:23Z</time></trkpt><trkpt lat="39.2655554708385" lon="8.957305379956379"><ele>6.0</ele><time>2026-04-10T08:11:24Z</time></trkpt><trkpt lat="39.26545186700643" lon="8.957016536701424"><ele>6.0</ele><time>2026-04-10T08:11:25Z</time></trkpt><trkpt lat="39.265366424675676" lon="8.956731638289936"><ele>6.0</ele><time>2026-04-10T08:11:26Z</time></trkpt><trkpt lat="39.265283080534175" lon="8.956450591899875"><ele>5.5</ele><time>2026-04-10T08:11:27Z</time></trkpt><trkpt lat="39.2651979143401" lon="8.956167329834365"><ele>5.0</ele><time>2026-04-10T08:11:28Z</time></trkpt><trkpt lat="39.265112685443704" lon="8.955887485649917"><ele>5.5</ele><time>2026-04-10T08:11:29Z</time></trkpt><trkpt lat="39.26502706441201" lon="8.955608735515574"><ele>6.0</ele><time>2026-04-10T08:11:30Z</time></trkpt><trkpt lat="39.26494058985183" lon="8.955333018646026"><ele>6.0</ele><time>2026-04-10T08:11:31Z</time></trkpt><trkpt lat="39.264858035797225" lon="8.95505992957483"><ele>6.0</ele><time>2026-04-10T08:11:32Z</time></trkpt><trkpt lat="39.2647750950793" lon="8.954785149305975"><ele>6.5</ele><time>2026-04-10T08:11:33Z</time></trkpt><trkpt lat="39.26469209648976" lon="8.95450950895652"><ele>7.0</ele><time>2026-04-10T08:11:34Z</time></trkpt><trkpt lat="39.26461212251588" lon="8.954234011110845"><ele>7.0</ele><time>2026-04-10T08:11:35Z</time></trkpt><trkpt lat="39.26453500455514" lon="8.953974398324698"><ele>7.0</ele><time>2026-04-10T08:11:36Z</time></trkpt><trkpt lat="39.264461452854604" lon="8.953735558957366"><ele>7.0</ele><time>2026-04-10T08:11:37Z</time></trkpt><trkpt lat="39.26438994571757" lon="8.95350063558625"><ele>7.666666666666667</ele><time>2026-04-10T08:11:38Z</time></trkpt><trkpt lat="39.26431423159837" lon="8.953250418103847"><ele>8.333333333333334</ele><time>2026-04-10T08:11:39Z</time></trkpt><trkpt lat="39.26423335974633" lon="8.952985226620303"><ele>9.0</ele><time>2026-04-10T08:11:40Z</time></trkpt><trkpt lat="39.26415259282478" lon="8.952712313715846"><ele>9.0</ele><time>2026-04-10T08:11:41Z</time></trkpt><trkpt lat="39.26407001123244" lon="8.952442955148644"><ele>9.0</ele><time>2026-04-10T08:11:42Z</time></trkpt><trkpt lat="39.26398496880558" lon="8.952171631426003"><ele>9.0</ele><time>2026-04-10T08:11:43Z</time></trkpt><trkpt lat="39.263900454240165" lon="8.951890615397554"><ele>9.0</ele><time>2026-04-10T08:11:44Z</time></trkpt><trkpt lat="39.26380920650619" lon="8.95158707839873"><ele>9.0</ele><time>2026-04-10T08:11:45Z</time></trkpt><trkpt lat="39.26372302284217" lon="8.951295764172796"><ele>9.0</ele><time>2026-04-10T08:11:46Z</time></trkpt><trkpt lat="39.26364140938925" lon="8.951027561470022"><ele>9.5</ele><time>2026-04-10T08:11:47Z</time></trkpt><trkpt lat="39.26356200708819" lon="8.950760271741734"><ele>10.0</ele><time>2026-04-10T08:11:48Z</time></trkpt><trkpt lat="39.26347928244804" lon="8.950484975187885"><ele>10.0</ele><time>2026-04-10T08:11:49Z</time></trkpt><trkpt lat="39.26339279260572" lon="8.950204851232888"><ele>10.0</ele><time>2026-04-10T08:11:50Z</time></trkpt><trkpt lat="39.2633068218035" lon="8.949925086073744"><ele>11.0</ele><time>2026-04-10T08:11:51Z</time></trkpt><trkpt lat="39.26322030583781" lon="8.949640819671078"><ele>12.0</ele><time>2026-04-10T08:11:52Z</time></trkpt><trkpt lat="39.263135467333015" lon="8.94935924272746"><ele>13.0</ele><time>2026-04-10T08:11:53Z</time></trkpt><trkpt lat="39.26304788275935" lon="8.949078016011732"><ele>14.0</ele><time>2026-04-10T08:11:54Z</time></trkpt><trkpt lat="39.26296187558702" lon="8.948800228355188"><ele>14.0</ele><time>2026-04-10T08:11:55Z</time></trkpt><trkpt lat="39.262877934808465" lon="8.948521605644418"><ele>14.0</ele><time>2026-04-10T08:11:56Z</time></trkpt><trkpt lat="39.26279553330601" lon="8.948244712382872"><ele>13.5</ele><time>2026-04-10T08:11:57Z</time></trkpt><trkpt lat="39.26271229000626" lon="8.947968839657086"><ele>13.0</ele><time>2026-04-10T08:11:58Z</time></trkpt><trkpt lat="39.262630247391556" lon="8.947697050043901"><ele>13.0</ele><time>2026-04-10T08:11:59Z</time></trkpt><trkpt lat="39.262552604543295" lon="8.947438542310664"><ele>13.0</ele><time>2026-04-10T08:12:00Z</time></trkpt><trkpt lat="39.26247539539458" lon="8.947183224666052"><ele>13.0</ele><time>2026-04-10T08:12:01Z</time></trkpt><trkpt lat="39.262396276324374" lon="8.946928242827076"><ele>13.0</ele><time>2026-04-10T08:12:02Z</time></trkpt><trkpt lat="39.262320366608584" lon="8.946674549849162"><ele>13.0</ele><time>2026-04-10T08:12:03Z</time></trkpt><trkpt lat="39.26224442470787" lon="8.946418041462922"><ele>13.0</ele><time>2026-04-10T08:12:04Z</time></trkpt><trkpt lat="39.2621673863551" lon="8.94615819484759"><ele>13.666666666666666</ele><time>2026-04-10T08:12:05Z</time></trkpt><trkpt lat="39.262090149327314" lon="8.94590034870858"><ele>14.333333333333332</ele><time>2026-04-10T08:12:06Z</time></trkpt><trkpt lat="39.26201079093276" lon="8.945640491896976"><ele>15.0</ele><time>2026-04-10T08:12:07Z</time></trkpt><trkpt lat="39.26192724393816" lon="8.945366913884216"><ele>15.5</ele><time>2026-04-10T08:12:08Z</time></trkpt><trkpt lat="39.26184506253483" lon="8.945092764227926"><ele>16.0</ele><time>2026-04-10T08:12:09Z</time></trkpt><trkpt lat="39.26176138812041" lon="8.944818905164977"><ele>16.0</ele><time>2026-04-10T08:12:10Z</time></trkpt><trkpt lat="39.26167759930124" lon="8.94454690266797"><ele>16.0</ele><time>2026-04-10T08:12:11Z</time></trkpt><trkpt lat="39.26159126706672" lon="8.944264515078906"><ele>16.0</ele><time>2026-04-10T08:12:12Z</time></trkpt><trkpt lat="39.261506204554735" lon="8.943979535223878"><ele>16.0</ele><time>2026-04-10T08:12:13Z</time></trkpt><trkpt lat="39.26142101193642" lon="8.943695948399174"><ele>17.0</ele><time>2026-04-10T08:12:14Z</time></trkpt><trkpt lat="39.2613354158875" lon="8.943415297486048"><ele>18.0</ele><time>2026-04-10T08:12:15Z</time></trkpt><trkpt lat="39.26125026659538" lon="8.94313460107581"><ele>18.0</ele><time>2026-04-10T08:12:16Z</time></trkpt><trkpt lat="39.26116311102257" lon="8.942852714009037"><ele>18.0</ele><time>2026-04-10T08:12:17Z</time></trkpt><trkpt lat="39.26107483552268" lon="8.942566265724341"><ele>18.0</ele><time>2026-04-10T08:12:18Z</time></trkpt><trkpt lat="39.26098437533458" lon="8.942272147871927"><ele>18.0</ele><time>2026-04-10T08:12:19Z</time></trkpt><trkpt lat="39.2608928811498" lon="8.941985439755017"><ele>19.0</ele><time>2026-04-10T08:12:20Z</time></trkpt><trkpt lat="39.260805892532865" lon="8.941696309725273"><ele>20.0</ele><time>2026-04-10T08:12:21Z</time></trkpt><trkpt lat="39.26072070557924" lon="8.941405387790507"><ele>20.0</ele><time>2026-04-10T08:12:22Z</time></trkpt><trkpt lat="39.26063380426145" lon="8.94111413391915"><ele>20.0</ele><time>2026-04-10T08:12:23Z</time></trkpt><trkpt lat="39.26054748584366" lon="8.940827625216656"><ele>20.5</ele><time>2026-04-10T08:12:24Z</time></trkpt><trkpt lat="39.260460012247854" lon="8.940540185113525"><ele>21.0</ele><time>2026-04-10T08:12:25Z</time></trkpt><trkpt lat="39.260371474255045" lon="8.9402564449111"><ele>22.0</ele><time>2026-04-10T08:12:26Z</time></trkpt><trkpt lat="39.26028536654537" lon="8.939978421210053"><ele>23.0</ele><time>2026-04-10T08:12:27Z</time></trkpt><trkpt lat="39.26020198757442" lon="8.939705140738031"><ele>23.0</ele><time>2026-04-10T08:12:28Z</time></trkpt><trkpt lat="39.260122677183034" lon="8.939441748605844"><ele>23.0</ele><time>2026-04-10T08:12:29Z</time></trkpt><trkpt lat="39.2600477420498" lon="8.939192292360437"><ele>23.0</ele><time>2026-04-10T08:12:30Z</time></trkpt><trkpt lat="39.25997465722414" lon="8.938946832825364"><ele>22.666666666666668</ele><time>2026-04-10T08:12:31Z</time></trkpt><trkpt lat="39.259896240890555" lon="8.938693203076403"><ele>22.333333333333332</ele><time>2026-04-10T08:12:32Z</time></trkpt><trkpt lat="39.25981379245627" lon="8.938429227405173"><ele>22.0</ele><time>2026-04-10T08:12:33Z</time></trkpt><trkpt lat="39.25972911796004" lon="8.938164973613274"><ele>23.5</ele><time>2026-04-10T08:12:34Z</time></trkpt><trkpt lat="39.259642435490434" lon="8.937893057484969"><ele>25.0</ele><time>2026-04-10T08:12:35Z</time></trkpt><trkpt lat="39.25954999886501" lon="8.937621295088734"><ele>25.5</ele><time>2026-04-10T08:12:36Z</time></trkpt><trkpt lat="39.25945104088211" lon="8.937349878948158"><ele>26.0</ele><time>2026-04-10T08:12:37Z</time></trkpt><trkpt lat="39.25934947365086" lon="8.93707478529304"><ele>26.0</ele><time>2026-04-10T08:12:38Z</time></trkpt><trkpt lat="39.25924961433789" lon="8.936802694588792"><ele>26.0</ele><time>2026-04-10T08:12:39Z</time></trkpt><trkpt lat="39.25914963023146" lon="8.936531218024623"><ele>27.5</ele><time>2026-04-10T08:12:40Z</time></trkpt><trkpt lat="39.25905221221977" lon="8.936259811437402"><ele>29.0</ele><time>2026-04-10T08:12:41Z</time></trkpt><trkpt lat="39.25895190999099" lon="8.935995045045237"><ele>29.333333333333332</ele><time>2026-04-10T08:12:42Z</time></trkpt><trkpt lat="39.25885099484526" lon="8.935730452906133"><ele>29.666666666666664</ele><time>2026-04-10T08:12:43Z</time></trkpt><trkpt lat="39.25875688145034" lon="8.935479904690572"><ele>30.0</ele><time>2026-04-10T08:12:44Z</time></trkpt><trkpt lat="39.25866345163308" lon="8.935241266317744"><ele>30.0</ele><time>2026-04-10T08:12:45Z</time></trkpt><trkpt lat="39.25857236181698" lon="8.93500640681217"><ele>30.0</ele><time>2026-04-10T08:12:46Z</time></trkpt><trkpt lat="39.25848536042727" lon="8.934765490872163"><ele>30.0</ele><time>2026-04-10T08:12:47Z</time></trkpt><trkpt lat="39.25839764557371" lon="8.934526221359052"><ele>30.0</ele><time>2026-04-10T08:12:48Z</time></trkpt><trkpt lat="39.25831048666138" lon="8.934282813643136"><ele>30.0</ele><time>2026-04-10T08:12:49Z</time></trkpt><trkpt lat="39.25822000913087" lon="8.934040519282147"><ele>30.0</ele><time>2026-04-10T08:12:50Z</time></trkpt><trkpt lat="39.25812467477323" lon="8.933795139694768"><ele>31.0</ele><time>2026-04-10T08:12:51Z</time></trkpt><trkpt lat="39.25802860338302" lon="8.933544324134312"><ele>32.0</ele><time>2026-04-10T08:12:52Z</time></trkpt><trkpt lat="39.25793312622137" lon="8.933288562488741"><ele>33.0</ele><time>2026-04-10T08:12:53Z</time></trkpt><trkpt lat="39.25783705684726" lon="8.933031425389146"><ele>33.0</ele><time>2026-04-10T08:12:54Z</time></trkpt><trkpt lat="39.25774018288503" lon="8.932771489122524"><ele>33.0</ele><time>2026-04-10T08:12:55Z</time></trkpt><trkpt lat="39.25764071945592" lon="8.932510356422794"><ele>33.0</ele><time>2026-04-10T08:12:56Z</time></trkpt><trkpt lat="39.25754454397882" lon="8.9322511892009"><ele>33.0</ele><time>2026-04-10T08:12:57Z</time></trkpt><trkpt lat="39.25744990638101" lon="8.931996193021519"><ele>33.0</ele><time>2026-04-10T08:12:58Z</time></trkpt><trkpt lat="39.25735983458261" lon="8.931750967588457"><ele>33.0</ele><time>2026-04-10T08:12:59Z</time></trkpt><trkpt lat="39.25727636486122" lon="8.931523891925476"><ele>33.0</ele><time>2026-04-10T08:13:00Z</time></trkpt><trkpt lat="39.25719815706349" lon="8.93130748576835"><ele>33.0</ele><time>2026-04-10T08:13:01Z</time></trkpt><trkpt lat="39.25712321189075" lon="8.931104705800282"><ele>33.0</ele><time>2026-04-10T08:13:02Z</time></trkpt><trkpt lat="39.257048286803915" lon="8.930909162964866"><ele>33.0</ele><time>2026-04-10T08:13:03Z</time></trkpt><trkpt lat="39.256973002381" lon="8.930717672719432"><ele>33.0</ele><time>2026-04-10T08:13:04Z</time></trkpt><trkpt lat="39.25689703989173" lon="8.930510046734652"><ele>33.0</ele><time>2026-04-10T08:13:05Z</time></trkpt><trkpt lat="39.256810106665284" lon="8.930279779033626"><ele>33.333333333333336</ele><time>2026-04-10T08:13:06Z</time></trkpt><trkpt lat="39.25671699742311" lon="8.930028908744902"><ele>33.66666666666667</ele><time>2026-04-10T08:13:07Z</time></trkpt><trkpt lat="39.25661775509323" lon="8.929767500270477"><ele>34.0</ele><time>2026-04-10T08:13:08Z</time></trkpt><trkpt lat="39.25651148969962" lon="8.929487866903111"><ele>35.0</ele><time>2026-04-10T08:13:09Z</time></trkpt><trkpt lat="39.25641202221" lon="8.929221276708152"><ele>36.0</ele><time>2026-04-10T08:13:10Z</time></trkpt><trkpt lat="39.25631466523986" lon="8.928968029753623"><ele>37.0</ele><time>2026-04-10T08:13:11Z</time></trkpt><trkpt lat="39.25622392761193" lon="8.928729868620945"><ele>37.0</ele><time>2026-04-10T08:13:12Z</time></trkpt><trkpt lat="39.25613824340615" lon="8.928501466695307"><ele>37.0</ele><time>2026-04-10T08:13:13Z</time></trkpt><trkpt lat="39.25605856920049" lon="8.928282814186382"><ele>37.0</ele><time>2026-04-10T08:13:14Z</time></trkpt><trkpt lat="39.25598184187687" lon="8.928078595713904"><ele>37.66666666666667</ele><time>2026-04-10T08:13:15Z</time></trkpt><trkpt lat="39.255908897546455" lon="8.927880248422255"><ele>38.333333333333336</ele><time>2026-04-10T08:13:16Z</time></trkpt><trkpt lat="39.255841608272235" lon="8.927689752187153"><ele>39.0</ele><time>2026-04-10T08:13:17Z</time></trkpt><trkpt lat="39.255769908007665" lon="8.92750086879457"><ele>39.0</ele><time>2026-04-10T08:13:18Z</time></trkpt><trkpt lat="39.255693296405916" lon="8.9273101856475"><ele>39.0</ele><time>2026-04-10T08:13:19Z</time></trkpt><trkpt lat="39.2556332462535" lon="8.927092766448814"><ele>39.0</ele><time>2026-04-10T08:13:20Z</time></trkpt><trkpt lat="39.2555544067611" lon="8.926881117697977"><ele>38.0</ele><time>2026-04-10T08:13:21Z</time></trkpt><trkpt lat="39.25547093488576" lon="8.926660491888878"><ele>37.0</ele><time>2026-04-10T08:13:22Z</time></trkpt><trkpt lat="39.255385209046814" lon="8.92643376810264"><ele>36.0</ele><time>2026-04-10T08:13:23Z</time></trkpt><trkpt lat="39.25528359515045" lon="8.926210168420214"><ele>36.0</ele><time>2026-04-10T08:13:24Z</time></trkpt><trkpt lat="39.255194237154974" lon="8.925961524710386"><ele>36.0</ele><time>2026-04-10T08:13:25Z</time></trkpt><trkpt lat="39.255099158205596" lon="8.925711138631309"><ele>36.0</ele><time>2026-04-10T08:13:26Z</time></trkpt><trkpt lat="39.255001237714346" lon="8.92544459258533"><ele>37.0</ele><time>2026-04-10T08:13:27Z</time></trkpt><trkpt lat="39.2549002655758" lon="8.92517911604111"><ele>38.0</ele><time>2026-04-10T08:13:28Z</time></trkpt><trkpt lat="39.25479698635533" lon="8.924904043046674"><ele>40.0</ele><time>2026-04-10T08:13:29Z</time></trkpt><trkpt lat="39.25469103248225" lon="8.92462581937062"><ele>42.0</ele><time>2026-04-10T08:13:30Z</time></trkpt><trkpt lat="39.254583162908744" lon="8.924343208828503"><ele>42.5</ele><time>2026-04-10T08:13:31Z</time></trkpt><trkpt lat="39.254476175716306" lon="8.924058521647703"><ele>43.0</ele><time>2026-04-10T08:13:32Z</time></trkpt><trkpt lat="39.25437132758769" lon="8.923776878107326"><ele>43.0</ele><time>2026-04-10T08:13:33Z</time></trkpt><trkpt lat="39.25426767699346" lon="8.923499029065104"><ele>43.0</ele><time>2026-04-10T08:13:34Z</time></trkpt><trkpt lat="39.25416607775074" lon="8.923222139522515"><ele>44.0</ele><time>2026-04-10T08:13:35Z</time></trkpt><trkpt lat="39.25406216568631" lon="8.922947893170939"><ele>45.0</ele><time>2026-04-10T08:13:36Z</time></trkpt><trkpt lat="39.25395682530569" lon="8.922674662622134"><ele>48.0</ele><time>2026-04-10T08:13:37Z</time></trkpt><trkpt lat="39.2538561331234" lon="8.92240278598635"><ele>51.0</ele><time>2026-04-10T08:13:38Z</time></trkpt><trkpt lat="39.25375342450914" lon="8.922132015725952"><ele>51.0</ele><time>2026-04-10T08:13:39Z</time></trkpt><trkpt lat="39.25365273982136" lon="8.921857645855837"><ele>51.0</ele><time>2026-04-10T08:13:40Z</time></trkpt><trkpt lat="39.25355141448345" lon="8.921596053152095"><ele>50.33333333333333</ele><time>2026-04-10T08:13:41Z</time></trkpt><trkpt lat="39.253452290548765" lon="8.921337502958034"><ele>49.666666666666664</ele><time>2026-04-10T08:13:42Z</time></trkpt><trkpt lat="39.25335805320467" lon="8.921084592363256"><ele>49.0</ele><time>2026-04-10T08:13:43Z</time></trkpt><trkpt lat="39.25326845860139" lon="8.920837029910535"><ele>49.0</ele><time>2026-04-10T08:13:44Z</time></trkpt><trkpt lat="39.25318429202669" lon="8.920585706481706"><ele>49.0</ele><time>2026-04-10T08:13:45Z</time></trkpt><trkpt lat="39.253123174752055" lon="8.92032161682463"><ele>49.0</ele><time>2026-04-10T08:13:46Z</time></trkpt><trkpt lat="39.253045276166965" lon="8.920065111191386"><ele>50.666666666666664</ele><time>2026-04-10T08:13:47Z</time></trkpt><trkpt lat="39.25299266159909" lon="8.919799190794183"><ele>52.33333333333333</ele><time>2026-04-10T08:13:48Z</time></trkpt><trkpt lat="39.252947900689236" lon="8.919527836819514"><ele>54.0</ele><time>2026-04-10T08:13:49Z</time></trkpt><trkpt lat="39.25291219409522" lon="8.919252103937403"><ele>54.66666666666667</ele><time>2026-04-10T08:13:50Z</time></trkpt><trkpt lat="39.25288435589967" lon="8.918967224150752"><ele>55.333333333333336</ele><time>2026-04-10T08:13:51Z</time></trkpt><trkpt lat="39.25288107257555" lon="8.918680398254345"><ele>56.0</ele><time>2026-04-10T08:13:52Z</time></trkpt><trkpt lat="39.252875781324605" lon="8.91839498754025"><ele>56.0</ele><time>2026-04-10T08:13:53Z</time></trkpt><trkpt lat="39.25288229774249" lon="8.918105033997074"><ele>56.0</ele><time>2026-04-10T08:13:54Z</time></trkpt><trkpt lat="39.2528989948188" lon="8.917808981985054"><ele>58.0</ele><time>2026-04-10T08:13:55Z</time></trkpt><trkpt lat="39.25291787347714" lon="8.917501923403155"><ele>60.0</ele><time>2026-04-10T08:13:56Z</time></trkpt><trkpt lat="39.25292737072343" lon="8.917195229127822"><ele>60.0</ele><time>2026-04-10T08:13:57Z</time></trkpt><trkpt lat="39.25294910933899" lon="8.916895895919069"><ele>60.0</ele><time>2026-04-10T08:13:58Z</time></trkpt><trkpt lat="39.25296195200517" lon="8.916602354005969"><ele>61.0</ele><time>2026-04-10T08:13:59Z</time></trkpt><trkpt lat="39.25299111485537" lon="8.916314841701515"><ele>62.0</ele><time>2026-04-10T08:14:00Z</time></trkpt><trkpt lat="39.2530079993876" lon="8.916032890283741"><ele>63.0</ele><time>2026-04-10T08:14:01Z</time></trkpt><trkpt lat="39.2530248322694" lon="8.915751801375793"><ele>64.33333333333333</ele><time>2026-04-10T08:14:02Z</time></trkpt><trkpt lat="39.25302698439462" lon="8.915474397598803"><ele>65.66666666666666</ele><time>2026-04-10T08:14:03Z</time></trkpt><trkpt lat="39.25304627507399" lon="8.915204896856586"><ele>67.0</ele><time>2026-04-10T08:14:04Z</time></trkpt><trkpt lat="39.25306246844506" lon="8.914941284974265"><ele>69.0</ele><time>2026-04-10T08:14:05Z</time></trkpt><trkpt lat="39.25307654799871" lon="8.914680087862948"><ele>71.0</ele><time>2026-04-10T08:14:06Z</time></trkpt><trkpt lat="39.25310772983133" lon="8.914424074667187"><ele>73.0</ele><time>2026-04-10T08:14:07Z</time></trkpt><trkpt lat="39.25312463575097" lon="8.9141627197655"><ele>73.0</ele><time>2026-04-10T08:14:08Z</time></trkpt><trkpt lat="39.25314122243838" lon="8.913906299958079"><ele>73.0</ele><time>2026-04-10T08:14:09Z</time></trkpt><trkpt lat="39.253158006786215" lon="8.913646824466099"><ele>73.0</ele><time>2026-04-10T08:14:10Z</time></trkpt><trkpt lat="39.25315856020334" lon="8.913387773070683"><ele>74.0</ele><time>2026-04-10T08:14:11Z</time></trkpt><trkpt lat="39.25317493196112" lon="8.91312710909311"><ele>75.0</ele><time>2026-04-10T08:14:12Z</time></trkpt><trkpt lat="39.25318893724967" lon="8.91286336182636"><ele>76.0</ele><time>2026-04-10T08:14:13Z</time></trkpt><trkpt lat="39.253219810148046" lon="8.912592214221597"><ele>76.66666666666666</ele><time>2026-04-10T08:14:14Z</time></trkpt><trkpt lat="39.25322903974849" lon="8.912318432201944"><ele>77.33333333333333</ele><time>2026-04-10T08:14:15Z</time></trkpt><trkpt lat="39.253218394791986" lon="8.912039047680505"><ele>78.0</ele><time>2026-04-10T08:14:16Z</time></trkpt><trkpt lat="39.253220713160616" lon="8.91175952002274"><ele>78.33333333333333</ele><time>2026-04-10T08:14:17Z</time></trkpt><trkpt lat="39.25321362594397" lon="8.9114834326804"><ele>78.66666666666666</ele><time>2026-04-10T08:14:18Z</time></trkpt><trkpt lat="39.25320096793777" lon="8.911207665452487"><ele>79.0</ele><time>2026-04-10T08:14:19Z</time></trkpt><trkpt lat="39.25320853346594" lon="8.910939915740155"><ele>79.66666666666666</ele><time>2026-04-10T08:14:20Z</time></trkpt><trkpt lat="39.25320197311284" lon="8.91066829317538"><ele>80.33333333333333</ele><time>2026-04-10T08:14:21Z</time></trkpt><trkpt lat="39.25317612885562" lon="8.910403615905325"><ele>81.0</ele><time>2026-04-10T08:14:22Z</time></trkpt><trkpt lat="39.253158843771104" lon="8.910149226653271"><ele>81.66666666666667</ele><time>2026-04-10T08:14:23Z</time></trkpt><trkpt lat="39.253123325748675" lon="8.909904451925254"><ele>82.33333333333334</ele><time>2026-04-10T08:14:24Z</time></trkpt><trkpt lat="39.253067189696914" lon="8.909671964462417"><ele>83.0</ele><time>2026-04-10T08:14:25Z</time></trkpt><trkpt lat="39.25301902934641" lon="8.909445916852308"><ele>89.33333333333334</ele><time>2026-04-10T08:14:26Z</time></trkpt><trkpt lat="39.25293933556301" lon="8.90925296317151"><ele>95.66666666666667</ele><time>2026-04-10T08:14:27Z</time></trkpt><trkpt lat="39.25290421612269" lon="8.90906153800768"><ele>102.0</ele><time>2026-04-10T08:14:28Z</time></trkpt><trkpt lat="39.25290042253188" lon="8.90887193019913"><ele>102.0</ele><time>2026-04-10T08:14:29Z</time></trkpt><trkpt lat="39.252923956982706" lon="8.908667622381119"><ele>102.0</ele><time>2026-04-10T08:14:30Z</time></trkpt><trkpt lat="39.2529850317641" lon="8.908442071590484"><ele>102.0</ele><time>2026-04-10T08:14:31Z</time></trkpt><trkpt lat="39.253067220863926" lon="8.90821704157085"><ele>103.33333333333334</ele><time>2026-04-10T08:14:32Z</time></trkpt><trkpt lat="39.25316118749611" lon="8.907999717212002"><ele>104.66666666666667</ele><time>2026-04-10T08:14:33Z</time></trkpt><trkpt lat="39.253233352912154" lon="8.907782983637935"><ele>106.0</ele><time>2026-04-10T08:14:34Z</time></trkpt><trkpt lat="39.25328678061328" lon="8.907557075059453"><ele>106.0</ele><time>2026-04-10T08:14:35Z</time></trkpt><trkpt lat="39.25333169744602" lon="8.907321774688077"><ele>106.0</ele><time>2026-04-10T08:14:36Z</time></trkpt><trkpt lat="39.2533753445049" lon="8.907079112731248"><ele>106.0</ele><time>2026-04-10T08:14:37Z</time></trkpt><trkpt lat="39.25342382336491" lon="8.906841146240495"><ele>109.33333333333334</ele><time>2026-04-10T08:14:38Z</time></trkpt><trkpt lat="39.25347668395293" lon="8.906616802470259"><ele>112.66666666666666</ele><time>2026-04-10T08:14:39Z</time></trkpt><trkpt lat="39.253529405728564" lon="8.906405696179037"><ele>116.0</ele><time>2026-04-10T08:14:40Z</time></trkpt><trkpt lat="39.25359338591885" lon="8.90620905632529"><ele>116.0</ele><time>2026-04-10T08:14:41Z</time></trkpt><trkpt lat="39.253692439247885" lon="8.906019163653838"><ele>116.0</ele><time>2026-04-10T08:14:42Z</time></trkpt><trkpt lat="39.253823440901314" lon="8.905845351447256"><ele>116.0</ele><time>2026-04-10T08:14:43Z</time></trkpt><trkpt lat="39.25397208444887" lon="8.90567213674707"><ele>116.0</ele><time>2026-04-10T08:14:44Z</time></trkpt><trkpt lat="39.25413691284475" lon="8.905513706312854"><ele>116.0</ele><time>2026-04-10T08:14:45Z</time></trkpt><trkpt lat="39.254287345368176" lon="8.905350459493356"><ele>116.0</ele><time>2026-04-10T08:14:46Z</time></trkpt><trkpt lat="39.25443552237231" lon="8.905196321992662"><ele>117.0</ele><time>2026-04-10T08:14:47Z</time></trkpt><trkpt lat="39.25457248774242" lon="8.90502668668322"><ele>118.0</ele><time>2026-04-10T08:14:48Z</time></trkpt><trkpt lat="39.25469859279443" lon="8.904850080363557"><ele>119.0</ele><time>2026-04-10T08:14:49Z</time></trkpt><trkpt lat="39.254828163066286" lon="8.904700951698137"><ele>119.66666666666666</ele><time>2026-04-10T08:14:50Z</time></trkpt><trkpt lat="39.25496616230196" lon="8.90455213863864"><ele>120.33333333333334</ele><time>2026-04-10T08:14:51Z</time></trkpt><trkpt lat="39.255112174698596" lon="8.904406072295686"><ele>121.0</ele><time>2026-04-10T08:14:52Z</time></trkpt><trkpt lat="39.25527522737889" lon="8.904267777192484"><ele>117.0</ele><time>2026-04-10T08:14:53Z</time></trkpt><trkpt lat="39.25545392196598" lon="8.904143933581311"><ele>113.0</ele><time>2026-04-10T08:14:54Z</time></trkpt><trkpt lat="39.25564019208931" lon="8.90402497714013"><ele>109.0</ele><time>2026-04-10T08:14:55Z</time></trkpt><trkpt lat="39.25581155932186" lon="8.90389975749065"><ele>109.0</ele><time>2026-04-10T08:14:56Z</time></trkpt><trkpt lat="39.25598775414936" lon="8.903778394753946"><ele>109.0</ele><time>2026-04-10T08:14:57Z</time></trkpt><trkpt lat="39.256155778228745" lon="8.903657872259473"><ele>109.0</ele><time>2026-04-10T08:14:58Z</time></trkpt><trkpt lat="39.25631383570172" lon="8.903540555861124"><ele>111.66666666666667</ele><time>2026-04-10T08:14:59Z</time></trkpt><trkpt lat="39.25646564776969" lon="8.903415091059614"><ele>114.33333333333334</ele><time>2026-04-10T08:15:00Z</time></trkpt><trkpt lat="39.25660849571957" lon="8.903276824251105"><ele>117.0</ele><time>2026-04-10T08:15:01Z</time></trkpt><trkpt lat="39.25673191635429" lon="8.903116618609923"><ele>110.33333333333334</ele><time>2026-04-10T08:15:02Z</time></trkpt><trkpt lat="39.25683262868473" lon="8.90293858064888"><ele>103.66666666666667</ele><time>2026-04-10T08:15:03Z</time></trkpt><trkpt lat="39.25692470309622" lon="8.902741054762624"><ele>97.0</ele><time>2026-04-10T08:15:04Z</time></trkpt><trkpt lat="39.257000435298394" lon="8.902517940013723"><ele>92.33333333333334</ele><time>2026-04-10T08:15:05Z</time></trkpt><trkpt lat="39.257070961457224" lon="8.902270103280012"><ele>87.66666666666667</ele><time>2026-04-10T08:15:06Z</time></trkpt><trkpt lat="39.257149510492084" lon="8.90198962782473"><ele>83.0</ele><time>2026-04-10T08:15:07Z</time></trkpt><trkpt lat="39.257234854990294" lon="8.90170431376111"><ele>81.0</ele><time>2026-04-10T08:15:08Z</time></trkpt><trkpt lat="39.257321559974585" lon="8.901421961839793"><ele>79.0</ele><time>2026-04-10T08:15:09Z</time></trkpt><trkpt lat="39.257404126318534" lon="8.901151503926544"><ele>75.66666666666666</ele><time>2026-04-10T08:15:10Z</time></trkpt><trkpt lat="39.257483914198154" lon="8.900887604119355"><ele>72.33333333333333</ele><time>2026-04-10T08:15:11Z</time></trkpt><trkpt lat="39.25756216673837" lon="8.900627863221263"><ele>69.0</ele><time>2026-04-10T08:15:12Z</time></trkpt><trkpt lat="39.257636645881576" lon="8.900373053549485"><ele>69.0</ele><time>2026-04-10T08:15:13Z</time></trkpt><trkpt lat="39.25770966702397" lon="8.90012547179643"><ele>69.0</ele><time>2026-04-10T08:15:14Z</time></trkpt><trkpt lat="39.25778229741018" lon="8.899881655190772"><ele>69.0</ele><time>2026-04-10T08:15:15.001Z</time></trkpt><trkpt lat="39.25785287380625" lon="8.899641063132197"><ele>68.0</ele><time>2026-04-10T08:15:16.001Z</time></trkpt><trkpt lat="39.2579265488384" lon="8.899393145073672"><ele>67.0</ele><time>2026-04-10T08:15:17.001Z</time></trkpt><trkpt lat="39.25800165138563" lon="8.89913868688341"><ele>66.0</ele><time>2026-04-10T08:15:18.001Z</time></trkpt><trkpt lat="39.25807985191805" lon="8.898878407737739"><ele>65.0</ele><time>2026-04-10T08:15:19.001Z</time></trkpt><trkpt lat="39.25815775081429" lon="8.898612722553581"><ele>64.0</ele><time>2026-04-10T08:15:20.001Z</time></trkpt><trkpt lat="39.25823776900072" lon="8.898342054242772"><ele>63.0</ele><time>2026-04-10T08:15:21.001Z</time></trkpt><trkpt lat="39.258321572082075" lon="8.898066573489801"><ele>60.5</ele><time>2026-04-10T08:15:22.001Z</time></trkpt><trkpt lat="39.25840549189042" lon="8.897787271047031"><ele>58.0</ele><time>2026-04-10T08:15:23Z</time></trkpt><trkpt lat="39.258489368012704" lon="8.89750831258429"><ele>57.0</ele><time>2026-04-10T08:15:24Z</time></trkpt><trkpt lat="39.258572565464924" lon="8.897232479011468"><ele>56.0</ele><time>2026-04-10T08:15:25Z</time></trkpt><trkpt lat="39.25865494669732" lon="8.896962727428875"><ele>55.333333333333336</ele><time>2026-04-10T08:15:26Z</time></trkpt><trkpt lat="39.25873313334242" lon="8.896695606529955"><ele>54.66666666666667</ele><time>2026-04-10T08:15:27Z</time></trkpt><trkpt lat="39.2588107798575" lon="8.896429634951065"><ele>54.0</ele><time>2026-04-10T08:15:28Z</time></trkpt><trkpt lat="39.25889000272391" lon="8.896164671062111"><ele>53.33333333333333</ele><time>2026-04-10T08:15:29Z</time></trkpt><trkpt lat="39.25897093900363" lon="8.89590063018696"><ele>52.666666666666664</ele><time>2026-04-10T08:15:30Z</time></trkpt><trkpt lat="39.259050882754245" lon="8.895635540811977"><ele>52.0</ele><time>2026-04-10T08:15:31Z</time></trkpt><trkpt lat="39.25912995985912" lon="8.895368492267801"><ele>52.0</ele><time>2026-04-10T08:15:32Z</time></trkpt><trkpt lat="39.25920719559655" lon="8.895101591169357"><ele>52.0</ele><time>2026-04-10T08:15:33Z</time></trkpt><trkpt lat="39.25928489127308" lon="8.894831487670757"><ele>52.0</ele><time>2026-04-10T08:15:34Z</time></trkpt><trkpt lat="39.259362473676916" lon="8.894562986599762"><ele>51.666666666666664</ele><time>2026-04-10T08:15:35Z</time></trkpt><trkpt lat="39.259441972793795" lon="8.894296332287352"><ele>51.33333333333333</ele><time>2026-04-10T08:15:36Z</time></trkpt><trkpt lat="39.25952376129185" lon="8.894034637218343"><ele>51.0</ele><time>2026-04-10T08:15:37Z</time></trkpt><trkpt lat="39.25960324525853" lon="8.893772671797576"><ele>50.66666666666667</ele><time>2026-04-10T08:15:38Z</time></trkpt><trkpt lat="39.25967949745676" lon="8.893507749932018"><ele>50.333333333333336</ele><time>2026-04-10T08:15:39Z</time></trkpt><trkpt lat="39.25975742529" lon="8.893240633316983"><ele>50.0</ele><time>2026-04-10T08:15:40Z</time></trkpt><trkpt lat="39.25983545679489" lon="8.892972774799574"><ele>48.66666666666667</ele><time>2026-04-10T08:15:41Z</time></trkpt><trkpt lat="39.25991319979267" lon="8.892707635069817"><ele>47.333333333333336</ele><time>2026-04-10T08:15:42Z</time></trkpt><trkpt lat="39.25999224331728" lon="8.89244143154715"><ele>46.0</ele><time>2026-04-10T08:15:43Z</time></trkpt><trkpt lat="39.2600737133402" lon="8.892174918211348"><ele>46.0</ele><time>2026-04-10T08:15:44Z</time></trkpt><trkpt lat="39.260156572911335" lon="8.891909259026104"><ele>46.0</ele><time>2026-04-10T08:15:45Z</time></trkpt><trkpt lat="39.2602445212133" lon="8.891639539771512"><ele>46.0</ele><time>2026-04-10T08:15:46Z</time></trkpt><trkpt lat="39.26034124006267" lon="8.89137215703739"><ele>48.0</ele><time>2026-04-10T08:15:47Z</time></trkpt><trkpt lat="39.260445152475384" lon="8.891108376381695"><ele>50.0</ele><time>2026-04-10T08:15:48Z</time></trkpt><trkpt lat="39.26054912144497" lon="8.890845167986486"><ele>49.5</ele><time>2026-04-10T08:15:49Z</time></trkpt><trkpt lat="39.260653911838936" lon="8.89058083231464"><ele>49.0</ele><time>2026-04-10T08:15:50Z</time></trkpt><trkpt lat="39.260756425030536" lon="8.890315442167159"><ele>50.0</ele><time>2026-04-10T08:15:51Z</time></trkpt><trkpt lat="39.26085778546799" lon="8.890052662200038"><ele>51.0</ele><time>2026-04-10T08:15:52Z</time></trkpt><trkpt lat="39.26096049248585" lon="8.889788076890591"><ele>51.0</ele><time>2026-04-10T08:15:53Z</time></trkpt><trkpt lat="39.2610638983022" lon="8.88952453528759"><ele>51.0</ele><time>2026-04-10T08:15:54Z</time></trkpt><trkpt lat="39.26116660280641" lon="8.889263972169786"><ele>49.0</ele><time>2026-04-10T08:15:55Z</time></trkpt><trkpt lat="39.26126695572624" lon="8.889002655104713"><ele>47.0</ele><time>2026-04-10T08:15:56Z</time></trkpt><trkpt lat="39.261366489803365" lon="8.888739753304593"><ele>46.5</ele><time>2026-04-10T08:15:57Z</time></trkpt><trkpt lat="39.2614677634015" lon="8.888479749485578"><ele>46.0</ele><time>2026-04-10T08:15:58Z</time></trkpt><trkpt lat="39.2615687294983" lon="8.888216909231305"><ele>46.0</ele><time>2026-04-10T08:15:59Z</time></trkpt><trkpt lat="39.26167169543954" lon="8.88795242771632"><ele>46.0</ele><time>2026-04-10T08:16:00Z</time></trkpt><trkpt lat="39.26177419017555" lon="8.887688636939334"><ele>45.5</ele><time>2026-04-10T08:16:01Z</time></trkpt><trkpt lat="39.261876895887916" lon="8.88742128340199"><ele>45.0</ele><time>2026-04-10T08:16:02Z</time></trkpt><trkpt lat="39.26197912699719" lon="8.887149103704285"><ele>45.0</ele><time>2026-04-10T08:16:03Z</time></trkpt><trkpt lat="39.26208189504671" lon="8.886876655002915"><ele>45.0</ele><time>2026-04-10T08:16:04Z</time></trkpt><trkpt lat="39.262187005919934" lon="8.886602176772858"><ele>42.5</ele><time>2026-04-10T08:16:05Z</time></trkpt><trkpt lat="39.26229449362977" lon="8.886326256952687"><ele>40.0</ele><time>2026-04-10T08:16:06Z</time></trkpt><trkpt lat="39.26240290074292" lon="8.886046683900968"><ele>38.5</ele><time>2026-04-10T08:16:07Z</time></trkpt><trkpt lat="39.262510304396685" lon="8.885768901181452"><ele>37.0</ele><time>2026-04-10T08:16:08Z</time></trkpt><trkpt lat="39.26261550988786" lon="8.88549091427542"><ele>37.0</ele><time>2026-04-10T08:16:09Z</time></trkpt><trkpt lat="39.26272217357161" lon="8.885214367401383"><ele>37.0</ele><time>2026-04-10T08:16:10Z</time></trkpt><trkpt lat="39.262829609373924" lon="8.884940131697766"><ele>38.0</ele><time>2026-04-10T08:16:11Z</time></trkpt><trkpt lat="39.26293712593975" lon="8.88466721198847"><ele>39.0</ele><time>2026-04-10T08:16:12Z</time></trkpt><trkpt lat="39.26304250163804" lon="8.884394351250224"><ele>37.5</ele><time>2026-04-10T08:16:13Z</time></trkpt><trkpt lat="39.26314550872266" lon="8.884125053356492"><ele>36.0</ele><time>2026-04-10T08:16:14Z</time></trkpt><trkpt lat="39.263244764847734" lon="8.88386514535471"><ele>36.0</ele><time>2026-04-10T08:16:15Z</time></trkpt><trkpt lat="39.26333611909254" lon="8.883616038067602"><ele>36.0</ele><time>2026-04-10T08:16:16Z</time></trkpt><trkpt lat="39.26341003726567" lon="8.88337428968724"><ele>36.0</ele><time>2026-04-10T08:16:17Z</time></trkpt><trkpt lat="39.26345962537206" lon="8.883125161801889"><ele>36.666666666666664</ele><time>2026-04-10T08:16:18Z</time></trkpt><trkpt lat="39.26347751063367" lon="8.882854405401808"><ele>37.33333333333333</ele><time>2026-04-10T08:16:19Z</time></trkpt><trkpt lat="39.263462229768116" lon="8.882560561725992"><ele>38.0</ele><time>2026-04-10T08:16:20Z</time></trkpt><trkpt lat="39.26341610402397" lon="8.882235653666402"><ele>38.5</ele><time>2026-04-10T08:16:21Z</time></trkpt><trkpt lat="39.26334014372814" lon="8.881893427614036"><ele>39.0</ele><time>2026-04-10T08:16:22Z</time></trkpt><trkpt lat="39.26326145529036" lon="8.881553038275449"><ele>41.5</ele><time>2026-04-10T08:16:23Z</time></trkpt><trkpt lat="39.263193692620874" lon="8.881247142628832"><ele>44.0</ele><time>2026-04-10T08:16:24Z</time></trkpt><trkpt lat="39.26313663995012" lon="8.880966069043609"><ele>44.33333333333333</ele><time>2026-04-10T08:16:25Z</time></trkpt><trkpt lat="39.26308200759086" lon="8.880699496731719"><ele>44.666666666666664</ele><time>2026-04-10T08:16:26Z</time></trkpt><trkpt lat="39.26303026666899" lon="8.880446294365044"><ele>45.0</ele><time>2026-04-10T08:16:27Z</time></trkpt><trkpt lat="39.2629776353042" lon="8.880196895829096"><ele>45.666666666666664</ele><time>2026-04-10T08:16:28Z</time></trkpt><trkpt lat="39.262925540528364" lon="8.879938881829508"><ele>46.33333333333333</ele><time>2026-04-10T08:16:29Z</time></trkpt><trkpt lat="39.26287844701073" lon="8.879677544272397"><ele>47.0</ele><time>2026-04-10T08:16:30Z</time></trkpt><trkpt lat="39.26284191328468" lon="8.879411538171011"><ele>49.0</ele><time>2026-04-10T08:16:31Z</time></trkpt><trkpt lat="39.262844488553085" lon="8.87913058508562"><ele>51.0</ele><time>2026-04-10T08:16:32Z</time></trkpt><trkpt lat="39.2628531380734" lon="8.878834109699465"><ele>53.0</ele><time>2026-04-10T08:16:33Z</time></trkpt><trkpt lat="39.26286381253862" lon="8.878519902576725"><ele>54.0</ele><time>2026-04-10T08:16:34Z</time></trkpt><trkpt lat="39.26291569766148" lon="8.878198592211117"><ele>55.0</ele><time>2026-04-10T08:16:35Z</time></trkpt><trkpt lat="39.26298110361712" lon="8.877891536017588"><ele>55.0</ele><time>2026-04-10T08:16:36Z</time></trkpt><trkpt lat="39.26308538002719" lon="8.877605889709852"><ele>55.0</ele><time>2026-04-10T08:16:37Z</time></trkpt><trkpt lat="39.26318970330661" lon="8.877328932703826"><ele>54.0</ele><time>2026-04-10T08:16:38Z</time></trkpt><trkpt lat="39.26329836269885" lon="8.877051855379557"><ele>53.0</ele><time>2026-04-10T08:16:39Z</time></trkpt><trkpt lat="39.26344390136736" lon="8.87678263845858"><ele>53.5</ele><time>2026-04-10T08:16:40Z</time></trkpt><trkpt lat="39.26360399155685" lon="8.876489073761645"><ele>54.0</ele><time>2026-04-10T08:16:41Z</time></trkpt><trkpt lat="39.263749952196676" lon="8.87619969729858"><ele>54.5</ele><time>2026-04-10T08:16:42Z</time></trkpt><trkpt lat="39.26387951352761" lon="8.875932499375974"><ele>55.0</ele><time>2026-04-10T08:16:43Z</time></trkpt><trkpt lat="39.26400241297455" lon="8.875681144891983"><ele>55.0</ele><time>2026-04-10T08:16:44Z</time></trkpt><trkpt lat="39.26412263942678" lon="8.87543851935688"><ele>55.0</ele><time>2026-04-10T08:16:45Z</time></trkpt><trkpt lat="39.26424055088658" lon="8.875204113067987"><ele>55.0</ele><time>2026-04-10T08:16:46Z</time></trkpt><trkpt lat="39.264355769927924" lon="8.874973266908526"><ele>55.0</ele><time>2026-04-10T08:16:47Z</time></trkpt><trkpt lat="39.26447416371729" lon="8.874737787613585"><ele>55.0</ele><time>2026-04-10T08:16:48Z</time></trkpt><trkpt lat="39.264589896783114" lon="8.874499365118814"><ele>55.0</ele><time>2026-04-10T08:16:49Z</time></trkpt><trkpt lat="39.26470901469279" lon="8.874259126930042"><ele>53.0</ele><time>2026-04-10T08:16:50Z</time></trkpt><trkpt lat="39.26483075956171" lon="8.874013670840679"><ele>51.0</ele><time>2026-04-10T08:16:51Z</time></trkpt><trkpt lat="39.26495300415973" lon="8.873766472357365"><ele>51.0</ele><time>2026-04-10T08:16:52Z</time></trkpt><trkpt lat="39.26507332986352" lon="8.873514867480566"><ele>51.0</ele><time>2026-04-10T08:16:53Z</time></trkpt><trkpt lat="39.26519297545852" lon="8.873264837500585"><ele>50.5</ele><time>2026-04-10T08:16:54Z</time></trkpt><trkpt lat="39.26531528682807" lon="8.873015462981298"><ele>50.0</ele><time>2026-04-10T08:16:55Z</time></trkpt><trkpt lat="39.265440034340436" lon="8.872765341145369"><ele>50.0</ele><time>2026-04-10T08:16:56Z</time></trkpt><trkpt lat="39.26556451284881" lon="8.872514382984605"><ele>50.0</ele><time>2026-04-10T08:16:57Z</time></trkpt><trkpt lat="39.265692540637275" lon="8.872264397837421"><ele>50.0</ele><time>2026-04-10T08:16:58Z</time></trkpt><trkpt lat="39.26582212333473" lon="8.872014300589187"><ele>50.0</ele><time>2026-04-10T08:16:59Z</time></trkpt><trkpt lat="39.26595491396739" lon="8.871769571587134"><ele>49.5</ele><time>2026-04-10T08:17:00Z</time></trkpt><trkpt lat="39.26608525738821" lon="8.871529203741249"><ele>49.0</ele><time>2026-04-10T08:17:01Z</time></trkpt><trkpt lat="39.26621306122089" lon="8.871293808086724"><ele>49.0</ele><time>2026-04-10T08:17:02Z</time></trkpt><trkpt lat="39.26633916991944" lon="8.871062628170462"><ele>49.0</ele><time>2026-04-10T08:17:03Z</time></trkpt><trkpt lat="39.26646377570684" lon="8.870833010694067"><ele>49.0</ele><time>2026-04-10T08:17:04Z</time></trkpt><trkpt lat="39.266590718970086" lon="8.87060696045972"><ele>48.33333333333333</ele><time>2026-04-10T08:17:05Z</time></trkpt><trkpt lat="39.266718122577615" lon="8.870382543330141"><ele>47.666666666666664</ele><time>2026-04-10T08:17:06Z</time></trkpt><trkpt lat="39.26684350074838" lon="8.87015582463989"><ele>47.0</ele><time>2026-04-10T08:17:07Z</time></trkpt><trkpt lat="39.26696742323294" lon="8.869931889096298"><ele>47.0</ele><time>2026-04-10T08:17:08Z</time></trkpt><trkpt lat="39.267091354510235" lon="8.869707049476782"><ele>47.0</ele><time>2026-04-10T08:17:09Z</time></trkpt><trkpt lat="39.26721515030296" lon="8.869480131231247"><ele>47.0</ele><time>2026-04-10T08:17:10Z</time></trkpt><trkpt lat="39.26733968439197" lon="8.869255157321923"><ele>46.33333333333333</ele><time>2026-04-10T08:17:11Z</time></trkpt><trkpt lat="39.26746465384512" lon="8.86902791174769"><ele>45.666666666666664</ele><time>2026-04-10T08:17:12Z</time></trkpt><trkpt lat="39.26759159122506" lon="8.868799023029633"><ele>45.0</ele><time>2026-04-10T08:17:13Z</time></trkpt><trkpt lat="39.267719739428365" lon="8.868571093219982"><ele>45.333333333333336</ele><time>2026-04-10T08:17:14Z</time></trkpt><trkpt lat="39.267838660620235" lon="8.86834510495424"><ele>45.66666666666667</ele><time>2026-04-10T08:17:15Z</time></trkpt><trkpt lat="39.26794597335342" lon="8.86811078387204"><ele>46.0</ele><time>2026-04-10T08:17:16Z</time></trkpt><trkpt lat="39.26802947800832" lon="8.867860509076618"><ele>45.66666666666667</ele><time>2026-04-10T08:17:17Z</time></trkpt><trkpt lat="39.26809784860179" lon="8.867595155393964"><ele>45.333333333333336</ele><time>2026-04-10T08:17:18Z</time></trkpt><trkpt lat="39.268145253103434" lon="8.867320347099785"><ele>45.0</ele><time>2026-04-10T08:17:19Z</time></trkpt><trkpt lat="39.26817719798749" lon="8.86704332291144"><ele>46.0</ele><time>2026-04-10T08:17:20Z</time></trkpt><trkpt lat="39.268198189604234" lon="8.866761414831505"><ele>47.0</ele><time>2026-04-10T08:17:21Z</time></trkpt><trkpt lat="39.26820032210705" lon="8.86647481464854"><ele>48.0</ele><time>2026-04-10T08:17:22Z</time></trkpt><trkpt lat="39.26818046932286" lon="8.866163935549265"><ele>47.5</ele><time>2026-04-10T08:17:23Z</time></trkpt><trkpt lat="39.2681428155934" lon="8.865818341101713"><ele>47.0</ele><time>2026-04-10T08:17:24Z</time></trkpt><trkpt lat="39.268103089043365" lon="8.865444724215592"><ele>49.5</ele><time>2026-04-10T08:17:25Z</time></trkpt><trkpt lat="39.268067691406245" lon="8.865076836707752"><ele>52.0</ele><time>2026-04-10T08:17:26Z</time></trkpt><trkpt lat="39.26804080410208" lon="8.864736789311644"><ele>52.0</ele><time>2026-04-10T08:17:27Z</time></trkpt><trkpt lat="39.268011189301546" lon="8.864414454793373"><ele>52.0</ele><time>2026-04-10T08:17:28Z</time></trkpt><trkpt lat="39.26798049551248" lon="8.864091449717959"><ele>53.5</ele><time>2026-04-10T08:17:29Z</time></trkpt><trkpt lat="39.26795115415727" lon="8.863764486438884"><ele>55.0</ele><time>2026-04-10T08:17:30Z</time></trkpt><trkpt lat="39.267922176180605" lon="8.863435522413697"><ele>56.5</ele><time>2026-04-10T08:17:31Z</time></trkpt><trkpt lat="39.26789405260739" lon="8.863116761556991"><ele>58.0</ele><time>2026-04-10T08:17:32Z</time></trkpt><trkpt lat="39.26786480573532" lon="8.862818646638472"><ele>57.33333333333333</ele><time>2026-04-10T08:17:33Z</time></trkpt><trkpt lat="39.26783702969986" lon="8.862532782905253"><ele>56.66666666666667</ele><time>2026-04-10T08:17:34Z</time></trkpt><trkpt lat="39.267811078566304" lon="8.862250984354278"><ele>56.0</ele><time>2026-04-10T08:17:35Z</time></trkpt><trkpt lat="39.26778778263595" lon="8.861957843221616"><ele>55.0</ele><time>2026-04-10T08:17:36Z</time></trkpt><trkpt lat="39.26776916604727" lon="8.86165471156716"><ele>54.0</ele><time>2026-04-10T08:17:37Z</time></trkpt><trkpt lat="39.26776962206365" lon="8.861350631301022"><ele>54.0</ele><time>2026-04-10T08:17:38Z</time></trkpt><trkpt lat="39.267788918575235" lon="8.86103530179298"><ele>54.0</ele><time>2026-04-10T08:17:39Z</time></trkpt><trkpt lat="39.26782972615289" lon="8.860714921064249"><ele>52.5</ele><time>2026-04-10T08:17:40Z</time></trkpt><trkpt lat="39.26789161246385" lon="8.86040018686171"><ele>51.0</ele><time>2026-04-10T08:17:41Z</time></trkpt><trkpt lat="39.26797238524177" lon="8.860091233148488"><ele>51.0</ele><time>2026-04-10T08:17:42Z</time></trkpt><trkpt lat="39.26807376166541" lon="8.859789658793197"><ele>51.0</ele><time>2026-04-10T08:17:43Z</time></trkpt><trkpt lat="39.26818523977691" lon="8.859497471062545"><ele>50.0</ele><time>2026-04-10T08:17:44Z</time></trkpt><trkpt lat="39.268299745547814" lon="8.859205776306489"><ele>49.0</ele><time>2026-04-10T08:17:45Z</time></trkpt><trkpt lat="39.2684117515291" lon="8.858909201180083"><ele>49.0</ele><time>2026-04-10T08:17:46Z</time></trkpt><trkpt lat="39.26852124033501" lon="8.858609133624386"><ele>49.0</ele><time>2026-04-10T08:17:47Z</time></trkpt><trkpt lat="39.26863018486185" lon="8.85830846785787"><ele>49.0</ele><time>2026-04-10T08:17:48Z</time></trkpt><trkpt lat="39.268738037485" lon="8.858022046018757"><ele>49.0</ele><time>2026-04-10T08:17:49Z</time></trkpt><trkpt lat="39.26884050509752" lon="8.857743154933102"><ele>49.5</ele><time>2026-04-10T08:17:50Z</time></trkpt><trkpt lat="39.26894077809922" lon="8.857470280748801"><ele>50.0</ele><time>2026-04-10T08:17:51Z</time></trkpt><trkpt lat="39.269039184355705" lon="8.857205111573066"><ele>49.66666666666667</ele><time>2026-04-10T08:17:52Z</time></trkpt><trkpt lat="39.26913216336312" lon="8.85695631265053"><ele>49.33333333333333</ele><time>2026-04-10T08:17:53Z</time></trkpt><trkpt lat="39.269219469234535" lon="8.85671671681133"><ele>49.0</ele><time>2026-04-10T08:17:54Z</time></trkpt><trkpt lat="39.2693054495186" lon="8.8564835974581"><ele>49.0</ele><time>2026-04-10T08:17:55Z</time></trkpt><trkpt lat="39.26939175877144" lon="8.856243912230664"><ele>49.0</ele><time>2026-04-10T08:17:56Z</time></trkpt><trkpt lat="39.26948269390071" lon="8.85599796609561"><ele>49.0</ele><time>2026-04-10T08:17:57Z</time></trkpt><trkpt lat="39.26957570624694" lon="8.855750187318547"><ele>50.666666666666664</ele><time>2026-04-10T08:17:58Z</time></trkpt><trkpt lat="39.26966800699659" lon="8.855501659533935"><ele>52.33333333333333</ele><time>2026-04-10T08:17:59Z</time></trkpt><trkpt lat="39.26975838124798" lon="8.855256392619008"><ele>54.0</ele><time>2026-04-10T08:18:00Z</time></trkpt><trkpt lat="39.269845735368165" lon="8.855010751782105"><ele>57.66666666666667</ele><time>2026-04-10T08:18:01Z</time></trkpt><trkpt lat="39.26993646048551" lon="8.854767760380842"><ele>61.333333333333336</ele><time>2026-04-10T08:18:02Z</time></trkpt><trkpt lat="39.27002744870562" lon="8.854525052856905"><ele>65.0</ele><time>2026-04-10T08:18:03Z</time></trkpt><trkpt lat="39.270119987777996" lon="8.854275074828498"><ele>65.33333333333334</ele><time>2026-04-10T08:18:04Z</time></trkpt><trkpt lat="39.27021134726629" lon="8.85402049468715"><ele>65.66666666666667</ele><time>2026-04-10T08:18:05Z</time></trkpt><trkpt lat="39.27030326583373" lon="8.853766546119529"><ele>66.0</ele><time>2026-04-10T08:18:06Z</time></trkpt><trkpt lat="39.27039812464931" lon="8.853501291592568"><ele>64.0</ele><time>2026-04-10T08:18:07Z</time></trkpt><trkpt lat="39.27049142881341" lon="8.853241364916656"><ele>62.0</ele><time>2026-04-10T08:18:08Z</time></trkpt><trkpt lat="39.2705882023048" lon="8.852973909907558"><ele>60.66666666666667</ele><time>2026-04-10T08:18:09Z</time></trkpt><trkpt lat="39.270687005457354" lon="8.852713493236193"><ele>59.33333333333333</ele><time>2026-04-10T08:18:10Z</time></trkpt><trkpt lat="39.27077988652735" lon="8.852458437324778"><ele>58.0</ele><time>2026-04-10T08:18:11Z</time></trkpt><trkpt lat="39.27086925065112" lon="8.852217408514365"><ele>57.666666666666664</ele><time>2026-04-10T08:18:12Z</time></trkpt><trkpt lat="39.270952613765644" lon="8.851991756591419"><ele>57.33333333333333</ele><time>2026-04-10T08:18:13Z</time></trkpt><trkpt lat="39.27103230404832" lon="8.85178240400682"><ele>57.0</ele><time>2026-04-10T08:18:14Z</time></trkpt><trkpt lat="39.27110549324561" lon="8.851581077578034"><ele>58.66666666666667</ele><time>2026-04-10T08:18:15Z</time></trkpt><trkpt lat="39.27117413608097" lon="8.85138684567351"><ele>60.333333333333336</ele><time>2026-04-10T08:18:16Z</time></trkpt><trkpt lat="39.2712405825325" lon="8.851202785061854"><ele>62.0</ele><time>2026-04-10T08:18:17Z</time></trkpt><trkpt lat="39.27130542363709" lon="8.851027939293092"><ele>62.333333333333336</ele><time>2026-04-10T08:18:18Z</time></trkpt><trkpt lat="39.27137055804616" lon="8.850851980872378"><ele>62.66666666666667</ele><time>2026-04-10T08:18:19Z</time></trkpt><trkpt lat="39.27143748443211" lon="8.850668729308314"><ele>63.0</ele><time>2026-04-10T08:18:20Z</time></trkpt><trkpt lat="39.27150992383865" lon="8.850478835803152"><ele>63.0</ele><time>2026-04-10T08:18:21Z</time></trkpt><trkpt lat="39.27158734222643" lon="8.85027822575083"><ele>63.0</ele><time>2026-04-10T08:18:22Z</time></trkpt><trkpt lat="39.271667278085395" lon="8.85006122414883"><ele>63.0</ele><time>2026-04-10T08:18:23Z</time></trkpt><trkpt lat="39.271750809166335" lon="8.849835267394992"><ele>63.0</ele><time>2026-04-10T08:18:24Z</time></trkpt><trkpt lat="39.271835387320415" lon="8.849594943455086"><ele>63.0</ele><time>2026-04-10T08:18:25Z</time></trkpt><trkpt lat="39.27191987977021" lon="8.849341179644721"><ele>63.0</ele><time>2026-04-10T08:18:26Z</time></trkpt><trkpt lat="39.272002903525525" lon="8.84907891825482"><ele>57.5</ele><time>2026-04-10T08:18:27Z</time></trkpt><trkpt lat="39.27208742323015" lon="8.848810162888995"><ele>52.0</ele><time>2026-04-10T08:18:28Z</time></trkpt><trkpt lat="39.27217181840597" lon="8.848539172409707"><ele>49.5</ele><time>2026-04-10T08:18:29Z</time></trkpt><trkpt lat="39.27225653826629" lon="8.8482628244026"><ele>47.0</ele><time>2026-04-10T08:18:30Z</time></trkpt><trkpt lat="39.272339267983924" lon="8.847981041468246"><ele>46.5</ele><time>2026-04-10T08:18:31Z</time></trkpt><trkpt lat="39.27242071754107" lon="8.847691200220698"><ele>46.0</ele><time>2026-04-10T08:18:32Z</time></trkpt><trkpt lat="39.272501902192204" lon="8.847412365363317"><ele>45.0</ele><time>2026-04-10T08:18:33Z</time></trkpt><trkpt lat="39.272579743601284" lon="8.847142894071514"><ele>44.0</ele><time>2026-04-10T08:18:34Z</time></trkpt><trkpt lat="39.27265404136396" lon="8.846883953787945"><ele>43.0</ele><time>2026-04-10T08:18:35Z</time></trkpt><trkpt lat="39.272726420888944" lon="8.846637565261334"><ele>43.0</ele><time>2026-04-10T08:18:36Z</time></trkpt><trkpt lat="39.27280032745096" lon="8.846386704859489"><ele>43.0</ele><time>2026-04-10T08:18:37Z</time></trkpt><trkpt lat="39.27287379076234" lon="8.84613780232009"><ele>43.0</ele><time>2026-04-10T08:18:38Z</time></trkpt><trkpt lat="39.27294738962925" lon="8.845889574556612"><ele>43.333333333333336</ele><time>2026-04-10T08:18:39Z</time></trkpt><trkpt lat="39.27302095309701" lon="8.845643259420475"><ele>43.666666666666664</ele><time>2026-04-10T08:18:40Z</time></trkpt><trkpt lat="39.273094028965346" lon="8.84539533855779"><ele>44.0</ele><time>2026-04-10T08:18:41Z</time></trkpt><trkpt lat="39.27316750441002" lon="8.845144680412144"><ele>44.33333333333333</ele><time>2026-04-10T08:18:42Z</time></trkpt><trkpt lat="39.2732449393731" lon="8.844892589986566"><ele>44.666666666666664</ele><time>2026-04-10T08:18:43Z</time></trkpt><trkpt lat="39.27331806203428" lon="8.84464277626235"><ele>45.0</ele><time>2026-04-10T08:18:44Z</time></trkpt><trkpt lat="39.27338526212792" lon="8.844388727347887"><ele>45.333333333333336</ele><time>2026-04-10T08:18:45Z</time></trkpt><trkpt lat="39.27344524721041" lon="8.844131665766923"><ele>45.66666666666667</ele><time>2026-04-10T08:18:46Z</time></trkpt><trkpt lat="39.27350270244278" lon="8.843873499557578"><ele>46.0</ele><time>2026-04-10T08:18:47Z</time></trkpt><trkpt lat="39.273552345889804" lon="8.843609984222109"><ele>46.0</ele><time>2026-04-10T08:18:48Z</time></trkpt><trkpt lat="39.273596847110184" lon="8.843351441642525"><ele>46.0</ele><time>2026-04-10T08:18:49Z</time></trkpt><trkpt lat="39.27364384196828" lon="8.84308957117271"><ele>46.0</ele><time>2026-04-10T08:18:50Z</time></trkpt><trkpt lat="39.27368953085147" lon="8.84283082851469"><ele>46.0</ele><time>2026-04-10T08:18:51Z</time></trkpt><trkpt lat="39.273737200745174" lon="8.84257338412098"><ele>46.0</ele><time>2026-04-10T08:18:52Z</time></trkpt><trkpt lat="39.27378015914707" lon="8.842309974314517"><ele>46.0</ele><time>2026-04-10T08:18:53Z</time></trkpt><trkpt lat="39.273821523290074" lon="8.842046673751389"><ele>47.0</ele><time>2026-04-10T08:18:54Z</time></trkpt><trkpt lat="39.273866442917985" lon="8.841780260445843"><ele>48.0</ele><time>2026-04-10T08:18:55Z</time></trkpt><trkpt lat="39.27391307128764" lon="8.841510997139276"><ele>49.0</ele><time>2026-04-10T08:18:56Z</time></trkpt><trkpt lat="39.273958428502375" lon="8.841240441908663"><ele>49.0</ele><time>2026-04-10T08:18:57Z</time></trkpt><trkpt lat="39.274004559418955" lon="8.84096663966067"><ele>49.0</ele><time>2026-04-10T08:18:58Z</time></trkpt><trkpt lat="39.27405122373256" lon="8.840687136474209"><ele>49.0</ele><time>2026-04-10T08:18:59Z</time></trkpt><trkpt lat="39.27409844785037" lon="8.84040712915814"><ele>48.666666666666664</ele><time>2026-04-10T08:19:00Z</time></trkpt><trkpt lat="39.27414792381618" lon="8.84012562181544"><ele>48.33333333333333</ele><time>2026-04-10T08:19:01Z</time></trkpt><trkpt lat="39.27419766554696" lon="8.839841509626998"><ele>48.0</ele><time>2026-04-10T08:19:02Z</time></trkpt><trkpt lat="39.274245896623" lon="8.839558027355409"><ele>49.0</ele><time>2026-04-10T08:19:03Z</time></trkpt><trkpt lat="39.27429365092362" lon="8.839274788281392"><ele>50.0</ele><time>2026-04-10T08:19:04Z</time></trkpt><trkpt lat="39.27434093940561" lon="8.838989209733146"><ele>50.0</ele><time>2026-04-10T08:19:05Z</time></trkpt><trkpt lat="39.27438828725957" lon="8.83870883744087"><ele>50.0</ele><time>2026-04-10T08:19:06Z</time></trkpt><trkpt lat="39.274435930988034" lon="8.838433642759954"><ele>50.0</ele><time>2026-04-10T08:19:07Z</time></trkpt><trkpt lat="39.27448193229864" lon="8.838167428360787"><ele>51.0</ele><time>2026-04-10T08:19:08Z</time></trkpt><trkpt lat="39.27452846084152" lon="8.837907638744122"><ele>52.0</ele><time>2026-04-10T08:19:09Z</time></trkpt><trkpt lat="39.27457212924878" lon="8.837655111719277"><ele>53.0</ele><time>2026-04-10T08:19:10Z</time></trkpt><trkpt lat="39.274613966140734" lon="8.837405826758669"><ele>53.333333333333336</ele><time>2026-04-10T08:19:11Z</time></trkpt><trkpt lat="39.27465485995998" lon="8.837174952875007"><ele>53.66666666666667</ele><time>2026-04-10T08:19:12Z</time></trkpt><trkpt lat="39.27469354822711" lon="8.836957164422724"><ele>54.0</ele><time>2026-04-10T08:19:13Z</time></trkpt><trkpt lat="39.2747279890708" lon="8.836755076232965"><ele>57.0</ele><time>2026-04-10T08:19:14Z</time></trkpt><trkpt lat="39.27476009042008" lon="8.836568583829257"><ele>60.0</ele><time>2026-04-10T08:19:15Z</time></trkpt><trkpt lat="39.27479050830471" lon="8.83637955746936"><ele>63.0</ele><time>2026-04-10T08:19:16Z</time></trkpt><trkpt lat="39.27481662832988" lon="8.83618588104519"><ele>63.0</ele><time>2026-04-10T08:19:17Z</time></trkpt><trkpt lat="39.274828989878166" lon="8.835988050100582"><ele>63.0</ele><time>2026-04-10T08:19:18Z</time></trkpt><trkpt lat="39.27483204360701" lon="8.835783877446096"><ele>63.0</ele><time>2026-04-10T08:19:19Z</time></trkpt><trkpt lat="39.274824109214485" lon="8.835560737007901"><ele>63.33333333333333</ele><time>2026-04-10T08:19:20Z</time></trkpt><trkpt lat="39.2747994122858" lon="8.835319740332599"><ele>63.666666666666664</ele><time>2026-04-10T08:19:21Z</time></trkpt><trkpt lat="39.27476614442201" lon="8.835075458255645"><ele>64.0</ele><time>2026-04-10T08:19:22Z</time></trkpt><trkpt lat="39.27472817290463" lon="8.834816475739201"><ele>62.0</ele><time>2026-04-10T08:19:23Z</time></trkpt><trkpt lat="39.27469210887236" lon="8.834544388143978"><ele>60.0</ele><time>2026-04-10T08:19:24Z</time></trkpt><trkpt lat="39.27465772507842" lon="8.834268131703691"><ele>58.0</ele><time>2026-04-10T08:19:25Z</time></trkpt><trkpt lat="39.27462239395702" lon="8.833994586797834"><ele>57.666666666666664</ele><time>2026-04-10T08:19:26Z</time></trkpt><trkpt lat="39.27458315219673" lon="8.833719880194154"><ele>57.33333333333333</ele><time>2026-04-10T08:19:27Z</time></trkpt><trkpt lat="39.27454525835142" lon="8.833439306526119"><ele>57.0</ele><time>2026-04-10T08:19:28Z</time></trkpt><trkpt lat="39.27450695695908" lon="8.833163533829458"><ele>56.66666666666667</ele><time>2026-04-10T08:19:29Z</time></trkpt><trkpt lat="39.27446722688365" lon="8.832892690654539"><ele>56.333333333333336</ele><time>2026-04-10T08:19:30Z</time></trkpt><trkpt lat="39.27443221336398" lon="8.832635301613426"><ele>56.0</ele><time>2026-04-10T08:19:31Z</time></trkpt><trkpt lat="39.27439920554822" lon="8.832388885733886"><ele>55.66666666666667</ele><time>2026-04-10T08:19:32Z</time></trkpt><trkpt lat="39.274366295607834" lon="8.832149477165638"><ele>55.33333333333333</ele><time>2026-04-10T08:19:33Z</time></trkpt><trkpt lat="39.27433288328055" lon="8.831905700148328"><ele>55.0</ele><time>2026-04-10T08:19:34Z</time></trkpt><trkpt lat="39.27429865651806" lon="8.831661296071234"><ele>55.0</ele><time>2026-04-10T08:19:35Z</time></trkpt><trkpt lat="39.274265113693886" lon="8.831420833744026"><ele>55.0</ele><time>2026-04-10T08:19:36Z</time></trkpt><trkpt lat="39.27423172520961" lon="8.831181929417902"><ele>55.0</ele><time>2026-04-10T08:19:37Z</time></trkpt><trkpt lat="39.27419968742879" lon="8.830953919527449"><ele>55.33333333333333</ele><time>2026-04-10T08:19:38Z</time></trkpt><trkpt lat="39.2741692067863" lon="8.830733107777336"><ele>55.66666666666667</ele><time>2026-04-10T08:19:39Z</time></trkpt><trkpt lat="39.274141032429114" lon="8.830512941285614"><ele>56.0</ele><time>2026-04-10T08:19:40Z</time></trkpt><trkpt lat="39.27411092630545" lon="8.83028763191883"><ele>56.333333333333336</ele><time>2026-04-10T08:19:41Z</time></trkpt><trkpt lat="39.274079428999435" lon="8.830066655616376"><ele>56.66666666666667</ele><time>2026-04-10T08:19:42Z</time></trkpt><trkpt lat="39.27404636923908" lon="8.829843012325641"><ele>57.0</ele><time>2026-04-10T08:19:43Z</time></trkpt><trkpt lat="39.27401524470501" lon="8.829620896218687"><ele>57.0</ele><time>2026-04-10T08:19:44Z</time></trkpt><trkpt lat="39.273986587143376" lon="8.829394509079737"><ele>57.0</ele><time>2026-04-10T08:19:45Z</time></trkpt><trkpt lat="39.273955666050966" lon="8.829168889189846"><ele>57.0</ele><time>2026-04-10T08:19:46Z</time></trkpt><trkpt lat="39.27392360371595" lon="8.828944864094474"><ele>58.0</ele><time>2026-04-10T08:19:47Z</time></trkpt><trkpt lat="39.273891787135" lon="8.82871628733864"><ele>59.0</ele><time>2026-04-10T08:19:48Z</time></trkpt><trkpt lat="39.27385929400625" lon="8.828487304508183"><ele>60.0</ele><time>2026-04-10T08:19:49Z</time></trkpt><trkpt lat="39.27382681609263" lon="8.828247371354841"><ele>60.33333333333333</ele><time>2026-04-10T08:19:50Z</time></trkpt><trkpt lat="39.27379278070861" lon="8.82799112063822"><ele>60.666666666666664</ele><time>2026-04-10T08:19:51Z</time></trkpt><trkpt lat="39.27375549315564" lon="8.827723094332754"><ele>61.0</ele><time>2026-04-10T08:19:52Z</time></trkpt><trkpt lat="39.27371677900109" lon="8.827450474887673"><ele>61.5</ele><time>2026-04-10T08:19:53Z</time></trkpt><trkpt lat="39.27367813436802" lon="8.827153590076664"><ele>62.0</ele><time>2026-04-10T08:19:54Z</time></trkpt><trkpt lat="39.273638262876865" lon="8.826846898931223"><ele>63.0</ele><time>2026-04-10T08:19:55Z</time></trkpt><trkpt lat="39.27359785494235" lon="8.826540890764353"><ele>64.0</ele><time>2026-04-10T08:19:56Z</time></trkpt><trkpt lat="39.273558265711486" lon="8.826245051985643"><ele>65.33333333333333</ele><time>2026-04-10T08:19:57Z</time></trkpt><trkpt lat="39.27351949695303" lon="8.825973311400617"><ele>66.66666666666667</ele><time>2026-04-10T08:19:58Z</time></trkpt><trkpt lat="39.27348335751022" lon="8.825716611163092"><ele>68.0</ele><time>2026-04-10T08:19:59Z</time></trkpt><trkpt lat="39.273451421263914" lon="8.825468156298658"><ele>68.0</ele><time>2026-04-10T08:20:00Z</time></trkpt><trkpt lat="39.27342039923628" lon="8.825230337154725"><ele>68.0</ele><time>2026-04-10T08:20:01Z</time></trkpt><trkpt lat="39.27338913797363" lon="8.825000585184775"><ele>68.0</ele><time>2026-04-10T08:20:02Z</time></trkpt><trkpt lat="39.273354820255236" lon="8.824765527253298"><ele>67.0</ele><time>2026-04-10T08:20:03Z</time></trkpt><trkpt lat="39.27331945391056" lon="8.824518910765029"><ele>66.0</ele><time>2026-04-10T08:20:04Z</time></trkpt><trkpt lat="39.273284167426254" lon="8.824265029848915"><ele>65.0</ele><time>2026-04-10T08:20:05Z</time></trkpt><trkpt lat="39.27325030596835" lon="8.824007783664195"><ele>64.66666666666667</ele><time>2026-04-10T08:20:06Z</time></trkpt><trkpt lat="39.27321415929267" lon="8.823742792597754"><ele>64.33333333333333</ele><time>2026-04-10T08:20:07Z</time></trkpt><trkpt lat="39.27317626185386" lon="8.823468897385894"><ele>64.0</ele><time>2026-04-10T08:20:08Z</time></trkpt><trkpt lat="39.27313388509704" lon="8.823188147675387"><ele>63.5</ele><time>2026-04-10T08:20:09Z</time></trkpt><trkpt lat="39.27309327085828" lon="8.822901890545504"><ele>63.0</ele><time>2026-04-10T08:20:10Z</time></trkpt><trkpt lat="39.27305068951491" lon="8.822605018331663"><ele>63.0</ele><time>2026-04-10T08:20:11Z</time></trkpt><trkpt lat="39.27300987601752" lon="8.822308343439106"><ele>63.0</ele><time>2026-04-10T08:20:12Z</time></trkpt><trkpt lat="39.27298317569443" lon="8.821997953213636"><ele>63.0</ele><time>2026-04-10T08:20:13Z</time></trkpt><trkpt lat="39.27292637910858" lon="8.821688884993268"><ele>63.0</ele><time>2026-04-10T08:20:14Z</time></trkpt><trkpt lat="39.27288448330347" lon="8.821372178632487"><ele>63.0</ele><time>2026-04-10T08:20:15Z</time></trkpt><trkpt lat="39.272841280246205" lon="8.821050297435079"><ele>63.0</ele><time>2026-04-10T08:20:16Z</time></trkpt><trkpt lat="39.27279734598284" lon="8.820739074735176"><ele>64.0</ele><time>2026-04-10T08:20:17Z</time></trkpt><trkpt lat="39.27275423108625" lon="8.820436115037259"><ele>65.0</ele><time>2026-04-10T08:20:18Z</time></trkpt><trkpt lat="39.27271414546809" lon="8.820133517564551"><ele>66.0</ele><time>2026-04-10T08:20:19Z</time></trkpt><trkpt lat="39.272677017779" lon="8.819843643092042"><ele>67.0</ele><time>2026-04-10T08:20:20Z</time></trkpt><trkpt lat="39.272639891087664" lon="8.81955833916691"><ele>68.33333333333333</ele><time>2026-04-10T08:20:21Z</time></trkpt><trkpt lat="39.272604307272104" lon="8.819273336295087"><ele>69.66666666666667</ele><time>2026-04-10T08:20:22Z</time></trkpt><trkpt lat="39.27256638268062" lon="8.81900356150256"><ele>71.0</ele><time>2026-04-10T08:20:23Z</time></trkpt><trkpt lat="39.27252939062875" lon="8.818739517123053"><ele>71.0</ele><time>2026-04-10T08:20:24Z</time></trkpt><trkpt lat="39.272491336471234" lon="8.818477551077937"><ele>71.0</ele><time>2026-04-10T08:20:25Z</time></trkpt><trkpt lat="39.27245667259092" lon="8.818221570032044"><ele>71.0</ele><time>2026-04-10T08:20:26Z</time></trkpt><trkpt lat="39.27242054806282" lon="8.817975032148846"><ele>71.0</ele><time>2026-04-10T08:20:27Z</time></trkpt><trkpt lat="39.27238587544555" lon="8.817731348805882"><ele>71.0</ele><time>2026-04-10T08:20:28Z</time></trkpt><trkpt lat="39.272348541885485" lon="8.817500276585204"><ele>71.0</ele><time>2026-04-10T08:20:29Z</time></trkpt><trkpt lat="39.27231279469823" lon="8.817266674313096"><ele>73.33333333333334</ele><time>2026-04-10T08:20:30Z</time></trkpt><trkpt lat="39.27224321007881" lon="8.817044758385759"><ele>75.66666666666667</ele><time>2026-04-10T08:20:31Z</time></trkpt><trkpt lat="39.272142302387756" lon="8.816849256482788"><ele>78.0</ele><time>2026-04-10T08:20:32Z</time></trkpt><trkpt lat="39.27204886212484" lon="8.816654026262475"><ele>78.66666666666667</ele><time>2026-04-10T08:20:33Z</time></trkpt><trkpt lat="39.27197065319854" lon="8.81645130294377"><ele>79.33333333333334</ele><time>2026-04-10T08:20:34Z</time></trkpt><trkpt lat="39.271888211713794" lon="8.816276807574065"><ele>80.0</ele><time>2026-04-10T08:20:35Z</time></trkpt><trkpt lat="39.271816418915925" lon="8.816124851142098"><ele>80.0</ele><time>2026-04-10T08:20:36Z</time></trkpt><trkpt lat="39.27175117836958" lon="8.815986763234452"><ele>80.0</ele><time>2026-04-10T08:20:37Z</time></trkpt><trkpt lat="39.27167912644908" lon="8.815874565312901"><ele>80.0</ele><time>2026-04-10T08:20:38Z</time></trkpt><trkpt lat="39.27162578373708" lon="8.815755042071482"><ele>80.0</ele><time>2026-04-10T08:20:39Z</time></trkpt><trkpt lat="39.27157843367398" lon="8.815647610071327"><ele>80.0</ele><time>2026-04-10T08:20:40Z</time></trkpt><trkpt lat="39.27153259358653" lon="8.815551656322073"><ele>80.16666666666667</ele><time>2026-04-10T08:20:41Z</time></trkpt><trkpt lat="39.2714931537422" lon="8.815467452426088"><ele>80.33333333333334</ele><time>2026-04-10T08:20:42Z</time></trkpt><trkpt lat="39.27146403125596" lon="8.815392368475388"><ele>80.5</ele><time>2026-04-10T08:20:43Z</time></trkpt><trkpt lat="39.271428952827655" lon="8.815238471460376"><ele>80.66666666666667</ele><time>2026-04-10T08:20:45Z</time></trkpt><trkpt lat="39.271421073297645" lon="8.815147241603116"><ele>80.83333333333333</ele><time>2026-04-10T08:20:46Z</time></trkpt><trkpt lat="39.27141440571701" lon="8.815014868381933"><ele>81.0</ele><time>2026-04-10T08:20:48Z</time></trkpt><trkpt lat="39.271400047470785" lon="8.814855070772818"><ele>81.4</ele><time>2026-04-10T08:20:50Z</time></trkpt><trkpt lat="39.27136564989178" lon="8.814769094697443"><ele>81.8</ele><time>2026-04-10T08:20:51Z</time></trkpt><trkpt lat="39.271277388626615" lon="8.814675842071003"><ele>82.2</ele><time>2026-04-10T08:20:53Z</time></trkpt><trkpt lat="39.27120122008016" lon="8.814667719682198"><ele>82.60000000000001</ele><time>2026-04-10T08:20:54Z</time></trkpt><trkpt lat="39.27110770812964" lon="8.814693281601192"><ele>83.0</ele><time>2026-04-10T08:20:55Z</time></trkpt><trkpt lat="39.270998823085094" lon="8.814748058529078"><ele>83.0</ele><time>2026-04-10T08:20:56Z</time></trkpt><trkpt lat="39.270878570604786" lon="8.814805830879239"><ele>83.0</ele><time>2026-04-10T08:20:57Z</time></trkpt><trkpt lat="39.27075784316851" lon="8.814859533678048"><ele>83.0</ele><time>2026-04-10T08:20:58Z</time></trkpt><trkpt lat="39.270642655466396" lon="8.814903984773082"><ele>83.0</ele><time>2026-04-10T08:20:59Z</time></trkpt><trkpt lat="39.27053840562702" lon="8.814935795667916"><ele>82.0</ele><time>2026-04-10T08:21:00Z</time></trkpt><trkpt lat="39.270439230442975" lon="8.814953293158974"><ele>81.0</ele><time>2026-04-10T08:21:01Z</time></trkpt><trkpt lat="39.27034425372581" lon="8.814950890313895"><ele>80.0</ele><time>2026-04-10T08:21:02Z</time></trkpt><trkpt lat="39.2702567199842" lon="8.814925630176997"><ele>79.0</ele><time>2026-04-10T08:21:03Z</time></trkpt><trkpt lat="39.2701735694304" lon="8.814869101858076"><ele>78.0</ele><time>2026-04-10T08:21:04Z</time></trkpt><trkpt lat="39.27010715609561" lon="8.814768806671244"><ele>78.0</ele><time>2026-04-10T08:21:05Z</time></trkpt><trkpt lat="39.27009647796356" lon="8.814603999264403"><ele>78.0</ele><time>2026-04-10T08:21:06Z</time></trkpt><trkpt lat="39.27003672329341" lon="8.814452986149044"><ele>78.0</ele><time>2026-04-10T08:21:07Z</time></trkpt><trkpt lat="39.26999842686502" lon="8.81431300158452"><ele>78.0</ele><time>2026-04-10T08:21:08Z</time></trkpt><trkpt lat="39.2699256663147" lon="8.814229088943705"><ele>78.25</ele><time>2026-04-10T08:21:09Z</time></trkpt><trkpt lat="39.26984017700444" lon="8.814161994696649"><ele>78.5</ele><time>2026-04-10T08:21:10Z</time></trkpt><trkpt lat="39.26972954987938" lon="8.814191401935698"><ele>78.75</ele><time>2026-04-10T08:21:11Z</time></trkpt><trkpt lat="39.26962305332289" lon="8.814255315856485"><ele>79.0</ele><time>2026-04-10T08:21:12Z</time></trkpt><trkpt lat="39.26952537845812" lon="8.814357140827592"><ele>78.25</ele><time>2026-04-10T08:21:13Z</time></trkpt><trkpt lat="39.269432242225776" lon="8.814466233529467"><ele>77.5</ele><time>2026-04-10T08:21:14Z</time></trkpt><trkpt lat="39.26935287962111" lon="8.81458437881487"><ele>76.75</ele><time>2026-04-10T08:21:15Z</time></trkpt><trkpt lat="39.26930183025862" lon="8.814718555526902"><ele>76.0</ele><time>2026-04-10T08:21:16Z</time></trkpt><trkpt lat="39.26927616589697" lon="8.814860199305071"><ele>76.0</ele><time>2026-04-10T08:21:17Z</time></trkpt><trkpt lat="39.26924539889821" lon="8.8149915294847"><ele>76.0</ele><time>2026-04-10T08:21:18Z</time></trkpt><trkpt lat="39.269194701137316" lon="8.815089821327769"><ele>76.0</ele><time>2026-04-10T08:21:19Z</time></trkpt><trkpt lat="39.2691448413698" lon="8.815177634736779"><ele>76.0</ele><time>2026-04-10T08:21:20Z</time></trkpt><trkpt lat="39.269096391575296" lon="8.815261491101083"><ele>76.0</ele><time>2026-04-10T08:21:21Z</time></trkpt><trkpt lat="39.26903294080348" lon="8.815356208140223"><ele>75.6</ele><time>2026-04-10T08:21:22Z</time></trkpt><trkpt lat="39.26897117793939" lon="8.8154261331459"><ele>75.19999999999999</ele><time>2026-04-10T08:21:23Z</time></trkpt><trkpt lat="39.26890177832084" lon="8.815470893958391"><ele>74.80000000000001</ele><time>2026-04-10T08:21:24Z</time></trkpt><trkpt lat="39.26881131082261" lon="8.81547820546952"><ele>74.4</ele><time>2026-04-10T08:21:25Z</time></trkpt><trkpt lat="39.26870698993528" lon="8.815435125062779"><ele>74.0</ele><time>2026-04-10T08:21:26Z</time></trkpt><trkpt lat="39.26860485888683" lon="8.815345021462491"><ele>74.0</ele><time>2026-04-10T08:21:27Z</time></trkpt><trkpt lat="39.26851274998315" lon="8.815212388038203"><ele>74.0</ele><time>2026-04-10T08:21:28Z</time></trkpt><trkpt lat="39.26843150350602" lon="8.81508092814662"><ele>74.0</ele><time>2026-04-10T08:21:29Z</time></trkpt><trkpt lat="39.26835012253323" lon="8.814983388028734"><ele>74.0</ele><time>2026-04-10T08:21:30Z</time></trkpt><trkpt lat="39.26825979414388" lon="8.814931793661458"><ele>74.4</ele><time>2026-04-10T08:21:31Z</time></trkpt><trkpt lat="39.26815401214901" lon="8.814929649719344"><ele>74.80000000000001</ele><time>2026-04-10T08:21:32Z</time></trkpt><trkpt lat="39.26804934928392" lon="8.814981559859527"><ele>75.19999999999999</ele><time>2026-04-10T08:21:33Z</time></trkpt><trkpt lat="39.267960788257234" lon="8.815062564328576"><ele>75.6</ele><time>2026-04-10T08:21:34Z</time></trkpt><trkpt lat="39.26789293422859" lon="8.815154550826573"><ele>76.0</ele><time>2026-04-10T08:21:35Z</time></trkpt><trkpt lat="39.267852773099776" lon="8.815255274609662"><ele>76.83333333333333</ele><time>2026-04-10T08:21:36Z</time></trkpt><trkpt lat="39.26784061736605" lon="8.815360826918768"><ele>77.66666666666666</ele><time>2026-04-10T08:21:37Z</time></trkpt><trkpt lat="39.267840018944845" lon="8.815466110634521"><ele>78.5</ele><time>2026-04-10T08:21:38Z</time></trkpt><trkpt lat="39.267817330906205" lon="8.815565944272327"><ele>79.33333333333333</ele><time>2026-04-10T08:21:39Z</time></trkpt><trkpt lat="39.26775611945828" lon="8.815658774340724"><ele>80.16666666666667</ele><time>2026-04-10T08:21:40Z</time></trkpt><trkpt lat="39.26767254300519" lon="8.815726211749727"><ele>81.0</ele><time>2026-04-10T08:21:41Z</time></trkpt><trkpt lat="39.26758118339677" lon="8.815744916939465"><ele>81.0</ele><time>2026-04-10T08:21:42Z</time></trkpt><trkpt lat="39.26748895975903" lon="8.815714440662315"><ele>81.0</ele><time>2026-04-10T08:21:43Z</time></trkpt><trkpt lat="39.267387373342245" lon="8.81564094421443"><ele>81.0</ele><time>2026-04-10T08:21:44Z</time></trkpt><trkpt lat="39.267263633725584" lon="8.815546263432232"><ele>81.0</ele><time>2026-04-10T08:21:45Z</time></trkpt><trkpt lat="39.26714138400735" lon="8.815469691074217"><ele>82.25</ele><time>2026-04-10T08:21:46Z</time></trkpt><trkpt lat="39.26701907530254" lon="8.81541569488323"><ele>83.5</ele><time>2026-04-10T08:21:47Z</time></trkpt><trkpt lat="39.26690293697043" lon="8.815383243123328"><ele>84.75</ele><time>2026-04-10T08:21:48Z</time></trkpt><trkpt lat="39.266795784045115" lon="8.815361297869519"><ele>86.0</ele><time>2026-04-10T08:21:49Z</time></trkpt><trkpt lat="39.266679541608426" lon="8.81535204794794"><ele>86.0</ele><time>2026-04-10T08:21:50Z</time></trkpt><trkpt lat="39.26655315642024" lon="8.815351168168752"><ele>86.0</ele><time>2026-04-10T08:21:51Z</time></trkpt><trkpt lat="39.26642866616488" lon="8.815358334667632"><ele>86.0</ele><time>2026-04-10T08:21:52Z</time></trkpt><trkpt lat="39.26630466644953" lon="8.815368860036099"><ele>86.0</ele><time>2026-04-10T08:21:53Z</time></trkpt><trkpt lat="39.266170373704355" lon="8.815376662510142"><ele>84.66666666666667</ele><time>2026-04-10T08:21:54Z</time></trkpt><trkpt lat="39.266022861705665" lon="8.815384643294431"><ele>83.33333333333333</ele><time>2026-04-10T08:21:55Z</time></trkpt><trkpt lat="39.26587501258409" lon="8.815392587287851"><ele>82.0</ele><time>2026-04-10T08:21:56Z</time></trkpt><trkpt lat="39.26572099563232" lon="8.815400517208538"><ele>82.0</ele><time>2026-04-10T08:21:57Z</time></trkpt><trkpt lat="39.26557458951889" lon="8.81540891159712"><ele>82.0</ele><time>2026-04-10T08:21:58Z</time></trkpt><trkpt lat="39.26543496621358" lon="8.815417581580077"><ele>82.0</ele><time>2026-04-10T08:21:59Z</time></trkpt><trkpt lat="39.26529368409309" lon="8.81542640254793"><ele>82.0</ele><time>2026-04-10T08:22:00Z</time></trkpt><trkpt lat="39.26514890127154" lon="8.815437522922688"><ele>82.0</ele><time>2026-04-10T08:22:01Z</time></trkpt><trkpt lat="39.26500602428745" lon="8.815451941191817"><ele>82.0</ele><time>2026-04-10T08:22:02Z</time></trkpt><trkpt lat="39.264863200675705" lon="8.815462751649003"><ele>82.0</ele><time>2026-04-10T08:22:03Z</time></trkpt><trkpt lat="39.264709506336494" lon="8.81546706022362"><ele>82.0</ele><time>2026-04-10T08:22:04Z</time></trkpt><trkpt lat="39.26454273908947" lon="8.815473289169955"><ele>82.66666666666666</ele><time>2026-04-10T08:22:05Z</time></trkpt><trkpt lat="39.26436913006687" lon="8.815483690458949"><ele>83.33333333333333</ele><time>2026-04-10T08:22:06Z</time></trkpt><trkpt lat="39.26418743322079" lon="8.815494950556346"><ele>84.0</ele><time>2026-04-10T08:22:07Z</time></trkpt><trkpt lat="39.26400156610856" lon="8.815504114153889"><ele>84.66666666666667</ele><time>2026-04-10T08:22:08Z</time></trkpt><trkpt lat="39.26383105069895" lon="8.815511182859783"><ele>85.33333333333334</ele><time>2026-04-10T08:22:09Z</time></trkpt><trkpt lat="39.263670308838606" lon="8.815518290792863"><ele>86.0</ele><time>2026-04-10T08:22:10Z</time></trkpt><trkpt lat="39.26351944357874" lon="8.815528112668211"><ele>86.0</ele><time>2026-04-10T08:22:11Z</time></trkpt><trkpt lat="39.26337416460566" lon="8.815539451944014"><ele>86.0</ele><time>2026-04-10T08:22:12Z</time></trkpt><trkpt lat="39.26322617487967" lon="8.815549924192567"><ele>86.0</ele><time>2026-04-10T08:22:13Z</time></trkpt><trkpt lat="39.26307085707257" lon="8.815560384569684"><ele>86.0</ele><time>2026-04-10T08:22:14Z</time></trkpt><trkpt lat="39.26290932705048" lon="8.815569628490218"><ele>86.0</ele><time>2026-04-10T08:22:15Z</time></trkpt><trkpt lat="39.26274357871355" lon="8.815579028088848"><ele>86.0</ele><time>2026-04-10T08:22:16Z</time></trkpt><trkpt lat="39.26256607855376" lon="8.815593296002852"><ele>86.0</ele><time>2026-04-10T08:22:17Z</time></trkpt><trkpt lat="39.2623751877102" lon="8.815605643388126"><ele>86.66666666666667</ele><time>2026-04-10T08:22:18Z</time></trkpt><trkpt lat="39.26217269581717" lon="8.815617609869728"><ele>87.33333333333333</ele><time>2026-04-10T08:22:19Z</time></trkpt><trkpt lat="39.26196421291335" lon="8.81563436148728"><ele>88.0</ele><time>2026-04-10T08:22:20Z</time></trkpt><trkpt lat="39.26175402613384" lon="8.815648823234554"><ele>88.0</ele><time>2026-04-10T08:22:21Z</time></trkpt><trkpt lat="39.26153816871388" lon="8.815664503144438"><ele>88.0</ele><time>2026-04-10T08:22:22Z</time></trkpt><trkpt lat="39.2613144458655" lon="8.815660478457804"><ele>88.0</ele><time>2026-04-10T08:22:23Z</time></trkpt><trkpt lat="39.26109344025206" lon="8.815701093191207"><ele>88.0</ele><time>2026-04-10T08:22:24Z</time></trkpt><trkpt lat="39.2608748808262" lon="8.815733356505788"><ele>88.0</ele><time>2026-04-10T08:22:25Z</time></trkpt><trkpt lat="39.26065573729933" lon="8.815785338952399"><ele>88.0</ele><time>2026-04-10T08:22:26Z</time></trkpt><trkpt lat="39.26044051108412" lon="8.815846051988549"><ele>87.66666666666666</ele><time>2026-04-10T08:22:27Z</time></trkpt><trkpt lat="39.260234835882244" lon="8.81591155871845"><ele>87.33333333333333</ele><time>2026-04-10T08:22:28Z</time></trkpt><trkpt lat="39.260020423494474" lon="8.815979408338512"><ele>87.0</ele><time>2026-04-10T08:22:29Z</time></trkpt><trkpt lat="39.25980503513187" lon="8.816044152944187"><ele>86.66666666666667</ele><time>2026-04-10T08:22:30Z</time></trkpt><trkpt lat="39.25958939207212" lon="8.81610405535837"><ele>86.33333333333334</ele><time>2026-04-10T08:22:31Z</time></trkpt><trkpt lat="39.259374839600056" lon="8.8161627955254"><ele>86.0</ele><time>2026-04-10T08:22:32Z</time></trkpt><trkpt lat="39.25917180053988" lon="8.816219784376665"><ele>86.0</ele><time>2026-04-10T08:22:33Z</time></trkpt><trkpt lat="39.25897876436919" lon="8.816276522112567"><ele>86.0</ele><time>2026-04-10T08:22:34Z</time></trkpt><trkpt lat="39.25878650247662" lon="8.816334161773355"><ele>86.0</ele><time>2026-04-10T08:22:35Z</time></trkpt><trkpt lat="39.25859216038319" lon="8.81639257148576"><ele>86.0</ele><time>2026-04-10T08:22:36Z</time></trkpt><trkpt lat="39.25839538465816" lon="8.816449491268747"><ele>86.0</ele><time>2026-04-10T08:22:37Z</time></trkpt><trkpt lat="39.25819844441691" lon="8.816507989352782"><ele>86.0</ele><time>2026-04-10T08:22:38Z</time></trkpt><trkpt lat="39.258000213408344" lon="8.816564668347866"><ele>86.0</ele><time>2026-04-10T08:22:39Z</time></trkpt><trkpt lat="39.257799127599114" lon="8.816623432809632"><ele>86.0</ele><time>2026-04-10T08:22:40Z</time></trkpt><trkpt lat="39.25760061888178" lon="8.816681565791425"><ele>86.0</ele><time>2026-04-10T08:22:41Z</time></trkpt><trkpt lat="39.25739989037863" lon="8.816738323698752"><ele>87.66666666666667</ele><time>2026-04-10T08:22:42Z</time></trkpt><trkpt lat="39.25720101087116" lon="8.816796280699254"><ele>89.33333333333333</ele><time>2026-04-10T08:22:43Z</time></trkpt><trkpt lat="39.25701289759942" lon="8.81685120079968"><ele>91.0</ele><time>2026-04-10T08:22:44Z</time></trkpt><trkpt lat="39.25683818885407" lon="8.81689834275223"><ele>91.0</ele><time>2026-04-10T08:22:45Z</time></trkpt><trkpt lat="39.25666615750936" lon="8.816945657571305"><ele>91.0</ele><time>2026-04-10T08:22:46Z</time></trkpt><trkpt lat="39.256489483616576" lon="8.816996432132493"><ele>91.0</ele><time>2026-04-10T08:22:47Z</time></trkpt><trkpt lat="39.25630781395987" lon="8.81704981226989"><ele>91.0</ele><time>2026-04-10T08:22:48Z</time></trkpt><trkpt lat="39.25612369277671" lon="8.817104072549247"><ele>91.0</ele><time>2026-04-10T08:22:49Z</time></trkpt><trkpt lat="39.25593491955023" lon="8.817159479632242"><ele>91.0</ele><time>2026-04-10T08:22:50Z</time></trkpt><trkpt lat="39.25574051219411" lon="8.81721694532271"><ele>91.33333333333333</ele><time>2026-04-10T08:22:51Z</time></trkpt><trkpt lat="39.25554265249075" lon="8.817274196242499"><ele>91.66666666666667</ele><time>2026-04-10T08:22:52Z</time></trkpt><trkpt lat="39.2553386062481" lon="8.817331101823502"><ele>92.0</ele><time>2026-04-10T08:22:53Z</time></trkpt><trkpt lat="39.255134311115924" lon="8.81739047462775"><ele>92.0</ele><time>2026-04-10T08:22:54Z</time></trkpt><trkpt lat="39.25492987604187" lon="8.817451171559611"><ele>92.0</ele><time>2026-04-10T08:22:55Z</time></trkpt><trkpt lat="39.25472978302931" lon="8.817511094006273"><ele>92.0</ele><time>2026-04-10T08:22:56Z</time></trkpt><trkpt lat="39.25453054866954" lon="8.817568411293436"><ele>92.0</ele><time>2026-04-10T08:22:57Z</time></trkpt><trkpt lat="39.254339210135875" lon="8.817622816815861"><ele>92.0</ele><time>2026-04-10T08:22:58Z</time></trkpt><trkpt lat="39.25416189327411" lon="8.817672539854811"><ele>92.0</ele><time>2026-04-10T08:22:59Z</time></trkpt><trkpt lat="39.253992556661" lon="8.817718244195387"><ele>91.66666666666667</ele><time>2026-04-10T08:23:00Z</time></trkpt><trkpt lat="39.253832262706354" lon="8.817753620590574"><ele>91.33333333333333</ele><time>2026-04-10T08:23:01Z</time></trkpt><trkpt lat="39.25367885408847" lon="8.817766964396547"><ele>91.0</ele><time>2026-04-10T08:23:02Z</time></trkpt><trkpt lat="39.253525227156786" lon="8.817737453662486"><ele>91.0</ele><time>2026-04-10T08:23:03Z</time></trkpt><trkpt lat="39.25335283223986" lon="8.817663622909137"><ele>91.0</ele><time>2026-04-10T08:23:04Z</time></trkpt><trkpt lat="39.25315612061263" lon="8.817617685514952"><ele>91.0</ele><time>2026-04-10T08:23:05Z</time></trkpt><trkpt lat="39.252953148243286" lon="8.8175915160398"><ele>93.0</ele><time>2026-04-10T08:23:06Z</time></trkpt><trkpt lat="39.252758698945925" lon="8.817508686118295"><ele>95.0</ele><time>2026-04-10T08:23:07Z</time></trkpt><trkpt lat="39.252556494036355" lon="8.817465939703071"><ele>97.0</ele><time>2026-04-10T08:23:08Z</time></trkpt><trkpt lat="39.25236969593692" lon="8.817424864504666"><ele>96.33333333333334</ele><time>2026-04-10T08:23:09Z</time></trkpt><trkpt lat="39.25219693670259" lon="8.817391332765526"><ele>95.66666666666667</ele><time>2026-04-10T08:23:10Z</time></trkpt><trkpt lat="39.2520311532549" lon="8.817355111694006"><ele>95.0</ele><time>2026-04-10T08:23:11Z</time></trkpt><trkpt lat="39.251876604946524" lon="8.817318669470193"><ele>95.0</ele><time>2026-04-10T08:23:12Z</time></trkpt><trkpt lat="39.25172567384311" lon="8.81728596243433"><ele>95.0</ele><time>2026-04-10T08:23:13Z</time></trkpt><trkpt lat="39.25158212683145" lon="8.817271678613997"><ele>95.0</ele><time>2026-04-10T08:23:14Z</time></trkpt><trkpt lat="39.25144911700146" lon="8.817294032580392"><ele>95.0</ele><time>2026-04-10T08:23:15Z</time></trkpt><trkpt lat="39.25132280061603" lon="8.817369371851184"><ele>95.75</ele><time>2026-04-10T08:23:16Z</time></trkpt><trkpt lat="39.251228026950386" lon="8.817511062549789"><ele>96.5</ele><time>2026-04-10T08:23:17Z</time></trkpt><trkpt lat="39.251166848437194" lon="8.817679299381634"><ele>97.25</ele><time>2026-04-10T08:23:18Z</time></trkpt><trkpt lat="39.25113213992344" lon="8.81784897650304"><ele>98.0</ele><time>2026-04-10T08:23:19Z</time></trkpt><trkpt lat="39.25107545183587" lon="8.817984853287646"><ele>98.0</ele><time>2026-04-10T08:23:20Z</time></trkpt><trkpt lat="39.25099055777417" lon="8.818069328175547"><ele>98.0</ele><time>2026-04-10T08:23:21Z</time></trkpt><trkpt lat="39.250884549545844" lon="8.818096783463483"><ele>98.0</ele><time>2026-04-10T08:23:22Z</time></trkpt><trkpt lat="39.25076065504806" lon="8.818062633376526"><ele>98.0</ele><time>2026-04-10T08:23:23Z</time></trkpt><trkpt lat="39.250639636580296" lon="8.817996019972808"><ele>99.5</ele><time>2026-04-10T08:23:24Z</time></trkpt><trkpt lat="39.25055127759788" lon="8.817869042845691"><ele>101.0</ele><time>2026-04-10T08:23:25Z</time></trkpt><trkpt lat="39.25049539781498" lon="8.81769544557667"><ele>102.5</ele><time>2026-04-10T08:23:26Z</time></trkpt><trkpt lat="39.25045990229697" lon="8.817511460889165"><ele>104.0</ele><time>2026-04-10T08:23:27Z</time></trkpt><trkpt lat="39.25041487248931" lon="8.817355528561349"><ele>105.0</ele><time>2026-04-10T08:23:28Z</time></trkpt><trkpt lat="39.25034845659888" lon="8.817232008039246"><ele>106.0</ele><time>2026-04-10T08:23:29Z</time></trkpt><trkpt lat="39.250260566377214" lon="8.817160278452617"><ele>107.0</ele><time>2026-04-10T08:23:30Z</time></trkpt><trkpt lat="39.25015461433766" lon="8.817153694706214"><ele>108.0</ele><time>2026-04-10T08:23:31Z</time></trkpt><trkpt lat="39.250033149957304" lon="8.817195002949967"><ele>108.0</ele><time>2026-04-10T08:23:32Z</time></trkpt><trkpt lat="39.24992296448942" lon="8.817295916546476"><ele>108.0</ele><time>2026-04-10T08:23:33Z</time></trkpt><trkpt lat="39.249820474197904" lon="8.817435670574696"><ele>108.0</ele><time>2026-04-10T08:23:34Z</time></trkpt><trkpt lat="39.24972448037025" lon="8.817569538258894"><ele>108.0</ele><time>2026-04-10T08:23:35Z</time></trkpt><trkpt lat="39.249613560226514" lon="8.817663296096358"><ele>107.75</ele><time>2026-04-10T08:23:36Z</time></trkpt><trkpt lat="39.24947705871451" lon="8.817710727813688"><ele>107.5</ele><time>2026-04-10T08:23:37Z</time></trkpt><trkpt lat="39.24933581428258" lon="8.81771296082712"><ele>107.25</ele><time>2026-04-10T08:23:38Z</time></trkpt><trkpt lat="39.24918316227499" lon="8.817690260188026"><ele>107.0</ele><time>2026-04-10T08:23:39Z</time></trkpt><trkpt lat="39.24901482278072" lon="8.817650957183167"><ele>111.33333333333333</ele><time>2026-04-10T08:23:40Z</time></trkpt><trkpt lat="39.24884152883311" lon="8.817610804335946"><ele>115.66666666666666</ele><time>2026-04-10T08:23:41Z</time></trkpt><trkpt lat="39.248661427884095" lon="8.817575507697354"><ele>120.0</ele><time>2026-04-10T08:23:42Z</time></trkpt><trkpt lat="39.248463820116534" lon="8.817534282388733"><ele>120.0</ele><time>2026-04-10T08:23:43Z</time></trkpt><trkpt lat="39.24825592219604" lon="8.817489335636935"><ele>120.0</ele><time>2026-04-10T08:23:44Z</time></trkpt><trkpt lat="39.24805393721539" lon="8.817446860366575"><ele>120.0</ele><time>2026-04-10T08:23:45Z</time></trkpt><trkpt lat="39.247846351734246" lon="8.817405386210067"><ele>120.33333333333334</ele><time>2026-04-10T08:23:46Z</time></trkpt><trkpt lat="39.24764991959867" lon="8.817364507362342"><ele>120.66666666666667</ele><time>2026-04-10T08:23:47Z</time></trkpt><trkpt lat="39.24746844195923" lon="8.817319420937467"><ele>121.0</ele><time>2026-04-10T08:23:48Z</time></trkpt><trkpt lat="39.24729571198966" lon="8.817252751079373"><ele>122.66666666666667</ele><time>2026-04-10T08:23:49Z</time></trkpt><trkpt lat="39.247138872742084" lon="8.81715467995677"><ele>124.33333333333334</ele><time>2026-04-10T08:23:50Z</time></trkpt><trkpt lat="39.24700439790464" lon="8.817054140278318"><ele>126.0</ele><time>2026-04-10T08:23:51Z</time></trkpt><trkpt lat="39.2468883733776" lon="8.817001562749047"><ele>126.0</ele><time>2026-04-10T08:23:52Z</time></trkpt><trkpt lat="39.246760243937445" lon="8.816997370855015"><ele>126.0</ele><time>2026-04-10T08:23:53Z</time></trkpt><trkpt lat="39.24662623618518" lon="8.817046806106465"><ele>126.0</ele><time>2026-04-10T08:23:54Z</time></trkpt><trkpt lat="39.246492235339296" lon="8.81713274835226"><ele>126.0</ele><time>2026-04-10T08:23:55Z</time></trkpt><trkpt lat="39.24635875530027" lon="8.817200403049736"><ele>125.25</ele><time>2026-04-10T08:23:56Z</time></trkpt><trkpt lat="39.24622312321236" lon="8.817229884243687"><ele>124.5</ele><time>2026-04-10T08:23:57Z</time></trkpt><trkpt lat="39.24608534309248" lon="8.817219195473779"><ele>123.75</ele><time>2026-04-10T08:23:58Z</time></trkpt><trkpt lat="39.24595477716067" lon="8.817172677060867"><ele>123.0</ele><time>2026-04-10T08:23:59Z</time></trkpt><trkpt lat="39.245831151769664" lon="8.817071463861225"><ele>123.0</ele><time>2026-04-10T08:24:00Z</time></trkpt><trkpt lat="39.24570376269591" lon="8.816948226839145"><ele>123.0</ele><time>2026-04-10T08:24:01Z</time></trkpt><trkpt lat="39.245570577513924" lon="8.81683945470379"><ele>123.0</ele><time>2026-04-10T08:24:02Z</time></trkpt><trkpt lat="39.2454387286971" lon="8.81673213161688"><ele>125.0</ele><time>2026-04-10T08:24:03Z</time></trkpt><trkpt lat="39.24533278251038" lon="8.816613909248016"><ele>127.0</ele><time>2026-04-10T08:24:04Z</time></trkpt><trkpt lat="39.24527548827829" lon="8.816465758080403"><ele>129.0</ele><time>2026-04-10T08:24:05Z</time></trkpt><trkpt lat="39.245258889931534" lon="8.816292100658716"><ele>131.0</ele><time>2026-04-10T08:24:06Z</time></trkpt><trkpt lat="39.245241460225955" lon="8.816137275538328"><ele>131.0</ele><time>2026-04-10T08:24:07Z</time></trkpt><trkpt lat="39.245191176468154" lon="8.816006852398345"><ele>131.0</ele><time>2026-04-10T08:24:08Z</time></trkpt><trkpt lat="39.24510856527124" lon="8.81590176757143"><ele>131.0</ele><time>2026-04-10T08:24:09Z</time></trkpt><trkpt lat="39.24500653940786" lon="8.815832651411155"><ele>131.0</ele><time>2026-04-10T08:24:10Z</time></trkpt><trkpt lat="39.244871866797205" lon="8.815881402252767"><ele>131.0</ele><time>2026-04-10T08:24:11Z</time></trkpt><trkpt lat="39.24475225510803" lon="8.815901790143833"><ele>131.0</ele><time>2026-04-10T08:24:12Z</time></trkpt><trkpt lat="39.244643797838656" lon="8.815870416203651"><ele>131.0</ele><time>2026-04-10T08:24:13Z</time></trkpt><trkpt lat="39.244553785587414" lon="8.815752951096837"><ele>131.0</ele><time>2026-04-10T08:24:14Z</time></trkpt><trkpt lat="39.24444975087476" lon="8.815617835977832"><ele>131.0</ele><time>2026-04-10T08:24:15Z</time></trkpt><trkpt lat="39.244350657755696" lon="8.815451641162376"><ele>131.0</ele><time>2026-04-10T08:24:16Z</time></trkpt><trkpt lat="39.24424329355451" lon="8.815283945114773"><ele>131.0</ele><time>2026-04-10T08:24:17Z</time></trkpt><trkpt lat="39.244135853294196" lon="8.815122161832196"><ele>133.75</ele><time>2026-04-10T08:24:18Z</time></trkpt><trkpt lat="39.24403925653499" lon="8.814962363138784"><ele>136.5</ele><time>2026-04-10T08:24:19Z</time></trkpt><trkpt lat="39.24397102726416" lon="8.81480045603218"><ele>139.25</ele><time>2026-04-10T08:24:20Z</time></trkpt><trkpt lat="39.243941658437144" lon="8.81463753617609"><ele>142.0</ele><time>2026-04-10T08:24:21Z</time></trkpt><trkpt lat="39.24393145170106" lon="8.814494979126435"><ele>142.5</ele><time>2026-04-10T08:24:22Z</time></trkpt><trkpt lat="39.24390923828435" lon="8.81440252740898"><ele>143.0</ele><time>2026-04-10T08:24:23Z</time></trkpt><trkpt lat="39.24385609924768" lon="8.814331650790207"><ele>143.5</ele><time>2026-04-10T08:24:24Z</time></trkpt><trkpt lat="39.24378965604664" lon="8.814277113849547"><ele>144.0</ele><time>2026-04-10T08:24:25Z</time></trkpt><trkpt lat="39.24368481984692" lon="8.81430634336105"><ele>144.5</ele><time>2026-04-10T08:24:26Z</time></trkpt><trkpt lat="39.24360843358672" lon="8.814405345776052"><ele>145.0</ele><time>2026-04-10T08:24:27Z</time></trkpt><trkpt lat="39.243558455134426" lon="8.814538631960838"><ele>145.0</ele><time>2026-04-10T08:24:28Z</time></trkpt><trkpt lat="39.24352215758819" lon="8.814696653760867"><ele>145.0</ele><time>2026-04-10T08:24:29Z</time></trkpt><trkpt lat="39.24346976524" lon="8.814841219475252"><ele>145.0</ele><time>2026-04-10T08:24:30Z</time></trkpt><trkpt lat="39.243396941624376" lon="8.814959789352926"><ele>145.0</ele><time>2026-04-10T08:24:31Z</time></trkpt><trkpt lat="39.24329991268941" lon="8.815043484885386"><ele>145.0</ele><time>2026-04-10T08:24:32Z</time></trkpt><trkpt lat="39.243174014277116" lon="8.815086721949065"><ele>145.0</ele><time>2026-04-10T08:24:33Z</time></trkpt><trkpt lat="39.2430458025824" lon="8.815113510153248"><ele>145.0</ele><time>2026-04-10T08:24:34Z</time></trkpt><trkpt lat="39.242957026163" lon="8.815176694739911"><ele>145.0</ele><time>2026-04-10T08:24:35Z</time></trkpt><trkpt lat="39.24291497593288" lon="8.815289257268692"><ele>143.75</ele><time>2026-04-10T08:24:36Z</time></trkpt><trkpt lat="39.24292549227066" lon="8.81542530385989"><ele>142.5</ele><time>2026-04-10T08:24:37Z</time></trkpt><trkpt lat="39.24298777935691" lon="8.81555448432194"><ele>141.25</ele><time>2026-04-10T08:24:38Z</time></trkpt><trkpt lat="39.24307416510956" lon="8.815665174159685"><ele>140.0</ele><time>2026-04-10T08:24:39Z</time></trkpt><trkpt lat="39.243139544278776" lon="8.815775779761603"><ele>140.0</ele><time>2026-04-10T08:24:40Z</time></trkpt><trkpt lat="39.24316223064785" lon="8.815899448975802"><ele>140.0</ele><time>2026-04-10T08:24:41Z</time></trkpt><trkpt lat="39.24314180962244" lon="8.816041918265595"><ele>140.0</ele><time>2026-04-10T08:24:42Z</time></trkpt><trkpt lat="39.24307697873597" lon="8.81616704260877"><ele>140.0</ele><time>2026-04-10T08:24:43Z</time></trkpt><trkpt lat="39.242979963609194" lon="8.816253669443622"><ele>140.0</ele><time>2026-04-10T08:24:44Z</time></trkpt><trkpt lat="39.24285701329651" lon="8.816315253367883"><ele>145.0</ele><time>2026-04-10T08:24:45Z</time></trkpt><trkpt lat="39.24271474260212" lon="8.816352154684884"><ele>150.0</ele><time>2026-04-10T08:24:46Z</time></trkpt><trkpt lat="39.24256540523789" lon="8.816406310251939"><ele>155.0</ele><time>2026-04-10T08:24:47Z</time></trkpt><trkpt lat="39.24242561452765" lon="8.816501154016809"><ele>155.0</ele><time>2026-04-10T08:24:48Z</time></trkpt><trkpt lat="39.24229648764788" lon="8.816615157125304"><ele>155.0</ele><time>2026-04-10T08:24:49Z</time></trkpt><trkpt lat="39.2421756261596" lon="8.81670601739278"><ele>155.0</ele><time>2026-04-10T08:24:50Z</time></trkpt><trkpt lat="39.24205007826392" lon="8.816764310659488"><ele>155.0</ele><time>2026-04-10T08:24:51Z</time></trkpt><trkpt lat="39.24190330660017" lon="8.816790543285661"><ele>155.0</ele><time>2026-04-10T08:24:52Z</time></trkpt><trkpt lat="39.241739255852046" lon="8.81678109004539"><ele>155.0</ele><time>2026-04-10T08:24:53Z</time></trkpt><trkpt lat="39.24157817670812" lon="8.81673266989476"><ele>155.0</ele><time>2026-04-10T08:24:54Z</time></trkpt><trkpt lat="39.24143981709923" lon="8.816657890118574"><ele>154.75</ele><time>2026-04-10T08:24:55Z</time></trkpt><trkpt lat="39.24132438877346" lon="8.816589907419708"><ele>154.5</ele><time>2026-04-10T08:24:56Z</time></trkpt><trkpt lat="39.24120942126147" lon="8.816562944006863"><ele>154.25</ele><time>2026-04-10T08:24:57Z</time></trkpt><trkpt lat="39.241086070420906" lon="8.816599391782907"><ele>154.0</ele><time>2026-04-10T08:24:58Z</time></trkpt><trkpt lat="39.24097448199622" lon="8.81669647985658"><ele>151.75</ele><time>2026-04-10T08:24:59Z</time></trkpt><trkpt lat="39.24090062786214" lon="8.816836917084204"><ele>149.5</ele><time>2026-04-10T08:25:00Z</time></trkpt><trkpt lat="39.2408812773405" lon="8.816995546073654"><ele>147.25</ele><time>2026-04-10T08:25:01Z</time></trkpt><trkpt lat="39.240899948881314" lon="8.817152148185947"><ele>145.0</ele><time>2026-04-10T08:25:02Z</time></trkpt><trkpt lat="39.240901547225405" lon="8.81729218162953"><ele>145.0</ele><time>2026-04-10T08:25:03Z</time></trkpt><trkpt lat="39.24085123819423" lon="8.81741541744909"><ele>145.0</ele><time>2026-04-10T08:25:04Z</time></trkpt><trkpt lat="39.24075158035757" lon="8.817491588002168"><ele>145.0</ele><time>2026-04-10T08:25:05Z</time></trkpt><trkpt lat="39.240641831419964" lon="8.817486839912897"><ele>145.0</ele><time>2026-04-10T08:25:06Z</time></trkpt><trkpt lat="39.24053119737299" lon="8.817420332265389"><ele>146.2</ele><time>2026-04-10T08:25:07Z</time></trkpt><trkpt lat="39.24041838347961" lon="8.817336708944376"><ele>147.4</ele><time>2026-04-10T08:25:08Z</time></trkpt><trkpt lat="39.240315325664625" lon="8.817279831895338"><ele>148.6</ele><time>2026-04-10T08:25:09Z</time></trkpt><trkpt lat="39.24021419080379" lon="8.817269237353825"><ele>149.8</ele><time>2026-04-10T08:25:10Z</time></trkpt><trkpt lat="39.24011675384468" lon="8.81730784669728"><ele>151.0</ele><time>2026-04-10T08:25:11Z</time></trkpt><trkpt lat="39.24003018258798" lon="8.817400968868581"><ele>151.0</ele><time>2026-04-10T08:25:12Z</time></trkpt><trkpt lat="39.23997322520124" lon="8.817562488857114"><ele>151.0</ele><time>2026-04-10T08:25:13Z</time></trkpt><trkpt lat="39.239941473432715" lon="8.81775329419248"><ele>151.0</ele><time>2026-04-10T08:25:14Z</time></trkpt><trkpt lat="39.23991274070139" lon="8.81793214666208"><ele>151.0</ele><time>2026-04-10T08:25:15Z</time></trkpt><trkpt lat="39.23986981676792" lon="8.818083746555539"><ele>148.0</ele><time>2026-04-10T08:25:16Z</time></trkpt><trkpt lat="39.23979467935752" lon="8.818201410732453"><ele>145.0</ele><time>2026-04-10T08:25:17Z</time></trkpt><trkpt lat="39.239680341588794" lon="8.81826703876219"><ele>142.0</ele><time>2026-04-10T08:25:18Z</time></trkpt><trkpt lat="39.23956411644453" lon="8.818249407650004"><ele>139.0</ele><time>2026-04-10T08:25:19Z</time></trkpt><trkpt lat="39.239445131283446" lon="8.818170671858912"><ele>139.0</ele><time>2026-04-10T08:25:20Z</time></trkpt><trkpt lat="39.239330509717725" lon="8.8180644425007"><ele>139.0</ele><time>2026-04-10T08:25:21Z</time></trkpt><trkpt lat="39.239217018787066" lon="8.817956759772398"><ele>139.0</ele><time>2026-04-10T08:25:22Z</time></trkpt><trkpt lat="39.239103719835036" lon="8.817854579789447"><ele>139.0</ele><time>2026-04-10T08:25:23Z</time></trkpt><trkpt lat="39.23898908010938" lon="8.817752757080957"><ele>137.75</ele><time>2026-04-10T08:25:24Z</time></trkpt><trkpt lat="39.23887762553417" lon="8.817647983573613"><ele>136.5</ele><time>2026-04-10T08:25:25Z</time></trkpt><trkpt lat="39.2387697130778" lon="8.817535898428543"><ele>135.25</ele><time>2026-04-10T08:25:26Z</time></trkpt><trkpt lat="39.23867630242199" lon="8.81740598945607"><ele>134.0</ele><time>2026-04-10T08:25:27Z</time></trkpt><trkpt lat="39.238610990058326" lon="8.817253952637634"><ele>134.0</ele><time>2026-04-10T08:25:28Z</time></trkpt><trkpt lat="39.23858751857926" lon="8.8170894555403"><ele>134.0</ele><time>2026-04-10T08:25:29Z</time></trkpt><trkpt lat="39.2385992046017" lon="8.81694097691394"><ele>134.0</ele><time>2026-04-10T08:25:30Z</time></trkpt><trkpt lat="39.23861209171913" lon="8.816828546504043"><ele>134.0</ele><time>2026-04-10T08:25:31Z</time></trkpt><trkpt lat="39.23860172368799" lon="8.816718209816957"><ele>134.0</ele><time>2026-04-10T08:25:32Z</time></trkpt><trkpt lat="39.23857531835066" lon="8.816614985958774"><ele>133.5</ele><time>2026-04-10T08:25:33Z</time></trkpt><trkpt lat="39.23848803451486" lon="8.816544693221466"><ele>133.0</ele><time>2026-04-10T08:25:34Z</time></trkpt><trkpt lat="39.23837099390827" lon="8.816541100903097"><ele>132.5</ele><time>2026-04-10T08:25:35Z</time></trkpt><trkpt lat="39.23825164121355" lon="8.816636999827963"><ele>132.0</ele><time>2026-04-10T08:25:36Z</time></trkpt><trkpt lat="39.23813325311214" lon="8.81670865263908"><ele>132.0</ele><time>2026-04-10T08:25:37Z</time></trkpt><trkpt lat="39.238016496142706" lon="8.81676175065511"><ele>132.0</ele><time>2026-04-10T08:25:38Z</time></trkpt><trkpt lat="39.23789728077976" lon="8.816776962093734"><ele>132.0</ele><time>2026-04-10T08:25:39Z</time></trkpt><trkpt lat="39.23778171524128" lon="8.816740088463382"><ele>132.0</ele><time>2026-04-10T08:25:40Z</time></trkpt><trkpt lat="39.23767653986606" lon="8.816657459496586"><ele>132.0</ele><time>2026-04-10T08:25:41Z</time></trkpt><trkpt lat="39.23760985571192" lon="8.816535714330062"><ele>132.0</ele><time>2026-04-10T08:25:42Z</time></trkpt><trkpt lat="39.23758597479294" lon="8.81639352154464"><ele>132.0</ele><time>2026-04-10T08:25:43Z</time></trkpt><trkpt lat="39.23759676607192" lon="8.816255716270641"><ele>132.0</ele><time>2026-04-10T08:25:44Z</time></trkpt><trkpt lat="39.237612176873036" lon="8.81613304079357"><ele>132.0</ele><time>2026-04-10T08:25:45Z</time></trkpt><trkpt lat="39.237618177222096" lon="8.816012940149218"><ele>132.6</ele><time>2026-04-10T08:25:46Z</time></trkpt><trkpt lat="39.237599072771516" lon="8.815907878918901"><ele>133.2</ele><time>2026-04-10T08:25:47Z</time></trkpt><trkpt lat="39.23754481185773" lon="8.81583169293466"><ele>133.8</ele><time>2026-04-10T08:25:48Z</time></trkpt><trkpt lat="39.23747500135658" lon="8.815767312836321"><ele>134.4</ele><time>2026-04-10T08:25:49Z</time></trkpt><trkpt lat="39.23737318342428" lon="8.815793859466352"><ele>135.0</ele><time>2026-04-10T08:25:50Z</time></trkpt><trkpt lat="39.23727482368612" lon="8.815855814950645"><ele>133.8</ele><time>2026-04-10T08:25:51Z</time></trkpt><trkpt lat="39.23718091941114" lon="8.815935916117086"><ele>132.6</ele><time>2026-04-10T08:25:52Z</time></trkpt><trkpt lat="39.237091498140664" lon="8.815989503433714"><ele>131.4</ele><time>2026-04-10T08:25:53Z</time></trkpt><trkpt lat="39.23698849142523" lon="8.816011676913668"><ele>130.2</ele><time>2026-04-10T08:25:54Z</time></trkpt><trkpt lat="39.23687321206059" lon="8.816000404129223"><ele>129.0</ele><time>2026-04-10T08:25:55Z</time></trkpt><trkpt lat="39.23675843175544" lon="8.815952732390352"><ele>129.0</ele><time>2026-04-10T08:25:56Z</time></trkpt><trkpt lat="39.2366713849522" lon="8.815873922645752"><ele>129.0</ele><time>2026-04-10T08:25:57Z</time></trkpt><trkpt lat="39.23660614152623" lon="8.815759670722171"><ele>129.0</ele><time>2026-04-10T08:25:58Z</time></trkpt><trkpt lat="39.236561492321215" lon="8.81562518334427"><ele>129.0</ele><time>2026-04-10T08:25:59Z</time></trkpt><trkpt lat="39.23652566697914" lon="8.815502747007866"><ele>129.0</ele><time>2026-04-10T08:26:00Z</time></trkpt><trkpt lat="39.23647288154332" lon="8.815399678508905"><ele>128.2</ele><time>2026-04-10T08:26:01Z</time></trkpt><trkpt lat="39.23639448092375" lon="8.815329198647673"><ele>127.4</ele><time>2026-04-10T08:26:02Z</time></trkpt><trkpt lat="39.236298789113256" lon="8.815289250400305"><ele>126.6</ele><time>2026-04-10T08:26:03Z</time></trkpt><trkpt lat="39.236198925726896" lon="8.815253236850243"><ele>125.8</ele><time>2026-04-10T08:26:04Z</time></trkpt><trkpt lat="39.23609961613954" lon="8.815208974087536"><ele>125.0</ele><time>2026-04-10T08:26:05Z</time></trkpt><trkpt lat="39.23600929828591" lon="8.815147321787142"><ele>125.0</ele><time>2026-04-10T08:26:06Z</time></trkpt><trkpt lat="39.23593452066546" lon="8.815052474428876"><ele>125.0</ele><time>2026-04-10T08:26:07Z</time></trkpt><trkpt lat="39.23586993495056" lon="8.814912098492231"><ele>125.0</ele><time>2026-04-10T08:26:08Z</time></trkpt><trkpt lat="39.235807142799175" lon="8.814760817916156"><ele>125.0</ele><time>2026-04-10T08:26:09Z</time></trkpt><trkpt lat="39.23573485431146" lon="8.814620822271886"><ele>125.0</ele><time>2026-04-10T08:26:10Z</time></trkpt><trkpt lat="39.235657882728255" lon="8.814499599160309"><ele>125.0</ele><time>2026-04-10T08:26:11Z</time></trkpt><trkpt lat="39.23557662088823" lon="8.814399386322341"><ele>125.0</ele><time>2026-04-10T08:26:12Z</time></trkpt><trkpt lat="39.235476013819024" lon="8.814316699460235"><ele>125.0</ele><time>2026-04-10T08:26:13Z</time></trkpt><trkpt lat="39.2353543973204" lon="8.814254321120886"><ele>125.0</ele><time>2026-04-10T08:26:14Z</time></trkpt><trkpt lat="39.23521158823962" lon="8.81420986990058"><ele>125.0</ele><time>2026-04-10T08:26:15Z</time></trkpt><trkpt lat="39.23505518385117" lon="8.814173228837578"><ele>125.0</ele><time>2026-04-10T08:26:16Z</time></trkpt><trkpt lat="39.23491079605748" lon="8.814140004079835"><ele>124.25</ele><time>2026-04-10T08:26:17Z</time></trkpt><trkpt lat="39.23477032234726" lon="8.814112118608152"><ele>123.5</ele><time>2026-04-10T08:26:18Z</time></trkpt><trkpt lat="39.234627996816" lon="8.814087228510951"><ele>122.75</ele><time>2026-04-10T08:26:19Z</time></trkpt><trkpt lat="39.23448386436773" lon="8.814061954206343"><ele>122.0</ele><time>2026-04-10T08:26:20Z</time></trkpt><trkpt lat="39.23433604140281" lon="8.814034389430594"><ele>122.0</ele><time>2026-04-10T08:26:21Z</time></trkpt><trkpt lat="39.2341838230085" lon="8.814004034772033"><ele>122.0</ele><time>2026-04-10T08:26:22Z</time></trkpt><trkpt lat="39.23403192954338" lon="8.81397263813273"><ele>122.0</ele><time>2026-04-10T08:26:23Z</time></trkpt><trkpt lat="39.23387984321682" lon="8.813945855841501"><ele>123.0</ele><time>2026-04-10T08:26:24Z</time></trkpt><trkpt lat="39.233728670539186" lon="8.81391846136524"><ele>124.0</ele><time>2026-04-10T08:26:25Z</time></trkpt><trkpt lat="39.23357437377373" lon="8.813886422581245"><ele>125.0</ele><time>2026-04-10T08:26:26Z</time></trkpt><trkpt lat="39.23341696527653" lon="8.813860396715258"><ele>125.0</ele><time>2026-04-10T08:26:27Z</time></trkpt><trkpt lat="39.233260781449026" lon="8.813841351647127"><ele>125.0</ele><time>2026-04-10T08:26:28Z</time></trkpt><trkpt lat="39.23310085766337" lon="8.813836644626518"><ele>125.0</ele><time>2026-04-10T08:26:29Z</time></trkpt><trkpt lat="39.23295078080137" lon="8.81383110676355"><ele>124.5</ele><time>2026-04-10T08:26:30Z</time></trkpt><trkpt lat="39.23280022325031" lon="8.813823862754274"><ele>124.0</ele><time>2026-04-10T08:26:31Z</time></trkpt><trkpt lat="39.23265358278954" lon="8.813810136491723"><ele>123.5</ele><time>2026-04-10T08:26:32Z</time></trkpt><trkpt lat="39.23250925491213" lon="8.813776769930476"><ele>123.0</ele><time>2026-04-10T08:26:33Z</time></trkpt><trkpt lat="39.23235696804222" lon="8.813709423266477"><ele>121.66666666666666</ele><time>2026-04-10T08:26:34Z</time></trkpt><trkpt lat="39.23220313443277" lon="8.813617709495631"><ele>120.33333333333333</ele><time>2026-04-10T08:26:35Z</time></trkpt><trkpt lat="39.23204216120785" lon="8.813519792357038"><ele>119.0</ele><time>2026-04-10T08:26:36Z</time></trkpt><trkpt lat="39.2318769701516" lon="8.813422779487793"><ele>122.0</ele><time>2026-04-10T08:26:37Z</time></trkpt><trkpt lat="39.2317072960506" lon="8.813326236012047"><ele>125.0</ele><time>2026-04-10T08:26:38Z</time></trkpt><trkpt lat="39.23153610248102" lon="8.813224178652542"><ele>128.0</ele><time>2026-04-10T08:26:39Z</time></trkpt><trkpt lat="39.23137074964625" lon="8.813116297346264"><ele>128.0</ele><time>2026-04-10T08:26:40Z</time></trkpt><trkpt lat="39.23122041094" lon="8.812983852709568"><ele>128.0</ele><time>2026-04-10T08:26:41Z</time></trkpt><trkpt lat="39.23109838380396" lon="8.812814675398297"><ele>128.0</ele><time>2026-04-10T08:26:42Z</time></trkpt><trkpt lat="39.23098648427155" lon="8.812616461826257"><ele>129.66666666666666</ele><time>2026-04-10T08:26:43Z</time></trkpt><trkpt lat="39.23088456772178" lon="8.812417965247707"><ele>131.33333333333334</ele><time>2026-04-10T08:26:44Z</time></trkpt><trkpt lat="39.23079548148305" lon="8.812229202346566"><ele>133.0</ele><time>2026-04-10T08:26:45Z</time></trkpt><trkpt lat="39.230696242866195" lon="8.812062121836938"><ele>132.66666666666669</ele><time>2026-04-10T08:26:46Z</time></trkpt><trkpt lat="39.23057360722191" lon="8.811910865402472"><ele>132.33333333333334</ele><time>2026-04-10T08:26:47Z</time></trkpt><trkpt lat="39.23042406893316" lon="8.81178188628775"><ele>132.0</ele><time>2026-04-10T08:26:48Z</time></trkpt><trkpt lat="39.23027053557922" lon="8.811657260942976"><ele>132.33333333333334</ele><time>2026-04-10T08:26:49Z</time></trkpt><trkpt lat="39.23011676116888" lon="8.81151623351757"><ele>132.66666666666669</ele><time>2026-04-10T08:26:50Z</time></trkpt><trkpt lat="39.22994110076064" lon="8.81142305631418"><ele>133.0</ele><time>2026-04-10T08:26:51Z</time></trkpt><trkpt lat="39.2297644608261" lon="8.811342545009179"><ele>133.0</ele><time>2026-04-10T08:26:52Z</time></trkpt><trkpt lat="39.22957948451654" lon="8.811298584757404"><ele>133.0</ele><time>2026-04-10T08:26:53Z</time></trkpt><trkpt lat="39.229392955693996" lon="8.811269825555748"><ele>133.0</ele><time>2026-04-10T08:26:54Z</time></trkpt><trkpt lat="39.229221032609594" lon="8.811214197564812"><ele>133.0</ele><time>2026-04-10T08:26:55Z</time></trkpt><trkpt lat="39.22905880317039" lon="8.811180099648436"><ele>133.0</ele><time>2026-04-10T08:26:56Z</time></trkpt><trkpt lat="39.22891633343252" lon="8.811165200913898"><ele>133.0</ele><time>2026-04-10T08:26:57Z</time></trkpt><trkpt lat="39.22878325637123" lon="8.81111169861936"><ele>133.0</ele><time>2026-04-10T08:26:58Z</time></trkpt><trkpt lat="39.228658358851995" lon="8.811026538966246"><ele>133.66666666666669</ele><time>2026-04-10T08:26:59Z</time></trkpt><trkpt lat="39.22854668884035" lon="8.810871256623521"><ele>134.33333333333334</ele><time>2026-04-10T08:27:00Z</time></trkpt><trkpt lat="39.22841392103871" lon="8.810704215716054"><ele>135.0</ele><time>2026-04-10T08:27:01Z</time></trkpt><trkpt lat="39.22826148378521" lon="8.810573468177562"><ele>133.66666666666666</ele><time>2026-04-10T08:27:02Z</time></trkpt><trkpt lat="39.22809556601392" lon="8.81044806205156"><ele>132.33333333333331</ele><time>2026-04-10T08:27:03Z</time></trkpt><trkpt lat="39.227945836767496" lon="8.810317987098157"><ele>131.0</ele><time>2026-04-10T08:27:04Z</time></trkpt><trkpt lat="39.227802855093024" lon="8.810213314948264"><ele>132.5</ele><time>2026-04-10T08:27:05Z</time></trkpt><trkpt lat="39.2276616695233" lon="8.810130726995077"><ele>134.0</ele><time>2026-04-10T08:27:06Z</time></trkpt><trkpt lat="39.22754088849343" lon="8.810025614442676"><ele>135.5</ele><time>2026-04-10T08:27:07Z</time></trkpt><trkpt lat="39.227434710963315" lon="8.809906237594813"><ele>137.0</ele><time>2026-04-10T08:27:08Z</time></trkpt><trkpt lat="39.227348543233646" lon="8.80975456125208"><ele>137.25</ele><time>2026-04-10T08:27:09Z</time></trkpt><trkpt lat="39.22730826902908" lon="8.809558760427253"><ele>137.5</ele><time>2026-04-10T08:27:10Z</time></trkpt><trkpt lat="39.227247551682105" lon="8.809377773385073"><ele>137.75</ele><time>2026-04-10T08:27:11Z</time></trkpt><trkpt lat="39.227220933125174" lon="8.809206599814239"><ele>138.0</ele><time>2026-04-10T08:27:12Z</time></trkpt><trkpt lat="39.22722292355608" lon="8.809068603045816"><ele>138.25</ele><time>2026-04-10T08:27:13Z</time></trkpt><trkpt lat="39.227255562541245" lon="8.80894420522265"><ele>138.5</ele><time>2026-04-10T08:27:14Z</time></trkpt><trkpt lat="39.22734261717783" lon="8.808851395145984"><ele>138.75</ele><time>2026-04-10T08:27:15Z</time></trkpt><trkpt lat="39.22745352055051" lon="8.808781110866637"><ele>139.0</ele><time>2026-04-10T08:27:16Z</time></trkpt><trkpt lat="39.22756088859261" lon="8.808712633246655"><ele>139.0</ele><time>2026-04-10T08:27:17Z</time></trkpt><trkpt lat="39.22763156452119" lon="8.8086206283643"><ele>139.0</ele><time>2026-04-10T08:27:18Z</time></trkpt><trkpt lat="39.22768174807669" lon="8.808495149649152"><ele>139.0</ele><time>2026-04-10T08:27:19Z</time></trkpt><trkpt lat="39.2276520036155" lon="8.808335339377113"><ele>139.0</ele><time>2026-04-10T08:27:20Z</time></trkpt><trkpt lat="39.2276046116296" lon="8.808149801866389"><ele>139.0</ele><time>2026-04-10T08:27:21Z</time></trkpt><trkpt lat="39.22756990672007" lon="8.807969524345127"><ele>139.0</ele><time>2026-04-10T08:27:22Z</time></trkpt><trkpt lat="39.22758673833996" lon="8.807781522271036"><ele>139.0</ele><time>2026-04-10T08:27:23Z</time></trkpt><trkpt lat="39.227628953284665" lon="8.80757641484897"><ele>139.0</ele><time>2026-04-10T08:27:24Z</time></trkpt><trkpt lat="39.22766861904076" lon="8.807370888544115"><ele>139.0</ele><time>2026-04-10T08:27:25Z</time></trkpt><trkpt lat="39.22768977232742" lon="8.807176277573875"><ele>139.0</ele><time>2026-04-10T08:27:26Z</time></trkpt><trkpt lat="39.22768257003322" lon="8.806996046736417"><ele>139.25</ele><time>2026-04-10T08:27:27Z</time></trkpt><trkpt lat="39.22765837853165" lon="8.806825858951939"><ele>139.5</ele><time>2026-04-10T08:27:28Z</time></trkpt><trkpt lat="39.227637243971586" lon="8.806646246782027"><ele>139.75</ele><time>2026-04-10T08:27:29Z</time></trkpt><trkpt lat="39.22762408262505" lon="8.80646251555362"><ele>140.0</ele><time>2026-04-10T08:27:30Z</time></trkpt><trkpt lat="39.22761034230791" lon="8.806283711240456"><ele>140.0</ele><time>2026-04-10T08:27:31Z</time></trkpt><trkpt lat="39.227597509781575" lon="8.806120472141698"><ele>140.0</ele><time>2026-04-10T08:27:32Z</time></trkpt><trkpt lat="39.22759226270148" lon="8.805969373341293"><ele>140.0</ele><time>2026-04-10T08:27:33Z</time></trkpt><trkpt lat="39.22760547337311" lon="8.805827082901132"><ele>140.0</ele><time>2026-04-10T08:27:34Z</time></trkpt><trkpt lat="39.22762686569271" lon="8.805696529289753"><ele>140.5</ele><time>2026-04-10T08:27:35Z</time></trkpt><trkpt lat="39.22766086044219" lon="8.805572809530531"><ele>141.0</ele><time>2026-04-10T08:27:36Z</time></trkpt><trkpt lat="39.227619311946235" lon="8.805410769586393"><ele>141.5</ele><time>2026-04-10T08:27:37Z</time></trkpt><trkpt lat="39.22752250233494" lon="8.80525658757615"><ele>142.0</ele><time>2026-04-10T08:27:38Z</time></trkpt><trkpt lat="39.22741853355894" lon="8.805099098870361"><ele>142.75</ele><time>2026-04-10T08:27:39Z</time></trkpt><trkpt lat="39.22733615526334" lon="8.804923842007808"><ele>143.5</ele><time>2026-04-10T08:27:40Z</time></trkpt><trkpt lat="39.2272504232395" lon="8.804773414173688"><ele>144.25</ele><time>2026-04-10T08:27:41Z</time></trkpt><trkpt lat="39.22713700202511" lon="8.804675131833259"><ele>145.0</ele><time>2026-04-10T08:27:42Z</time></trkpt><trkpt lat="39.22705150510339" lon="8.804566142076515"><ele>145.25</ele><time>2026-04-10T08:27:43Z</time></trkpt><trkpt lat="39.22695041182055" lon="8.804460892550681"><ele>145.5</ele><time>2026-04-10T08:27:44Z</time></trkpt><trkpt lat="39.2268298945076" lon="8.80436833509659"><ele>145.75</ele><time>2026-04-10T08:27:45Z</time></trkpt><trkpt lat="39.226694665085894" lon="8.804282441470932"><ele>146.0</ele><time>2026-04-10T08:27:46Z</time></trkpt><trkpt lat="39.22654556101084" lon="8.804203740778943"><ele>144.33333333333331</ele><time>2026-04-10T08:27:47Z</time></trkpt><trkpt lat="39.22638708615675" lon="8.804127679373822"><ele>142.66666666666666</ele><time>2026-04-10T08:27:48Z</time></trkpt><trkpt lat="39.22623861888464" lon="8.804060633742766"><ele>141.0</ele><time>2026-04-10T08:27:49Z</time></trkpt><trkpt lat="39.226104109712324" lon="8.803984624873705"><ele>141.0</ele><time>2026-04-10T08:27:50Z</time></trkpt><trkpt lat="39.22597618999696" lon="8.803878603789487"><ele>141.0</ele><time>2026-04-10T08:27:51Z</time></trkpt><trkpt lat="39.22585495996659" lon="8.80375151892139"><ele>141.0</ele><time>2026-04-10T08:27:52Z</time></trkpt><trkpt lat="39.225740841908134" lon="8.803605568523357"><ele>147.33333333333334</ele><time>2026-04-10T08:27:53Z</time></trkpt><trkpt lat="39.225636647000044" lon="8.803442606841335"><ele>153.66666666666669</ele><time>2026-04-10T08:27:54Z</time></trkpt><trkpt lat="39.2255464349929" lon="8.803261696978378"><ele>160.0</ele><time>2026-04-10T08:27:55Z</time></trkpt><trkpt lat="39.22545651468428" lon="8.803056931549696"><ele>160.0</ele><time>2026-04-10T08:27:56Z</time></trkpt><trkpt lat="39.2253438222046" lon="8.80280864440065"><ele>160.0</ele><time>2026-04-10T08:27:57Z</time></trkpt><trkpt lat="39.225215848930425" lon="8.802534430394626"><ele>162.0</ele><time>2026-04-10T08:27:58.022Z</time></trkpt><trkpt lat="39.225111537438835" lon="8.80229808475047"><ele>164.0</ele><time>2026-04-10T08:27:59.02Z</time></trkpt><trkpt lat="39.225019425334615" lon="8.802073355380514"><ele>166.0</ele><time>2026-04-10T08:28:00.021Z</time></trkpt><trkpt lat="39.224936746492915" lon="8.801858860008446"><ele>166.0</ele><time>2026-04-10T08:28:01.021Z</time></trkpt><trkpt lat="39.2248562916305" lon="8.80164969599474"><ele>166.0</ele><time>2026-04-10T08:28:02.02Z</time></trkpt><trkpt lat="39.22472127716916" lon="8.80150124431476"><ele>166.0</ele><time>2026-04-10T08:28:04Z</time></trkpt><trkpt lat="39.224611684568536" lon="8.80117620082056"><ele>163.75</ele><time>2026-04-10T08:28:05Z</time></trkpt><trkpt lat="39.224521996480945" lon="8.80102894467118"><ele>161.5</ele><time>2026-04-10T08:28:06Z</time></trkpt><trkpt lat="39.224424060189236" lon="8.800882463578874"><ele>159.25</ele><time>2026-04-10T08:28:07Z</time></trkpt><trkpt lat="39.22431724909582" lon="8.800740428783568"><ele>157.0</ele><time>2026-04-10T08:28:08Z</time></trkpt><trkpt lat="39.224208937217796" lon="8.800592974301328"><ele>157.0</ele><time>2026-04-10T08:28:09Z</time></trkpt><trkpt lat="39.224085476989835" lon="8.800445109604409"><ele>157.0</ele><time>2026-04-10T08:28:10Z</time></trkpt><trkpt lat="39.22395199028874" lon="8.800315686548432"><ele>157.0</ele><time>2026-04-10T08:28:11Z</time></trkpt><trkpt lat="39.22380810448539" lon="8.800209202681993"><ele>158.66666666666669</ele><time>2026-04-10T08:28:12Z</time></trkpt><trkpt lat="39.223656491515875" lon="8.80010552910993"><ele>160.33333333333334</ele><time>2026-04-10T08:28:13Z</time></trkpt><trkpt lat="39.223498607294765" lon="8.800016926586972"><ele>162.0</ele><time>2026-04-10T08:28:14Z</time></trkpt><trkpt lat="39.22332685549009" lon="8.799945135664533"><ele>162.0</ele><time>2026-04-10T08:28:15Z</time></trkpt><trkpt lat="39.22315943176308" lon="8.799880137508044"><ele>162.0</ele><time>2026-04-10T08:28:16Z</time></trkpt><trkpt lat="39.223009029334634" lon="8.799819167939209"><ele>162.0</ele><time>2026-04-10T08:28:17Z</time></trkpt><trkpt lat="39.22287194771867" lon="8.799756145696293"><ele>161.5</ele><time>2026-04-10T08:28:18Z</time></trkpt><trkpt lat="39.222763924360855" lon="8.799681028651124"><ele>161.0</ele><time>2026-04-10T08:28:19Z</time></trkpt><trkpt lat="39.22268517751082" lon="8.799570078365143"><ele>160.5</ele><time>2026-04-10T08:28:20Z</time></trkpt><trkpt lat="39.22264430406611" lon="8.799424851552875"><ele>160.0</ele><time>2026-04-10T08:28:21Z</time></trkpt><trkpt lat="39.22261570389128" lon="8.799238262912503"><ele>160.0</ele><time>2026-04-10T08:28:22Z</time></trkpt><trkpt lat="39.22254847474961" lon="8.799053795307115"><ele>160.0</ele><time>2026-04-10T08:28:23Z</time></trkpt><trkpt lat="39.222443796771664" lon="8.798889058143352"><ele>160.0</ele><time>2026-04-10T08:28:24Z</time></trkpt><trkpt lat="39.22234263274775" lon="8.798718501839835"><ele>158.66666666666669</ele><time>2026-04-10T08:28:25Z</time></trkpt><trkpt lat="39.22224908779025" lon="8.798530099191014"><ele>157.33333333333334</ele><time>2026-04-10T08:28:26Z</time></trkpt><trkpt lat="39.22218186362248" lon="8.798304933326477"><ele>156.0</ele><time>2026-04-10T08:28:27Z</time></trkpt><trkpt lat="39.2221380750932" lon="8.798037014212836"><ele>156.0</ele><time>2026-04-10T08:28:28Z</time></trkpt><trkpt lat="39.222117182603675" lon="8.797762114465543"><ele>156.0</ele><time>2026-04-10T08:28:29Z</time></trkpt><trkpt lat="39.222099549171325" lon="8.797519007961807"><ele>156.0</ele><time>2026-04-10T08:28:30Z</time></trkpt><trkpt lat="39.22206367172536" lon="8.797291699216109"><ele>157.0</ele><time>2026-04-10T08:28:31Z</time></trkpt><trkpt lat="39.22200135371108" lon="8.797092857654052"><ele>158.0</ele><time>2026-04-10T08:28:32Z</time></trkpt><trkpt lat="39.221914084335296" lon="8.796902122051026"><ele>159.0</ele><time>2026-04-10T08:28:33Z</time></trkpt><trkpt lat="39.22180861768671" lon="8.79672683063349"><ele>159.33333333333334</ele><time>2026-04-10T08:28:34Z</time></trkpt><trkpt lat="39.221688849279666" lon="8.79656271681616"><ele>159.66666666666669</ele><time>2026-04-10T08:28:35Z</time></trkpt><trkpt lat="39.221566305264105" lon="8.79641613602681"><ele>160.0</ele><time>2026-04-10T08:28:36Z</time></trkpt><trkpt lat="39.221455983792204" lon="8.796290639616101"><ele>160.0</ele><time>2026-04-10T08:28:37Z</time></trkpt><trkpt lat="39.221357364157846" lon="8.796172481507334"><ele>160.0</ele><time>2026-04-10T08:28:38Z</time></trkpt><trkpt lat="39.221265164272715" lon="8.79605915950614"><ele>160.0</ele><time>2026-04-10T08:28:39Z</time></trkpt><trkpt lat="39.22117384867163" lon="8.795949617584565"><ele>160.0</ele><time>2026-04-10T08:28:40Z</time></trkpt><trkpt lat="39.221080737666604" lon="8.795842983234573"><ele>160.25</ele><time>2026-04-10T08:28:41Z</time></trkpt><trkpt lat="39.22098626252854" lon="8.795729438431568"><ele>160.5</ele><time>2026-04-10T08:28:42Z</time></trkpt><trkpt lat="39.22089695338035" lon="8.795608024049509"><ele>160.75</ele><time>2026-04-10T08:28:43Z</time></trkpt><trkpt lat="39.220835462206985" lon="8.795472892550865"><ele>161.0</ele><time>2026-04-10T08:28:44Z</time></trkpt><trkpt lat="39.22080992495378" lon="8.795331762934776"><ele>161.0</ele><time>2026-04-10T08:28:45Z</time></trkpt><trkpt lat="39.220799866384915" lon="8.79520068732811"><ele>161.0</ele><time>2026-04-10T08:28:46Z</time></trkpt><trkpt lat="39.220777174206376" lon="8.795086460586017"><ele>161.0</ele><time>2026-04-10T08:28:47Z</time></trkpt><trkpt lat="39.22072373462416" lon="8.794989304715875"><ele>161.0</ele><time>2026-04-10T08:28:48Z</time></trkpt><trkpt lat="39.22064142243826" lon="8.794912989374634"><ele>161.0</ele><time>2026-04-10T08:28:49Z</time></trkpt><trkpt lat="39.2205404288172" lon="8.794882111329358"><ele>161.0</ele><time>2026-04-10T08:28:50Z</time></trkpt><trkpt lat="39.22044151823433" lon="8.794912876284705"><ele>161.0</ele><time>2026-04-10T08:28:51Z</time></trkpt><trkpt lat="39.22035427794361" lon="8.794997895374667"><ele>161.0</ele><time>2026-04-10T08:28:52Z</time></trkpt><trkpt lat="39.2202884479527" lon="8.795117070155662"><ele>161.0</ele><time>2026-04-10T08:28:53Z</time></trkpt><trkpt lat="39.22023847115188" lon="8.79521290591015"><ele>161.0</ele><time>2026-04-10T08:28:54Z</time></trkpt><trkpt lat="39.22019245992381" lon="8.795290460493014"><ele>161.0</ele><time>2026-04-10T08:28:55Z</time></trkpt><trkpt lat="39.22015018959165" lon="8.795356877201918"><ele>161.0</ele><time>2026-04-10T08:28:56Z</time></trkpt><trkpt lat="39.22004495933937" lon="8.795442637380464"><ele>161.0</ele><time>2026-04-10T08:28:58Z</time></trkpt><trkpt lat="39.21995881289502" lon="8.795456892550146"><ele>161.0</ele><time>2026-04-10T08:28:59Z</time></trkpt><trkpt lat="39.21986087548845" lon="8.795428740097961"><ele>161.0</ele><time>2026-04-10T08:29:00Z</time></trkpt><trkpt lat="39.21974930908728" lon="8.795346236103791"><ele>162.0</ele><time>2026-04-10T08:29:01Z</time></trkpt><trkpt lat="39.21963017051364" lon="8.795210549806308"><ele>163.0</ele><time>2026-04-10T08:29:02Z</time></trkpt><trkpt lat="39.21953280081783" lon="8.795063772937429"><ele>164.0</ele><time>2026-04-10T08:29:03Z</time></trkpt><trkpt lat="39.21944500383907" lon="8.794935171694789"><ele>165.0</ele><time>2026-04-10T08:29:04Z</time></trkpt><trkpt lat="39.219346291791595" lon="8.794813577637978"><ele>165.5</ele><time>2026-04-10T08:29:05Z</time></trkpt><trkpt lat="39.2192402138595" lon="8.794685647058092"><ele>166.0</ele><time>2026-04-10T08:29:06Z</time></trkpt><trkpt lat="39.219132787547174" lon="8.794551540784136"><ele>166.5</ele><time>2026-04-10T08:29:07Z</time></trkpt><trkpt lat="39.21903429897065" lon="8.794409506140353"><ele>167.0</ele><time>2026-04-10T08:29:08Z</time></trkpt><trkpt lat="39.2189510428165" lon="8.794274364840657"><ele>167.0</ele><time>2026-04-10T08:29:09Z</time></trkpt><trkpt lat="39.218869887970435" lon="8.794154950827666"><ele>167.0</ele><time>2026-04-10T08:29:10Z</time></trkpt><trkpt lat="39.21878245971545" lon="8.794047202585931"><ele>167.0</ele><time>2026-04-10T08:29:11Z</time></trkpt><trkpt lat="39.218682513854304" lon="8.793945662865603"><ele>167.0</ele><time>2026-04-10T08:29:12Z</time></trkpt><trkpt lat="39.21858132348766" lon="8.793847321298298"><ele>167.0</ele><time>2026-04-10T08:29:13Z</time></trkpt><trkpt lat="39.218490722510836" lon="8.793757050349344"><ele>167.0</ele><time>2026-04-10T08:29:14Z</time></trkpt><trkpt lat="39.21840962703739" lon="8.793653470273224"><ele>167.0</ele><time>2026-04-10T08:29:15Z</time></trkpt><trkpt lat="39.21835816582718" lon="8.793532741628571"><ele>167.0</ele><time>2026-04-10T08:29:16Z</time></trkpt><trkpt lat="39.21832932528839" lon="8.793404477762838"><ele>167.0</ele><time>2026-04-10T08:29:17Z</time></trkpt><trkpt lat="39.218286361875755" lon="8.793279205128984"><ele>169.25</ele><time>2026-04-10T08:29:18Z</time></trkpt><trkpt lat="39.21820221185807" lon="8.793167807722444"><ele>171.5</ele><time>2026-04-10T08:29:19Z</time></trkpt><trkpt lat="39.21808973900449" lon="8.793086775956802"><ele>173.75</ele><time>2026-04-10T08:29:20Z</time></trkpt><trkpt lat="39.217966535487434" lon="8.793038552899409"><ele>176.0</ele><time>2026-04-10T08:29:21Z</time></trkpt><trkpt lat="39.21782805127677" lon="8.793051669858409"><ele>176.0</ele><time>2026-04-10T08:29:22Z</time></trkpt><trkpt lat="39.21768783361329" lon="8.793099408930468"><ele>176.0</ele><time>2026-04-10T08:29:23Z</time></trkpt><trkpt lat="39.21755082341133" lon="8.793146944130593"><ele>176.0</ele><time>2026-04-10T08:29:24Z</time></trkpt><trkpt lat="39.21741296021243" lon="8.793187544320539"><ele>176.0</ele><time>2026-04-10T08:29:25Z</time></trkpt><trkpt lat="39.21727866184803" lon="8.793227288546806"><ele>176.0</ele><time>2026-04-10T08:29:26Z</time></trkpt><trkpt lat="39.2171537088029" lon="8.793263754492129"><ele>176.0</ele><time>2026-04-10T08:29:27Z</time></trkpt><trkpt lat="39.2170373814867" lon="8.793293587094936"><ele>176.0</ele><time>2026-04-10T08:29:28Z</time></trkpt><trkpt lat="39.21692488799376" lon="8.793292650272159"><ele>176.0</ele><time>2026-04-10T08:29:29Z</time></trkpt><trkpt lat="39.21681464940672" lon="8.793267545437338"><ele>176.0</ele><time>2026-04-10T08:29:30Z</time></trkpt><trkpt lat="39.21669374051281" lon="8.793220800927767"><ele>176.0</ele><time>2026-04-10T08:29:31Z</time></trkpt><trkpt lat="39.216565854007136" lon="8.79316836559503"><ele>176.0</ele><time>2026-04-10T08:29:32Z</time></trkpt><trkpt lat="39.216438768323215" lon="8.793117076466482"><ele>176.0</ele><time>2026-04-10T08:29:33Z</time></trkpt><trkpt lat="39.21632219843823" lon="8.793045896398676"><ele>176.25</ele><time>2026-04-10T08:29:34Z</time></trkpt><trkpt lat="39.21621932671894" lon="8.792938709789937"><ele>176.5</ele><time>2026-04-10T08:29:35Z</time></trkpt><trkpt lat="39.21611719051339" lon="8.792803980379981"><ele>176.75</ele><time>2026-04-10T08:29:36Z</time></trkpt><trkpt lat="39.21602042804212" lon="8.79265749797963"><ele>177.0</ele><time>2026-04-10T08:29:37Z</time></trkpt><trkpt lat="39.21593318627498" lon="8.792501955822624"><ele>177.75</ele><time>2026-04-10T08:29:38Z</time></trkpt><trkpt lat="39.21583423261021" lon="8.792358516992445"><ele>178.5</ele><time>2026-04-10T08:29:39Z</time></trkpt><trkpt lat="39.21572088465621" lon="8.792231622109869"><ele>179.25</ele><time>2026-04-10T08:29:40Z</time></trkpt><trkpt lat="39.21560349911458" lon="8.79212173561891"><ele>180.0</ele><time>2026-04-10T08:29:41Z</time></trkpt><trkpt lat="39.215497668356484" lon="8.792021056816374"><ele>180.0</ele><time>2026-04-10T08:29:42Z</time></trkpt><trkpt lat="39.21540635471281" lon="8.791929068217264"><ele>180.0</ele><time>2026-04-10T08:29:43Z</time></trkpt><trkpt lat="39.215321511969826" lon="8.791842715933415"><ele>180.0</ele><time>2026-04-10T08:29:44Z</time></trkpt><trkpt lat="39.2152383357221" lon="8.791768843767105"><ele>180.0</ele><time>2026-04-10T08:29:45Z</time></trkpt><trkpt lat="39.21514964622038" lon="8.791708188262481"><ele>180.0</ele><time>2026-04-10T08:29:46Z</time></trkpt><trkpt lat="39.21504083557692" lon="8.791657652375935"><ele>180.0</ele><time>2026-04-10T08:29:47Z</time></trkpt><trkpt lat="39.21491249746013" lon="8.79162601429506"><ele>180.0</ele><time>2026-04-10T08:29:48Z</time></trkpt><trkpt lat="39.21478341662589" lon="8.791607955994785"><ele>180.0</ele><time>2026-04-10T08:29:49Z</time></trkpt><trkpt lat="39.21466932008213" lon="8.791587777903779"><ele>180.0</ele><time>2026-04-10T08:29:50Z</time></trkpt><trkpt lat="39.21456728018934" lon="8.79156519080693"><ele>180.6</ele><time>2026-04-10T08:29:51Z</time></trkpt><trkpt lat="39.214473079471546" lon="8.79153707450886"><ele>181.2</ele><time>2026-04-10T08:29:52Z</time></trkpt><trkpt lat="39.214382591330704" lon="8.791500942605"><ele>181.8</ele><time>2026-04-10T08:29:53Z</time></trkpt><trkpt lat="39.21429549979197" lon="8.791447218258364"><ele>182.4</ele><time>2026-04-10T08:29:54Z</time></trkpt><trkpt lat="39.21421568005815" lon="8.79137250804904"><ele>183.0</ele><time>2026-04-10T08:29:55Z</time></trkpt><trkpt lat="39.21414047416302" lon="8.79128130856283"><ele>183.0</ele><time>2026-04-10T08:29:56Z</time></trkpt><trkpt lat="39.214067121229625" lon="8.791187461749335"><ele>183.0</ele><time>2026-04-10T08:29:57Z</time></trkpt><trkpt lat="39.21399763046958" lon="8.791097648676507"><ele>183.0</ele><time>2026-04-10T08:29:58Z</time></trkpt><trkpt lat="39.21393758247319" lon="8.791014808524531"><ele>183.0</ele><time>2026-04-10T08:29:59Z</time></trkpt><trkpt lat="39.21388384896187" lon="8.79093594522274"><ele>183.0</ele><time>2026-04-10T08:30:00Z</time></trkpt><trkpt lat="39.213825208229295" lon="8.790854432830372"><ele>184.4</ele><time>2026-04-10T08:30:01Z</time></trkpt><trkpt lat="39.21375341072124" lon="8.790784035333841"><ele>185.8</ele><time>2026-04-10T08:30:02Z</time></trkpt><trkpt lat="39.21365945810455" lon="8.79073706781482"><ele>187.2</ele><time>2026-04-10T08:30:03Z</time></trkpt><trkpt lat="39.21355489835462" lon="8.790711747431931"><ele>188.6</ele><time>2026-04-10T08:30:04Z</time></trkpt><trkpt lat="39.213442362655144" lon="8.790697703208002"><ele>190.0</ele><time>2026-04-10T08:30:05Z</time></trkpt><trkpt lat="39.21332795435457" lon="8.790690277652805"><ele>190.0</ele><time>2026-04-10T08:30:06Z</time></trkpt><trkpt lat="39.21321418896674" lon="8.790676205537975"><ele>190.0</ele><time>2026-04-10T08:30:07Z</time></trkpt><trkpt lat="39.213110179703115" lon="8.790638748145424"><ele>190.0</ele><time>2026-04-10T08:30:08Z</time></trkpt><trkpt lat="39.21302489732704" lon="8.790570305021282"><ele>190.0</ele><time>2026-04-10T08:30:09Z</time></trkpt><trkpt lat="39.21296206719343" lon="8.79047119418434"><ele>190.0</ele><time>2026-04-10T08:30:10Z</time></trkpt><trkpt lat="39.21292103155562" lon="8.79034975754843"><ele>189.75</ele><time>2026-04-10T08:30:11Z</time></trkpt><trkpt lat="39.21288666621694" lon="8.790216492591298"><ele>189.5</ele><time>2026-04-10T08:30:12Z</time></trkpt><trkpt lat="39.21285066613266" lon="8.7900814102127"><ele>189.25</ele><time>2026-04-10T08:30:13Z</time></trkpt><trkpt lat="39.21281358426654" lon="8.78994223012866"><ele>189.0</ele><time>2026-04-10T08:30:14Z</time></trkpt><trkpt lat="39.21277856161863" lon="8.78979664987738"><ele>189.0</ele><time>2026-04-10T08:30:15Z</time></trkpt><trkpt lat="39.21275888419812" lon="8.789641570085825"><ele>189.0</ele><time>2026-04-10T08:30:16Z</time></trkpt><trkpt lat="39.212760037054885" lon="8.789488042400134"><ele>189.0</ele><time>2026-04-10T08:30:17Z</time></trkpt><trkpt lat="39.212783937651224" lon="8.789334424366427"><ele>189.0</ele><time>2026-04-10T08:30:18Z</time></trkpt><trkpt lat="39.212838134150225" lon="8.7891840897923"><ele>190.25</ele><time>2026-04-10T08:30:19Z</time></trkpt><trkpt lat="39.212903814180024" lon="8.789026450316022"><ele>191.5</ele><time>2026-04-10T08:30:20Z</time></trkpt><trkpt lat="39.21296363292585" lon="8.788844619247282"><ele>192.75</ele><time>2026-04-10T08:30:21Z</time></trkpt><trkpt lat="39.21303731564012" lon="8.788666279793484"><ele>194.0</ele><time>2026-04-10T08:30:22Z</time></trkpt><trkpt lat="39.2130980763749" lon="8.788491602474032"><ele>194.75</ele><time>2026-04-10T08:30:23Z</time></trkpt><trkpt lat="39.2131656801256" lon="8.788335251927368"><ele>195.5</ele><time>2026-04-10T08:30:24Z</time></trkpt><trkpt lat="39.213224558315964" lon="8.788174429838712"><ele>196.25</ele><time>2026-04-10T08:30:25Z</time></trkpt><trkpt lat="39.21328195838761" lon="8.788018274919587"><ele>197.0</ele><time>2026-04-10T08:30:26Z</time></trkpt><trkpt lat="39.213344300899344" lon="8.787869834559265"><ele>197.0</ele><time>2026-04-10T08:30:27Z</time></trkpt><trkpt lat="39.21342026858332" lon="8.787741200298289"><ele>197.0</ele><time>2026-04-10T08:30:28Z</time></trkpt><trkpt lat="39.21349469427028" lon="8.7876344925906"><ele>197.0</ele><time>2026-04-10T08:30:29Z</time></trkpt><trkpt lat="39.213557297833994" lon="8.787549395338637"><ele>197.0</ele><time>2026-04-10T08:30:30Z</time></trkpt><trkpt lat="39.21360732601411" lon="8.78748054477506"><ele>197.0</ele><time>2026-04-10T08:30:31Z</time></trkpt><trkpt lat="39.21365628911799" lon="8.787352327175839"><ele>198.75</ele><time>2026-04-10T08:30:33Z</time></trkpt><trkpt lat="39.213617200574134" lon="8.78721111076804"><ele>200.5</ele><time>2026-04-10T08:30:35Z</time></trkpt><trkpt lat="39.21348935975846" lon="8.787189722668003"><ele>202.25</ele><time>2026-04-10T08:30:37Z</time></trkpt><trkpt lat="39.21339761914965" lon="8.78726499616624"><ele>204.0</ele><time>2026-04-10T08:30:38Z</time></trkpt><trkpt lat="39.21327960854541" lon="8.787340102304544"><ele>205.75</ele><time>2026-04-10T08:30:39Z</time></trkpt><trkpt lat="39.213146657060605" lon="8.787381985213779"><ele>207.5</ele><time>2026-04-10T08:30:40Z</time></trkpt><trkpt lat="39.21299485259872" lon="8.787373156397658"><ele>209.25</ele><time>2026-04-10T08:30:41Z</time></trkpt><trkpt lat="39.21283705975063" lon="8.787361364581729"><ele>211.0</ele><time>2026-04-10T08:30:42Z</time></trkpt><trkpt lat="39.21268530422336" lon="8.787391497720867"><ele>211.0</ele><time>2026-04-10T08:30:43Z</time></trkpt><trkpt lat="39.21254171267066" lon="8.78746199302107"><ele>211.0</ele><time>2026-04-10T08:30:44Z</time></trkpt><trkpt lat="39.2124194926342" lon="8.78754680582107"><ele>211.0</ele><time>2026-04-10T08:30:45Z</time></trkpt><trkpt lat="39.212317377252475" lon="8.787608177864177"><ele>211.0</ele><time>2026-04-10T08:30:46Z</time></trkpt><trkpt lat="39.21224231113336" lon="8.787624244641595"><ele>211.0</ele><time>2026-04-10T08:30:47Z</time></trkpt><trkpt lat="39.212167211819086" lon="8.787518934255242"><ele>211.0</ele><time>2026-04-10T08:30:49Z</time></trkpt><trkpt lat="39.212287298841055" lon="8.787340439793883"><ele>211.0</ele><time>2026-04-10T08:30:51Z</time></trkpt><trkpt lat="39.212394758773144" lon="8.787241072758022"><ele>211.0</ele><time>2026-04-10T08:30:52Z</time></trkpt><trkpt lat="39.212532152020266" lon="8.787129201311537"><ele>211.0</ele><time>2026-04-10T08:30:53Z</time></trkpt><trkpt lat="39.212702249717154" lon="8.787024880375863"><ele>211.0</ele><time>2026-04-10T08:30:54Z</time></trkpt><trkpt lat="39.21290902723512" lon="8.78694018593492"><ele>211.0</ele><time>2026-04-10T08:30:55Z</time></trkpt><trkpt lat="39.213100837814764" lon="8.78689161673893"><ele>212.75</ele><time>2026-04-10T08:30:56Z</time></trkpt><trkpt lat="39.21324175161514" lon="8.786838154241678"><ele>214.5</ele><time>2026-04-10T08:30:57Z</time></trkpt><trkpt lat="39.21333153778764" lon="8.786768409055611"><ele>216.25</ele><time>2026-04-10T08:30:58Z</time></trkpt><trkpt lat="39.213395330093405" lon="8.786673327276942"><ele>218.0</ele><time>2026-04-10T08:30:59Z</time></trkpt><trkpt lat="39.213438950315435" lon="8.786550183517642"><ele>218.0</ele><time>2026-04-10T08:31:00Z</time></trkpt><trkpt lat="39.21342131689763" lon="8.786393192323171"><ele>218.0</ele><time>2026-04-10T08:31:01Z</time></trkpt><trkpt lat="39.21334328467461" lon="8.786229479184373"><ele>218.0</ele><time>2026-04-10T08:31:02Z</time></trkpt><trkpt lat="39.21321848638036" lon="8.786098728925255"><ele>218.0</ele><time>2026-04-10T08:31:03Z</time></trkpt><trkpt lat="39.21309416783648" lon="8.78599370434929"><ele>221.25</ele><time>2026-04-10T08:31:04Z</time></trkpt><trkpt lat="39.21303951356856" lon="8.785870479388032"><ele>224.5</ele><time>2026-04-10T08:31:05Z</time></trkpt><trkpt lat="39.213051026216014" lon="8.785711285640508"><ele>227.75</ele><time>2026-04-10T08:31:06Z</time></trkpt><trkpt lat="39.21309055086984" lon="8.785522921131637"><ele>231.0</ele><time>2026-04-10T08:31:07Z</time></trkpt><trkpt lat="39.213065474310035" lon="8.785377130961061"><ele>231.0</ele><time>2026-04-10T08:31:08Z</time></trkpt><trkpt lat="39.21296747783011" lon="8.785289004927709"><ele>231.0</ele><time>2026-04-10T08:31:09Z</time></trkpt><trkpt lat="39.212807455354174" lon="8.785231573912224"><ele>231.0</ele><time>2026-04-10T08:31:10Z</time></trkpt><trkpt lat="39.212632673863375" lon="8.785220653896129"><ele>231.0</ele><time>2026-04-10T08:31:11Z</time></trkpt><trkpt lat="39.212446132677364" lon="8.785265475901607"><ele>231.0</ele><time>2026-04-10T08:31:12Z</time></trkpt><trkpt lat="39.21230113580623" lon="8.785299149955266"><ele>231.0</ele><time>2026-04-10T08:31:13Z</time></trkpt><trkpt lat="39.21216774490301" lon="8.785251666775665"><ele>232.66666666666669</ele><time>2026-04-10T08:31:14Z</time></trkpt><trkpt lat="39.21203280077784" lon="8.785108521151344"><ele>234.33333333333334</ele><time>2026-04-10T08:31:15Z</time></trkpt><trkpt lat="39.21190889648685" lon="8.784917775470245"><ele>236.0</ele><time>2026-04-10T08:31:16Z</time></trkpt><trkpt lat="39.21182213708245" lon="8.784703484288295"><ele>236.0</ele><time>2026-04-10T08:31:17Z</time></trkpt><trkpt lat="39.21178562053599" lon="8.78451391022178"><ele>236.0</ele><time>2026-04-10T08:31:18Z</time></trkpt><trkpt lat="39.21177355138077" lon="8.78434086057416"><ele>236.0</ele><time>2026-04-10T08:31:19Z</time></trkpt><trkpt lat="39.21179526407949" lon="8.784135097912179"><ele>236.0</ele><time>2026-04-10T08:31:20Z</time></trkpt><trkpt lat="39.21177896637569" lon="8.783933785531566"><ele>238.33333333333334</ele><time>2026-04-10T08:31:21Z</time></trkpt><trkpt lat="39.21173314274675" lon="8.783742054839012"><ele>240.66666666666669</ele><time>2026-04-10T08:31:22Z</time></trkpt><trkpt lat="39.21162714127769" lon="8.783540622295146"><ele>243.0</ele><time>2026-04-10T08:31:23Z</time></trkpt><trkpt lat="39.211481201058504" lon="8.78332207171593"><ele>245.33333333333331</ele><time>2026-04-10T08:31:24Z</time></trkpt><trkpt lat="39.21135264059631" lon="8.783132226664314"><ele>247.66666666666666</ele><time>2026-04-10T08:31:25Z</time></trkpt><trkpt lat="39.21124010633861" lon="8.782971216093983"><ele>250.0</ele><time>2026-04-10T08:31:26Z</time></trkpt><trkpt lat="39.21111210420586" lon="8.78283674660889"><ele>250.0</ele><time>2026-04-10T08:31:27Z</time></trkpt><trkpt lat="39.21093089999383" lon="8.782726936126428"><ele>250.0</ele><time>2026-04-10T08:31:28Z</time></trkpt><trkpt lat="39.21070035573126" lon="8.782640532943496"><ele>250.0</ele><time>2026-04-10T08:31:29Z</time></trkpt><trkpt lat="39.21047582666562" lon="8.782550542766723"><ele>252.0</ele><time>2026-04-10T08:31:30Z</time></trkpt><trkpt lat="39.210303764225735" lon="8.782456845510103"><ele>254.0</ele><time>2026-04-10T08:31:31Z</time></trkpt><trkpt lat="39.21017061765005" lon="8.78239214367368"><ele>256.0</ele><time>2026-04-10T08:31:32Z</time></trkpt><trkpt lat="39.21004388416453" lon="8.782375495078115"><ele>256.0</ele><time>2026-04-10T08:31:33Z</time></trkpt><trkpt lat="39.20987951724956" lon="8.782423905604468"><ele>256.0</ele><time>2026-04-10T08:31:34Z</time></trkpt><trkpt lat="39.20969915766553" lon="8.782494732340194"><ele>256.0</ele><time>2026-04-10T08:31:35Z</time></trkpt><trkpt lat="39.209545629472416" lon="8.782489595209299"><ele>256.66666666666663</ele><time>2026-04-10T08:31:36Z</time></trkpt><trkpt lat="39.209403734928806" lon="8.782448089235258"><ele>257.3333333333333</ele><time>2026-04-10T08:31:37Z</time></trkpt><trkpt lat="39.2092516863324" lon="8.782355221922902"><ele>258.0</ele><time>2026-04-10T08:31:38Z</time></trkpt><trkpt lat="39.20911382042708" lon="8.782232095885984"><ele>259.6666666666667</ele><time>2026-04-10T08:31:39Z</time></trkpt><trkpt lat="39.20897944209297" lon="8.782079897451835"><ele>261.33333333333337</ele><time>2026-04-10T08:31:40Z</time></trkpt><trkpt lat="39.208824170339" lon="8.781920040030856"><ele>263.0</ele><time>2026-04-10T08:31:41Z</time></trkpt><trkpt lat="39.20870703036677" lon="8.781761070558508"><ele>263.25</ele><time>2026-04-10T08:31:42Z</time></trkpt><trkpt lat="39.208614729133494" lon="8.781621042036573"><ele>263.5</ele><time>2026-04-10T08:31:43Z</time></trkpt><trkpt lat="39.20856230655155" lon="8.781471019869867"><ele>263.75</ele><time>2026-04-10T08:31:44Z</time></trkpt><trkpt lat="39.20856484566689" lon="8.781290026529124"><ele>264.0</ele><time>2026-04-10T08:31:45Z</time></trkpt><trkpt lat="39.20853019803938" lon="8.781075356596572"><ele>266.6666666666667</ele><time>2026-04-10T08:31:46Z</time></trkpt><trkpt lat="39.20847884889511" lon="8.780838025882254"><ele>269.33333333333337</ele><time>2026-04-10T08:31:47Z</time></trkpt><trkpt lat="39.20839146478317" lon="8.780635473101439"><ele>272.0</ele><time>2026-04-10T08:31:48Z</time></trkpt><trkpt lat="39.20828244875081" lon="8.780487341537778"><ele>272.0</ele><time>2026-04-10T08:31:49Z</time></trkpt><trkpt lat="39.208168446046656" lon="8.780357095338319"><ele>272.0</ele><time>2026-04-10T08:31:50Z</time></trkpt><trkpt lat="39.20801745654886" lon="8.780255610993557"><ele>272.0</ele><time>2026-04-10T08:31:51Z</time></trkpt><trkpt lat="39.20784552985797" lon="8.78017979184536"><ele>273.33333333333337</ele><time>2026-04-10T08:31:52Z</time></trkpt><trkpt lat="39.20768978081793" lon="8.780094669940796"><ele>274.6666666666667</ele><time>2026-04-10T08:31:53Z</time></trkpt><trkpt lat="39.207553368977" lon="8.779982394498306"><ele>276.0</ele><time>2026-04-10T08:31:54Z</time></trkpt><trkpt lat="39.20742094962017" lon="8.779893563521325"><ele>275.5</ele><time>2026-04-10T08:31:55Z</time></trkpt><trkpt lat="39.207283883432495" lon="8.779837573005791"><ele>275.0</ele><time>2026-04-10T08:31:56Z</time></trkpt><trkpt lat="39.20714941789252" lon="8.779803156875866"><ele>274.5</ele><time>2026-04-10T08:31:57Z</time></trkpt><trkpt lat="39.20702614305362" lon="8.779767404630045"><ele>274.0</ele><time>2026-04-10T08:31:58Z</time></trkpt><trkpt lat="39.206924530736934" lon="8.779705424609492"><ele>274.0</ele><time>2026-04-10T08:31:59Z</time></trkpt><trkpt lat="39.20684958960894" lon="8.779594766632826"><ele>274.0</ele><time>2026-04-10T08:32:00Z</time></trkpt><trkpt lat="39.20682557227325" lon="8.77942394004722"><ele>274.0</ele><time>2026-04-10T08:32:01Z</time></trkpt><trkpt lat="39.20677750084137" lon="8.779237900141585"><ele>274.0</ele><time>2026-04-10T08:32:02Z</time></trkpt><trkpt lat="39.20674568002267" lon="8.779038158745932"><ele>274.25</ele><time>2026-04-10T08:32:03Z</time></trkpt><trkpt lat="39.20671270708168" lon="8.778841382795562"><ele>274.5</ele><time>2026-04-10T08:32:04Z</time></trkpt><trkpt lat="39.20668709336258" lon="8.778654504748978"><ele>274.75</ele><time>2026-04-10T08:32:05Z</time></trkpt><trkpt lat="39.2066828430697" lon="8.778482301045168"><ele>275.0</ele><time>2026-04-10T08:32:06Z</time></trkpt><trkpt lat="39.20669041825893" lon="8.778306597165864"><ele>275.5</ele><time>2026-04-10T08:32:07Z</time></trkpt><trkpt lat="39.2066834137502" lon="8.778128501413907"><ele>276.0</ele><time>2026-04-10T08:32:08Z</time></trkpt><trkpt lat="39.20664139770531" lon="8.777947797632361"><ele>276.5</ele><time>2026-04-10T08:32:09Z</time></trkpt><trkpt lat="39.20656023831786" lon="8.777776223525718"><ele>277.0</ele><time>2026-04-10T08:32:10Z</time></trkpt><trkpt lat="39.2064505227137" lon="8.777618945999157"><ele>279.66666666666663</ele><time>2026-04-10T08:32:11Z</time></trkpt><trkpt lat="39.206342950794" lon="8.77747502623235"><ele>282.3333333333333</ele><time>2026-04-10T08:32:12Z</time></trkpt><trkpt lat="39.2062357448117" lon="8.777319699363396"><ele>285.0</ele><time>2026-04-10T08:32:13Z</time></trkpt><trkpt lat="39.206147022965716" lon="8.777149195707795"><ele>285.0</ele><time>2026-04-10T08:32:14Z</time></trkpt><trkpt lat="39.20607528252596" lon="8.776952769233967"><ele>285.0</ele><time>2026-04-10T08:32:15Z</time></trkpt><trkpt lat="39.206000140478764" lon="8.776769580087304"><ele>285.0</ele><time>2026-04-10T08:32:16Z</time></trkpt><trkpt lat="39.205885883961535" lon="8.776619768945123"><ele>286.3333333333333</ele><time>2026-04-10T08:32:17Z</time></trkpt><trkpt lat="39.20574719170611" lon="8.776491505635416"><ele>287.66666666666663</ele><time>2026-04-10T08:32:18Z</time></trkpt><trkpt lat="39.20560603054434" lon="8.776384727181071"><ele>289.0</ele><time>2026-04-10T08:32:19Z</time></trkpt><trkpt lat="39.2054503626985" lon="8.776267015676172"><ele>289.0</ele><time>2026-04-10T08:32:20Z</time></trkpt><trkpt lat="39.205283862117255" lon="8.776142845682108"><ele>289.0</ele><time>2026-04-10T08:32:21Z</time></trkpt><trkpt lat="39.20511444846695" lon="8.776016503340594"><ele>289.0</ele><time>2026-04-10T08:32:22Z</time></trkpt><trkpt lat="39.204949390530295" lon="8.775893409231974"><ele>288.0</ele><time>2026-04-10T08:32:23Z</time></trkpt><trkpt lat="39.2047838545057" lon="8.775769958651665"><ele>287.0</ele><time>2026-04-10T08:32:24Z</time></trkpt><trkpt lat="39.204610042186324" lon="8.775662829980556"><ele>286.0</ele><time>2026-04-10T08:32:25Z</time></trkpt><trkpt lat="39.20444242806774" lon="8.775535186600766"><ele>286.0</ele><time>2026-04-10T08:32:26Z</time></trkpt><trkpt lat="39.204273210806576" lon="8.775407904578888"><ele>286.0</ele><time>2026-04-10T08:32:27Z</time></trkpt><trkpt lat="39.20410456679155" lon="8.775273909281657"><ele>286.0</ele><time>2026-04-10T08:32:28Z</time></trkpt><trkpt lat="39.203934862649334" lon="8.775133143015923"><ele>284.66666666666663</ele><time>2026-04-10T08:32:29Z</time></trkpt><trkpt lat="39.20376529924843" lon="8.774988216381061"><ele>283.3333333333333</ele><time>2026-04-10T08:32:30Z</time></trkpt><trkpt lat="39.203590195446054" lon="8.774843186167407"><ele>282.0</ele><time>2026-04-10T08:32:31Z</time></trkpt><trkpt lat="39.203417975437816" lon="8.774699448522467"><ele>282.0</ele><time>2026-04-10T08:32:32Z</time></trkpt><trkpt lat="39.20324785946586" lon="8.774558174011426"><ele>282.0</ele><time>2026-04-10T08:32:33Z</time></trkpt><trkpt lat="39.203080644171564" lon="8.77441740180933"><ele>282.0</ele><time>2026-04-10T08:32:34Z</time></trkpt><trkpt lat="39.20291842681411" lon="8.774281660088757"><ele>282.6666666666667</ele><time>2026-04-10T08:32:35Z</time></trkpt><trkpt lat="39.20276075958607" lon="8.774150953094878"><ele>283.33333333333337</ele><time>2026-04-10T08:32:36Z</time></trkpt><trkpt lat="39.202606369741765" lon="8.774023720530975"><ele>284.0</ele><time>2026-04-10T08:32:37Z</time></trkpt><trkpt lat="39.202455383991236" lon="8.77390111060071"><ele>285.6666666666667</ele><time>2026-04-10T08:32:38Z</time></trkpt><trkpt lat="39.202306745421694" lon="8.773779386274944"><ele>287.3333333333333</ele><time>2026-04-10T08:32:39Z</time></trkpt><trkpt lat="39.20216066313265" lon="8.77365530254116"><ele>289.0</ele><time>2026-04-10T08:32:40Z</time></trkpt><trkpt lat="39.20201402811578" lon="8.77352916630781"><ele>289.0</ele><time>2026-04-10T08:32:41Z</time></trkpt><trkpt lat="39.20186448933076" lon="8.773405162369862"><ele>289.0</ele><time>2026-04-10T08:32:42Z</time></trkpt><trkpt lat="39.20171456081899" lon="8.773283734405085"><ele>289.0</ele><time>2026-04-10T08:32:43Z</time></trkpt><trkpt lat="39.20156505636097" lon="8.773160206513516"><ele>289.3333333333333</ele><time>2026-04-10T08:32:44Z</time></trkpt><trkpt lat="39.20140567165152" lon="8.77302615786523"><ele>289.6666666666667</ele><time>2026-04-10T08:32:45Z</time></trkpt><trkpt lat="39.20122521021834" lon="8.772873881489614"><ele>290.0</ele><time>2026-04-10T08:32:46Z</time></trkpt><trkpt lat="39.201026266428684" lon="8.77271124803436"><ele>290.0</ele><time>2026-04-10T08:32:47Z</time></trkpt><trkpt lat="39.20081748747895" lon="8.77254144216106"><ele>290.0</ele><time>2026-04-10T08:32:48Z</time></trkpt><trkpt lat="39.20061730841157" lon="8.772379342010964"><ele>290.0</ele><time>2026-04-10T08:32:49Z</time></trkpt><trkpt lat="39.20043130320062" lon="8.772229589681691"><ele>290.0</ele><time>2026-04-10T08:32:50Z</time></trkpt><trkpt lat="39.20025389873055" lon="8.772079782603852"><ele>290.0</ele><time>2026-04-10T08:32:51Z</time></trkpt><trkpt lat="39.200081784551415" lon="8.771926712613753"><ele>289.6666666666667</ele><time>2026-04-10T08:32:52Z</time></trkpt><trkpt lat="39.199914438943665" lon="8.771761902465567"><ele>289.3333333333333</ele><time>2026-04-10T08:32:53Z</time></trkpt><trkpt lat="39.19975879130362" lon="8.771586318416034"><ele>289.0</ele><time>2026-04-10T08:32:54Z</time></trkpt><trkpt lat="39.199609653697806" lon="8.771404852062888"><ele>289.0</ele><time>2026-04-10T08:32:55Z</time></trkpt><trkpt lat="39.19946136864273" lon="8.77122621731025"><ele>289.0</ele><time>2026-04-10T08:32:56Z</time></trkpt><trkpt lat="39.19931639463173" lon="8.7710514056523"><ele>289.0</ele><time>2026-04-10T08:32:57Z</time></trkpt><trkpt lat="39.19917861840466" lon="8.77088829241279"><ele>289.5</ele><time>2026-04-10T08:32:58Z</time></trkpt><trkpt lat="39.199062566314176" lon="8.77075281944523"><ele>290.0</ele><time>2026-04-10T08:32:59Z</time></trkpt><trkpt lat="39.198952040578" lon="8.77063524585687"><ele>290.5</ele><time>2026-04-10T08:33:00Z</time></trkpt><trkpt lat="39.1988321248234" lon="8.770530223594136"><ele>291.0</ele><time>2026-04-10T08:33:01Z</time></trkpt><trkpt lat="39.19868071508186" lon="8.770460533455875"><ele>288.6666666666667</ele><time>2026-04-10T08:33:02Z</time></trkpt><trkpt lat="39.19849924953232" lon="8.770425722203811"><ele>286.33333333333337</ele><time>2026-04-10T08:33:03Z</time></trkpt><trkpt lat="39.198318261026905" lon="8.770412829482062"><ele>284.0</ele><time>2026-04-10T08:33:04Z</time></trkpt><trkpt lat="39.19815203744637" lon="8.770388138216674"><ele>282.5</ele><time>2026-04-10T08:33:05Z</time></trkpt><trkpt lat="39.19800415851545" lon="8.77035874748375"><ele>281.0</ele><time>2026-04-10T08:33:06Z</time></trkpt><trkpt lat="39.19788010745275" lon="8.770345802803494"><ele>279.5</ele><time>2026-04-10T08:33:07Z</time></trkpt><trkpt lat="39.19776777989531" lon="8.770368649147574"><ele>278.0</ele><time>2026-04-10T08:33:08Z</time></trkpt><trkpt lat="39.19766546143279" lon="8.770436190190985"><ele>278.0</ele><time>2026-04-10T08:33:09Z</time></trkpt><trkpt lat="39.197573348711494" lon="8.770550569578516"><ele>278.0</ele><time>2026-04-10T08:33:10Z</time></trkpt><trkpt lat="39.19749784643852" lon="8.770679856322545"><ele>278.0</ele><time>2026-04-10T08:33:11Z</time></trkpt><trkpt lat="39.19742757258057" lon="8.770786600569933"><ele>278.0</ele><time>2026-04-10T08:33:12Z</time></trkpt><trkpt lat="39.19735419537518" lon="8.770847291158121"><ele>278.0</ele><time>2026-04-10T08:33:13Z</time></trkpt><trkpt lat="39.19727274434287" lon="8.770868957604534"><ele>276.0</ele><time>2026-04-10T08:33:14Z</time></trkpt><trkpt lat="39.19718801780959" lon="8.770833091544924"><ele>274.0</ele><time>2026-04-10T08:33:15Z</time></trkpt><trkpt lat="39.19710639562627" lon="8.770736852731083"><ele>272.0</ele><time>2026-04-10T08:33:16Z</time></trkpt><trkpt lat="39.19702833529986" lon="8.770593081691977"><ele>270.0</ele><time>2026-04-10T08:33:17Z</time></trkpt><trkpt lat="39.19694911691865" lon="8.770455608290497"><ele>270.0</ele><time>2026-04-10T08:33:18Z</time></trkpt><trkpt lat="39.19684264273388" lon="8.770341182070796"><ele>270.0</ele><time>2026-04-10T08:33:19Z</time></trkpt><trkpt lat="39.19670976790406" lon="8.770247081636176"><ele>270.0</ele><time>2026-04-10T08:33:20Z</time></trkpt><trkpt lat="39.19657213357562" lon="8.770160693332315"><ele>270.0</ele><time>2026-04-10T08:33:21Z</time></trkpt><trkpt lat="39.19643362082261" lon="8.770077358006342"><ele>272.0</ele><time>2026-04-10T08:33:22Z</time></trkpt><trkpt lat="39.19630204456587" lon="8.769999012405487"><ele>274.0</ele><time>2026-04-10T08:33:23Z</time></trkpt><trkpt lat="39.19617667371851" lon="8.769938425164371"><ele>276.0</ele><time>2026-04-10T08:33:24Z</time></trkpt><trkpt lat="39.19604733392767" lon="8.769924130174056"><ele>278.0</ele><time>2026-04-10T08:33:25Z</time></trkpt><trkpt lat="39.195904600305255" lon="8.769963519729542"><ele>278.0</ele><time>2026-04-10T08:33:26Z</time></trkpt><trkpt lat="39.195752233816165" lon="8.770037929303347"><ele>278.0</ele><time>2026-04-10T08:33:27Z</time></trkpt><trkpt lat="39.195599398276705" lon="8.770126197469521"><ele>278.0</ele><time>2026-04-10T08:33:28Z</time></trkpt><trkpt lat="39.195469264315605" lon="8.770204067937721"><ele>278.25</ele><time>2026-04-10T08:33:29Z</time></trkpt><trkpt lat="39.19534376550287" lon="8.770252970214331"><ele>278.5</ele><time>2026-04-10T08:33:30Z</time></trkpt><trkpt lat="39.195218629474844" lon="8.770245896434353"><ele>278.75</ele><time>2026-04-10T08:33:31Z</time></trkpt><trkpt lat="39.19508836590537" lon="8.770185867390198"><ele>279.0</ele><time>2026-04-10T08:33:32Z</time></trkpt><trkpt lat="39.19495908231202" lon="8.77013599134828"><ele>280.25</ele><time>2026-04-10T08:33:33Z</time></trkpt><trkpt lat="39.19483760154153" lon="8.77015169896144"><ele>281.5</ele><time>2026-04-10T08:33:34Z</time></trkpt><trkpt lat="39.19473602405585" lon="8.770223637192226"><ele>282.75</ele><time>2026-04-10T08:33:35Z</time></trkpt><trkpt lat="39.19466551972297" lon="8.770346591358015"><ele>284.0</ele><time>2026-04-10T08:33:36Z</time></trkpt><trkpt lat="39.194622672819854" lon="8.77050309138044"><ele>280.8</ele><time>2026-04-10T08:33:37Z</time></trkpt><trkpt lat="39.19460272924104" lon="8.770667136054186"><ele>277.59999999999997</ele><time>2026-04-10T08:33:38Z</time></trkpt><trkpt lat="39.19456775929493" lon="8.770806668174073"><ele>274.4</ele><time>2026-04-10T08:33:39Z</time></trkpt><trkpt lat="39.194510600384085" lon="8.770906558717193"><ele>271.2</ele><time>2026-04-10T08:33:40Z</time></trkpt><trkpt lat="39.19441913712785" lon="8.770977808054965"><ele>268.0</ele><time>2026-04-10T08:33:41Z</time></trkpt><trkpt lat="39.19429067895374" lon="8.771037237763588"><ele>264.75</ele><time>2026-04-10T08:33:42Z</time></trkpt><trkpt lat="39.194157828709706" lon="8.771091373781978"><ele>261.5</ele><time>2026-04-10T08:33:43Z</time></trkpt><trkpt lat="39.19402915896682" lon="8.771125548579144"><ele>258.25</ele><time>2026-04-10T08:33:44Z</time></trkpt><trkpt lat="39.19390913695051" lon="8.771144121514922"><ele>255.0</ele><time>2026-04-10T08:33:45Z</time></trkpt><trkpt lat="39.19379584216923" lon="8.771147643841296"><ele>254.5</ele><time>2026-04-10T08:33:46Z</time></trkpt><trkpt lat="39.193692284665595" lon="8.771110747019993"><ele>254.0</ele><time>2026-04-10T08:33:47Z</time></trkpt><trkpt lat="39.193572404069954" lon="8.77103254238253"><ele>253.5</ele><time>2026-04-10T08:33:48Z</time></trkpt><trkpt lat="39.19344048306295" lon="8.770933533661225"><ele>253.0</ele><time>2026-04-10T08:33:49Z</time></trkpt><trkpt lat="39.19330377613712" lon="8.770855029476218"><ele>253.0</ele><time>2026-04-10T08:33:50Z</time></trkpt><trkpt lat="39.193164574406815" lon="8.770814547799606"><ele>253.0</ele><time>2026-04-10T08:33:51Z</time></trkpt><trkpt lat="39.19303073247483" lon="8.770785184639418"><ele>253.0</ele><time>2026-04-10T08:33:52Z</time></trkpt><trkpt lat="39.192911369054514" lon="8.770715012349408"><ele>253.0</ele><time>2026-04-10T08:33:53Z</time></trkpt><trkpt lat="39.19281965167937" lon="8.770566451471204"><ele>253.0</ele><time>2026-04-10T08:33:54Z</time></trkpt><trkpt lat="39.192708689826745" lon="8.770393191754287"><ele>253.0</ele><time>2026-04-10T08:33:55Z</time></trkpt><trkpt lat="39.19261190930144" lon="8.770170798907701"><ele>253.0</ele><time>2026-04-10T08:33:56Z</time></trkpt><trkpt lat="39.192510984721544" lon="8.76998288805812"><ele>256.66666666666663</ele><time>2026-04-10T08:33:57Z</time></trkpt><trkpt lat="39.192396013261195" lon="8.769826916680474"><ele>260.3333333333333</ele><time>2026-04-10T08:33:58Z</time></trkpt><trkpt lat="39.19225800705064" lon="8.769716135109906"><ele>264.0</ele><time>2026-04-10T08:33:59Z</time></trkpt><trkpt lat="39.19210044736962" lon="8.769652239379402"><ele>264.6666666666667</ele><time>2026-04-10T08:34:00Z</time></trkpt><trkpt lat="39.191939583568164" lon="8.769626401936751"><ele>265.33333333333337</ele><time>2026-04-10T08:34:01Z</time></trkpt><trkpt lat="39.19176845168256" lon="8.769641579804228"><ele>266.0</ele><time>2026-04-10T08:34:02Z</time></trkpt><trkpt lat="39.191589369660534" lon="8.769697854978181"><ele>264.33333333333337</ele><time>2026-04-10T08:34:03Z</time></trkpt><trkpt lat="39.19141506016971" lon="8.769733627668721"><ele>262.6666666666667</ele><time>2026-04-10T08:34:04Z</time></trkpt><trkpt lat="39.19120686697201" lon="8.769714475489435"><ele>261.0</ele><time>2026-04-10T08:34:05Z</time></trkpt><trkpt lat="39.19098253122728" lon="8.769683158082165"><ele>261.0</ele><time>2026-04-10T08:34:06Z</time></trkpt><trkpt lat="39.190787716029355" lon="8.769660824007643"><ele>261.0</ele><time>2026-04-10T08:34:07Z</time></trkpt><trkpt lat="39.19061086631859" lon="8.769632097097835"><ele>261.0</ele><time>2026-04-10T08:34:08Z</time></trkpt><trkpt lat="39.19045366925503" lon="8.769576083826145"><ele>262.25</ele><time>2026-04-10T08:34:09Z</time></trkpt><trkpt lat="39.190323546942366" lon="8.76948561529334"><ele>263.5</ele><time>2026-04-10T08:34:10Z</time></trkpt><trkpt lat="39.19021188391358" lon="8.769366900864636"><ele>264.75</ele><time>2026-04-10T08:34:11Z</time></trkpt><trkpt lat="39.190122907080934" lon="8.769215591123361"><ele>266.0</ele><time>2026-04-10T08:34:12Z</time></trkpt><trkpt lat="39.19005712503505" lon="8.769031364080515"><ele>266.0</ele><time>2026-04-10T08:34:13Z</time></trkpt><trkpt lat="39.19000698879029" lon="8.768838679345201"><ele>266.0</ele><time>2026-04-10T08:34:14Z</time></trkpt><trkpt lat="39.189955742533556" lon="8.768653232435675"><ele>266.0</ele><time>2026-04-10T08:34:15Z</time></trkpt><trkpt lat="39.1898976926436" lon="8.768479553041956"><ele>264.0</ele><time>2026-04-10T08:34:16Z</time></trkpt><trkpt lat="39.18978538919665" lon="8.768305398684873"><ele>262.0</ele><time>2026-04-10T08:34:17Z</time></trkpt><trkpt lat="39.189623478083504" lon="8.768160458573293"><ele>260.0</ele><time>2026-04-10T08:34:18Z</time></trkpt><trkpt lat="39.18950273129509" lon="8.76799526191017"><ele>260.0</ele><time>2026-04-10T08:34:19Z</time></trkpt><trkpt lat="39.18940571771587" lon="8.767848012294115"><ele>260.0</ele><time>2026-04-10T08:34:20Z</time></trkpt><trkpt lat="39.18934050366239" lon="8.767672653439371"><ele>260.0</ele><time>2026-04-10T08:34:21Z</time></trkpt><trkpt lat="39.189313353004344" lon="8.767459400298389"><ele>259.6666666666667</ele><time>2026-04-10T08:34:22Z</time></trkpt><trkpt lat="39.18930229208428" lon="8.767201855913802"><ele>259.3333333333333</ele><time>2026-04-10T08:34:23Z</time></trkpt><trkpt lat="39.18928985808326" lon="8.766912981615626"><ele>259.0</ele><time>2026-04-10T08:34:24Z</time></trkpt><trkpt lat="39.18924544930697" lon="8.76661628463191"><ele>259.0</ele><time>2026-04-10T08:34:25Z</time></trkpt><trkpt lat="39.18920402607471" lon="8.766322271764727"><ele>259.0</ele><time>2026-04-10T08:34:26Z</time></trkpt><trkpt lat="39.189154176198095" lon="8.766040113724719"><ele>257.66666666666663</ele><time>2026-04-10T08:34:27Z</time></trkpt><trkpt lat="39.18912612915707" lon="8.765766612904756"><ele>256.3333333333333</ele><time>2026-04-10T08:34:28Z</time></trkpt><trkpt lat="39.18908600416789" lon="8.765517495831569"><ele>255.0</ele><time>2026-04-10T08:34:29Z</time></trkpt><trkpt lat="39.18905060743492" lon="8.765293645722288"><ele>253.66666666666669</ele><time>2026-04-10T08:34:30Z</time></trkpt><trkpt lat="39.18901980372823" lon="8.76508971778092"><ele>252.33333333333334</ele><time>2026-04-10T08:34:31Z</time></trkpt><trkpt lat="39.18899955467498" lon="8.764893228470603"><ele>251.0</ele><time>2026-04-10T08:34:32Z</time></trkpt><trkpt lat="39.18900265195723" lon="8.764703162761917"><ele>251.0</ele><time>2026-04-10T08:34:33Z</time></trkpt><trkpt lat="39.189031633280834" lon="8.764520377779151"><ele>251.0</ele><time>2026-04-10T08:34:34Z</time></trkpt><trkpt lat="39.189068422438886" lon="8.764331182009515"><ele>251.0</ele><time>2026-04-10T08:34:35Z</time></trkpt><trkpt lat="39.18913667973479" lon="8.764151239873613"><ele>248.0</ele><time>2026-04-10T08:34:36Z</time></trkpt><trkpt lat="39.189204853010374" lon="8.763961004212609"><ele>245.0</ele><time>2026-04-10T08:34:37Z</time></trkpt><trkpt lat="39.189274919820924" lon="8.763758223813806"><ele>242.0</ele><time>2026-04-10T08:34:38Z</time></trkpt><trkpt lat="39.18929507489056" lon="8.763526380267628"><ele>240.0</ele><time>2026-04-10T08:34:39Z</time></trkpt><trkpt lat="39.18931633559038" lon="8.763294620219689"><ele>238.0</ele><time>2026-04-10T08:34:40Z</time></trkpt><trkpt lat="39.18934570974057" lon="8.763069156299975"><ele>236.0</ele><time>2026-04-10T08:34:41Z</time></trkpt><trkpt lat="39.18934003615032" lon="8.76283975513061"><ele>234.66666666666669</ele><time>2026-04-10T08:34:42Z</time></trkpt><trkpt lat="39.189312835817475" lon="8.76261743781651"><ele>233.33333333333331</ele><time>2026-04-10T08:34:43Z</time></trkpt><trkpt lat="39.189259628814135" lon="8.762393958063546"><ele>232.0</ele><time>2026-04-10T08:34:44Z</time></trkpt><trkpt lat="39.1891908236335" lon="8.762169428711843"><ele>232.0</ele><time>2026-04-10T08:34:45Z</time></trkpt><trkpt lat="39.189101212968396" lon="8.761954431679667"><ele>232.0</ele><time>2026-04-10T08:34:46Z</time></trkpt><trkpt lat="39.189024294450476" lon="8.761726506262793"><ele>232.0</ele><time>2026-04-10T08:34:47Z</time></trkpt><trkpt lat="39.18896401045969" lon="8.761488274018918"><ele>226.33333333333331</ele><time>2026-04-10T08:34:48Z</time></trkpt><trkpt lat="39.18887534903838" lon="8.761267136624891"><ele>220.66666666666669</ele><time>2026-04-10T08:34:49Z</time></trkpt><trkpt lat="39.188805170480066" lon="8.761052977668477"><ele>215.0</ele><time>2026-04-10T08:34:50Z</time></trkpt><trkpt lat="39.188734333879054" lon="8.760846650820334"><ele>215.0</ele><time>2026-04-10T08:34:51Z</time></trkpt><trkpt lat="39.1886501711181" lon="8.760658256612238"><ele>215.0</ele><time>2026-04-10T08:34:52Z</time></trkpt><trkpt lat="39.18856139052111" lon="8.760483304115542"><ele>215.0</ele><time>2026-04-10T08:34:53Z</time></trkpt><trkpt lat="39.18842846435441" lon="8.760354440517114"><ele>215.0</ele><time>2026-04-10T08:34:54Z</time></trkpt><trkpt lat="39.18828587338938" lon="8.760232976955956"><ele>215.0</ele><time>2026-04-10T08:34:55Z</time></trkpt><trkpt lat="39.18811406174098" lon="8.760130141694432"><ele>215.0</ele><time>2026-04-10T08:34:56Z</time></trkpt><trkpt lat="39.18792763644287" lon="8.760036655947596"><ele>213.0</ele><time>2026-04-10T08:34:57Z</time></trkpt><trkpt lat="39.18774053311666" lon="8.75994723289731"><ele>211.0</ele><time>2026-04-10T08:34:58Z</time></trkpt><trkpt lat="39.18755941732389" lon="8.759857405428809"><ele>209.0</ele><time>2026-04-10T08:34:59Z</time></trkpt><trkpt lat="39.18738620221963" lon="8.75976775440371"><ele>214.33333333333334</ele><time>2026-04-10T08:35:00Z</time></trkpt><trkpt lat="39.187223474169855" lon="8.759683931571391"><ele>219.66666666666669</ele><time>2026-04-10T08:35:01Z</time></trkpt><trkpt lat="39.187068307771945" lon="8.759606593030766"><ele>225.0</ele><time>2026-04-10T08:35:02Z</time></trkpt><trkpt lat="39.18692688772378" lon="8.759538989037171"><ele>225.0</ele><time>2026-04-10T08:35:03Z</time></trkpt><trkpt lat="39.18680004859475" lon="8.75948795126368"><ele>225.0</ele><time>2026-04-10T08:35:04Z</time></trkpt><trkpt lat="39.1866777468921" lon="8.759477915624979"><ele>225.0</ele><time>2026-04-10T08:35:05Z</time></trkpt><trkpt lat="39.1865554886913" lon="8.7595261004844"><ele>225.0</ele><time>2026-04-10T08:35:06Z</time></trkpt><trkpt lat="39.186425657586454" lon="8.75963157920843"><ele>228.0</ele><time>2026-04-10T08:35:07Z</time></trkpt><trkpt lat="39.18631194471246" lon="8.759727553568835"><ele>231.0</ele><time>2026-04-10T08:35:08Z</time></trkpt><trkpt lat="39.186209849023385" lon="8.759757111399074"><ele>234.0</ele><time>2026-04-10T08:35:09Z</time></trkpt><trkpt lat="39.1861027286102" lon="8.75971825776748"><ele>237.0</ele><time>2026-04-10T08:35:10Z</time></trkpt><trkpt lat="39.18602796875185" lon="8.759578927377948"><ele>237.0</ele><time>2026-04-10T08:35:11Z</time></trkpt><trkpt lat="39.18591755376416" lon="8.759444441710343"><ele>237.0</ele><time>2026-04-10T08:35:12Z</time></trkpt><trkpt lat="39.185809643313995" lon="8.759341797053342"><ele>237.0</ele><time>2026-04-10T08:35:13Z</time></trkpt><trkpt lat="39.18569881883613" lon="8.759266401790386"><ele>237.0</ele><time>2026-04-10T08:35:14Z</time></trkpt><trkpt lat="39.18555949271391" lon="8.759230915700256"><ele>235.0</ele><time>2026-04-10T08:35:15Z</time></trkpt><trkpt lat="39.185409872672544" lon="8.759243532919784"><ele>233.0</ele><time>2026-04-10T08:35:16Z</time></trkpt><trkpt lat="39.18525794877593" lon="8.759315262215868"><ele>231.0</ele><time>2026-04-10T08:35:17Z</time></trkpt><trkpt lat="39.185105087676085" lon="8.759416329967065"><ele>234.66666666666669</ele><time>2026-04-10T08:35:18Z</time></trkpt><trkpt lat="39.18495519368779" lon="8.759508316776225"><ele>238.33333333333334</ele><time>2026-04-10T08:35:19Z</time></trkpt><trkpt lat="39.184802954896256" lon="8.759591499196455"><ele>242.0</ele><time>2026-04-10T08:35:20Z</time></trkpt><trkpt lat="39.18465115340315" lon="8.759698055248135"><ele>242.0</ele><time>2026-04-10T08:35:21Z</time></trkpt><trkpt lat="39.18450704483453" lon="8.759875912397328"><ele>242.0</ele><time>2026-04-10T08:35:22Z</time></trkpt><trkpt lat="39.18437711384878" lon="8.76003013786425"><ele>242.0</ele><time>2026-04-10T08:35:23Z</time></trkpt><trkpt lat="39.18427088952391" lon="8.760178223104706"><ele>244.5</ele><time>2026-04-10T08:35:24Z</time></trkpt><trkpt lat="39.18418379426161" lon="8.76033275230033"><ele>247.0</ele><time>2026-04-10T08:35:25Z</time></trkpt><trkpt lat="39.18414345699139" lon="8.760491976940171"><ele>249.5</ele><time>2026-04-10T08:35:26Z</time></trkpt><trkpt lat="39.18412119301713" lon="8.760643006952668"><ele>252.0</ele><time>2026-04-10T08:35:27Z</time></trkpt><trkpt lat="39.1840764390676" lon="8.760763299418853"><ele>252.39999999999998</ele><time>2026-04-10T08:35:28Z</time></trkpt><trkpt lat="39.18400290007361" lon="8.760837092371364"><ele>252.79999999999998</ele><time>2026-04-10T08:35:29Z</time></trkpt><trkpt lat="39.18390980559938" lon="8.760846861715581"><ele>253.2</ele><time>2026-04-10T08:35:30Z</time></trkpt><trkpt lat="39.18381318569882" lon="8.760764386447486"><ele>253.6</ele><time>2026-04-10T08:35:31Z</time></trkpt><trkpt lat="39.18370819503838" lon="8.760689495148721"><ele>254.0</ele><time>2026-04-10T08:35:32Z</time></trkpt><trkpt lat="39.18360011512332" lon="8.76068889588584"><ele>254.0</ele><time>2026-04-10T08:35:33Z</time></trkpt><trkpt lat="39.18346972357324" lon="8.760736232269831"><ele>254.0</ele><time>2026-04-10T08:35:34Z</time></trkpt><trkpt lat="39.183347508764044" lon="8.760804072515123"><ele>254.0</ele><time>2026-04-10T08:35:35Z</time></trkpt><trkpt lat="39.18321749225216" lon="8.760821287143816"><ele>254.0</ele><time>2026-04-10T08:35:36Z</time></trkpt><trkpt lat="39.18306028467952" lon="8.760740286170986"><ele>255.0</ele><time>2026-04-10T08:35:37Z</time></trkpt><trkpt lat="39.1829133061446" lon="8.760693466608695"><ele>256.0</ele><time>2026-04-10T08:35:38Z</time></trkpt><trkpt lat="39.1827812928968" lon="8.760653777009534"><ele>257.0</ele><time>2026-04-10T08:35:39Z</time></trkpt><trkpt lat="39.182646562657276" lon="8.760657128169091"><ele>258.0</ele><time>2026-04-10T08:35:40Z</time></trkpt><trkpt lat="39.182515205929676" lon="8.760674019337635"><ele>258.0</ele><time>2026-04-10T08:35:41Z</time></trkpt><trkpt lat="39.18239511144466" lon="8.760707841158178"><ele>258.0</ele><time>2026-04-10T08:35:42Z</time></trkpt><trkpt lat="39.182275039484416" lon="8.760776979045152"><ele>258.0</ele><time>2026-04-10T08:35:43Z</time></trkpt><trkpt lat="39.18215889865625" lon="8.760892124949992"><ele>258.0</ele><time>2026-04-10T08:35:44Z</time></trkpt><trkpt lat="39.18204577570464" lon="8.761035642474903"><ele>255.5</ele><time>2026-04-10T08:35:45Z</time></trkpt><trkpt lat="39.18193934904056" lon="8.7611745276899"><ele>253.0</ele><time>2026-04-10T08:35:46Z</time></trkpt><trkpt lat="39.18184343830734" lon="8.76129961469395"><ele>250.5</ele><time>2026-04-10T08:35:47Z</time></trkpt><trkpt lat="39.18176048126889" lon="8.761419037268826"><ele>248.0</ele><time>2026-04-10T08:35:48Z</time></trkpt><trkpt lat="39.18169473880736" lon="8.761534938944022"><ele>248.0</ele><time>2026-04-10T08:35:49Z</time></trkpt><trkpt lat="39.18166159027025" lon="8.761658302250844"><ele>248.0</ele><time>2026-04-10T08:35:50Z</time></trkpt><trkpt lat="39.18166803373937" lon="8.761788694324343"><ele>248.0</ele><time>2026-04-10T08:35:51Z</time></trkpt><trkpt lat="39.181698635725176" lon="8.761909244936739"><ele>248.0</ele><time>2026-04-10T08:35:52Z</time></trkpt><trkpt lat="39.18172028409709" lon="8.76201005052982"><ele>248.0</ele><time>2026-04-10T08:35:53Z</time></trkpt><trkpt lat="39.181658528837794" lon="8.762138452543033"><ele>248.8</ele><time>2026-04-10T08:35:55Z</time></trkpt><trkpt lat="39.18157592143143" lon="8.762154162412777"><ele>249.60000000000002</ele><time>2026-04-10T08:35:56Z</time></trkpt><trkpt lat="39.18148188641208" lon="8.762103931269301"><ele>250.39999999999998</ele><time>2026-04-10T08:35:57Z</time></trkpt><trkpt lat="39.18137710186579" lon="8.762066815364076"><ele>251.2</ele><time>2026-04-10T08:35:58Z</time></trkpt><trkpt lat="39.181269506754504" lon="8.762080753826506"><ele>252.0</ele><time>2026-04-10T08:35:59Z</time></trkpt><trkpt lat="39.181160067607124" lon="8.76214094237824"><ele>249.0</ele><time>2026-04-10T08:36:00Z</time></trkpt><trkpt lat="39.18105410137079" lon="8.762243326157114"><ele>246.0</ele><time>2026-04-10T08:36:01Z</time></trkpt><trkpt lat="39.180957253656786" lon="8.762375157458022"><ele>243.0</ele><time>2026-04-10T08:36:02Z</time></trkpt><trkpt lat="39.18087309062647" lon="8.762514606662418"><ele>240.0</ele><time>2026-04-10T08:36:03Z</time></trkpt><trkpt lat="39.18077335371048" lon="8.762612531114007"><ele>238.5</ele><time>2026-04-10T08:36:04Z</time></trkpt><trkpt lat="39.18065109409075" lon="8.762644306261866"><ele>237.0</ele><time>2026-04-10T08:36:05Z</time></trkpt><trkpt lat="39.1805218997183" lon="8.762658372730257"><ele>235.5</ele><time>2026-04-10T08:36:06Z</time></trkpt><trkpt lat="39.18040955659811" lon="8.762673920646916"><ele>234.0</ele><time>2026-04-10T08:36:07Z</time></trkpt><trkpt lat="39.180303997641175" lon="8.762670994584674"><ele>234.0</ele><time>2026-04-10T08:36:08Z</time></trkpt><trkpt lat="39.180201590301934" lon="8.762615111965959"><ele>233.99999999999997</ele><time>2026-04-10T08:36:09Z</time></trkpt><trkpt lat="39.18011205539714" lon="8.762508464048636"><ele>233.99999999999997</ele><time>2026-04-10T08:36:10Z</time></trkpt><trkpt lat="39.180028629919846" lon="8.762412311757664"><ele>234.0</ele><time>2026-04-10T08:36:11Z</time></trkpt><trkpt lat="39.179937826683904" lon="8.762388382421454"><ele>234.0</ele><time>2026-04-10T08:36:12Z</time></trkpt><trkpt lat="39.17984278902564" lon="8.762430431824631"><ele>235.79999999999998</ele><time>2026-04-10T08:36:13Z</time></trkpt><trkpt lat="39.179754053523084" lon="8.762494184362929"><ele>237.59999999999997</ele><time>2026-04-10T08:36:14Z</time></trkpt><trkpt lat="39.17966607099561" lon="8.762536846986196"><ele>239.4</ele><time>2026-04-10T08:36:15Z</time></trkpt><trkpt lat="39.17958046152732" lon="8.762530398378125"><ele>241.2</ele><time>2026-04-10T08:36:16Z</time></trkpt><trkpt lat="39.17951436790182" lon="8.762466676353926"><ele>243.0</ele><time>2026-04-10T08:36:17Z</time></trkpt><trkpt lat="39.17946938510486" lon="8.762356533667026"><ele>243.0</ele><time>2026-04-10T08:36:18Z</time></trkpt><trkpt lat="39.179430180337356" lon="8.76222360034514"><ele>243.0</ele><time>2026-04-10T08:36:19Z</time></trkpt><trkpt lat="39.179404614910545" lon="8.7620849275663"><ele>243.0</ele><time>2026-04-10T08:36:20Z</time></trkpt><trkpt lat="39.17940769798237" lon="8.761933890816412"><ele>243.0</ele><time>2026-04-10T08:36:21Z</time></trkpt><trkpt lat="39.17945433096119" lon="8.76178660008757"><ele>245.25</ele><time>2026-04-10T08:36:22Z</time></trkpt><trkpt lat="39.17954167198828" lon="8.761679891504704"><ele>247.5</ele><time>2026-04-10T08:36:23Z</time></trkpt><trkpt lat="39.179652266285764" lon="8.761618041068372"><ele>249.75</ele><time>2026-04-10T08:36:24Z</time></trkpt><trkpt lat="39.17975333609011" lon="8.761537458159973"><ele>252.0</ele><time>2026-04-10T08:36:25Z</time></trkpt><trkpt lat="39.179813466393455" lon="8.761415725976724"><ele>252.0</ele><time>2026-04-10T08:36:26Z</time></trkpt><trkpt lat="39.1798323037499" lon="8.761261858507597"><ele>252.0</ele><time>2026-04-10T08:36:27Z</time></trkpt><trkpt lat="39.179805200126296" lon="8.76105254630093"><ele>252.0</ele><time>2026-04-10T08:36:28Z</time></trkpt><trkpt lat="39.17975425835769" lon="8.760817836039577"><ele>252.33333333333331</ele><time>2026-04-10T08:36:29Z</time></trkpt><trkpt lat="39.17971020357939" lon="8.76059679906068"><ele>252.66666666666666</ele><time>2026-04-10T08:36:30Z</time></trkpt><trkpt lat="39.179684579017405" lon="8.76038780095513"><ele>253.0</ele><time>2026-04-10T08:36:31Z</time></trkpt><trkpt lat="39.17968729414742" lon="8.760162075221457"><ele>253.0</ele><time>2026-04-10T08:36:32Z</time></trkpt><trkpt lat="39.1797299643867" lon="8.75992568020365"><ele>253.0</ele><time>2026-04-10T08:36:33Z</time></trkpt><trkpt lat="39.179808191001854" lon="8.759699619941813"><ele>253.0</ele><time>2026-04-10T08:36:34Z</time></trkpt><trkpt lat="39.179895545623275" lon="8.759519910457424"><ele>246.5</ele><time>2026-04-10T08:36:35Z</time></trkpt><trkpt lat="39.17996228022375" lon="8.759371289174556"><ele>240.0</ele><time>2026-04-10T08:36:36Z</time></trkpt><trkpt lat="39.17999707219181" lon="8.759194165074131"><ele>233.5</ele><time>2026-04-10T08:36:37Z</time></trkpt><trkpt lat="39.17998312089605" lon="8.758974159188412"><ele>227.0</ele><time>2026-04-10T08:36:38Z</time></trkpt><trkpt lat="39.17995466804622" lon="8.75877521099174"><ele>226.0</ele><time>2026-04-10T08:36:39Z</time></trkpt><trkpt lat="39.17994989551507" lon="8.758590510115457"><ele>225.0</ele><time>2026-04-10T08:36:40Z</time></trkpt><trkpt lat="39.17997157947359" lon="8.758414617721726"><ele>224.0</ele><time>2026-04-10T08:36:41Z</time></trkpt><trkpt lat="39.18001067033498" lon="8.758265672363512"><ele>223.0</ele><time>2026-04-10T08:36:42Z</time></trkpt><trkpt lat="39.18007454540429" lon="8.758156998619766"><ele>222.75</ele><time>2026-04-10T08:36:43Z</time></trkpt><trkpt lat="39.180175720284545" lon="8.758081361180594"><ele>222.5</ele><time>2026-04-10T08:36:44Z</time></trkpt><trkpt lat="39.18030903791664" lon="8.75804202027327"><ele>222.25</ele><time>2026-04-10T08:36:45Z</time></trkpt><trkpt lat="39.18042610167121" lon="8.758019666842198"><ele>222.0</ele><time>2026-04-10T08:36:46Z</time></trkpt><trkpt lat="39.180517484132324" lon="8.757969973372717"><ele>222.0</ele><time>2026-04-10T08:36:47Z</time></trkpt><trkpt lat="39.180566614726644" lon="8.757870858924061"><ele>222.0</ele><time>2026-04-10T08:36:48Z</time></trkpt><trkpt lat="39.18054856591481" lon="8.757725540233883"><ele>222.0</ele><time>2026-04-10T08:36:49Z</time></trkpt><trkpt lat="39.18049053270645" lon="8.757575763517057"><ele>222.0</ele><time>2026-04-10T08:36:50Z</time></trkpt><trkpt lat="39.1804173130299" lon="8.757392917121255"><ele>223.0</ele><time>2026-04-10T08:36:51Z</time></trkpt><trkpt lat="39.180390472665465" lon="8.757204320869642"><ele>224.0</ele><time>2026-04-10T08:36:52Z</time></trkpt><trkpt lat="39.1803360722126" lon="8.757031492888906"><ele>225.0</ele><time>2026-04-10T08:36:53Z</time></trkpt><trkpt lat="39.180266723782665" lon="8.756869356484044"><ele>226.0</ele><time>2026-04-10T08:36:54Z</time></trkpt><trkpt lat="39.18016581112414" lon="8.75670831796828"><ele>226.33333333333331</ele><time>2026-04-10T08:36:55Z</time></trkpt><trkpt lat="39.18005609070468" lon="8.756558293367213"><ele>226.66666666666669</ele><time>2026-04-10T08:36:56Z</time></trkpt><trkpt lat="39.179943079692094" lon="8.756429628224497"><ele>227.0</ele><time>2026-04-10T08:36:57Z</time></trkpt><trkpt lat="39.17982690343796" lon="8.756329204236861"><ele>227.0</ele><time>2026-04-10T08:36:58Z</time></trkpt><trkpt lat="39.17970951307681" lon="8.756241993991484"><ele>227.0</ele><time>2026-04-10T08:36:59Z</time></trkpt><trkpt lat="39.1796058807677" lon="8.756141791079108"><ele>227.0</ele><time>2026-04-10T08:37:00Z</time></trkpt><trkpt lat="39.17953316673976" lon="8.756011415967103"><ele>227.0</ele><time>2026-04-10T08:37:01Z</time></trkpt><trkpt lat="39.17948255578097" lon="8.755859650375507"><ele>222.75</ele><time>2026-04-10T08:37:02Z</time></trkpt><trkpt lat="39.17944542455497" lon="8.755687295304169"><ele>218.5</ele><time>2026-04-10T08:37:03Z</time></trkpt><trkpt lat="39.17942392118218" lon="8.755501688700974"><ele>214.25</ele><time>2026-04-10T08:37:04Z</time></trkpt><trkpt lat="39.179403805651724" lon="8.75532647265602"><ele>210.0</ele><time>2026-04-10T08:37:05Z</time></trkpt><trkpt lat="39.17937018527253" lon="8.75518146374892"><ele>207.2</ele><time>2026-04-10T08:37:06Z</time></trkpt><trkpt lat="39.17930751853911" lon="8.755070590773357"><ele>204.4</ele><time>2026-04-10T08:37:07Z</time></trkpt><trkpt lat="39.1792183090193" lon="8.755010395772636"><ele>201.60000000000002</ele><time>2026-04-10T08:37:08Z</time></trkpt><trkpt lat="39.17910782088677" lon="8.754998406258265"><ele>198.8</ele><time>2026-04-10T08:37:09Z</time></trkpt><trkpt lat="39.17898451496082" lon="8.755034506974999"><ele>196.0</ele><time>2026-04-10T08:37:10Z</time></trkpt><trkpt lat="39.17886647461727" lon="8.755099103302609"><ele>196.0</ele><time>2026-04-10T08:37:11Z</time></trkpt><trkpt lat="39.17875604052864" lon="8.755140796394926"><ele>196.0</ele><time>2026-04-10T08:37:12Z</time></trkpt><trkpt lat="39.17863222619594" lon="8.755130888979055"><ele>196.0</ele><time>2026-04-10T08:37:13Z</time></trkpt><trkpt lat="39.17848664860614" lon="8.755063444197049"><ele>196.0</ele><time>2026-04-10T08:37:14Z</time></trkpt><trkpt lat="39.17835340872669" lon="8.754963629282768"><ele>196.0</ele><time>2026-04-10T08:37:15Z</time></trkpt><trkpt lat="39.17822814425211" lon="8.754860750289176"><ele>196.0</ele><time>2026-04-10T08:37:16Z</time></trkpt><trkpt lat="39.1781172603649" lon="8.754757924389528"><ele>196.0</ele><time>2026-04-10T08:37:17Z</time></trkpt><trkpt lat="39.17801696904759" lon="8.754648839091194"><ele>196.0</ele><time>2026-04-10T08:37:18Z</time></trkpt><trkpt lat="39.17794995415926" lon="8.75451313511315"><ele>196.0</ele><time>2026-04-10T08:37:19Z</time></trkpt><trkpt lat="39.177870012810224" lon="8.754386789006702"><ele>196.0</ele><time>2026-04-10T08:37:20Z</time></trkpt><trkpt lat="39.17779543321658" lon="8.754226818033521"><ele>196.0</ele><time>2026-04-10T08:37:21Z</time></trkpt><trkpt lat="39.1777064500329" lon="8.754060068733093"><ele>196.0</ele><time>2026-04-10T08:37:22Z</time></trkpt><trkpt lat="39.177609428833414" lon="8.753890959190093"><ele>196.0</ele><time>2026-04-10T08:37:23Z</time></trkpt><trkpt lat="39.17751250484286" lon="8.753719764469045"><ele>196.0</ele><time>2026-04-10T08:37:24Z</time></trkpt><trkpt lat="39.177423016025664" lon="8.753561444142022"><ele>196.0</ele><time>2026-04-10T08:37:25Z</time></trkpt><trkpt lat="39.17734091849486" lon="8.753412535111075"><ele>194.0</ele><time>2026-04-10T08:37:26Z</time></trkpt><trkpt lat="39.17724555047339" lon="8.753290673050437"><ele>192.0</ele><time>2026-04-10T08:37:27Z</time></trkpt><trkpt lat="39.17714134632761" lon="8.753185260277688"><ele>190.0</ele><time>2026-04-10T08:37:28Z</time></trkpt><trkpt lat="39.177028760438134" lon="8.75309476682635"><ele>188.0</ele><time>2026-04-10T08:37:29Z</time></trkpt><trkpt lat="39.17691066941803" lon="8.753005988330461"><ele>188.0</ele><time>2026-04-10T08:37:30Z</time></trkpt><trkpt lat="39.176780891838895" lon="8.752914390276931"><ele>188.0</ele><time>2026-04-10T08:37:31Z</time></trkpt><trkpt lat="39.176640087317445" lon="8.752828686247538"><ele>188.0</ele><time>2026-04-10T08:37:32Z</time></trkpt><trkpt lat="39.1764938208895" lon="8.752741401673315"><ele>187.25</ele><time>2026-04-10T08:37:33Z</time></trkpt><trkpt lat="39.176358955119824" lon="8.752654819047137"><ele>186.5</ele><time>2026-04-10T08:37:34Z</time></trkpt><trkpt lat="39.17623608685117" lon="8.752577828179023"><ele>185.75</ele><time>2026-04-10T08:37:35Z</time></trkpt><trkpt lat="39.17612183957833" lon="8.752505642134526"><ele>185.0</ele><time>2026-04-10T08:37:36Z</time></trkpt><trkpt lat="39.17601720446495" lon="8.752441627412386"><ele>185.0</ele><time>2026-04-10T08:37:37Z</time></trkpt><trkpt lat="39.1759239443837" lon="8.752381244914337"><ele>185.0</ele><time>2026-04-10T08:37:38Z</time></trkpt><trkpt lat="39.175831361792355" lon="8.752322150634296"><ele>185.0</ele><time>2026-04-10T08:37:39Z</time></trkpt><trkpt lat="39.17573385769467" lon="8.752263581305163"><ele>185.0</ele><time>2026-04-10T08:37:40Z</time></trkpt><trkpt lat="39.175635238235124" lon="8.752201350769017"><ele>185.0</ele><time>2026-04-10T08:37:41Z</time></trkpt><trkpt lat="39.17553560109437" lon="8.75213402721462"><ele>185.2</ele><time>2026-04-10T08:37:42Z</time></trkpt><trkpt lat="39.17544569142497" lon="8.752062226996996"><ele>185.4</ele><time>2026-04-10T08:37:43Z</time></trkpt><trkpt lat="39.175377529519295" lon="8.751971328111463"><ele>185.60000000000002</ele><time>2026-04-10T08:37:44Z</time></trkpt><trkpt lat="39.175320455873" lon="8.751920699541937"><ele>185.8</ele><time>2026-04-10T08:37:45Z</time></trkpt><trkpt lat="39.175336934112615" lon="8.751726781489083"><ele>186.0</ele><time>2026-04-10T08:37:46Z</time></trkpt><trkpt lat="39.175362758275696" lon="8.751574750487693"><ele>185.0</ele><time>2026-04-10T08:37:47Z</time></trkpt><trkpt lat="39.17541417520488" lon="8.751409815017709"><ele>184.0</ele><time>2026-04-10T08:37:48Z</time></trkpt><trkpt lat="39.17545692428581" lon="8.751266313888713"><ele>183.0</ele><time>2026-04-10T08:37:49Z</time></trkpt><trkpt lat="39.17548056041474" lon="8.75114971835712"><ele>182.0</ele><time>2026-04-10T08:37:50Z</time></trkpt><trkpt lat="39.17549919790186" lon="8.751034573847372"><ele>181.0</ele><time>2026-04-10T08:37:51Z</time></trkpt><trkpt lat="39.1755194859708" lon="8.750919956462862"><ele>181.0</ele><time>2026-04-10T08:37:52Z</time></trkpt><trkpt lat="39.175543055649" lon="8.750790643097332"><ele>181.0</ele><time>2026-04-10T08:37:53Z</time></trkpt><trkpt lat="39.17557351122759" lon="8.750657304999676"><ele>181.0</ele><time>2026-04-10T08:37:54Z</time></trkpt><trkpt lat="39.17560482139849" lon="8.750520864177165"><ele>181.0</ele><time>2026-04-10T08:37:55Z</time></trkpt><trkpt lat="39.1756386714608" lon="8.750381670936255"><ele>181.0</ele><time>2026-04-10T08:37:56Z</time></trkpt><trkpt lat="39.17567864673899" lon="8.750242737207433"><ele>179.75</ele><time>2026-04-10T08:37:57Z</time></trkpt><trkpt lat="39.175730366431125" lon="8.750102840368118"><ele>178.5</ele><time>2026-04-10T08:37:58Z</time></trkpt><trkpt lat="39.17579231328234" lon="8.749963496658092"><ele>177.25</ele><time>2026-04-10T08:37:59Z</time></trkpt><trkpt lat="39.175863195736156" lon="8.749823128421363"><ele>176.0</ele><time>2026-04-10T08:38:00Z</time></trkpt><trkpt lat="39.17593941960407" lon="8.749682948459785"><ele>176.0</ele><time>2026-04-10T08:38:01Z</time></trkpt><trkpt lat="39.17602608565046" lon="8.7495488843491"><ele>176.0</ele><time>2026-04-10T08:38:02Z</time></trkpt><trkpt lat="39.176125484877716" lon="8.749420515716137"><ele>176.0</ele><time>2026-04-10T08:38:03Z</time></trkpt><trkpt lat="39.17625031643578" lon="8.749303572099581"><ele>176.0</ele><time>2026-04-10T08:38:04Z</time></trkpt><trkpt lat="39.1763786804155" lon="8.749195229743068"><ele>176.25</ele><time>2026-04-10T08:38:05Z</time></trkpt><trkpt lat="39.17649450273536" lon="8.749088868133445"><ele>176.5</ele><time>2026-04-10T08:38:06Z</time></trkpt><trkpt lat="39.1765993684298" lon="8.748965163231835"><ele>176.75</ele><time>2026-04-10T08:38:07Z</time></trkpt><trkpt lat="39.17670240434734" lon="8.748823273900777"><ele>177.0</ele><time>2026-04-10T08:38:08Z</time></trkpt><trkpt lat="39.17679727062618" lon="8.748675735041925"><ele>176.0</ele><time>2026-04-10T08:38:09Z</time></trkpt><trkpt lat="39.17688363756193" lon="8.748524866389221"><ele>175.0</ele><time>2026-04-10T08:38:10Z</time></trkpt><trkpt lat="39.176958965651835" lon="8.748372300975333"><ele>174.0</ele><time>2026-04-10T08:38:11Z</time></trkpt><trkpt lat="39.177007442964346" lon="8.748217482288215"><ele>173.0</ele><time>2026-04-10T08:38:12Z</time></trkpt><trkpt lat="39.17703175663552" lon="8.748060973248382"><ele>173.0</ele><time>2026-04-10T08:38:13Z</time></trkpt><trkpt lat="39.17702842834794" lon="8.747884431118012"><ele>173.0</ele><time>2026-04-10T08:38:14Z</time></trkpt><trkpt lat="39.17699162602313" lon="8.747693076056741"><ele>173.0</ele><time>2026-04-10T08:38:15Z</time></trkpt><trkpt lat="39.176935249393324" lon="8.747495439973308"><ele>172.0</ele><time>2026-04-10T08:38:16Z</time></trkpt><trkpt lat="39.176854550466295" lon="8.74730097568482"><ele>171.0</ele><time>2026-04-10T08:38:17Z</time></trkpt><trkpt lat="39.17673549179729" lon="8.747119227248882"><ele>170.0</ele><time>2026-04-10T08:38:18Z</time></trkpt><trkpt lat="39.17660140331698" lon="8.746932697569292"><ele>169.0</ele><time>2026-04-10T08:38:19Z</time></trkpt><trkpt lat="39.176462346386494" lon="8.746736550733807"><ele>168.0</ele><time>2026-04-10T08:38:20Z</time></trkpt><trkpt lat="39.1763283840377" lon="8.746537831927045"><ele>167.0</ele><time>2026-04-10T08:38:21Z</time></trkpt><trkpt lat="39.17620500808784" lon="8.746353398749157"><ele>167.0</ele><time>2026-04-10T08:38:22Z</time></trkpt><trkpt lat="39.17608624745774" lon="8.746178889068755"><ele>167.0</ele><time>2026-04-10T08:38:23Z</time></trkpt><trkpt lat="39.17597634253574" lon="8.746000534493211"><ele>167.0</ele><time>2026-04-10T08:38:24Z</time></trkpt><trkpt lat="39.175884326698714" lon="8.745795890105422"><ele>166.0</ele><time>2026-04-10T08:38:25Z</time></trkpt><trkpt lat="39.17580656741525" lon="8.74555346978918"><ele>165.0</ele><time>2026-04-10T08:38:26Z</time></trkpt><trkpt lat="39.17573787112314" lon="8.745290513896984"><ele>164.0</ele><time>2026-04-10T08:38:27.001Z</time></trkpt><trkpt lat="39.17567005909125" lon="8.745028895384863"><ele>164.0</ele><time>2026-04-10T08:38:28.001Z</time></trkpt><trkpt lat="39.175598181236104" lon="8.744769304765883"><ele>164.0</ele><time>2026-04-10T08:38:29.001Z</time></trkpt><trkpt lat="39.17553096097747" lon="8.744522849403097"><ele>164.0</ele><time>2026-04-10T08:38:30.001Z</time></trkpt><trkpt lat="39.17547143866482" lon="8.74428957813945"><ele>163.0</ele><time>2026-04-10T08:38:31.001Z</time></trkpt><trkpt lat="39.17541366024714" lon="8.744062176163437"><ele>162.0</ele><time>2026-04-10T08:38:32.001Z</time></trkpt><trkpt lat="39.17535563820567" lon="8.74383900462899"><ele>161.0</ele><time>2026-04-10T08:38:33.001Z</time></trkpt><trkpt lat="39.17529721415453" lon="8.743621387703765"><ele>159.66666666666666</ele><time>2026-04-10T08:38:34.001Z</time></trkpt><trkpt lat="39.175238972056405" lon="8.74339965011136"><ele>158.33333333333334</ele><time>2026-04-10T08:38:35Z</time></trkpt><trkpt lat="39.17517944053865" lon="8.74317469194691"><ele>157.0</ele><time>2026-04-10T08:38:36Z</time></trkpt><trkpt lat="39.17511927336885" lon="8.742946283275419"><ele>157.0</ele><time>2026-04-10T08:38:37Z</time></trkpt><trkpt lat="39.175059778797674" lon="8.74271604469052"><ele>157.0</ele><time>2026-04-10T08:38:38Z</time></trkpt><trkpt lat="39.174998172366735" lon="8.742486204326298"><ele>157.0</ele><time>2026-04-10T08:38:39Z</time></trkpt><trkpt lat="39.17493381604165" lon="8.742245638093465"><ele>156.33333333333334</ele><time>2026-04-10T08:38:40Z</time></trkpt><trkpt lat="39.17486540178863" lon="8.741997410912752"><ele>155.66666666666666</ele><time>2026-04-10T08:38:41Z</time></trkpt><trkpt lat="39.174795546964624" lon="8.741732785370246"><ele>155.0</ele><time>2026-04-10T08:38:42Z</time></trkpt><trkpt lat="39.1747245686235" lon="8.741462496114895"><ele>154.5</ele><time>2026-04-10T08:38:43Z</time></trkpt><trkpt lat="39.174651461561446" lon="8.741186347381163"><ele>154.0</ele><time>2026-04-10T08:38:44Z</time></trkpt><trkpt lat="39.17457515295377" lon="8.740903884069924"><ele>153.5</ele><time>2026-04-10T08:38:45Z</time></trkpt><trkpt lat="39.17449841974897" lon="8.740618126407867"><ele>153.0</ele><time>2026-04-10T08:38:46Z</time></trkpt><trkpt lat="39.174419371816526" lon="8.740324409033597"><ele>152.5</ele><time>2026-04-10T08:38:47Z</time></trkpt><trkpt lat="39.17433880023857" lon="8.740024565478661"><ele>152.0</ele><time>2026-04-10T08:38:48Z</time></trkpt><trkpt lat="39.17425510373998" lon="8.739718300557657"><ele>152.0</ele><time>2026-04-10T08:38:49Z</time></trkpt><trkpt lat="39.17417298772734" lon="8.739406871072417"><ele>152.0</ele><time>2026-04-10T08:38:50Z</time></trkpt><trkpt lat="39.17409464342328" lon="8.739106640686739"><ele>151.5</ele><time>2026-04-10T08:38:51Z</time></trkpt><trkpt lat="39.174020753348444" lon="8.738823920137838"><ele>151.0</ele><time>2026-04-10T08:38:52Z</time></trkpt><trkpt lat="39.173949052561014" lon="8.73855651583628"><ele>150.33333333333334</ele><time>2026-04-10T08:38:53Z</time></trkpt><trkpt lat="39.17387817765212" lon="8.738301639186304"><ele>149.66666666666666</ele><time>2026-04-10T08:38:54Z</time></trkpt><trkpt lat="39.17380953257784" lon="8.738056782582206"><ele>149.0</ele><time>2026-04-10T08:38:55Z</time></trkpt><trkpt lat="39.17374643898665" lon="8.73782060744882"><ele>148.33333333333331</ele><time>2026-04-10T08:38:56Z</time></trkpt><trkpt lat="39.173689348120014" lon="8.737592467146216"><ele>147.66666666666666</ele><time>2026-04-10T08:38:57Z</time></trkpt><trkpt lat="39.173645765417746" lon="8.737377004114602"><ele>147.0</ele><time>2026-04-10T08:38:58Z</time></trkpt><trkpt lat="39.17362609235751" lon="8.73716491235586"><ele>147.0</ele><time>2026-04-10T08:38:59Z</time></trkpt><trkpt lat="39.17363024907226" lon="8.736941543612174"><ele>147.0</ele><time>2026-04-10T08:39:00Z</time></trkpt><trkpt lat="39.173660800494204" lon="8.736713840657584"><ele>147.0</ele><time>2026-04-10T08:39:01Z</time></trkpt><trkpt lat="39.173738476439546" lon="8.736508431789705"><ele>147.0</ele><time>2026-04-10T08:39:02Z</time></trkpt><trkpt lat="39.173826052758464" lon="8.736319083417618"><ele>147.0</ele><time>2026-04-10T08:39:03Z</time></trkpt><trkpt lat="39.173942116968725" lon="8.736141487934256"><ele>147.0</ele><time>2026-04-10T08:39:04Z</time></trkpt><trkpt lat="39.17408390847121" lon="8.735970406112674"><ele>147.33333333333334</ele><time>2026-04-10T08:39:05Z</time></trkpt><trkpt lat="39.174245814377805" lon="8.735792922263844"><ele>147.66666666666669</ele><time>2026-04-10T08:39:06Z</time></trkpt><trkpt lat="39.17441341527171" lon="8.735596815147268"><ele>148.0</ele><time>2026-04-10T08:39:07Z</time></trkpt><trkpt lat="39.17458600813282" lon="8.735415734736463"><ele>148.0</ele><time>2026-04-10T08:39:08Z</time></trkpt><trkpt lat="39.174757228720615" lon="8.735228649722824"><ele>148.0</ele><time>2026-04-10T08:39:09Z</time></trkpt><trkpt lat="39.17493457023802" lon="8.735033240481565"><ele>147.5</ele><time>2026-04-10T08:39:10Z</time></trkpt><trkpt lat="39.17511930943615" lon="8.734833014763682"><ele>147.0</ele><time>2026-04-10T08:39:11Z</time></trkpt><trkpt lat="39.17529700471102" lon="8.734637860719266"><ele>147.0</ele><time>2026-04-10T08:39:12Z</time></trkpt><trkpt lat="39.175474901076505" lon="8.734445796664016"><ele>147.0</ele><time>2026-04-10T08:39:13Z</time></trkpt><trkpt lat="39.17565091792179" lon="8.734255434622423"><ele>145.33333333333334</ele><time>2026-04-10T08:39:14Z</time></trkpt><trkpt lat="39.175820684053505" lon="8.73407193562127"><ele>143.66666666666669</ele><time>2026-04-10T08:39:15Z</time></trkpt><trkpt lat="39.175979001920425" lon="8.733897311104206"><ele>142.0</ele><time>2026-04-10T08:39:16Z</time></trkpt><trkpt lat="39.176129870654826" lon="8.733729552301211"><ele>142.0</ele><time>2026-04-10T08:39:17Z</time></trkpt><trkpt lat="39.17627926550593" lon="8.733565205420073"><ele>142.0</ele><time>2026-04-10T08:39:18Z</time></trkpt><trkpt lat="39.17642503018193" lon="8.73340674113114"><ele>142.0</ele><time>2026-04-10T08:39:19Z</time></trkpt><trkpt lat="39.176573163337565" lon="8.73325122238287"><ele>141.66666666666669</ele><time>2026-04-10T08:39:20Z</time></trkpt><trkpt lat="39.17671852010394" lon="8.733095405416968"><ele>141.33333333333334</ele><time>2026-04-10T08:39:21Z</time></trkpt><trkpt lat="39.17686482072821" lon="8.732931995676664"><ele>141.0</ele><time>2026-04-10T08:39:22Z</time></trkpt><trkpt lat="39.177006665614215" lon="8.732764694941723"><ele>141.33333333333334</ele><time>2026-04-10T08:39:23Z</time></trkpt><trkpt lat="39.17713533330246" lon="8.732592122024935"><ele>141.66666666666669</ele><time>2026-04-10T08:39:24Z</time></trkpt><trkpt lat="39.1772461992424" lon="8.732397189214165"><ele>142.0</ele><time>2026-04-10T08:39:25Z</time></trkpt><trkpt lat="39.1773300412915" lon="8.732182783449696"><ele>142.0</ele><time>2026-04-10T08:39:26Z</time></trkpt><trkpt lat="39.17738775793079" lon="8.73194331440078"><ele>142.0</ele><time>2026-04-10T08:39:27Z</time></trkpt><trkpt lat="39.17742893196852" lon="8.731667976060763"><ele>142.0</ele><time>2026-04-10T08:39:28Z</time></trkpt><trkpt lat="39.17745194602859" lon="8.73135654606884"><ele>142.5</ele><time>2026-04-10T08:39:29Z</time></trkpt><trkpt lat="39.177464221314395" lon="8.731050515378005"><ele>143.0</ele><time>2026-04-10T08:39:30Z</time></trkpt><trkpt lat="39.17748235218804" lon="8.730768647464046"><ele>143.0</ele><time>2026-04-10T08:39:31Z</time></trkpt><trkpt lat="39.17752556211482" lon="8.730502360249009"><ele>143.0</ele><time>2026-04-10T08:39:32Z</time></trkpt><trkpt lat="39.17760521586408" lon="8.730222393093939"><ele>143.0</ele><time>2026-04-10T08:39:33Z</time></trkpt><trkpt lat="39.17770966421148" lon="8.729924198614608"><ele>141.0</ele><time>2026-04-10T08:39:34Z</time></trkpt><trkpt lat="39.17780769338599" lon="8.72964027496462"><ele>139.0</ele><time>2026-04-10T08:39:35Z</time></trkpt><trkpt lat="39.177891279936325" lon="8.729375343505678"><ele>138.66666666666669</ele><time>2026-04-10T08:39:36Z</time></trkpt><trkpt lat="39.177964115959114" lon="8.729125025493326"><ele>138.33333333333334</ele><time>2026-04-10T08:39:37Z</time></trkpt><trkpt lat="39.17803304775373" lon="8.728883587952126"><ele>138.0</ele><time>2026-04-10T08:39:38Z</time></trkpt><trkpt lat="39.17810484662637" lon="8.728635164282007"><ele>138.0</ele><time>2026-04-10T08:39:39Z</time></trkpt><trkpt lat="39.17817550951794" lon="8.728390008425725"><ele>138.0</ele><time>2026-04-10T08:39:40Z</time></trkpt><trkpt lat="39.17824673032819" lon="8.728143458490823"><ele>138.0</ele><time>2026-04-10T08:39:41Z</time></trkpt><trkpt lat="39.178316944370856" lon="8.727898696563061"><ele>137.33333333333334</ele><time>2026-04-10T08:39:42Z</time></trkpt><trkpt lat="39.1783844773975" lon="8.727662679813303"><ele>136.66666666666669</ele><time>2026-04-10T08:39:43Z</time></trkpt><trkpt lat="39.17845073877288" lon="8.727437197896828"><ele>136.0</ele><time>2026-04-10T08:39:44Z</time></trkpt><trkpt lat="39.17851878321847" lon="8.727232448102969"><ele>136.0</ele><time>2026-04-10T08:39:45Z</time></trkpt><trkpt lat="39.17859952159129" lon="8.727041711272156"><ele>136.0</ele><time>2026-04-10T08:39:46Z</time></trkpt><trkpt lat="39.17870463156301" lon="8.726865065283716"><ele>136.0</ele><time>2026-04-10T08:39:47Z</time></trkpt><trkpt lat="39.17883394078253" lon="8.726707492550279"><ele>136.66666666666669</ele><time>2026-04-10T08:39:48Z</time></trkpt><trkpt lat="39.17898172500471" lon="8.726568123925745"><ele>137.33333333333334</ele><time>2026-04-10T08:39:49Z</time></trkpt><trkpt lat="39.17914435570029" lon="8.726450168615395"><ele>138.0</ele><time>2026-04-10T08:39:50Z</time></trkpt><trkpt lat="39.179319110519124" lon="8.726350582571055"><ele>138.33333333333334</ele><time>2026-04-10T08:39:51Z</time></trkpt><trkpt lat="39.17950118136554" lon="8.726252829674461"><ele>138.66666666666669</ele><time>2026-04-10T08:39:52Z</time></trkpt><trkpt lat="39.17968279384153" lon="8.726145892267175"><ele>139.0</ele><time>2026-04-10T08:39:53Z</time></trkpt><trkpt lat="39.17986057218823" lon="8.726033785353836"><ele>139.33333333333334</ele><time>2026-04-10T08:39:54Z</time></trkpt><trkpt lat="39.1800353642115" lon="8.725925739051442"><ele>139.66666666666666</ele><time>2026-04-10T08:39:55Z</time></trkpt><trkpt lat="39.18019606761965" lon="8.725830032977353"><ele>140.0</ele><time>2026-04-10T08:39:56Z</time></trkpt><trkpt lat="39.18035143845604" lon="8.725740070602662"><ele>140.0</ele><time>2026-04-10T08:39:57Z</time></trkpt><trkpt lat="39.18049500769524" lon="8.725652166529438"><ele>140.0</ele><time>2026-04-10T08:39:58Z</time></trkpt><trkpt lat="39.18063034976392" lon="8.725567852091398"><ele>140.0</ele><time>2026-04-10T08:39:59Z</time></trkpt><trkpt lat="39.18075596089285" lon="8.725490734703742"><ele>140.0</ele><time>2026-04-10T08:40:00Z</time></trkpt><trkpt lat="39.18087925279653" lon="8.72542150389453"><ele>139.75</ele><time>2026-04-10T08:40:01Z</time></trkpt><trkpt lat="39.180994502485035" lon="8.725355514293264"><ele>139.5</ele><time>2026-04-10T08:40:02Z</time></trkpt><trkpt lat="39.181104197207496" lon="8.7252945012982"><ele>139.25</ele><time>2026-04-10T08:40:03Z</time></trkpt><trkpt lat="39.181206526432746" lon="8.725232036479003"><ele>139.0</ele><time>2026-04-10T08:40:04Z</time></trkpt><trkpt lat="39.18130843871048" lon="8.725164837794114"><ele>139.0</ele><time>2026-04-10T08:40:05Z</time></trkpt><trkpt lat="39.181413427826726" lon="8.725092580504214"><ele>139.0</ele><time>2026-04-10T08:40:06Z</time></trkpt><trkpt lat="39.1815260201427" lon="8.725022706563417"><ele>139.0</ele><time>2026-04-10T08:40:07Z</time></trkpt><trkpt lat="39.181639553713325" lon="8.724954442701957"><ele>139.0</ele><time>2026-04-10T08:40:08Z</time></trkpt><trkpt lat="39.18175193686242" lon="8.72488453733152"><ele>140.25</ele><time>2026-04-10T08:40:09Z</time></trkpt><trkpt lat="39.18186103933815" lon="8.72481189664299"><ele>141.5</ele><time>2026-04-10T08:40:10Z</time></trkpt><trkpt lat="39.181964431954434" lon="8.72474175862039"><ele>142.75</ele><time>2026-04-10T08:40:11Z</time></trkpt><trkpt lat="39.18206257863482" lon="8.724678958415918"><ele>144.0</ele><time>2026-04-10T08:40:12Z</time></trkpt><trkpt lat="39.18216030834024" lon="8.7246237887476"><ele>144.0</ele><time>2026-04-10T08:40:13Z</time></trkpt><trkpt lat="39.182257409936874" lon="8.724567544980664"><ele>144.0</ele><time>2026-04-10T08:40:14.001Z</time></trkpt><trkpt lat="39.18236158521417" lon="8.724502298287982"><ele>144.0</ele><time>2026-04-10T08:40:15.001Z</time></trkpt><trkpt lat="39.18246513347913" lon="8.724432006135245"><ele>144.0</ele><time>2026-04-10T08:40:16.001Z</time></trkpt><trkpt lat="39.182561892773094" lon="8.724350907303599"><ele>145.25</ele><time>2026-04-10T08:40:17.001Z</time></trkpt><trkpt lat="39.182652144995004" lon="8.724250661172599"><ele>146.5</ele><time>2026-04-10T08:40:18.001Z</time></trkpt><trkpt lat="39.18274321924494" lon="8.724136266886239"><ele>147.75</ele><time>2026-04-10T08:40:19.001Z</time></trkpt><trkpt lat="39.18284008608763" lon="8.724016467829781"><ele>149.0</ele><time>2026-04-10T08:40:20.001Z</time></trkpt><trkpt lat="39.182940074924" lon="8.723890282739765"><ele>149.0</ele><time>2026-04-10T08:40:21.001Z</time></trkpt><trkpt lat="39.183033701077086" lon="8.723764738652255"><ele>149.0</ele><time>2026-04-10T08:40:22.001Z</time></trkpt><trkpt lat="39.18312809219926" lon="8.723645586160307"><ele>149.0</ele><time>2026-04-10T08:40:23.001Z</time></trkpt><trkpt lat="39.18322069372592" lon="8.72353247620629"><ele>149.0</ele><time>2026-04-10T08:40:24.001Z</time></trkpt><trkpt lat="39.183294883357" lon="8.723409629177612"><ele>149.75</ele><time>2026-04-10T08:40:25.001Z</time></trkpt><trkpt lat="39.18333967088905" lon="8.723260055722985"><ele>150.5</ele><time>2026-04-10T08:40:26.001Z</time></trkpt><trkpt lat="39.18335706256055" lon="8.723091088584876"><ele>151.25</ele><time>2026-04-10T08:40:27.001Z</time></trkpt><trkpt lat="39.1833736096936" lon="8.722923200983168"><ele>152.0</ele><time>2026-04-10T08:40:28.001Z</time></trkpt><trkpt lat="39.18339969899673" lon="8.722754948398391"><ele>151.25</ele><time>2026-04-10T08:40:29.001Z</time></trkpt><trkpt lat="39.183405544128355" lon="8.72259670451386"><ele>150.5</ele><time>2026-04-10T08:40:30.001Z</time></trkpt><trkpt lat="39.18345631400315" lon="8.722457305565104"><ele>149.75</ele><time>2026-04-10T08:40:31.001Z</time></trkpt><trkpt lat="39.1835359337563" lon="8.72235161039198"><ele>149.0</ele><time>2026-04-10T08:40:32.001Z</time></trkpt><trkpt lat="39.18364075865268" lon="8.722264068901634"><ele>149.0</ele><time>2026-04-10T08:40:33.001Z</time></trkpt><trkpt lat="39.18375431402364" lon="8.722174343392336"><ele>149.0</ele><time>2026-04-10T08:40:34.001Z</time></trkpt><trkpt lat="39.18388088062684" lon="8.722076541606802"><ele>149.0</ele><time>2026-04-10T08:40:35.001Z</time></trkpt><trkpt lat="39.18400296633112" lon="8.721980599966852"><ele>149.0</ele><time>2026-04-10T08:40:36.001Z</time></trkpt><trkpt lat="39.18413089410186" lon="8.721899950928757"><ele>149.25</ele><time>2026-04-10T08:40:37.001Z</time></trkpt><trkpt lat="39.1842645878594" lon="8.72182807146008"><ele>149.5</ele><time>2026-04-10T08:40:38.001Z</time></trkpt><trkpt lat="39.18440455855383" lon="8.721768963652057"><ele>149.75</ele><time>2026-04-10T08:40:39.001Z</time></trkpt><trkpt lat="39.184553998238556" lon="8.721715397247115"><ele>150.0</ele><time>2026-04-10T08:40:40.001Z</time></trkpt><trkpt lat="39.1847085830433" lon="8.721657197641958"><ele>149.33333333333334</ele><time>2026-04-10T08:40:41Z</time></trkpt><trkpt lat="39.18486948540349" lon="8.721594065479351"><ele>148.66666666666669</ele><time>2026-04-10T08:40:42Z</time></trkpt><trkpt lat="39.18502624253655" lon="8.721533105812933"><ele>148.0</ele><time>2026-04-10T08:40:43Z</time></trkpt><trkpt lat="39.18517677388287" lon="8.721473550203948"><ele>148.0</ele><time>2026-04-10T08:40:44Z</time></trkpt><trkpt lat="39.18531246497904" lon="8.721423305543182"><ele>148.0</ele><time>2026-04-10T08:40:45Z</time></trkpt><trkpt lat="39.185439019212694" lon="8.721376781420568"><ele>148.0</ele><time>2026-04-10T08:40:46Z</time></trkpt><trkpt lat="39.18556074156203" lon="8.721330220384068"><ele>148.0</ele><time>2026-04-10T08:40:47Z</time></trkpt><trkpt lat="39.185679677992134" lon="8.721284520401525"><ele>148.5</ele><time>2026-04-10T08:40:48Z</time></trkpt><trkpt lat="39.185802962941736" lon="8.721235689095336"><ele>149.0</ele><time>2026-04-10T08:40:49Z</time></trkpt><trkpt lat="39.18594260610241" lon="8.721182638040668"><ele>149.5</ele><time>2026-04-10T08:40:50Z</time></trkpt><trkpt lat="39.18609342529657" lon="8.72112500194184"><ele>150.0</ele><time>2026-04-10T08:40:51Z</time></trkpt><trkpt lat="39.18623940375522" lon="8.721065472128508"><ele>150.25</ele><time>2026-04-10T08:40:52Z</time></trkpt><trkpt lat="39.18638213333355" lon="8.721006503007619"><ele>150.5</ele><time>2026-04-10T08:40:53Z</time></trkpt><trkpt lat="39.18652369409074" lon="8.720946710789384"><ele>150.75</ele><time>2026-04-10T08:40:54Z</time></trkpt><trkpt lat="39.186667232263574" lon="8.720890024072647"><ele>151.0</ele><time>2026-04-10T08:40:55Z</time></trkpt><trkpt lat="39.18680342959689" lon="8.72083539890115"><ele>152.75</ele><time>2026-04-10T08:40:56Z</time></trkpt><trkpt lat="39.18694397359959" lon="8.720782534682426"><ele>154.5</ele><time>2026-04-10T08:40:57Z</time></trkpt><trkpt lat="39.1870820683459" lon="8.72074036451353"><ele>156.25</ele><time>2026-04-10T08:40:58Z</time></trkpt><trkpt lat="39.18720706195309" lon="8.720688837815223"><ele>158.0</ele><time>2026-04-10T08:40:59Z</time></trkpt><trkpt lat="39.1873220789684" lon="8.720648381038865"><ele>158.4</ele><time>2026-04-10T08:41:00Z</time></trkpt><trkpt lat="39.18743062175304" lon="8.720608004574164"><ele>158.8</ele><time>2026-04-10T08:41:01Z</time></trkpt><trkpt lat="39.187528389157336" lon="8.720559533167133"><ele>159.2</ele><time>2026-04-10T08:41:02Z</time></trkpt><trkpt lat="39.18761058196073" lon="8.720492214304388"><ele>159.6</ele><time>2026-04-10T08:41:03Z</time></trkpt><trkpt lat="39.18768447931413" lon="8.720403525144993"><ele>160.0</ele><time>2026-04-10T08:41:04Z</time></trkpt><trkpt lat="39.18774906900986" lon="8.720281971311989"><ele>159.33333333333334</ele><time>2026-04-10T08:41:05Z</time></trkpt><trkpt lat="39.18781169422504" lon="8.720106312917418"><ele>158.66666666666666</ele><time>2026-04-10T08:41:06Z</time></trkpt><trkpt lat="39.18788208220387" lon="8.71991933890642"><ele>158.0</ele><time>2026-04-10T08:41:07Z</time></trkpt><trkpt lat="39.18795595230381" lon="8.71974953573567"><ele>158.0</ele><time>2026-04-10T08:41:08Z</time></trkpt><trkpt lat="39.188030143905785" lon="8.719579958654966"><ele>158.0</ele><time>2026-04-10T08:41:09Z</time></trkpt><trkpt lat="39.18810101039232" lon="8.719406404052286"><ele>158.0</ele><time>2026-04-10T08:41:10Z</time></trkpt><trkpt lat="39.18817940850144" lon="8.719220189008244"><ele>159.5</ele><time>2026-04-10T08:41:11Z</time></trkpt><trkpt lat="39.18825798750099" lon="8.719031188390005"><ele>161.0</ele><time>2026-04-10T08:41:12Z</time></trkpt><trkpt lat="39.18832389701342" lon="8.718864822881747"><ele>162.5</ele><time>2026-04-10T08:41:13Z</time></trkpt><trkpt lat="39.18837832690685" lon="8.718721766111916"><ele>164.0</ele><time>2026-04-10T08:41:14Z</time></trkpt><trkpt lat="39.188429319021004" lon="8.71861100318151"><ele>163.79999999999998</ele><time>2026-04-10T08:41:15Z</time></trkpt><trkpt lat="39.1884645715092" lon="8.71851772531101"><ele>163.6</ele><time>2026-04-10T08:41:16Z</time></trkpt><trkpt lat="39.18854437612932" lon="8.71842590983097"><ele>163.4</ele><time>2026-04-10T08:41:18Z</time></trkpt><trkpt lat="39.18866148118301" lon="8.718396325205715"><ele>163.2</ele><time>2026-04-10T08:41:20Z</time></trkpt><trkpt lat="39.188768599777354" lon="8.718397390332528"><ele>163.0</ele><time>2026-04-10T08:41:21Z</time></trkpt><trkpt lat="39.1888716530611" lon="8.71840848175599"><ele>163.0</ele><time>2026-04-10T08:41:22Z</time></trkpt><trkpt lat="39.18899469267013" lon="8.718462087865595"><ele>163.0</ele><time>2026-04-10T08:41:23Z</time></trkpt><trkpt lat="39.18913371281835" lon="8.718492938196835"><ele>163.0</ele><time>2026-04-10T08:41:24Z</time></trkpt><trkpt lat="39.189280522595354" lon="8.71848121983956"><ele>163.0</ele><time>2026-04-10T08:41:25Z</time></trkpt><trkpt lat="39.189420316838294" lon="8.718467283766765"><ele>164.25</ele><time>2026-04-10T08:41:26Z</time></trkpt><trkpt lat="39.18955646412704" lon="8.718432770263215"><ele>165.5</ele><time>2026-04-10T08:41:27Z</time></trkpt><trkpt lat="39.18967551450834" lon="8.718422413672423"><ele>166.75</ele><time>2026-04-10T08:41:28Z</time></trkpt><trkpt lat="39.18977988463101" lon="8.71842613032627"><ele>168.0</ele><time>2026-04-10T08:41:29Z</time></trkpt><trkpt lat="39.189869577522195" lon="8.718458912865424"><ele>168.25</ele><time>2026-04-10T08:41:30Z</time></trkpt><trkpt lat="39.189978588169275" lon="8.718500435528215"><ele>168.5</ele><time>2026-04-10T08:41:31Z</time></trkpt><trkpt lat="39.19009416454039" lon="8.718563972863475"><ele>168.75</ele><time>2026-04-10T08:41:32Z</time></trkpt><trkpt lat="39.190220931878216" lon="8.718624308791297"><ele>169.0</ele><time>2026-04-10T08:41:33Z</time></trkpt><trkpt lat="39.19033060103406" lon="8.718709023861683"><ele>171.0</ele><time>2026-04-10T08:41:34Z</time></trkpt><trkpt lat="39.190450015307185" lon="8.718771137364019"><ele>173.0</ele><time>2026-04-10T08:41:35Z</time></trkpt><trkpt lat="39.19056087050186" lon="8.71885111851679"><ele>175.0</ele><time>2026-04-10T08:41:36Z</time></trkpt><trkpt lat="39.19065933549385" lon="8.718912755247716"><ele>177.0</ele><time>2026-04-10T08:41:37Z</time></trkpt><trkpt lat="39.190753662507355" lon="8.71896270620956"><ele>177.0</ele><time>2026-04-10T08:41:38Z</time></trkpt><trkpt lat="39.19085038333212" lon="8.71898861980784"><ele>177.0</ele><time>2026-04-10T08:41:39Z</time></trkpt><trkpt lat="39.190947811791915" lon="8.718985526807167"><ele>177.0</ele><time>2026-04-10T08:41:40Z</time></trkpt><trkpt lat="39.191035885552765" lon="8.718945210366291"><ele>177.0</ele><time>2026-04-10T08:41:41Z</time></trkpt><trkpt lat="39.19111321385218" lon="8.718865736944824"><ele>177.0</ele><time>2026-04-10T08:41:42Z</time></trkpt><trkpt lat="39.19117789843428" lon="8.718751128119557"><ele>177.0</ele><time>2026-04-10T08:41:43Z</time></trkpt><trkpt lat="39.191247341443066" lon="8.7186256851832"><ele>177.0</ele><time>2026-04-10T08:41:44Z</time></trkpt><trkpt lat="39.19131425558869" lon="8.71853118040651"><ele>177.0</ele><time>2026-04-10T08:41:45Z</time></trkpt><trkpt lat="39.19138696453916" lon="8.718473500558277"><ele>177.0</ele><time>2026-04-10T08:41:46Z</time></trkpt><trkpt lat="39.191463517918145" lon="8.718465176732924"><ele>177.0</ele><time>2026-04-10T08:41:47Z</time></trkpt><trkpt lat="39.19154124777391" lon="8.718527444657466"><ele>178.75</ele><time>2026-04-10T08:41:48Z</time></trkpt><trkpt lat="39.19163226846645" lon="8.718577491665114"><ele>180.5</ele><time>2026-04-10T08:41:49Z</time></trkpt><trkpt lat="39.191742807983566" lon="8.718621260017354"><ele>182.25</ele><time>2026-04-10T08:41:50Z</time></trkpt><trkpt lat="39.19186600258448" lon="8.718678073075436"><ele>184.0</ele><time>2026-04-10T08:41:51Z</time></trkpt><trkpt lat="39.19199060182632" lon="8.71872804156426"><ele>184.0</ele><time>2026-04-10T08:41:52Z</time></trkpt><trkpt lat="39.19212191208765" lon="8.718777155833784"><ele>184.0</ele><time>2026-04-10T08:41:53Z</time></trkpt><trkpt lat="39.19224602564743" lon="8.718829430545288"><ele>184.0</ele><time>2026-04-10T08:41:54Z</time></trkpt><trkpt lat="39.19235143581754" lon="8.71887200694232"><ele>184.0</ele><time>2026-04-10T08:41:55Z</time></trkpt><trkpt lat="39.19243994767957" lon="8.718883632034862"><ele>184.0</ele><time>2026-04-10T08:41:56Z</time></trkpt><trkpt lat="39.19252196218548" lon="8.718848261401526"><ele>184.0</ele><time>2026-04-10T08:41:57Z</time></trkpt><trkpt lat="39.19260524145539" lon="8.71877364235797"><ele>184.0</ele><time>2026-04-10T08:41:58Z</time></trkpt><trkpt lat="39.192691097639425" lon="8.71868260886837"><ele>184.0</ele><time>2026-04-10T08:41:59Z</time></trkpt><trkpt lat="39.19279641838578" lon="8.718624615905112"><ele>184.0</ele><time>2026-04-10T08:42:00Z</time></trkpt><trkpt lat="39.19288882493494" lon="8.718581330852391"><ele>184.0</ele><time>2026-04-10T08:42:01Z</time></trkpt><trkpt lat="39.19296876689275" lon="8.718571344131442"><ele>184.0</ele><time>2026-04-10T08:42:02Z</time></trkpt><trkpt lat="39.19303819251724" lon="8.718614024159606"><ele>184.0</ele><time>2026-04-10T08:42:03Z</time></trkpt><trkpt lat="39.19311895441883" lon="8.718697408453592"><ele>184.0</ele><time>2026-04-10T08:42:04Z</time></trkpt><trkpt lat="39.19324490745397" lon="8.71876415795162"><ele>184.0</ele><time>2026-04-10T08:42:05Z</time></trkpt><trkpt lat="39.193394201759155" lon="8.718772836474486"><ele>187.66666666666669</ele><time>2026-04-10T08:42:06Z</time></trkpt><trkpt lat="39.19354365123851" lon="8.718764577769821"><ele>191.33333333333334</ele><time>2026-04-10T08:42:07Z</time></trkpt><trkpt lat="39.193705576770355" lon="8.718745294001213"><ele>195.0</ele><time>2026-04-10T08:42:08Z</time></trkpt><trkpt lat="39.19385435610363" lon="8.718740271396237"><ele>195.0</ele><time>2026-04-10T08:42:09Z</time></trkpt><trkpt lat="39.19397598724192" lon="8.718776107875463"><ele>195.0</ele><time>2026-04-10T08:42:10.001Z</time></trkpt><trkpt lat="39.19408420683223" lon="8.718807149011102"><ele>195.0</ele><time>2026-04-10T08:42:11.001Z</time></trkpt><trkpt lat="39.19418477823875" lon="8.718788176410808"><ele>195.0</ele><time>2026-04-10T08:42:12.001Z</time></trkpt><trkpt lat="39.19426892378981" lon="8.718757870523618"><ele>195.0</ele><time>2026-04-10T08:42:13.001Z</time></trkpt><trkpt lat="39.19436091939176" lon="8.718670890188998"><ele>195.0</ele><time>2026-04-10T08:42:14.001Z</time></trkpt><trkpt lat="39.194471091886676" lon="8.718550167316614"><ele>195.0</ele><time>2026-04-10T08:42:15.001Z</time></trkpt><trkpt lat="39.1946093898498" lon="8.718476951609826"><ele>195.0</ele><time>2026-04-10T08:42:16.001Z</time></trkpt><trkpt lat="39.194744781088154" lon="8.718411078332274"><ele>195.0</ele><time>2026-04-10T08:42:17.001Z</time></trkpt><trkpt lat="39.19485735215893" lon="8.718366648335099"><ele>194.8</ele><time>2026-04-10T08:42:18.001Z</time></trkpt><trkpt lat="39.19495532813943" lon="8.718345567102414"><ele>194.6</ele><time>2026-04-10T08:42:19.001Z</time></trkpt><trkpt lat="39.19504846458427" lon="8.718353566219784"><ele>194.39999999999998</ele><time>2026-04-10T08:42:20.001Z</time></trkpt><trkpt lat="39.1951247117439" lon="8.718415738737495"><ele>194.2</ele><time>2026-04-10T08:42:21.001Z</time></trkpt><trkpt lat="39.19520699925106" lon="8.718495738203885"><ele>194.0</ele><time>2026-04-10T08:42:22.001Z</time></trkpt><trkpt lat="39.19529098377098" lon="8.718592450330432"><ele>194.0</ele><time>2026-04-10T08:42:23.001Z</time></trkpt><trkpt lat="39.19538236355016" lon="8.718628076308187"><ele>194.0</ele><time>2026-04-10T08:42:24.001Z</time></trkpt><trkpt lat="39.19547472482431" lon="8.718634466422488"><ele>194.0</ele><time>2026-04-10T08:42:25.001Z</time></trkpt><trkpt lat="39.19557017191118" lon="8.718592865445784"><ele>194.0</ele><time>2026-04-10T08:42:26.001Z</time></trkpt><trkpt lat="39.1956535693686" lon="8.71849746588122"><ele>194.0</ele><time>2026-04-10T08:42:27.001Z</time></trkpt><trkpt lat="39.19573546773214" lon="8.718369583150887"><ele>195.0</ele><time>2026-04-10T08:42:28.001Z</time></trkpt><trkpt lat="39.19582298818963" lon="8.718259685243794"><ele>196.0</ele><time>2026-04-10T08:42:29.001Z</time></trkpt><trkpt lat="39.19593085785475" lon="8.718165053313456"><ele>197.0</ele><time>2026-04-10T08:42:30.001Z</time></trkpt><trkpt lat="39.19606215133269" lon="8.718106356516339"><ele>198.0</ele><time>2026-04-10T08:42:31.001Z</time></trkpt><trkpt lat="39.196171797521" lon="8.7180228300329"><ele>198.0</ele><time>2026-04-10T08:42:32.001Z</time></trkpt><trkpt lat="39.19626488589756" lon="8.717936582740371"><ele>198.0</ele><time>2026-04-10T08:42:33.001Z</time></trkpt><trkpt lat="39.19634601229623" lon="8.717816461155213"><ele>198.0</ele><time>2026-04-10T08:42:34.001Z</time></trkpt><trkpt lat="39.19642451092263" lon="8.71768262287545"><ele>198.0</ele><time>2026-04-10T08:42:35.001Z</time></trkpt><trkpt lat="39.196501859525576" lon="8.717541739141268"><ele>198.60000000000002</ele><time>2026-04-10T08:42:36.001Z</time></trkpt><trkpt lat="39.19656301993493" lon="8.717389005865764"><ele>199.20000000000002</ele><time>2026-04-10T08:42:37.001Z</time></trkpt><trkpt lat="39.19662938406923" lon="8.71726585652698"><ele>199.8</ele><time>2026-04-10T08:42:38.001Z</time></trkpt><trkpt lat="39.19668732490698" lon="8.71716103917143"><ele>200.4</ele><time>2026-04-10T08:42:39.001Z</time></trkpt><trkpt lat="39.19675503333254" lon="8.71708102007389"><ele>201.0</ele><time>2026-04-10T08:42:40.001Z</time></trkpt><trkpt lat="39.19682623148845" lon="8.717037064725222"><ele>201.0</ele><time>2026-04-10T08:42:41.001Z</time></trkpt><trkpt lat="39.196936002736116" lon="8.717082511725545"><ele>201.0</ele><time>2026-04-10T08:42:43.001Z</time></trkpt><trkpt lat="39.1969812108167" lon="8.717149298780425"><ele>201.0</ele><time>2026-04-10T08:42:44.001Z</time></trkpt><trkpt lat="39.197012835128184" lon="8.717238861119819"><ele>201.0</ele><time>2026-04-10T08:42:45.001Z</time></trkpt><trkpt lat="39.1970390817639" lon="8.71734472458029"><ele>201.0</ele><time>2026-04-10T08:42:46.001Z</time></trkpt><trkpt lat="39.197078278816996" lon="8.717484627676917"><ele>201.0</ele><time>2026-04-10T08:42:47Z</time></trkpt><trkpt lat="39.19711914338731" lon="8.717639247721308"><ele>201.0</ele><time>2026-04-10T08:42:48Z</time></trkpt><trkpt lat="39.19717448348021" lon="8.717757933200788"><ele>201.0</ele><time>2026-04-10T08:42:49Z</time></trkpt><trkpt lat="39.19723091381073" lon="8.717875363036555"><ele>201.0</ele><time>2026-04-10T08:42:50Z</time></trkpt><trkpt lat="39.197283281552465" lon="8.71799986866771"><ele>202.60000000000002</ele><time>2026-04-10T08:42:51Z</time></trkpt><trkpt lat="39.1973289185485" lon="8.718119607327266"><ele>204.2</ele><time>2026-04-10T08:42:52Z</time></trkpt><trkpt lat="39.19737195291358" lon="8.718212800729084"><ele>205.8</ele><time>2026-04-10T08:42:53Z</time></trkpt><trkpt lat="39.197418510712566" lon="8.718280237934907"><ele>207.39999999999998</ele><time>2026-04-10T08:42:54Z</time></trkpt><trkpt lat="39.19753884220715" lon="8.718361838686745"><ele>209.0</ele><time>2026-04-10T08:42:56Z</time></trkpt><trkpt lat="39.19763803727484" lon="8.718327708830577"><ele>209.0</ele><time>2026-04-10T08:42:57Z</time></trkpt><trkpt lat="39.19773125216575" lon="8.718284040947896"><ele>209.0</ele><time>2026-04-10T08:42:58Z</time></trkpt><trkpt lat="39.19781369712633" lon="8.718200581239376"><ele>209.0</ele><time>2026-04-10T08:42:59Z</time></trkpt><trkpt lat="39.197878556366774" lon="8.718084278851771"><ele>209.0</ele><time>2026-04-10T08:43:00Z</time></trkpt><trkpt lat="39.19794600172813" lon="8.7179466368771"><ele>209.0</ele><time>2026-04-10T08:43:01Z</time></trkpt><trkpt lat="39.19802470889456" lon="8.717838446717977"><ele>209.0</ele><time>2026-04-10T08:43:02Z</time></trkpt><trkpt lat="39.19811406232772" lon="8.717753165098687"><ele>209.0</ele><time>2026-04-10T08:43:03Z</time></trkpt><trkpt lat="39.19821003866884" lon="8.7176919512576"><ele>209.0</ele><time>2026-04-10T08:43:04Z</time></trkpt><trkpt lat="39.198309750858556" lon="8.717647720086344"><ele>209.0</ele><time>2026-04-10T08:43:05Z</time></trkpt><trkpt lat="39.19841538662515" lon="8.71761141961012"><ele>209.0</ele><time>2026-04-10T08:43:06Z</time></trkpt><trkpt lat="39.19852322437698" lon="8.717592105440959"><ele>211.6</ele><time>2026-04-10T08:43:07Z</time></trkpt><trkpt lat="39.19864339604259" lon="8.717630004424922"><ele>214.2</ele><time>2026-04-10T08:43:08Z</time></trkpt><trkpt lat="39.1987547778932" lon="8.717661876289007"><ele>216.79999999999998</ele><time>2026-04-10T08:43:09Z</time></trkpt><trkpt lat="39.198843755370824" lon="8.717674495229303"><ele>219.39999999999998</ele><time>2026-04-10T08:43:10Z</time></trkpt><trkpt lat="39.19892634117026" lon="8.717665702300474"><ele>222.0</ele><time>2026-04-10T08:43:11Z</time></trkpt><trkpt lat="39.198997257525676" lon="8.717560181875875"><ele>222.83333333333334</ele><time>2026-04-10T08:43:12Z</time></trkpt><trkpt lat="39.19907160752182" lon="8.717479884843879"><ele>223.66666666666669</ele><time>2026-04-10T08:43:13Z</time></trkpt><trkpt lat="39.199146321315276" lon="8.717445130015285"><ele>224.5</ele><time>2026-04-10T08:43:14Z</time></trkpt><trkpt lat="39.19922362375047" lon="8.717451032344979"><ele>225.33333333333334</ele><time>2026-04-10T08:43:15Z</time></trkpt><trkpt lat="39.199307734414255" lon="8.717481321891439"><ele>226.16666666666669</ele><time>2026-04-10T08:43:16Z</time></trkpt><trkpt lat="39.19937849996995" lon="8.717561860717744"><ele>227.0</ele><time>2026-04-10T08:43:17Z</time></trkpt><trkpt lat="39.19946378186197" lon="8.717650082600112"><ele>227.00000000000003</ele><time>2026-04-10T08:43:18Z</time></trkpt><trkpt lat="39.19955391787254" lon="8.71772199105365"><ele>227.0</ele><time>2026-04-10T08:43:19Z</time></trkpt><trkpt lat="39.19965585652959" lon="8.717729503264662"><ele>227.0</ele><time>2026-04-10T08:43:20Z</time></trkpt><trkpt lat="39.19974390104413" lon="8.717743055958115"><ele>227.0</ele><time>2026-04-10T08:43:21Z</time></trkpt><trkpt lat="39.1998062574429" lon="8.717787554469501"><ele>227.00000000000003</ele><time>2026-04-10T08:43:22Z</time></trkpt><trkpt lat="39.19983494978283" lon="8.71786544423807"><ele>227.0</ele><time>2026-04-10T08:43:23Z</time></trkpt><trkpt lat="39.19984207919608" lon="8.718007820474805"><ele>229.25</ele><time>2026-04-10T08:43:24Z</time></trkpt><trkpt lat="39.19990800345799" lon="8.718194510137252"><ele>231.5</ele><time>2026-04-10T08:43:25Z</time></trkpt><trkpt lat="39.1999248156048" lon="8.718374974164647"><ele>233.75</ele><time>2026-04-10T08:43:26Z</time></trkpt><trkpt lat="39.19992863681621" lon="8.718540547733193"><ele>236.0</ele><time>2026-04-10T08:43:27Z</time></trkpt><trkpt lat="39.199905307388974" lon="8.718695097512361"><ele>238.0</ele><time>2026-04-10T08:43:28Z</time></trkpt><trkpt lat="39.19988036850124" lon="8.718826032550615"><ele>240.00000000000003</ele><time>2026-04-10T08:43:29Z</time></trkpt><trkpt lat="39.19988612624114" lon="8.71892787759306"><ele>242.00000000000003</ele><time>2026-04-10T08:43:30Z</time></trkpt><trkpt lat="39.19997310938472" lon="8.71905753360121"><ele>244.0</ele><time>2026-04-10T08:43:32Z</time></trkpt><trkpt lat="39.200041233972804" lon="8.719112098326967"><ele>246.0</ele><time>2026-04-10T08:43:33Z</time></trkpt><trkpt lat="39.2001393934572" lon="8.71911539563162"><ele>246.0</ele><time>2026-04-10T08:43:34Z</time></trkpt><trkpt lat="39.200235972298856" lon="8.719035269081486"><ele>246.0</ele><time>2026-04-10T08:43:35Z</time></trkpt><trkpt lat="39.200309137389624" lon="8.7189432986392"><ele>246.0</ele><time>2026-04-10T08:43:36Z</time></trkpt><trkpt lat="39.200387313135984" lon="8.718810853758654"><ele>246.0</ele><time>2026-04-10T08:43:37Z</time></trkpt><trkpt lat="39.20044119142773" lon="8.718672786744213"><ele>245.5</ele><time>2026-04-10T08:43:38Z</time></trkpt><trkpt lat="39.2004721955813" lon="8.718558682800897"><ele>245.0</ele><time>2026-04-10T08:43:39Z</time></trkpt><trkpt lat="39.20053045890802" lon="8.718471065943138"><ele>244.5</ele><time>2026-04-10T08:43:40Z</time></trkpt><trkpt lat="39.200573341129505" lon="8.71838054942297"><ele>244.0</ele><time>2026-04-10T08:43:41Z</time></trkpt><trkpt lat="39.200645189666595" lon="8.71834706789692"><ele>243.5</ele><time>2026-04-10T08:43:42Z</time></trkpt><trkpt lat="39.200729696741945" lon="8.718381615267289"><ele>243.0</ele><time>2026-04-10T08:43:43Z</time></trkpt><trkpt lat="39.200831547014154" lon="8.71840822623075"><ele>243.0</ele><time>2026-04-10T08:43:44Z</time></trkpt><trkpt lat="39.20094340632492" lon="8.718446239042404"><ele>243.0</ele><time>2026-04-10T08:43:45Z</time></trkpt><trkpt lat="39.20105464871117" lon="8.71848851586859"><ele>243.0</ele><time>2026-04-10T08:43:46Z</time></trkpt><trkpt lat="39.2011568765839" lon="8.718535283603527"><ele>243.0</ele><time>2026-04-10T08:43:47Z</time></trkpt><trkpt lat="39.20125356751295" lon="8.718599832655716"><ele>243.0</ele><time>2026-04-10T08:43:48Z</time></trkpt><trkpt lat="39.20133528184123" lon="8.71869316653166"><ele>244.0</ele><time>2026-04-10T08:43:49Z</time></trkpt><trkpt lat="39.201424616396714" lon="8.718775454447353"><ele>245.0</ele><time>2026-04-10T08:43:50Z</time></trkpt><trkpt lat="39.20150398619292" lon="8.718872259358653"><ele>246.0</ele><time>2026-04-10T08:43:51Z</time></trkpt><trkpt lat="39.20157831222303" lon="8.71897214656305"><ele>247.0</ele><time>2026-04-10T08:43:52Z</time></trkpt><trkpt lat="39.201675347627784" lon="8.719029936515717"><ele>248.0</ele><time>2026-04-10T08:43:53Z</time></trkpt><trkpt lat="39.201781162878994" lon="8.71903536478952"><ele>248.0</ele><time>2026-04-10T08:43:54Z</time></trkpt><trkpt lat="39.20188359593112" lon="8.719050094718625"><ele>248.0</ele><time>2026-04-10T08:43:55Z</time></trkpt><trkpt lat="39.20198481836367" lon="8.71906313152307"><ele>248.0</ele><time>2026-04-10T08:43:56Z</time></trkpt><trkpt lat="39.202072327498726" lon="8.719072590398723"><ele>248.0</ele><time>2026-04-10T08:43:57Z</time></trkpt><trkpt lat="39.20213643107637" lon="8.719065744543796"><ele>248.0</ele><time>2026-04-10T08:43:58Z</time></trkpt><trkpt lat="39.20223308793219" lon="8.71908440855744"><ele>248.0</ele><time>2026-04-10T08:44:00Z</time></trkpt><trkpt lat="39.20232830991378" lon="8.719145412165018"><ele>248.0</ele><time>2026-04-10T08:44:02Z</time></trkpt><trkpt lat="39.2023830272007" lon="8.719227492872243"><ele>248.0</ele><time>2026-04-10T08:44:04Z</time></trkpt><trkpt lat="39.20244511953388" lon="8.719304935342375"><ele>248.0</ele><time>2026-04-10T08:44:07Z</time></trkpt><trkpt lat="39.20251477590489" lon="8.719370491535853"><ele>248.0</ele><time>2026-04-10T09:12:28Z</time></trkpt><trkpt lat="39.2025979650884" lon="8.71949770064932"><ele>250.0</ele><time>2026-04-10T09:12:30Z</time></trkpt><trkpt lat="39.20267523945324" lon="8.719607816341851"><ele>252.0</ele><time>2026-04-10T09:12:32Z</time></trkpt><trkpt lat="39.202752126860574" lon="8.719713057161679"><ele>254.0</ele><time>2026-04-10T09:12:34Z</time></trkpt><trkpt lat="39.20280600427765" lon="8.719846095893164"><ele>256.0</ele><time>2026-04-10T09:12:36Z</time></trkpt><trkpt lat="39.20281673393019" lon="8.719991583878162"><ele>256.0</ele><time>2026-04-10T09:12:38Z</time></trkpt><trkpt lat="39.20281413737477" lon="8.720122433123514"><ele>256.0</ele><time>2026-04-10T09:12:40Z</time></trkpt><trkpt lat="39.20278614577457" lon="8.72024872505357"><ele>256.0</ele><time>2026-04-10T09:12:42Z</time></trkpt><trkpt lat="39.20275607394863" lon="8.720362180205404"><ele>256.0</ele><time>2026-04-10T09:12:44Z</time></trkpt><trkpt lat="39.20270545867986" lon="8.720498839510075"><ele>256.0</ele><time>2026-04-10T09:12:46Z</time></trkpt><trkpt lat="39.202672789785325" lon="8.720577956882446"><ele>256.6</ele><time>2026-04-10T09:12:47Z</time></trkpt><trkpt lat="39.20263469422469" lon="8.720650088853285"><ele>257.20000000000005</ele><time>2026-04-10T09:12:48Z</time></trkpt><trkpt lat="39.202576700436644" lon="8.72074830107973"><ele>257.79999999999995</ele><time>2026-04-10T09:12:50Z</time></trkpt><trkpt lat="39.20255547534004" lon="8.720844832794691"><ele>258.4</ele><time>2026-04-10T09:12:52Z</time></trkpt><trkpt lat="39.20263744367986" lon="8.72088189868176"><ele>259.0</ele><time>2026-04-10T09:12:55Z</time></trkpt><trkpt lat="39.202704013467354" lon="8.720729624849618"><ele>259.0</ele><time>2026-04-10T09:12:57Z</time></trkpt><trkpt lat="39.20275550951259" lon="8.720629857665733"><ele>259.0</ele><time>2026-04-10T09:12:58Z</time></trkpt><trkpt lat="39.202811897098364" lon="8.72051784734098"><ele>259.0</ele><time>2026-04-10T09:12:59Z</time></trkpt><trkpt lat="39.20286505192201" lon="8.720395947724391"><ele>259.0</ele><time>2026-04-10T09:13:00Z</time></trkpt><trkpt lat="39.20291547144074" lon="8.720265986910533"><ele>259.0</ele><time>2026-04-10T09:13:01Z</time></trkpt><trkpt lat="39.20295168584286" lon="8.720133894986288"><ele>258.4</ele><time>2026-04-10T09:13:02Z</time></trkpt><trkpt lat="39.202970411010924" lon="8.720006634053615"><ele>257.79999999999995</ele><time>2026-04-10T09:13:03Z</time></trkpt><trkpt lat="39.20297338889112" lon="8.719883469039445"><ele>257.20000000000005</ele><time>2026-04-10T09:13:04Z</time></trkpt><trkpt lat="39.20296973580266" lon="8.71976233720963"><ele>256.6</ele><time>2026-04-10T09:13:05Z</time></trkpt><trkpt lat="39.20296714913551" lon="8.719671257928137"><ele>256.0</ele><time>2026-04-10T09:13:06Z</time></trkpt><trkpt lat="39.20295691024126" lon="8.719539073071305"><ele>257.40000000000003</ele><time>2026-04-10T09:13:08Z</time></trkpt><trkpt lat="39.20297673507328" lon="8.719387983300958"><ele>258.8</ele><time>2026-04-10T09:13:10Z</time></trkpt><trkpt lat="39.203017153825776" lon="8.719306066183508"><ele>260.20000000000005</ele><time>2026-04-10T09:13:11Z</time></trkpt><trkpt lat="39.203072955216264" lon="8.719217660340098"><ele>261.6</ele><time>2026-04-10T09:13:12Z</time></trkpt><trkpt lat="39.20313364759042" lon="8.719140682563886"><ele>263.0</ele><time>2026-04-10T09:13:13Z</time></trkpt><trkpt lat="39.2032091451293" lon="8.719061965138197"><ele>263.0</ele><time>2026-04-10T09:13:14Z</time></trkpt><trkpt lat="39.203301375976864" lon="8.718977706172627"><ele>263.0</ele><time>2026-04-10T09:13:15Z</time></trkpt><trkpt lat="39.203387073003825" lon="8.718887916612152"><ele>263.0</ele><time>2026-04-10T09:13:16Z</time></trkpt><trkpt lat="39.203461937231424" lon="8.718777911304068"><ele>263.0</ele><time>2026-04-10T09:13:17Z</time></trkpt><trkpt lat="39.20352497702279" lon="8.71866546098455"><ele>263.0</ele><time>2026-04-10T09:13:18Z</time></trkpt><trkpt lat="39.20356757779975" lon="8.718550986877611"><ele>264.8</ele><time>2026-04-10T09:13:19Z</time></trkpt><trkpt lat="39.20360652118222" lon="8.718436099717392"><ele>266.6</ele><time>2026-04-10T09:13:20Z</time></trkpt><trkpt lat="39.20365069109945" lon="8.718333811857821"><ele>268.4</ele><time>2026-04-10T09:13:21Z</time></trkpt><trkpt lat="39.20370162748118" lon="8.718261764146348"><ele>270.2</ele><time>2026-04-10T09:13:22Z</time></trkpt><trkpt lat="39.20383880673985" lon="8.71819728451219"><ele>272.0</ele><time>2026-04-10T09:13:24Z</time></trkpt><trkpt lat="39.203959906442456" lon="8.718179351499755"><ele>274.0</ele><time>2026-04-10T09:13:25Z</time></trkpt><trkpt lat="39.2040561090043" lon="8.718157170721035"><ele>276.0</ele><time>2026-04-10T09:13:26Z</time></trkpt><trkpt lat="39.20415244832494" lon="8.718105279300525"><ele>278.0</ele><time>2026-04-10T09:13:27Z</time></trkpt><trkpt lat="39.204245947611206" lon="8.718029794149178"><ele>280.0</ele><time>2026-04-10T09:13:28.001Z</time></trkpt><trkpt lat="39.20432930548372" lon="8.717930480224709"><ele>282.0</ele><time>2026-04-10T09:13:29.001Z</time></trkpt><trkpt lat="39.204404326724834" lon="8.71780617619899"><ele>283.75</ele><time>2026-04-10T09:13:30.001Z</time></trkpt><trkpt lat="39.20448192903218" lon="8.717685719477002"><ele>285.5</ele><time>2026-04-10T09:13:31.001Z</time></trkpt><trkpt lat="39.20458040064757" lon="8.717592833187782"><ele>287.25</ele><time>2026-04-10T09:13:32.001Z</time></trkpt><trkpt lat="39.204699239507946" lon="8.717525842323992"><ele>289.0</ele><time>2026-04-10T09:13:33.001Z</time></trkpt><trkpt lat="39.20481845106832" lon="8.717482322681521"><ele>289.59999999999997</ele><time>2026-04-10T09:13:34.001Z</time></trkpt><trkpt lat="39.20493582322668" lon="8.717474635936368"><ele>290.2</ele><time>2026-04-10T09:13:35.001Z</time></trkpt><trkpt lat="39.20504973789215" lon="8.717480972667289"><ele>290.79999999999995</ele><time>2026-04-10T09:13:36.001Z</time></trkpt><trkpt lat="39.20515589716754" lon="8.717487306218482"><ele>291.4</ele><time>2026-04-10T09:13:37.001Z</time></trkpt><trkpt lat="39.20526146966723" lon="8.717488486179048"><ele>292.0</ele><time>2026-04-10T09:13:38.001Z</time></trkpt><trkpt lat="39.20536487787182" lon="8.717474763780302"><ele>292.0</ele><time>2026-04-10T09:13:39.001Z</time></trkpt><trkpt lat="39.205468121982506" lon="8.71746307037783"><ele>292.0</ele><time>2026-04-10T09:13:40.001Z</time></trkpt><trkpt lat="39.20556841020922" lon="8.717462842163492"><ele>292.0</ele><time>2026-04-10T09:13:41.001Z</time></trkpt><trkpt lat="39.2056639661256" lon="8.717476627282057"><ele>292.0</ele><time>2026-04-10T09:13:42.001Z</time></trkpt><trkpt lat="39.20575270392162" lon="8.717495270120779"><ele>292.0</ele><time>2026-04-10T09:13:43.001Z</time></trkpt><trkpt lat="39.20582280553774" lon="8.717506215284976"><ele>293.5</ele><time>2026-04-10T09:13:44.001Z</time></trkpt><trkpt lat="39.20589228007977" lon="8.7175028420343"><ele>295.0</ele><time>2026-04-10T09:13:45.001Z</time></trkpt><trkpt lat="39.20597819031776" lon="8.717377721004677"><ele>296.5</ele><time>2026-04-10T09:13:47.001Z</time></trkpt><trkpt lat="39.205993470914535" lon="8.717276001545722"><ele>298.0</ele><time>2026-04-10T09:13:48.001Z</time></trkpt><trkpt lat="39.20598440470576" lon="8.717163453642852"><ele>299.5</ele><time>2026-04-10T09:13:49.001Z</time></trkpt><trkpt lat="39.20598940816519" lon="8.717079302795879"><ele>301.0</ele><time>2026-04-10T09:13:50.001Z</time></trkpt><trkpt lat="39.206101874366006" lon="8.717026517786525"><ele>301.0</ele><time>2026-04-10T09:13:52.001Z</time></trkpt><trkpt lat="39.20617725102402" lon="8.717058634512885"><ele>301.0</ele><time>2026-04-10T09:13:53.001Z</time></trkpt><trkpt lat="39.20623826138658" lon="8.717124022223583"><ele>301.0</ele><time>2026-04-10T09:13:54.001Z</time></trkpt><trkpt lat="39.20625613887374" lon="8.717209964413703"><ele>301.0</ele><time>2026-04-10T09:13:55.001Z</time></trkpt><trkpt lat="39.2062361431778" lon="8.717313116092988"><ele>301.0</ele><time>2026-04-10T09:13:56.001Z</time></trkpt><trkpt lat="39.20620598201809" lon="8.717426097393947"><ele>301.0</ele><time>2026-04-10T09:13:57.001Z</time></trkpt><trkpt lat="39.206207834954625" lon="8.71753514007495"><ele>301.0</ele><time>2026-04-10T09:13:58.001Z</time></trkpt><trkpt lat="39.20624906700289" lon="8.717655109762893"><ele>301.0</ele><time>2026-04-10T09:13:59.001Z</time></trkpt><trkpt lat="39.20629807302651" lon="8.717787568048957"><ele>301.0</ele><time>2026-04-10T09:14:00.001Z</time></trkpt><trkpt lat="39.20633057012697" lon="8.71792398718688"><ele>301.0</ele><time>2026-04-10T09:14:01.001Z</time></trkpt><trkpt lat="39.20630711707459" lon="8.718057934061516"><ele>301.0</ele><time>2026-04-10T09:14:02.001Z</time></trkpt><trkpt lat="39.206316054794534" lon="8.718162003842618"><ele>305.0</ele><time>2026-04-10T09:14:03.001Z</time></trkpt><trkpt lat="39.20637498225102" lon="8.718298446970325"><ele>309.0</ele><time>2026-04-10T09:14:05.001Z</time></trkpt><trkpt lat="39.20647591598508" lon="8.718348686510893"><ele>313.0</ele><time>2026-04-10T09:14:06.001Z</time></trkpt><trkpt lat="39.206574794588796" lon="8.718410700141732"><ele>317.0</ele><time>2026-04-10T09:14:07.001Z</time></trkpt><trkpt lat="39.20668250134299" lon="8.71843448780715"><ele>321.0</ele><time>2026-04-10T09:14:08.001Z</time></trkpt><trkpt lat="39.20677293333122" lon="8.718490829812342"><ele>322.4</ele><time>2026-04-10T09:14:09.001Z</time></trkpt><trkpt lat="39.206864717965544" lon="8.718445535911313"><ele>323.8</ele><time>2026-04-10T09:14:10.001Z</time></trkpt><trkpt lat="39.2069543833918" lon="8.71843745052778"><ele>325.2</ele><time>2026-04-10T09:14:11.001Z</time></trkpt><trkpt lat="39.207045669974576" lon="8.718405999220266"><ele>326.59999999999997</ele><time>2026-04-10T09:14:12.001Z</time></trkpt><trkpt lat="39.207140857535876" lon="8.71835261017051"><ele>328.0</ele><time>2026-04-10T09:14:13.001Z</time></trkpt><trkpt lat="39.207233755571124" lon="8.718302764187015"><ele>328.0</ele><time>2026-04-10T09:14:14.001Z</time></trkpt><trkpt lat="39.20732379381434" lon="8.7182316484752"><ele>328.0</ele><time>2026-04-10T09:14:15.001Z</time></trkpt><trkpt lat="39.20741291928557" lon="8.718192139026709"><ele>328.0</ele><time>2026-04-10T09:14:16.001Z</time></trkpt><trkpt lat="39.20747439412637" lon="8.718138418702438"><ele>328.0</ele><time>2026-04-10T09:14:16.998Z</time></trkpt><trkpt lat="39.207556249119314" lon="8.718092954102177"><ele>328.0</ele><time>2026-04-10T09:14:18.998Z</time></trkpt><trkpt lat="39.20762713668412" lon="8.718104978560914"><ele>328.0</ele><time>2026-04-10T09:14:20.998Z</time></trkpt><trkpt lat="39.20773461266346" lon="8.718055794619099"><ele>328.5</ele><time>2026-04-10T09:14:22.998Z</time></trkpt><trkpt lat="39.207779984359355" lon="8.71799497330929"><ele>329.0</ele><time>2026-04-10T09:14:23.998Z</time></trkpt><trkpt lat="39.207815124991946" lon="8.717881561711689"><ele>329.5</ele><time>2026-04-10T09:14:25.998Z</time></trkpt><trkpt lat="39.207821364181626" lon="8.717789351173542"><ele>330.0</ele><time>2026-04-10T09:14:26.998Z</time></trkpt><trkpt lat="39.20781999983023" lon="8.717671402207385"><ele>330.5</ele><time>2026-04-10T09:14:27.998Z</time></trkpt><trkpt lat="39.20781374375271" lon="8.717520873652575"><ele>331.0</ele><time>2026-04-10T09:14:28.998Z</time></trkpt><trkpt lat="39.207804343681445" lon="8.717396877416817"><ele>332.16666666666663</ele><time>2026-04-10T09:14:29.998Z</time></trkpt><trkpt lat="39.20781213582599" lon="8.717310028091728"><ele>333.3333333333333</ele><time>2026-04-10T09:14:30.998Z</time></trkpt><trkpt lat="39.20785903303679" lon="8.717245589970219"><ele>334.5</ele><time>2026-04-10T09:14:31.998Z</time></trkpt><trkpt lat="39.207910636424" lon="8.717176347688278"><ele>335.6666666666667</ele><time>2026-04-10T09:14:32.998Z</time></trkpt><trkpt lat="39.20795284483292" lon="8.717090112066108"><ele>336.83333333333337</ele><time>2026-04-10T09:14:33.998Z</time></trkpt><trkpt lat="39.20802869417955" lon="8.717017880785372"><ele>338.0</ele><time>2026-04-10T09:14:34.999Z</time></trkpt><trkpt lat="39.20812022106422" lon="8.71694739610352"><ele>339.79999999999995</ele><time>2026-04-10T09:14:35.999Z</time></trkpt><trkpt lat="39.208224862623105" lon="8.716877311575798"><ele>341.6</ele><time>2026-04-10T09:14:36.999Z</time></trkpt><trkpt lat="39.20832045339372" lon="8.716817930888082"><ele>343.4</ele><time>2026-04-10T09:14:37.999Z</time></trkpt><trkpt lat="39.20839627583998" lon="8.71675755241833"><ele>345.20000000000005</ele><time>2026-04-10T09:14:38.999Z</time></trkpt><trkpt lat="39.208460906845495" lon="8.71668268944905"><ele>347.0</ele><time>2026-04-10T09:14:39.999Z</time></trkpt><trkpt lat="39.20852469779518" lon="8.71659303777633"><ele>347.0</ele><time>2026-04-10T09:14:40.999Z</time></trkpt><trkpt lat="39.20859597171444" lon="8.716496838366137"><ele>347.0</ele><time>2026-04-10T09:14:41.999Z</time></trkpt><trkpt lat="39.20868222381997" lon="8.716389262681789"><ele>347.0</ele><time>2026-04-10T09:14:42.999Z</time></trkpt><trkpt lat="39.20873518161657" lon="8.716313255429911"><ele>347.0</ele><time>2026-04-10T09:14:43.999Z</time></trkpt><trkpt lat="39.20878079621541" lon="8.716228852503193"><ele>347.0</ele><time>2026-04-10T09:14:44.999Z</time></trkpt><trkpt lat="39.20882060750925" lon="8.71615356679788"><ele>350.0</ele><time>2026-04-10T09:14:45.999Z</time></trkpt><trkpt lat="39.20893210908835" lon="8.716065188378856"><ele>353.0</ele><time>2026-04-10T09:14:47.999Z</time></trkpt><trkpt lat="39.20905864276275" lon="8.716033173803675"><ele>356.0</ele><time>2026-04-10T09:14:49.999Z</time></trkpt><trkpt lat="39.2091547447817" lon="8.715921754677474"><ele>359.0</ele><time>2026-04-10T09:14:51.999Z</time></trkpt><trkpt lat="39.209208362856714" lon="8.715835331161406"><ele>359.33333333333337</ele><time>2026-04-10T09:14:52.999Z</time></trkpt><trkpt lat="39.20926447021216" lon="8.715740500523436"><ele>359.6666666666667</ele><time>2026-04-10T09:14:53.999Z</time></trkpt><trkpt lat="39.209316600198676" lon="8.715648471547267"><ele>360.0</ele><time>2026-04-10T09:14:54.999Z</time></trkpt><trkpt lat="39.20934936594753" lon="8.715556952617431"><ele>360.3333333333333</ele><time>2026-04-10T09:14:55.999Z</time></trkpt><trkpt lat="39.20936179535576" lon="8.715462613336298"><ele>360.66666666666663</ele><time>2026-04-10T09:14:56.999Z</time></trkpt><trkpt lat="39.20936876150852" lon="8.715368565098112"><ele>361.0</ele><time>2026-04-10T09:14:57.999Z</time></trkpt><trkpt lat="39.20940997321859" lon="8.71527991012015"><ele>362.8333333333333</ele><time>2026-04-10T09:14:58.999Z</time></trkpt><trkpt lat="39.20944093548809" lon="8.715183100720726"><ele>364.66666666666663</ele><time>2026-04-10T09:14:59.999Z</time></trkpt><trkpt lat="39.20947019094309" lon="8.715095101416692"><ele>366.5</ele><time>2026-04-10T09:15:00.999Z</time></trkpt><trkpt lat="39.209500643459386" lon="8.715006015779798"><ele>368.3333333333333</ele><time>2026-04-10T09:15:01.999Z</time></trkpt><trkpt lat="39.20953093821027" lon="8.714917391650092"><ele>370.1666666666667</ele><time>2026-04-10T09:15:02.999Z</time></trkpt><trkpt lat="39.209520481250564" lon="8.714773667349514"><ele>372.0</ele><time>2026-04-10T09:15:05Z</time></trkpt><trkpt lat="39.20947629957242" lon="8.7147118721283"><ele>372.0</ele><time>2026-04-10T09:15:06Z</time></trkpt><trkpt lat="39.20940915609104" lon="8.714677846937487"><ele>372.0</ele><time>2026-04-10T09:15:07Z</time></trkpt><trkpt lat="39.20931485637614" lon="8.714760900662558"><ele>372.0</ele><time>2026-04-10T09:15:08Z</time></trkpt><trkpt lat="39.20922767316778" lon="8.714818743259235"><ele>372.0</ele><time>2026-04-10T09:15:09Z</time></trkpt><trkpt lat="39.20915485652022" lon="8.71488628839758"><ele>372.0</ele><time>2026-04-10T09:15:10Z</time></trkpt><trkpt lat="39.209063104643214" lon="8.71491398138698"><ele>372.0</ele><time>2026-04-10T09:15:12Z</time></trkpt><trkpt lat="39.20902359619557" lon="8.714849532696693"><ele>372.0</ele><time>2026-04-10T09:15:15Z</time></trkpt><trkpt lat="39.20909116760305" lon="8.714749798882293"><ele>372.0</ele><time>2026-04-10T09:15:17Z</time></trkpt><trkpt lat="39.20916542990482" lon="8.714713749223193"><ele>372.0</ele><time>2026-04-10T09:15:18Z</time></trkpt><trkpt lat="39.20923207600809" lon="8.714673240744963"><ele>372.0</ele><time>2026-04-10T09:15:19Z</time></trkpt><trkpt lat="39.20928893253302" lon="8.714611808198512"><ele>372.0</ele><time>2026-04-10T09:15:20Z</time></trkpt><trkpt lat="39.209349355362185" lon="8.714531364506849"><ele>372.0</ele><time>2026-04-10T09:15:21Z</time></trkpt><trkpt lat="39.209414090862595" lon="8.714449367263208"><ele>372.0</ele><time>2026-04-10T09:15:22Z</time></trkpt><trkpt lat="39.20947962000484" lon="8.714383089824734"><ele>372.0</ele><time>2026-04-10T09:15:23Z</time></trkpt><trkpt lat="39.20955200262244" lon="8.714326430794571"><ele>372.0</ele><time>2026-04-10T09:15:24Z</time></trkpt><trkpt lat="39.20963329329549" lon="8.714289464342366"><ele>372.0</ele><time>2026-04-10T09:15:25Z</time></trkpt><trkpt lat="39.20970962214543" lon="8.71428202486064"><ele>372.0</ele><time>2026-04-10T09:15:26Z</time></trkpt><trkpt lat="39.20978722986076" lon="8.71430150657578"><ele>374.5</ele><time>2026-04-10T09:15:27Z</time></trkpt><trkpt lat="39.20986379263847" lon="8.714348872904406"><ele>377.0</ele><time>2026-04-10T09:15:28Z</time></trkpt><trkpt lat="39.20993102026686" lon="8.714406291086242"><ele>379.5</ele><time>2026-04-10T09:15:29Z</time></trkpt><trkpt lat="39.209978977332234" lon="8.714475312896424"><ele>382.0</ele><time>2026-04-10T09:15:30Z</time></trkpt><trkpt lat="39.20998513512726" lon="8.714574482986867"><ele>384.5</ele><time>2026-04-10T09:15:31Z</time></trkpt><trkpt lat="39.21000504924423" lon="8.714679232241632"><ele>387.0</ele><time>2026-04-10T09:15:32Z</time></trkpt><trkpt lat="39.2100251918871" lon="8.714807447424883"><ele>387.0</ele><time>2026-04-10T09:15:33Z</time></trkpt><trkpt lat="39.21003947675289" lon="8.714914436813192"><ele>387.0</ele><time>2026-04-10T09:15:34Z</time></trkpt><trkpt lat="39.21006667497216" lon="8.714998616533244"><ele>387.0</ele><time>2026-04-10T09:15:35Z</time></trkpt><trkpt lat="39.21007390179966" lon="8.715104839753183"><ele>387.0</ele><time>2026-04-10T09:15:36Z</time></trkpt><trkpt lat="39.21007509584893" lon="8.715225573988157"><ele>387.0</ele><time>2026-04-10T09:15:37Z</time></trkpt><trkpt lat="39.21007842384734" lon="8.715352417851832"><ele>387.0</ele><time>2026-04-10T09:15:38Z</time></trkpt><trkpt lat="39.21008242738706" lon="8.71544252777178"><ele>387.0</ele><time>2026-04-10T09:15:39Z</time></trkpt><trkpt lat="39.21011201735347" lon="8.715560462418866"><ele>387.0</ele><time>2026-04-10T09:15:41Z</time></trkpt><trkpt lat="39.2101708589864" lon="8.715604153661577"><ele>387.0</ele><time>2026-04-10T09:15:43Z</time></trkpt><trkpt lat="39.21024198008419" lon="8.715582050451587"><ele>387.0</ele><time>2026-04-10T09:15:45Z</time></trkpt><trkpt lat="39.210251786524026" lon="8.7154934863569"><ele>387.0</ele><time>2026-04-10T09:15:46Z</time></trkpt><trkpt lat="39.21026438936566" lon="8.715391740266783"><ele>387.0</ele><time>2026-04-10T09:15:47Z</time></trkpt><trkpt lat="39.210281038859705" lon="8.715269053194621"><ele>387.0</ele><time>2026-04-10T09:15:48Z</time></trkpt><trkpt lat="39.210302472818924" lon="8.7151548719317"><ele>387.0</ele><time>2026-04-10T09:15:49Z</time></trkpt><trkpt lat="39.21034521643185" lon="8.715038838553587"><ele>387.0</ele><time>2026-04-10T09:15:50Z</time></trkpt><trkpt lat="39.21037972645231" lon="8.714924715601322"><ele>387.0</ele><time>2026-04-10T09:15:51Z</time></trkpt><trkpt lat="39.2104056175822" lon="8.714793574003037"><ele>387.0</ele><time>2026-04-10T09:15:52Z</time></trkpt><trkpt lat="39.210453358791035" lon="8.714666360886335"><ele>387.0</ele><time>2026-04-10T09:15:53Z</time></trkpt><trkpt lat="39.210489302919335" lon="8.714565637413454"><ele>387.0</ele><time>2026-04-10T09:15:54Z</time></trkpt><trkpt lat="39.210535140051675" lon="8.71447636823616"><ele>387.0</ele><time>2026-04-10T09:15:55Z</time></trkpt><trkpt lat="39.21055471566155" lon="8.714382759715502"><ele>387.0</ele><time>2026-04-10T09:15:56Z</time></trkpt><trkpt lat="39.21055767629371" lon="8.71428750683696"><ele>387.0</ele><time>2026-04-10T09:15:57Z</time></trkpt><trkpt lat="39.21052327168889" lon="8.71420075749489"><ele>387.0</ele><time>2026-04-10T09:15:58Z</time></trkpt><trkpt lat="39.21047849245908" lon="8.714132129613475"><ele>388.40000000000003</ele><time>2026-04-10T09:15:59Z</time></trkpt><trkpt lat="39.21041323721828" lon="8.71404200711996"><ele>389.8</ele><time>2026-04-10T09:16:00Z</time></trkpt><trkpt lat="39.21034339357308" lon="8.713958780604793"><ele>391.2</ele><time>2026-04-10T09:16:01Z</time></trkpt><trkpt lat="39.21029546595872" lon="8.713897389615758"><ele>392.6</ele><time>2026-04-10T09:16:02Z</time></trkpt><trkpt lat="39.210246234049194" lon="8.71384347570771"><ele>394.0</ele><time>2026-04-10T09:16:05Z</time></trkpt><trkpt lat="39.210363913923736" lon="8.71375973816181"><ele>394.0</ele><time>2026-04-10T09:16:12.001Z</time></trkpt><trkpt lat="39.210420969146774" lon="8.713841117876857"><ele>394.0</ele><time>2026-04-10T09:16:13.001Z</time></trkpt><trkpt lat="39.21050267476197" lon="8.7138964314687"><ele>394.0</ele><time>2026-04-10T09:16:15.001Z</time></trkpt><trkpt lat="39.21061566125336" lon="8.713911602088139"><ele>394.0</ele><time>2026-04-10T09:16:17.001Z</time></trkpt><trkpt lat="39.210683258268666" lon="8.713906606474433"><ele>394.0</ele><time>2026-04-10T09:16:18.001Z</time></trkpt><trkpt lat="39.21079894420803" lon="8.713929266342994"><ele>397.6</ele><time>2026-04-10T09:16:20.001Z</time></trkpt><trkpt lat="39.21087242328878" lon="8.713985049790063"><ele>401.2</ele><time>2026-04-10T09:16:22.001Z</time></trkpt><trkpt lat="39.21093682859693" lon="8.714076988137283"><ele>404.8</ele><time>2026-04-10T09:16:23.997Z</time></trkpt><trkpt lat="39.211038292160524" lon="8.71413490600725"><ele>408.40000000000003</ele><time>2026-04-10T09:16:25.997Z</time></trkpt><trkpt lat="39.21114003144207" lon="8.714206767793502"><ele>412.0</ele><time>2026-04-10T09:16:27.997Z</time></trkpt><trkpt lat="39.211257578604815" lon="8.714259868366721"><ele>412.0</ele><time>2026-04-10T09:16:29.997Z</time></trkpt><trkpt lat="39.21137892267093" lon="8.714231327498272"><ele>412.0</ele><time>2026-04-10T09:16:31.998Z</time></trkpt><trkpt lat="39.21146675989673" lon="8.714183412839242"><ele>412.0</ele><time>2026-04-10T09:16:32.998Z</time></trkpt><trkpt lat="39.21155725702607" lon="8.714135217415482"><ele>412.0</ele><time>2026-04-10T09:16:33.998Z</time></trkpt><trkpt lat="39.211644715853645" lon="8.714100684434827"><ele>412.0</ele><time>2026-04-10T09:16:34.998Z</time></trkpt><trkpt lat="39.21171423890987" lon="8.714084895742236"><ele>412.57142857142856</ele><time>2026-04-10T09:16:35.998Z</time></trkpt><trkpt lat="39.21178384903773" lon="8.714116169080503"><ele>413.1428571428571</ele><time>2026-04-10T09:16:36.998Z</time></trkpt><trkpt lat="39.21186770549384" lon="8.714123105352217"><ele>413.71428571428567</ele><time>2026-04-10T09:16:37.998Z</time></trkpt><trkpt lat="39.2119394176636" lon="8.714114119983167"><ele>414.2857142857143</ele><time>2026-04-10T09:16:38.998Z</time></trkpt><trkpt lat="39.2120006953876" lon="8.714068915049417"><ele>414.8571428571429</ele><time>2026-04-10T09:16:39.998Z</time></trkpt><trkpt lat="39.212049706074296" lon="8.714006849238233"><ele>415.4285714285714</ele><time>2026-04-10T09:16:40.998Z</time></trkpt><trkpt lat="39.21208682984556" lon="8.713934276294388"><ele>416.0</ele><time>2026-04-10T09:16:41.998Z</time></trkpt><trkpt lat="39.212114238258074" lon="8.71386035609922"><ele>416.0</ele><time>2026-04-10T09:16:42.998Z</time></trkpt><trkpt lat="39.21217244851734" lon="8.713744681822227"><ele>416.0</ele><time>2026-04-10T09:16:44.999Z</time></trkpt><trkpt lat="39.2122613914642" lon="8.713710240059228"><ele>416.0</ele><time>2026-04-10T09:16:46.999Z</time></trkpt><trkpt lat="39.21236765224898" lon="8.713772773766875"><ele>416.0</ele><time>2026-04-10T09:16:48.999Z</time></trkpt><trkpt lat="39.21243045103643" lon="8.713784201260005"><ele>416.0</ele><time>2026-04-10T09:16:49.999Z</time></trkpt><trkpt lat="39.212493864741084" lon="8.713822814813643"><ele>418.0</ele><time>2026-04-10T09:16:50.999Z</time></trkpt><trkpt lat="39.212612337536605" lon="8.713839018092887"><ele>420.0</ele><time>2026-04-10T09:16:52.999Z</time></trkpt><trkpt lat="39.212721701206924" lon="8.713857825231477"><ele>422.0</ele><time>2026-04-10T09:16:54.999Z</time></trkpt><trkpt lat="39.212831127375736" lon="8.713896610905069"><ele>424.0</ele><time>2026-04-10T09:16:56.999Z</time></trkpt><trkpt lat="39.21291252171712" lon="8.713964740681549"><ele>426.0</ele><time>2026-04-10T09:16:58.999Z</time></trkpt><trkpt lat="39.21297454154692" lon="8.714048178239263"><ele>426.0</ele><time>2026-04-10T09:17:00.999Z</time></trkpt><trkpt lat="39.21305192972317" lon="8.714162643351587"><ele>426.0</ele><time>2026-04-10T09:17:02.999Z</time></trkpt><trkpt lat="39.21314456906257" lon="8.714264568305852"><ele>426.0</ele><time>2026-04-10T09:17:04.999Z</time></trkpt><trkpt lat="39.21320504982039" lon="8.714297537319485"><ele>426.0</ele><time>2026-04-10T09:17:05.999Z</time></trkpt><trkpt lat="39.21326720567213" lon="8.714322642998612"><ele>426.0</ele><time>2026-04-10T09:17:06.999Z</time></trkpt><trkpt lat="39.213366870279344" lon="8.714388480303024"><ele>429.4</ele><time>2026-04-10T09:17:08.999Z</time></trkpt><trkpt lat="39.2134282697148" lon="8.71442316987129"><ele>432.8</ele><time>2026-04-10T09:17:10Z</time></trkpt><trkpt lat="39.2135409587607" lon="8.714476735766052"><ele>436.19999999999993</ele><time>2026-04-10T09:17:12Z</time></trkpt><trkpt lat="39.213635963910825" lon="8.714526234755288"><ele>439.59999999999997</ele><time>2026-04-10T09:17:14Z</time></trkpt><trkpt lat="39.21374787502781" lon="8.71450719263411"><ele>443.0</ele><time>2026-04-10T09:17:16Z</time></trkpt><trkpt lat="39.213819177454916" lon="8.714483092074781"><ele>443.0</ele><time>2026-04-10T09:17:17Z</time></trkpt><trkpt lat="39.213891718716184" lon="8.714464843764498"><ele>442.99999999999994</ele><time>2026-04-10T09:17:18Z</time></trkpt><trkpt lat="39.213969911695116" lon="8.714443196781396"><ele>442.99999999999994</ele><time>2026-04-10T09:17:19Z</time></trkpt><trkpt lat="39.21406197956479" lon="8.714412714740886"><ele>443.0</ele><time>2026-04-10T09:17:20Z</time></trkpt><trkpt lat="39.21416260059515" lon="8.71435250577606"><ele>443.0</ele><time>2026-04-10T09:17:21Z</time></trkpt><trkpt lat="39.21425565727043" lon="8.714298137950173"><ele>442.2</ele><time>2026-04-10T09:17:22Z</time></trkpt><trkpt lat="39.2143307964955" lon="8.71424350744858"><ele>441.4</ele><time>2026-04-10T09:17:23Z</time></trkpt><trkpt lat="39.21440691989126" lon="8.714164878983304"><ele>440.59999999999997</ele><time>2026-04-10T09:17:24Z</time></trkpt><trkpt lat="39.21448234666789" lon="8.714076881873416"><ele>439.79999999999995</ele><time>2026-04-10T09:17:25Z</time></trkpt><trkpt lat="39.21453865890599" lon="8.713984801158958"><ele>439.0</ele><time>2026-04-10T09:17:26Z</time></trkpt><trkpt lat="39.21458979478663" lon="8.713878884528732"><ele>439.0</ele><time>2026-04-10T09:17:27Z</time></trkpt><trkpt lat="39.214656477236005" lon="8.713785385412546"><ele>439.0</ele><time>2026-04-10T09:17:28Z</time></trkpt><trkpt lat="39.21472609563084" lon="8.713672545550557"><ele>439.0</ele><time>2026-04-10T09:17:29Z</time></trkpt><trkpt lat="39.214796029762574" lon="8.713559015632427"><ele>439.0</ele><time>2026-04-10T09:17:30Z</time></trkpt><trkpt lat="39.21485757577951" lon="8.713446567878153"><ele>439.0</ele><time>2026-04-10T09:17:31Z</time></trkpt><trkpt lat="39.21491526230003" lon="8.713337572537277"><ele>440.50000000000006</ele><time>2026-04-10T09:17:32Z</time></trkpt><trkpt lat="39.21497245784506" lon="8.71322969439831"><ele>442.0</ele><time>2026-04-10T09:17:33Z</time></trkpt><trkpt lat="39.21501287064287" lon="8.71312944688778"><ele>443.5</ele><time>2026-04-10T09:17:34Z</time></trkpt><trkpt lat="39.21505283831559" lon="8.713020613930045"><ele>445.0</ele><time>2026-04-10T09:17:35Z</time></trkpt><trkpt lat="39.21509662663155" lon="8.712922903799278"><ele>446.50000000000006</ele><time>2026-04-10T09:17:36Z</time></trkpt><trkpt lat="39.215126975779164" lon="8.712836802485322"><ele>448.0</ele><time>2026-04-10T09:17:37Z</time></trkpt><trkpt lat="39.21515389705387" lon="8.712753943604142"><ele>447.14285714285717</ele><time>2026-04-10T09:17:38Z</time></trkpt><trkpt lat="39.2151834343681" lon="8.712668951040808"><ele>446.2857142857143</ele><time>2026-04-10T09:17:39Z</time></trkpt><trkpt lat="39.21523340834218" lon="8.712603653894565"><ele>445.42857142857144</ele><time>2026-04-10T09:17:40Z</time></trkpt><trkpt lat="39.21527529986943" lon="8.712530750889364"><ele>444.57142857142856</ele><time>2026-04-10T09:17:41Z</time></trkpt><trkpt lat="39.21530765680033" lon="8.712444965448272"><ele>443.7142857142857</ele><time>2026-04-10T09:17:42Z</time></trkpt><trkpt lat="39.215364990160225" lon="8.712379284284518"><ele>442.8571428571429</ele><time>2026-04-10T09:17:43Z</time></trkpt><trkpt lat="39.21542635124191" lon="8.712316077063456"><ele>442.0</ele><time>2026-04-10T09:17:44Z</time></trkpt><trkpt lat="39.215485025582375" lon="8.712224295235949"><ele>442.0</ele><time>2026-04-10T09:17:45Z</time></trkpt><trkpt lat="39.21555691806295" lon="8.712101975928942"><ele>442.00000000000006</ele><time>2026-04-10T09:17:46Z</time></trkpt><trkpt lat="39.215628855724056" lon="8.71198848559825"><ele>442.00000000000006</ele><time>2026-04-10T09:17:47Z</time></trkpt><trkpt lat="39.215694845815094" lon="8.711906629158786"><ele>442.0</ele><time>2026-04-10T09:17:48Z</time></trkpt><trkpt lat="39.215772789774626" lon="8.711873859842273"><ele>442.0</ele><time>2026-04-10T09:17:49Z</time></trkpt><trkpt lat="39.21586039561609" lon="8.711836247450757"><ele>445.5</ele><time>2026-04-10T09:17:50Z</time></trkpt><trkpt lat="39.21594761012302" lon="8.71176529357413"><ele>449.0</ele><time>2026-04-10T09:17:51Z</time></trkpt><trkpt lat="39.21605533392319" lon="8.711697457544776"><ele>452.5</ele><time>2026-04-10T09:17:52Z</time></trkpt><trkpt lat="39.21617874189897" lon="8.711607987820527"><ele>456.0</ele><time>2026-04-10T09:17:53Z</time></trkpt><trkpt lat="39.21629317048789" lon="8.711532244026213"><ele>456.0</ele><time>2026-04-10T09:17:54.001Z</time></trkpt><trkpt lat="39.21638453793063" lon="8.711466496758216"><ele>456.0</ele><time>2026-04-10T09:17:55.001Z</time></trkpt><trkpt lat="39.21647001544663" lon="8.711413100509887"><ele>456.0</ele><time>2026-04-10T09:17:56.001Z</time></trkpt><trkpt lat="39.21654527635628" lon="8.7113810994369"><ele>456.0</ele><time>2026-04-10T09:17:57.001Z</time></trkpt><trkpt lat="39.216621176744475" lon="8.711364962518859"><ele>456.0</ele><time>2026-04-10T09:17:58.001Z</time></trkpt><trkpt lat="39.21670734605362" lon="8.711380754671227"><ele>456.0</ele><time>2026-04-10T09:17:59.001Z</time></trkpt><trkpt lat="39.21677820522686" lon="8.711360937362022"><ele>456.0</ele><time>2026-04-10T09:18:00.001Z</time></trkpt><trkpt lat="39.21685714787271" lon="8.711365253056528"><ele>456.0</ele><time>2026-04-10T09:18:01.001Z</time></trkpt><trkpt lat="39.21692853872915" lon="8.711374401563875"><ele>456.0</ele><time>2026-04-10T09:18:02.001Z</time></trkpt><trkpt lat="39.21705873515323" lon="8.711357783013582"><ele>456.0</ele><time>2026-04-10T09:18:04.001Z</time></trkpt><trkpt lat="39.21715252327775" lon="8.711296972992246"><ele>456.0</ele><time>2026-04-10T09:18:05.001Z</time></trkpt><trkpt lat="39.21727165528596" lon="8.711220081910783"><ele>455.0</ele><time>2026-04-10T09:18:06.001Z</time></trkpt><trkpt lat="39.217368292834024" lon="8.711205292838574"><ele>454.0</ele><time>2026-04-10T09:18:07.001Z</time></trkpt><trkpt lat="39.217460232425154" lon="8.71116211515937"><ele>453.0</ele><time>2026-04-10T09:18:08.001Z</time></trkpt><trkpt lat="39.217553130677224" lon="8.711123741531951"><ele>452.0</ele><time>2026-04-10T09:18:09.001Z</time></trkpt><trkpt lat="39.21763937687174" lon="8.711084754952497"><ele>451.0</ele><time>2026-04-10T09:18:10.001Z</time></trkpt><trkpt lat="39.21772887254976" lon="8.711057708261828"><ele>455.4</ele><time>2026-04-10T09:18:11.001Z</time></trkpt><trkpt lat="39.217809592180664" lon="8.71103809122785"><ele>459.8</ele><time>2026-04-10T09:18:12.001Z</time></trkpt><trkpt lat="39.21788779561476" lon="8.711015437906171"><ele>464.19999999999993</ele><time>2026-04-10T09:18:13.001Z</time></trkpt><trkpt lat="39.21797916641972" lon="8.710968898802847"><ele>468.59999999999997</ele><time>2026-04-10T09:18:14.001Z</time></trkpt><trkpt lat="39.21807420850795" lon="8.710909369353649"><ele>473.0</ele><time>2026-04-10T09:18:15.001Z</time></trkpt><trkpt lat="39.218153861819246" lon="8.710847664714972"><ele>473.0</ele><time>2026-04-10T09:18:16.001Z</time></trkpt><trkpt lat="39.21823808861116" lon="8.710771713081762"><ele>472.99999999999994</ele><time>2026-04-10T09:18:17.001Z</time></trkpt><trkpt lat="39.21832516955529" lon="8.710694604827394"><ele>472.99999999999994</ele><time>2026-04-10T09:18:18.001Z</time></trkpt><trkpt lat="39.218416413745764" lon="8.7106216263676"><ele>473.0</ele><time>2026-04-10T09:18:19.001Z</time></trkpt><trkpt lat="39.21850508085259" lon="8.710556219709995"><ele>473.0</ele><time>2026-04-10T09:18:20.001Z</time></trkpt><trkpt lat="39.218591490758264" lon="8.710491693752791"><ele>473.0</ele><time>2026-04-10T09:18:21.001Z</time></trkpt><trkpt lat="39.21867699740962" lon="8.71042611327901"><ele>472.99999999999994</ele><time>2026-04-10T09:18:22.001Z</time></trkpt><trkpt lat="39.21877178815186" lon="8.710363774891443"><ele>472.99999999999994</ele><time>2026-04-10T09:18:23.001Z</time></trkpt><trkpt lat="39.21886335467478" lon="8.710300190317797"><ele>473.0</ele><time>2026-04-10T09:18:24.001Z</time></trkpt><trkpt lat="39.21894580105996" lon="8.710210730775014"><ele>473.0</ele><time>2026-04-10T09:18:25.001Z</time></trkpt><trkpt lat="39.21902639368956" lon="8.710116080878677"><ele>473.59999999999997</ele><time>2026-04-10T09:18:26.001Z</time></trkpt><trkpt lat="39.219111593124914" lon="8.710008490250639"><ele>474.19999999999993</ele><time>2026-04-10T09:18:27.001Z</time></trkpt><trkpt lat="39.219197477318126" lon="8.709905058969541"><ele>474.8</ele><time>2026-04-10T09:18:28.001Z</time></trkpt><trkpt lat="39.219269150300946" lon="8.709815467578728"><ele>475.4</ele><time>2026-04-10T09:18:28.999Z</time></trkpt><trkpt lat="39.21933981046281" lon="8.709714852823792"><ele>476.0</ele><time>2026-04-10T09:18:29.999Z</time></trkpt><trkpt lat="39.219406604717555" lon="8.709593473896453"><ele>476.0</ele><time>2026-04-10T09:18:30.999Z</time></trkpt><trkpt lat="39.21947582459298" lon="8.709467403866228"><ele>476.0</ele><time>2026-04-10T09:18:31.999Z</time></trkpt><trkpt lat="39.21954787510662" lon="8.709345038512788"><ele>476.0</ele><time>2026-04-10T09:18:32.999Z</time></trkpt><trkpt lat="39.21962659277186" lon="8.709243063765994"><ele>476.0</ele><time>2026-04-10T09:18:33.999Z</time></trkpt><trkpt lat="39.21970944970011" lon="8.709148097163075"><ele>474.8333333333333</ele><time>2026-04-10T09:18:34.999Z</time></trkpt><trkpt lat="39.219796575480494" lon="8.709057615592036"><ele>473.66666666666663</ele><time>2026-04-10T09:18:35.999Z</time></trkpt><trkpt lat="39.219878652689516" lon="8.708974405136054"><ele>472.5</ele><time>2026-04-10T09:18:36.999Z</time></trkpt><trkpt lat="39.21995021228359" lon="8.70889796013882"><ele>471.33333333333337</ele><time>2026-04-10T09:18:37.999Z</time></trkpt><trkpt lat="39.21999771575797" lon="8.708830488727328"><ele>470.1666666666667</ele><time>2026-04-10T09:18:38.999Z</time></trkpt><trkpt lat="39.22002391737835" lon="8.70874955804044"><ele>469.0</ele><time>2026-04-10T09:18:39.999Z</time></trkpt><trkpt lat="39.220030439851136" lon="8.708656493437356"><ele>471.6</ele><time>2026-04-10T09:18:40.999Z</time></trkpt><trkpt lat="39.22001986139552" lon="8.708548094992187"><ele>474.2</ele><time>2026-04-10T09:18:41.999Z</time></trkpt><trkpt lat="39.22000687453457" lon="8.708436846008569"><ele>476.80000000000007</ele><time>2026-04-10T09:18:42.999Z</time></trkpt><trkpt lat="39.22002981017395" lon="8.708319616639608"><ele>479.40000000000003</ele><time>2026-04-10T09:18:43.999Z</time></trkpt><trkpt lat="39.220029364708786" lon="8.708202066881752"><ele>482.0</ele><time>2026-04-10T09:18:44.999Z</time></trkpt><trkpt lat="39.22005007592714" lon="8.708079681740081"><ele>481.99999999999994</ele><time>2026-04-10T09:18:45.999Z</time></trkpt><trkpt lat="39.22006482788195" lon="8.707965698215114"><ele>482.0</ele><time>2026-04-10T09:18:46.999Z</time></trkpt><trkpt lat="39.22009066931056" lon="8.707857569579208"><ele>482.0</ele><time>2026-04-10T09:18:47.999Z</time></trkpt><trkpt lat="39.22012455436624" lon="8.707761694402219"><ele>482.0</ele><time>2026-04-10T09:18:48.999Z</time></trkpt><trkpt lat="39.22016624334302" lon="8.707685417386257"><ele>481.99999999999994</ele><time>2026-04-10T09:18:49.999Z</time></trkpt><trkpt lat="39.22022407472672" lon="8.707625596455852"><ele>482.0</ele><time>2026-04-10T09:18:50.999Z</time></trkpt><trkpt lat="39.22029749859386" lon="8.707566214573177"><ele>483.6</ele><time>2026-04-10T09:18:51.999Z</time></trkpt><trkpt lat="39.220363902320145" lon="8.707503634970246"><ele>485.20000000000005</ele><time>2026-04-10T09:18:52.999Z</time></trkpt><trkpt lat="39.220412485364186" lon="8.707439357139782"><ele>486.8</ele><time>2026-04-10T09:18:54Z</time></trkpt><trkpt lat="39.22044493492472" lon="8.707254314517032"><ele>488.4</ele><time>2026-04-10T09:18:56Z</time></trkpt><trkpt lat="39.22044652112032" lon="8.707132142435539"><ele>490.0</ele><time>2026-04-10T09:18:57Z</time></trkpt><trkpt lat="39.22043903761457" lon="8.706995056823644"><ele>491.33333333333337</ele><time>2026-04-10T09:18:58Z</time></trkpt><trkpt lat="39.2204400636354" lon="8.706853754642536"><ele>492.6666666666667</ele><time>2026-04-10T09:18:59Z</time></trkpt><trkpt lat="39.22044901033273" lon="8.70672873904591"><ele>494.0</ele><time>2026-04-10T09:19:00Z</time></trkpt><trkpt lat="39.220461807367414" lon="8.70662479426749"><ele>495.33333333333337</ele><time>2026-04-10T09:19:01Z</time></trkpt><trkpt lat="39.22049611282104" lon="8.706550499428905"><ele>496.6666666666667</ele><time>2026-04-10T09:19:02Z</time></trkpt><trkpt lat="39.22056513469747" lon="8.70650689542468"><ele>498.0</ele><time>2026-04-10T09:19:03Z</time></trkpt><trkpt lat="39.220633717279284" lon="8.706430673061176"><ele>493.2</ele><time>2026-04-10T09:19:04Z</time></trkpt><trkpt lat="39.22070164658006" lon="8.706356660722667"><ele>488.4</ele><time>2026-04-10T09:19:05Z</time></trkpt><trkpt lat="39.220743480859994" lon="8.706293157176685"><ele>483.59999999999997</ele><time>2026-04-10T09:19:06Z</time></trkpt><trkpt lat="39.220777236294204" lon="8.706119117208127"><ele>478.79999999999995</ele><time>2026-04-10T09:19:08Z</time></trkpt><trkpt lat="39.22078612902717" lon="8.705992469575547"><ele>474.0</ele><time>2026-04-10T09:19:09Z</time></trkpt><trkpt lat="39.22078124738789" lon="8.705857199015586"><ele>474.0</ele><time>2026-04-10T09:19:10Z</time></trkpt><trkpt lat="39.22078129579967" lon="8.705744564897438"><ele>474.0</ele><time>2026-04-10T09:19:11Z</time></trkpt><trkpt lat="39.22078406332467" lon="8.70563846936507"><ele>474.0</ele><time>2026-04-10T09:19:12Z</time></trkpt><trkpt lat="39.2207908147806" lon="8.705538138015541"><ele>474.0</ele><time>2026-04-10T09:19:13Z</time></trkpt><trkpt lat="39.220787822129516" lon="8.705433230278516"><ele>474.0</ele><time>2026-04-10T09:19:14Z</time></trkpt><trkpt lat="39.22079476866871" lon="8.705340985424312"><ele>474.0</ele><time>2026-04-10T09:19:15Z</time></trkpt><trkpt lat="39.22078783593079" lon="8.705207877685776"><ele>476.1666666666667</ele><time>2026-04-10T09:19:17Z</time></trkpt><trkpt lat="39.22088665739433" lon="8.705103880681207"><ele>478.33333333333337</ele><time>2026-04-10T09:19:19Z</time></trkpt><trkpt lat="39.220963929328065" lon="8.705045065720984"><ele>480.5</ele><time>2026-04-10T09:19:20Z</time></trkpt><trkpt lat="39.2210378940519" lon="8.704983432639962"><ele>482.6666666666667</ele><time>2026-04-10T09:19:21Z</time></trkpt><trkpt lat="39.22109870443011" lon="8.704926766206459"><ele>484.83333333333337</ele><time>2026-04-10T09:19:22Z</time></trkpt><trkpt lat="39.22114955845969" lon="8.70487117733965"><ele>487.0</ele><time>2026-04-10T09:19:23Z</time></trkpt><trkpt lat="39.22124550259735" lon="8.704809889327093"><ele>487.00000000000006</ele><time>2026-04-10T09:19:25Z</time></trkpt><trkpt lat="39.22132091087484" lon="8.704832121281918"><ele>487.0</ele><time>2026-04-10T09:19:26.001Z</time></trkpt><trkpt lat="39.221400333526425" lon="8.704841146616923"><ele>487.0</ele><time>2026-04-10T09:19:27.001Z</time></trkpt><trkpt lat="39.22146820324498" lon="8.70485727510877"><ele>487.0</ele><time>2026-04-10T09:19:28.001Z</time></trkpt><trkpt lat="39.221560330187536" lon="8.704904879218425"><ele>487.00000000000006</ele><time>2026-04-10T09:19:30.001Z</time></trkpt><trkpt lat="39.22164126668611" lon="8.705011536274435"><ele>487.0</ele><time>2026-04-10T09:19:32.001Z</time></trkpt><trkpt lat="39.22169376558218" lon="8.705087944284596"><ele>485.50000000000006</ele><time>2026-04-10T09:19:33.001Z</time></trkpt><trkpt lat="39.22175850862829" lon="8.70515396129045"><ele>484.0</ele><time>2026-04-10T09:19:34.001Z</time></trkpt><trkpt lat="39.22183802178645" lon="8.705213916248331"><ele>482.5</ele><time>2026-04-10T09:19:35.001Z</time></trkpt><trkpt lat="39.22189435442067" lon="8.705299516071145"><ele>481.0</ele><time>2026-04-10T09:19:36.001Z</time></trkpt><trkpt lat="39.221961817430135" lon="8.705356625020164"><ele>479.50000000000006</ele><time>2026-04-10T09:19:37.001Z</time></trkpt><trkpt lat="39.22201621973022" lon="8.705426888277628"><ele>478.0</ele><time>2026-04-10T09:19:38.001Z</time></trkpt><trkpt lat="39.2220780592689" lon="8.705473527572565"><ele>479.1666666666667</ele><time>2026-04-10T09:19:39.001Z</time></trkpt><trkpt lat="39.22213359414913" lon="8.705513479580732"><ele>480.33333333333337</ele><time>2026-04-10T09:19:40.001Z</time></trkpt><trkpt lat="39.22219923204718" lon="8.705474099567164"><ele>481.5</ele><time>2026-04-10T09:19:41.001Z</time></trkpt><trkpt lat="39.22225190487393" lon="8.705413217727424"><ele>482.66666666666663</ele><time>2026-04-10T09:19:42.001Z</time></trkpt><trkpt lat="39.22232053267427" lon="8.705335590776995"><ele>483.8333333333333</ele><time>2026-04-10T09:19:43.001Z</time></trkpt><trkpt lat="39.22241285936104" lon="8.705229760454872"><ele>485.0</ele><time>2026-04-10T09:19:44.001Z</time></trkpt><trkpt lat="39.22250005199829" lon="8.70514913601737"><ele>484.99999999999994</ele><time>2026-04-10T09:19:45.001Z</time></trkpt><trkpt lat="39.22258043988094" lon="8.7050959604254"><ele>485.0</ele><time>2026-04-10T09:19:46.001Z</time></trkpt><trkpt lat="39.22267222895525" lon="8.705058138070363"><ele>485.0</ele><time>2026-04-10T09:19:47.001Z</time></trkpt><trkpt lat="39.2227571989098" lon="8.705065896153299"><ele>485.0</ele><time>2026-04-10T09:19:48.001Z</time></trkpt><trkpt lat="39.222834875647685" lon="8.705084594599523"><ele>484.99999999999994</ele><time>2026-04-10T09:19:49.001Z</time></trkpt><trkpt lat="39.22292425506117" lon="8.705111194802805"><ele>485.0</ele><time>2026-04-10T09:19:50.001Z</time></trkpt><trkpt lat="39.22300406120928" lon="8.705105201180706"><ele>485.0</ele><time>2026-04-10T09:19:51.001Z</time></trkpt><trkpt lat="39.2231097402626" lon="8.7050862687626"><ele>485.0</ele><time>2026-04-10T09:19:53.001Z</time></trkpt><trkpt lat="39.22323657022113" lon="8.705004569290416"><ele>485.0</ele><time>2026-04-10T09:19:55.001Z</time></trkpt><trkpt lat="39.22331871355035" lon="8.70494057156572"><ele>485.0</ele><time>2026-04-10T09:19:56.001Z</time></trkpt><trkpt lat="39.22340678395111" lon="8.704864053657008"><ele>483.2</ele><time>2026-04-10T09:19:57.001Z</time></trkpt><trkpt lat="39.223487853075646" lon="8.704789772576788"><ele>481.4</ele><time>2026-04-10T09:19:58.001Z</time></trkpt><trkpt lat="39.223568657427116" lon="8.704717267332773"><ele>479.6</ele><time>2026-04-10T09:19:59.001Z</time></trkpt><trkpt lat="39.22365855112841" lon="8.704689920704453"><ele>477.8</ele><time>2026-04-10T09:20:00.001Z</time></trkpt><trkpt lat="39.22373980394435" lon="8.704642575839689"><ele>476.0</ele><time>2026-04-10T09:20:01.001Z</time></trkpt><trkpt lat="39.22383554593838" lon="8.704648968028966"><ele>476.0</ele><time>2026-04-10T09:20:02.001Z</time></trkpt><trkpt lat="39.223934239332586" lon="8.704664756921533"><ele>476.0</ele><time>2026-04-10T09:20:03.001Z</time></trkpt><trkpt lat="39.22403141286132" lon="8.704673875844135"><ele>476.0</ele><time>2026-04-10T09:20:04.001Z</time></trkpt><trkpt lat="39.224132856633005" lon="8.704674417690462"><ele>476.0</ele><time>2026-04-10T09:20:05.001Z</time></trkpt><trkpt lat="39.22423187028621" lon="8.704686326724039"><ele>476.0</ele><time>2026-04-10T09:20:06.002Z</time></trkpt><trkpt lat="39.22431327754165" lon="8.704704663906586"><ele>474.0</ele><time>2026-04-10T09:20:07.002Z</time></trkpt><trkpt lat="39.22443287877506" lon="8.704711173509203"><ele>472.0</ele><time>2026-04-10T09:20:09.002Z</time></trkpt><trkpt lat="39.22450860996268" lon="8.704673544512376"><ele>470.0</ele><time>2026-04-10T09:20:10.002Z</time></trkpt><trkpt lat="39.22460868410925" lon="8.704601932900463"><ele>468.0</ele><time>2026-04-10T09:20:11.002Z</time></trkpt><trkpt lat="39.224683349085204" lon="8.704572332081698"><ele>466.0</ele><time>2026-04-10T09:20:12.002Z</time></trkpt><trkpt lat="39.22478063454719" lon="8.704541411722833"><ele>467.8</ele><time>2026-04-10T09:20:14.002Z</time></trkpt><trkpt lat="39.224852737508336" lon="8.704499149309258"><ele>469.6</ele><time>2026-04-10T09:20:16.002Z</time></trkpt><trkpt lat="39.22490102280604" lon="8.704402435078094"><ele>471.4</ele><time>2026-04-10T09:20:18.002Z</time></trkpt><trkpt lat="39.22490186405466" lon="8.704225804107475"><ele>473.2</ele><time>2026-04-10T09:20:20.002Z</time></trkpt><trkpt lat="39.224886601719945" lon="8.704111478357841"><ele>475.0</ele><time>2026-04-10T09:20:21.002Z</time></trkpt><trkpt lat="39.224864937492434" lon="8.703994072682782"><ele>475.00000000000006</ele><time>2026-04-10T09:20:22.002Z</time></trkpt><trkpt lat="39.22484955950951" lon="8.703902772205291"><ele>475.0</ele><time>2026-04-10T09:20:23.002Z</time></trkpt><trkpt lat="39.224841552853576" lon="8.703789792294714"><ele>475.0</ele><time>2026-04-10T09:20:24.002Z</time></trkpt><trkpt lat="39.22484038676587" lon="8.703658579416185"><ele>475.0</ele><time>2026-04-10T09:20:25.002Z</time></trkpt><trkpt lat="39.22484332512588" lon="8.703533873378355"><ele>475.00000000000006</ele><time>2026-04-10T09:20:26.002Z</time></trkpt><trkpt lat="39.22484597585052" lon="8.703434417433844"><ele>475.0</ele><time>2026-04-10T09:20:27.002Z</time></trkpt><trkpt lat="39.224862656702264" lon="8.703330326563847"><ele>474.50000000000006</ele><time>2026-04-10T09:20:28.002Z</time></trkpt><trkpt lat="39.22489454657565" lon="8.70321994592074"><ele>474.0</ele><time>2026-04-10T09:20:29.002Z</time></trkpt><trkpt lat="39.224948951806645" lon="8.703119543680149"><ele>473.5</ele><time>2026-04-10T09:20:30.002Z</time></trkpt><trkpt lat="39.22499277693042" lon="8.70302744960854"><ele>473.0</ele><time>2026-04-10T09:20:31.002Z</time></trkpt><trkpt lat="39.22503281400464" lon="8.702936378931598"><ele>472.50000000000006</ele><time>2026-04-10T09:20:32.002Z</time></trkpt><trkpt lat="39.22506207377958" lon="8.702836361044453"><ele>472.0</ele><time>2026-04-10T09:20:33.002Z</time></trkpt><trkpt lat="39.22506554893943" lon="8.70273857932174"><ele>471.1666666666667</ele><time>2026-04-10T09:20:34.002Z</time></trkpt><trkpt lat="39.22504631146167" lon="8.702658305131063"><ele>470.33333333333337</ele><time>2026-04-10T09:20:35Z</time></trkpt><trkpt lat="39.22498991699968" lon="8.702606192552441"><ele>469.5</ele><time>2026-04-10T09:20:36Z</time></trkpt><trkpt lat="39.22493796493481" lon="8.70253534614823"><ele>468.66666666666663</ele><time>2026-04-10T09:20:37Z</time></trkpt><trkpt lat="39.224856169575" lon="8.702480315026163"><ele>467.8333333333333</ele><time>2026-04-10T09:20:38Z</time></trkpt><trkpt lat="39.224761447362674" lon="8.702413380226611"><ele>467.0</ele><time>2026-04-10T09:20:39Z</time></trkpt><trkpt lat="39.22467901543002" lon="8.702319957114767"><ele>468.6</ele><time>2026-04-10T09:20:40Z</time></trkpt><trkpt lat="39.22460408804663" lon="8.702238179047733"><ele>470.20000000000005</ele><time>2026-04-10T09:20:41Z</time></trkpt><trkpt lat="39.22453270287631" lon="8.702159393244319"><ele>471.8</ele><time>2026-04-10T09:20:42Z</time></trkpt><trkpt lat="39.22446672801818" lon="8.702071029303864"><ele>473.4</ele><time>2026-04-10T09:20:43Z</time></trkpt><trkpt lat="39.22442065285268" lon="8.701986493383897"><ele>475.0</ele><time>2026-04-10T09:20:44Z</time></trkpt><trkpt lat="39.22437983915811" lon="8.701876559767843"><ele>475.0</ele><time>2026-04-10T09:20:45Z</time></trkpt><trkpt lat="39.224337970937356" lon="8.701755511072529"><ele>475.0</ele><time>2026-04-10T09:20:46Z</time></trkpt><trkpt lat="39.22428575999168" lon="8.701639644396538"><ele>475.0</ele><time>2026-04-10T09:20:47Z</time></trkpt><trkpt lat="39.224239219142774" lon="8.701530614170878"><ele>475.0</ele><time>2026-04-10T09:20:48Z</time></trkpt><trkpt lat="39.224199913538214" lon="8.701428822637011"><ele>475.0</ele><time>2026-04-10T09:20:49Z</time></trkpt><trkpt lat="39.22415235282267" lon="8.70134546155424"><ele>475.00000000000006</ele><time>2026-04-10T09:20:50Z</time></trkpt><trkpt lat="39.22409362534213" lon="8.701260562608018"><ele>475.0</ele><time>2026-04-10T09:20:51Z</time></trkpt><trkpt lat="39.2240230498855" lon="8.701181667477446"><ele>475.0</ele><time>2026-04-10T09:20:52Z</time></trkpt><trkpt lat="39.22396040282599" lon="8.701135333411727"><ele>475.0</ele><time>2026-04-10T09:20:53Z</time></trkpt><trkpt lat="39.22388919287044" lon="8.701094889310523"><ele>475.00000000000006</ele><time>2026-04-10T09:20:54Z</time></trkpt><trkpt lat="39.223811658102626" lon="8.701080556088591"><ele>475.0</ele><time>2026-04-10T09:20:55Z</time></trkpt><trkpt lat="39.223726632316456" lon="8.701079384162824"><ele>474.83333333333337</ele><time>2026-04-10T09:20:56Z</time></trkpt><trkpt lat="39.22364989317701" lon="8.701081135205621"><ele>474.6666666666667</ele><time>2026-04-10T09:20:57Z</time></trkpt><trkpt lat="39.22358136512621" lon="8.701075613256771"><ele>474.5</ele><time>2026-04-10T09:20:58Z</time></trkpt><trkpt lat="39.223485929712886" lon="8.70106437854067"><ele>474.33333333333337</ele><time>2026-04-10T09:21:00Z</time></trkpt><trkpt lat="39.22340361129109" lon="8.701026543538157"><ele>474.1666666666667</ele><time>2026-04-10T09:21:02Z</time></trkpt><trkpt lat="39.22334243866486" lon="8.70089780167809"><ele>474.0</ele><time>2026-04-10T09:21:04Z</time></trkpt><trkpt lat="39.223347342428916" lon="8.700795289203295"><ele>474.0</ele><time>2026-04-10T09:21:05Z</time></trkpt><trkpt lat="39.22337019682094" lon="8.700691252401803"><ele>474.0</ele><time>2026-04-10T09:21:06Z</time></trkpt><trkpt lat="39.22342451218084" lon="8.700559838923368"><ele>474.0</ele><time>2026-04-10T09:21:07Z</time></trkpt><trkpt lat="39.22345938251712" lon="8.700473982334842"><ele>474.0</ele><time>2026-04-10T09:21:08Z</time></trkpt><trkpt lat="39.22346015712265" lon="8.700329697834427"><ele>474.0</ele><time>2026-04-10T09:21:10Z</time></trkpt><trkpt lat="39.22343666557861" lon="8.700248940116044"><ele>472.0</ele><time>2026-04-10T09:21:11Z</time></trkpt><trkpt lat="39.22339655083324" lon="8.70017227678899"><ele>470.0</ele><time>2026-04-10T09:21:12Z</time></trkpt><trkpt lat="39.22335409554562" lon="8.700106334352746"><ele>468.0</ele><time>2026-04-10T09:21:13Z</time></trkpt><trkpt lat="39.223294022196754" lon="8.70003839492804"><ele>466.0</ele><time>2026-04-10T09:21:14Z</time></trkpt><trkpt lat="39.22324491642142" lon="8.699947689669685"><ele>464.0</ele><time>2026-04-10T09:21:15.001Z</time></trkpt><trkpt lat="39.223190152105374" lon="8.69987511585469"><ele>462.0</ele><time>2026-04-10T09:21:16.001Z</time></trkpt><trkpt lat="39.223132134005176" lon="8.69981226654428"><ele>465.2857142857143</ele><time>2026-04-10T09:21:17.001Z</time></trkpt><trkpt lat="39.22306432598152" lon="8.699757471768901"><ele>468.57142857142856</ele><time>2026-04-10T09:21:18.001Z</time></trkpt><trkpt lat="39.22298786028742" lon="8.699713713055282"><ele>471.8571428571429</ele><time>2026-04-10T09:21:19.001Z</time></trkpt><trkpt lat="39.222919494943234" lon="8.69966098522917"><ele>475.14285714285717</ele><time>2026-04-10T09:21:20.001Z</time></trkpt><trkpt lat="39.22286648916241" lon="8.699603808226708"><ele>478.42857142857144</ele><time>2026-04-10T09:21:21.001Z</time></trkpt><trkpt lat="39.22282150161022" lon="8.699535110628247"><ele>481.7142857142858</ele><time>2026-04-10T09:21:22.001Z</time></trkpt><trkpt lat="39.22278814179767" lon="8.699462580958517"><ele>485.00000000000006</ele><time>2026-04-10T09:21:23.001Z</time></trkpt><trkpt lat="39.222747185539156" lon="8.699332507909311"><ele>485.0</ele><time>2026-04-10T09:21:25.001Z</time></trkpt><trkpt lat="39.222775626260024" lon="8.699188663273866"><ele>485.0</ele><time>2026-04-10T09:21:27.001Z</time></trkpt><trkpt lat="39.2228188624361" lon="8.69910943636146"><ele>485.0</ele><time>2026-04-10T09:21:28.001Z</time></trkpt><trkpt lat="39.22286191932589" lon="8.699023538442892"><ele>485.0</ele><time>2026-04-10T09:21:29.001Z</time></trkpt><trkpt lat="39.22288800924754" lon="8.698888299810955"><ele>485.0</ele><time>2026-04-10T09:21:31.001Z</time></trkpt><trkpt lat="39.22283181591804" lon="8.698759152152896"><ele>484.99999999999994</ele><time>2026-04-10T09:21:33.001Z</time></trkpt><trkpt lat="39.22277802697556" lon="8.6986971803608"><ele>485.0</ele><time>2026-04-10T09:21:34.001Z</time></trkpt><trkpt lat="39.22268873873669" lon="8.698628823679766"><ele>485.0</ele><time>2026-04-10T09:21:35.001Z</time></trkpt><trkpt lat="39.222611301343925" lon="8.69857645386687"><ele>485.0</ele><time>2026-04-10T09:21:36.001Z</time></trkpt><trkpt lat="39.22254511072601" lon="8.69855830392531"><ele>484.99999999999994</ele><time>2026-04-10T09:21:37.001Z</time></trkpt><trkpt lat="39.222492198022" lon="8.698503516372908"><ele>485.0</ele><time>2026-04-10T09:21:38.001Z</time></trkpt><trkpt lat="39.22242020686554" lon="8.698461794232859"><ele>486.66666666666663</ele><time>2026-04-10T09:21:39.001Z</time></trkpt><trkpt lat="39.22234993288854" lon="8.698422254738835"><ele>488.3333333333333</ele><time>2026-04-10T09:21:40.001Z</time></trkpt><trkpt lat="39.2222894958241" lon="8.698388560046181"><ele>490.0</ele><time>2026-04-10T09:21:41.001Z</time></trkpt><trkpt lat="39.222173032900976" lon="8.698318193540441"><ele>491.66666666666663</ele><time>2026-04-10T09:21:43.001Z</time></trkpt><trkpt lat="39.22209902541579" lon="8.69826969321133"><ele>493.3333333333333</ele><time>2026-04-10T09:21:44.001Z</time></trkpt><trkpt lat="39.22202135513277" lon="8.698213425543392"><ele>495.0</ele><time>2026-04-10T09:21:45.001Z</time></trkpt><trkpt lat="39.221947077982065" lon="8.698182109064486"><ele>495.0</ele><time>2026-04-10T09:21:46.001Z</time></trkpt><trkpt lat="39.22182022740311" lon="8.698148856962288"><ele>495.0</ele><time>2026-04-10T09:21:48.001Z</time></trkpt><trkpt lat="39.22173580475607" lon="8.698154394646616"><ele>495.0</ele><time>2026-04-10T09:21:49.001Z</time></trkpt><trkpt lat="39.22165760248909" lon="8.698154189791165"><ele>495.0</ele><time>2026-04-10T09:21:50.001Z</time></trkpt><trkpt lat="39.221571830726525" lon="8.69808750110751"><ele>495.0</ele><time>2026-04-10T09:21:52.001Z</time></trkpt><trkpt lat="39.22156282320792" lon="8.698003351883354"><ele>495.0</ele><time>2026-04-10T09:21:53.002Z</time></trkpt><trkpt lat="39.221571401127235" lon="8.69790776182567"><ele>495.0</ele><time>2026-04-10T09:21:54.002Z</time></trkpt><trkpt lat="39.22156512220685" lon="8.697823828737354"><ele>495.0</ele><time>2026-04-10T09:21:55.002Z</time></trkpt><trkpt lat="39.22145332822893" lon="8.697721520058435"><ele>495.0</ele><time>2026-04-10T09:21:57.002Z</time></trkpt><trkpt lat="39.2213707271675" lon="8.697665058438167"><ele>495.0</ele><time>2026-04-10T09:21:58.002Z</time></trkpt><trkpt lat="39.221304067640595" lon="8.697520687198805"><ele>497.6666666666667</ele><time>2026-04-10T09:22:00.002Z</time></trkpt><trkpt lat="39.2213055453654" lon="8.697402292251523"><ele>500.33333333333337</ele><time>2026-04-10T09:22:01.002Z</time></trkpt><trkpt lat="39.221314975196535" lon="8.697276711763875"><ele>503.0</ele><time>2026-04-10T09:22:02.002Z</time></trkpt><trkpt lat="39.22132005366429" lon="8.697168169771105"><ele>505.6666666666667</ele><time>2026-04-10T09:22:03.002Z</time></trkpt><trkpt lat="39.221317696136595" lon="8.697078807439533"><ele>508.33333333333337</ele><time>2026-04-10T09:22:04.002Z</time></trkpt><trkpt lat="39.22136728865117" lon="8.696968146906705"><ele>511.0</ele><time>2026-04-10T09:22:06.002Z</time></trkpt><trkpt lat="39.22142944054268" lon="8.696926243845686"><ele>506.00000000000006</ele><time>2026-04-10T09:22:07.002Z</time></trkpt><trkpt lat="39.221510630755326" lon="8.69694145542425"><ele>501.0</ele><time>2026-04-10T09:22:08.002Z</time></trkpt><trkpt lat="39.22159054483602" lon="8.696917416261108"><ele>496.0</ele><time>2026-04-10T09:22:09.002Z</time></trkpt><trkpt lat="39.221652331480314" lon="8.696892701908867"><ele>491.0</ele><time>2026-04-10T09:22:10.002Z</time></trkpt><trkpt lat="39.22166641873148" lon="8.696724572319498"><ele>486.00000000000006</ele><time>2026-04-10T09:22:12.002Z</time></trkpt><trkpt lat="39.22167046634532" lon="8.696619631907197"><ele>481.0</ele><time>2026-04-10T09:22:13.002Z</time></trkpt><trkpt lat="39.2216588343294" lon="8.696491987037911"><ele>481.0</ele><time>2026-04-10T09:22:15.002Z</time></trkpt><trkpt lat="39.2215873903155" lon="8.696344778935138"><ele>481.0</ele><time>2026-04-10T09:22:17.002Z</time></trkpt><trkpt lat="39.22153969559217" lon="8.696270304060864"><ele>481.0</ele><time>2026-04-10T09:22:18.002Z</time></trkpt><trkpt lat="39.22152022083655" lon="8.696183336434064"><ele>481.0</ele><time>2026-04-10T09:22:19.002Z</time></trkpt><trkpt lat="39.22147876337972" lon="8.69600784204547"><ele>481.0</ele><time>2026-04-10T09:22:21.002Z</time></trkpt><trkpt lat="39.22147903287562" lon="8.6959056250002"><ele>481.6666666666667</ele><time>2026-04-10T09:22:22.002Z</time></trkpt><trkpt lat="39.22151018941489" lon="8.695804509132435"><ele>482.33333333333337</ele><time>2026-04-10T09:22:23.002Z</time></trkpt><trkpt lat="39.22150248523033" lon="8.695702397603007"><ele>483.0</ele><time>2026-04-10T09:22:24.002Z</time></trkpt><trkpt lat="39.22150221305974" lon="8.695580724898303"><ele>483.66666666666663</ele><time>2026-04-10T09:22:25.002Z</time></trkpt><trkpt lat="39.221491505710226" lon="8.69547143857621"><ele>484.3333333333333</ele><time>2026-04-10T09:22:26.002Z</time></trkpt><trkpt lat="39.22152675360077" lon="8.6953784186056"><ele>485.0</ele><time>2026-04-10T09:22:27.002Z</time></trkpt><trkpt lat="39.221496489636" lon="8.695225585091006"><ele>485.8</ele><time>2026-04-10T09:22:29.002Z</time></trkpt><trkpt lat="39.221441790339526" lon="8.69513553207668"><ele>486.6</ele><time>2026-04-10T09:22:30.002Z</time></trkpt><trkpt lat="39.22143235835648" lon="8.695034618225725"><ele>487.4</ele><time>2026-04-10T09:22:31.002Z</time></trkpt><trkpt lat="39.22151076749014" lon="8.694897264612791"><ele>488.2</ele><time>2026-04-10T09:22:33.003Z</time></trkpt><trkpt lat="39.22161415829637" lon="8.6948545272308"><ele>489.0</ele><time>2026-04-10T09:22:34.003Z</time></trkpt><trkpt lat="39.22167789260647" lon="8.694757812851245"><ele>489.0</ele><time>2026-04-10T09:22:35.003Z</time></trkpt><trkpt lat="39.22172721220698" lon="8.694698469306186"><ele>489.0</ele><time>2026-04-10T09:22:36.003Z</time></trkpt><trkpt lat="39.22176508742184" lon="8.694626114750829"><ele>489.0</ele><time>2026-04-10T09:22:37.003Z</time></trkpt><trkpt lat="39.221781879828654" lon="8.694543088885723"><ele>489.0</ele><time>2026-04-10T09:22:38.003Z</time></trkpt><trkpt lat="39.22177485057401" lon="8.694377080002543"><ele>489.0</ele><time>2026-04-10T09:22:40.003Z</time></trkpt><trkpt lat="39.22178288488839" lon="8.694277588192838"><ele>489.0</ele><time>2026-04-10T09:22:41.001Z</time></trkpt><trkpt lat="39.22177441604461" lon="8.694157908530778"><ele>491.3333333333333</ele><time>2026-04-10T09:22:42.001Z</time></trkpt><trkpt lat="39.22178020484378" lon="8.694039020515786"><ele>493.66666666666663</ele><time>2026-04-10T09:22:43.001Z</time></trkpt><trkpt lat="39.221790817109046" lon="8.6939297556815"><ele>496.0</ele><time>2026-04-10T09:22:44.001Z</time></trkpt><trkpt lat="39.22179075292872" lon="8.693837136186511"><ele>498.3333333333333</ele><time>2026-04-10T09:22:45.001Z</time></trkpt><trkpt lat="39.22181789888175" lon="8.693757516268953"><ele>500.66666666666663</ele><time>2026-04-10T09:22:46.001Z</time></trkpt><trkpt lat="39.221926579297815" lon="8.693670098828289"><ele>503.0</ele><time>2026-04-10T09:22:48.001Z</time></trkpt><trkpt lat="39.22203092448721" lon="8.693646364803444"><ele>502.99999999999994</ele><time>2026-04-10T09:22:49.001Z</time></trkpt><trkpt lat="39.22209357815435" lon="8.693595406892175"><ele>503.0</ele><time>2026-04-10T09:22:50.001Z</time></trkpt><trkpt lat="39.222157542750956" lon="8.693529659865249"><ele>503.0</ele><time>2026-04-10T09:22:51.001Z</time></trkpt><trkpt lat="39.222225809403156" lon="8.69342336778339"><ele>503.0</ele><time>2026-04-10T09:22:52.001Z</time></trkpt><trkpt lat="39.22228523312527" lon="8.693352805629756"><ele>502.99999999999994</ele><time>2026-04-10T09:22:53.001Z</time></trkpt><trkpt lat="39.222355152803885" lon="8.693282214251335"><ele>503.0</ele><time>2026-04-10T09:22:54.001Z</time></trkpt><trkpt lat="39.22238389968304" lon="8.693184400186748"><ele>503.66666666666663</ele><time>2026-04-10T09:22:55.001Z</time></trkpt><trkpt lat="39.22241148234065" lon="8.693087518703203"><ele>504.3333333333333</ele><time>2026-04-10T09:22:56.001Z</time></trkpt><trkpt lat="39.22242185275617" lon="8.692983374513993"><ele>505.0</ele><time>2026-04-10T09:22:57.001Z</time></trkpt><trkpt lat="39.22243011862899" lon="8.692889331008965"><ele>505.66666666666663</ele><time>2026-04-10T09:22:58.001Z</time></trkpt><trkpt lat="39.22244053924756" lon="8.692790272991266"><ele>506.3333333333333</ele><time>2026-04-10T09:22:59.001Z</time></trkpt><trkpt lat="39.22245028659757" lon="8.692690268432408"><ele>507.0</ele><time>2026-04-10T09:23:00.001Z</time></trkpt><trkpt lat="39.222473953539016" lon="8.69258789330029"><ele>507.0</ele><time>2026-04-10T09:23:01.001Z</time></trkpt><trkpt lat="39.222519535921066" lon="8.69249892205921"><ele>507.0</ele><time>2026-04-10T09:23:02.001Z</time></trkpt><trkpt lat="39.22257917344972" lon="8.692439617643538"><ele>507.0</ele><time>2026-04-10T09:23:03.001Z</time></trkpt><trkpt lat="39.22265719737443" lon="8.692402187378281"><ele>507.0</ele><time>2026-04-10T09:23:04.001Z</time></trkpt><trkpt lat="39.222738175654115" lon="8.692355164092769"><ele>507.0</ele><time>2026-04-10T09:23:05.001Z</time></trkpt><trkpt lat="39.22281407594683" lon="8.692289297002263"><ele>507.0</ele><time>2026-04-10T09:23:06.001Z</time></trkpt><trkpt lat="39.22288078406937" lon="8.692212812504216"><ele>507.0</ele><time>2026-04-10T09:23:07.001Z</time></trkpt><trkpt lat="39.22295094561863" lon="8.692117311859713"><ele>507.00000000000006</ele><time>2026-04-10T09:23:08.001Z</time></trkpt><trkpt lat="39.22301838744147" lon="8.692032237584407"><ele>507.00000000000006</ele><time>2026-04-10T09:23:09.001Z</time></trkpt><trkpt lat="39.22307484380194" lon="8.69195023721249"><ele>507.0</ele><time>2026-04-10T09:23:10.001Z</time></trkpt><trkpt lat="39.22312888236096" lon="8.691858259623928"><ele>507.0</ele><time>2026-04-10T09:23:11.001Z</time></trkpt><trkpt lat="39.223159987635" lon="8.69176047242333"><ele>503.5</ele><time>2026-04-10T09:23:12.001Z</time></trkpt><trkpt lat="39.223184461811705" lon="8.691653775706627"><ele>500.0</ele><time>2026-04-10T09:23:13.001Z</time></trkpt><trkpt lat="39.22320365335579" lon="8.691543897927678"><ele>496.5</ele><time>2026-04-10T09:23:14.001Z</time></trkpt><trkpt lat="39.223213266063794" lon="8.69143816054227"><ele>493.0</ele><time>2026-04-10T09:23:15.001Z</time></trkpt><trkpt lat="39.22323136847066" lon="8.691330328311778"><ele>489.5</ele><time>2026-04-10T09:23:16.001Z</time></trkpt><trkpt lat="39.22322007233626" lon="8.691219604336666"><ele>486.0</ele><time>2026-04-10T09:23:17.001Z</time></trkpt><trkpt lat="39.22322673043079" lon="8.69110325761388"><ele>487.6</ele><time>2026-04-10T09:23:18.001Z</time></trkpt><trkpt lat="39.22322956602087" lon="8.690964287046706"><ele>489.20000000000005</ele><time>2026-04-10T09:23:19.001Z</time></trkpt><trkpt lat="39.223232357664024" lon="8.690825708794433"><ele>490.79999999999995</ele><time>2026-04-10T09:23:20.001Z</time></trkpt><trkpt lat="39.223245108525234" lon="8.690677324016857"><ele>492.4</ele><time>2026-04-10T09:23:21.001Z</time></trkpt><trkpt lat="39.223251957589326" lon="8.69053359404065"><ele>494.0</ele><time>2026-04-10T09:23:22.001Z</time></trkpt><trkpt lat="39.22324926837826" lon="8.690414353264288"><ele>493.99999999999994</ele><time>2026-04-10T09:23:23.001Z</time></trkpt><trkpt lat="39.223247593451525" lon="8.690311302117502"><ele>494.0</ele><time>2026-04-10T09:23:24.001Z</time></trkpt><trkpt lat="39.22325304032569" lon="8.690229194304958"><ele>494.0</ele><time>2026-04-10T09:23:25.001Z</time></trkpt><trkpt lat="39.22324499720536" lon="8.690077459707782"><ele>494.0</ele><time>2026-04-10T09:23:27.001Z</time></trkpt><trkpt lat="39.22320574169079" lon="8.690005834661283"><ele>493.99999999999994</ele><time>2026-04-10T09:23:28.001Z</time></trkpt><trkpt lat="39.22311572744664" lon="8.689955759321055"><ele>494.0</ele><time>2026-04-10T09:23:29.001Z</time></trkpt><trkpt lat="39.223005079880934" lon="8.689916528769817"><ele>495.4</ele><time>2026-04-10T09:23:30.001Z</time></trkpt><trkpt lat="39.22287379003521" lon="8.689865917586335"><ele>496.79999999999995</ele><time>2026-04-10T09:23:31.001Z</time></trkpt><trkpt lat="39.22278755895564" lon="8.689851424474185"><ele>498.20000000000005</ele><time>2026-04-10T09:23:32.001Z</time></trkpt><trkpt lat="39.2226870831363" lon="8.689827786331358"><ele>499.6</ele><time>2026-04-10T09:23:33.001Z</time></trkpt><trkpt lat="39.2225782745152" lon="8.689782744269397"><ele>501.0</ele><time>2026-04-10T09:23:34.001Z</time></trkpt><trkpt lat="39.2224757490099" lon="8.689755714067841"><ele>501.0</ele><time>2026-04-10T09:23:35.001Z</time></trkpt><trkpt lat="39.22237710111549" lon="8.68974649458344"><ele>501.0</ele><time>2026-04-10T09:23:36.001Z</time></trkpt><trkpt lat="39.222286817562" lon="8.689757428548006"><ele>501.0</ele><time>2026-04-10T09:23:37.001Z</time></trkpt><trkpt lat="39.22219006993922" lon="8.689777336424068"><ele>501.0</ele><time>2026-04-10T09:23:38.001Z</time></trkpt><trkpt lat="39.222088561751875" lon="8.689820347421522"><ele>501.0</ele><time>2026-04-10T09:23:39.001Z</time></trkpt><trkpt lat="39.221996913969484" lon="8.689826802072208"><ele>500.20000000000005</ele><time>2026-04-10T09:23:40.001Z</time></trkpt><trkpt lat="39.221922849114605" lon="8.689853647279694"><ele>499.40000000000003</ele><time>2026-04-10T09:23:41.001Z</time></trkpt><trkpt lat="39.22183539054035" lon="8.689888848888529"><ele>498.6</ele><time>2026-04-10T09:23:42.001Z</time></trkpt><trkpt lat="39.221741651139354" lon="8.68991049019479"><ele>497.8</ele><time>2026-04-10T09:23:43.001Z</time></trkpt><trkpt lat="39.22165316896865" lon="8.689954731241627"><ele>497.0</ele><time>2026-04-10T09:23:44.001Z</time></trkpt><trkpt lat="39.22156457421498" lon="8.690002881065073"><ele>497.0</ele><time>2026-04-10T09:23:45.001Z</time></trkpt><trkpt lat="39.22149007238759" lon="8.690053734649226"><ele>497.00000000000006</ele><time>2026-04-10T09:23:46.002Z</time></trkpt><trkpt lat="39.22141918178059" lon="8.690120675275736"><ele>497.00000000000006</ele><time>2026-04-10T09:23:47.002Z</time></trkpt><trkpt lat="39.22134790620882" lon="8.690199782873144"><ele>497.0</ele><time>2026-04-10T09:23:48.002Z</time></trkpt><trkpt lat="39.221277906962335" lon="8.690288099481837"><ele>497.0</ele><time>2026-04-10T09:23:49.002Z</time></trkpt><trkpt lat="39.221218995688226" lon="8.690386788525329"><ele>499.16666666666663</ele><time>2026-04-10T09:23:50.002Z</time></trkpt><trkpt lat="39.22117060124363" lon="8.690494832031717"><ele>501.3333333333333</ele><time>2026-04-10T09:23:51.002Z</time></trkpt><trkpt lat="39.22113439000839" lon="8.690584822659327"><ele>503.5</ele><time>2026-04-10T09:23:52.002Z</time></trkpt><trkpt lat="39.22109906984107" lon="8.690656827290194"><ele>505.66666666666663</ele><time>2026-04-10T09:23:53.002Z</time></trkpt><trkpt lat="39.22105322862632" lon="8.690735104021458"><ele>507.8333333333333</ele><time>2026-04-10T09:23:54.002Z</time></trkpt><trkpt lat="39.22100779015137" lon="8.690798990330745"><ele>510.0</ele><time>2026-04-10T09:23:55.002Z</time></trkpt><trkpt lat="39.22091127331839" lon="8.690850983342703"><ele>510.0</ele><time>2026-04-10T09:23:57.002Z</time></trkpt><trkpt lat="39.22084835258106" lon="8.690752691345004"><ele>510.0</ele><time>2026-04-10T09:23:59.002Z</time></trkpt><trkpt lat="39.2207939335328" lon="8.690693239419184"><ele>510.0</ele><time>2026-04-10T09:24:00.002Z</time></trkpt><trkpt lat="39.220744531727" lon="8.690602070930266"><ele>510.0</ele><time>2026-04-10T09:24:01.002Z</time></trkpt><trkpt lat="39.22069667591206" lon="8.69049793582652"><ele>510.0</ele><time>2026-04-10T09:24:02.002Z</time></trkpt><trkpt lat="39.220627837402226" lon="8.690410194391152"><ele>510.0</ele><time>2026-04-10T09:24:03.002Z</time></trkpt><trkpt lat="39.22056052953729" lon="8.690331090382555"><ele>509.6</ele><time>2026-04-10T09:24:04.002Z</time></trkpt><trkpt lat="39.22051018492939" lon="8.690255510693932"><ele>509.2</ele><time>2026-04-10T09:24:05.002Z</time></trkpt><trkpt lat="39.220408076513266" lon="8.690154055394823"><ele>508.79999999999995</ele><time>2026-04-10T09:24:07.002Z</time></trkpt><trkpt lat="39.22032094733275" lon="8.690118437235116"><ele>508.4</ele><time>2026-04-10T09:24:08.002Z</time></trkpt><trkpt lat="39.22023861100296" lon="8.69008298771902"><ele>508.0</ele><time>2026-04-10T09:24:09.002Z</time></trkpt><trkpt lat="39.220171931291205" lon="8.690019908105956"><ele>508.00000000000006</ele><time>2026-04-10T09:24:10.002Z</time></trkpt><trkpt lat="39.220152317783345" lon="8.689926644138252"><ele>508.0</ele><time>2026-04-10T09:24:11.002Z</time></trkpt><trkpt lat="39.22010664730515" lon="8.689870056811058"><ele>508.0</ele><time>2026-04-10T09:24:12.002Z</time></trkpt><trkpt lat="39.22006428275552" lon="8.689801442424862"><ele>508.0</ele><time>2026-04-10T09:24:13.002Z</time></trkpt><trkpt lat="39.21996461979621" lon="8.689764740978706"><ele>508.00000000000006</ele><time>2026-04-10T09:24:14.002Z</time></trkpt><trkpt lat="39.219894816709186" lon="8.689711828429378"><ele>508.0</ele><time>2026-04-10T09:24:15.002Z</time></trkpt><trkpt lat="39.21982352754704" lon="8.689668955580524"><ele>509.0</ele><time>2026-04-10T09:24:16.002Z</time></trkpt><trkpt lat="39.219746248983334" lon="8.689614484817865"><ele>509.99999999999994</ele><time>2026-04-10T09:24:17.002Z</time></trkpt><trkpt lat="39.2196684497045" lon="8.689549819828649"><ele>510.99999999999994</ele><time>2026-04-10T09:24:18.002Z</time></trkpt><trkpt lat="39.219591692051104" lon="8.689468252884597"><ele>512.0</ele><time>2026-04-10T09:24:19.002Z</time></trkpt><trkpt lat="39.219524561884825" lon="8.6893804168805"><ele>513.0</ele><time>2026-04-10T09:24:20.002Z</time></trkpt><trkpt lat="39.219452601076746" lon="8.689304633332586"><ele>513.0</ele><time>2026-04-10T09:24:21.002Z</time></trkpt><trkpt lat="39.21940176994703" lon="8.689208452182948"><ele>513.0</ele><time>2026-04-10T09:24:22.002Z</time></trkpt><trkpt lat="39.21934160674222" lon="8.689106233965042"><ele>513.0</ele><time>2026-04-10T09:24:23.002Z</time></trkpt><trkpt lat="39.21928034871635" lon="8.68901043031736"><ele>513.0</ele><time>2026-04-10T09:24:24.002Z</time></trkpt><trkpt lat="39.219235550656734" lon="8.688920999845974"><ele>513.0</ele><time>2026-04-10T09:24:25.002Z</time></trkpt><trkpt lat="39.21919808794677" lon="8.688837927282732"><ele>513.0</ele><time>2026-04-10T09:24:26.002Z</time></trkpt><trkpt lat="39.21915777666855" lon="8.688756565025207"><ele>513.0</ele><time>2026-04-10T09:24:27.002Z</time></trkpt><trkpt lat="39.21910700138997" lon="8.688670050474034"><ele>513.0</ele><time>2026-04-10T09:24:28.002Z</time></trkpt><trkpt lat="39.21904669478423" lon="8.688572332510496"><ele>513.0</ele><time>2026-04-10T09:24:29.003Z</time></trkpt><trkpt lat="39.2189759318197" lon="8.68846023354372"><ele>513.0</ele><time>2026-04-10T09:24:30.003Z</time></trkpt><trkpt lat="39.21890567116427" lon="8.68834329793563"><ele>513.0</ele><time>2026-04-10T09:24:31.003Z</time></trkpt><trkpt lat="39.218844417073775" lon="8.688230743089694"><ele>516.1999999999999</ele><time>2026-04-10T09:24:32.003Z</time></trkpt><trkpt lat="39.21878997987072" lon="8.688118636730977"><ele>519.4</ele><time>2026-04-10T09:24:33.003Z</time></trkpt><trkpt lat="39.21873369312189" lon="8.688030243746896"><ele>522.5999999999999</ele><time>2026-04-10T09:24:34.003Z</time></trkpt><trkpt lat="39.21867702192672" lon="8.687944331434082"><ele>525.8</ele><time>2026-04-10T09:24:35.003Z</time></trkpt><trkpt lat="39.218602535223354" lon="8.687851447252763"><ele>529.0</ele><time>2026-04-10T09:24:36.003Z</time></trkpt><trkpt lat="39.218533573319846" lon="8.68776642868383"><ele>526.6</ele><time>2026-04-10T09:24:37.003Z</time></trkpt><trkpt lat="39.21848932899304" lon="8.687690740362207"><ele>524.2</ele><time>2026-04-10T09:24:38.003Z</time></trkpt><trkpt lat="39.21848002611721" lon="8.687594388741914"><ele>521.8000000000001</ele><time>2026-04-10T09:24:39.003Z</time></trkpt><trkpt lat="39.218498269745375" lon="8.687487873192278"><ele>519.4</ele><time>2026-04-10T09:24:40.003Z</time></trkpt><trkpt lat="39.21849668274476" lon="8.687352601719846"><ele>517.0</ele><time>2026-04-10T09:24:41.003Z</time></trkpt><trkpt lat="39.218504021409665" lon="8.687207855154595"><ele>517.0</ele><time>2026-04-10T09:24:42.003Z</time></trkpt><trkpt lat="39.21848144024799" lon="8.68708414450983"><ele>517.0</ele><time>2026-04-10T09:24:43.003Z</time></trkpt><trkpt lat="39.218451647383496" lon="8.686987052744326"><ele>517.0</ele><time>2026-04-10T09:24:44.003Z</time></trkpt><trkpt lat="39.2184056816012" lon="8.686910534915315"><ele>517.0</ele><time>2026-04-10T09:24:45.003Z</time></trkpt><trkpt lat="39.218343090868544" lon="8.686844969507877"><ele>517.0</ele><time>2026-04-10T09:24:46.003Z</time></trkpt><trkpt lat="39.21826538883677" lon="8.686796139757423"><ele>517.0</ele><time>2026-04-10T09:24:47.001Z</time></trkpt><trkpt lat="39.2182057711188" lon="8.686731568710565"><ele>516.4</ele><time>2026-04-10T09:24:48.001Z</time></trkpt><trkpt lat="39.2181741149952" lon="8.686656850177636"><ele>515.8000000000001</ele><time>2026-04-10T09:24:49.001Z</time></trkpt><trkpt lat="39.21818717330442" lon="8.68653137240451"><ele>515.2</ele><time>2026-04-10T09:24:50.001Z</time></trkpt><trkpt lat="39.21816472753328" lon="8.686396615460815"><ele>514.6</ele><time>2026-04-10T09:24:51.001Z</time></trkpt><trkpt lat="39.218157961142964" lon="8.68625468803259"><ele>514.0</ele><time>2026-04-10T09:24:52.001Z</time></trkpt><trkpt lat="39.21816635502111" lon="8.686123141238417"><ele>513.8</ele><time>2026-04-10T09:24:53.001Z</time></trkpt><trkpt lat="39.218172028625645" lon="8.686006879933709"><ele>513.5999999999999</ele><time>2026-04-10T09:24:54.001Z</time></trkpt><trkpt lat="39.21817386369859" lon="8.685881309028199"><ele>513.4</ele><time>2026-04-10T09:24:55.001Z</time></trkpt><trkpt lat="39.21815880665914" lon="8.685765858978279"><ele>513.1999999999999</ele><time>2026-04-10T09:24:56.001Z</time></trkpt><trkpt lat="39.21815352434503" lon="8.68564329830658"><ele>513.0</ele><time>2026-04-10T09:24:57.001Z</time></trkpt><trkpt lat="39.21815827626234" lon="8.685523146181854"><ele>513.0</ele><time>2026-04-10T09:24:58.001Z</time></trkpt><trkpt lat="39.218169265601524" lon="8.68541629593087"><ele>513.0</ele><time>2026-04-10T09:24:59.001Z</time></trkpt><trkpt lat="39.218201374700385" lon="8.68532482802495"><ele>513.0</ele><time>2026-04-10T09:25:00.001Z</time></trkpt><trkpt lat="39.21823827467899" lon="8.685218727365209"><ele>513.0</ele><time>2026-04-10T09:25:01.001Z</time></trkpt><trkpt lat="39.21827003331606" lon="8.685102164791047"><ele>513.0</ele><time>2026-04-10T09:25:02.001Z</time></trkpt><trkpt lat="39.218298118040494" lon="8.68498675779121"><ele>513.0</ele><time>2026-04-10T09:25:03.001Z</time></trkpt><trkpt lat="39.21832695573308" lon="8.684871489776716"><ele>513.8</ele><time>2026-04-10T09:25:04.001Z</time></trkpt><trkpt lat="39.21834646430457" lon="8.684764516399731"><ele>514.5999999999999</ele><time>2026-04-10T09:25:05.001Z</time></trkpt><trkpt lat="39.21835412734765" lon="8.684653807469541"><ele>515.4000000000001</ele><time>2026-04-10T09:25:06.001Z</time></trkpt><trkpt lat="39.21836212759015" lon="8.684537463777207"><ele>516.2</ele><time>2026-04-10T09:25:07.001Z</time></trkpt><trkpt lat="39.2183755062118" lon="8.684410957209119"><ele>517.0</ele><time>2026-04-10T09:25:08.001Z</time></trkpt><trkpt lat="39.21839273149445" lon="8.684287569532557"><ele>517.0</ele><time>2026-04-10T09:25:09.001Z</time></trkpt><trkpt lat="39.218399416957425" lon="8.684161165355569"><ele>517.0</ele><time>2026-04-10T09:25:10.001Z</time></trkpt><trkpt lat="39.218397071267" lon="8.68404384748473"><ele>517.0</ele><time>2026-04-10T09:25:11.001Z</time></trkpt><trkpt lat="39.21839660959087" lon="8.68391918644136"><ele>517.0</ele><time>2026-04-10T09:25:12.001Z</time></trkpt><trkpt lat="39.2184078090321" lon="8.683815454570407"><ele>517.0</ele><time>2026-04-10T09:25:13.001Z</time></trkpt><trkpt lat="39.21842656883267" lon="8.683716835634003"><ele>517.0</ele><time>2026-04-10T09:25:14.001Z</time></trkpt><trkpt lat="39.21844947806497" lon="8.683611296269413"><ele>516.2</ele><time>2026-04-10T09:25:15.001Z</time></trkpt><trkpt lat="39.21847455277523" lon="8.683497171574022"><ele>515.4000000000001</ele><time>2026-04-10T09:25:16.001Z</time></trkpt><trkpt lat="39.21849357668346" lon="8.683362597412618"><ele>514.5999999999999</ele><time>2026-04-10T09:25:17.001Z</time></trkpt><trkpt lat="39.218514410273045" lon="8.683215807657792"><ele>513.8</ele><time>2026-04-10T09:25:18.001Z</time></trkpt><trkpt lat="39.218528130891414" lon="8.683072147730963"><ele>513.0</ele><time>2026-04-10T09:25:19.001Z</time></trkpt><trkpt lat="39.21854268025654" lon="8.682925437859462"><ele>513.0</ele><time>2026-04-10T09:25:20.001Z</time></trkpt><trkpt lat="39.21855979403272" lon="8.682768723294659"><ele>513.0</ele><time>2026-04-10T09:25:21.001Z</time></trkpt><trkpt lat="39.218582494782986" lon="8.682608917568462"><ele>513.0</ele><time>2026-04-10T09:25:22.001Z</time></trkpt><trkpt lat="39.21859868773586" lon="8.682445683633834"><ele>513.0</ele><time>2026-04-10T09:25:23.001Z</time></trkpt><trkpt lat="39.21861923028643" lon="8.682282412929167"><ele>512.0</ele><time>2026-04-10T09:25:24.001Z</time></trkpt><trkpt lat="39.21863273327401" lon="8.682111191964518"><ele>511.0</ele><time>2026-04-10T09:25:25.001Z</time></trkpt><trkpt lat="39.218644381845124" lon="8.681933320329154"><ele>510.0</ele><time>2026-04-10T09:25:26.001Z</time></trkpt><trkpt lat="39.21866489759731" lon="8.681773148796568"><ele>509.0</ele><time>2026-04-10T09:25:27.001Z</time></trkpt><trkpt lat="39.21866737940205" lon="8.681633476930983"><ele>508.4</ele><time>2026-04-10T09:25:28.001Z</time></trkpt><trkpt lat="39.218689856476324" lon="8.681497733612995"><ele>507.79999999999995</ele><time>2026-04-10T09:25:29.001Z</time></trkpt><trkpt lat="39.21870546206654" lon="8.681380186412262"><ele>507.20000000000005</ele><time>2026-04-10T09:25:30.001Z</time></trkpt><trkpt lat="39.21874897627246" lon="8.68126853936014"><ele>506.6</ele><time>2026-04-10T09:25:31.001Z</time></trkpt><trkpt lat="39.21878553607702" lon="8.68119173692648"><ele>506.0</ele><time>2026-04-10T09:25:32.001Z</time></trkpt><trkpt lat="39.21883389143076" lon="8.681082554319957"><ele>506.0</ele><time>2026-04-10T09:25:33.001Z</time></trkpt><trkpt lat="39.21890315639156" lon="8.680988888034234"><ele>506.0</ele><time>2026-04-10T09:25:34.001Z</time></trkpt><trkpt lat="39.21898919191256" lon="8.680893500441043"><ele>506.0</ele><time>2026-04-10T09:25:35.001Z</time></trkpt><trkpt lat="39.219041599435485" lon="8.680805988117767"><ele>506.0</ele><time>2026-04-10T09:25:36.001Z</time></trkpt><trkpt lat="39.21909416209007" lon="8.680719759640157"><ele>506.0</ele><time>2026-04-10T09:25:37.001Z</time></trkpt><trkpt lat="39.219133314392764" lon="8.680643678754038"><ele>509.99999999999994</ele><time>2026-04-10T09:25:38.001Z</time></trkpt><trkpt lat="39.21916262719547" lon="8.680503178080455"><ele>514.0</ele><time>2026-04-10T09:25:40.001Z</time></trkpt><trkpt lat="39.219146860069266" lon="8.680418906177605"><ele>518.0</ele><time>2026-04-10T09:25:41.001Z</time></trkpt><trkpt lat="39.21913617796254" lon="8.680314588336113"><ele>522.0</ele><time>2026-04-10T09:25:42.001Z</time></trkpt><trkpt lat="39.21914190010132" lon="8.680219914915504"><ele>526.0</ele><time>2026-04-10T09:25:43.001Z</time></trkpt><trkpt lat="39.21916301872364" lon="8.680136639984948"><ele>530.0</ele><time>2026-04-10T09:25:44.001Z</time></trkpt><trkpt lat="39.21924624454077" lon="8.680017501152127"><ele>530.0</ele><time>2026-04-10T09:25:46.001Z</time></trkpt><trkpt lat="39.21931004508303" lon="8.67995891525281"><ele>530.0</ele><time>2026-04-10T09:25:47.001Z</time></trkpt><trkpt lat="39.21937539879508" lon="8.679882336485116"><ele>530.0</ele><time>2026-04-10T09:25:48.002Z</time></trkpt><trkpt lat="39.219421280381056" lon="8.679818537613201"><ele>530.0</ele><time>2026-04-10T09:25:49.002Z</time></trkpt><trkpt lat="39.21942567420213" lon="8.679685467044271"><ele>530.0</ele><time>2026-04-10T09:25:51.002Z</time></trkpt><trkpt lat="39.21940239404344" lon="8.679607587245718"><ele>530.0</ele><time>2026-04-10T09:25:52.002Z</time></trkpt><trkpt lat="39.219359419851216" lon="8.679522078272498"><ele>530.0</ele><time>2026-04-10T09:25:53.002Z</time></trkpt><trkpt lat="39.219312904059954" lon="8.679449329489124"><ele>530.0</ele><time>2026-04-10T09:25:54.002Z</time></trkpt><trkpt lat="39.2192531156206" lon="8.679381865339646"><ele>530.0</ele><time>2026-04-10T09:25:55.002Z</time></trkpt><trkpt lat="39.21918508407056" lon="8.679313493185385"><ele>530.0</ele><time>2026-04-10T09:25:56.002Z</time></trkpt><trkpt lat="39.21909366212348" lon="8.679311845521243"><ele>530.0</ele><time>2026-04-10T09:25:57.002Z</time></trkpt><trkpt lat="39.21900478748406" lon="8.679284915844317"><ele>530.0</ele><time>2026-04-10T09:25:58.002Z</time></trkpt><trkpt lat="39.21892514474532" lon="8.679281789595327"><ele>529.2</ele><time>2026-04-10T09:25:59.002Z</time></trkpt><trkpt lat="39.21882612500107" lon="8.679272680008701"><ele>528.4</ele><time>2026-04-10T09:26:01.002Z</time></trkpt><trkpt lat="39.218697489208814" lon="8.679222315577253"><ele>527.6</ele><time>2026-04-10T09:26:03.002Z</time></trkpt><trkpt lat="39.218628212006585" lon="8.679181802641994"><ele>526.8</ele><time>2026-04-10T09:26:04.002Z</time></trkpt><trkpt lat="39.21856993248132" lon="8.679138886365298"><ele>526.0</ele><time>2026-04-10T09:26:05.002Z</time></trkpt><trkpt lat="39.21850259004858" lon="8.679046788562726"><ele>526.0</ele><time>2026-04-10T09:26:07.002Z</time></trkpt><trkpt lat="39.21845562083484" lon="8.67897649751669"><ele>526.0</ele><time>2026-04-10T09:26:08.002Z</time></trkpt><trkpt lat="39.21841812213977" lon="8.678876984201201"><ele>526.0</ele><time>2026-04-10T09:26:09.002Z</time></trkpt><trkpt lat="39.218381940070664" lon="8.678778677418276"><ele>526.0</ele><time>2026-04-10T09:26:10.002Z</time></trkpt><trkpt lat="39.2183418193937" lon="8.678698542763135"><ele>526.0</ele><time>2026-04-10T09:26:11.002Z</time></trkpt><trkpt lat="39.21829275350135" lon="8.678568931733166"><ele>526.0</ele><time>2026-04-10T09:26:13.002Z</time></trkpt><trkpt lat="39.218252694112145" lon="8.678496795443861"><ele>526.3333333333334</ele><time>2026-04-10T09:26:15.002Z</time></trkpt><trkpt lat="39.218197647693295" lon="8.6784152400849"><ele>526.6666666666667</ele><time>2026-04-10T09:26:18.002Z</time></trkpt><trkpt lat="39.218169991338115" lon="8.678340633782854"><ele>527.0</ele><time>2026-04-10T09:26:22.002Z</time></trkpt><trkpt lat="39.218234407459754" lon="8.678280894515389"><ele>527.3333333333334</ele><time>2026-04-10T09:27:50.001Z</time></trkpt><trkpt lat="39.218310788081524" lon="8.67816030532371"><ele>527.6666666666666</ele><time>2026-04-10T09:27:52.001Z</time></trkpt><trkpt lat="39.21837951594048" lon="8.67809905400828"><ele>528.0</ele><time>2026-04-10T09:27:53.001Z</time></trkpt><trkpt lat="39.21844262424978" lon="8.678041409657913"><ele>528.0</ele><time>2026-04-10T09:27:54.001Z</time></trkpt><trkpt lat="39.21849344744587" lon="8.677986090646593"><ele>528.0</ele><time>2026-04-10T09:27:55.001Z</time></trkpt><trkpt lat="39.21856063090114" lon="8.677877785646288"><ele>528.0</ele><time>2026-04-10T09:27:57.001Z</time></trkpt><trkpt lat="39.21860776685546" lon="8.677798072922235"><ele>528.0</ele><time>2026-04-10T09:27:58.001Z</time></trkpt><trkpt lat="39.21866439728399" lon="8.677666743316033"><ele>528.0</ele><time>2026-04-10T09:27:59.001Z</time></trkpt><trkpt lat="39.218707873552304" lon="8.67754764569705"><ele>526.0</ele><time>2026-04-10T09:28:00.002Z</time></trkpt><trkpt lat="39.21873381932595" lon="8.677422276197653"><ele>524.0</ele><time>2026-04-10T09:28:01.002Z</time></trkpt><trkpt lat="39.218747124357556" lon="8.677266644567359"><ele>522.0</ele><time>2026-04-10T09:28:02.002Z</time></trkpt><trkpt lat="39.21875625359562" lon="8.677079337154762"><ele>520.0</ele><time>2026-04-10T09:28:03.002Z</time></trkpt><trkpt lat="39.218769841620905" lon="8.676894114758277"><ele>519.0</ele><time>2026-04-10T09:28:04.002Z</time></trkpt><trkpt lat="39.218780514834485" lon="8.67673497187093"><ele>518.0</ele><time>2026-04-10T09:28:05.002Z</time></trkpt><trkpt lat="39.21879489964907" lon="8.676605592877783"><ele>517.0</ele><time>2026-04-10T09:28:06.002Z</time></trkpt><trkpt lat="39.2188084194087" lon="8.676519105270517"><ele>516.0</ele><time>2026-04-10T09:28:07.002Z</time></trkpt><trkpt lat="39.21883864311132" lon="8.676423351686065"><ele>515.0</ele><time>2026-04-10T09:28:08.002Z</time></trkpt><trkpt lat="39.21892185074137" lon="8.676312549493824"><ele>518.0</ele><time>2026-04-10T09:28:09.002Z</time></trkpt><trkpt lat="39.21898544447261" lon="8.676136436980611"><ele>521.0</ele><time>2026-04-10T09:28:10.002Z</time></trkpt><trkpt lat="39.2190460974746" lon="8.675986365985649"><ele>524.0</ele><time>2026-04-10T09:28:11.002Z</time></trkpt><trkpt lat="39.21908838587983" lon="8.675830787980818"><ele>527.0</ele><time>2026-04-10T09:28:12.002Z</time></trkpt><trkpt lat="39.219123379034585" lon="8.675652425002607"><ele>527.0</ele><time>2026-04-10T09:28:13.002Z</time></trkpt><trkpt lat="39.21916194279303" lon="8.675486743172957"><ele>527.0</ele><time>2026-04-10T09:28:14.002Z</time></trkpt><trkpt lat="39.21924306939545" lon="8.675343167219497"><ele>527.0</ele><time>2026-04-10T09:28:15.002Z</time></trkpt><trkpt lat="39.219328737306405" lon="8.67517626925331"><ele>527.0</ele><time>2026-04-10T09:28:16.002Z</time></trkpt><trkpt lat="39.21940323746774" lon="8.675017284699873"><ele>524.0</ele><time>2026-04-10T09:28:17.002Z</time></trkpt><trkpt lat="39.21948649436743" lon="8.674887825456508"><ele>521.0</ele><time>2026-04-10T09:28:18.002Z</time></trkpt><trkpt lat="39.21957148444686" lon="8.674778587961539"><ele>518.0</ele><time>2026-04-10T09:28:19.002Z</time></trkpt><trkpt lat="39.219683383057244" lon="8.674711241090934"><ele>515.0</ele><time>2026-04-10T09:28:20.002Z</time></trkpt><trkpt lat="39.21976792101963" lon="8.674594567555033"><ele>516.2</ele><time>2026-04-10T09:28:21.002Z</time></trkpt><trkpt lat="39.2198549529809" lon="8.67450046534944"><ele>517.4</ele><time>2026-04-10T09:28:22.002Z</time></trkpt><trkpt lat="39.21993290360344" lon="8.674420415767026"><ele>518.6</ele><time>2026-04-10T09:28:23.002Z</time></trkpt><trkpt lat="39.220017006518546" lon="8.674352406101095"><ele>519.8</ele><time>2026-04-10T09:28:24.002Z</time></trkpt><trkpt lat="39.220093047546946" lon="8.674318746500244"><ele>521.0</ele><time>2026-04-10T09:28:25.002Z</time></trkpt><trkpt lat="39.22016666628849" lon="8.674196348633718"><ele>521.0</ele><time>2026-04-10T09:28:27.002Z</time></trkpt><trkpt lat="39.22021746158073" lon="8.67410410154654"><ele>521.0</ele><time>2026-04-10T09:28:28.002Z</time></trkpt><trkpt lat="39.220263411491764" lon="8.674011226504547"><ele>521.0</ele><time>2026-04-10T09:28:29.002Z</time></trkpt><trkpt lat="39.22031821105168" lon="8.673917303300083"><ele>521.0</ele><time>2026-04-10T09:28:30.002Z</time></trkpt><trkpt lat="39.22039996460469" lon="8.67385980256202"><ele>521.0</ele><time>2026-04-10T09:28:31.002Z</time></trkpt><trkpt lat="39.22048352182599" lon="8.673775778513846"><ele>521.0</ele><time>2026-04-10T09:28:32.002Z</time></trkpt><trkpt lat="39.22055465323616" lon="8.67366474710948"><ele>521.0</ele><time>2026-04-10T09:28:33.002Z</time></trkpt><trkpt lat="39.220638344883476" lon="8.673565660246974"><ele>521.0</ele><time>2026-04-10T09:28:34.002Z</time></trkpt><trkpt lat="39.22070326425601" lon="8.67348491818128"><ele>521.0</ele><time>2026-04-10T09:28:35.002Z</time></trkpt><trkpt lat="39.22075473780195" lon="8.673383165613343"><ele>521.0</ele><time>2026-04-10T09:28:36.002Z</time></trkpt><trkpt lat="39.22078804524151" lon="8.673292875706856"><ele>521.6</ele><time>2026-04-10T09:28:37.002Z</time></trkpt><trkpt lat="39.220765339630205" lon="8.67314442094908"><ele>522.2</ele><time>2026-04-10T09:28:39.002Z</time></trkpt><trkpt lat="39.22070704299634" lon="8.67303887393892"><ele>522.8</ele><time>2026-04-10T09:28:40.002Z</time></trkpt><trkpt lat="39.22064591170398" lon="8.672922474859298"><ele>523.4</ele><time>2026-04-10T09:28:41.002Z</time></trkpt><trkpt lat="39.22061098149354" lon="8.672829961655633"><ele>524.0</ele><time>2026-04-10T09:28:42.002Z</time></trkpt><trkpt lat="39.22065445218509" lon="8.672663946140634"><ele>524.0</ele><time>2026-04-10T09:28:44.002Z</time></trkpt><trkpt lat="39.220716878856905" lon="8.67250826307036"><ele>524.0</ele><time>2026-04-10T09:28:45.002Z</time></trkpt><trkpt lat="39.22076670925411" lon="8.672347864008321"><ele>524.0</ele><time>2026-04-10T09:28:46.002Z</time></trkpt><trkpt lat="39.22080865084855" lon="8.672197734072817"><ele>524.0</ele><time>2026-04-10T09:28:47.002Z</time></trkpt><trkpt lat="39.22084035214233" lon="8.67208531185573"><ele>524.0</ele><time>2026-04-10T09:28:48.002Z</time></trkpt><trkpt lat="39.22085321095978" lon="8.672000270573378"><ele>524.0</ele><time>2026-04-10T09:28:49.002Z</time></trkpt><trkpt lat="39.22085202895552" lon="8.671905606000696"><ele>524.0</ele><time>2026-04-10T09:28:50.002Z</time></trkpt><trkpt lat="39.22083352979686" lon="8.671782561083436"><ele>524.0</ele><time>2026-04-10T09:28:51.002Z</time></trkpt><trkpt lat="39.220780953220775" lon="8.671632965647026"><ele>524.0</ele><time>2026-04-10T09:28:52.002Z</time></trkpt><trkpt lat="39.220757836387826" lon="8.671487007050583"><ele>524.0</ele><time>2026-04-10T09:28:53.002Z</time></trkpt><trkpt lat="39.2207735940177" lon="8.671355964252228"><ele>524.0</ele><time>2026-04-10T09:28:54.002Z</time></trkpt><trkpt lat="39.220781535212055" lon="8.67124707547896"><ele>524.0</ele><time>2026-04-10T09:28:55.002Z</time></trkpt><trkpt lat="39.22082917894103" lon="8.671124121068448"><ele>524.0</ele><time>2026-04-10T09:28:56.002Z</time></trkpt><trkpt lat="39.2208838803551" lon="8.671001402227388"><ele>524.0</ele><time>2026-04-10T09:28:57.002Z</time></trkpt><trkpt lat="39.220957385981244" lon="8.6708613490016"><ele>525.6</ele><time>2026-04-10T09:28:58.003Z</time></trkpt><trkpt lat="39.22103789978583" lon="8.670722553451347"><ele>527.2</ele><time>2026-04-10T09:28:59.001Z</time></trkpt><trkpt lat="39.22109804020185" lon="8.670608978901635"><ele>528.8000000000001</ele><time>2026-04-10T09:29:00.001Z</time></trkpt><trkpt lat="39.221129481327544" lon="8.670501365510209"><ele>530.4</ele><time>2026-04-10T09:29:01.001Z</time></trkpt><trkpt lat="39.22117010578706" lon="8.67037176561801"><ele>532.0</ele><time>2026-04-10T09:29:02.001Z</time></trkpt><trkpt lat="39.221202000658195" lon="8.67025928867194"><ele>533.8000000000001</ele><time>2026-04-10T09:29:03.001Z</time></trkpt><trkpt lat="39.22122302866747" lon="8.670149698020168"><ele>535.6</ele><time>2026-04-10T09:29:04.001Z</time></trkpt><trkpt lat="39.22121827914478" lon="8.670031166184929"><ele>537.4000000000001</ele><time>2026-04-10T09:29:05.001Z</time></trkpt><trkpt lat="39.22120601566144" lon="8.669902382775236"><ele>539.2</ele><time>2026-04-10T09:29:06.001Z</time></trkpt><trkpt lat="39.22121080167613" lon="8.669773233531005"><ele>541.0</ele><time>2026-04-10T09:29:07.001Z</time></trkpt><trkpt lat="39.22120069474061" lon="8.669635845406415"><ele>541.0</ele><time>2026-04-10T09:29:08.001Z</time></trkpt><trkpt lat="39.22119504463777" lon="8.669499008613986"><ele>541.0</ele><time>2026-04-10T09:29:09.001Z</time></trkpt><trkpt lat="39.22120725662952" lon="8.669363985362661"><ele>541.0</ele><time>2026-04-10T09:29:10.001Z</time></trkpt><trkpt lat="39.221241304181376" lon="8.66925763674456"><ele>541.0</ele><time>2026-04-10T09:29:11.001Z</time></trkpt><trkpt lat="39.2212489192879" lon="8.66910591696582"><ele>541.0</ele><time>2026-04-10T09:29:13.001Z</time></trkpt><trkpt lat="39.22122617577513" lon="8.669009360848417"><ele>540.8333333333334</ele><time>2026-04-10T09:29:14.001Z</time></trkpt><trkpt lat="39.22119083201345" lon="8.668918594316906"><ele>540.6666666666667</ele><time>2026-04-10T09:29:15.001Z</time></trkpt><trkpt lat="39.22115008193401" lon="8.668840654757217"><ele>540.5</ele><time>2026-04-10T09:29:16.001Z</time></trkpt><trkpt lat="39.221099079025656" lon="8.668754123005163"><ele>540.3333333333334</ele><time>2026-04-10T09:29:17.001Z</time></trkpt><trkpt lat="39.221068663030984" lon="8.668645227523761"><ele>540.1666666666666</ele><time>2026-04-10T09:29:18.001Z</time></trkpt><trkpt lat="39.221015852913915" lon="8.668544258890988"><ele>540.0</ele><time>2026-04-10T09:29:19.001Z</time></trkpt><trkpt lat="39.22097768145554" lon="8.668430066780802"><ele>538.8</ele><time>2026-04-10T09:29:20.001Z</time></trkpt><trkpt lat="39.220940168168056" lon="8.668306674034433"><ele>537.6</ele><time>2026-04-10T09:29:21.001Z</time></trkpt><trkpt lat="39.22091540236946" lon="8.668183920368504"><ele>536.4</ele><time>2026-04-10T09:29:22.001Z</time></trkpt><trkpt lat="39.22085271365734" lon="8.668070663406052"><ele>535.2</ele><time>2026-04-10T09:29:23.001Z</time></trkpt><trkpt lat="39.22079576117477" lon="8.66797373039649"><ele>534.0</ele><time>2026-04-10T09:29:24.001Z</time></trkpt><trkpt lat="39.220736853333115" lon="8.667888943910695"><ele>534.0</ele><time>2026-04-10T09:29:25.001Z</time></trkpt><trkpt lat="39.22068384922756" lon="8.667821463997102"><ele>534.0</ele><time>2026-04-10T09:29:26.001Z</time></trkpt><trkpt lat="39.22060760104667" lon="8.667713271302366"><ele>534.0</ele><time>2026-04-10T09:29:28.001Z</time></trkpt><trkpt lat="39.22060780019342" lon="8.667620501794401"><ele>534.0</ele><time>2026-04-10T09:29:30.001Z</time></trkpt><trkpt lat="39.22068684459639" lon="8.66753319251318"><ele>534.0</ele><time>2026-04-10T09:29:32.001Z</time></trkpt><trkpt lat="39.22076566608998" lon="8.667480977055481"><ele>534.0</ele><time>2026-04-10T09:29:46.001Z</time></trkpt><trkpt lat="39.22087110800848" lon="8.667457570044116"><ele>534.0</ele><time>2026-04-10T09:29:48.001Z</time></trkpt><trkpt lat="39.22099294105508" lon="8.667444316533944"><ele>534.0</ele><time>2026-04-10T09:29:50.001Z</time></trkpt><trkpt lat="39.22106996662707" lon="8.667443818872812"><ele>534.0</ele><time>2026-04-10T09:29:51.001Z</time></trkpt><trkpt lat="39.22114270696219" lon="8.667457836768355"><ele>534.0</ele><time>2026-04-10T09:29:52.001Z</time></trkpt><trkpt lat="39.221209127569736" lon="8.667381063317032"><ele>534.0</ele><time>2026-04-10T09:29:53.001Z</time></trkpt><trkpt lat="39.22127649755855" lon="8.667298340900656"><ele>534.0</ele><time>2026-04-10T09:29:54.001Z</time></trkpt><trkpt lat="39.22134320467407" lon="8.667204118956306"><ele>534.0</ele><time>2026-04-10T09:29:55.001Z</time></trkpt><trkpt lat="39.22140499216949" lon="8.667131327526656"><ele>534.0</ele><time>2026-04-10T09:29:56.001Z</time></trkpt><trkpt lat="39.22147538359904" lon="8.66709805182622"><ele>534.0</ele><time>2026-04-10T09:29:57.001Z</time></trkpt><trkpt lat="39.221553912442786" lon="8.667095963154342"><ele>534.0</ele><time>2026-04-10T09:29:58.001Z</time></trkpt><trkpt lat="39.221625147852244" lon="8.667126330563685"><ele>533.3333333333334</ele><time>2026-04-10T09:29:59.001Z</time></trkpt><trkpt lat="39.22166526342569" lon="8.667212011159753"><ele>532.6666666666666</ele><time>2026-04-10T09:30:00.001Z</time></trkpt><trkpt lat="39.221728736933294" lon="8.66732169228884"><ele>532.0</ele><time>2026-04-10T09:30:01.001Z</time></trkpt><trkpt lat="39.22178459469655" lon="8.667427977941344"><ele>531.3333333333333</ele><time>2026-04-10T09:30:02.001Z</time></trkpt><trkpt lat="39.22183739675828" lon="8.667499525945557"><ele>530.6666666666666</ele><time>2026-04-10T09:30:03.001Z</time></trkpt><trkpt lat="39.2219201867547" lon="8.667532224584095"><ele>530.0</ele><time>2026-04-10T09:30:04.001Z</time></trkpt><trkpt lat="39.22201349957435" lon="8.667533007772267"><ele>530.0</ele><time>2026-04-10T09:30:05.001Z</time></trkpt><trkpt lat="39.22210847365998" lon="8.667540003070798"><ele>530.0</ele><time>2026-04-10T09:30:06.001Z</time></trkpt><trkpt lat="39.22220345658191" lon="8.66751372800484"><ele>530.0</ele><time>2026-04-10T09:30:07.001Z</time></trkpt><trkpt lat="39.22229817864063" lon="8.667461722979498"><ele>530.0</ele><time>2026-04-10T09:30:08.001Z</time></trkpt><trkpt lat="39.22238438515885" lon="8.667386483479113"><ele>530.0</ele><time>2026-04-10T09:30:09.001Z</time></trkpt><trkpt lat="39.22246478858558" lon="8.667281714715438"><ele>529.6</ele><time>2026-04-10T09:30:10.001Z</time></trkpt><trkpt lat="39.22255868494028" lon="8.667162223747113"><ele>529.2</ele><time>2026-04-10T09:30:11.001Z</time></trkpt><trkpt lat="39.22264157995234" lon="8.667080728361489"><ele>528.8</ele><time>2026-04-10T09:30:12.001Z</time></trkpt><trkpt lat="39.222736424771924" lon="8.6670584509518"><ele>528.4</ele><time>2026-04-10T09:30:13.001Z</time></trkpt><trkpt lat="39.22283375697004" lon="8.667061866618885"><ele>528.0</ele><time>2026-04-10T09:30:14.001Z</time></trkpt><trkpt lat="39.22294420838012" lon="8.667062854751896"><ele>528.0</ele><time>2026-04-10T09:30:15.001Z</time></trkpt><trkpt lat="39.22304633355168" lon="8.667043200107834"><ele>528.0</ele><time>2026-04-10T09:30:16.001Z</time></trkpt><trkpt lat="39.223144909161356" lon="8.66701492452142"><ele>528.0</ele><time>2026-04-10T09:30:17.001Z</time></trkpt><trkpt lat="39.223242645712894" lon="8.666950976901127"><ele>528.0</ele><time>2026-04-10T09:30:18.001Z</time></trkpt><trkpt lat="39.22335714529731" lon="8.666853444385646"><ele>530.0</ele><time>2026-04-10T09:30:19.001Z</time></trkpt><trkpt lat="39.22345516901457" lon="8.666739566754964"><ele>532.0</ele><time>2026-04-10T09:30:20.001Z</time></trkpt><trkpt lat="39.22354874034312" lon="8.666614147151927"><ele>534.0</ele><time>2026-04-10T09:30:21.001Z</time></trkpt><trkpt lat="39.22364420477651" lon="8.666480357123083"><ele>536.0</ele><time>2026-04-10T09:30:22.001Z</time></trkpt><trkpt lat="39.22374445206591" lon="8.666344024530167"><ele>536.0</ele><time>2026-04-10T09:30:23.001Z</time></trkpt><trkpt lat="39.223826656770306" lon="8.66622061372018"><ele>536.0</ele><time>2026-04-10T09:30:24.002Z</time></trkpt><trkpt lat="39.223899226361496" lon="8.666124644525064"><ele>536.0</ele><time>2026-04-10T09:30:25.002Z</time></trkpt><trkpt lat="39.22395460992825" lon="8.666057804316194"><ele>536.0</ele><time>2026-04-10T09:30:26.002Z</time></trkpt><trkpt lat="39.22402023630543" lon="8.666014199527325"><ele>536.0</ele><time>2026-04-10T09:30:27.002Z</time></trkpt><trkpt lat="39.224089366273496" lon="8.666017876159055"><ele>536.0</ele><time>2026-04-10T09:30:28.002Z</time></trkpt><trkpt lat="39.22418188988512" lon="8.666027859336104"><ele>538.25</ele><time>2026-04-10T09:30:29.002Z</time></trkpt><trkpt lat="39.22428630335325" lon="8.666009397052854"><ele>540.5</ele><time>2026-04-10T09:30:30.002Z</time></trkpt><trkpt lat="39.22441538629169" lon="8.665967046366992"><ele>542.75</ele><time>2026-04-10T09:30:31.002Z</time></trkpt><trkpt lat="39.22453982221571" lon="8.665938084195135"><ele>545.0</ele><time>2026-04-10T09:30:32.002Z</time></trkpt><trkpt lat="39.224657373961946" lon="8.665942808352776"><ele>545.0</ele><time>2026-04-10T09:30:33.002Z</time></trkpt><trkpt lat="39.22476392036263" lon="8.666004111955719"><ele>545.0</ele><time>2026-04-10T09:30:34.002Z</time></trkpt><trkpt lat="39.22485604101575" lon="8.666074575830255"><ele>545.0</ele><time>2026-04-10T09:30:35.002Z</time></trkpt><trkpt lat="39.22495141435037" lon="8.666169133448415"><ele>545.0</ele><time>2026-04-10T09:30:36.002Z</time></trkpt><trkpt lat="39.22504753906851" lon="8.666294546297895"><ele>541.0</ele><time>2026-04-10T09:30:37.002Z</time></trkpt><trkpt lat="39.22514178519933" lon="8.66644244943928"><ele>537.0</ele><time>2026-04-10T09:30:38.002Z</time></trkpt><trkpt lat="39.225222964881986" lon="8.6665811922793"><ele>533.0</ele><time>2026-04-10T09:30:39.002Z</time></trkpt><trkpt lat="39.225301118897136" lon="8.666684898251333"><ele>529.0</ele><time>2026-04-10T09:30:40.002Z</time></trkpt><trkpt lat="39.22537918517923" lon="8.666762233410084"><ele>529.0</ele><time>2026-04-10T09:30:41.002Z</time></trkpt><trkpt lat="39.225489770528824" lon="8.66680680195363"><ele>529.0</ele><time>2026-04-10T09:30:42.002Z</time></trkpt><trkpt lat="39.2256215726142" lon="8.666893875852862"><ele>529.0</ele><time>2026-04-10T09:30:43.002Z</time></trkpt><trkpt lat="39.22571512347207" lon="8.666999961112483"><ele>529.0</ele><time>2026-04-10T09:30:44.002Z</time></trkpt><trkpt lat="39.22579689200693" lon="8.667053493991917"><ele>528.8</ele><time>2026-04-10T09:30:45.002Z</time></trkpt><trkpt lat="39.2258783785093" lon="8.66705900628296"><ele>528.5999999999999</ele><time>2026-04-10T09:30:46.002Z</time></trkpt><trkpt lat="39.225967137606546" lon="8.667044343091188"><ele>528.4</ele><time>2026-04-10T09:30:47.002Z</time></trkpt><trkpt lat="39.226070442433105" lon="8.666977415193198"><ele>528.1999999999999</ele><time>2026-04-10T09:30:48.002Z</time></trkpt><trkpt lat="39.22621837523431" lon="8.666958416002588"><ele>528.0</ele><time>2026-04-10T09:30:49.002Z</time></trkpt><trkpt lat="39.22634062883438" lon="8.66692925159854"><ele>528.8</ele><time>2026-04-10T09:30:50.002Z</time></trkpt><trkpt lat="39.22644011587539" lon="8.666867983095997"><ele>529.5999999999999</ele><time>2026-04-10T09:30:51.002Z</time></trkpt><trkpt lat="39.226543428964455" lon="8.666828233882695"><ele>530.4000000000001</ele><time>2026-04-10T09:30:52.002Z</time></trkpt><trkpt lat="39.226636941368746" lon="8.666806516713255"><ele>531.2</ele><time>2026-04-10T09:30:53.002Z</time></trkpt><trkpt lat="39.226716949987235" lon="8.666798910177569"><ele>532.0</ele><time>2026-04-10T09:30:54.002Z</time></trkpt><trkpt lat="39.22680687158444" lon="8.666792969614262"><ele>532.0</ele><time>2026-04-10T09:30:55.002Z</time></trkpt><trkpt lat="39.226892821881705" lon="8.666797891244407"><ele>532.0</ele><time>2026-04-10T09:30:56.002Z</time></trkpt><trkpt lat="39.226971718593255" lon="8.666818151034633"><ele>532.0</ele><time>2026-04-10T09:30:57.002Z</time></trkpt><trkpt lat="39.22702718353234" lon="8.666857608392544"><ele>532.0</ele><time>2026-04-10T09:30:58.002Z</time></trkpt><trkpt lat="39.227056437031536" lon="8.666932634278238"><ele>532.0</ele><time>2026-04-10T09:30:59.002Z</time></trkpt><trkpt lat="39.22713732231814" lon="8.667081244938045"><ele>532.0</ele><time>2026-04-10T09:31:01.002Z</time></trkpt><trkpt lat="39.22719607338754" lon="8.667184999842956"><ele>533.4</ele><time>2026-04-10T09:31:02.002Z</time></trkpt><trkpt lat="39.22725071087249" lon="8.667264276965883"><ele>534.8000000000001</ele><time>2026-04-10T09:31:03.002Z</time></trkpt><trkpt lat="39.22732081773937" lon="8.667322671930206"><ele>536.2</ele><time>2026-04-10T09:31:04.002Z</time></trkpt><trkpt lat="39.22741003396968" lon="8.667385091560709"><ele>537.6</ele><time>2026-04-10T09:31:06.001Z</time></trkpt><trkpt lat="39.22752597955042" lon="8.66733919657698"><ele>539.0</ele><time>2026-04-10T09:31:08.001Z</time></trkpt><trkpt lat="39.22757672512713" lon="8.66723385647568"><ele>539.0</ele><time>2026-04-10T09:31:09.001Z</time></trkpt><trkpt lat="39.227634463441206" lon="8.667126534485744"><ele>539.0</ele><time>2026-04-10T09:31:10.001Z</time></trkpt><trkpt lat="39.22769394695996" lon="8.667035237084404"><ele>539.0</ele><time>2026-04-10T09:31:11.001Z</time></trkpt><trkpt lat="39.227767142190835" lon="8.666989753955656"><ele>539.0</ele><time>2026-04-10T09:31:12.001Z</time></trkpt><trkpt lat="39.22783940740686" lon="8.666947481752425"><ele>539.0</ele><time>2026-04-10T09:31:13.001Z</time></trkpt><trkpt lat="39.22793379094979" lon="8.666868638782162"><ele>539.75</ele><time>2026-04-10T09:31:14.001Z</time></trkpt><trkpt lat="39.22804153519518" lon="8.666815862101165"><ele>540.5</ele><time>2026-04-10T09:31:15.001Z</time></trkpt><trkpt lat="39.228189362405956" lon="8.666786216694534"><ele>541.25</ele><time>2026-04-10T09:31:16.001Z</time></trkpt><trkpt lat="39.22834545251394" lon="8.666693533658847"><ele>542.0</ele><time>2026-04-10T09:31:17.001Z</time></trkpt><trkpt lat="39.228502403856275" lon="8.666600166804981"><ele>542.0</ele><time>2026-04-10T09:31:18.001Z</time></trkpt><trkpt lat="39.22864316534243" lon="8.666489911788144"><ele>542.0</ele><time>2026-04-10T09:31:19.001Z</time></trkpt><trkpt lat="39.22878472345678" lon="8.666344706701505"><ele>542.0</ele><time>2026-04-10T09:31:20.001Z</time></trkpt><trkpt lat="39.22895564371006" lon="8.666165814305044"><ele>538.6666666666666</ele><time>2026-04-10T09:31:21.001Z</time></trkpt><trkpt lat="39.2291167321129" lon="8.665999336396492"><ele>535.3333333333334</ele><time>2026-04-10T09:31:22.001Z</time></trkpt><trkpt lat="39.229260477551456" lon="8.665893017841261"><ele>532.0</ele><time>2026-04-10T09:31:23.001Z</time></trkpt><trkpt lat="39.229375717153815" lon="8.665788963073004"><ele>532.0</ele><time>2026-04-10T09:31:24.001Z</time></trkpt><trkpt lat="39.229450244082635" lon="8.665650137703713"><ele>532.0</ele><time>2026-04-10T09:31:25.001Z</time></trkpt><trkpt lat="39.229537187967814" lon="8.665534124044123"><ele>532.0</ele><time>2026-04-10T09:31:26.001Z</time></trkpt><trkpt lat="39.22962409000429" lon="8.665457189537763"><ele>532.0</ele><time>2026-04-10T09:31:27.001Z</time></trkpt><trkpt lat="39.22975056942667" lon="8.665429367947924"><ele>531.5</ele><time>2026-04-10T09:31:28.001Z</time></trkpt><trkpt lat="39.22989382638866" lon="8.665359992683923"><ele>531.0</ele><time>2026-04-10T09:31:29.001Z</time></trkpt><trkpt lat="39.22999218699529" lon="8.665264680124825"><ele>530.5</ele><time>2026-04-10T09:31:30.001Z</time></trkpt><trkpt lat="39.23009815435358" lon="8.66517114012388"><ele>530.0</ele><time>2026-04-10T09:31:31.001Z</time></trkpt><trkpt lat="39.230187869451534" lon="8.665118092694108"><ele>530.0</ele><time>2026-04-10T09:31:32.001Z</time></trkpt><trkpt lat="39.230258766547486" lon="8.665114384637958"><ele>530.0</ele><time>2026-04-10T09:31:33.001Z</time></trkpt><trkpt lat="39.230330545662525" lon="8.665190009588464"><ele>530.0</ele><time>2026-04-10T09:31:34.001Z</time></trkpt><trkpt lat="39.23040788373725" lon="8.665187906278298"><ele>530.0</ele><time>2026-04-10T09:31:35.001Z</time></trkpt><trkpt lat="39.23048067841276" lon="8.665168200659775"><ele>530.0</ele><time>2026-04-10T09:31:36.001Z</time></trkpt><trkpt lat="39.23054983469208" lon="8.665106901354225"><ele>530.0</ele><time>2026-04-10T09:31:37.001Z</time></trkpt><trkpt lat="39.23061565035173" lon="8.665015041936078"><ele>529.25</ele><time>2026-04-10T09:31:38.001Z</time></trkpt><trkpt lat="39.23067160059457" lon="8.664890092802205"><ele>528.5</ele><time>2026-04-10T09:31:39.001Z</time></trkpt><trkpt lat="39.2307423742486" lon="8.664731885512202"><ele>527.75</ele><time>2026-04-10T09:31:40.001Z</time></trkpt><trkpt lat="39.230819735785495" lon="8.664539854078077"><ele>527.0</ele><time>2026-04-10T09:31:41.001Z</time></trkpt><trkpt lat="39.230895082783036" lon="8.66433621572641"><ele>527.0</ele><time>2026-04-10T09:31:42.001Z</time></trkpt><trkpt lat="39.23098046084147" lon="8.664145136274158"><ele>527.0</ele><time>2026-04-10T09:31:43.001Z</time></trkpt><trkpt lat="39.23106339354897" lon="8.664016876660664"><ele>527.0</ele><time>2026-04-10T09:31:44.001Z</time></trkpt><trkpt lat="39.23113722624677" lon="8.6639111497313"><ele>527.0</ele><time>2026-04-10T09:31:45.001Z</time></trkpt><trkpt lat="39.231215181768" lon="8.663823626375414"><ele>527.0</ele><time>2026-04-10T09:31:46.001Z</time></trkpt><trkpt lat="39.23128436364378" lon="8.663721053870958"><ele>527.0</ele><time>2026-04-10T09:31:47.001Z</time></trkpt><trkpt lat="39.231336403050975" lon="8.66361210757158"><ele>527.0</ele><time>2026-04-10T09:31:48.001Z</time></trkpt><trkpt lat="39.23135859134237" lon="8.66350036953149"><ele>527.0</ele><time>2026-04-10T09:31:49.001Z</time></trkpt><trkpt lat="39.23137150321331" lon="8.663378186785165"><ele>527.0</ele><time>2026-04-10T09:31:50.001Z</time></trkpt><trkpt lat="39.231356407776524" lon="8.66326070373163"><ele>526.8333333333333</ele><time>2026-04-10T09:31:51.001Z</time></trkpt><trkpt lat="39.231332903027734" lon="8.663167457521014"><ele>526.6666666666666</ele><time>2026-04-10T09:31:52.001Z</time></trkpt><trkpt lat="39.23130118393568" lon="8.663094618019768"><ele>526.5</ele><time>2026-04-10T09:31:53.001Z</time></trkpt><trkpt lat="39.231234191269664" lon="8.662976401747413"><ele>526.3333333333334</ele><time>2026-04-10T09:31:55.001Z</time></trkpt><trkpt lat="39.231207821010535" lon="8.662872360410288"><ele>526.1666666666667</ele><time>2026-04-10T09:31:57.001Z</time></trkpt><trkpt lat="39.23124539881767" lon="8.662790353641034"><ele>526.0</ele><time>2026-04-10T09:32:00.001Z</time></trkpt><trkpt lat="39.23133855861581" lon="8.662744652314007"><ele>526.0</ele><time>2026-04-10T09:32:02.001Z</time></trkpt><trkpt lat="39.231443655764" lon="8.662796303956268"><ele>526.0</ele><time>2026-04-10T09:32:04.001Z</time></trkpt><trkpt lat="39.23154586495198" lon="8.66288125168449"><ele>526.0</ele><time>2026-04-10T09:32:06.001Z</time></trkpt><trkpt lat="39.23160459865095" lon="8.662914841274745"><ele>526.0</ele><time>2026-04-10T09:32:07.001Z</time></trkpt><trkpt lat="39.231674526665756" lon="8.662931436050947"><ele>526.0</ele><time>2026-04-10T09:32:08.001Z</time></trkpt><trkpt lat="39.231754412548156" lon="8.662949990294832"><ele>523.6666666666667</ele><time>2026-04-10T09:32:09.001Z</time></trkpt><trkpt lat="39.23183540444805" lon="8.662981584909703"><ele>521.3333333333334</ele><time>2026-04-10T09:32:10.001Z</time></trkpt><trkpt lat="39.231917576502376" lon="8.663024371697652"><ele>519.0</ele><time>2026-04-10T09:32:11.001Z</time></trkpt><trkpt lat="39.23199205710471" lon="8.663061492143967"><ele>516.6666666666666</ele><time>2026-04-10T09:32:12.001Z</time></trkpt><trkpt lat="39.232078668529006" lon="8.663111691312224"><ele>514.3333333333333</ele><time>2026-04-10T09:32:13.001Z</time></trkpt><trkpt lat="39.23216315653787" lon="8.663165241764249"><ele>512.0</ele><time>2026-04-10T09:32:14.001Z</time></trkpt><trkpt lat="39.232248029819274" lon="8.66323570381259"><ele>507.8</ele><time>2026-04-10T09:32:15.001Z</time></trkpt><trkpt lat="39.23233669326161" lon="8.663291006520069"><ele>503.6</ele><time>2026-04-10T09:32:16.001Z</time></trkpt><trkpt lat="39.232411506512285" lon="8.663381302437806"><ele>499.40000000000003</ele><time>2026-04-10T09:32:17.001Z</time></trkpt><trkpt lat="39.23248772422292" lon="8.663437673301653"><ele>495.20000000000005</ele><time>2026-04-10T09:32:18.001Z</time></trkpt><trkpt lat="39.23257309390896" lon="8.663508353826458"><ele>491.0</ele><time>2026-04-10T09:32:19.001Z</time></trkpt><trkpt lat="39.232655742973314" lon="8.663582494685896"><ele>490.99999999999994</ele><time>2026-04-10T09:32:20.001Z</time></trkpt><trkpt lat="39.23273259917323" lon="8.663640808645718"><ele>491.0</ele><time>2026-04-10T09:32:21.001Z</time></trkpt><trkpt lat="39.232827030915274" lon="8.663644716438185"><ele>491.0</ele><time>2026-04-10T09:32:22.001Z</time></trkpt><trkpt lat="39.23292324062677" lon="8.663647340512362"><ele>491.0</ele><time>2026-04-10T09:32:23.001Z</time></trkpt><trkpt lat="39.233010287381894" lon="8.663633717260865"><ele>490.99999999999994</ele><time>2026-04-10T09:32:24.001Z</time></trkpt><trkpt lat="39.23308355412513" lon="8.66360799168117"><ele>491.0</ele><time>2026-04-10T09:32:25.001Z</time></trkpt><trkpt lat="39.23317564045731" lon="8.663532698462575"><ele>490.99999999999994</ele><time>2026-04-10T09:32:27.001Z</time></trkpt><trkpt lat="39.233198110326875" lon="8.663450401682113"><ele>491.0</ele><time>2026-04-10T09:32:28.001Z</time></trkpt><trkpt lat="39.233179628639625" lon="8.66334031033253"><ele>491.0</ele><time>2026-04-10T09:32:29.001Z</time></trkpt><trkpt lat="39.23316362529947" lon="8.663237356980359"><ele>491.0</ele><time>2026-04-10T09:32:30.001Z</time></trkpt><trkpt lat="39.23314469968093" lon="8.663102054929338"><ele>490.99999999999994</ele><time>2026-04-10T09:32:31.001Z</time></trkpt><trkpt lat="39.23313828741185" lon="8.663004140593626"><ele>491.0</ele><time>2026-04-10T09:32:32.001Z</time></trkpt><trkpt lat="39.23316238200443" lon="8.662863855916795"><ele>487.75</ele><time>2026-04-10T09:32:34.001Z</time></trkpt><trkpt lat="39.23325774609744" lon="8.66282697615713"><ele>484.5</ele><time>2026-04-10T09:32:36.001Z</time></trkpt><trkpt lat="39.23338090073081" lon="8.662841236734325"><ele>481.25</ele><time>2026-04-10T09:32:38.001Z</time></trkpt><trkpt lat="39.23348871972883" lon="8.662888092937214"><ele>478.0</ele><time>2026-04-10T09:32:39.001Z</time></trkpt><trkpt lat="39.23363040970449" lon="8.66291177183853"><ele>478.0</ele><time>2026-04-10T09:32:40.001Z</time></trkpt><trkpt lat="39.23376189652076" lon="8.662950368002198"><ele>478.0</ele><time>2026-04-10T09:32:41.001Z</time></trkpt><trkpt lat="39.233882947225055" lon="8.663017410557824"><ele>478.0</ele><time>2026-04-10T09:32:42.001Z</time></trkpt><trkpt lat="39.233990986528326" lon="8.663096938737851"><ele>478.0</ele><time>2026-04-10T09:32:43.001Z</time></trkpt><trkpt lat="39.23410339033619" lon="8.663197973303433"><ele>475.0</ele><time>2026-04-10T09:32:44.001Z</time></trkpt><trkpt lat="39.23421572219568" lon="8.663319443042607"><ele>472.0</ele><time>2026-04-10T09:32:45.001Z</time></trkpt><trkpt lat="39.23433147565759" lon="8.663446029498171"><ele>469.0</ele><time>2026-04-10T09:32:46.001Z</time></trkpt><trkpt lat="39.23443578614724" lon="8.663559164075298"><ele>466.0</ele><time>2026-04-10T09:32:47.001Z</time></trkpt><trkpt lat="39.23451160371479" lon="8.66368957399291"><ele>466.0</ele><time>2026-04-10T09:32:48.001Z</time></trkpt><trkpt lat="39.23459739396543" lon="8.663789235046366"><ele>466.0</ele><time>2026-04-10T09:32:49.001Z</time></trkpt><trkpt lat="39.23468462203107" lon="8.663855383935218"><ele>466.0</ele><time>2026-04-10T09:32:50.001Z</time></trkpt><trkpt lat="39.23479346078952" lon="8.663891459624796"><ele>466.0</ele><time>2026-04-10T09:32:51.001Z</time></trkpt><trkpt lat="39.234916906683104" lon="8.66394010651913"><ele>465.25</ele><time>2026-04-10T09:32:52.001Z</time></trkpt><trkpt lat="39.23504624182332" lon="8.663982993303646"><ele>464.5</ele><time>2026-04-10T09:32:53.001Z</time></trkpt><trkpt lat="39.235194041368224" lon="8.664049225099884"><ele>463.75</ele><time>2026-04-10T09:32:54.001Z</time></trkpt><trkpt lat="39.23534670669254" lon="8.6641060624846"><ele>463.0</ele><time>2026-04-10T09:32:55.001Z</time></trkpt><trkpt lat="39.23549141847135" lon="8.66418254804105"><ele>463.0</ele><time>2026-04-10T09:32:56.001Z</time></trkpt><trkpt lat="39.23562048701595" lon="8.66425456626649"><ele>463.0</ele><time>2026-04-10T09:32:57.002Z</time></trkpt><trkpt lat="39.23575201995539" lon="8.66433593727125"><ele>463.0</ele><time>2026-04-10T09:32:58.002Z</time></trkpt><trkpt lat="39.235869527343766" lon="8.664422900702066"><ele>463.0</ele><time>2026-04-10T09:32:59.002Z</time></trkpt><trkpt lat="39.235986376538065" lon="8.664535105441901"><ele>461.6666666666667</ele><time>2026-04-10T09:33:00.002Z</time></trkpt><trkpt lat="39.23610731920295" lon="8.664651564199563"><ele>460.33333333333337</ele><time>2026-04-10T09:33:01.002Z</time></trkpt><trkpt lat="39.23623489483336" lon="8.66477378618523"><ele>459.0</ele><time>2026-04-10T09:33:02.002Z</time></trkpt><trkpt lat="39.236362027429834" lon="8.664900727785104"><ele>457.25</ele><time>2026-04-10T09:33:03.002Z</time></trkpt><trkpt lat="39.23648326868797" lon="8.665028813393176"><ele>455.5</ele><time>2026-04-10T09:33:04.002Z</time></trkpt><trkpt lat="39.23658743723041" lon="8.66515800309141"><ele>453.75</ele><time>2026-04-10T09:33:05.002Z</time></trkpt><trkpt lat="39.23669293293132" lon="8.665279962640323"><ele>452.0</ele><time>2026-04-10T09:33:06.002Z</time></trkpt><trkpt lat="39.2368012348252" lon="8.66538769170324"><ele>451.5</ele><time>2026-04-10T09:33:07.002Z</time></trkpt><trkpt lat="39.23690609455988" lon="8.665485560881924"><ele>451.0</ele><time>2026-04-10T09:33:08.002Z</time></trkpt><trkpt lat="39.2369990756967" lon="8.665577213233961"><ele>450.5</ele><time>2026-04-10T09:33:09.002Z</time></trkpt><trkpt lat="39.23707779314923" lon="8.665672874600572"><ele>450.0</ele><time>2026-04-10T09:33:10.002Z</time></trkpt><trkpt lat="39.23712972442288" lon="8.665777951112581"><ele>450.0</ele><time>2026-04-10T09:33:11Z</time></trkpt><trkpt lat="39.2372037397358" lon="8.66583943074857"><ele>450.0</ele><time>2026-04-10T09:33:12Z</time></trkpt><trkpt lat="39.23725735752165" lon="8.665897124843779"><ele>450.0</ele><time>2026-04-10T09:33:13Z</time></trkpt><trkpt lat="39.2373244978791" lon="8.665955994077848"><ele>450.0</ele><time>2026-04-10T09:33:15Z</time></trkpt><trkpt lat="39.237289002684875" lon="8.666040098438108"><ele>450.0</ele><time>2026-04-10T09:33:18Z</time></trkpt><trkpt lat="39.237272670069345" lon="8.666159445047084"><ele>450.0</ele><time>2026-04-10T09:33:20Z</time></trkpt><trkpt lat="39.23726844605649" lon="8.66625114395977"><ele>449.1666666666667</ele><time>2026-04-10T09:33:21Z</time></trkpt><trkpt lat="39.23726993752056" lon="8.666347054020555"><ele>448.33333333333337</ele><time>2026-04-10T09:33:22Z</time></trkpt><trkpt lat="39.2372878257083" lon="8.666427939358115"><ele>447.5</ele><time>2026-04-10T09:33:23Z</time></trkpt><trkpt lat="39.23727595563056" lon="8.66656700699315"><ele>446.6666666666667</ele><time>2026-04-10T09:33:25Z</time></trkpt><trkpt lat="39.23728518836678" lon="8.666684980067188"><ele>445.83333333333337</ele><time>2026-04-10T09:33:27Z</time></trkpt><trkpt lat="39.237289111114855" lon="8.666795655363856"><ele>445.0</ele><time>2026-04-10T09:33:29Z</time></trkpt><trkpt lat="39.23729601178528" lon="8.666900608176558"><ele>445.00000000000006</ele><time>2026-04-10T09:33:31Z</time></trkpt><trkpt lat="39.237280873485794" lon="8.667008046085517"><ele>445.0</ele><time>2026-04-10T09:33:36Z</time></trkpt><trkpt lat="39.23729059267081" lon="8.666896341532025"><ele>445.0</ele><time>2026-04-10T09:33:50Z</time></trkpt><trkpt lat="39.23730299267685" lon="8.666814331327073"><ele>445.0</ele><time>2026-04-10T09:33:53Z</time></trkpt><trkpt lat="39.23731609559663" lon="8.666662354668842"><ele>445.00000000000006</ele><time>2026-04-10T09:34:04.001Z</time></trkpt><trkpt lat="39.23730909846307" lon="8.666561217060455"><ele>445.0</ele><time>2026-04-10T09:34:05.001Z</time></trkpt><trkpt lat="39.23729105487574" lon="8.666463235664246"><ele>445.00000000000006</ele><time>2026-04-10T09:34:06.001Z</time></trkpt><trkpt lat="39.237295769581024" lon="8.666368749674215"><ele>445.0</ele><time>2026-04-10T09:34:07.001Z</time></trkpt><trkpt lat="39.237297532324924" lon="8.666267264185372"><ele>445.0</ele><time>2026-04-10T09:34:08.001Z</time></trkpt><trkpt lat="39.23730241860541" lon="8.66614723915707"><ele>445.0</ele><time>2026-04-10T09:34:09.001Z</time></trkpt><trkpt lat="39.2373176896906" lon="8.666059967691522"><ele>445.00000000000006</ele><time>2026-04-10T09:34:10.001Z</time></trkpt><trkpt lat="39.23733946533224" lon="8.665936724140392"><ele>445.0</ele><time>2026-04-10T09:34:12.001Z</time></trkpt><trkpt lat="39.23738477846704" lon="8.66579019722633"><ele>446.2</ele><time>2026-04-10T09:34:14.001Z</time></trkpt><trkpt lat="39.237429696445595" lon="8.665719177903663"><ele>447.4</ele><time>2026-04-10T09:34:15.001Z</time></trkpt><trkpt lat="39.237511420006555" lon="8.665606914698682"><ele>448.6</ele><time>2026-04-10T09:34:17.001Z</time></trkpt><trkpt lat="39.23756186387933" lon="8.665535441007416"><ele>449.8</ele><time>2026-04-10T09:34:18.001Z</time></trkpt><trkpt lat="39.23762164837159" lon="8.665445468814742"><ele>451.0</ele><time>2026-04-10T09:34:19.001Z</time></trkpt><trkpt lat="39.23770918223301" lon="8.66536913636406"><ele>450.25</ele><time>2026-04-10T09:34:20.001Z</time></trkpt><trkpt lat="39.23779219986622" lon="8.66526199128024"><ele>449.5</ele><time>2026-04-10T09:34:21.001Z</time></trkpt><trkpt lat="39.237901881686675" lon="8.665155749387038"><ele>448.75</ele><time>2026-04-10T09:34:22.001Z</time></trkpt><trkpt lat="39.238049294927315" lon="8.665028814997903"><ele>448.0</ele><time>2026-04-10T09:34:23.001Z</time></trkpt><trkpt lat="39.23819742333994" lon="8.664897040509357"><ele>447.75</ele><time>2026-04-10T09:34:24.001Z</time></trkpt><trkpt lat="39.23831514422639" lon="8.66479341816911"><ele>447.5</ele><time>2026-04-10T09:34:25.001Z</time></trkpt><trkpt lat="39.23841754604172" lon="8.66471922739064"><ele>447.25</ele><time>2026-04-10T09:34:26.001Z</time></trkpt><trkpt lat="39.23854354886428" lon="8.664643334458923"><ele>447.0</ele><time>2026-04-10T09:34:27.001Z</time></trkpt><trkpt lat="39.23867591970759" lon="8.664573611027139"><ele>447.0</ele><time>2026-04-10T09:34:28.001Z</time></trkpt><trkpt lat="39.2388020087864" lon="8.664504929812269"><ele>447.0</ele><time>2026-04-10T09:34:29.001Z</time></trkpt><trkpt lat="39.23893049217273" lon="8.664442123622521"><ele>447.0</ele><time>2026-04-10T09:34:30.001Z</time></trkpt><trkpt lat="39.2390610898614" lon="8.664415710341954"><ele>447.0</ele><time>2026-04-10T09:34:31.001Z</time></trkpt><trkpt lat="39.23917089552722" lon="8.664396701392192"><ele>445.75</ele><time>2026-04-10T09:34:32.001Z</time></trkpt><trkpt lat="39.23927652675276" lon="8.664387908881235"><ele>444.5</ele><time>2026-04-10T09:34:33.001Z</time></trkpt><trkpt lat="39.23940940653439" lon="8.664383923100717"><ele>443.25</ele><time>2026-04-10T09:34:34.001Z</time></trkpt><trkpt lat="39.23953705523578" lon="8.66438542120238"><ele>442.0</ele><time>2026-04-10T09:34:35.001Z</time></trkpt><trkpt lat="39.23966437730966" lon="8.664398382084658"><ele>441.75</ele><time>2026-04-10T09:34:36.001Z</time></trkpt><trkpt lat="39.23981029664015" lon="8.664421878255652"><ele>441.5</ele><time>2026-04-10T09:34:37.001Z</time></trkpt><trkpt lat="39.2399690105359" lon="8.664427177849266"><ele>441.25</ele><time>2026-04-10T09:34:38.001Z</time></trkpt><trkpt lat="39.240098791556775" lon="8.664459772171668"><ele>441.0</ele><time>2026-04-10T09:34:39.001Z</time></trkpt><trkpt lat="39.24022095784758" lon="8.664492333861832"><ele>441.4</ele><time>2026-04-10T09:34:40.001Z</time></trkpt><trkpt lat="39.240328481656036" lon="8.664541872445646"><ele>441.8</ele><time>2026-04-10T09:34:41.001Z</time></trkpt><trkpt lat="39.2404253743282" lon="8.66458070203896"><ele>442.19999999999993</ele><time>2026-04-10T09:34:42.001Z</time></trkpt><trkpt lat="39.24050835780162" lon="8.664590091299534"><ele>442.59999999999997</ele><time>2026-04-10T09:34:43.001Z</time></trkpt><trkpt lat="39.24057772245895" lon="8.664564574752935"><ele>443.0</ele><time>2026-04-10T09:34:44.001Z</time></trkpt><trkpt lat="39.24065842663684" lon="8.664508770062692"><ele>440.75</ele><time>2026-04-10T09:34:45.001Z</time></trkpt><trkpt lat="39.24075011994302" lon="8.664413698561493"><ele>438.5</ele><time>2026-04-10T09:34:46.001Z</time></trkpt><trkpt lat="39.24085767147609" lon="8.66431976864707"><ele>436.25</ele><time>2026-04-10T09:34:47.001Z</time></trkpt><trkpt lat="39.24095271549685" lon="8.664245227690627"><ele>434.0</ele><time>2026-04-10T09:34:48.001Z</time></trkpt><trkpt lat="39.24104126171544" lon="8.664194263752478"><ele>434.0</ele><time>2026-04-10T09:34:49.001Z</time></trkpt><trkpt lat="39.241132312990324" lon="8.664144068750002"><ele>434.0</ele><time>2026-04-10T09:34:50.001Z</time></trkpt><trkpt lat="39.24122727376821" lon="8.66410494122319"><ele>434.0</ele><time>2026-04-10T09:34:51.001Z</time></trkpt><trkpt lat="39.241330338366744" lon="8.664074638168133"><ele>434.0</ele><time>2026-04-10T09:34:52.001Z</time></trkpt><trkpt lat="39.24144195294349" lon="8.66404312461883"><ele>434.0</ele><time>2026-04-10T09:34:53.001Z</time></trkpt><trkpt lat="39.24154619990161" lon="8.66401447520359"><ele>432.5</ele><time>2026-04-10T09:34:54.001Z</time></trkpt><trkpt lat="39.24164080125212" lon="8.663984573204013"><ele>431.0</ele><time>2026-04-10T09:34:55.001Z</time></trkpt><trkpt lat="39.241760365892866" lon="8.663923749444198"><ele>429.5</ele><time>2026-04-10T09:34:56.001Z</time></trkpt><trkpt lat="39.24188405005829" lon="8.663852227383844"><ele>428.0</ele><time>2026-04-10T09:34:57.001Z</time></trkpt><trkpt lat="39.24200783087596" lon="8.663781578132076"><ele>428.0</ele><time>2026-04-10T09:34:58.001Z</time></trkpt><trkpt lat="39.24212100252047" lon="8.663731239616812"><ele>427.99999999999994</ele><time>2026-04-10T09:34:59.001Z</time></trkpt><trkpt lat="39.24221665702736" lon="8.663692650295722"><ele>427.99999999999994</ele><time>2026-04-10T09:35:00.001Z</time></trkpt><trkpt lat="39.242304177983215" lon="8.663657213375977"><ele>428.0</ele><time>2026-04-10T09:35:01.001Z</time></trkpt><trkpt lat="39.242379636795434" lon="8.663622922424814"><ele>428.0</ele><time>2026-04-10T09:35:02.001Z</time></trkpt><trkpt lat="39.24246311759423" lon="8.663592713194308"><ele>426.2</ele><time>2026-04-10T09:35:03.001Z</time></trkpt><trkpt lat="39.24256331949496" lon="8.663549738357547"><ele>424.4</ele><time>2026-04-10T09:35:04.001Z</time></trkpt><trkpt lat="39.24266179648345" lon="8.663501668887081"><ele>422.59999999999997</ele><time>2026-04-10T09:35:05.001Z</time></trkpt><trkpt lat="39.24274855827038" lon="8.663451702157618"><ele>420.79999999999995</ele><time>2026-04-10T09:35:06.001Z</time></trkpt><trkpt lat="39.242856385144684" lon="8.663405663759765"><ele>419.0</ele><time>2026-04-10T09:35:07.001Z</time></trkpt><trkpt lat="39.24296364949664" lon="8.663356948944912"><ele>419.0</ele><time>2026-04-10T09:35:08.001Z</time></trkpt><trkpt lat="39.243058971161396" lon="8.663308824998044"><ele>419.0</ele><time>2026-04-10T09:35:09.001Z</time></trkpt><trkpt lat="39.243131454758796" lon="8.663273065628985"><ele>419.0</ele><time>2026-04-10T09:35:10.001Z</time></trkpt><trkpt lat="39.243192095915546" lon="8.663237005057034"><ele>419.0</ele><time>2026-04-10T09:35:11.001Z</time></trkpt><trkpt lat="39.243289412396535" lon="8.663175294610975"><ele>419.0</ele><time>2026-04-10T09:35:13.001Z</time></trkpt><trkpt lat="39.24336624226348" lon="8.66307797381222"><ele>415.49999999999994</ele><time>2026-04-10T09:35:15.001Z</time></trkpt><trkpt lat="39.2433618812525" lon="8.662982097437014"><ele>412.0</ele><time>2026-04-10T09:35:16.001Z</time></trkpt><trkpt lat="39.243381653195115" lon="8.662893601390053"><ele>408.5</ele><time>2026-04-10T09:35:17Z</time></trkpt><trkpt lat="39.24337590837087" lon="8.66280376321675"><ele>405.0</ele><time>2026-04-10T09:35:18Z</time></trkpt><trkpt lat="39.243345512614994" lon="8.662670325731465"><ele>401.49999999999994</ele><time>2026-04-10T09:35:20Z</time></trkpt><trkpt lat="39.24331784616852" lon="8.662572960978018"><ele>398.0</ele><time>2026-04-10T09:35:22Z</time></trkpt><trkpt lat="39.24329488670513" lon="8.662463958040743"><ele>398.0</ele><time>2026-04-10T09:35:25Z</time></trkpt><trkpt lat="39.24336826224649" lon="8.662456895978847"><ele>398.0</ele><time>2026-04-10T09:35:27Z</time></trkpt><trkpt lat="39.24343947419752" lon="8.662607053965912"><ele>398.0</ele><time>2026-04-10T09:35:29Z</time></trkpt><trkpt lat="39.243490156268415" lon="8.662767647184854"><ele>398.0</ele><time>2026-04-10T09:35:30Z</time></trkpt><trkpt lat="39.243554019457626" lon="8.66291659330044"><ele>398.0</ele><time>2026-04-10T09:35:31Z</time></trkpt><trkpt lat="39.243597847204896" lon="8.663055700246131"><ele>398.0</ele><time>2026-04-10T09:35:32Z</time></trkpt><trkpt lat="39.24363264702639" lon="8.663189237845708"><ele>398.0</ele><time>2026-04-10T09:35:33Z</time></trkpt><trkpt lat="39.243654396456726" lon="8.663297568610686"><ele>398.0</ele><time>2026-04-10T09:35:34Z</time></trkpt><trkpt lat="39.24367442947085" lon="8.663390249513233"><ele>398.0</ele><time>2026-04-10T09:35:35Z</time></trkpt><trkpt lat="39.24369798651039" lon="8.663469147771476"><ele>397.99999999999994</ele><time>2026-04-10T09:35:36Z</time></trkpt><trkpt lat="39.24372863188827" lon="8.663540916282134"><ele>398.0</ele><time>2026-04-10T09:35:37Z</time></trkpt><trkpt lat="39.24376674701147" lon="8.663632014820786"><ele>398.0</ele><time>2026-04-10T09:35:38Z</time></trkpt><trkpt lat="39.24380736064858" lon="8.663745950170957"><ele>398.0</ele><time>2026-04-10T09:35:39Z</time></trkpt><trkpt lat="39.2438492916725" lon="8.66386082878963"><ele>397.99999999999994</ele><time>2026-04-10T09:35:40Z</time></trkpt><trkpt lat="39.24386088660874" lon="8.663997632674086"><ele>398.0</ele><time>2026-04-10T09:35:41Z</time></trkpt><trkpt lat="39.243873475507144" lon="8.664135781328145"><ele>399.5</ele><time>2026-04-10T09:35:42Z</time></trkpt><trkpt lat="39.2438765018639" lon="8.664296540269975"><ele>401.0</ele><time>2026-04-10T09:35:43Z</time></trkpt><trkpt lat="39.24387604977791" lon="8.664450221990384"><ele>402.5</ele><time>2026-04-10T09:35:44Z</time></trkpt><trkpt lat="39.24388376441194" lon="8.664587603621458"><ele>404.0</ele><time>2026-04-10T09:35:45Z</time></trkpt><trkpt lat="39.24388951567607" lon="8.664723771758633"><ele>405.4</ele><time>2026-04-10T09:35:46Z</time></trkpt><trkpt lat="39.24391043938214" lon="8.66485527181096"><ele>406.79999999999995</ele><time>2026-04-10T09:35:47Z</time></trkpt><trkpt lat="39.243938787943215" lon="8.664972135698884"><ele>408.20000000000005</ele><time>2026-04-10T09:35:48Z</time></trkpt><trkpt lat="39.24397722988262" lon="8.66510568466206"><ele>409.6</ele><time>2026-04-10T09:35:49Z</time></trkpt><trkpt lat="39.24402774611995" lon="8.66523489882474"><ele>411.0</ele><time>2026-04-10T09:35:50Z</time></trkpt><trkpt lat="39.2440745694892" lon="8.665347044353357"><ele>403.8333333333333</ele><time>2026-04-10T09:35:51Z</time></trkpt><trkpt lat="39.244123002837874" lon="8.665453386858115"><ele>396.6666666666667</ele><time>2026-04-10T09:35:52Z</time></trkpt><trkpt lat="39.24416411060068" lon="8.665535372131764"><ele>389.5</ele><time>2026-04-10T09:35:53Z</time></trkpt><trkpt lat="39.244186175343636" lon="8.665628659944154"><ele>382.33333333333337</ele><time>2026-04-10T09:35:54Z</time></trkpt><trkpt lat="39.2441805619413" lon="8.665737767201156"><ele>375.1666666666667</ele><time>2026-04-10T09:35:55Z</time></trkpt><trkpt lat="39.24416425548426" lon="8.665834802603236"><ele>368.0</ele><time>2026-04-10T09:35:56Z</time></trkpt><trkpt lat="39.24415024778329" lon="8.665935438032136"><ele>368.0</ele><time>2026-04-10T09:35:57Z</time></trkpt><trkpt lat="39.24416830983187" lon="8.666028681109209"><ele>368.0</ele><time>2026-04-10T09:35:58Z</time></trkpt><trkpt lat="39.24420402367891" lon="8.66612426350401"><ele>368.0</ele><time>2026-04-10T09:35:59Z</time></trkpt><trkpt lat="39.24424508713534" lon="8.666215385528389"><ele>368.0</ele><time>2026-04-10T09:36:00Z</time></trkpt><trkpt lat="39.2442694134642" lon="8.666307240434262"><ele>368.0</ele><time>2026-04-10T09:36:01Z</time></trkpt><trkpt lat="39.244279194934904" lon="8.666423296441078"><ele>368.0</ele><time>2026-04-10T09:36:02Z</time></trkpt><trkpt lat="39.24426071931454" lon="8.66653603019107"><ele>366.79999999999995</ele><time>2026-04-10T09:36:03Z</time></trkpt><trkpt lat="39.24422302445464" lon="8.66666713080214"><ele>365.6</ele><time>2026-04-10T09:36:04Z</time></trkpt><trkpt lat="39.24417898179377" lon="8.666805522543367"><ele>364.4</ele><time>2026-04-10T09:36:05Z</time></trkpt><trkpt lat="39.244149235058636" lon="8.666931988461348"><ele>363.20000000000005</ele><time>2026-04-10T09:36:06.001Z</time></trkpt><trkpt lat="39.24414886224359" lon="8.667051280933507"><ele>362.0</ele><time>2026-04-10T09:36:07.001Z</time></trkpt><trkpt lat="39.244131113689114" lon="8.66717231348095"><ele>360.8</ele><time>2026-04-10T09:36:08.001Z</time></trkpt><trkpt lat="39.2441323658135" lon="8.667313001258172"><ele>359.6</ele><time>2026-04-10T09:36:09.001Z</time></trkpt><trkpt lat="39.24417114153705" lon="8.667440771943198"><ele>358.40000000000003</ele><time>2026-04-10T09:36:10.001Z</time></trkpt><trkpt lat="39.2441891276437" lon="8.66756207039054"><ele>357.20000000000005</ele><time>2026-04-10T09:36:11.001Z</time></trkpt><trkpt lat="39.24422591929359" lon="8.667673208165903"><ele>356.0</ele><time>2026-04-10T09:36:12.001Z</time></trkpt><trkpt lat="39.24423958480774" lon="8.667791025319287"><ele>354.75</ele><time>2026-04-10T09:36:13.001Z</time></trkpt><trkpt lat="39.244230758561415" lon="8.667964223582063"><ele>353.5</ele><time>2026-04-10T09:36:14.001Z</time></trkpt><trkpt lat="39.24422940092728" lon="8.668140215750077"><ele>352.25</ele><time>2026-04-10T09:36:15.001Z</time></trkpt><trkpt lat="39.24424832523756" lon="8.668299424248103"><ele>351.0</ele><time>2026-04-10T09:36:16.001Z</time></trkpt><trkpt lat="39.244276686532906" lon="8.668429397666545"><ele>351.0</ele><time>2026-04-10T09:36:17.001Z</time></trkpt><trkpt lat="39.24431933198257" lon="8.668559500861146"><ele>351.0</ele><time>2026-04-10T09:36:18.001Z</time></trkpt><trkpt lat="39.2443931599427" lon="8.66868842503815"><ele>351.0</ele><time>2026-04-10T09:36:19.001Z</time></trkpt><trkpt lat="39.24447963896199" lon="8.668801420346172"><ele>351.0</ele><time>2026-04-10T09:36:20.001Z</time></trkpt><trkpt lat="39.244570959792775" lon="8.668903158219408"><ele>352.0</ele><time>2026-04-10T09:36:21.001Z</time></trkpt><trkpt lat="39.24466684726065" lon="8.66898462008364"><ele>353.0</ele><time>2026-04-10T09:36:22.001Z</time></trkpt><trkpt lat="39.2447541905224" lon="8.669091641147746"><ele>354.0</ele><time>2026-04-10T09:36:23.001Z</time></trkpt><trkpt lat="39.24480400900059" lon="8.669185780673907"><ele>355.0</ele><time>2026-04-10T09:36:24.001Z</time></trkpt><trkpt lat="39.24481954506261" lon="8.669303128306053"><ele>356.0</ele><time>2026-04-10T09:36:25.001Z</time></trkpt><trkpt lat="39.244866889446726" lon="8.669475863021864"><ele>347.33333333333337</ele><time>2026-04-10T09:36:26.001Z</time></trkpt><trkpt lat="39.244940329440794" lon="8.669662850775962"><ele>338.6666666666667</ele><time>2026-04-10T09:36:27.001Z</time></trkpt><trkpt lat="39.24498705403809" lon="8.669866779758939"><ele>330.0</ele><time>2026-04-10T09:36:28.001Z</time></trkpt><trkpt lat="39.24503238498551" lon="8.670024577119625"><ele>330.0</ele><time>2026-04-10T09:36:29.001Z</time></trkpt><trkpt lat="39.24507274460894" lon="8.670153382050845"><ele>330.0</ele><time>2026-04-10T09:36:30.001Z</time></trkpt><trkpt lat="39.24512769819339" lon="8.670264798913355"><ele>330.0</ele><time>2026-04-10T09:36:31.001Z</time></trkpt><trkpt lat="39.24520742621123" lon="8.670369063434443"><ele>330.0</ele><time>2026-04-10T09:36:32.001Z</time></trkpt><trkpt lat="39.245313617081095" lon="8.670465225021498"><ele>331.1666666666667</ele><time>2026-04-10T09:36:33.001Z</time></trkpt><trkpt lat="39.24540329593126" lon="8.670526091726424"><ele>332.3333333333333</ele><time>2026-04-10T09:36:34.001Z</time></trkpt><trkpt lat="39.245474322871516" lon="8.670536713456542"><ele>333.5</ele><time>2026-04-10T09:36:35.001Z</time></trkpt><trkpt lat="39.24554161342837" lon="8.670513928097826"><ele>334.66666666666663</ele><time>2026-04-10T09:36:36.001Z</time></trkpt><trkpt lat="39.2456100641488" lon="8.670467848744746"><ele>335.8333333333333</ele><time>2026-04-10T09:36:37.001Z</time></trkpt><trkpt lat="39.24568190006995" lon="8.6703978160992"><ele>337.0</ele><time>2026-04-10T09:36:38.001Z</time></trkpt><trkpt lat="39.245769103814226" lon="8.670293388945364"><ele>331.8</ele><time>2026-04-10T09:36:39.001Z</time></trkpt><trkpt lat="39.24584615898137" lon="8.670178421394485"><ele>326.6</ele><time>2026-04-10T09:36:40.001Z</time></trkpt><trkpt lat="39.245903206072725" lon="8.670107877097344"><ele>321.40000000000003</ele><time>2026-04-10T09:36:41.001Z</time></trkpt><trkpt lat="39.24597421512935" lon="8.670091439889708"><ele>316.20000000000005</ele><time>2026-04-10T09:36:42.001Z</time></trkpt><trkpt lat="39.24609028883721" lon="8.67015011594367"><ele>311.0</ele><time>2026-04-10T09:36:44.001Z</time></trkpt><trkpt lat="39.24617023948228" lon="8.67018121103489"><ele>311.0</ele><time>2026-04-10T09:36:45.001Z</time></trkpt><trkpt lat="39.24622983536775" lon="8.670209072580287"><ele>311.0</ele><time>2026-04-10T09:36:46.001Z</time></trkpt><trkpt lat="39.246322870070664" lon="8.670126281606514"><ele>311.0</ele><time>2026-04-10T09:36:48.001Z</time></trkpt><trkpt lat="39.246365046070984" lon="8.670012761377615"><ele>311.0</ele><time>2026-04-10T09:36:49.001Z</time></trkpt><trkpt lat="39.2464237445872" lon="8.669835384764378"><ele>311.0</ele><time>2026-04-10T09:36:50.001Z</time></trkpt><trkpt lat="39.24649505144913" lon="8.669683406891371"><ele>312.8</ele><time>2026-04-10T09:36:51.001Z</time></trkpt><trkpt lat="39.24653149422368" lon="8.669558751980565"><ele>314.6</ele><time>2026-04-10T09:36:52.001Z</time></trkpt><trkpt lat="39.24657239055432" lon="8.669459363497605"><ele>316.4</ele><time>2026-04-10T09:36:53.001Z</time></trkpt><trkpt lat="39.246642300637525" lon="8.669375887590224"><ele>318.2</ele><time>2026-04-10T09:36:54.001Z</time></trkpt><trkpt lat="39.24671580704246" lon="8.669311585021932"><ele>320.0</ele><time>2026-04-10T09:36:55.001Z</time></trkpt><trkpt lat="39.246801614672016" lon="8.669260359643289"><ele>316.0</ele><time>2026-04-10T09:36:56.001Z</time></trkpt><trkpt lat="39.24689385009968" lon="8.669214420586293"><ele>312.0</ele><time>2026-04-10T09:36:57.001Z</time></trkpt><trkpt lat="39.24697773084393" lon="8.669143033627346"><ele>308.0</ele><time>2026-04-10T09:36:58.001Z</time></trkpt><trkpt lat="39.24704777943895" lon="8.669047007561884"><ele>304.0</ele><time>2026-04-10T09:36:59.001Z</time></trkpt><trkpt lat="39.24711253349443" lon="8.6689565688185"><ele>300.0</ele><time>2026-04-10T09:37:00.001Z</time></trkpt><trkpt lat="39.24716266377005" lon="8.668864458254259"><ele>300.0</ele><time>2026-04-10T09:37:01.001Z</time></trkpt><trkpt lat="39.24720763913762" lon="8.668758936928928"><ele>300.0</ele><time>2026-04-10T09:37:02.001Z</time></trkpt><trkpt lat="39.24724656859591" lon="8.668643554981017"><ele>300.0</ele><time>2026-04-10T09:37:03.001Z</time></trkpt><trkpt lat="39.2472773121537" lon="8.66852400551872"><ele>300.0</ele><time>2026-04-10T09:37:04.001Z</time></trkpt><trkpt lat="39.24730927731069" lon="8.668417133676678"><ele>300.0</ele><time>2026-04-10T09:37:05.001Z</time></trkpt><trkpt lat="39.247349901765276" lon="8.668322493482997"><ele>299.0</ele><time>2026-04-10T09:37:06.001Z</time></trkpt><trkpt lat="39.24741290892065" lon="8.668290688439853"><ele>298.0</ele><time>2026-04-10T09:37:07.001Z</time></trkpt><trkpt lat="39.247466394487645" lon="8.668229823775837"><ele>297.0</ele><time>2026-04-10T09:37:08.001Z</time></trkpt><trkpt lat="39.24754731644772" lon="8.668207413444572"><ele>296.0</ele><time>2026-04-10T09:37:09.001Z</time></trkpt><trkpt lat="39.24765979983753" lon="8.668209952614085"><ele>295.0</ele><time>2026-04-10T09:37:10.001Z</time></trkpt><trkpt lat="39.247771658563494" lon="8.668217138436123"><ele>294.0</ele><time>2026-04-10T09:37:11.001Z</time></trkpt><trkpt lat="39.24785864947366" lon="8.668159365401472"><ele>294.0</ele><time>2026-04-10T09:37:12.001Z</time></trkpt><trkpt lat="39.24793105305672" lon="8.66809887517739"><ele>294.0</ele><time>2026-04-10T09:37:13.001Z</time></trkpt><trkpt lat="39.2480094869184" lon="8.667991134047307"><ele>294.0</ele><time>2026-04-10T09:37:14.001Z</time></trkpt><trkpt lat="39.2480833453493" lon="8.667878387504143"><ele>294.0</ele><time>2026-04-10T09:37:15.001Z</time></trkpt><trkpt lat="39.248147909489056" lon="8.667791426039331"><ele>294.0</ele><time>2026-04-10T09:37:16.001Z</time></trkpt><trkpt lat="39.24820441075612" lon="8.667714471478039"><ele>293.0</ele><time>2026-04-10T09:37:17.001Z</time></trkpt><trkpt lat="39.24825685049232" lon="8.667651739663647"><ele>292.0</ele><time>2026-04-10T09:37:18.001Z</time></trkpt><trkpt lat="39.24830802949287" lon="8.667522847578809"><ele>291.0</ele><time>2026-04-10T09:37:20.001Z</time></trkpt><trkpt lat="39.24829745281374" lon="8.667440985142672"><ele>290.0</ele><time>2026-04-10T09:37:21.001Z</time></trkpt><trkpt lat="39.24827872743035" lon="8.667347798768771"><ele>289.0</ele><time>2026-04-10T09:37:22.001Z</time></trkpt><trkpt lat="39.24825914302446" lon="8.667237575858135"><ele>288.0</ele><time>2026-04-10T09:37:23Z</time></trkpt><trkpt lat="39.24825975606018" lon="8.66713420088402"><ele>288.0</ele><time>2026-04-10T09:37:24Z</time></trkpt><trkpt lat="39.24829428010732" lon="8.667058846808585"><ele>288.0</ele><time>2026-04-10T09:37:25Z</time></trkpt><trkpt lat="39.24835001101734" lon="8.66699797548084"><ele>288.0</ele><time>2026-04-10T09:37:26Z</time></trkpt><trkpt lat="39.24843504224098" lon="8.66695605002151"><ele>288.0</ele><time>2026-04-10T09:37:27Z</time></trkpt><trkpt lat="39.24852261898881" lon="8.666924788576512"><ele>288.0</ele><time>2026-04-10T09:37:28Z</time></trkpt><trkpt lat="39.248604142771505" lon="8.666877610790001"><ele>288.0</ele><time>2026-04-10T09:37:29Z</time></trkpt><trkpt lat="39.24867686157708" lon="8.66681195279767"><ele>285.6</ele><time>2026-04-10T09:37:30Z</time></trkpt><trkpt lat="39.248742767829455" lon="8.66673015579463"><ele>283.20000000000005</ele><time>2026-04-10T09:37:31Z</time></trkpt><trkpt lat="39.24879749507128" lon="8.66664884702366"><ele>280.8</ele><time>2026-04-10T09:37:32Z</time></trkpt><trkpt lat="39.248843018764696" lon="8.666538216560104"><ele>278.40000000000003</ele><time>2026-04-10T09:37:33Z</time></trkpt><trkpt lat="39.2488832965347" lon="8.666429064579217"><ele>276.0</ele><time>2026-04-10T09:37:34Z</time></trkpt><trkpt lat="39.248917463565256" lon="8.666313109605634"><ele>274.0</ele><time>2026-04-10T09:37:35Z</time></trkpt><trkpt lat="39.248964883812185" lon="8.666186737956556"><ele>272.0</ele><time>2026-04-10T09:37:36Z</time></trkpt><trkpt lat="39.24902297918799" lon="8.666074600363457"><ele>270.0</ele><time>2026-04-10T09:37:37Z</time></trkpt><trkpt lat="39.24907520185581" lon="8.665993700667277"><ele>268.0</ele><time>2026-04-10T09:37:38Z</time></trkpt><trkpt lat="39.24912071427568" lon="8.6659033537147"><ele>266.0</ele><time>2026-04-10T09:37:39Z</time></trkpt><trkpt lat="39.24917325965888" lon="8.66583558700641"><ele>266.0</ele><time>2026-04-10T09:37:40Z</time></trkpt><trkpt lat="39.24924071075149" lon="8.665787730305574"><ele>266.0</ele><time>2026-04-10T09:37:41Z</time></trkpt><trkpt lat="39.24933689018688" lon="8.665765913279257"><ele>266.0</ele><time>2026-04-10T09:37:42Z</time></trkpt><trkpt lat="39.24944203752304" lon="8.665713280453716"><ele>266.0</ele><time>2026-04-10T09:37:43Z</time></trkpt><trkpt lat="39.24953723826109" lon="8.665666566797752"><ele>266.0</ele><time>2026-04-10T09:37:44Z</time></trkpt><trkpt lat="39.24962042149726" lon="8.665599533118433"><ele>266.0</ele><time>2026-04-10T09:37:45Z</time></trkpt><trkpt lat="39.24969392588587" lon="8.66553402240213"><ele>266.0</ele><time>2026-04-10T09:37:46Z</time></trkpt><trkpt lat="39.249767001513625" lon="8.665489082907717"><ele>266.0</ele><time>2026-04-10T09:37:47Z</time></trkpt><trkpt lat="39.24984079372192" lon="8.665477370768572"><ele>266.0</ele><time>2026-04-10T09:37:48Z</time></trkpt><trkpt lat="39.24992053471685" lon="8.665496561803709"><ele>266.0</ele><time>2026-04-10T09:37:49Z</time></trkpt><trkpt lat="39.24999068861184" lon="8.665547856614921"><ele>266.0</ele><time>2026-04-10T09:37:50Z</time></trkpt><trkpt lat="39.25004199884596" lon="8.66565753910796"><ele>265.0</ele><time>2026-04-10T09:37:51Z</time></trkpt><trkpt lat="39.25011224724034" lon="8.66570119555712"><ele>264.0</ele><time>2026-04-10T09:37:52Z</time></trkpt><trkpt lat="39.250192465906714" lon="8.665744625455394"><ele>263.0</ele><time>2026-04-10T09:37:53Z</time></trkpt><trkpt lat="39.25028309024638" lon="8.66573614544014"><ele>262.0</ele><time>2026-04-10T09:37:54Z</time></trkpt><trkpt lat="39.25040136697608" lon="8.665731390845481"><ele>261.0</ele><time>2026-04-10T09:37:55Z</time></trkpt><trkpt lat="39.250529043714565" lon="8.66572493399223"><ele>260.0</ele><time>2026-04-10T09:37:56Z</time></trkpt><trkpt lat="39.250651498200334" lon="8.665717817303781"><ele>259.0</ele><time>2026-04-10T09:37:57Z</time></trkpt><trkpt lat="39.25076331042792" lon="8.665714316732764"><ele>258.0</ele><time>2026-04-10T09:37:58Z</time></trkpt><trkpt lat="39.250868999205494" lon="8.66571216639205"><ele>257.0</ele><time>2026-04-10T09:37:59Z</time></trkpt><trkpt lat="39.25096705845064" lon="8.66571503763928"><ele>256.0</ele><time>2026-04-10T09:38:00Z</time></trkpt><trkpt lat="39.251060658834035" lon="8.665728156493593"><ele>256.0</ele><time>2026-04-10T09:38:01Z</time></trkpt><trkpt lat="39.251130032983774" lon="8.665760238967586"><ele>256.0</ele><time>2026-04-10T09:38:02Z</time></trkpt><trkpt lat="39.251207954582284" lon="8.66583572057584"><ele>256.0</ele><time>2026-04-10T09:38:03Z</time></trkpt><trkpt lat="39.25130286576338" lon="8.665912080718593"><ele>256.0</ele><time>2026-04-10T09:38:04Z</time></trkpt><trkpt lat="39.2513761554979" lon="8.665999118271325"><ele>256.0</ele><time>2026-04-10T09:38:05Z</time></trkpt><trkpt lat="39.25145303942649" lon="8.666058273361932"><ele>255.8</ele><time>2026-04-10T09:38:06Z</time></trkpt><trkpt lat="39.251541397439006" lon="8.666099084750247"><ele>255.60000000000002</ele><time>2026-04-10T09:38:07Z</time></trkpt><trkpt lat="39.25163305874354" lon="8.666135360570856"><ele>255.4</ele><time>2026-04-10T09:38:08Z</time></trkpt><trkpt lat="39.25173732822681" lon="8.66613954695346"><ele>255.2</ele><time>2026-04-10T09:38:09.001Z</time></trkpt><trkpt lat="39.25183119459213" lon="8.666150556343627"><ele>255.0</ele><time>2026-04-10T09:38:10.001Z</time></trkpt><trkpt lat="39.2519106612107" lon="8.66619703025812"><ele>255.0</ele><time>2026-04-10T09:38:11.001Z</time></trkpt><trkpt lat="39.25198857314467" lon="8.66634954670195"><ele>255.0</ele><time>2026-04-10T09:38:13.001Z</time></trkpt><trkpt lat="39.25203651420107" lon="8.666456971916457"><ele>255.0</ele><time>2026-04-10T09:38:14.001Z</time></trkpt><trkpt lat="39.25209270861141" lon="8.66659746170958"><ele>255.0</ele><time>2026-04-10T09:38:15.001Z</time></trkpt><trkpt lat="39.25214158560227" lon="8.666724575106969"><ele>255.0</ele><time>2026-04-10T09:38:16.001Z</time></trkpt><trkpt lat="39.25218550351546" lon="8.666838791288923"><ele>255.0</ele><time>2026-04-10T09:38:17.001Z</time></trkpt><trkpt lat="39.25223064456496" lon="8.666956188911335"><ele>255.0</ele><time>2026-04-10T09:38:18.001Z</time></trkpt><trkpt lat="39.25227089574261" lon="8.667069497926878"><ele>255.0</ele><time>2026-04-10T09:38:19.001Z</time></trkpt><trkpt lat="39.252318020604505" lon="8.667163621086297"><ele>255.0</ele><time>2026-04-10T09:38:20.001Z</time></trkpt><trkpt lat="39.25235534252838" lon="8.667242537657833"><ele>251.8</ele><time>2026-04-10T09:38:21.001Z</time></trkpt><trkpt lat="39.25239409197443" lon="8.667318691697588"><ele>248.6</ele><time>2026-04-10T09:38:22.001Z</time></trkpt><trkpt lat="39.25245471064188" lon="8.667394406479742"><ele>245.39999999999998</ele><time>2026-04-10T09:38:23.001Z</time></trkpt><trkpt lat="39.25252913382595" lon="8.66746749796978"><ele>242.2</ele><time>2026-04-10T09:38:24.001Z</time></trkpt><trkpt lat="39.25262700742499" lon="8.667547461482881"><ele>239.0</ele><time>2026-04-10T09:38:25.001Z</time></trkpt><trkpt lat="39.252717155958706" lon="8.667624046613142"><ele>239.0</ele><time>2026-04-10T09:38:26.001Z</time></trkpt><trkpt lat="39.252797861950754" lon="8.667705897916704"><ele>238.99999999999997</ele><time>2026-04-10T09:38:27.001Z</time></trkpt><trkpt lat="39.25287738616144" lon="8.667801800004854"><ele>238.99999999999997</ele><time>2026-04-10T09:38:28.001Z</time></trkpt><trkpt lat="39.25294976975768" lon="8.66791554815713"><ele>239.0</ele><time>2026-04-10T09:38:29.001Z</time></trkpt><trkpt lat="39.25302162348749" lon="8.668015240946385"><ele>239.0</ele><time>2026-04-10T09:38:30.001Z</time></trkpt><trkpt lat="39.253084340532475" lon="8.668109117387738"><ele>237.79999999999998</ele><time>2026-04-10T09:38:31.001Z</time></trkpt><trkpt lat="39.25314220399437" lon="8.668201208087424"><ele>236.59999999999997</ele><time>2026-04-10T09:38:32.001Z</time></trkpt><trkpt lat="39.25319562595221" lon="8.668280924834418"><ele>235.4</ele><time>2026-04-10T09:38:33.001Z</time></trkpt><trkpt lat="39.25327696925363" lon="8.668364111756535"><ele>234.2</ele><time>2026-04-10T09:38:35.001Z</time></trkpt><trkpt lat="39.25337451386012" lon="8.66835136130904"><ele>233.0</ele><time>2026-04-10T09:38:37.001Z</time></trkpt><trkpt lat="39.25343753526763" lon="8.66829750224587"><ele>233.0</ele><time>2026-04-10T09:38:38.001Z</time></trkpt><trkpt lat="39.25351172844812" lon="8.668218964286787"><ele>233.0</ele><time>2026-04-10T09:38:39.001Z</time></trkpt><trkpt lat="39.25359593179334" lon="8.668110072071485"><ele>233.0</ele><time>2026-04-10T09:38:40.001Z</time></trkpt><trkpt lat="39.25369606613235" lon="8.667992125532344"><ele>233.0</ele><time>2026-04-10T09:38:41.001Z</time></trkpt><trkpt lat="39.25378678997374" lon="8.667909534202487"><ele>233.0</ele><time>2026-04-10T09:38:42.001Z</time></trkpt><trkpt lat="39.25386818936551" lon="8.667834893731277"><ele>233.0</ele><time>2026-04-10T09:38:43.001Z</time></trkpt><trkpt lat="39.25394717681914" lon="8.667748720559997"><ele>233.0</ele><time>2026-04-10T09:38:44.001Z</time></trkpt><trkpt lat="39.25402321242302" lon="8.66765037723427"><ele>233.0</ele><time>2026-04-10T09:38:45.001Z</time></trkpt><trkpt lat="39.25408159808605" lon="8.667544674256996"><ele>233.0</ele><time>2026-04-10T09:38:46.001Z</time></trkpt><trkpt lat="39.254133399076316" lon="8.66742168903903"><ele>233.0</ele><time>2026-04-10T09:38:47.001Z</time></trkpt><trkpt lat="39.25417150957205" lon="8.667294722450137"><ele>233.0</ele><time>2026-04-10T09:38:48.001Z</time></trkpt><trkpt lat="39.25420928710742" lon="8.667181827920375"><ele>233.0</ele><time>2026-04-10T09:38:49.001Z</time></trkpt><trkpt lat="39.25424396081429" lon="8.667069641610308"><ele>233.0</ele><time>2026-04-10T09:38:50.001Z</time></trkpt><trkpt lat="39.25427827483627" lon="8.66696710155653"><ele>233.0</ele><time>2026-04-10T09:38:51.001Z</time></trkpt><trkpt lat="39.25431317253448" lon="8.666876543422637"><ele>231.50000000000003</ele><time>2026-04-10T09:38:52.001Z</time></trkpt><trkpt lat="39.25432638367654" lon="8.666778407630321"><ele>230.0</ele><time>2026-04-10T09:38:53.001Z</time></trkpt><trkpt lat="39.2543289309886" lon="8.666677179165305"><ele>228.5</ele><time>2026-04-10T09:38:54.001Z</time></trkpt><trkpt lat="39.254328753032695" lon="8.666570738619033"><ele>227.0</ele><time>2026-04-10T09:38:55.001Z</time></trkpt><trkpt lat="39.25435882827997" lon="8.66646848242355"><ele>225.50000000000003</ele><time>2026-04-10T09:38:56.001Z</time></trkpt><trkpt lat="39.25441672792374" lon="8.666360464664812"><ele>224.0</ele><time>2026-04-10T09:38:57.001Z</time></trkpt><trkpt lat="39.25448765474484" lon="8.666261986832348"><ele>224.0</ele><time>2026-04-10T09:38:58.001Z</time></trkpt><trkpt lat="39.25456973061138" lon="8.666170005737076"><ele>224.0</ele><time>2026-04-10T09:38:59.001Z</time></trkpt><trkpt lat="39.254670497688785" lon="8.666086430138412"><ele>224.0</ele><time>2026-04-10T09:39:00.001Z</time></trkpt><trkpt lat="39.2547952902918" lon="8.666009778675681"><ele>224.0</ele><time>2026-04-10T09:39:01.001Z</time></trkpt><trkpt lat="39.254902281895454" lon="8.665924204930445"><ele>221.25</ele><time>2026-04-10T09:39:02.001Z</time></trkpt><trkpt lat="39.25499679510641" lon="8.665855470667235"><ele>218.5</ele><time>2026-04-10T09:39:03.001Z</time></trkpt><trkpt lat="39.25509644843868" lon="8.665767698940424"><ele>215.75</ele><time>2026-04-10T09:39:04.001Z</time></trkpt><trkpt lat="39.25518666371193" lon="8.665670897623826"><ele>213.0</ele><time>2026-04-10T09:39:05.001Z</time></trkpt><trkpt lat="39.25526659433705" lon="8.665577450171861"><ele>213.0</ele><time>2026-04-10T09:39:06.001Z</time></trkpt><trkpt lat="39.25535280094685" lon="8.665484845187386"><ele>213.0</ele><time>2026-04-10T09:39:07.001Z</time></trkpt><trkpt lat="39.25542709112937" lon="8.665392609478117"><ele>213.0</ele><time>2026-04-10T09:39:08.001Z</time></trkpt><trkpt lat="39.25547484548573" lon="8.665297465605567"><ele>213.0</ele><time>2026-04-10T09:39:09.001Z</time></trkpt><trkpt lat="39.25549334215277" lon="8.665205249726933"><ele>213.0</ele><time>2026-04-10T09:39:10.001Z</time></trkpt><trkpt lat="39.25548103048228" lon="8.665112684140468"><ele>213.0</ele><time>2026-04-10T09:39:11.001Z</time></trkpt><trkpt lat="39.25543772417936" lon="8.665019515246783"><ele>212.0</ele><time>2026-04-10T09:39:12.001Z</time></trkpt><trkpt lat="39.25536186319303" lon="8.664890854481401"><ele>211.0</ele><time>2026-04-10T09:39:13.001Z</time></trkpt><trkpt lat="39.25532676226231" lon="8.664747503405668"><ele>210.0</ele><time>2026-04-10T09:39:14.001Z</time></trkpt><trkpt lat="39.25529327175945" lon="8.66461316607646"><ele>209.0</ele><time>2026-04-10T09:39:15.001Z</time></trkpt><trkpt lat="39.25526947183705" lon="8.664484988147604"><ele>208.79999999999998</ele><time>2026-04-10T09:39:16.001Z</time></trkpt><trkpt lat="39.255253854265376" lon="8.664352495069718"><ele>208.6</ele><time>2026-04-10T09:39:17.001Z</time></trkpt><trkpt lat="39.255249430873874" lon="8.66420714436079"><ele>208.4</ele><time>2026-04-10T09:39:18.001Z</time></trkpt><trkpt lat="39.255236419079544" lon="8.66405528629281"><ele>208.2</ele><time>2026-04-10T09:39:19.001Z</time></trkpt><trkpt lat="39.25522195217869" lon="8.663917269215965"><ele>208.0</ele><time>2026-04-10T09:39:20.001Z</time></trkpt><trkpt lat="39.25522421082618" lon="8.663787192945088"><ele>208.0</ele><time>2026-04-10T09:39:21.001Z</time></trkpt><trkpt lat="39.25520896624977" lon="8.663650672029085"><ele>208.0</ele><time>2026-04-10T09:39:22.001Z</time></trkpt><trkpt lat="39.255201893571936" lon="8.663508707841835"><ele>208.0</ele><time>2026-04-10T09:39:23.001Z</time></trkpt><trkpt lat="39.255189381643454" lon="8.66339115157054"><ele>208.0</ele><time>2026-04-10T09:39:24.001Z</time></trkpt><trkpt lat="39.25517315244077" lon="8.663285701500856"><ele>208.0</ele><time>2026-04-10T09:39:25.001Z</time></trkpt><trkpt lat="39.255162682789866" lon="8.663177329642"><ele>207.4</ele><time>2026-04-10T09:39:26.001Z</time></trkpt><trkpt lat="39.25516773694439" lon="8.663066855015096"><ele>206.8</ele><time>2026-04-10T09:39:27.001Z</time></trkpt><trkpt lat="39.255183716880595" lon="8.662945254273911"><ele>206.2</ele><time>2026-04-10T09:39:28.001Z</time></trkpt><trkpt lat="39.25521180985995" lon="8.662835237480792"><ele>205.6</ele><time>2026-04-10T09:39:29Z</time></trkpt><trkpt lat="39.25526381587772" lon="8.662704195070258"><ele>205.0</ele><time>2026-04-10T09:39:30Z</time></trkpt><trkpt lat="39.25531161247864" lon="8.662565786424562"><ele>205.0</ele><time>2026-04-10T09:39:31Z</time></trkpt><trkpt lat="39.25535058679205" lon="8.662445138908224"><ele>205.0</ele><time>2026-04-10T09:39:32Z</time></trkpt><trkpt lat="39.255384059127586" lon="8.662321487440124"><ele>205.0</ele><time>2026-04-10T09:39:33Z</time></trkpt><trkpt lat="39.25541810341429" lon="8.662205522404394"><ele>205.0</ele><time>2026-04-10T09:39:34Z</time></trkpt><trkpt lat="39.255461396247554" lon="8.662097752459898"><ele>205.0</ele><time>2026-04-10T09:39:35Z</time></trkpt><trkpt lat="39.255522134080245" lon="8.662009160309799"><ele>206.6</ele><time>2026-04-10T09:39:36Z</time></trkpt><trkpt lat="39.255597425179154" lon="8.661937803431089"><ele>208.2</ele><time>2026-04-10T09:39:37Z</time></trkpt><trkpt lat="39.255680555340106" lon="8.66186015564574"><ele>209.8</ele><time>2026-04-10T09:39:38Z</time></trkpt><trkpt lat="39.255770650642454" lon="8.661796707913322"><ele>211.4</ele><time>2026-04-10T09:39:39Z</time></trkpt><trkpt lat="39.255875071481256" lon="8.66175847537529"><ele>213.0</ele><time>2026-04-10T09:39:40Z</time></trkpt><trkpt lat="39.25599206226367" lon="8.661718489551005"><ele>209.4</ele><time>2026-04-10T09:39:41Z</time></trkpt><trkpt lat="39.25609968391795" lon="8.661661695387942"><ele>205.8</ele><time>2026-04-10T09:39:42Z</time></trkpt><trkpt lat="39.25619817048775" lon="8.6615920354562"><ele>202.2</ele><time>2026-04-10T09:39:43Z</time></trkpt><trkpt lat="39.25629445223645" lon="8.661525815909908"><ele>198.6</ele><time>2026-04-10T09:39:44Z</time></trkpt><trkpt lat="39.25639583272878" lon="8.661470790706677"><ele>195.0</ele><time>2026-04-10T09:39:45Z</time></trkpt><trkpt lat="39.25650855034888" lon="8.661445312082108"><ele>193.2</ele><time>2026-04-10T09:39:46Z</time></trkpt><trkpt lat="39.256629623225066" lon="8.661426237446332"><ele>191.4</ele><time>2026-04-10T09:39:47Z</time></trkpt><trkpt lat="39.25673907819496" lon="8.661411047954925"><ele>189.60000000000002</ele><time>2026-04-10T09:39:48Z</time></trkpt><trkpt lat="39.25683781484215" lon="8.661390216960951"><ele>187.8</ele><time>2026-04-10T09:39:49Z</time></trkpt><trkpt lat="39.256939566882394" lon="8.661378085192236"><ele>186.0</ele><time>2026-04-10T09:39:50Z</time></trkpt><trkpt lat="39.25703728646961" lon="8.661385455636285"><ele>186.0</ele><time>2026-04-10T09:39:51Z</time></trkpt><trkpt lat="39.25712919275406" lon="8.661391591863287"><ele>186.0</ele><time>2026-04-10T09:39:52Z</time></trkpt><trkpt lat="39.257232499590245" lon="8.661398162203115"><ele>186.0</ele><time>2026-04-10T09:39:53Z</time></trkpt><trkpt lat="39.25734192661037" lon="8.661401982017392"><ele>186.0</ele><time>2026-04-10T09:39:54Z</time></trkpt><trkpt lat="39.25744049227818" lon="8.661398780137604"><ele>186.0</ele><time>2026-04-10T09:39:55Z</time></trkpt><trkpt lat="39.25751952352365" lon="8.661377120341733"><ele>186.33333333333334</ele><time>2026-04-10T09:39:56Z</time></trkpt><trkpt lat="39.257593071849335" lon="8.661337202486104"><ele>186.66666666666666</ele><time>2026-04-10T09:39:57Z</time></trkpt><trkpt lat="39.257664876556596" lon="8.661294647869035"><ele>187.0</ele><time>2026-04-10T09:39:58Z</time></trkpt><trkpt lat="39.257727506125704" lon="8.661252485395224"><ele>187.33333333333331</ele><time>2026-04-10T09:39:59Z</time></trkpt><trkpt lat="39.257788088541865" lon="8.661210021203198"><ele>187.66666666666666</ele><time>2026-04-10T09:40:00Z</time></trkpt><trkpt lat="39.257846129779914" lon="8.661166659848686"><ele>188.0</ele><time>2026-04-10T09:40:01Z</time></trkpt><trkpt lat="39.25794885323226" lon="8.661058692410432"><ele>188.0</ele><time>2026-04-10T09:40:03Z</time></trkpt><trkpt lat="39.25799976665126" lon="8.660995580814763"><ele>188.0</ele><time>2026-04-10T09:40:04Z</time></trkpt><trkpt lat="39.25805563667751" lon="8.660918761029473"><ele>188.0</ele><time>2026-04-10T09:40:05Z</time></trkpt><trkpt lat="39.25812621831999" lon="8.660810929313117"><ele>188.0</ele><time>2026-04-10T09:40:06Z</time></trkpt><trkpt lat="39.25822560120852" lon="8.660677289889382"><ele>188.0</ele><time>2026-04-10T09:40:07Z</time></trkpt><trkpt lat="39.25830659421884" lon="8.660553090844045"><ele>187.2</ele><time>2026-04-10T09:40:08Z</time></trkpt><trkpt lat="39.258385727002704" lon="8.660452710930882"><ele>186.4</ele><time>2026-04-10T09:40:09Z</time></trkpt><trkpt lat="39.258463962641564" lon="8.660388243562677"><ele>185.6</ele><time>2026-04-10T09:40:10Z</time></trkpt><trkpt lat="39.25855328699635" lon="8.660349780863491"><ele>184.79999999999998</ele><time>2026-04-10T09:40:11Z</time></trkpt><trkpt lat="39.25865919012641" lon="8.660326095588736"><ele>184.0</ele><time>2026-04-10T09:40:12Z</time></trkpt><trkpt lat="39.25875286234905" lon="8.660271586336583"><ele>184.0</ele><time>2026-04-10T09:40:13Z</time></trkpt><trkpt lat="39.258852307356584" lon="8.660244561698159"><ele>184.0</ele><time>2026-04-10T09:40:14Z</time></trkpt><trkpt lat="39.258930981822125" lon="8.660203896362093"><ele>184.0</ele><time>2026-04-10T09:40:15Z</time></trkpt><trkpt lat="39.259014958254795" lon="8.660203583259547"><ele>184.0</ele><time>2026-04-10T09:40:16.001Z</time></trkpt><trkpt lat="39.25908044946849" lon="8.660134440148378"><ele>184.0</ele><time>2026-04-10T09:40:17.001Z</time></trkpt><trkpt lat="39.2591462212003" lon="8.660104529891436"><ele>184.0</ele><time>2026-04-10T09:40:18.001Z</time></trkpt><trkpt lat="39.25925193536009" lon="8.660056963292412"><ele>180.6</ele><time>2026-04-10T09:40:20.001Z</time></trkpt><trkpt lat="39.25933177952582" lon="8.660012645177215"><ele>177.2</ele><time>2026-04-10T09:40:23.001Z</time></trkpt><trkpt lat="39.25940772144455" lon="8.659982127083188"><ele>173.79999999999998</ele><time>2026-04-10T09:40:26.001Z</time></trkpt><trkpt lat="39.25948702106272" lon="8.659942798422541"><ele>170.39999999999998</ele><time>2026-04-10T09:41:35Z</time></trkpt><trkpt lat="39.25956018856599" lon="8.659910841917492"><ele>167.0</ele><time>2026-04-10T09:41:36Z</time></trkpt><trkpt lat="39.25968036149688" lon="8.659854066515852"><ele>166.75</ele><time>2026-04-10T09:41:37Z</time></trkpt><trkpt lat="39.259804033935296" lon="8.659786086747989"><ele>166.5</ele><time>2026-04-10T09:41:38Z</time></trkpt><trkpt lat="39.25992534651072" lon="8.65968727062776"><ele>166.25</ele><time>2026-04-10T09:41:39Z</time></trkpt><trkpt lat="39.26006854831608" lon="8.659571674532115"><ele>166.0</ele><time>2026-04-10T09:41:40Z</time></trkpt><trkpt lat="39.2602028959137" lon="8.659441836287074"><ele>166.0</ele><time>2026-04-10T09:41:41Z</time></trkpt><trkpt lat="39.26032614805421" lon="8.659355688997012"><ele>166.0</ele><time>2026-04-10T09:41:42Z</time></trkpt><trkpt lat="39.260430979421166" lon="8.659268543332729"><ele>166.0</ele><time>2026-04-10T09:41:43Z</time></trkpt><trkpt lat="39.26054130792982" lon="8.659204745395959"><ele>166.0</ele><time>2026-04-10T09:41:44Z</time></trkpt><trkpt lat="39.26063269909491" lon="8.659109644751137"><ele>165.0</ele><time>2026-04-10T09:41:45Z</time></trkpt><trkpt lat="39.26072639990639" lon="8.6590484128712"><ele>164.0</ele><time>2026-04-10T09:41:46Z</time></trkpt><trkpt lat="39.2607703562688" lon="8.658940224491158"><ele>163.0</ele><time>2026-04-10T09:41:47Z</time></trkpt><trkpt lat="39.26079414022682" lon="8.65881631848849"><ele>162.0</ele><time>2026-04-10T09:41:48Z</time></trkpt><trkpt lat="39.26078542801107" lon="8.658653948401142"><ele>161.0</ele><time>2026-04-10T09:41:49Z</time></trkpt><trkpt lat="39.26076750078429" lon="8.658484726073503"><ele>160.0</ele><time>2026-04-10T09:41:50Z</time></trkpt><trkpt lat="39.260774735372436" lon="8.658339116340718"><ele>159.0</ele><time>2026-04-10T09:41:51Z</time></trkpt><trkpt lat="39.26082051673859" lon="8.658212652698388"><ele>158.0</ele><time>2026-04-10T09:41:52Z</time></trkpt><trkpt lat="39.26089323934238" lon="8.658117122678114"><ele>157.0</ele><time>2026-04-10T09:41:53Z</time></trkpt><trkpt lat="39.260986902092405" lon="8.658057922324712"><ele>156.0</ele><time>2026-04-10T09:41:54Z</time></trkpt><trkpt lat="39.261123040156306" lon="8.65805522861427"><ele>156.0</ele><time>2026-04-10T09:41:55Z</time></trkpt><trkpt lat="39.26128721789901" lon="8.658019935155501"><ele>156.0</ele><time>2026-04-10T09:41:56Z</time></trkpt><trkpt lat="39.26145461387526" lon="8.657977898454101"><ele>156.0</ele><time>2026-04-10T09:41:57Z</time></trkpt><trkpt lat="39.26160325048674" lon="8.657958755094304"><ele>154.25</ele><time>2026-04-10T09:41:58Z</time></trkpt><trkpt lat="39.261741293826574" lon="8.657964716627205"><ele>152.5</ele><time>2026-04-10T09:41:59Z</time></trkpt><trkpt lat="39.26185981619344" lon="8.65804431374863"><ele>150.75</ele><time>2026-04-10T09:42:00Z</time></trkpt><trkpt lat="39.26197999419065" lon="8.658109543515701"><ele>149.0</ele><time>2026-04-10T09:42:01Z</time></trkpt><trkpt lat="39.262102094020605" lon="8.658140166968055"><ele>149.0</ele><time>2026-04-10T09:42:02Z</time></trkpt><trkpt lat="39.262239827168926" lon="8.6581491822088"><ele>149.0</ele><time>2026-04-10T09:42:03Z</time></trkpt><trkpt lat="39.26241356346621" lon="8.658128477862956"><ele>149.0</ele><time>2026-04-10T09:42:04Z</time></trkpt><trkpt lat="39.26259898867715" lon="8.65808591408321"><ele>146.66666666666666</ele><time>2026-04-10T09:42:05Z</time></trkpt><trkpt lat="39.26278663075886" lon="8.65802383429274"><ele>144.33333333333334</ele><time>2026-04-10T09:42:06Z</time></trkpt><trkpt lat="39.26297131051652" lon="8.657954756884195"><ele>142.0</ele><time>2026-04-10T09:42:07Z</time></trkpt><trkpt lat="39.26314136484532" lon="8.65788808547138"><ele>142.0</ele><time>2026-04-10T09:42:08Z</time></trkpt><trkpt lat="39.26329755366047" lon="8.657809223553118"><ele>142.0</ele><time>2026-04-10T09:42:09Z</time></trkpt><trkpt lat="39.263456606268505" lon="8.65770515454379"><ele>142.0</ele><time>2026-04-10T09:42:10Z</time></trkpt><trkpt lat="39.263638599964196" lon="8.657565281115103"><ele>139.0</ele><time>2026-04-10T09:42:11Z</time></trkpt><trkpt lat="39.26384498628145" lon="8.657402403859473"><ele>136.0</ele><time>2026-04-10T09:42:12.001Z</time></trkpt><trkpt lat="39.26404638891372" lon="8.657237569760783"><ele>135.66666666666669</ele><time>2026-04-10T09:42:13.001Z</time></trkpt><trkpt lat="39.264217366154156" lon="8.657095729843489"><ele>135.33333333333334</ele><time>2026-04-10T09:42:14.001Z</time></trkpt><trkpt lat="39.26435595691338" lon="8.656973251955597"><ele>135.0</ele><time>2026-04-10T09:42:15.001Z</time></trkpt><trkpt lat="39.26446457896564" lon="8.656850458895414"><ele>134.0</ele><time>2026-04-10T09:42:16.001Z</time></trkpt><trkpt lat="39.26455576457928" lon="8.656725150516191"><ele>133.0</ele><time>2026-04-10T09:42:17.001Z</time></trkpt><trkpt lat="39.26462562518506" lon="8.656591106575746"><ele>132.0</ele><time>2026-04-10T09:42:18.001Z</time></trkpt><trkpt lat="39.26468387074693" lon="8.656409485490899"><ele>131.0</ele><time>2026-04-10T09:42:19.001Z</time></trkpt><trkpt lat="39.264749724152615" lon="8.656163055089763"><ele>129.0</ele><time>2026-04-10T09:42:20.001Z</time></trkpt><trkpt lat="39.26485616649368" lon="8.655908438185037"><ele>127.0</ele><time>2026-04-10T09:42:21.001Z</time></trkpt><trkpt lat="39.26497719095771" lon="8.655655823732705"><ele>127.0</ele><time>2026-04-10T09:42:22.001Z</time></trkpt><trkpt lat="39.26508103439467" lon="8.655404280572293"><ele>127.0</ele><time>2026-04-10T09:42:23.001Z</time></trkpt><trkpt lat="39.26518024337703" lon="8.655171313878217"><ele>127.0</ele><time>2026-04-10T09:42:24.001Z</time></trkpt><trkpt lat="39.26526414295809" lon="8.654957761447106"><ele>127.0</ele><time>2026-04-10T09:42:25.001Z</time></trkpt><trkpt lat="39.26533241091357" lon="8.654741268634064"><ele>127.0</ele><time>2026-04-10T09:42:26.001Z</time></trkpt><trkpt lat="39.26537397167094" lon="8.654528895463311"><ele>127.0</ele><time>2026-04-10T09:42:27.001Z</time></trkpt><trkpt lat="39.26540269927058" lon="8.654328607994971"><ele>127.75</ele><time>2026-04-10T09:42:28.001Z</time></trkpt><trkpt lat="39.2654339578113" lon="8.654139191904015"><ele>128.5</ele><time>2026-04-10T09:42:29.001Z</time></trkpt><trkpt lat="39.265474840468784" lon="8.65396666909305"><ele>129.25</ele><time>2026-04-10T09:42:30.001Z</time></trkpt><trkpt lat="39.265526003232075" lon="8.65379087853627"><ele>130.0</ele><time>2026-04-10T09:42:31.001Z</time></trkpt><trkpt lat="39.26560117658513" lon="8.653627861889191"><ele>129.75</ele><time>2026-04-10T09:42:32.001Z</time></trkpt><trkpt lat="39.26569637504359" lon="8.653477716120637"><ele>129.5</ele><time>2026-04-10T09:42:33.001Z</time></trkpt><trkpt lat="39.26578151335551" lon="8.653359066421434"><ele>129.25</ele><time>2026-04-10T09:42:34.001Z</time></trkpt><trkpt lat="39.26584195520851" lon="8.653214805253777"><ele>129.0</ele><time>2026-04-10T09:42:35.001Z</time></trkpt><trkpt lat="39.265895704306544" lon="8.65304475913263"><ele>129.0</ele><time>2026-04-10T09:42:36.001Z</time></trkpt><trkpt lat="39.26594439348392" lon="8.652876192605161"><ele>129.0</ele><time>2026-04-10T09:42:37.001Z</time></trkpt><trkpt lat="39.26598636467236" lon="8.652728682630514"><ele>129.0</ele><time>2026-04-10T09:42:38.001Z</time></trkpt><trkpt lat="39.26602487728114" lon="8.652591406711364"><ele>129.0</ele><time>2026-04-10T09:42:39.001Z</time></trkpt><trkpt lat="39.26606383784835" lon="8.652448341567782"><ele>129.75</ele><time>2026-04-10T09:42:40.001Z</time></trkpt><trkpt lat="39.26610145629927" lon="8.652303842887804"><ele>130.5</ele><time>2026-04-10T09:42:41.001Z</time></trkpt><trkpt lat="39.26614141089017" lon="8.652154785264619"><ele>131.25</ele><time>2026-04-10T09:42:42.001Z</time></trkpt><trkpt lat="39.2661794794024" lon="8.652008799774144"><ele>132.0</ele><time>2026-04-10T09:42:43.001Z</time></trkpt><trkpt lat="39.266218758324264" lon="8.651863519480605"><ele>132.75</ele><time>2026-04-10T09:42:44.001Z</time></trkpt><trkpt lat="39.266261648274664" lon="8.651716470534005"><ele>133.5</ele><time>2026-04-10T09:42:45.001Z</time></trkpt><trkpt lat="39.26629794368583" lon="8.651568388613892"><ele>134.25</ele><time>2026-04-10T09:42:46.001Z</time></trkpt><trkpt lat="39.26633218974579" lon="8.651429649268392"><ele>135.0</ele><time>2026-04-10T09:42:47.001Z</time></trkpt><trkpt lat="39.266363361420034" lon="8.651300414142005"><ele>135.0</ele><time>2026-04-10T09:42:48.001Z</time></trkpt><trkpt lat="39.26640772327133" lon="8.651159483734824"><ele>135.0</ele><time>2026-04-10T09:42:49.001Z</time></trkpt><trkpt lat="39.2664630471227" lon="8.650990853513896"><ele>135.0</ele><time>2026-04-10T09:42:50.001Z</time></trkpt><trkpt lat="39.266520955978706" lon="8.65081299025853"><ele>135.0</ele><time>2026-04-10T09:42:51.001Z</time></trkpt><trkpt lat="39.26658120008311" lon="8.650625278585954"><ele>134.33333333333334</ele><time>2026-04-10T09:42:52.001Z</time></trkpt><trkpt lat="39.26664150072232" lon="8.65043468448133"><ele>133.66666666666669</ele><time>2026-04-10T09:42:53.001Z</time></trkpt><trkpt lat="39.266699145766374" lon="8.650255568110635"><ele>133.0</ele><time>2026-04-10T09:42:54.001Z</time></trkpt><trkpt lat="39.26675435996817" lon="8.650084698450334"><ele>132.0</ele><time>2026-04-10T09:42:55.001Z</time></trkpt><trkpt lat="39.26681076343436" lon="8.649920115738603"><ele>131.0</ele><time>2026-04-10T09:42:56.001Z</time></trkpt><trkpt lat="39.26687137882734" lon="8.649764486617945"><ele>130.0</ele><time>2026-04-10T09:42:57.001Z</time></trkpt><trkpt lat="39.26693477295998" lon="8.649597419788458"><ele>129.0</ele><time>2026-04-10T09:42:58.001Z</time></trkpt><trkpt lat="39.26700546885205" lon="8.649407645803713"><ele>128.0</ele><time>2026-04-10T09:42:59.001Z</time></trkpt><trkpt lat="39.26706523780985" lon="8.649209191361548"><ele>127.0</ele><time>2026-04-10T09:43:00.001Z</time></trkpt><trkpt lat="39.267107465346946" lon="8.649018384005196"><ele>126.0</ele><time>2026-04-10T09:43:01.001Z</time></trkpt><trkpt lat="39.26715021012095" lon="8.648845177407491"><ele>126.0</ele><time>2026-04-10T09:43:02.001Z</time></trkpt><trkpt lat="39.26720947582165" lon="8.648685514054405"><ele>126.0</ele><time>2026-04-10T09:43:03.001Z</time></trkpt><trkpt lat="39.26730300720912" lon="8.648517299548443"><ele>126.0</ele><time>2026-04-10T09:43:04.001Z</time></trkpt><trkpt lat="39.26743754240733" lon="8.648329966614817"><ele>124.33333333333334</ele><time>2026-04-10T09:43:05.001Z</time></trkpt><trkpt lat="39.26758891602122" lon="8.648116099678179"><ele>122.66666666666667</ele><time>2026-04-10T09:43:06.001Z</time></trkpt><trkpt lat="39.26772502503209" lon="8.647906437586727"><ele>121.0</ele><time>2026-04-10T09:43:07.001Z</time></trkpt><trkpt lat="39.26784976480697" lon="8.647707818433926"><ele>121.0</ele><time>2026-04-10T09:43:08.001Z</time></trkpt><trkpt lat="39.26796945808758" lon="8.64752110509163"><ele>121.0</ele><time>2026-04-10T09:43:09.001Z</time></trkpt><trkpt lat="39.26807192202998" lon="8.647361995292547"><ele>121.0</ele><time>2026-04-10T09:43:10.001Z</time></trkpt><trkpt lat="39.2681531778689" lon="8.647257207815368"><ele>121.0</ele><time>2026-04-10T09:43:11.001Z</time></trkpt><trkpt lat="39.26822810755543" lon="8.647197389359134"><ele>121.0</ele><time>2026-04-10T09:43:12.001Z</time></trkpt><trkpt lat="39.268325543797964" lon="8.647150604762595"><ele>121.0</ele><time>2026-04-10T09:43:13.001Z</time></trkpt><trkpt lat="39.26847408304276" lon="8.647098176257945"><ele>121.0</ele><time>2026-04-10T09:43:14.001Z</time></trkpt><trkpt lat="39.268658169685615" lon="8.647033927368977"><ele>121.0</ele><time>2026-04-10T09:43:15.001Z</time></trkpt><trkpt lat="39.26885447427279" lon="8.646964002502061"><ele>121.0</ele><time>2026-04-10T09:43:16.001Z</time></trkpt><trkpt lat="39.26904855050521" lon="8.646889739237881"><ele>121.0</ele><time>2026-04-10T09:43:17.001Z</time></trkpt><trkpt lat="39.269241010905944" lon="8.646819178700003"><ele>120.0</ele><time>2026-04-10T09:43:18.001Z</time></trkpt><trkpt lat="39.26944227962911" lon="8.646744315236969"><ele>119.0</ele><time>2026-04-10T09:43:19.001Z</time></trkpt><trkpt lat="39.26962328196052" lon="8.646678459478151"><ele>118.0</ele><time>2026-04-10T09:43:20.001Z</time></trkpt><trkpt lat="39.26979432785221" lon="8.64661535939178"><ele>117.0</ele><time>2026-04-10T09:43:21.001Z</time></trkpt><trkpt lat="39.26995411090156" lon="8.646556329797864"><ele>116.0</ele><time>2026-04-10T09:43:22.001Z</time></trkpt><trkpt lat="39.27010386441262" lon="8.646496124346443"><ele>115.0</ele><time>2026-04-10T09:43:23.001Z</time></trkpt><trkpt lat="39.270242086107636" lon="8.64643270989191"><ele>115.0</ele><time>2026-04-10T09:43:24.001Z</time></trkpt><trkpt lat="39.270370250388304" lon="8.646368246428482"><ele>115.0</ele><time>2026-04-10T09:43:25.001Z</time></trkpt><trkpt lat="39.270481866820774" lon="8.64629675300046"><ele>115.0</ele><time>2026-04-10T09:43:26.001Z</time></trkpt><trkpt lat="39.27059645622279" lon="8.646210565539072"><ele>115.0</ele><time>2026-04-10T09:43:27.001Z</time></trkpt><trkpt lat="39.27072511933289" lon="8.646115595918209"><ele>116.66666666666667</ele><time>2026-04-10T09:43:28.001Z</time></trkpt><trkpt lat="39.27085840772145" lon="8.64601265684149"><ele>118.33333333333334</ele><time>2026-04-10T09:43:29.001Z</time></trkpt><trkpt lat="39.270997991330354" lon="8.645893315152561"><ele>120.0</ele><time>2026-04-10T09:43:30.001Z</time></trkpt><trkpt lat="39.27113631980451" lon="8.645766117842243"><ele>120.0</ele><time>2026-04-10T09:43:31.001Z</time></trkpt><trkpt lat="39.27127222580089" lon="8.6456262931816"><ele>120.0</ele><time>2026-04-10T09:43:32.001Z</time></trkpt><trkpt lat="39.27140565396325" lon="8.64548256950155"><ele>120.0</ele><time>2026-04-10T09:43:33.001Z</time></trkpt><trkpt lat="39.27153908420555" lon="8.645339576750477"><ele>120.0</ele><time>2026-04-10T09:43:34.001Z</time></trkpt><trkpt lat="39.271668165552455" lon="8.645204848158492"><ele>120.0</ele><time>2026-04-10T09:43:35.001Z</time></trkpt><trkpt lat="39.271801004257824" lon="8.64506759841911"><ele>120.0</ele><time>2026-04-10T09:43:36.001Z</time></trkpt><trkpt lat="39.27193493497564" lon="8.644930135471071"><ele>120.0</ele><time>2026-04-10T09:43:37.001Z</time></trkpt><trkpt lat="39.27205956591906" lon="8.644790182688265"><ele>120.0</ele><time>2026-04-10T09:43:38.001Z</time></trkpt><trkpt lat="39.27216267320009" lon="8.644643211387447"><ele>120.0</ele><time>2026-04-10T09:43:39.001Z</time></trkpt><trkpt lat="39.2722340145203" lon="8.64450307834109"><ele>120.0</ele><time>2026-04-10T09:43:40.001Z</time></trkpt><trkpt lat="39.27229145921311" lon="8.644401315496685"><ele>120.33333333333333</ele><time>2026-04-10T09:43:41.001Z</time></trkpt><trkpt lat="39.27235536995114" lon="8.644321782291197"><ele>120.66666666666666</ele><time>2026-04-10T09:43:43.001Z</time></trkpt><trkpt lat="39.27241813278685" lon="8.644355498171143"><ele>121.0</ele><time>2026-04-10T09:43:46.001Z</time></trkpt><trkpt lat="39.27247929061636" lon="8.644383197806164"><ele>121.33333333333333</ele><time>2026-04-10T09:43:49Z</time></trkpt><trkpt lat="39.27255382992867" lon="8.6443651143806"><ele>121.66666666666666</ele><time>2026-04-10T09:43:53Z</time></trkpt><trkpt lat="39.27261897966109" lon="8.644260854707385"><ele>122.0</ele><time>2026-04-10T09:43:55Z</time></trkpt><trkpt lat="39.272626771613766" lon="8.64417211971321"><ele>122.0</ele><time>2026-04-10T09:43:56Z</time></trkpt><trkpt lat="39.27263887724574" lon="8.644062720381637"><ele>121.99999999999999</ele><time>2026-04-10T09:43:57Z</time></trkpt><trkpt lat="39.272657524560074" lon="8.643935344227437"><ele>121.99999999999999</ele><time>2026-04-10T09:43:58Z</time></trkpt><trkpt lat="39.272676376027" lon="8.643795256373869"><ele>122.0</ele><time>2026-04-10T09:43:59Z</time></trkpt><trkpt lat="39.27269407727466" lon="8.643654024666924"><ele>122.0</ele><time>2026-04-10T09:44:00Z</time></trkpt><trkpt lat="39.27270378633896" lon="8.643522030300577"><ele>122.33333333333333</ele><time>2026-04-10T09:44:01Z</time></trkpt><trkpt lat="39.27271207015315" lon="8.64340515782213"><ele>122.66666666666666</ele><time>2026-04-10T09:44:02Z</time></trkpt><trkpt lat="39.27271922028202" lon="8.643315689749835"><ele>123.0</ele><time>2026-04-10T09:44:03Z</time></trkpt><trkpt lat="39.27274332737529" lon="8.64321828083592"><ele>123.33333333333334</ele><time>2026-04-10T09:44:05Z</time></trkpt><trkpt lat="39.27277943849714" lon="8.643138723356028"><ele>123.66666666666667</ele><time>2026-04-10T09:44:08Z</time></trkpt><trkpt lat="39.27285245520381" lon="8.643075181724765"><ele>124.0</ele><time>2026-04-10T09:44:13Z</time></trkpt><trkpt lat="39.272943250595326" lon="8.643002832446621"><ele>124.0</ele><time>2026-04-10T09:44:15Z</time></trkpt><trkpt lat="39.272997601071765" lon="8.64293925831803"><ele>124.0</ele><time>2026-04-10T09:44:16Z</time></trkpt><trkpt lat="39.273076410183094" lon="8.6429117396117"><ele>124.0</ele><time>2026-04-10T09:44:17Z</time></trkpt><trkpt lat="39.27317844192493" lon="8.6428736694862"><ele>124.0</ele><time>2026-04-10T09:44:18Z</time></trkpt><trkpt lat="39.27329161722008" lon="8.642822856798043"><ele>124.0</ele><time>2026-04-10T09:44:19Z</time></trkpt><trkpt lat="39.273407952361794" lon="8.64276292844795"><ele>124.4</ele><time>2026-04-10T09:44:20Z</time></trkpt><trkpt lat="39.273520327011965" lon="8.642705602456282"><ele>124.80000000000001</ele><time>2026-04-10T09:44:21Z</time></trkpt><trkpt lat="39.27363391288636" lon="8.642677341439112"><ele>125.19999999999999</ele><time>2026-04-10T09:44:22Z</time></trkpt><trkpt lat="39.273718749816325" lon="8.642609720824385"><ele>125.6</ele><time>2026-04-10T09:44:23Z</time></trkpt><trkpt lat="39.27380000793754" lon="8.64258647803887"><ele>126.0</ele><time>2026-04-10T09:44:24Z</time></trkpt><trkpt lat="39.27388460101574" lon="8.642643035374762"><ele>125.25</ele><time>2026-04-10T09:44:25Z</time></trkpt><trkpt lat="39.274001451804" lon="8.6426610565265"><ele>124.5</ele><time>2026-04-10T09:44:26Z</time></trkpt><trkpt lat="39.274139919895944" lon="8.6426758198647"><ele>123.75</ele><time>2026-04-10T09:44:27Z</time></trkpt><trkpt lat="39.2742836643675" lon="8.642691145672522"><ele>123.0</ele><time>2026-04-10T09:44:28Z</time></trkpt><trkpt lat="39.27442569024781" lon="8.642707351029753"><ele>123.0</ele><time>2026-04-10T09:44:29Z</time></trkpt><trkpt lat="39.27455842494689" lon="8.642724992985046"><ele>123.0</ele><time>2026-04-10T09:44:30Z</time></trkpt><trkpt lat="39.274690374869394" lon="8.64274251092214"><ele>123.0</ele><time>2026-04-10T09:44:31Z</time></trkpt><trkpt lat="39.274823103047034" lon="8.642764727347757"><ele>123.0</ele><time>2026-04-10T09:44:32Z</time></trkpt><trkpt lat="39.27495404221986" lon="8.642770195090673"><ele>122.5</ele><time>2026-04-10T09:44:33Z</time></trkpt><trkpt lat="39.275090600703166" lon="8.642799438826122"><ele>122.0</ele><time>2026-04-10T09:44:34Z</time></trkpt><trkpt lat="39.27523346862628" lon="8.642850745690584"><ele>121.5</ele><time>2026-04-10T09:44:35.001Z</time></trkpt><trkpt lat="39.275377988716706" lon="8.642881076805084"><ele>121.0</ele><time>2026-04-10T09:44:36.001Z</time></trkpt><trkpt lat="39.275510721721155" lon="8.642911055481715"><ele>120.5</ele><time>2026-04-10T09:44:37.001Z</time></trkpt><trkpt lat="39.275634552164796" lon="8.642941684176627"><ele>120.0</ele><time>2026-04-10T09:44:38.001Z</time></trkpt><trkpt lat="39.275749083614855" lon="8.64296333685973"><ele>119.5</ele><time>2026-04-10T09:44:39.001Z</time></trkpt><trkpt lat="39.275857457026085" lon="8.642996689451953"><ele>119.0</ele><time>2026-04-10T09:44:40.001Z</time></trkpt><trkpt lat="39.27595780373923" lon="8.64303588294344"><ele>118.99999999999999</ele><time>2026-04-10T09:44:41.001Z</time></trkpt><trkpt lat="39.27604459008948" lon="8.643070041300334"><ele>119.0</ele><time>2026-04-10T09:44:42.001Z</time></trkpt><trkpt lat="39.27612061770746" lon="8.643098029210378"><ele>119.0</ele><time>2026-04-10T09:44:43.001Z</time></trkpt><trkpt lat="39.27619238559564" lon="8.6431228849991"><ele>119.0</ele><time>2026-04-10T09:44:44.001Z</time></trkpt><trkpt lat="39.2762844010206" lon="8.643169706451665"><ele>118.99999999999999</ele><time>2026-04-10T09:44:46.001Z</time></trkpt><trkpt lat="39.27634605628226" lon="8.643194468254315"><ele>119.0</ele><time>2026-04-10T09:44:55.001Z</time></trkpt><trkpt lat="39.27641111713532" lon="8.643234289364091"><ele>118.83333333333333</ele><time>2026-04-10T09:44:58.001Z</time></trkpt><trkpt lat="39.27648587885956" lon="8.643249331089764"><ele>118.66666666666666</ele><time>2026-04-10T09:44:59.001Z</time></trkpt><trkpt lat="39.2765745259533" lon="8.643250372945296"><ele>118.5</ele><time>2026-04-10T09:45:00.001Z</time></trkpt><trkpt lat="39.276654052759255" lon="8.643244625220603"><ele>118.33333333333334</ele><time>2026-04-10T09:45:01.001Z</time></trkpt><trkpt lat="39.27672883551512" lon="8.643235013464318"><ele>118.16666666666667</ele><time>2026-04-10T09:45:02.001Z</time></trkpt><trkpt lat="39.276794134386996" lon="8.643224432756654"><ele>118.0</ele><time>2026-04-10T09:45:03.001Z</time></trkpt><trkpt lat="39.27688635152976" lon="8.64321565013201"><ele>118.0</ele><time>2026-04-10T09:45:05.001Z</time></trkpt><trkpt lat="39.27696419307357" lon="8.643203665184721"><ele>118.00000000000001</ele><time>2026-04-10T09:45:07.001Z</time></trkpt><trkpt lat="39.27709157747208" lon="8.643147426909257"><ele>118.00000000000001</ele><time>2026-04-10T09:45:09.001Z</time></trkpt><trkpt lat="39.277145777726275" lon="8.643099595598112"><ele>118.0</ele><time>2026-04-10T09:45:10.001Z</time></trkpt><trkpt lat="39.27723172123048" lon="8.643022920109612"><ele>118.0</ele><time>2026-04-10T09:45:12.001Z</time></trkpt><trkpt lat="39.277338186822455" lon="8.642926530540896"><ele>118.00000000000001</ele><time>2026-04-10T09:45:14.001Z</time></trkpt><trkpt lat="39.27740108892693" lon="8.642867443046105"><ele>118.0</ele><time>2026-04-10T09:45:15.001Z</time></trkpt><trkpt lat="39.277454734714624" lon="8.642806315667986"><ele>118.0</ele><time>2026-04-10T09:45:16.001Z</time></trkpt><trkpt lat="39.27750205232953" lon="8.642744518496096"><ele>118.0</ele><time>2026-04-10T09:45:17.001Z</time></trkpt><trkpt lat="39.277567222457876" lon="8.642656876278307"><ele>118.00000000000001</ele><time>2026-04-10T09:45:19.001Z</time></trkpt><trkpt lat="39.27763052391395" lon="8.642574641929004"><ele>118.0</ele><time>2026-04-10T09:45:22.001Z</time></trkpt><trkpt lat="39.27769287371845" lon="8.642493643859558"><ele>118.2</ele><time>2026-04-10T09:45:24.001Z</time></trkpt><trkpt lat="39.27774693165818" lon="8.642424645915133"><ele>118.4</ele><time>2026-04-10T09:45:25.001Z</time></trkpt><trkpt lat="39.27782360584596" lon="8.642335585232649"><ele>118.60000000000001</ele><time>2026-04-10T09:45:26.001Z</time></trkpt><trkpt lat="39.27791117071641" lon="8.642245019138501"><ele>118.80000000000001</ele><time>2026-04-10T09:45:27.001Z</time></trkpt><trkpt lat="39.27798642755661" lon="8.642175967871731"><ele>119.0</ele><time>2026-04-10T09:45:28.001Z</time></trkpt><trkpt lat="39.27806251803861" lon="8.64211577042993"><ele>118.5</ele><time>2026-04-10T09:45:29.001Z</time></trkpt><trkpt lat="39.27814136955992" lon="8.642056867058132"><ele>118.0</ele><time>2026-04-10T09:45:30.001Z</time></trkpt><trkpt lat="39.27825268178108" lon="8.642072967012373"><ele>117.5</ele><time>2026-04-10T09:45:31.001Z</time></trkpt><trkpt lat="39.278372055613325" lon="8.642067536419018"><ele>117.0</ele><time>2026-04-10T09:45:32.001Z</time></trkpt><trkpt lat="39.27851066898438" lon="8.642065373673587"><ele>117.0</ele><time>2026-04-10T09:45:33.001Z</time></trkpt><trkpt lat="39.27865280721953" lon="8.642063083125265"><ele>117.0</ele><time>2026-04-10T09:45:34.001Z</time></trkpt><trkpt lat="39.27879736211916" lon="8.642060390377285"><ele>117.0</ele><time>2026-04-10T09:45:35.001Z</time></trkpt><trkpt lat="39.27892380446694" lon="8.642059439268152"><ele>117.0</ele><time>2026-04-10T09:45:36.001Z</time></trkpt><trkpt lat="39.279044729983234" lon="8.642059192785663"><ele>116.19999999999999</ele><time>2026-04-10T09:45:37.001Z</time></trkpt><trkpt lat="39.27916048376022" lon="8.642037092672352"><ele>115.39999999999999</ele><time>2026-04-10T09:45:38.001Z</time></trkpt><trkpt lat="39.27926511549225" lon="8.642049056784673"><ele>114.60000000000001</ele><time>2026-04-10T09:45:39.001Z</time></trkpt><trkpt lat="39.27934132000061" lon="8.642046720302615"><ele>113.80000000000001</ele><time>2026-04-10T09:45:40.001Z</time></trkpt><trkpt lat="39.279415749318844" lon="8.642066328854154"><ele>113.0</ele><time>2026-04-10T09:45:42.001Z</time></trkpt><trkpt lat="39.279518374149745" lon="8.642271167704255"><ele>112.99999999999999</ele><time>2026-04-10T09:45:45.001Z</time></trkpt><trkpt lat="39.279567721711196" lon="8.642341575584092"><ele>113.0</ele><time>2026-04-10T09:45:46.001Z</time></trkpt><trkpt lat="39.27968938596547" lon="8.642376373743229"><ele>113.0</ele><time>2026-04-10T09:45:48Z</time></trkpt><trkpt lat="39.27975863703261" lon="8.642336146286802"><ele>113.0</ele><time>2026-04-10T09:45:49Z</time></trkpt><trkpt lat="39.27981417098755" lon="8.642280344011928"><ele>112.99999999999999</ele><time>2026-04-10T09:45:50Z</time></trkpt><trkpt lat="39.279858943305534" lon="8.642205537043747"><ele>113.0</ele><time>2026-04-10T09:45:51Z</time></trkpt><trkpt lat="39.279915340005395" lon="8.642124568665425"><ele>112.4</ele><time>2026-04-10T09:45:52Z</time></trkpt><trkpt lat="39.279988352240956" lon="8.642060679354696"><ele>111.80000000000001</ele><time>2026-04-10T09:45:53Z</time></trkpt><trkpt lat="39.28008440107365" lon="8.642014404672947"><ele>111.2</ele><time>2026-04-10T09:45:54Z</time></trkpt><trkpt lat="39.28020225029135" lon="8.642005530675227"><ele>110.6</ele><time>2026-04-10T09:45:55Z</time></trkpt><trkpt lat="39.28032155734902" lon="8.64200240168909"><ele>110.0</ele><time>2026-04-10T09:45:56Z</time></trkpt><trkpt lat="39.28044940641767" lon="8.641992397400058"><ele>110.0</ele><time>2026-04-10T09:45:57Z</time></trkpt><trkpt lat="39.28056215498433" lon="8.64198143336936"><ele>110.0</ele><time>2026-04-10T09:45:58Z</time></trkpt><trkpt lat="39.28066168769436" lon="8.641978091829738"><ele>110.0</ele><time>2026-04-10T09:45:59Z</time></trkpt><trkpt lat="39.28075494856843" lon="8.641973757929982"><ele>110.0</ele><time>2026-04-10T09:46:00Z</time></trkpt><trkpt lat="39.280840097070985" lon="8.641972990097582"><ele>110.0</ele><time>2026-04-10T09:46:01Z</time></trkpt><trkpt lat="39.2809247567868" lon="8.64196741336078"><ele>109.4</ele><time>2026-04-10T09:46:02Z</time></trkpt><trkpt lat="39.28101461156697" lon="8.641964168276882"><ele>108.8</ele><time>2026-04-10T09:46:03Z</time></trkpt><trkpt lat="39.28111020134856" lon="8.64196593641755"><ele>108.19999999999999</ele><time>2026-04-10T09:46:04Z</time></trkpt><trkpt lat="39.281214067959574" lon="8.64197190251085"><ele>107.6</ele><time>2026-04-10T09:46:05Z</time></trkpt><trkpt lat="39.2813248601888" lon="8.641973131574106"><ele>107.0</ele><time>2026-04-10T09:46:06Z</time></trkpt><trkpt lat="39.28144745146004" lon="8.641970394548784"><ele>106.5</ele><time>2026-04-10T09:46:07Z</time></trkpt><trkpt lat="39.28157342398046" lon="8.641963621525132"><ele>106.0</ele><time>2026-04-10T09:46:08Z</time></trkpt><trkpt lat="39.2817076400519" lon="8.641954935338813"><ele>105.5</ele><time>2026-04-10T09:46:09Z</time></trkpt><trkpt lat="39.281855046108745" lon="8.64194428745347"><ele>105.0</ele><time>2026-04-10T09:46:10Z</time></trkpt><trkpt lat="39.28200134697571" lon="8.641937514173174"><ele>105.0</ele><time>2026-04-10T09:46:11Z</time></trkpt><trkpt lat="39.28214793958705" lon="8.641936561787517"><ele>105.0</ele><time>2026-04-10T09:46:12Z</time></trkpt><trkpt lat="39.28229452577326" lon="8.641931725130492"><ele>105.0</ele><time>2026-04-10T09:46:13Z</time></trkpt><trkpt lat="39.282438518572285" lon="8.641928000074392"><ele>105.0</ele><time>2026-04-10T09:46:14Z</time></trkpt><trkpt lat="39.282577102335495" lon="8.64192445498815"><ele>105.25</ele><time>2026-04-10T09:46:15Z</time></trkpt><trkpt lat="39.28271515851563" lon="8.641919084172985"><ele>105.5</ele><time>2026-04-10T09:46:16Z</time></trkpt><trkpt lat="39.282862627548745" lon="8.641914129245968"><ele>105.75</ele><time>2026-04-10T09:46:17Z</time></trkpt><trkpt lat="39.28302149051131" lon="8.641908110678147"><ele>106.0</ele><time>2026-04-10T09:46:18Z</time></trkpt><trkpt lat="39.28319580932687" lon="8.641903704140184"><ele>106.33333333333334</ele><time>2026-04-10T09:46:19Z</time></trkpt><trkpt lat="39.28337966260811" lon="8.641898593119521"><ele>106.66666666666666</ele><time>2026-04-10T09:46:20Z</time></trkpt><trkpt lat="39.2835701643517" lon="8.64189064156856"><ele>107.0</ele><time>2026-04-10T09:46:21Z</time></trkpt><trkpt lat="39.28376079845299" lon="8.64188128538763"><ele>107.0</ele><time>2026-04-10T09:46:22Z</time></trkpt><trkpt lat="39.28394148637059" lon="8.641878726730875"><ele>107.0</ele><time>2026-04-10T09:46:23Z</time></trkpt><trkpt lat="39.28411345584124" lon="8.641871614441571"><ele>107.0</ele><time>2026-04-10T09:46:24Z</time></trkpt><trkpt lat="39.28427668705214" lon="8.641863337159537"><ele>107.0</ele><time>2026-04-10T09:46:25Z</time></trkpt><trkpt lat="39.28444272329479" lon="8.64185790344811"><ele>107.0</ele><time>2026-04-10T09:46:26Z</time></trkpt><trkpt lat="39.28461157148905" lon="8.641852164228576"><ele>107.0</ele><time>2026-04-10T09:46:27Z</time></trkpt><trkpt lat="39.284782023236794" lon="8.641845546218084"><ele>107.0</ele><time>2026-04-10T09:46:28Z</time></trkpt><trkpt lat="39.28495407121326" lon="8.64183991983739"><ele>107.0</ele><time>2026-04-10T09:46:29Z</time></trkpt><trkpt lat="39.2851287020341" lon="8.641833117795521"><ele>107.0</ele><time>2026-04-10T09:46:30Z</time></trkpt><trkpt lat="39.285298215622035" lon="8.64182495450929"><ele>107.0</ele><time>2026-04-10T09:46:31Z</time></trkpt><trkpt lat="39.28546955607091" lon="8.6418085161479"><ele>107.0</ele><time>2026-04-10T09:46:32Z</time></trkpt><trkpt lat="39.28565470730428" lon="8.641794767659439"><ele>107.0</ele><time>2026-04-10T09:46:33Z</time></trkpt><trkpt lat="39.2858509265458" lon="8.641782665169679"><ele>107.0</ele><time>2026-04-10T09:46:34Z</time></trkpt><trkpt lat="39.28605071618203" lon="8.64177026499104"><ele>107.0</ele><time>2026-04-10T09:46:35Z</time></trkpt><trkpt lat="39.28626243719761" lon="8.64175977962965"><ele>107.0</ele><time>2026-04-10T09:46:36Z</time></trkpt><trkpt lat="39.28648598069245" lon="8.641767091548248"><ele>107.0</ele><time>2026-04-10T09:46:37Z</time></trkpt><trkpt lat="39.28671835547469" lon="8.641758056663706"><ele>107.0</ele><time>2026-04-10T09:46:38Z</time></trkpt><trkpt lat="39.286951055207254" lon="8.641734704194521"><ele>107.0</ele><time>2026-04-10T09:46:39Z</time></trkpt><trkpt lat="39.28717343905415" lon="8.641739231804426"><ele>107.0</ele><time>2026-04-10T09:46:40Z</time></trkpt><trkpt lat="39.2873933256237" lon="8.641738931571773"><ele>107.0</ele><time>2026-04-10T09:46:41Z</time></trkpt><trkpt lat="39.287607976134154" lon="8.641732719277737"><ele>107.0</ele><time>2026-04-10T09:46:42Z</time></trkpt><trkpt lat="39.28781676220557" lon="8.64172283278909"><ele>107.0</ele><time>2026-04-10T09:46:43Z</time></trkpt><trkpt lat="39.28802192472557" lon="8.64171686411474"><ele>107.0</ele><time>2026-04-10T09:46:44Z</time></trkpt><trkpt lat="39.28822723841683" lon="8.641711892094474"><ele>107.0</ele><time>2026-04-10T09:46:45Z</time></trkpt><trkpt lat="39.28843025639469" lon="8.641705986181668"><ele>107.0</ele><time>2026-04-10T09:46:46Z</time></trkpt><trkpt lat="39.288632604284146" lon="8.64169631240349"><ele>107.0</ele><time>2026-04-10T09:46:47Z</time></trkpt><trkpt lat="39.28883801273445" lon="8.641688095112572"><ele>107.33333333333333</ele><time>2026-04-10T09:46:48Z</time></trkpt><trkpt lat="39.28904533140591" lon="8.641682034513513"><ele>107.66666666666666</ele><time>2026-04-10T09:46:49Z</time></trkpt><trkpt lat="39.289250728151245" lon="8.641675375784052"><ele>108.0</ele><time>2026-04-10T09:46:50Z</time></trkpt><trkpt lat="39.28945590058093" lon="8.641666476481081"><ele>108.0</ele><time>2026-04-10T09:46:51Z</time></trkpt><trkpt lat="39.28966137001057" lon="8.641659915269713"><ele>108.0</ele><time>2026-04-10T09:46:52Z</time></trkpt><trkpt lat="39.289864910303635" lon="8.641655805301344"><ele>108.0</ele><time>2026-04-10T09:46:53Z</time></trkpt><trkpt lat="39.290071536242884" lon="8.641646204724125"><ele>108.0</ele><time>2026-04-10T09:46:54Z</time></trkpt><trkpt lat="39.29028004476208" lon="8.641635688475583"><ele>108.0</ele><time>2026-04-10T09:46:55Z</time></trkpt><trkpt lat="39.290488515069896" lon="8.641629160405401"><ele>108.0</ele><time>2026-04-10T09:46:56Z</time></trkpt><trkpt lat="39.290704313459635" lon="8.641619874192076"><ele>108.0</ele><time>2026-04-10T09:46:57Z</time></trkpt><trkpt lat="39.29092342575821" lon="8.64161055306712"><ele>108.0</ele><time>2026-04-10T09:46:58Z</time></trkpt><trkpt lat="39.291142667318525" lon="8.64160308725455"><ele>108.0</ele><time>2026-04-10T09:46:59Z</time></trkpt><trkpt lat="39.29136415512992" lon="8.641596382286165"><ele>108.0</ele><time>2026-04-10T09:47:00Z</time></trkpt><trkpt lat="39.29158721942828" lon="8.641586786976013"><ele>108.0</ele><time>2026-04-10T09:47:01Z</time></trkpt><trkpt lat="39.29181428690803" lon="8.641577764602527"><ele>108.0</ele><time>2026-04-10T09:47:02Z</time></trkpt><trkpt lat="39.292044030250665" lon="8.641568799390724"><ele>108.0</ele><time>2026-04-10T09:47:03Z</time></trkpt><trkpt lat="39.29227401567543" lon="8.641557836414904"><ele>109.0</ele><time>2026-04-10T09:47:04Z</time></trkpt><trkpt lat="39.29250199472203" lon="8.64154510391506"><ele>110.0</ele><time>2026-04-10T09:47:05Z</time></trkpt><trkpt lat="39.29273025200274" lon="8.641535579258692"><ele>110.0</ele><time>2026-04-10T09:47:06Z</time></trkpt><trkpt lat="39.29295576472594" lon="8.64152785164483"><ele>110.0</ele><time>2026-04-10T09:47:07Z</time></trkpt><trkpt lat="39.2931779904642" lon="8.641521852719729"><ele>110.0</ele><time>2026-04-10T09:47:08Z</time></trkpt><trkpt lat="39.2933965442318" lon="8.641512377543725"><ele>110.0</ele><time>2026-04-10T09:47:09Z</time></trkpt><trkpt lat="39.29361307337508" lon="8.641499056640635"><ele>110.0</ele><time>2026-04-10T09:47:10.001Z</time></trkpt><trkpt lat="39.29382898070015" lon="8.641487279530617"><ele>110.0</ele><time>2026-04-10T09:47:11.001Z</time></trkpt><trkpt lat="39.29404193026166" lon="8.64147278201232"><ele>110.0</ele><time>2026-04-10T09:47:12.001Z</time></trkpt><trkpt lat="39.29425335058739" lon="8.641456721567684"><ele>110.0</ele><time>2026-04-10T09:47:13.001Z</time></trkpt><trkpt lat="39.29446817126119" lon="8.641442554437207"><ele>110.0</ele><time>2026-04-10T09:47:14.001Z</time></trkpt><trkpt lat="39.29467858048846" lon="8.641427879309184"><ele>110.0</ele><time>2026-04-10T09:47:15.001Z</time></trkpt><trkpt lat="39.2948896145832" lon="8.641414215715585"><ele>110.0</ele><time>2026-04-10T09:47:16.001Z</time></trkpt><trkpt lat="39.29509713855" lon="8.64139728214437"><ele>110.0</ele><time>2026-04-10T09:47:17.001Z</time></trkpt><trkpt lat="39.29530857112172" lon="8.641386186215872"><ele>110.0</ele><time>2026-04-10T09:47:18.001Z</time></trkpt><trkpt lat="39.29551809383362" lon="8.641374654381314"><ele>110.0</ele><time>2026-04-10T09:47:19.001Z</time></trkpt><trkpt lat="39.29572862536086" lon="8.641361611454046"><ele>110.0</ele><time>2026-04-10T09:47:20.001Z</time></trkpt><trkpt lat="39.29594165426957" lon="8.641348252163661"><ele>110.66666666666666</ele><time>2026-04-10T09:47:21.001Z</time></trkpt><trkpt lat="39.2961575659092" lon="8.641337582582166"><ele>111.33333333333334</ele><time>2026-04-10T09:47:22.001Z</time></trkpt><trkpt lat="39.29637510787993" lon="8.641325462657038"><ele>112.0</ele><time>2026-04-10T09:47:23.001Z</time></trkpt><trkpt lat="39.29659493513869" lon="8.641308545126893"><ele>112.0</ele><time>2026-04-10T09:47:24.001Z</time></trkpt><trkpt lat="39.296813047798274" lon="8.641292387658737"><ele>112.0</ele><time>2026-04-10T09:47:25.001Z</time></trkpt><trkpt lat="39.29703104649006" lon="8.641282651532673"><ele>112.0</ele><time>2026-04-10T09:47:26.001Z</time></trkpt><trkpt lat="39.297248492844254" lon="8.641284994225197"><ele>112.0</ele><time>2026-04-10T09:47:27.001Z</time></trkpt><trkpt lat="39.29746690351711" lon="8.64130483303304"><ele>112.0</ele><time>2026-04-10T09:47:28.001Z</time></trkpt><trkpt lat="39.29768619500338" lon="8.64133734984235"><ele>112.0</ele><time>2026-04-10T09:47:29.001Z</time></trkpt><trkpt lat="39.29791153553814" lon="8.641372098607055"><ele>111.5</ele><time>2026-04-10T09:47:30.001Z</time></trkpt><trkpt lat="39.29813969722417" lon="8.641404147119843"><ele>111.0</ele><time>2026-04-10T09:47:31.001Z</time></trkpt><trkpt lat="39.29836700969484" lon="8.641431360074561"><ele>111.0</ele><time>2026-04-10T09:47:32.001Z</time></trkpt><trkpt lat="39.29859716966917" lon="8.64146105449856"><ele>111.0</ele><time>2026-04-10T09:47:33.001Z</time></trkpt><trkpt lat="39.29882637530576" lon="8.641494726661639"><ele>111.5</ele><time>2026-04-10T09:47:34.001Z</time></trkpt><trkpt lat="39.29905885280807" lon="8.64152783436482"><ele>112.0</ele><time>2026-04-10T09:47:35.001Z</time></trkpt><trkpt lat="39.299292713117474" lon="8.641556207862292"><ele>112.0</ele><time>2026-04-10T09:47:36.001Z</time></trkpt><trkpt lat="39.29953081017063" lon="8.641586635231208"><ele>112.0</ele><time>2026-04-10T09:47:37.001Z</time></trkpt><trkpt lat="39.29976531940301" lon="8.641617530107627"><ele>112.5</ele><time>2026-04-10T09:47:38.001Z</time></trkpt><trkpt lat="39.300001743969034" lon="8.64164938869551"><ele>113.0</ele><time>2026-04-10T09:47:39.001Z</time></trkpt><trkpt lat="39.30023894956617" lon="8.641679592707755"><ele>113.0</ele><time>2026-04-10T09:47:40.001Z</time></trkpt><trkpt lat="39.300477957304224" lon="8.641708550517441"><ele>113.0</ele><time>2026-04-10T09:47:41.001Z</time></trkpt><trkpt lat="39.30071802011941" lon="8.641738791566619"><ele>113.5</ele><time>2026-04-10T09:47:42.001Z</time></trkpt><trkpt lat="39.30095623809843" lon="8.641770778462497"><ele>114.0</ele><time>2026-04-10T09:47:43.001Z</time></trkpt><trkpt lat="39.30119686576067" lon="8.641800909744168"><ele>115.0</ele><time>2026-04-10T09:47:44.001Z</time></trkpt><trkpt lat="39.301438621801786" lon="8.641833218021183"><ele>116.0</ele><time>2026-04-10T09:47:45.001Z</time></trkpt><trkpt lat="39.30168038688122" lon="8.641864364742876"><ele>116.0</ele><time>2026-04-10T09:47:46.001Z</time></trkpt><trkpt lat="39.30192446847732" lon="8.641896411936777"><ele>116.0</ele><time>2026-04-10T09:47:47.001Z</time></trkpt><trkpt lat="39.302165879134726" lon="8.641923966344022"><ele>115.5</ele><time>2026-04-10T09:47:48.001Z</time></trkpt><trkpt lat="39.30240374982333" lon="8.641956400162698"><ele>115.0</ele><time>2026-04-10T09:47:49.001Z</time></trkpt><trkpt lat="39.302627396323885" lon="8.641985513652187"><ele>115.0</ele><time>2026-04-10T09:47:50.001Z</time></trkpt><trkpt lat="39.3028453173529" lon="8.642015526726272"><ele>115.0</ele><time>2026-04-10T09:47:51.001Z</time></trkpt><trkpt lat="39.30306302149982" lon="8.642056697966858"><ele>115.0</ele><time>2026-04-10T09:47:52.001Z</time></trkpt><trkpt lat="39.3032822501424" lon="8.642110043225093"><ele>116.5</ele><time>2026-04-10T09:47:53Z</time></trkpt><trkpt lat="39.3035056702912" lon="8.642179720361073"><ele>118.0</ele><time>2026-04-10T09:47:54Z</time></trkpt><trkpt lat="39.30373025073216" lon="8.642267271546633"><ele>117.5</ele><time>2026-04-10T09:47:55Z</time></trkpt><trkpt lat="39.30394915224136" lon="8.642355913527604"><ele>117.0</ele><time>2026-04-10T09:47:56Z</time></trkpt><trkpt lat="39.30416857586048" lon="8.642448070371742"><ele>117.0</ele><time>2026-04-10T09:47:57Z</time></trkpt><trkpt lat="39.304383030787" lon="8.642547439775264"><ele>117.0</ele><time>2026-04-10T09:47:58Z</time></trkpt><trkpt lat="39.30459130284008" lon="8.642657833694713"><ele>117.0</ele><time>2026-04-10T09:47:59Z</time></trkpt><trkpt lat="39.304797842471686" lon="8.64277423625106"><ele>117.0</ele><time>2026-04-10T09:48:00Z</time></trkpt><trkpt lat="39.305001563895146" lon="8.642885703771292"><ele>117.0</ele><time>2026-04-10T09:48:01Z</time></trkpt><trkpt lat="39.305209295326684" lon="8.642994490910755"><ele>117.0</ele><time>2026-04-10T09:48:02Z</time></trkpt><trkpt lat="39.305417221551544" lon="8.64310541045618"><ele>117.0</ele><time>2026-04-10T09:48:03Z</time></trkpt><trkpt lat="39.305624357603484" lon="8.643214971488174"><ele>117.0</ele><time>2026-04-10T09:48:04Z</time></trkpt><trkpt lat="39.305826699239354" lon="8.643321980560684"><ele>117.66666666666666</ele><time>2026-04-10T09:48:05Z</time></trkpt><trkpt lat="39.30602590827939" lon="8.643424497077376"><ele>118.33333333333333</ele><time>2026-04-10T09:48:06Z</time></trkpt><trkpt lat="39.30622247356962" lon="8.643527691923213"><ele>119.0</ele><time>2026-04-10T09:48:07Z</time></trkpt><trkpt lat="39.306417516430926" lon="8.643625809750537"><ele>119.66666666666666</ele><time>2026-04-10T09:48:08Z</time></trkpt><trkpt lat="39.30660631356194" lon="8.643722634955358"><ele>120.33333333333334</ele><time>2026-04-10T09:48:09Z</time></trkpt><trkpt lat="39.306793764250465" lon="8.643822415074656"><ele>121.0</ele><time>2026-04-10T09:48:10Z</time></trkpt><trkpt lat="39.3069764678315" lon="8.643922711450895"><ele>121.0</ele><time>2026-04-10T09:48:11Z</time></trkpt><trkpt lat="39.30714501510386" lon="8.644006468212595"><ele>121.0</ele><time>2026-04-10T09:48:12Z</time></trkpt><trkpt lat="39.307298885737424" lon="8.644084073353742"><ele>121.0</ele><time>2026-04-10T09:48:13Z</time></trkpt><trkpt lat="39.307449880891646" lon="8.644149709821779"><ele>121.66666666666667</ele><time>2026-04-10T09:48:14Z</time></trkpt><trkpt lat="39.307596293465416" lon="8.644208556339402"><ele>122.33333333333334</ele><time>2026-04-10T09:48:15Z</time></trkpt><trkpt lat="39.30774367279811" lon="8.644251474040725"><ele>123.0</ele><time>2026-04-10T09:48:16Z</time></trkpt><trkpt lat="39.30790500743377" lon="8.64427794066928"><ele>123.0</ele><time>2026-04-10T09:48:17Z</time></trkpt><trkpt lat="39.30807116350203" lon="8.644286877951009"><ele>123.0</ele><time>2026-04-10T09:48:18Z</time></trkpt><trkpt lat="39.30823094744789" lon="8.644282783428931"><ele>123.0</ele><time>2026-04-10T09:48:19Z</time></trkpt><trkpt lat="39.30837772998724" lon="8.644269382163912"><ele>122.75</ele><time>2026-04-10T09:48:20Z</time></trkpt><trkpt lat="39.30852288724254" lon="8.644264834813022"><ele>122.5</ele><time>2026-04-10T09:48:21Z</time></trkpt><trkpt lat="39.30866762149113" lon="8.644262713477982"><ele>122.25</ele><time>2026-04-10T09:48:22Z</time></trkpt><trkpt lat="39.30881474433362" lon="8.644259658915812"><ele>122.0</ele><time>2026-04-10T09:48:23Z</time></trkpt><trkpt lat="39.30896707055945" lon="8.644259489184464"><ele>121.66666666666666</ele><time>2026-04-10T09:48:24Z</time></trkpt><trkpt lat="39.30911869912054" lon="8.644269422566841"><ele>121.33333333333334</ele><time>2026-04-10T09:48:25Z</time></trkpt><trkpt lat="39.30927462293939" lon="8.644282898626498"><ele>121.0</ele><time>2026-04-10T09:48:26Z</time></trkpt><trkpt lat="39.30942734993313" lon="8.64430538109494"><ele>121.0</ele><time>2026-04-10T09:48:27Z</time></trkpt><trkpt lat="39.30957550075267" lon="8.6443269149766"><ele>121.0</ele><time>2026-04-10T09:48:28Z</time></trkpt><trkpt lat="39.30972320383024" lon="8.644346449949902"><ele>121.0</ele><time>2026-04-10T09:48:29Z</time></trkpt><trkpt lat="39.309870949462805" lon="8.644365300670113"><ele>121.0</ele><time>2026-04-10T09:48:30Z</time></trkpt><trkpt lat="39.310016170617565" lon="8.644388050735396"><ele>121.5</ele><time>2026-04-10T09:48:31Z</time></trkpt><trkpt lat="39.31015899129274" lon="8.644410800728174"><ele>122.0</ele><time>2026-04-10T09:48:32Z</time></trkpt><trkpt lat="39.310302012182994" lon="8.644422836911696"><ele>122.5</ele><time>2026-04-10T09:48:33Z</time></trkpt><trkpt lat="39.31044515773059" lon="8.644427031046764"><ele>123.0</ele><time>2026-04-10T09:48:34Z</time></trkpt><trkpt lat="39.31058806628533" lon="8.644430697888806"><ele>123.0</ele><time>2026-04-10T09:48:35Z</time></trkpt><trkpt lat="39.31072721453114" lon="8.644431170052831"><ele>123.0</ele><time>2026-04-10T09:48:36Z</time></trkpt><trkpt lat="39.31086809831047" lon="8.644435396803086"><ele>123.0</ele><time>2026-04-10T09:48:37Z</time></trkpt><trkpt lat="39.311009649300814" lon="8.64444142554688"><ele>123.0</ele><time>2026-04-10T09:48:38Z</time></trkpt><trkpt lat="39.311152806252956" lon="8.644446815396867"><ele>123.0</ele><time>2026-04-10T09:48:39Z</time></trkpt><trkpt lat="39.31129795731378" lon="8.644445233636445"><ele>123.0</ele><time>2026-04-10T09:48:40Z</time></trkpt><trkpt lat="39.31144321982033" lon="8.6444458836293"><ele>123.0</ele><time>2026-04-10T09:48:41Z</time></trkpt><trkpt lat="39.31159362556001" lon="8.644449279672983"><ele>123.0</ele><time>2026-04-10T09:48:42Z</time></trkpt><trkpt lat="39.31174809958411" lon="8.644450216065396"><ele>124.0</ele><time>2026-04-10T09:48:43Z</time></trkpt><trkpt lat="39.311911983419535" lon="8.644452525538357"><ele>125.0</ele><time>2026-04-10T09:48:44Z</time></trkpt><trkpt lat="39.31209344659755" lon="8.64445672662384"><ele>126.0</ele><time>2026-04-10T09:48:45Z</time></trkpt><trkpt lat="39.31228341685063" lon="8.644457687365808"><ele>126.66666666666666</ele><time>2026-04-10T09:48:46Z</time></trkpt><trkpt lat="39.31247765600996" lon="8.644456285768856"><ele>127.33333333333333</ele><time>2026-04-10T09:48:47Z</time></trkpt><trkpt lat="39.31268382086344" lon="8.644451401787625"><ele>128.0</ele><time>2026-04-10T09:48:48Z</time></trkpt><trkpt lat="39.312895228987124" lon="8.644442165273194"><ele>128.33333333333331</ele><time>2026-04-10T09:48:49Z</time></trkpt><trkpt lat="39.31311317008809" lon="8.644428628290473"><ele>128.66666666666666</ele><time>2026-04-10T09:48:50Z</time></trkpt><trkpt lat="39.31333489528824" lon="8.644407177041167"><ele>129.0</ele><time>2026-04-10T09:48:51Z</time></trkpt><trkpt lat="39.31355960894661" lon="8.64437312838855"><ele>129.0</ele><time>2026-04-10T09:48:52Z</time></trkpt><trkpt lat="39.313799709721835" lon="8.6443305549164"><ele>129.0</ele><time>2026-04-10T09:48:53Z</time></trkpt><trkpt lat="39.31404084717358" lon="8.644290335744042"><ele>129.5</ele><time>2026-04-10T09:48:54Z</time></trkpt><trkpt lat="39.3142834025373" lon="8.644247066995067"><ele>130.0</ele><time>2026-04-10T09:48:55Z</time></trkpt><trkpt lat="39.314519460592024" lon="8.644208718740469"><ele>130.0</ele><time>2026-04-10T09:48:56Z</time></trkpt><trkpt lat="39.31474201430008" lon="8.644177557899782"><ele>130.0</ele><time>2026-04-10T09:48:57Z</time></trkpt><trkpt lat="39.31495410395565" lon="8.644164360431578"><ele>130.0</ele><time>2026-04-10T09:48:58Z</time></trkpt><trkpt lat="39.315154381471366" lon="8.644194342259516"><ele>130.0</ele><time>2026-04-10T09:48:59Z</time></trkpt><trkpt lat="39.31534700433371" lon="8.6442044378266"><ele>130.0</ele><time>2026-04-10T09:49:00Z</time></trkpt><trkpt lat="39.31552751073779" lon="8.64425746390939"><ele>130.0</ele><time>2026-04-10T09:49:01Z</time></trkpt><trkpt lat="39.3156973721221" lon="8.644316178287784"><ele>130.33333333333334</ele><time>2026-04-10T09:49:02Z</time></trkpt><trkpt lat="39.31585455439541" lon="8.644378838975797"><ele>130.66666666666666</ele><time>2026-04-10T09:49:03Z</time></trkpt><trkpt lat="39.316000107582106" lon="8.644427242559598"><ele>131.0</ele><time>2026-04-10T09:49:04.001Z</time></trkpt><trkpt lat="39.31614481427811" lon="8.644463893359337"><ele>130.75</ele><time>2026-04-10T09:49:05.001Z</time></trkpt><trkpt lat="39.31628791515688" lon="8.644484261766175"><ele>130.5</ele><time>2026-04-10T09:49:06.001Z</time></trkpt><trkpt lat="39.31643767582497" lon="8.644479526286336"><ele>130.25</ele><time>2026-04-10T09:49:07.001Z</time></trkpt><trkpt lat="39.316589391397066" lon="8.644453085990992"><ele>130.0</ele><time>2026-04-10T09:49:08.001Z</time></trkpt><trkpt lat="39.31674745245932" lon="8.644420521257288"><ele>131.0</ele><time>2026-04-10T09:49:09.001Z</time></trkpt><trkpt lat="39.31690944739137" lon="8.644390484859642"><ele>132.0</ele><time>2026-04-10T09:49:10.001Z</time></trkpt><trkpt lat="39.31707987701871" lon="8.644361997007582"><ele>133.0</ele><time>2026-04-10T09:49:11.001Z</time></trkpt><trkpt lat="39.31724782409735" lon="8.644333258550017"><ele>133.33333333333334</ele><time>2026-04-10T09:49:12.001Z</time></trkpt><trkpt lat="39.3174119566494" lon="8.644300692565988"><ele>133.66666666666666</ele><time>2026-04-10T09:49:13.001Z</time></trkpt><trkpt lat="39.31757346746465" lon="8.644261313604964"><ele>134.0</ele><time>2026-04-10T09:49:14.001Z</time></trkpt><trkpt lat="39.31771873764183" lon="8.644206318534675"><ele>134.0</ele><time>2026-04-10T09:49:15.001Z</time></trkpt><trkpt lat="39.31786103440983" lon="8.644150474197227"><ele>134.0</ele><time>2026-04-10T09:49:16.001Z</time></trkpt><trkpt lat="39.317988639325314" lon="8.644060158117018"><ele>134.0</ele><time>2026-04-10T09:49:17.001Z</time></trkpt><trkpt lat="39.3181050942566" lon="8.643940552196906"><ele>134.0</ele><time>2026-04-10T09:49:18.001Z</time></trkpt><trkpt lat="39.31822705002733" lon="8.64382584572385"><ele>133.66666666666666</ele><time>2026-04-10T09:49:19.001Z</time></trkpt><trkpt lat="39.318344459894675" lon="8.643707527936247"><ele>133.33333333333334</ele><time>2026-04-10T09:49:20.001Z</time></trkpt><trkpt lat="39.31847370826336" lon="8.643580213978744"><ele>133.0</ele><time>2026-04-10T09:49:21.001Z</time></trkpt><trkpt lat="39.31860103659021" lon="8.64345504382203"><ele>133.0</ele><time>2026-04-10T09:49:22.001Z</time></trkpt><trkpt lat="39.31873086269913" lon="8.643326961413228"><ele>133.0</ele><time>2026-04-10T09:49:23.001Z</time></trkpt><trkpt lat="39.318862578876484" lon="8.643199887875712"><ele>133.0</ele><time>2026-04-10T09:49:24.001Z</time></trkpt><trkpt lat="39.31898488645487" lon="8.643082685600467"><ele>133.4</ele><time>2026-04-10T09:49:25.001Z</time></trkpt><trkpt lat="39.31909457112925" lon="8.64297625093609"><ele>133.8</ele><time>2026-04-10T09:49:26.001Z</time></trkpt><trkpt lat="39.31919829941074" lon="8.642893309976534"><ele>134.2</ele><time>2026-04-10T09:49:27.001Z</time></trkpt><trkpt lat="39.319291960200644" lon="8.642854404302156"><ele>134.6</ele><time>2026-04-10T09:49:28.001Z</time></trkpt><trkpt lat="39.31937784231865" lon="8.642839693808757"><ele>135.0</ele><time>2026-04-10T09:49:29.001Z</time></trkpt><trkpt lat="39.319513286336516" lon="8.642997032923454"><ele>135.0</ele><time>2026-04-10T09:49:31.001Z</time></trkpt><trkpt lat="39.31957863307766" lon="8.643060387272618"><ele>135.0</ele><time>2026-04-10T09:49:32.001Z</time></trkpt><trkpt lat="39.31959639444895" lon="8.64322968307036"><ele>135.0</ele><time>2026-04-10T09:49:33.001Z</time></trkpt><trkpt lat="39.31963146204244" lon="8.643377193430181"><ele>135.0</ele><time>2026-04-10T09:49:34.001Z</time></trkpt><trkpt lat="39.31967190818045" lon="8.64350559698648"><ele>135.0</ele><time>2026-04-10T09:49:35.001Z</time></trkpt><trkpt lat="39.31971041899587" lon="8.643629056461881"><ele>135.66666666666666</ele><time>2026-04-10T09:49:36.001Z</time></trkpt><trkpt lat="39.31974538613932" lon="8.643741286930638"><ele>136.33333333333334</ele><time>2026-04-10T09:49:37.001Z</time></trkpt><trkpt lat="39.31977888958444" lon="8.643837456420389"><ele>137.0</ele><time>2026-04-10T09:49:38.001Z</time></trkpt><trkpt lat="39.31980727198637" lon="8.643915552901174"><ele>137.66666666666669</ele><time>2026-04-10T09:49:39.001Z</time></trkpt><trkpt lat="39.31987104106803" lon="8.643985013768038"><ele>138.33333333333334</ele><time>2026-04-10T09:49:41.001Z</time></trkpt><trkpt lat="39.319835146810384" lon="8.64410299213292"><ele>139.0</ele><time>2026-04-10T09:49:44.001Z</time></trkpt><trkpt lat="39.31994594712474" lon="8.644103824360204"><ele>139.0</ele><time>2026-04-10T09:49:45.001Z</time></trkpt><trkpt lat="39.320019118523504" lon="8.64410163271376"><ele>139.0</ele><time>2026-04-10T09:51:42.001Z</time></trkpt><trkpt lat="39.32008195266251" lon="8.644088214373383"><ele>139.0</ele><time>2026-04-10T09:51:58.001Z</time></trkpt><trkpt lat="39.32014243119501" lon="8.643959444415348"><ele>139.0</ele><time>2026-04-10T10:02:42Z</time></trkpt><trkpt lat="39.320052154180104" lon="8.644047176195524"><ele>139.0</ele><time>2026-04-10T10:03:28Z</time></trkpt><trkpt lat="39.320128469073474" lon="8.64402243192436"><ele>139.0</ele><time>2026-04-10T10:04:21Z</time></trkpt><trkpt lat="39.31999053737645" lon="8.64417495301647"><ele>139.0</ele><time>2026-04-10T10:09:32.531Z</time></trkpt><trkpt lat="39.320040436372146" lon="8.64411880735358"><ele>139.0</ele><time>2026-04-10T10:10:49Z</time></trkpt><trkpt lat="39.320097741907155" lon="8.644058259263277"><ele>139.0</ele><time>2026-04-10T10:10:55Z</time></trkpt><trkpt lat="39.32003229482536" lon="8.644068948671903"><ele>139.0</ele><time>2026-04-10T10:13:44Z</time></trkpt><trkpt lat="39.31998184836739" lon="8.6441240240123"><ele>139.0</ele><time>2026-04-10T10:13:59Z</time></trkpt><trkpt lat="39.3200221865156" lon="8.644241747424182"><ele>139.0</ele><time>2026-04-10T10:17:14.001Z</time></trkpt><trkpt lat="39.31996156612906" lon="8.644306045025532"><ele>139.0</ele><time>2026-04-10T10:17:19Z</time></trkpt><trkpt lat="39.31995277382287" lon="8.644408848529627"><ele>139.0</ele><time>2026-04-10T10:17:21Z</time></trkpt><trkpt lat="39.319973527796435" lon="8.644493190754925"><ele>139.0</ele><time>2026-04-10T10:17:25Z</time></trkpt><trkpt lat="39.32007878016117" lon="8.6446426570968"><ele>139.0</ele><time>2026-04-10T10:17:50Z</time></trkpt><trkpt lat="39.320093128988596" lon="8.644745249139778"><ele>139.0</ele><time>2026-04-10T10:17:51Z</time></trkpt><trkpt lat="39.320113095425995" lon="8.644839559455614"><ele>138.8</ele><time>2026-04-10T10:17:52Z</time></trkpt><trkpt lat="39.32009785413724" lon="8.644977069467148"><ele>138.60000000000002</ele><time>2026-04-10T10:17:54Z</time></trkpt><trkpt lat="39.32013850744654" lon="8.645111253996735"><ele>138.4</ele><time>2026-04-10T10:17:56Z</time></trkpt><trkpt lat="39.32016382912663" lon="8.64519563870742"><ele>138.20000000000002</ele><time>2026-04-10T10:17:57Z</time></trkpt><trkpt lat="39.320212270648454" lon="8.645309910290525"><ele>138.0</ele><time>2026-04-10T10:17:59Z</time></trkpt><trkpt lat="39.3202509682994" lon="8.645430753447693"><ele>137.6</ele><time>2026-04-10T10:18:01Z</time></trkpt><trkpt lat="39.3202703527638" lon="8.64554505778175"><ele>137.20000000000002</ele><time>2026-04-10T10:18:03Z</time></trkpt><trkpt lat="39.320306478686625" lon="8.645666016571688"><ele>136.8</ele><time>2026-04-10T10:18:05Z</time></trkpt><trkpt lat="39.32034476628921" lon="8.645794213237012"><ele>136.4</ele><time>2026-04-10T10:18:07Z</time></trkpt><trkpt lat="39.32038752489" lon="8.645937379920184"><ele>136.0</ele><time>2026-04-10T10:18:09Z</time></trkpt><trkpt lat="39.32042870998649" lon="8.64608564168022"><ele>136.16666666666669</ele><time>2026-04-10T10:18:11Z</time></trkpt><trkpt lat="39.320485348664995" lon="8.646231843642589"><ele>136.33333333333334</ele><time>2026-04-10T10:18:13Z</time></trkpt><trkpt lat="39.32049358983612" lon="8.64631514473694"><ele>136.5</ele><time>2026-04-10T10:18:14Z</time></trkpt><trkpt lat="39.320517560045886" lon="8.646394592645496"><ele>136.66666666666666</ele><time>2026-04-10T10:18:15Z</time></trkpt><trkpt lat="39.320544456131415" lon="8.646481846805537"><ele>136.83333333333331</ele><time>2026-04-10T10:18:16Z</time></trkpt><trkpt lat="39.3205877407269" lon="8.646575741321259"><ele>137.0</ele><time>2026-04-10T10:18:17Z</time></trkpt><trkpt lat="39.32062569945039" lon="8.646688927516992"><ele>137.4</ele><time>2026-04-10T10:18:18Z</time></trkpt><trkpt lat="39.32065527093693" lon="8.646815825251327"><ele>137.79999999999998</ele><time>2026-04-10T10:18:19Z</time></trkpt><trkpt lat="39.32069234836783" lon="8.646939210988709"><ele>138.2</ele><time>2026-04-10T10:18:20Z</time></trkpt><trkpt lat="39.32073262753914" lon="8.647058057248154"><ele>138.6</ele><time>2026-04-10T10:18:21Z</time></trkpt><trkpt lat="39.320767096943314" lon="8.647175917835437"><ele>139.0</ele><time>2026-04-10T10:18:22Z</time></trkpt><trkpt lat="39.32079677227921" lon="8.647283751596492"><ele>140.0</ele><time>2026-04-10T10:18:23Z</time></trkpt><trkpt lat="39.32082786675557" lon="8.64740164413487"><ele>141.0</ele><time>2026-04-10T10:18:24Z</time></trkpt><trkpt lat="39.32086024197706" lon="8.647526276313231"><ele>142.0</ele><time>2026-04-10T10:18:25Z</time></trkpt><trkpt lat="39.32089142801856" lon="8.647653513368853"><ele>143.0</ele><time>2026-04-10T10:18:26Z</time></trkpt><trkpt lat="39.32090249162397" lon="8.647796844331742"><ele>144.0</ele><time>2026-04-10T10:18:27Z</time></trkpt><trkpt lat="39.320935967233126" lon="8.647925118710262"><ele>144.0</ele><time>2026-04-10T10:18:28Z</time></trkpt><trkpt lat="39.32094994008931" lon="8.648053427794785"><ele>144.0</ele><time>2026-04-10T10:18:29Z</time></trkpt><trkpt lat="39.32093860145276" lon="8.648169567393369"><ele>144.0</ele><time>2026-04-10T10:18:30Z</time></trkpt><trkpt lat="39.32093743954273" lon="8.648272401209208"><ele>144.0</ele><time>2026-04-10T10:18:31.001Z</time></trkpt><trkpt lat="39.32093501443453" lon="8.648374177198058"><ele>144.0</ele><time>2026-04-10T10:18:32.001Z</time></trkpt><trkpt lat="39.32092853307927" lon="8.648505189083737"><ele>144.25</ele><time>2026-04-10T10:18:33.001Z</time></trkpt><trkpt lat="39.320919314167675" lon="8.648676696872267"><ele>144.5</ele><time>2026-04-10T10:18:34.001Z</time></trkpt><trkpt lat="39.32091093040016" lon="8.64882592714666"><ele>144.75</ele><time>2026-04-10T10:18:35.001Z</time></trkpt><trkpt lat="39.32090260969106" lon="8.648971790181415"><ele>145.0</ele><time>2026-04-10T10:18:36.001Z</time></trkpt><trkpt lat="39.32089552075364" lon="8.649107385349318"><ele>145.0</ele><time>2026-04-10T10:18:37.001Z</time></trkpt><trkpt lat="39.32090611715695" lon="8.649231670912254"><ele>145.0</ele><time>2026-04-10T10:18:38.001Z</time></trkpt><trkpt lat="39.32088601498813" lon="8.649339014971805"><ele>145.0</ele><time>2026-04-10T10:18:39.001Z</time></trkpt><trkpt lat="39.32088492564169" lon="8.64942339626353"><ele>145.0</ele><time>2026-04-10T10:18:40.001Z</time></trkpt><trkpt lat="39.32089666049724" lon="8.649562804220738"><ele>145.0</ele><time>2026-04-10T10:18:42.001Z</time></trkpt><trkpt lat="39.320916251009415" lon="8.649689634583169"><ele>144.75</ele><time>2026-04-10T10:18:43.001Z</time></trkpt><trkpt lat="39.32092102709394" lon="8.649842787648039"><ele>144.5</ele><time>2026-04-10T10:18:44.001Z</time></trkpt><trkpt lat="39.32094342240519" lon="8.650005936006806"><ele>144.25</ele><time>2026-04-10T10:18:45.001Z</time></trkpt><trkpt lat="39.3209745264012" lon="8.650166574087068"><ele>144.0</ele><time>2026-04-10T10:18:46.001Z</time></trkpt><trkpt lat="39.321007049197924" lon="8.650322526407516"><ele>143.8</ele><time>2026-04-10T10:18:47.001Z</time></trkpt><trkpt lat="39.321039945165516" lon="8.650468084883997"><ele>143.60000000000002</ele><time>2026-04-10T10:18:48.001Z</time></trkpt><trkpt lat="39.321067766803786" lon="8.650600437271814"><ele>143.4</ele><time>2026-04-10T10:18:49.001Z</time></trkpt><trkpt lat="39.32109366936302" lon="8.65072366025433"><ele>143.20000000000002</ele><time>2026-04-10T10:18:50.001Z</time></trkpt><trkpt lat="39.3211215826215" lon="8.650856448496109"><ele>143.0</ele><time>2026-04-10T10:18:51.001Z</time></trkpt><trkpt lat="39.321149678940806" lon="8.650990107584397"><ele>143.0</ele><time>2026-04-10T10:18:52.001Z</time></trkpt><trkpt lat="39.321174027459335" lon="8.651110094049258"><ele>143.0</ele><time>2026-04-10T10:18:53.001Z</time></trkpt><trkpt lat="39.32119279837018" lon="8.651219327022869"><ele>143.0</ele><time>2026-04-10T10:18:54.001Z</time></trkpt><trkpt lat="39.32121034675054" lon="8.651324787965308"><ele>143.0</ele><time>2026-04-10T10:18:55.001Z</time></trkpt><trkpt lat="39.321232494056446" lon="8.651429874489496"><ele>143.0</ele><time>2026-04-10T10:18:56.001Z</time></trkpt><trkpt lat="39.321254612597656" lon="8.651528928652814"><ele>143.0</ele><time>2026-04-10T10:18:57.001Z</time></trkpt><trkpt lat="39.32127609644703" lon="8.651625140421086"><ele>143.0</ele><time>2026-04-10T10:18:58.001Z</time></trkpt><trkpt lat="39.321297462045024" lon="8.651723159474095"><ele>143.0</ele><time>2026-04-10T10:18:59.001Z</time></trkpt><trkpt lat="39.32131772681222" lon="8.651816853909294"><ele>143.0</ele><time>2026-04-10T10:19:00.001Z</time></trkpt><trkpt lat="39.32133949887381" lon="8.651917517321403"><ele>143.0</ele><time>2026-04-10T10:19:01.001Z</time></trkpt><trkpt lat="39.32136247954918" lon="8.652022447323626"><ele>143.0</ele><time>2026-04-10T10:19:02.001Z</time></trkpt><trkpt lat="39.321385875489426" lon="8.652124893191134"><ele>143.0</ele><time>2026-04-10T10:19:03.001Z</time></trkpt><trkpt lat="39.32140995965138" lon="8.652230352639585"><ele>143.0</ele><time>2026-04-10T10:19:04.001Z</time></trkpt><trkpt lat="39.32143172397716" lon="8.652326102408962"><ele>143.0</ele><time>2026-04-10T10:19:05.001Z</time></trkpt><trkpt lat="39.32146457799056" lon="8.65247718145811"><ele>143.0</ele><time>2026-04-10T10:19:07.001Z</time></trkpt><trkpt lat="39.321494347574124" lon="8.652614076772194"><ele>143.0</ele><time>2026-04-10T10:19:09.001Z</time></trkpt><trkpt lat="39.32151819845409" lon="8.65271891364514"><ele>143.0</ele><time>2026-04-10T10:19:10.001Z</time></trkpt><trkpt lat="39.32153904947969" lon="8.652810211642986"><ele>142.83333333333331</ele><time>2026-04-10T10:19:11.001Z</time></trkpt><trkpt lat="39.32155709518213" lon="8.652889226023866"><ele>142.66666666666666</ele><time>2026-04-10T10:19:12.001Z</time></trkpt><trkpt lat="39.32158380173235" lon="8.652969501289556"><ele>142.5</ele><time>2026-04-10T10:19:13.001Z</time></trkpt><trkpt lat="39.32160590084972" lon="8.653049783232609"><ele>142.33333333333334</ele><time>2026-04-10T10:19:14.001Z</time></trkpt><trkpt lat="39.32164201978168" lon="8.6532033707024"><ele>142.16666666666669</ele><time>2026-04-10T10:19:16.001Z</time></trkpt><trkpt lat="39.321663504231545" lon="8.653301456476244"><ele>142.0</ele><time>2026-04-10T10:19:17.001Z</time></trkpt><trkpt lat="39.321685915889475" lon="8.653406266952592"><ele>142.0</ele><time>2026-04-10T10:19:18.001Z</time></trkpt><trkpt lat="39.32170834935827" lon="8.653514669617715"><ele>142.0</ele><time>2026-04-10T10:19:19.001Z</time></trkpt><trkpt lat="39.32172620309377" lon="8.653602279874661"><ele>142.0</ele><time>2026-04-10T10:19:20.001Z</time></trkpt><trkpt lat="39.321743032433254" lon="8.65368486328887"><ele>142.0</ele><time>2026-04-10T10:19:21.001Z</time></trkpt><trkpt lat="39.32180037259578" lon="8.65381984050901"><ele>142.0</ele><time>2026-04-10T10:19:23Z</time></trkpt><trkpt lat="39.321816173713636" lon="8.65397025906357"><ele>141.83333333333334</ele><time>2026-04-10T10:19:25Z</time></trkpt><trkpt lat="39.32183730131236" lon="8.654112108542378"><ele>141.66666666666669</ele><time>2026-04-10T10:19:27Z</time></trkpt><trkpt lat="39.321868302192996" lon="8.65424826607841"><ele>141.5</ele><time>2026-04-10T10:19:29Z</time></trkpt><trkpt lat="39.321888066741884" lon="8.654326681463482"><ele>141.33333333333334</ele><time>2026-04-10T10:19:30Z</time></trkpt><trkpt lat="39.32190760124521" lon="8.654407468053419"><ele>141.16666666666666</ele><time>2026-04-10T10:19:31Z</time></trkpt><trkpt lat="39.321926493357424" lon="8.654495191690517"><ele>141.0</ele><time>2026-04-10T10:19:32Z</time></trkpt><trkpt lat="39.32194756767135" lon="8.654585109695825"><ele>141.0</ele><time>2026-04-10T10:19:33Z</time></trkpt><trkpt lat="39.32196764664045" lon="8.654678389609787"><ele>141.0</ele><time>2026-04-10T10:19:34Z</time></trkpt><trkpt lat="39.321991419706876" lon="8.654770656098474"><ele>141.0</ele><time>2026-04-10T10:19:35Z</time></trkpt><trkpt lat="39.322011379146886" lon="8.654861601331842"><ele>141.0</ele><time>2026-04-10T10:19:36Z</time></trkpt><trkpt lat="39.32203336270274" lon="8.654963753909492"><ele>141.0</ele><time>2026-04-10T10:19:37Z</time></trkpt><trkpt lat="39.322060978007926" lon="8.655085930079016"><ele>141.0</ele><time>2026-04-10T10:19:38Z</time></trkpt><trkpt lat="39.322097770233825" lon="8.655251274548359"><ele>139.0</ele><time>2026-04-10T10:19:39Z</time></trkpt><trkpt lat="39.32213994432002" lon="8.655498245694929"><ele>137.0</ele><time>2026-04-10T10:19:40Z</time></trkpt><trkpt lat="39.32220846510992" lon="8.65579704405955"><ele>135.0</ele><time>2026-04-10T10:19:41Z</time></trkpt><trkpt lat="39.322280729071764" lon="8.65612574198939"><ele>132.5</ele><time>2026-04-10T10:19:42Z</time></trkpt><trkpt lat="39.32235457370783" lon="8.656469003484249"><ele>130.0</ele><time>2026-04-10T10:19:43Z</time></trkpt><trkpt lat="39.322436415435554" lon="8.656834420378779"><ele>128.5</ele><time>2026-04-10T10:19:44Z</time></trkpt><trkpt lat="39.32251096241961" lon="8.657172531602008"><ele>127.0</ele><time>2026-04-10T10:19:45Z</time></trkpt><trkpt lat="39.322579816035564" lon="8.657485751336019"><ele>127.0</ele><time>2026-04-10T10:19:46Z</time></trkpt><trkpt lat="39.32264224374933" lon="8.657772958496446"><ele>127.0</ele><time>2026-04-10T10:19:47Z</time></trkpt><trkpt lat="39.3226957906655" lon="8.658035288070227"><ele>127.0</ele><time>2026-04-10T10:19:48Z</time></trkpt><trkpt lat="39.32274407345297" lon="8.658273177227024"><ele>126.66666666666667</ele><time>2026-04-10T10:19:49Z</time></trkpt><trkpt lat="39.32278889884645" lon="8.658501258431675"><ele>126.33333333333334</ele><time>2026-04-10T10:19:50Z</time></trkpt><trkpt lat="39.32282575630634" lon="8.658693219064846"><ele>126.0</ele><time>2026-04-10T10:19:51Z</time></trkpt><trkpt lat="39.32285867925916" lon="8.658872843061742"><ele>126.0</ele><time>2026-04-10T10:19:52Z</time></trkpt><trkpt lat="39.32288350220224" lon="8.659036807217104"><ele>126.0</ele><time>2026-04-10T10:19:53Z</time></trkpt><trkpt lat="39.322903757585614" lon="8.659194737738328"><ele>126.0</ele><time>2026-04-10T10:19:54Z</time></trkpt><trkpt lat="39.32291823803178" lon="8.659355577879081"><ele>126.0</ele><time>2026-04-10T10:19:55Z</time></trkpt><trkpt lat="39.32292437389408" lon="8.659512247340116"><ele>126.19999999999999</ele><time>2026-04-10T10:19:56Z</time></trkpt><trkpt lat="39.32292377533881" lon="8.659654268242466"><ele>126.39999999999999</ele><time>2026-04-10T10:19:57Z</time></trkpt><trkpt lat="39.32291660538049" lon="8.659790291917684"><ele>126.6</ele><time>2026-04-10T10:19:58Z</time></trkpt><trkpt lat="39.322908049867934" lon="8.659938086578116"><ele>126.8</ele><time>2026-04-10T10:19:59Z</time></trkpt><trkpt lat="39.322887638889114" lon="8.660073617559037"><ele>127.0</ele><time>2026-04-10T10:20:00Z</time></trkpt><trkpt lat="39.32285868211149" lon="8.660203844579641"><ele>127.39999999999999</ele><time>2026-04-10T10:20:01Z</time></trkpt><trkpt lat="39.32282733582615" lon="8.660336939520361"><ele>127.79999999999998</ele><time>2026-04-10T10:20:02Z</time></trkpt><trkpt lat="39.32279478905128" lon="8.660463356590567"><ele>128.2</ele><time>2026-04-10T10:20:03Z</time></trkpt><trkpt lat="39.322757325890024" lon="8.660585456262266"><ele>128.6</ele><time>2026-04-10T10:20:04Z</time></trkpt><trkpt lat="39.32271224221581" lon="8.660699653799249"><ele>129.0</ele><time>2026-04-10T10:20:05Z</time></trkpt><trkpt lat="39.32266632111874" lon="8.660807848729931"><ele>129.0</ele><time>2026-04-10T10:20:06Z</time></trkpt><trkpt lat="39.32262274862789" lon="8.660908979042288"><ele>129.0</ele><time>2026-04-10T10:20:07Z</time></trkpt><trkpt lat="39.32258913186369" lon="8.66099235419525"><ele>129.0</ele><time>2026-04-10T10:20:08Z</time></trkpt><trkpt lat="39.32255239877063" lon="8.661069186698043"><ele>129.0</ele><time>2026-04-10T10:20:09Z</time></trkpt><trkpt lat="39.322442454810684" lon="8.661192950983716"><ele>129.0</ele><time>2026-04-10T10:20:11Z</time></trkpt><trkpt lat="39.32236419319166" lon="8.661197723050611"><ele>129.6</ele><time>2026-04-10T10:20:12Z</time></trkpt><trkpt lat="39.32228762912941" lon="8.661235149777843"><ele>130.2</ele><time>2026-04-10T10:20:13Z</time></trkpt><trkpt lat="39.32220619343124" lon="8.661292279640676"><ele>130.79999999999998</ele><time>2026-04-10T10:20:14Z</time></trkpt><trkpt lat="39.322142116970404" lon="8.661379730835595"><ele>131.4</ele><time>2026-04-10T10:20:15Z</time></trkpt><trkpt lat="39.32209793801595" lon="8.661480789808019"><ele>132.0</ele><time>2026-04-10T10:20:16Z</time></trkpt><trkpt lat="39.322086406092595" lon="8.661601805709774"><ele>132.0</ele><time>2026-04-10T10:20:17Z</time></trkpt><trkpt lat="39.32210115680539" lon="8.66171210702981"><ele>132.0</ele><time>2026-04-10T10:20:18Z</time></trkpt><trkpt lat="39.322134320479186" lon="8.661803693705899"><ele>132.0</ele><time>2026-04-10T10:20:19Z</time></trkpt><trkpt lat="39.32217541560059" lon="8.661867438050642"><ele>132.0</ele><time>2026-04-10T10:20:20Z</time></trkpt><trkpt lat="39.32230304500544" lon="8.661956683846862"><ele>132.0</ele><time>2026-04-10T10:20:22Z</time></trkpt><trkpt lat="39.32240996966439" lon="8.661974560393432"><ele>132.25</ele><time>2026-04-10T10:20:23Z</time></trkpt><trkpt lat="39.322523077192265" lon="8.66193977113139"><ele>132.5</ele><time>2026-04-10T10:20:24Z</time></trkpt><trkpt lat="39.322624271077956" lon="8.661844639684395"><ele>132.75</ele><time>2026-04-10T10:20:25Z</time></trkpt><trkpt lat="39.322704988198716" lon="8.661705753138888"><ele>133.0</ele><time>2026-04-10T10:20:26Z</time></trkpt><trkpt lat="39.322746945233526" lon="8.661558085612437"><ele>133.0</ele><time>2026-04-10T10:20:27Z</time></trkpt><trkpt lat="39.32291832924609" lon="8.661502532389477"><ele>133.0</ele><time>2026-04-10T10:20:28Z</time></trkpt><trkpt lat="39.323067109413294" lon="8.661447716762156"><ele>133.0</ele><time>2026-04-10T10:20:29Z</time></trkpt><trkpt lat="39.32323273629142" lon="8.661390467792215"><ele>134.0</ele><time>2026-04-10T10:20:30Z</time></trkpt><trkpt lat="39.32339846597445" lon="8.661333136023107"><ele>135.0</ele><time>2026-04-10T10:20:31Z</time></trkpt><trkpt lat="39.32356097528226" lon="8.661274501151828"><ele>136.0</ele><time>2026-04-10T10:20:32Z</time></trkpt><trkpt lat="39.323715377909686" lon="8.661215278755613"><ele>136.0</ele><time>2026-04-10T10:20:33Z</time></trkpt><trkpt lat="39.32385741527594" lon="8.661163921886262"><ele>136.0</ele><time>2026-04-10T10:20:34Z</time></trkpt><trkpt lat="39.324010876508666" lon="8.661107906507578"><ele>136.0</ele><time>2026-04-10T10:20:35Z</time></trkpt><trkpt lat="39.324161662013516" lon="8.661050864757923"><ele>135.33333333333334</ele><time>2026-04-10T10:20:36Z</time></trkpt><trkpt lat="39.32430850710129" lon="8.660999799133348"><ele>134.66666666666666</ele><time>2026-04-10T10:20:37Z</time></trkpt><trkpt lat="39.3244617166204" lon="8.660942163151422"><ele>134.0</ele><time>2026-04-10T10:20:38Z</time></trkpt><trkpt lat="39.32464076037391" lon="8.660877024066288"><ele>135.5</ele><time>2026-04-10T10:20:39Z</time></trkpt><trkpt lat="39.32486971728798" lon="8.660791208780468"><ele>137.0</ele><time>2026-04-10T10:20:40Z</time></trkpt><trkpt lat="39.325131064183" lon="8.660694034482903"><ele>137.0</ele><time>2026-04-10T10:20:41Z</time></trkpt><trkpt lat="39.32541292523844" lon="8.660593342557139"><ele>137.0</ele><time>2026-04-10T10:20:42Z</time></trkpt><trkpt lat="39.325720062370785" lon="8.660484251530608"><ele>136.0</ele><time>2026-04-10T10:20:43Z</time></trkpt><trkpt lat="39.3260414283293" lon="8.66036558622112"><ele>135.0</ele><time>2026-04-10T10:20:44Z</time></trkpt><trkpt lat="39.32637307142413" lon="8.660243497998342"><ele>136.0</ele><time>2026-04-10T10:20:45Z</time></trkpt><trkpt lat="39.326706093428186" lon="8.66012311787705"><ele>137.0</ele><time>2026-04-10T10:20:46Z</time></trkpt><trkpt lat="39.32698359213281" lon="8.66002103372343"><ele>137.0</ele><time>2026-04-10T10:20:47Z</time></trkpt><trkpt lat="39.32722331073267" lon="8.659930381836203"><ele>137.0</ele><time>2026-04-10T10:20:48Z</time></trkpt><trkpt lat="39.327451155109344" lon="8.659850503913677"><ele>138.33333333333331</ele><time>2026-04-10T10:20:49Z</time></trkpt><trkpt lat="39.32767451771246" lon="8.659769286841923"><ele>139.66666666666666</ele><time>2026-04-10T10:20:50Z</time></trkpt><trkpt lat="39.327880641755534" lon="8.659696388801779"><ele>141.0</ele><time>2026-04-10T10:20:51Z</time></trkpt><trkpt lat="39.32806455507024" lon="8.659625020671488"><ele>142.0</ele><time>2026-04-10T10:20:52Z</time></trkpt><trkpt lat="39.32823081075226" lon="8.659546671477628"><ele>143.0</ele><time>2026-04-10T10:20:53Z</time></trkpt><trkpt lat="39.32839127353815" lon="8.659457980534276"><ele>144.0</ele><time>2026-04-10T10:20:54Z</time></trkpt><trkpt lat="39.328554847358845" lon="8.65935724998095"><ele>144.0</ele><time>2026-04-10T10:20:55Z</time></trkpt><trkpt lat="39.328720731786966" lon="8.659246748441026"><ele>144.0</ele><time>2026-04-10T10:20:56Z</time></trkpt><trkpt lat="39.32888802740759" lon="8.659125546454742"><ele>144.0</ele><time>2026-04-10T10:20:57Z</time></trkpt><trkpt lat="39.32905439251958" lon="8.658992055875753"><ele>145.0</ele><time>2026-04-10T10:20:58Z</time></trkpt><trkpt lat="39.3292083331691" lon="8.65885515277613"><ele>146.0</ele><time>2026-04-10T10:20:59Z</time></trkpt><trkpt lat="39.329356449775695" lon="8.658714218895968"><ele>147.0</ele><time>2026-04-10T10:21:00Z</time></trkpt><trkpt lat="39.329502621267245" lon="8.658558207318963"><ele>148.0</ele><time>2026-04-10T10:21:01Z</time></trkpt><trkpt lat="39.329645860920124" lon="8.658389638324708"><ele>149.0</ele><time>2026-04-10T10:21:02Z</time></trkpt><trkpt lat="39.329787601597715" lon="8.658208307488286"><ele>150.0</ele><time>2026-04-10T10:21:03.001Z</time></trkpt><trkpt lat="39.32992802472449" lon="8.658015248825308"><ele>149.66666666666666</ele><time>2026-04-10T10:21:04.001Z</time></trkpt><trkpt lat="39.33006119916485" lon="8.657814781198319"><ele>149.33333333333331</ele><time>2026-04-10T10:21:05.001Z</time></trkpt><trkpt lat="39.33018756440091" lon="8.657606362270643"><ele>149.0</ele><time>2026-04-10T10:21:06.001Z</time></trkpt><trkpt lat="39.33030510679154" lon="8.657388755576951"><ele>149.0</ele><time>2026-04-10T10:21:07.001Z</time></trkpt><trkpt lat="39.33040867075547" lon="8.65716519426009"><ele>149.0</ele><time>2026-04-10T10:21:08.001Z</time></trkpt><trkpt lat="39.330506764679164" lon="8.656928774864175"><ele>149.0</ele><time>2026-04-10T10:21:09.001Z</time></trkpt><trkpt lat="39.33060074486314" lon="8.656683311162105"><ele>148.66666666666666</ele><time>2026-04-10T10:21:10.001Z</time></trkpt><trkpt lat="39.330694034773984" lon="8.656434293707365"><ele>148.33333333333334</ele><time>2026-04-10T10:21:11.001Z</time></trkpt><trkpt lat="39.33078896397539" lon="8.656180757254372"><ele>148.0</ele><time>2026-04-10T10:21:12.001Z</time></trkpt><trkpt lat="39.330882317128676" lon="8.655924853518506"><ele>148.0</ele><time>2026-04-10T10:21:13.001Z</time></trkpt><trkpt lat="39.33097385217647" lon="8.655672143831882"><ele>148.0</ele><time>2026-04-10T10:21:14.001Z</time></trkpt><trkpt lat="39.331064373797496" lon="8.655421480539337"><ele>148.0</ele><time>2026-04-10T10:21:15.001Z</time></trkpt><trkpt lat="39.33115680165582" lon="8.655177984938764"><ele>147.33333333333334</ele><time>2026-04-10T10:21:16.001Z</time></trkpt><trkpt lat="39.331263495533726" lon="8.654944068752014"><ele>146.66666666666666</ele><time>2026-04-10T10:21:17.001Z</time></trkpt><trkpt lat="39.331355786266464" lon="8.654703844149129"><ele>146.0</ele><time>2026-04-10T10:21:18.001Z</time></trkpt><trkpt lat="39.3314456932655" lon="8.65446025686357"><ele>146.33333333333331</ele><time>2026-04-10T10:21:19.001Z</time></trkpt><trkpt lat="39.331534004639536" lon="8.654216298786713"><ele>146.66666666666666</ele><time>2026-04-10T10:21:20.001Z</time></trkpt><trkpt lat="39.33162128013436" lon="8.653974101819173"><ele>147.0</ele><time>2026-04-10T10:21:21.001Z</time></trkpt><trkpt lat="39.33170875266609" lon="8.65373171982638"><ele>148.33333333333334</ele><time>2026-04-10T10:21:22.001Z</time></trkpt><trkpt lat="39.331800156421984" lon="8.653480716371009"><ele>149.66666666666669</ele><time>2026-04-10T10:21:23.001Z</time></trkpt><trkpt lat="39.331894602193245" lon="8.65322980449328"><ele>151.0</ele><time>2026-04-10T10:21:24.001Z</time></trkpt><trkpt lat="39.33198475933124" lon="8.652984604223493"><ele>151.0</ele><time>2026-04-10T10:21:25.001Z</time></trkpt><trkpt lat="39.33206573044349" lon="8.65276030833738"><ele>151.0</ele><time>2026-04-10T10:21:26.001Z</time></trkpt><trkpt lat="39.332143244262056" lon="8.652553287038993"><ele>151.0</ele><time>2026-04-10T10:21:27.001Z</time></trkpt><trkpt lat="39.33222557466462" lon="8.652345924305363"><ele>151.0</ele><time>2026-04-10T10:21:28.001Z</time></trkpt><trkpt lat="39.33233513240357" lon="8.652138841723419"><ele>151.0</ele><time>2026-04-10T10:21:29Z</time></trkpt><trkpt lat="39.332466215477325" lon="8.65193646925953"><ele>151.0</ele><time>2026-04-10T10:21:30Z</time></trkpt><trkpt lat="39.332615760605066" lon="8.651750086264531"><ele>152.0</ele><time>2026-04-10T10:21:31Z</time></trkpt><trkpt lat="39.33277187990854" lon="8.651596198974204"><ele>153.0</ele><time>2026-04-10T10:21:32Z</time></trkpt><trkpt lat="39.33292111438216" lon="8.651456599881055"><ele>154.0</ele><time>2026-04-10T10:21:33Z</time></trkpt><trkpt lat="39.33310078854922" lon="8.651359404884326"><ele>154.0</ele><time>2026-04-10T10:21:34Z</time></trkpt><trkpt lat="39.33330193134578" lon="8.651275653776056"><ele>154.0</ele><time>2026-04-10T10:21:35Z</time></trkpt><trkpt lat="39.33350017487347" lon="8.651146074283144"><ele>154.0</ele><time>2026-04-10T10:21:36Z</time></trkpt><trkpt lat="39.333774017487855" lon="8.651168967618771"><ele>154.5</ele><time>2026-04-10T10:21:37Z</time></trkpt><trkpt lat="39.33405926188991" lon="8.651136475582797"><ele>155.0</ele><time>2026-04-10T10:21:38Z</time></trkpt><trkpt lat="39.33437194547494" lon="8.651117265923807"><ele>155.0</ele><time>2026-04-10T10:21:39Z</time></trkpt><trkpt lat="39.334670695090416" lon="8.651102086417554"><ele>155.0</ele><time>2026-04-10T10:21:40Z</time></trkpt><trkpt lat="39.33491489875977" lon="8.651081554485378"><ele>155.33333333333331</ele><time>2026-04-10T10:21:41Z</time></trkpt><trkpt lat="39.33511395182284" lon="8.651061559029266"><ele>155.66666666666666</ele><time>2026-04-10T10:21:42Z</time></trkpt><trkpt lat="39.335306607087524" lon="8.651042056081206"><ele>156.0</ele><time>2026-04-10T10:21:43Z</time></trkpt><trkpt lat="39.33549085413595" lon="8.651031108433756"><ele>158.66666666666666</ele><time>2026-04-10T10:21:44Z</time></trkpt><trkpt lat="39.335672213664154" lon="8.651026286863043"><ele>161.33333333333331</ele><time>2026-04-10T10:21:45Z</time></trkpt><trkpt lat="39.33585910761711" lon="8.651009954410286"><ele>164.0</ele><time>2026-04-10T10:21:46Z</time></trkpt><trkpt lat="39.336038787446356" lon="8.650986556459548"><ele>164.0</ele><time>2026-04-10T10:21:47Z</time></trkpt><trkpt lat="39.33620997429809" lon="8.650966738858244"><ele>164.0</ele><time>2026-04-10T10:21:48Z</time></trkpt><trkpt lat="39.336380221591156" lon="8.650951739388315"><ele>164.0</ele><time>2026-04-10T10:21:49Z</time></trkpt><trkpt lat="39.33655029552073" lon="8.650932948640365"><ele>165.0</ele><time>2026-04-10T10:21:50Z</time></trkpt><trkpt lat="39.3367188987697" lon="8.650916518555768"><ele>166.0</ele><time>2026-04-10T10:21:51Z</time></trkpt><trkpt lat="39.336890528058674" lon="8.650898250363067"><ele>167.0</ele><time>2026-04-10T10:21:52Z</time></trkpt><trkpt lat="39.337059983333795" lon="8.650872071265937"><ele>168.0</ele><time>2026-04-10T10:21:53Z</time></trkpt><trkpt lat="39.33723214984241" lon="8.650833612266984"><ele>169.0</ele><time>2026-04-10T10:21:54Z</time></trkpt><trkpt lat="39.337416567118254" lon="8.650764551500917"><ele>170.0</ele><time>2026-04-10T10:21:55Z</time></trkpt><trkpt lat="39.33759615136865" lon="8.650664229232207"><ele>170.0</ele><time>2026-04-10T10:21:56Z</time></trkpt><trkpt lat="39.337762688014394" lon="8.650540308920638"><ele>170.0</ele><time>2026-04-10T10:21:57Z</time></trkpt><trkpt lat="39.337917458521964" lon="8.65039494023152"><ele>170.0</ele><time>2026-04-10T10:21:58Z</time></trkpt><trkpt lat="39.33806681989227" lon="8.650223008544225"><ele>172.0</ele><time>2026-04-10T10:21:59Z</time></trkpt><trkpt lat="39.3382080000989" lon="8.6500495542963"><ele>174.0</ele><time>2026-04-10T10:22:00Z</time></trkpt><trkpt lat="39.33834288692015" lon="8.649882123859275"><ele>176.0</ele><time>2026-04-10T10:22:01Z</time></trkpt><trkpt lat="39.33847625066134" lon="8.649713637234415"><ele>176.0</ele><time>2026-04-10T10:22:02Z</time></trkpt><trkpt lat="39.33860989820239" lon="8.649544283631787"><ele>176.0</ele><time>2026-04-10T10:22:03Z</time></trkpt><trkpt lat="39.338739766973" lon="8.649382174716566"><ele>176.0</ele><time>2026-04-10T10:22:04Z</time></trkpt><trkpt lat="39.33886889218558" lon="8.649215260132925"><ele>178.33333333333331</ele><time>2026-04-10T10:22:05Z</time></trkpt><trkpt lat="39.33900564932913" lon="8.649040789183593"><ele>180.66666666666666</ele><time>2026-04-10T10:22:06Z</time></trkpt><trkpt lat="39.339154098216454" lon="8.648854027037526"><ele>183.0</ele><time>2026-04-10T10:22:07Z</time></trkpt><trkpt lat="39.33930097281885" lon="8.64866268608882"><ele>187.33333333333331</ele><time>2026-04-10T10:22:08Z</time></trkpt><trkpt lat="39.33944051112672" lon="8.64847572310584"><ele>191.66666666666666</ele><time>2026-04-10T10:22:09Z</time></trkpt><trkpt lat="39.339573697507845" lon="8.648291740306213"><ele>196.0</ele><time>2026-04-10T10:22:10Z</time></trkpt><trkpt lat="39.33970518224494" lon="8.64810631335253"><ele>197.0</ele><time>2026-04-10T10:22:11Z</time></trkpt><trkpt lat="39.33983308220416" lon="8.647921325036403"><ele>198.0</ele><time>2026-04-10T10:22:12Z</time></trkpt><trkpt lat="39.339965004153186" lon="8.647730280433326"><ele>199.0</ele><time>2026-04-10T10:22:13Z</time></trkpt><trkpt lat="39.34009762270231" lon="8.647543992693736"><ele>199.0</ele><time>2026-04-10T10:22:14Z</time></trkpt><trkpt lat="39.34021888078866" lon="8.6473786716847"><ele>199.0</ele><time>2026-04-10T10:22:15Z</time></trkpt><trkpt lat="39.34033552137226" lon="8.647214138350503"><ele>199.0</ele><time>2026-04-10T10:22:16Z</time></trkpt><trkpt lat="39.34044353640345" lon="8.64705786678075"><ele>200.5</ele><time>2026-04-10T10:22:17Z</time></trkpt><trkpt lat="39.34054902601043" lon="8.64690106155731"><ele>202.0</ele><time>2026-04-10T10:22:18Z</time></trkpt><trkpt lat="39.34064803545949" lon="8.646766028429424"><ele>203.5</ele><time>2026-04-10T10:22:19Z</time></trkpt><trkpt lat="39.34075379372908" lon="8.646649352083932"><ele>205.0</ele><time>2026-04-10T10:22:20Z</time></trkpt><trkpt lat="39.34088391413227" lon="8.646559563918672"><ele>205.33333333333331</ele><time>2026-04-10T10:22:21Z</time></trkpt><trkpt lat="39.341036128892966" lon="8.646512876588304"><ele>205.66666666666669</ele><time>2026-04-10T10:22:22Z</time></trkpt><trkpt lat="39.34121993935922" lon="8.646506098190308"><ele>206.0</ele><time>2026-04-10T10:22:23Z</time></trkpt><trkpt lat="39.341419312397925" lon="8.646533114601965"><ele>207.0</ele><time>2026-04-10T10:22:24Z</time></trkpt><trkpt lat="39.34161355329557" lon="8.646552669893966"><ele>208.0</ele><time>2026-04-10T10:22:25Z</time></trkpt><trkpt lat="39.341784641006335" lon="8.646553078172657"><ele>209.0</ele><time>2026-04-10T10:22:26Z</time></trkpt><trkpt lat="39.34193793717363" lon="8.646547068439018"><ele>209.0</ele><time>2026-04-10T10:22:27Z</time></trkpt><trkpt lat="39.342078995530414" lon="8.64653315649845"><ele>209.0</ele><time>2026-04-10T10:22:28Z</time></trkpt><trkpt lat="39.34221944068536" lon="8.64650510342237"><ele>209.0</ele><time>2026-04-10T10:22:29Z</time></trkpt><trkpt lat="39.34236107478768" lon="8.646452356529906"><ele>209.0</ele><time>2026-04-10T10:22:30Z</time></trkpt><trkpt lat="39.34251618821481" lon="8.64636427863838"><ele>210.0</ele><time>2026-04-10T10:22:31Z</time></trkpt><trkpt lat="39.342682545051915" lon="8.646233270659982"><ele>211.0</ele><time>2026-04-10T10:22:32Z</time></trkpt><trkpt lat="39.34284258463249" lon="8.646089586928452"><ele>212.0</ele><time>2026-04-10T10:22:33Z</time></trkpt><trkpt lat="39.342984478766326" lon="8.64596672822057"><ele>218.0</ele><time>2026-04-10T10:22:34Z</time></trkpt><trkpt lat="39.3431125558618" lon="8.64586619477935"><ele>224.0</ele><time>2026-04-10T10:22:35Z</time></trkpt><trkpt lat="39.34323800393682" lon="8.645798642916034"><ele>230.0</ele><time>2026-04-10T10:22:36Z</time></trkpt><trkpt lat="39.34338132235677" lon="8.645771474681762"><ele>236.0</ele><time>2026-04-10T10:22:37Z</time></trkpt><trkpt lat="39.34354325826894" lon="8.645782810976117"><ele>236.0</ele><time>2026-04-10T10:22:38Z</time></trkpt><trkpt lat="39.34371667215546" lon="8.645841267380725"><ele>236.0</ele><time>2026-04-10T10:22:39Z</time></trkpt><trkpt lat="39.343877096254595" lon="8.645895241395996"><ele>236.0</ele><time>2026-04-10T10:22:40Z</time></trkpt><trkpt lat="39.344023149745" lon="8.645915857496556"><ele>234.66666666666669</ele><time>2026-04-10T10:22:41Z</time></trkpt><trkpt lat="39.34416792287062" lon="8.645872367064353"><ele>233.33333333333331</ele><time>2026-04-10T10:22:42Z</time></trkpt><trkpt lat="39.3443202370736" lon="8.64578363964405"><ele>232.0</ele><time>2026-04-10T10:22:43Z</time></trkpt><trkpt lat="39.344461883835365" lon="8.64564684197001"><ele>232.0</ele><time>2026-04-10T10:22:44Z</time></trkpt><trkpt lat="39.34461887152126" lon="8.64549994690789"><ele>232.0</ele><time>2026-04-10T10:22:45Z</time></trkpt><trkpt lat="39.344767197974114" lon="8.645347550493721"><ele>232.0</ele><time>2026-04-10T10:22:46Z</time></trkpt><trkpt lat="39.34489010527403" lon="8.645217739478264"><ele>236.33333333333331</ele><time>2026-04-10T10:22:47Z</time></trkpt><trkpt lat="39.34500532644521" lon="8.645092854813687"><ele>240.66666666666669</ele><time>2026-04-10T10:22:48Z</time></trkpt><trkpt lat="39.3451151776611" lon="8.644957000449057"><ele>245.0</ele><time>2026-04-10T10:22:49Z</time></trkpt><trkpt lat="39.34525697669221" lon="8.644841848336918"><ele>245.0</ele><time>2026-04-10T10:22:50Z</time></trkpt><trkpt lat="39.345420547953495" lon="8.644765027884182"><ele>245.0</ele><time>2026-04-10T10:22:51Z</time></trkpt><trkpt lat="39.3455845205019" lon="8.644684486746723"><ele>245.0</ele><time>2026-04-10T10:22:52Z</time></trkpt><trkpt lat="39.34574915101679" lon="8.6445871026888"><ele>244.33333333333334</ele><time>2026-04-10T10:22:53Z</time></trkpt><trkpt lat="39.345925689522666" lon="8.644512555124452"><ele>243.66666666666669</ele><time>2026-04-10T10:22:54Z</time></trkpt><trkpt lat="39.34610979760753" lon="8.644433486195087"><ele>243.0</ele><time>2026-04-10T10:22:55Z</time></trkpt><trkpt lat="39.346292478413424" lon="8.644352462549186"><ele>248.33333333333331</ele><time>2026-04-10T10:22:56Z</time></trkpt><trkpt lat="39.3464833173037" lon="8.644266963007484"><ele>253.66666666666666</ele><time>2026-04-10T10:22:57Z</time></trkpt><trkpt lat="39.34667228053218" lon="8.644189168824573"><ele>259.0</ele><time>2026-04-10T10:22:58Z</time></trkpt><trkpt lat="39.34685296856213" lon="8.644108310059163"><ele>259.0</ele><time>2026-04-10T10:22:59Z</time></trkpt><trkpt lat="39.34702557599877" lon="8.644027984596173"><ele>259.0</ele><time>2026-04-10T10:23:00Z</time></trkpt><trkpt lat="39.347197873051286" lon="8.64395199605719"><ele>259.0</ele><time>2026-04-10T10:23:01Z</time></trkpt><trkpt lat="39.34735831548267" lon="8.643877896601785"><ele>254.33333333333331</ele><time>2026-04-10T10:23:02Z</time></trkpt><trkpt lat="39.34751102362867" lon="8.643799108639477"><ele>249.66666666666669</ele><time>2026-04-10T10:23:03Z</time></trkpt><trkpt lat="39.34766027420785" lon="8.64370049757146"><ele>245.0</ele><time>2026-04-10T10:23:04Z</time></trkpt><trkpt lat="39.34779654466218" lon="8.643585222468234"><ele>246.0</ele><time>2026-04-10T10:23:05Z</time></trkpt><trkpt lat="39.3479292923104" lon="8.643450186207314"><ele>247.0</ele><time>2026-04-10T10:23:06Z</time></trkpt><trkpt lat="39.348054890130086" lon="8.64329437269531"><ele>248.0</ele><time>2026-04-10T10:23:07Z</time></trkpt><trkpt lat="39.34817491453639" lon="8.643121042827866"><ele>248.0</ele><time>2026-04-10T10:23:08Z</time></trkpt><trkpt lat="39.34828838978817" lon="8.642931762382045"><ele>248.0</ele><time>2026-04-10T10:23:09Z</time></trkpt><trkpt lat="39.348396976058346" lon="8.642744244183573"><ele>248.0</ele><time>2026-04-10T10:23:10.001Z</time></trkpt><trkpt lat="39.3485031209366" lon="8.642559502928624"><ele>254.33333333333334</ele><time>2026-04-10T10:23:11.001Z</time></trkpt><trkpt lat="39.34862083978462" lon="8.64239328764941"><ele>260.6666666666667</ele><time>2026-04-10T10:23:12.001Z</time></trkpt><trkpt lat="39.34871254807115" lon="8.64220867779716"><ele>267.0</ele><time>2026-04-10T10:23:13.001Z</time></trkpt><trkpt lat="39.34881435946494" lon="8.642033272212204"><ele>267.3333333333333</ele><time>2026-04-10T10:23:14.001Z</time></trkpt><trkpt lat="39.34891321745439" lon="8.641858108782005"><ele>267.66666666666663</ele><time>2026-04-10T10:23:15.001Z</time></trkpt><trkpt lat="39.3490076828354" lon="8.64166436854545"><ele>268.0</ele><time>2026-04-10T10:23:16.001Z</time></trkpt><trkpt lat="39.34909300441262" lon="8.6414525389957"><ele>268.0</ele><time>2026-04-10T10:23:17.001Z</time></trkpt><trkpt lat="39.349168549004794" lon="8.641224119064168"><ele>268.0</ele><time>2026-04-10T10:23:18.001Z</time></trkpt><trkpt lat="39.34925923750853" lon="8.640994300340353"><ele>268.0</ele><time>2026-04-10T10:23:19.001Z</time></trkpt><trkpt lat="39.34934001293848" lon="8.64075952157322"><ele>272.66666666666663</ele><time>2026-04-10T10:23:20.001Z</time></trkpt><trkpt lat="39.349413286826916" lon="8.640546546662893"><ele>277.3333333333333</ele><time>2026-04-10T10:23:21.001Z</time></trkpt><trkpt lat="39.34948323784889" lon="8.640343229930451"><ele>282.0</ele><time>2026-04-10T10:23:22.001Z</time></trkpt><trkpt lat="39.34953644086976" lon="8.64014047378913"><ele>281.3333333333333</ele><time>2026-04-10T10:23:23.001Z</time></trkpt><trkpt lat="39.34960739102279" lon="8.639951042627644"><ele>280.66666666666663</ele><time>2026-04-10T10:23:24.001Z</time></trkpt><trkpt lat="39.349675022218065" lon="8.63975711940004"><ele>280.0</ele><time>2026-04-10T10:23:25.001Z</time></trkpt><trkpt lat="39.34973733660011" lon="8.639569629549934"><ele>281.0</ele><time>2026-04-10T10:23:26.001Z</time></trkpt><trkpt lat="39.349798010594085" lon="8.63938618615405"><ele>282.0</ele><time>2026-04-10T10:23:27.001Z</time></trkpt><trkpt lat="39.34986336137313" lon="8.639193702442293"><ele>283.0</ele><time>2026-04-10T10:23:28.001Z</time></trkpt><trkpt lat="39.349932022301175" lon="8.63899576285521"><ele>283.0</ele><time>2026-04-10T10:23:29.001Z</time></trkpt><trkpt lat="39.35000810220194" lon="8.638787420351573"><ele>283.0</ele><time>2026-04-10T10:23:30.001Z</time></trkpt><trkpt lat="39.350084399999325" lon="8.638572936091505"><ele>283.0</ele><time>2026-04-10T10:23:31.001Z</time></trkpt><trkpt lat="39.350164652427495" lon="8.638337169099389"><ele>283.0</ele><time>2026-04-10T10:23:32.001Z</time></trkpt><trkpt lat="39.35026784763418" lon="8.638104039907997"><ele>283.0</ele><time>2026-04-10T10:23:33.001Z</time></trkpt><trkpt lat="39.350388334960265" lon="8.637857832183501"><ele>283.0</ele><time>2026-04-10T10:23:34.001Z</time></trkpt><trkpt lat="39.350517943112585" lon="8.63761355087293"><ele>277.66666666666663</ele><time>2026-04-10T10:23:35Z</time></trkpt><trkpt lat="39.35064464919747" lon="8.637382050313903"><ele>272.3333333333333</ele><time>2026-04-10T10:23:36Z</time></trkpt><trkpt lat="39.35076781501174" lon="8.637155268294759"><ele>267.0</ele><time>2026-04-10T10:23:37Z</time></trkpt><trkpt lat="39.35088803731802" lon="8.636931470444962"><ele>266.6666666666667</ele><time>2026-04-10T10:23:38Z</time></trkpt><trkpt lat="39.35099527073719" lon="8.636699689018286"><ele>266.33333333333337</ele><time>2026-04-10T10:23:39Z</time></trkpt><trkpt lat="39.35110988604966" lon="8.636485780382696"><ele>266.0</ele><time>2026-04-10T10:23:40Z</time></trkpt><trkpt lat="39.35121795470144" lon="8.636284583816872"><ele>267.0</ele><time>2026-04-10T10:23:41Z</time></trkpt><trkpt lat="39.351325245225965" lon="8.636091304840408"><ele>268.0</ele><time>2026-04-10T10:23:42Z</time></trkpt><trkpt lat="39.35142855950427" lon="8.635904921513799"><ele>269.0</ele><time>2026-04-10T10:23:43Z</time></trkpt><trkpt lat="39.35152620756671" lon="8.635728185076509"><ele>265.33333333333337</ele><time>2026-04-10T10:23:44Z</time></trkpt><trkpt lat="39.35161927985626" lon="8.635558578181444"><ele>261.6666666666667</ele><time>2026-04-10T10:23:45Z</time></trkpt><trkpt lat="39.35171153433644" lon="8.635381558314865"><ele>258.0</ele><time>2026-04-10T10:23:46Z</time></trkpt><trkpt lat="39.35181046644817" lon="8.635199869910307"><ele>257.3333333333333</ele><time>2026-04-10T10:23:47Z</time></trkpt><trkpt lat="39.35190822509222" lon="8.635023573886597"><ele>256.66666666666663</ele><time>2026-04-10T10:23:48Z</time></trkpt><trkpt lat="39.352000785000875" lon="8.634851172696662"><ele>256.0</ele><time>2026-04-10T10:23:49Z</time></trkpt><trkpt lat="39.35207606210926" lon="8.634675249286353"><ele>256.0</ele><time>2026-04-10T10:23:50Z</time></trkpt><trkpt lat="39.35212369294238" lon="8.634485823104404"><ele>256.0</ele><time>2026-04-10T10:23:51Z</time></trkpt><trkpt lat="39.352144171540566" lon="8.634283852418298"><ele>256.0</ele><time>2026-04-10T10:23:52Z</time></trkpt><trkpt lat="39.35215373199093" lon="8.634077231623905"><ele>255.33333333333331</ele><time>2026-04-10T10:23:53Z</time></trkpt><trkpt lat="39.35210411768667" lon="8.633874024758828"><ele>254.66666666666669</ele><time>2026-04-10T10:23:54Z</time></trkpt><trkpt lat="39.35202468291645" lon="8.633668257807045"><ele>254.0</ele><time>2026-04-10T10:23:55Z</time></trkpt><trkpt lat="39.35194041416789" lon="8.633461702062865"><ele>256.0</ele><time>2026-04-10T10:23:56Z</time></trkpt><trkpt lat="39.35186179486791" lon="8.633259090298365"><ele>258.0</ele><time>2026-04-10T10:23:57Z</time></trkpt><trkpt lat="39.3517859723768" lon="8.63306650141773"><ele>260.0</ele><time>2026-04-10T10:23:58Z</time></trkpt><trkpt lat="39.351711732942135" lon="8.6328831036512"><ele>264.6666666666667</ele><time>2026-04-10T10:23:59Z</time></trkpt><trkpt lat="39.351631722164" lon="8.632696842303996"><ele>269.3333333333333</ele><time>2026-04-10T10:24:00Z</time></trkpt><trkpt lat="39.351546132271764" lon="8.632522101977584"><ele>274.0</ele><time>2026-04-10T10:24:01Z</time></trkpt><trkpt lat="39.35152111168518" lon="8.63231888658692"><ele>274.0</ele><time>2026-04-10T10:24:02Z</time></trkpt><trkpt lat="39.35148735171746" lon="8.63212877267781"><ele>274.0</ele><time>2026-04-10T10:24:03Z</time></trkpt><trkpt lat="39.35152085242718" lon="8.63195664253949"><ele>274.0</ele><time>2026-04-10T10:24:04Z</time></trkpt><trkpt lat="39.351548095930944" lon="8.631790438795921"><ele>274.0</ele><time>2026-04-10T10:24:05Z</time></trkpt><trkpt lat="39.35162317889323" lon="8.63163202960884"><ele>274.66666666666663</ele><time>2026-04-10T10:24:06Z</time></trkpt><trkpt lat="39.35171783381773" lon="8.63148868404946"><ele>275.3333333333333</ele><time>2026-04-10T10:24:07Z</time></trkpt><trkpt lat="39.35183564267571" lon="8.63136940608839"><ele>276.0</ele><time>2026-04-10T10:24:08Z</time></trkpt><trkpt lat="39.35197884921516" lon="8.631274536939882"><ele>276.0</ele><time>2026-04-10T10:24:09Z</time></trkpt><trkpt lat="39.35214655690129" lon="8.631196632171282"><ele>276.0</ele><time>2026-04-10T10:24:10Z</time></trkpt><trkpt lat="39.35232064344173" lon="8.63112427408487"><ele>276.0</ele><time>2026-04-10T10:24:11Z</time></trkpt><trkpt lat="39.352484860674736" lon="8.631048697494332"><ele>275.0</ele><time>2026-04-10T10:24:12Z</time></trkpt><trkpt lat="39.35263064403521" lon="8.630967200752973"><ele>274.0</ele><time>2026-04-10T10:24:13Z</time></trkpt><trkpt lat="39.352759073431116" lon="8.630866588757875"><ele>273.0</ele><time>2026-04-10T10:24:14Z</time></trkpt><trkpt lat="39.35286628073294" lon="8.630723160022345"><ele>273.0</ele><time>2026-04-10T10:24:15Z</time></trkpt><trkpt lat="39.35294864697275" lon="8.630544822715919"><ele>273.0</ele><time>2026-04-10T10:24:16Z</time></trkpt><trkpt lat="39.35299962305809" lon="8.630338868444223"><ele>273.0</ele><time>2026-04-10T10:24:17Z</time></trkpt><trkpt lat="39.35301645668863" lon="8.630109739495758"><ele>273.6666666666667</ele><time>2026-04-10T10:24:18Z</time></trkpt><trkpt lat="39.353008922986234" lon="8.629877727306843"><ele>274.33333333333337</ele><time>2026-04-10T10:24:19Z</time></trkpt><trkpt lat="39.35300561411605" lon="8.629641242859057"><ele>275.0</ele><time>2026-04-10T10:24:20Z</time></trkpt><trkpt lat="39.35302284011359" lon="8.629384950299363"><ele>275.0</ele><time>2026-04-10T10:24:21Z</time></trkpt><trkpt lat="39.35302412062757" lon="8.629139187792891"><ele>275.0</ele><time>2026-04-10T10:24:22Z</time></trkpt><trkpt lat="39.35301363132004" lon="8.628900912723118"><ele>275.0</ele><time>2026-04-10T10:24:23Z</time></trkpt><trkpt lat="39.35303202947533" lon="8.62866798489521"><ele>280.33333333333337</ele><time>2026-04-10T10:24:24Z</time></trkpt><trkpt lat="39.353072273453044" lon="8.628444764189924"><ele>285.6666666666667</ele><time>2026-04-10T10:24:25Z</time></trkpt><trkpt lat="39.35312956738042" lon="8.628225687342441"><ele>291.0</ele><time>2026-04-10T10:24:26Z</time></trkpt><trkpt lat="39.35320220705977" lon="8.62800912569764"><ele>289.3333333333333</ele><time>2026-04-10T10:24:27Z</time></trkpt><trkpt lat="39.35328946453093" lon="8.627796629962504"><ele>287.66666666666663</ele><time>2026-04-10T10:24:28Z</time></trkpt><trkpt lat="39.353389759619034" lon="8.627582987546523"><ele>286.0</ele><time>2026-04-10T10:24:29Z</time></trkpt><trkpt lat="39.35349312126693" lon="8.627368158383607"><ele>286.0</ele><time>2026-04-10T10:24:30Z</time></trkpt><trkpt lat="39.35360109792424" lon="8.627149793131567"><ele>286.0</ele><time>2026-04-10T10:24:31Z</time></trkpt><trkpt lat="39.35370448449565" lon="8.626935611910739"><ele>286.0</ele><time>2026-04-10T10:24:32Z</time></trkpt><trkpt lat="39.35380048733055" lon="8.626736121994453"><ele>283.66666666666663</ele><time>2026-04-10T10:24:33Z</time></trkpt><trkpt lat="39.35389432660949" lon="8.626539314939272"><ele>281.3333333333333</ele><time>2026-04-10T10:24:34Z</time></trkpt><trkpt lat="39.35397351251471" lon="8.626341464940921"><ele>279.0</ele><time>2026-04-10T10:24:35Z</time></trkpt><trkpt lat="39.35404587199147" lon="8.626140401047541"><ele>278.3333333333333</ele><time>2026-04-10T10:24:36Z</time></trkpt><trkpt lat="39.35404525093836" lon="8.625919390068436"><ele>277.66666666666663</ele><time>2026-04-10T10:24:37Z</time></trkpt><trkpt lat="39.354028790179" lon="8.625696347401274"><ele>277.0</ele><time>2026-04-10T10:24:38Z</time></trkpt><trkpt lat="39.35399462388651" lon="8.625469141618952"><ele>275.3333333333333</ele><time>2026-04-10T10:24:39Z</time></trkpt><trkpt lat="39.35397800202931" lon="8.62524309291876"><ele>273.6666666666667</ele><time>2026-04-10T10:24:40Z</time></trkpt><trkpt lat="39.35394885682257" lon="8.62503212643061"><ele>272.0</ele><time>2026-04-10T10:24:41Z</time></trkpt><trkpt lat="39.3539341486693" lon="8.624826846585316"><ele>272.0</ele><time>2026-04-10T10:24:42Z</time></trkpt><trkpt lat="39.35393111638111" lon="8.624612633940751"><ele>272.0</ele><time>2026-04-10T10:24:43Z</time></trkpt><trkpt lat="39.353974712506755" lon="8.624399162222977"><ele>272.0</ele><time>2026-04-10T10:24:44Z</time></trkpt><trkpt lat="39.35404401398267" lon="8.624177241470155"><ele>269.0</ele><time>2026-04-10T10:24:45Z</time></trkpt><trkpt lat="39.354119049698035" lon="8.62395216898328"><ele>266.0</ele><time>2026-04-10T10:24:46Z</time></trkpt><trkpt lat="39.354192173575555" lon="8.623718149210568"><ele>263.0</ele><time>2026-04-10T10:24:47Z</time></trkpt><trkpt lat="39.354263412784775" lon="8.623485241712919"><ele>262.0</ele><time>2026-04-10T10:24:48Z</time></trkpt><trkpt lat="39.35433097342583" lon="8.623270787043891"><ele>261.0</ele><time>2026-04-10T10:24:49Z</time></trkpt><trkpt lat="39.35439944439098" lon="8.623070851810082"><ele>260.0</ele><time>2026-04-10T10:24:50Z</time></trkpt><trkpt lat="39.35447561053698" lon="8.62288825664966"><ele>260.33333333333337</ele><time>2026-04-10T10:24:51Z</time></trkpt><trkpt lat="39.35456950505208" lon="8.622729585128253"><ele>260.6666666666667</ele><time>2026-04-10T10:24:52Z</time></trkpt><trkpt lat="39.35468436707602" lon="8.622598834965366"><ele>261.0</ele><time>2026-04-10T10:24:53Z</time></trkpt><trkpt lat="39.35482280646614" lon="8.622489780601835"><ele>261.0</ele><time>2026-04-10T10:24:54Z</time></trkpt><trkpt lat="39.354983869440176" lon="8.622410620725452"><ele>261.0</ele><time>2026-04-10T10:24:55Z</time></trkpt><trkpt lat="39.35517337447858" lon="8.622362070789842"><ele>261.0</ele><time>2026-04-10T10:24:56Z</time></trkpt><trkpt lat="39.35537179562381" lon="8.622320783584698"><ele>261.3333333333333</ele><time>2026-04-10T10:24:57Z</time></trkpt><trkpt lat="39.355552850143255" lon="8.622264675787507"><ele>261.66666666666663</ele><time>2026-04-10T10:24:58Z</time></trkpt><trkpt lat="39.35571859505589" lon="8.622189275713902"><ele>262.0</ele><time>2026-04-10T10:24:59Z</time></trkpt><trkpt lat="39.35586857538281" lon="8.622091003494061"><ele>258.66666666666663</ele><time>2026-04-10T10:25:00Z</time></trkpt><trkpt lat="39.35600255982076" lon="8.62196043598371"><ele>255.33333333333331</ele><time>2026-04-10T10:25:01Z</time></trkpt><trkpt lat="39.35611785989482" lon="8.62180028484145"><ele>252.0</ele><time>2026-04-10T10:25:02Z</time></trkpt><trkpt lat="39.35621863032714" lon="8.621614308886274"><ele>252.0</ele><time>2026-04-10T10:25:03Z</time></trkpt><trkpt lat="39.35630909258565" lon="8.621401558859374"><ele>252.0</ele><time>2026-04-10T10:25:04Z</time></trkpt><trkpt lat="39.356401918753576" lon="8.621175260148288"><ele>252.0</ele><time>2026-04-10T10:25:05Z</time></trkpt><trkpt lat="39.35649490414421" lon="8.620963501704857"><ele>251.66666666666669</ele><time>2026-04-10T10:25:06Z</time></trkpt><trkpt lat="39.3565865028817" lon="8.620764442975743"><ele>251.33333333333334</ele><time>2026-04-10T10:25:07Z</time></trkpt><trkpt lat="39.35667542942186" lon="8.62057565532154"><ele>251.0</ele><time>2026-04-10T10:25:08Z</time></trkpt><trkpt lat="39.35675880031603" lon="8.620395126243288"><ele>250.0</ele><time>2026-04-10T10:25:09Z</time></trkpt><trkpt lat="39.356838400888236" lon="8.620219161970114"><ele>249.0</ele><time>2026-04-10T10:25:10Z</time></trkpt><trkpt lat="39.3569234498763" lon="8.620053355623995"><ele>248.0</ele><time>2026-04-10T10:25:11Z</time></trkpt><trkpt lat="39.357037155117325" lon="8.619913727722022"><ele>248.0</ele><time>2026-04-10T10:25:12Z</time></trkpt><trkpt lat="39.35716174021401" lon="8.619786405627123"><ele>248.0</ele><time>2026-04-10T10:25:13Z</time></trkpt><trkpt lat="39.357287296623205" lon="8.619648155340213"><ele>248.0</ele><time>2026-04-10T10:25:14Z</time></trkpt><trkpt lat="39.35741276195221" lon="8.619508392883152"><ele>248.75</ele><time>2026-04-10T10:25:15Z</time></trkpt><trkpt lat="39.357528734799516" lon="8.619370472682457"><ele>249.5</ele><time>2026-04-10T10:25:16Z</time></trkpt><trkpt lat="39.35762941938109" lon="8.619245429968098"><ele>250.25</ele><time>2026-04-10T10:25:17Z</time></trkpt><trkpt lat="39.3577253094798" lon="8.61912504858025"><ele>251.0</ele><time>2026-04-10T10:25:18Z</time></trkpt><trkpt lat="39.35781354241151" lon="8.619013540552263"><ele>251.0</ele><time>2026-04-10T10:25:19Z</time></trkpt><trkpt lat="39.35788351174127" lon="8.61889734556601"><ele>251.00000000000003</ele><time>2026-04-10T10:25:20Z</time></trkpt><trkpt lat="39.357956370016566" lon="8.61881734613409"><ele>251.00000000000003</ele><time>2026-04-10T10:25:21Z</time></trkpt><trkpt lat="39.35802604199186" lon="8.618733609493217"><ele>251.0</ele><time>2026-04-10T10:25:22Z</time></trkpt><trkpt lat="39.35809755061709" lon="8.618665609849746"><ele>251.0</ele><time>2026-04-10T10:25:23Z</time></trkpt><trkpt lat="39.3581488111179" lon="8.61861276970116"><ele>252.16666666666669</ele><time>2026-04-10T10:25:24Z</time></trkpt><trkpt lat="39.35820357498378" lon="8.618547328708507"><ele>253.33333333333334</ele><time>2026-04-10T10:25:26Z</time></trkpt><trkpt lat="39.35826884725761" lon="8.618458550942899"><ele>254.5</ele><time>2026-04-10T10:25:46Z</time></trkpt><trkpt lat="39.35833434071362" lon="8.618374221427116"><ele>255.66666666666669</ele><time>2026-04-10T10:25:47Z</time></trkpt><trkpt lat="39.35839329681594" lon="8.618294219205996"><ele>256.8333333333333</ele><time>2026-04-10T10:25:48Z</time></trkpt><trkpt lat="39.3584467562363" lon="8.61824407610844"><ele>258.0</ele><time>2026-04-10T10:25:49Z</time></trkpt><trkpt lat="39.35856726064626" lon="8.618221684663029"><ele>258.0</ele><time>2026-04-10T10:25:51Z</time></trkpt><trkpt lat="39.35863688666739" lon="8.618261037917526"><ele>258.0</ele><time>2026-04-10T10:25:52Z</time></trkpt><trkpt lat="39.358718543266804" lon="8.618292129997428"><ele>258.0</ele><time>2026-04-10T10:25:53Z</time></trkpt><trkpt lat="39.35879794457911" lon="8.618325166218735"><ele>258.0</ele><time>2026-04-10T10:25:54Z</time></trkpt><trkpt lat="39.35886823536263" lon="8.61835441185156"><ele>258.0</ele><time>2026-04-10T10:25:55Z</time></trkpt><trkpt lat="39.35893069008165" lon="8.618381801320767"><ele>258.0</ele><time>2026-04-10T10:25:56Z</time></trkpt><trkpt lat="39.359041335099356" lon="8.618456917533383"><ele>258.2</ele><time>2026-04-10T10:25:58Z</time></trkpt><trkpt lat="39.35910191979365" lon="8.618510330136298"><ele>258.4</ele><time>2026-04-10T10:25:59Z</time></trkpt><trkpt lat="39.35916341623006" lon="8.618586704643414"><ele>258.59999999999997</ele><time>2026-04-10T10:26:00Z</time></trkpt><trkpt lat="39.359256656019284" lon="8.618680178109036"><ele>258.8</ele><time>2026-04-10T10:26:01Z</time></trkpt><trkpt lat="39.35935964993131" lon="8.618787518969375"><ele>259.0</ele><time>2026-04-10T10:26:02Z</time></trkpt><trkpt lat="39.359458939836735" lon="8.618899364869899"><ele>258.5</ele><time>2026-04-10T10:26:03Z</time></trkpt><trkpt lat="39.35957759029869" lon="8.618977409900683"><ele>258.0</ele><time>2026-04-10T10:26:04Z</time></trkpt><trkpt lat="39.3597062203183" lon="8.619047544318683"><ele>257.5</ele><time>2026-04-10T10:26:05Z</time></trkpt><trkpt lat="39.35982717930867" lon="8.61909576697499"><ele>257.0</ele><time>2026-04-10T10:26:06Z</time></trkpt><trkpt lat="39.359936486104296" lon="8.619125415785328"><ele>257.0</ele><time>2026-04-10T10:26:07Z</time></trkpt><trkpt lat="39.36003833893573" lon="8.619133140978754"><ele>257.0</ele><time>2026-04-10T10:26:08Z</time></trkpt><trkpt lat="39.36014335462087" lon="8.619099235444677"><ele>257.0</ele><time>2026-04-10T10:26:09Z</time></trkpt><trkpt lat="39.36026438251296" lon="8.61906705495241"><ele>257.0</ele><time>2026-04-10T10:26:10Z</time></trkpt><trkpt lat="39.360358865201675" lon="8.619054214381197"><ele>257.0</ele><time>2026-04-10T10:26:11Z</time></trkpt><trkpt lat="39.36043873938075" lon="8.618991763362835"><ele>257.75</ele><time>2026-04-10T10:26:12Z</time></trkpt><trkpt lat="39.36054471392704" lon="8.6189177344513"><ele>258.5</ele><time>2026-04-10T10:26:13Z</time></trkpt><trkpt lat="39.360669407439474" lon="8.618844015334147"><ele>259.25</ele><time>2026-04-10T10:26:14Z</time></trkpt><trkpt lat="39.36078047122752" lon="8.618760553302808"><ele>260.0</ele><time>2026-04-10T10:26:15Z</time></trkpt><trkpt lat="39.36087843654548" lon="8.618645156856424"><ele>261.0</ele><time>2026-04-10T10:26:16Z</time></trkpt><trkpt lat="39.36095263484888" lon="8.618501722328217"><ele>262.0</ele><time>2026-04-10T10:26:17Z</time></trkpt><trkpt lat="39.36101573600805" lon="8.618340371774655"><ele>263.0</ele><time>2026-04-10T10:26:18Z</time></trkpt><trkpt lat="39.36106353864213" lon="8.618138788015358"><ele>264.0</ele><time>2026-04-10T10:26:19Z</time></trkpt><trkpt lat="39.361094713598405" lon="8.617926184473479"><ele>265.3333333333333</ele><time>2026-04-10T10:26:20Z</time></trkpt><trkpt lat="39.36112030027129" lon="8.617719907224705"><ele>266.66666666666663</ele><time>2026-04-10T10:26:21Z</time></trkpt><trkpt lat="39.361123710974866" lon="8.617490499250895"><ele>268.0</ele><time>2026-04-10T10:26:22Z</time></trkpt><trkpt lat="39.36109900914537" lon="8.617261999926567"><ele>268.0</ele><time>2026-04-10T10:26:23Z</time></trkpt><trkpt lat="39.361075337664396" lon="8.617058864619333"><ele>268.0</ele><time>2026-04-10T10:26:24Z</time></trkpt><trkpt lat="39.36107259416064" lon="8.61686932762254"><ele>268.0</ele><time>2026-04-10T10:26:25Z</time></trkpt><trkpt lat="39.361070369739956" lon="8.616692889981763"><ele>268.0</ele><time>2026-04-10T10:26:26Z</time></trkpt><trkpt lat="39.3610623047596" lon="8.61646133537739"><ele>270.5</ele><time>2026-04-10T10:26:27Z</time></trkpt><trkpt lat="39.36105175447492" lon="8.616157954743183"><ele>273.0</ele><time>2026-04-10T10:26:28Z</time></trkpt><trkpt lat="39.361035047015086" lon="8.615852731027331"><ele>274.6666666666667</ele><time>2026-04-10T10:26:29Z</time></trkpt><trkpt lat="39.36101951153702" lon="8.615624264115361"><ele>276.33333333333337</ele><time>2026-04-10T10:26:30Z</time></trkpt><trkpt lat="39.36100952458871" lon="8.615383358248263"><ele>278.0</ele><time>2026-04-10T10:26:31Z</time></trkpt><trkpt lat="39.361005264519356" lon="8.615169655427803"><ele>278.5</ele><time>2026-04-10T10:26:32Z</time></trkpt><trkpt lat="39.361002220418314" lon="8.614986280842055"><ele>279.0</ele><time>2026-04-10T10:26:33Z</time></trkpt><trkpt lat="39.36100353604072" lon="8.614824650519292"><ele>279.5</ele><time>2026-04-10T10:26:34Z</time></trkpt><trkpt lat="39.361024225087505" lon="8.61465698164059"><ele>280.0</ele><time>2026-04-10T10:26:35Z</time></trkpt><trkpt lat="39.361079299898485" lon="8.614516626280473"><ele>279.0</ele><time>2026-04-10T10:26:36Z</time></trkpt><trkpt lat="39.361148089407784" lon="8.614404904486957"><ele>278.0</ele><time>2026-04-10T10:26:37Z</time></trkpt><trkpt lat="39.361223417646215" lon="8.614295755005166"><ele>277.0</ele><time>2026-04-10T10:26:38Z</time></trkpt><trkpt lat="39.36131617298186" lon="8.614206775931994"><ele>276.0</ele><time>2026-04-10T10:26:39Z</time></trkpt><trkpt lat="39.36143142388788" lon="8.61412471744636"><ele>276.0</ele><time>2026-04-10T10:26:40Z</time></trkpt><trkpt lat="39.36156308732108" lon="8.614047805713573"><ele>276.0</ele><time>2026-04-10T10:26:41Z</time></trkpt><trkpt lat="39.36167105849256" lon="8.613972722264693"><ele>276.0</ele><time>2026-04-10T10:26:42Z</time></trkpt><trkpt lat="39.36173613743165" lon="8.61389989693443"><ele>276.0</ele><time>2026-04-10T10:26:43Z</time></trkpt><trkpt lat="39.36177355925545" lon="8.613831510166643"><ele>276.0</ele><time>2026-04-10T10:26:44Z</time></trkpt><trkpt lat="39.36177267917588" lon="8.613748837116308"><ele>275.5</ele><time>2026-04-10T10:26:45Z</time></trkpt><trkpt lat="39.36172995307673" lon="8.613628904342558"><ele>275.0</ele><time>2026-04-10T10:26:46Z</time></trkpt><trkpt lat="39.361643429819" lon="8.613571687579187"><ele>274.5</ele><time>2026-04-10T10:26:47Z</time></trkpt><trkpt lat="39.361541198598964" lon="8.613491059392205"><ele>274.0</ele><time>2026-04-10T10:26:48Z</time></trkpt><trkpt lat="39.36142477837103" lon="8.613347650508068"><ele>279.75</ele><time>2026-04-10T10:26:49Z</time></trkpt><trkpt lat="39.36133217833997" lon="8.613238307497108"><ele>285.5</ele><time>2026-04-10T10:26:50Z</time></trkpt><trkpt lat="39.36124985335288" lon="8.613134569252555"><ele>291.25</ele><time>2026-04-10T10:26:51Z</time></trkpt><trkpt lat="39.36118536252868" lon="8.613022924818024"><ele>297.0</ele><time>2026-04-10T10:26:52Z</time></trkpt><trkpt lat="39.361128890884366" lon="8.612908924472979"><ele>295.8</ele><time>2026-04-10T10:26:53Z</time></trkpt><trkpt lat="39.36108908134062" lon="8.612805036837186"><ele>294.6</ele><time>2026-04-10T10:26:54Z</time></trkpt><trkpt lat="39.361063958809446" lon="8.61268446321865"><ele>293.40000000000003</ele><time>2026-04-10T10:26:55Z</time></trkpt><trkpt lat="39.36104956281706" lon="8.61255575490905"><ele>292.2</ele><time>2026-04-10T10:26:56Z</time></trkpt><trkpt lat="39.36104481087083" lon="8.61241844188045"><ele>291.0</ele><time>2026-04-10T10:26:57Z</time></trkpt><trkpt lat="39.361045363999146" lon="8.612304867553364"><ele>291.0</ele><time>2026-04-10T10:26:58Z</time></trkpt><trkpt lat="39.3610518659505" lon="8.61219801785888"><ele>291.0</ele><time>2026-04-10T10:26:59Z</time></trkpt><trkpt lat="39.3610726104629" lon="8.612084408020552"><ele>291.0</ele><time>2026-04-10T10:27:00Z</time></trkpt><trkpt lat="39.36114464433482" lon="8.61197093921183"><ele>291.0</ele><time>2026-04-10T10:27:01Z</time></trkpt><trkpt lat="39.36125240359233" lon="8.61188892274149"><ele>291.0</ele><time>2026-04-10T10:27:02Z</time></trkpt><trkpt lat="39.36134333900202" lon="8.611787870329698"><ele>289.0</ele><time>2026-04-10T10:27:03Z</time></trkpt><trkpt lat="39.361436115890136" lon="8.61167808905388"><ele>287.0</ele><time>2026-04-10T10:27:04Z</time></trkpt><trkpt lat="39.3615554668907" lon="8.611635001588818"><ele>285.0</ele><time>2026-04-10T10:27:05Z</time></trkpt><trkpt lat="39.36166770617919" lon="8.611603115465904"><ele>283.0</ele><time>2026-04-10T10:27:06Z</time></trkpt><trkpt lat="39.361756109215335" lon="8.611563541906227"><ele>283.0</ele><time>2026-04-10T10:27:07Z</time></trkpt><trkpt lat="39.361838649180754" lon="8.611502798522325"><ele>283.0</ele><time>2026-04-10T10:27:08Z</time></trkpt><trkpt lat="39.36197526049922" lon="8.611467271103942"><ele>283.0</ele><time>2026-04-10T10:27:09Z</time></trkpt><trkpt lat="39.36207787374707" lon="8.611415636214476"><ele>283.0</ele><time>2026-04-10T10:27:10Z</time></trkpt><trkpt lat="39.3621682918899" lon="8.611363437449823"><ele>283.0</ele><time>2026-04-10T10:27:11Z</time></trkpt><trkpt lat="39.36227830343249" lon="8.611283639142725"><ele>284.6</ele><time>2026-04-10T10:27:12Z</time></trkpt><trkpt lat="39.36238236289321" lon="8.611198956954263"><ele>286.20000000000005</ele><time>2026-04-10T10:27:13Z</time></trkpt><trkpt lat="39.36247213339084" lon="8.61111308106455"><ele>287.8</ele><time>2026-04-10T10:27:14Z</time></trkpt><trkpt lat="39.36252272146191" lon="8.61104400817403"><ele>289.40000000000003</ele><time>2026-04-10T10:27:15Z</time></trkpt><trkpt lat="39.362568446337356" lon="8.610946539710678"><ele>291.0</ele><time>2026-04-10T10:27:16Z</time></trkpt><trkpt lat="39.3626067224699" lon="8.610850102814283"><ele>291.0</ele><time>2026-04-10T10:27:17Z</time></trkpt><trkpt lat="39.362635845365105" lon="8.610701762256268"><ele>291.0</ele><time>2026-04-10T10:27:18Z</time></trkpt><trkpt lat="39.36269068289725" lon="8.610573421111841"><ele>291.0</ele><time>2026-04-10T10:27:19Z</time></trkpt><trkpt lat="39.362751855348" lon="8.610461225471674"><ele>291.0</ele><time>2026-04-10T10:27:20Z</time></trkpt><trkpt lat="39.36282396525843" lon="8.610360549401879"><ele>291.0</ele><time>2026-04-10T10:27:21Z</time></trkpt><trkpt lat="39.3628926227337" lon="8.61028387283205"><ele>291.8</ele><time>2026-04-10T10:27:22Z</time></trkpt><trkpt lat="39.36295074061355" lon="8.610197797466286"><ele>292.6</ele><time>2026-04-10T10:27:23Z</time></trkpt><trkpt lat="39.363052615022724" lon="8.610143103652891"><ele>293.4</ele><time>2026-04-10T10:27:24Z</time></trkpt><trkpt lat="39.36313350998779" lon="8.610078632274224"><ele>294.2</ele><time>2026-04-10T10:27:25Z</time></trkpt><trkpt lat="39.36320879749741" lon="8.610039905477205"><ele>295.0</ele><time>2026-04-10T10:27:26Z</time></trkpt><trkpt lat="39.36330183189182" lon="8.609972236713563"><ele>295.0</ele><time>2026-04-10T10:27:27Z</time></trkpt><trkpt lat="39.36338071819358" lon="8.609895146659051"><ele>295.0</ele><time>2026-04-10T10:27:28Z</time></trkpt><trkpt lat="39.36345782398237" lon="8.60978966127929"><ele>295.0</ele><time>2026-04-10T10:27:29Z</time></trkpt><trkpt lat="39.36352283107423" lon="8.60967954882786"><ele>295.0</ele><time>2026-04-10T10:27:30Z</time></trkpt><trkpt lat="39.36359850454934" lon="8.60957976600374"><ele>295.0</ele><time>2026-04-10T10:27:31Z</time></trkpt><trkpt lat="39.36366583906512" lon="8.609494944550633"><ele>295.4</ele><time>2026-04-10T10:27:32Z</time></trkpt><trkpt lat="39.36373573275396" lon="8.60942943965877"><ele>295.8</ele><time>2026-04-10T10:27:33Z</time></trkpt><trkpt lat="39.363803804031086" lon="8.60938211685419"><ele>296.2</ele><time>2026-04-10T10:27:34Z</time></trkpt><trkpt lat="39.36388437129975" lon="8.609335505993085"><ele>296.6</ele><time>2026-04-10T10:27:35Z</time></trkpt><trkpt lat="39.363989897262236" lon="8.609297044556268"><ele>297.0</ele><time>2026-04-10T10:27:36Z</time></trkpt><trkpt lat="39.36410223776116" lon="8.609269734188368"><ele>297.0</ele><time>2026-04-10T10:27:37Z</time></trkpt><trkpt lat="39.364218967844835" lon="8.609258155119798"><ele>297.0</ele><time>2026-04-10T10:27:38Z</time></trkpt><trkpt lat="39.36432556362208" lon="8.609250625123748"><ele>297.0</ele><time>2026-04-10T10:27:39Z</time></trkpt><trkpt lat="39.36441210248637" lon="8.609242214791507"><ele>297.0</ele><time>2026-04-10T10:27:40Z</time></trkpt><trkpt lat="39.36450475078828" lon="8.609232434765723"><ele>297.0</ele><time>2026-04-10T10:27:41Z</time></trkpt><trkpt lat="39.36459579848994" lon="8.609210167065369"><ele>297.0</ele><time>2026-04-10T10:27:42Z</time></trkpt><trkpt lat="39.364668280135184" lon="8.609212782079982"><ele>297.0</ele><time>2026-04-10T10:27:43Z</time></trkpt><trkpt lat="39.364764231722084" lon="8.609223218357267"><ele>297.0</ele><time>2026-04-10T10:27:44Z</time></trkpt><trkpt lat="39.36485282587798" lon="8.609261005026603"><ele>297.0</ele><time>2026-04-10T10:27:45Z</time></trkpt><trkpt lat="39.364951459812154" lon="8.609311083658366"><ele>297.0</ele><time>2026-04-10T10:27:46Z</time></trkpt><trkpt lat="39.36505201550386" lon="8.60935259439158"><ele>297.3333333333333</ele><time>2026-04-10T10:27:47Z</time></trkpt><trkpt lat="39.365138589157496" lon="8.609389863416148"><ele>297.6666666666667</ele><time>2026-04-10T10:27:48Z</time></trkpt><trkpt lat="39.36522683128247" lon="8.609395488633062"><ele>298.0</ele><time>2026-04-10T10:27:49Z</time></trkpt><trkpt lat="39.365302140895274" lon="8.609386904259507"><ele>298.33333333333337</ele><time>2026-04-10T10:27:50Z</time></trkpt><trkpt lat="39.36537647302691" lon="8.60936536209521"><ele>298.6666666666667</ele><time>2026-04-10T10:27:51Z</time></trkpt><trkpt lat="39.36545481439953" lon="8.609331214701022"><ele>299.0</ele><time>2026-04-10T10:27:52Z</time></trkpt><trkpt lat="39.36552875771032" lon="8.609272437704762"><ele>300.59999999999997</ele><time>2026-04-10T10:27:53Z</time></trkpt><trkpt lat="39.36562040681724" lon="8.609200740437212"><ele>302.2</ele><time>2026-04-10T10:27:54Z</time></trkpt><trkpt lat="39.3657019193563" lon="8.609148456622174"><ele>303.79999999999995</ele><time>2026-04-10T10:27:55Z</time></trkpt><trkpt lat="39.36577686716753" lon="8.609112043254997"><ele>305.4</ele><time>2026-04-10T10:27:56Z</time></trkpt><trkpt lat="39.365845991394586" lon="8.609049786561918"><ele>307.0</ele><time>2026-04-10T10:27:57Z</time></trkpt><trkpt lat="39.36592076293189" lon="8.608991333525951"><ele>307.0</ele><time>2026-04-10T10:27:58Z</time></trkpt><trkpt lat="39.36599776761745" lon="8.60896042515169"><ele>307.0</ele><time>2026-04-10T10:27:59Z</time></trkpt><trkpt lat="39.366092247602914" lon="8.608925491981141"><ele>307.0</ele><time>2026-04-10T10:28:00Z</time></trkpt><trkpt lat="39.36618049374697" lon="8.60887747597237"><ele>307.0</ele><time>2026-04-10T10:28:01Z</time></trkpt><trkpt lat="39.36628755275464" lon="8.60886750408346"><ele>307.0</ele><time>2026-04-10T10:28:02Z</time></trkpt><trkpt lat="39.36638644399496" lon="8.60884579024169"><ele>308.8</ele><time>2026-04-10T10:28:03Z</time></trkpt><trkpt lat="39.366469125679956" lon="8.608821653391272"><ele>310.6</ele><time>2026-04-10T10:28:04Z</time></trkpt><trkpt lat="39.36658829559169" lon="8.608789214951495"><ele>312.40000000000003</ele><time>2026-04-10T10:28:05Z</time></trkpt><trkpt lat="39.366702167270105" lon="8.608797678843825"><ele>314.2</ele><time>2026-04-10T10:28:06Z</time></trkpt><trkpt lat="39.36680573273498" lon="8.608790814818981"><ele>316.0</ele><time>2026-04-10T10:28:07Z</time></trkpt><trkpt lat="39.366908581256354" lon="8.608757407458317"><ele>316.0</ele><time>2026-04-10T10:28:08Z</time></trkpt><trkpt lat="39.36699237350564" lon="8.608724848119838"><ele>316.0</ele><time>2026-04-10T10:28:09Z</time></trkpt><trkpt lat="39.36710679111534" lon="8.608625336039585"><ele>316.0</ele><time>2026-04-10T10:28:11Z</time></trkpt><trkpt lat="39.36718436665112" lon="8.608548949510322"><ele>316.0</ele><time>2026-04-10T10:28:12Z</time></trkpt><trkpt lat="39.367269527678424" lon="8.608460660628584"><ele>316.0</ele><time>2026-04-10T10:28:13Z</time></trkpt><trkpt lat="39.36736125187486" lon="8.608367336158913"><ele>314.2</ele><time>2026-04-10T10:28:14Z</time></trkpt><trkpt lat="39.36744567236287" lon="8.60830900826994"><ele>312.40000000000003</ele><time>2026-04-10T10:28:15Z</time></trkpt><trkpt lat="39.367537551530226" lon="8.608256643420843"><ele>310.6</ele><time>2026-04-10T10:28:16Z</time></trkpt><trkpt lat="39.36762069578951" lon="8.60822252131858"><ele>308.8</ele><time>2026-04-10T10:28:17Z</time></trkpt><trkpt lat="39.36771456375944" lon="8.608187949613933"><ele>307.0</ele><time>2026-04-10T10:28:18Z</time></trkpt><trkpt lat="39.367815710212966" lon="8.608163816611562"><ele>307.0</ele><time>2026-04-10T10:28:19Z</time></trkpt><trkpt lat="39.367908351340965" lon="8.608140411895171"><ele>307.0</ele><time>2026-04-10T10:28:20Z</time></trkpt><trkpt lat="39.36799117845532" lon="8.608093582755753"><ele>307.0</ele><time>2026-04-10T10:28:21Z</time></trkpt><trkpt lat="39.36810088519882" lon="8.608004490077635"><ele>307.0</ele><time>2026-04-10T10:28:23Z</time></trkpt><trkpt lat="39.368174616331636" lon="8.607944108793873"><ele>307.0</ele><time>2026-04-10T10:28:26Z</time></trkpt><trkpt lat="39.368236160347124" lon="8.607913533372079"><ele>307.3333333333333</ele><time>2026-04-10T10:28:28Z</time></trkpt><trkpt lat="39.36828361977085" lon="8.607984850579818"><ele>307.66666666666663</ele><time>2026-04-10T10:28:30Z</time></trkpt><trkpt lat="39.36834897854796" lon="8.607976351249295"><ele>308.0</ele><time>2026-04-10T10:28:34Z</time></trkpt><trkpt lat="39.36850099790373" lon="8.607915774168372"><ele>308.3333333333333</ele><time>2026-04-10T10:30:37Z</time></trkpt><trkpt lat="39.3685573442799" lon="8.607873319309592"><ele>308.6666666666667</ele><time>2026-04-10T10:30:38Z</time></trkpt><trkpt lat="39.36861922221506" lon="8.607825449683018"><ele>309.0</ele><time>2026-04-10T10:30:39Z</time></trkpt><trkpt lat="39.36868129283306" lon="8.607784233619437"><ele>308.4</ele><time>2026-04-10T10:30:40Z</time></trkpt><trkpt lat="39.36880060737022" lon="8.607719606644837"><ele>307.79999999999995</ele><time>2026-04-10T10:30:42Z</time></trkpt><trkpt lat="39.368871914976665" lon="8.607694084557883"><ele>307.20000000000005</ele><time>2026-04-10T10:30:43Z</time></trkpt><trkpt lat="39.36895379269369" lon="8.607670916734062"><ele>306.6</ele><time>2026-04-10T10:30:44Z</time></trkpt><trkpt lat="39.369044148621654" lon="8.607649615191871"><ele>306.0</ele><time>2026-04-10T10:30:45Z</time></trkpt><trkpt lat="39.36913922868755" lon="8.607642068688628"><ele>306.0</ele><time>2026-04-10T10:30:46Z</time></trkpt><trkpt lat="39.36923736414613" lon="8.607631879579245"><ele>306.0</ele><time>2026-04-10T10:30:47Z</time></trkpt><trkpt lat="39.369356905359595" lon="8.60764010353662"><ele>306.0</ele><time>2026-04-10T10:30:48Z</time></trkpt><trkpt lat="39.3694333906428" lon="8.607634950231095"><ele>306.0</ele><time>2026-04-10T10:30:49Z</time></trkpt><trkpt lat="39.36949858189883" lon="8.60763097660982"><ele>306.0</ele><time>2026-04-10T10:30:50Z</time></trkpt><trkpt lat="39.36956979023179" lon="8.607638282730857"><ele>306.0</ele><time>2026-04-10T10:30:51Z</time></trkpt><trkpt lat="39.369639866579476" lon="8.60766110199552"><ele>306.6</ele><time>2026-04-10T10:30:52Z</time></trkpt><trkpt lat="39.369726734773494" lon="8.607677187887255"><ele>307.20000000000005</ele><time>2026-04-10T10:30:53Z</time></trkpt><trkpt lat="39.36980855687732" lon="8.607686424792243"><ele>307.79999999999995</ele><time>2026-04-10T10:30:54Z</time></trkpt><trkpt lat="39.36990704099241" lon="8.607691846745915"><ele>308.4</ele><time>2026-04-10T10:30:55Z</time></trkpt><trkpt lat="39.370009383781685" lon="8.60769401970515"><ele>309.0</ele><time>2026-04-10T10:30:56Z</time></trkpt><trkpt lat="39.37009940324411" lon="8.607700445166946"><ele>309.0</ele><time>2026-04-10T10:30:57Z</time></trkpt><trkpt lat="39.37017234539681" lon="8.60769154538345"><ele>309.0</ele><time>2026-04-10T10:30:58Z</time></trkpt><trkpt lat="39.37027961209183" lon="8.607656425628374"><ele>309.0</ele><time>2026-04-10T10:30:59Z</time></trkpt><trkpt lat="39.37038468288002" lon="8.607597212859568"><ele>309.0</ele><time>2026-04-10T10:31:00Z</time></trkpt><trkpt lat="39.37045699902786" lon="8.607547714146728"><ele>309.0</ele><time>2026-04-10T10:31:01Z</time></trkpt><trkpt lat="39.370537552404535" lon="8.607488577725723"><ele>309.59999999999997</ele><time>2026-04-10T10:31:02Z</time></trkpt><trkpt lat="39.37061660655901" lon="8.60742275214082"><ele>310.2</ele><time>2026-04-10T10:31:03Z</time></trkpt><trkpt lat="39.37069028473791" lon="8.60735105738419"><ele>310.79999999999995</ele><time>2026-04-10T10:31:04Z</time></trkpt><trkpt lat="39.37076977820587" lon="8.60726713363488"><ele>311.4</ele><time>2026-04-10T10:31:05Z</time></trkpt><trkpt lat="39.37084471658188" lon="8.607154602917545"><ele>312.0</ele><time>2026-04-10T10:31:06Z</time></trkpt><trkpt lat="39.370926780467855" lon="8.607062476214468"><ele>312.8333333333333</ele><time>2026-04-10T10:31:07Z</time></trkpt><trkpt lat="39.370997153632324" lon="8.606963096654997"><ele>313.6666666666667</ele><time>2026-04-10T10:31:08Z</time></trkpt><trkpt lat="39.371056346891415" lon="8.606884013949728"><ele>314.5</ele><time>2026-04-10T10:31:09Z</time></trkpt><trkpt lat="39.37111644357966" lon="8.606831679567968"><ele>315.33333333333337</ele><time>2026-04-10T10:31:10Z</time></trkpt><trkpt lat="39.37117221822537" lon="8.606767257604949"><ele>316.1666666666667</ele><time>2026-04-10T10:31:11Z</time></trkpt><trkpt lat="39.371252700872155" lon="8.606665971065954"><ele>317.0</ele><time>2026-04-10T10:31:13Z</time></trkpt><trkpt lat="39.371294287903936" lon="8.606598592570784"><ele>317.0</ele><time>2026-04-10T10:31:15Z</time></trkpt><trkpt lat="39.371345517608766" lon="8.60651293093895"><ele>317.0</ele><time>2026-04-10T10:31:18Z</time></trkpt><trkpt lat="39.37137764482837" lon="8.60642720329602"><ele>317.0</ele><time>2026-04-10T10:31:36.001Z</time></trkpt><trkpt lat="39.3714568697182" lon="8.606312606559452"><ele>317.0</ele><time>2026-04-10T10:31:38.001Z</time></trkpt><trkpt lat="39.371499911232114" lon="8.606231713147057"><ele>317.0</ele><time>2026-04-10T10:31:39.001Z</time></trkpt><trkpt lat="39.37155148297154" lon="8.606134787829737"><ele>317.0</ele><time>2026-04-10T10:31:40.001Z</time></trkpt><trkpt lat="39.37160700812158" lon="8.606025784818383"><ele>316.4</ele><time>2026-04-10T10:31:41.001Z</time></trkpt><trkpt lat="39.371669626224566" lon="8.605902261830417"><ele>315.79999999999995</ele><time>2026-04-10T10:31:42.001Z</time></trkpt><trkpt lat="39.371737164820715" lon="8.60578241989608"><ele>315.2</ele><time>2026-04-10T10:31:43.001Z</time></trkpt><trkpt lat="39.37179882504332" lon="8.605682399540683"><ele>314.59999999999997</ele><time>2026-04-10T10:31:44.001Z</time></trkpt><trkpt lat="39.3718263427214" lon="8.605540667717449"><ele>314.0</ele><time>2026-04-10T10:31:45.001Z</time></trkpt><trkpt lat="39.371906361376524" lon="8.605398019710561"><ele>315.2</ele><time>2026-04-10T10:31:47.001Z</time></trkpt><trkpt lat="39.37193488716233" lon="8.605310329973861"><ele>316.4</ele><time>2026-04-10T10:31:48.001Z</time></trkpt><trkpt lat="39.371966647721784" lon="8.605221264109815"><ele>317.6</ele><time>2026-04-10T10:31:49.001Z</time></trkpt><trkpt lat="39.37200268658182" lon="8.605117578003316"><ele>318.8</ele><time>2026-04-10T10:31:50.001Z</time></trkpt><trkpt lat="39.37205093940755" lon="8.604975377608172"><ele>320.0</ele><time>2026-04-10T10:31:51.001Z</time></trkpt><trkpt lat="39.37208993847458" lon="8.604854875562548"><ele>320.0</ele><time>2026-04-10T10:31:52.001Z</time></trkpt><trkpt lat="39.37213784913595" lon="8.604702993684963"><ele>320.0</ele><time>2026-04-10T10:31:53.001Z</time></trkpt><trkpt lat="39.3721884304302" lon="8.604541425793412"><ele>320.0</ele><time>2026-04-10T10:31:54.001Z</time></trkpt><trkpt lat="39.37224043610329" lon="8.604402576809294"><ele>320.0</ele><time>2026-04-10T10:31:55.001Z</time></trkpt><trkpt lat="39.37227468376375" lon="8.60428945877513"><ele>320.75</ele><time>2026-04-10T10:31:56.001Z</time></trkpt><trkpt lat="39.372313205797354" lon="8.604162413394691"><ele>321.5</ele><time>2026-04-10T10:31:57.001Z</time></trkpt><trkpt lat="39.37235723373979" lon="8.6039858867925"><ele>322.25</ele><time>2026-04-10T10:31:58.001Z</time></trkpt><trkpt lat="39.372399775514985" lon="8.603791842026014"><ele>323.0</ele><time>2026-04-10T10:31:59Z</time></trkpt><trkpt lat="39.372463654348046" lon="8.603678797450609"><ele>324.0</ele><time>2026-04-10T10:32:00Z</time></trkpt><trkpt lat="39.37251291167434" lon="8.603562337117342"><ele>325.0</ele><time>2026-04-10T10:32:01Z</time></trkpt><trkpt lat="39.37257111714146" lon="8.60342246189982"><ele>326.0</ele><time>2026-04-10T10:32:02Z</time></trkpt><trkpt lat="39.372631139067465" lon="8.603280748821026"><ele>327.0</ele><time>2026-04-10T10:32:03Z</time></trkpt><trkpt lat="39.37267972379437" lon="8.603139361743512"><ele>327.0</ele><time>2026-04-10T10:32:04Z</time></trkpt><trkpt lat="39.37272849796767" lon="8.60297643737096"><ele>327.0</ele><time>2026-04-10T10:32:05Z</time></trkpt><trkpt lat="39.37276609714005" lon="8.602784680314405"><ele>327.0</ele><time>2026-04-10T10:32:06Z</time></trkpt><trkpt lat="39.372786129201714" lon="8.602611018578449"><ele>327.0</ele><time>2026-04-10T10:32:07Z</time></trkpt><trkpt lat="39.37278927774238" lon="8.602376314341985"><ele>328.0</ele><time>2026-04-10T10:32:08Z</time></trkpt><trkpt lat="39.37278568019411" lon="8.60214514580974"><ele>329.0</ele><time>2026-04-10T10:32:09Z</time></trkpt><trkpt lat="39.37278773855283" lon="8.601927570371815"><ele>330.0</ele><time>2026-04-10T10:32:10Z</time></trkpt><trkpt lat="39.372790491858254" lon="8.601766930319517"><ele>330.0</ele><time>2026-04-10T10:32:11Z</time></trkpt><trkpt lat="39.37277736401637" lon="8.601557858415545"><ele>330.0</ele><time>2026-04-10T10:32:12Z</time></trkpt><trkpt lat="39.37278507425351" lon="8.601421548319411"><ele>330.0</ele><time>2026-04-10T10:32:13Z</time></trkpt><trkpt lat="39.372792324866055" lon="8.601281150138899"><ele>330.0</ele><time>2026-04-10T10:32:14Z</time></trkpt><trkpt lat="39.372804336482645" lon="8.601088102987761"><ele>330.25</ele><time>2026-04-10T10:32:15Z</time></trkpt><trkpt lat="39.372829350522636" lon="8.600923084280556"><ele>330.5</ele><time>2026-04-10T10:32:16Z</time></trkpt><trkpt lat="39.372841421834245" lon="8.600797497852087"><ele>330.75</ele><time>2026-04-10T10:32:17Z</time></trkpt><trkpt lat="39.372824452419295" lon="8.600645439993986"><ele>331.0</ele><time>2026-04-10T10:32:18Z</time></trkpt><trkpt lat="39.37281835983904" lon="8.600482297902715"><ele>331.5</ele><time>2026-04-10T10:32:19Z</time></trkpt><trkpt lat="39.37279240084957" lon="8.60032599056568"><ele>332.0</ele><time>2026-04-10T10:32:20Z</time></trkpt><trkpt lat="39.372757856256015" lon="8.600169936475435"><ele>332.5</ele><time>2026-04-10T10:32:21Z</time></trkpt><trkpt lat="39.372723452504175" lon="8.599998966553152"><ele>333.0</ele><time>2026-04-10T10:32:22Z</time></trkpt><trkpt lat="39.37270378523476" lon="8.599817509629313"><ele>333.0</ele><time>2026-04-10T10:32:23Z</time></trkpt><trkpt lat="39.372652803038875" lon="8.599653051447179"><ele>333.0</ele><time>2026-04-10T10:32:24Z</time></trkpt><trkpt lat="39.37260202476479" lon="8.599468998599603"><ele>333.0</ele><time>2026-04-10T10:32:25Z</time></trkpt><trkpt lat="39.37253887298737" lon="8.59931865099426"><ele>333.0</ele><time>2026-04-10T10:32:26Z</time></trkpt><trkpt lat="39.37248943109684" lon="8.599146180987287"><ele>332.0</ele><time>2026-04-10T10:32:27Z</time></trkpt><trkpt lat="39.372410894838396" lon="8.598972136995487"><ele>331.0</ele><time>2026-04-10T10:32:28Z</time></trkpt><trkpt lat="39.37230845870856" lon="8.598789812401405"><ele>330.0</ele><time>2026-04-10T10:32:29Z</time></trkpt><trkpt lat="39.372233902858184" lon="8.59866791301111"><ele>330.5</ele><time>2026-04-10T10:32:30Z</time></trkpt><trkpt lat="39.37220568531831" lon="8.5985394709246"><ele>331.0</ele><time>2026-04-10T10:32:31Z</time></trkpt><trkpt lat="39.37217073099802" lon="8.59840557424075"><ele>331.5</ele><time>2026-04-10T10:32:32Z</time></trkpt><trkpt lat="39.37216926919107" lon="8.598252292242476"><ele>332.0</ele><time>2026-04-10T10:32:33Z</time></trkpt><trkpt lat="39.372174417315584" lon="8.598084807943764"><ele>333.0</ele><time>2026-04-10T10:32:34Z</time></trkpt><trkpt lat="39.37217714719339" lon="8.597905676909386"><ele>334.0</ele><time>2026-04-10T10:32:35Z</time></trkpt><trkpt lat="39.372180615066675" lon="8.597729670346357"><ele>335.0</ele><time>2026-04-10T10:32:36Z</time></trkpt><trkpt lat="39.3722099646937" lon="8.597600082146947"><ele>336.0</ele><time>2026-04-10T10:32:37Z</time></trkpt><trkpt lat="39.37223550951188" lon="8.597452135333743"><ele>336.0</ele><time>2026-04-10T10:32:38Z</time></trkpt><trkpt lat="39.372254467758225" lon="8.597348492689873"><ele>336.0</ele><time>2026-04-10T10:32:39Z</time></trkpt><trkpt lat="39.37228595199744" lon="8.597205555666545"><ele>336.0</ele><time>2026-04-10T10:32:40Z</time></trkpt><trkpt lat="39.372370743244325" lon="8.59700890151448"><ele>336.0</ele><time>2026-04-10T10:32:41Z</time></trkpt><trkpt lat="39.37247769950022" lon="8.59679862934037"><ele>336.75</ele><time>2026-04-10T10:32:42Z</time></trkpt><trkpt lat="39.372549591333886" lon="8.596623407326415"><ele>337.5</ele><time>2026-04-10T10:32:43Z</time></trkpt><trkpt lat="39.37262298739173" lon="8.596468105939016"><ele>338.25</ele><time>2026-04-10T10:32:44Z</time></trkpt><trkpt lat="39.37267284179345" lon="8.59632979689499"><ele>339.0</ele><time>2026-04-10T10:32:45Z</time></trkpt><trkpt lat="39.37273385863809" lon="8.596189686269064"><ele>340.25</ele><time>2026-04-10T10:32:46Z</time></trkpt><trkpt lat="39.3727550475982" lon="8.596050922887763"><ele>341.5</ele><time>2026-04-10T10:32:47Z</time></trkpt><trkpt lat="39.37277239750288" lon="8.595937592165274"><ele>342.75</ele><time>2026-04-10T10:32:48Z</time></trkpt><trkpt lat="39.37276549582792" lon="8.595800772562008"><ele>344.0</ele><time>2026-04-10T10:32:49Z</time></trkpt><trkpt lat="39.37274102633754" lon="8.59559754436488"><ele>344.0</ele><time>2026-04-10T10:32:50Z</time></trkpt><trkpt lat="39.37270507106388" lon="8.59539275831919"><ele>344.0</ele><time>2026-04-10T10:32:51Z</time></trkpt><trkpt lat="39.37266360674787" lon="8.595190875989323"><ele>344.0</ele><time>2026-04-10T10:32:52Z</time></trkpt><trkpt lat="39.37261857888763" lon="8.59497551125893"><ele>344.5</ele><time>2026-04-10T10:32:53Z</time></trkpt><trkpt lat="39.3725753320675" lon="8.59475662649519"><ele>345.0</ele><time>2026-04-10T10:32:54Z</time></trkpt><trkpt lat="39.37256876198466" lon="8.59458682448963"><ele>345.5</ele><time>2026-04-10T10:32:55Z</time></trkpt><trkpt lat="39.37254748091661" lon="8.594440500063849"><ele>346.0</ele><time>2026-04-10T10:32:56Z</time></trkpt><trkpt lat="39.37258230425984" lon="8.594286664309573"><ele>347.0</ele><time>2026-04-10T10:32:57Z</time></trkpt><trkpt lat="39.372614297667305" lon="8.594132770762426"><ele>348.0</ele><time>2026-04-10T10:32:58Z</time></trkpt><trkpt lat="39.37264745117718" lon="8.594024619940706"><ele>349.0</ele><time>2026-04-10T10:32:59Z</time></trkpt><trkpt lat="39.37268507212587" lon="8.59392796008761"><ele>350.0</ele><time>2026-04-10T10:33:00Z</time></trkpt><trkpt lat="39.37275673789485" lon="8.593831927614787"><ele>351.0</ele><time>2026-04-10T10:33:01Z</time></trkpt><trkpt lat="39.37283991407579" lon="8.59372353391269"><ele>350.0</ele><time>2026-04-10T10:33:02Z</time></trkpt><trkpt lat="39.37291031136307" lon="8.593611403361827"><ele>349.0</ele><time>2026-04-10T10:33:03Z</time></trkpt><trkpt lat="39.3729638600466" lon="8.593501134431845"><ele>348.0</ele><time>2026-04-10T10:33:04Z</time></trkpt><trkpt lat="39.37298878770007" lon="8.593410747100227"><ele>347.0</ele><time>2026-04-10T10:33:05Z</time></trkpt><trkpt lat="39.37305350010529" lon="8.593387055684389"><ele>346.0</ele><time>2026-04-10T10:33:30Z</time></trkpt><trkpt lat="39.37312606013576" lon="8.59335082084344"><ele>345.0</ele><time>2026-04-10T10:33:31Z</time></trkpt><trkpt lat="39.37320180871024" lon="8.593310889536205"><ele>345.0</ele><time>2026-04-10T10:33:32Z</time></trkpt><trkpt lat="39.37329286342847" lon="8.593270927481598"><ele>345.0</ele><time>2026-04-10T10:33:33Z</time></trkpt><trkpt lat="39.373397441455495" lon="8.593195130857808"><ele>345.0</ele><time>2026-04-10T10:33:34Z</time></trkpt><trkpt lat="39.37347220371598" lon="8.593130244835603"><ele>345.0</ele><time>2026-04-10T10:33:35Z</time></trkpt><trkpt lat="39.373479575476814" lon="8.593025595580261"><ele>345.0</ele><time>2026-04-10T10:33:36Z</time></trkpt><trkpt lat="39.373522478117415" lon="8.592940315165901"><ele>345.0</ele><time>2026-04-10T10:33:37Z</time></trkpt><trkpt lat="39.37358701843449" lon="8.59289641399741"><ele>345.0</ele><time>2026-04-10T10:33:38Z</time></trkpt><trkpt lat="39.373659442559806" lon="8.59287729299756"><ele>345.0</ele><time>2026-04-10T10:33:39Z</time></trkpt><trkpt lat="39.373732479797305" lon="8.59283827984225"><ele>345.0</ele><time>2026-04-10T10:33:40Z</time></trkpt><trkpt lat="39.373793900995715" lon="8.59281282628057"><ele>345.0</ele><time>2026-04-10T10:33:41Z</time></trkpt><trkpt lat="39.37388367709676" lon="8.592824625905921"><ele>345.0</ele><time>2026-04-10T10:33:43.001Z</time></trkpt><trkpt lat="39.3739551236961" lon="8.592885758959769"><ele>345.8333333333333</ele><time>2026-04-10T10:33:44.001Z</time></trkpt><trkpt lat="39.37401456448754" lon="8.592950867373917"><ele>346.6666666666667</ele><time>2026-04-10T10:33:45.001Z</time></trkpt><trkpt lat="39.37407264948008" lon="8.592985662091952"><ele>347.5</ele><time>2026-04-10T10:33:46.001Z</time></trkpt><trkpt lat="39.37413557179827" lon="8.593000775865796"><ele>348.33333333333337</ele><time>2026-04-10T10:33:47.001Z</time></trkpt><trkpt lat="39.3742652620449" lon="8.592962014907267"><ele>349.1666666666667</ele><time>2026-04-10T10:33:49.001Z</time></trkpt><trkpt lat="39.37435078362275" lon="8.59291555666763"><ele>350.0</ele><time>2026-04-10T10:33:50.001Z</time></trkpt><trkpt lat="39.37441494262963" lon="8.592872407630404"><ele>350.5</ele><time>2026-04-10T10:33:51.001Z</time></trkpt><trkpt lat="39.37447736663593" lon="8.592817505061994"><ele>351.0</ele><time>2026-04-10T10:33:52.001Z</time></trkpt><trkpt lat="39.37452846066121" lon="8.592743740999692"><ele>351.5</ele><time>2026-04-10T10:33:53.001Z</time></trkpt><trkpt lat="39.374586950266256" lon="8.592686321455947"><ele>352.0</ele><time>2026-04-10T10:33:54.001Z</time></trkpt><trkpt lat="39.374645823890106" lon="8.59262638154613"><ele>352.5</ele><time>2026-04-10T10:33:55.001Z</time></trkpt><trkpt lat="39.37471001925477" lon="8.592505627980977"><ele>353.0</ele><time>2026-04-10T10:33:57.001Z</time></trkpt><trkpt lat="39.37470993722113" lon="8.592420148284765"><ele>353.59999999999997</ele><time>2026-04-10T10:33:58.001Z</time></trkpt><trkpt lat="39.37467333643206" lon="8.592271046429861"><ele>354.2</ele><time>2026-04-10T10:34:00.001Z</time></trkpt><trkpt lat="39.374618355078375" lon="8.592149125253401"><ele>354.8</ele><time>2026-04-10T10:34:01.001Z</time></trkpt><trkpt lat="39.37455781378587" lon="8.592079507533525"><ele>355.4</ele><time>2026-04-10T10:34:02.001Z</time></trkpt><trkpt lat="39.374476267327324" lon="8.591967992073624"><ele>356.0</ele><time>2026-04-10T10:34:04.001Z</time></trkpt><trkpt lat="39.374407939058486" lon="8.59193993503842"><ele>356.0</ele><time>2026-04-10T10:34:05Z</time></trkpt><trkpt lat="39.37433402771504" lon="8.591851947519887"><ele>356.0</ele><time>2026-04-10T10:34:07Z</time></trkpt><trkpt lat="39.3744345321069" lon="8.591828715406423"><ele>356.0</ele><time>2026-04-10T10:34:13Z</time></trkpt><trkpt lat="39.37451499294539" lon="8.5918416568234"><ele>356.0</ele><time>2026-04-10T10:34:18Z</time></trkpt><trkpt lat="39.374595615202246" lon="8.59186189601768"><ele>356.0</ele><time>2026-04-10T10:34:23Z</time></trkpt><trkpt lat="39.37466048700132" lon="8.59187251734386"><ele>356.0</ele><time>2026-04-10T10:34:25Z</time></trkpt><trkpt lat="39.37478728525945" lon="8.59182357072845"><ele>356.33333333333337</ele><time>2026-04-10T10:34:28Z</time></trkpt><trkpt lat="39.37487746661834" lon="8.591741278805122"><ele>356.6666666666667</ele><time>2026-04-10T10:34:30Z</time></trkpt><trkpt lat="39.37493475689582" lon="8.591687640482158"><ele>357.0</ele><time>2026-04-10T10:34:32Z</time></trkpt><trkpt lat="39.3749950541716" lon="8.591642615548785"><ele>357.3333333333333</ele><time>2026-04-10T10:34:34Z</time></trkpt><trkpt lat="39.37505386739447" lon="8.591605572203807"><ele>357.66666666666663</ele><time>2026-04-10T10:34:35Z</time></trkpt><trkpt lat="39.37511666024458" lon="8.591571853784144"><ele>358.0</ele><time>2026-04-10T10:34:38Z</time></trkpt><trkpt lat="39.37519177214552" lon="8.591542708063205"><ele>358.0</ele><time>2026-04-10T10:34:41Z</time></trkpt><trkpt lat="39.375273589034414" lon="8.591518054805407"><ele>358.0</ele><time>2026-04-10T10:34:44Z</time></trkpt><trkpt lat="39.375356840388626" lon="8.591523350746682"><ele>358.0</ele><time>2026-04-10T10:34:46Z</time></trkpt><trkpt lat="39.37545617673129" lon="8.591502705417932"><ele>358.0</ele><time>2026-04-10T10:34:47Z</time></trkpt><trkpt lat="39.375547144628065" lon="8.591472823583644"><ele>358.0</ele><time>2026-04-10T10:34:48Z</time></trkpt><trkpt lat="39.37564711576276" lon="8.591414856387745"><ele>358.75</ele><time>2026-04-10T10:34:49Z</time></trkpt><trkpt lat="39.37576145512562" lon="8.591400153256727"><ele>359.5</ele><time>2026-04-10T10:34:50Z</time></trkpt><trkpt lat="39.37588329286979" lon="8.591370038476922"><ele>360.25</ele><time>2026-04-10T10:34:51Z</time></trkpt><trkpt lat="39.375985924137744" lon="8.591319939328272"><ele>361.0</ele><time>2026-04-10T10:34:52Z</time></trkpt><trkpt lat="39.37610711614554" lon="8.591273790652027"><ele>361.0</ele><time>2026-04-10T10:34:53Z</time></trkpt><trkpt lat="39.376233762354616" lon="8.591205978377046"><ele>361.0</ele><time>2026-04-10T10:34:54Z</time></trkpt><trkpt lat="39.37636439973794" lon="8.591159490027534"><ele>361.0</ele><time>2026-04-10T10:34:55Z</time></trkpt><trkpt lat="39.37646982657464" lon="8.591141967162207"><ele>361.0</ele><time>2026-04-10T10:34:56Z</time></trkpt><trkpt lat="39.37656093143603" lon="8.591098186213689"><ele>365.8</ele><time>2026-04-10T10:34:57Z</time></trkpt><trkpt lat="39.376658514200145" lon="8.591030082181824"><ele>370.6</ele><time>2026-04-10T10:34:58Z</time></trkpt><trkpt lat="39.376749203648814" lon="8.590953742404462"><ele>375.4</ele><time>2026-04-10T10:34:59Z</time></trkpt><trkpt lat="39.37681146289128" lon="8.590839621049874"><ele>380.2</ele><time>2026-04-10T10:35:00Z</time></trkpt><trkpt lat="39.37691431837154" lon="8.590796575690474"><ele>385.0</ele><time>2026-04-10T10:35:01Z</time></trkpt><trkpt lat="39.377084488999245" lon="8.590776241443237"><ele>384.0</ele><time>2026-04-10T10:35:03Z</time></trkpt><trkpt lat="39.37725315356797" lon="8.590745957489498"><ele>383.0</ele><time>2026-04-10T10:35:04Z</time></trkpt><trkpt lat="39.37739890203542" lon="8.59074763293382"><ele>382.0</ele><time>2026-04-10T10:35:05Z</time></trkpt><trkpt lat="39.37753345192141" lon="8.590746530394437"><ele>382.0</ele><time>2026-04-10T10:35:06Z</time></trkpt><trkpt lat="39.37762813561781" lon="8.59074153073065"><ele>382.0</ele><time>2026-04-10T10:35:07Z</time></trkpt><trkpt lat="39.37772350225817" lon="8.590728774178856"><ele>382.0</ele><time>2026-04-10T10:35:08Z</time></trkpt><trkpt lat="39.37781475001311" lon="8.59070371277319"><ele>382.0</ele><time>2026-04-10T10:35:09Z</time></trkpt><trkpt lat="39.377943108488445" lon="8.590643108858217"><ele>382.0</ele><time>2026-04-10T10:35:11Z</time></trkpt><trkpt lat="39.37800045322294" lon="8.590576003270405"><ele>381.40000000000003</ele><time>2026-04-10T10:35:12Z</time></trkpt><trkpt lat="39.37808249018941" lon="8.59051222945258"><ele>380.8</ele><time>2026-04-10T10:35:13Z</time></trkpt><trkpt lat="39.37814847196115" lon="8.590403839602976"><ele>380.2</ele><time>2026-04-10T10:35:14Z</time></trkpt><trkpt lat="39.378215270232744" lon="8.590340109274385"><ele>379.6</ele><time>2026-04-10T10:35:15Z</time></trkpt><trkpt lat="39.37830959939849" lon="8.590318563802372"><ele>379.0</ele><time>2026-04-10T10:35:16Z</time></trkpt><trkpt lat="39.37841932892157" lon="8.590264169955828"><ele>385.0</ele><time>2026-04-10T10:35:17Z</time></trkpt><trkpt lat="39.3785313743013" lon="8.590165388638306"><ele>391.0</ele><time>2026-04-10T10:35:18Z</time></trkpt><trkpt lat="39.378619841212675" lon="8.590064444614663"><ele>397.0</ele><time>2026-04-10T10:35:19Z</time></trkpt><trkpt lat="39.37869287664352" lon="8.58992564114996"><ele>403.0</ele><time>2026-04-10T10:35:20Z</time></trkpt><trkpt lat="39.378779027396824" lon="8.589788116120811"><ele>403.0</ele><time>2026-04-10T10:35:21Z</time></trkpt><trkpt lat="39.37884554802377" lon="8.58961554243319"><ele>403.0</ele><time>2026-04-10T10:35:22Z</time></trkpt><trkpt lat="39.37893219911358" lon="8.58945251199364"><ele>403.0</ele><time>2026-04-10T10:35:23Z</time></trkpt><trkpt lat="39.37899454997416" lon="8.589315318302992"><ele>403.0</ele><time>2026-04-10T10:35:24Z</time></trkpt><trkpt lat="39.379067304479186" lon="8.589205527361031"><ele>404.75</ele><time>2026-04-10T10:35:25Z</time></trkpt><trkpt lat="39.379143358120864" lon="8.589092552103414"><ele>406.5</ele><time>2026-04-10T10:35:26Z</time></trkpt><trkpt lat="39.37921224445895" lon="8.588964687402344"><ele>408.25</ele><time>2026-04-10T10:35:27.001Z</time></trkpt><trkpt lat="39.37926216122664" lon="8.588804616914974"><ele>410.0</ele><time>2026-04-10T10:35:28.001Z</time></trkpt><trkpt lat="39.37929691785435" lon="8.588635404951471"><ele>416.4</ele><time>2026-04-10T10:35:29.001Z</time></trkpt><trkpt lat="39.37934866257964" lon="8.588493831077862"><ele>422.8</ele><time>2026-04-10T10:35:30.001Z</time></trkpt><trkpt lat="39.37938873371475" lon="8.588359104865212"><ele>429.20000000000005</ele><time>2026-04-10T10:35:31.001Z</time></trkpt><trkpt lat="39.37944881360584" lon="8.588272543323047"><ele>435.6</ele><time>2026-04-10T10:35:32.001Z</time></trkpt><trkpt lat="39.379510304976584" lon="8.588229862275217"><ele>442.0</ele><time>2026-04-10T10:35:33.001Z</time></trkpt><trkpt lat="39.379568741787644" lon="8.588139915527535"><ele>442.00000000000006</ele><time>2026-04-10T10:35:35.001Z</time></trkpt><trkpt lat="39.37960246213666" lon="8.58805287993308"><ele>442.0</ele><time>2026-04-10T10:35:37.001Z</time></trkpt><trkpt lat="39.379557304777556" lon="8.5879790154178"><ele>442.0</ele><time>2026-04-10T10:35:38.001Z</time></trkpt><trkpt lat="39.37948167853672" lon="8.587980825139033"><ele>442.0</ele><time>2026-04-10T10:35:39.001Z</time></trkpt><trkpt lat="39.37943907015256" lon="8.588089302019425"><ele>442.00000000000006</ele><time>2026-04-10T10:35:40.001Z</time></trkpt><trkpt lat="39.37939553858797" lon="8.588164421827972"><ele>442.0</ele><time>2026-04-10T10:35:41.001Z</time></trkpt><trkpt lat="39.37933386804448" lon="8.588213738944683"><ele>442.00000000000006</ele><time>2026-04-10T10:35:42.001Z</time></trkpt><trkpt lat="39.37925955927304" lon="8.588239080192343"><ele>442.0</ele><time>2026-04-10T10:35:45.001Z</time></trkpt><trkpt lat="39.379276201956905" lon="8.588159480704087"><ele>442.0</ele><time>2026-04-10T10:35:48.001Z</time></trkpt><trkpt lat="39.37933910549994" lon="8.58810613821276"><ele>442.0</ele><time>2026-04-10T10:35:50.001Z</time></trkpt><trkpt lat="39.37940841213727" lon="8.588062506690358"><ele>442.0</ele><time>2026-04-10T10:35:52.001Z</time></trkpt><trkpt lat="39.379457779258374" lon="8.587998036733481"><ele>442.00000000000006</ele><time>2026-04-10T10:35:54.001Z</time></trkpt><trkpt lat="39.37952760474269" lon="8.58794147534299"><ele>442.0</ele><time>2026-04-10T10:35:57.001Z</time></trkpt><trkpt lat="39.37960513876212" lon="8.587940685773438"><ele>439.50000000000006</ele><time>2026-04-10T10:35:59.001Z</time></trkpt><trkpt lat="39.37969088993188" lon="8.587928316197718"><ele>437.0</ele><time>2026-04-10T10:36:01.001Z</time></trkpt><trkpt lat="39.37975591700213" lon="8.5879302390096"><ele>434.5</ele><time>2026-04-10T10:36:03.001Z</time></trkpt><trkpt lat="39.37982330353204" lon="8.587950724484726"><ele>432.0</ele><time>2026-04-10T10:36:05.001Z</time></trkpt><trkpt lat="39.37992266775599" lon="8.587905938449099"><ele>429.50000000000006</ele><time>2026-04-10T10:36:08.001Z</time></trkpt><trkpt lat="39.3799906984605" lon="8.587897431592468"><ele>427.0</ele><time>2026-04-10T10:36:10.001Z</time></trkpt><trkpt lat="39.38009870036158" lon="8.587848431248057"><ele>430.6666666666667</ele><time>2026-04-10T10:36:12Z</time></trkpt><trkpt lat="39.38015870785633" lon="8.5878161602859"><ele>434.33333333333337</ele><time>2026-04-10T10:36:14Z</time></trkpt><trkpt lat="39.38024035128048" lon="8.587760686731446"><ele>438.0</ele><time>2026-04-10T10:36:17Z</time></trkpt><trkpt lat="39.380328013088786" lon="8.587667761637364"><ele>441.66666666666663</ele><time>2026-04-10T10:36:19Z</time></trkpt><trkpt lat="39.38040395120086" lon="8.587608088767592"><ele>445.3333333333333</ele><time>2026-04-10T10:36:20Z</time></trkpt><trkpt lat="39.38046789261084" lon="8.587576127296286"><ele>449.0</ele><time>2026-04-10T10:36:28Z</time></trkpt><trkpt lat="39.38057023817569" lon="8.587503961854079"><ele>449.0</ele><time>2026-04-10T10:36:30Z</time></trkpt><trkpt lat="39.38063700728553" lon="8.587457061407587"><ele>449.0</ele><time>2026-04-10T10:36:31Z</time></trkpt><trkpt lat="39.38076168504423" lon="8.587398383795335"><ele>449.0</ele><time>2026-04-10T10:36:33Z</time></trkpt><trkpt lat="39.38082892649714" lon="8.587381731242347"><ele>449.0</ele><time>2026-04-10T10:36:34Z</time></trkpt><trkpt lat="39.38093421824761" lon="8.587381578592721"><ele>449.0</ele><time>2026-04-10T10:36:35Z</time></trkpt><trkpt lat="39.38101384739652" lon="8.587354827573737"><ele>449.0</ele><time>2026-04-10T10:36:36Z</time></trkpt><trkpt lat="39.3810770065239" lon="8.587311021499826"><ele>449.0</ele><time>2026-04-10T10:36:37Z</time></trkpt><trkpt lat="39.38113480760657" lon="8.587246384868923"><ele>449.0</ele><time>2026-04-10T10:36:38Z</time></trkpt><trkpt lat="39.38117661646673" lon="8.587063748345454"><ele>449.0</ele><time>2026-04-10T10:36:40Z</time></trkpt><trkpt lat="39.38114985157357" lon="8.586956483785775"><ele>449.0</ele><time>2026-04-10T10:36:41Z</time></trkpt><trkpt lat="39.38113538476179" lon="8.586849550778297"><ele>452.16666666666663</ele><time>2026-04-10T10:36:42Z</time></trkpt><trkpt lat="39.38111362489502" lon="8.586702627105584"><ele>455.3333333333333</ele><time>2026-04-10T10:36:43Z</time></trkpt><trkpt lat="39.38108446158089" lon="8.586593222582763"><ele>458.5</ele><time>2026-04-10T10:36:44Z</time></trkpt><trkpt lat="39.38103919103128" lon="8.586487211091272"><ele>461.66666666666663</ele><time>2026-04-10T10:36:45Z</time></trkpt><trkpt lat="39.38098765672048" lon="8.586426973014595"><ele>464.8333333333333</ele><time>2026-04-10T10:36:46Z</time></trkpt><trkpt lat="39.380954194601415" lon="8.586346799995448"><ele>468.0</ele><time>2026-04-10T10:36:47Z</time></trkpt><trkpt lat="39.38092409691227" lon="8.586232595733273"><ele>470.59999999999997</ele><time>2026-04-10T10:36:48Z</time></trkpt><trkpt lat="39.38090952221154" lon="8.586129356153808"><ele>473.19999999999993</ele><time>2026-04-10T10:36:49Z</time></trkpt><trkpt lat="39.3808919183718" lon="8.586003237685313"><ele>475.8</ele><time>2026-04-10T10:36:50Z</time></trkpt><trkpt lat="39.380878636244496" lon="8.58587796542327"><ele>478.4</ele><time>2026-04-10T10:36:51Z</time></trkpt><trkpt lat="39.38088489877211" lon="8.58576321368777"><ele>481.0</ele><time>2026-04-10T10:36:52Z</time></trkpt><trkpt lat="39.380940446774744" lon="8.58561035625758"><ele>481.0</ele><time>2026-04-10T10:36:54Z</time></trkpt><trkpt lat="39.38100729792027" lon="8.585471488642723"><ele>481.0</ele><time>2026-04-10T10:36:56Z</time></trkpt><trkpt lat="39.38105368780225" lon="8.585347898497846"><ele>481.0</ele><time>2026-04-10T10:36:57Z</time></trkpt><trkpt lat="39.38107295395821" lon="8.585233688281752"><ele>481.0</ele><time>2026-04-10T10:36:58Z</time></trkpt><trkpt lat="39.38108318490021" lon="8.585141659827753"><ele>481.0</ele><time>2026-04-10T10:36:59Z</time></trkpt><trkpt lat="39.38109331078489" lon="8.585026092940462"><ele>485.4</ele><time>2026-04-10T10:37:00Z</time></trkpt><trkpt lat="39.38110710867132" lon="8.584922213607282"><ele>489.8</ele><time>2026-04-10T10:37:01Z</time></trkpt><trkpt lat="39.38112954231478" lon="8.584839032621998"><ele>494.19999999999993</ele><time>2026-04-10T10:37:02Z</time></trkpt><trkpt lat="39.38116200508171" lon="8.584741330433326"><ele>498.59999999999997</ele><time>2026-04-10T10:37:03Z</time></trkpt><trkpt lat="39.381213891781265" lon="8.584564723754157"><ele>503.0</ele><time>2026-04-10T10:37:05Z</time></trkpt><trkpt lat="39.381275016069196" lon="8.584466542446876"><ele>500.99999999999994</ele><time>2026-04-10T10:37:06Z</time></trkpt><trkpt lat="39.381335570242065" lon="8.584376860934158"><ele>499.0</ele><time>2026-04-10T10:37:07Z</time></trkpt><trkpt lat="39.38139315664895" lon="8.584298880867907"><ele>497.0</ele><time>2026-04-10T10:37:08Z</time></trkpt><trkpt lat="39.381454027938396" lon="8.584241165355747"><ele>495.0</ele><time>2026-04-10T10:37:09Z</time></trkpt><trkpt lat="39.38148213881142" lon="8.58414991435671"><ele>492.99999999999994</ele><time>2026-04-10T10:37:10Z</time></trkpt><trkpt lat="39.381452433459586" lon="8.584047105890905"><ele>491.0</ele><time>2026-04-10T10:37:11Z</time></trkpt><trkpt lat="39.381426106020214" lon="8.583966121139426"><ele>491.0</ele><time>2026-04-10T10:37:12Z</time></trkpt><trkpt lat="39.38138614655203" lon="8.583858281962588"><ele>491.0</ele><time>2026-04-10T10:37:13Z</time></trkpt><trkpt lat="39.38139610150353" lon="8.583722260009388"><ele>491.0</ele><time>2026-04-10T10:37:14Z</time></trkpt><trkpt lat="39.38139971678696" lon="8.583564203172408"><ele>491.0</ele><time>2026-04-10T10:37:15Z</time></trkpt><trkpt lat="39.3814018317444" lon="8.583452148921165"><ele>491.0</ele><time>2026-04-10T10:37:16Z</time></trkpt><trkpt lat="39.381433110654136" lon="8.583300153176015"><ele>493.16666666666663</ele><time>2026-04-10T10:37:17Z</time></trkpt><trkpt lat="39.38145247073665" lon="8.583211116834486"><ele>495.3333333333333</ele><time>2026-04-10T10:37:18Z</time></trkpt><trkpt lat="39.38148214158316" lon="8.58312262008193"><ele>497.5</ele><time>2026-04-10T10:37:19Z</time></trkpt><trkpt lat="39.381521314468536" lon="8.583039342851507"><ele>499.66666666666663</ele><time>2026-04-10T10:37:20Z</time></trkpt><trkpt lat="39.38159576642485" lon="8.582941385247858"><ele>501.8333333333333</ele><time>2026-04-10T10:37:21Z</time></trkpt><trkpt lat="39.38165152131097" lon="8.582861728985367"><ele>504.0</ele><time>2026-04-10T10:37:22Z</time></trkpt><trkpt lat="39.38170068380414" lon="8.582775698326206"><ele>506.5</ele><time>2026-04-10T10:37:23Z</time></trkpt><trkpt lat="39.3817463214135" lon="8.582685607863182"><ele>509.0</ele><time>2026-04-10T10:37:24Z</time></trkpt><trkpt lat="39.38180131311633" lon="8.582594580057888"><ele>511.5</ele><time>2026-04-10T10:37:25Z</time></trkpt><trkpt lat="39.38185754322907" lon="8.582520131806936"><ele>514.0</ele><time>2026-04-10T10:37:26Z</time></trkpt><trkpt lat="39.381898844550754" lon="8.582422283395072"><ele>516.5</ele><time>2026-04-10T10:37:27Z</time></trkpt><trkpt lat="39.38194775216185" lon="8.582307927476945"><ele>519.0</ele><time>2026-04-10T10:37:28Z</time></trkpt><trkpt lat="39.3819907768194" lon="8.58220028936323"><ele>519.0</ele><time>2026-04-10T10:37:29Z</time></trkpt><trkpt lat="39.382034729299086" lon="8.582104774268148"><ele>519.0</ele><time>2026-04-10T10:37:30Z</time></trkpt><trkpt lat="39.382092041036444" lon="8.582022077364545"><ele>519.0</ele><time>2026-04-10T10:37:31Z</time></trkpt><trkpt lat="39.38214763596151" lon="8.581979353379577"><ele>519.0</ele><time>2026-04-10T10:37:32Z</time></trkpt><trkpt lat="39.38221895849193" lon="8.581941384771834"><ele>519.0</ele><time>2026-04-10T10:37:33.001Z</time></trkpt><trkpt lat="39.38230262884341" lon="8.58190889335076"><ele>519.0</ele><time>2026-04-10T10:37:34.001Z</time></trkpt><trkpt lat="39.38237514378919" lon="8.581877014666494"><ele>519.5</ele><time>2026-04-10T10:37:35.001Z</time></trkpt><trkpt lat="39.382486519290026" lon="8.581896659680591"><ele>520.0</ele><time>2026-04-10T10:37:36.001Z</time></trkpt><trkpt lat="39.38256110116741" lon="8.581898345168662"><ele>520.5</ele><time>2026-04-10T10:37:37.001Z</time></trkpt><trkpt lat="39.38262045286494" lon="8.581838858220811"><ele>521.0</ele><time>2026-04-10T10:37:38.001Z</time></trkpt><trkpt lat="39.38267140570338" lon="8.581750033814455"><ele>521.5</ele><time>2026-04-10T10:37:40.001Z</time></trkpt><trkpt lat="39.38272160022085" lon="8.58165056146629"><ele>522.0</ele><time>2026-04-10T10:37:42.001Z</time></trkpt><trkpt lat="39.38275508023821" lon="8.581537838041086"><ele>522.0</ele><time>2026-04-10T10:37:44.001Z</time></trkpt><trkpt lat="39.38278528761403" lon="8.5814337095161"><ele>522.0</ele><time>2026-04-10T10:37:46.001Z</time></trkpt><trkpt lat="39.38279782476103" lon="8.581325701721958"><ele>522.0</ele><time>2026-04-10T10:37:48.001Z</time></trkpt><trkpt lat="39.382826227811755" lon="8.581238554727525"><ele>522.0</ele><time>2026-04-10T10:37:50.001Z</time></trkpt><trkpt lat="39.382879042568035" lon="8.581170881270262"><ele>522.0</ele><time>2026-04-10T10:37:52.001Z</time></trkpt><trkpt lat="39.382887771636504" lon="8.581060741647555"><ele>522.0</ele><time>2026-04-10T10:37:55.001Z</time></trkpt><trkpt lat="39.38290572109437" lon="8.580978473971486"><ele>522.8333333333334</ele><time>2026-04-10T10:37:57.001Z</time></trkpt><trkpt lat="39.38291645700517" lon="8.58088633227628"><ele>523.6666666666666</ele><time>2026-04-10T10:38:00.001Z</time></trkpt><trkpt lat="39.38293680267288" lon="8.58078987417229"><ele>524.5</ele><time>2026-04-10T10:38:49Z</time></trkpt><trkpt lat="39.382946102256625" lon="8.580703655147252"><ele>525.3333333333333</ele><time>2026-04-10T10:38:50Z</time></trkpt><trkpt lat="39.3829890340052" lon="8.58059155124456"><ele>526.1666666666666</ele><time>2026-04-10T10:38:51Z</time></trkpt><trkpt lat="39.38303020697048" lon="8.58048549989402"><ele>527.0</ele><time>2026-04-10T10:38:52Z</time></trkpt><trkpt lat="39.38306804625184" lon="8.58039735872918"><ele>528.0000000000001</ele><time>2026-04-10T10:38:53Z</time></trkpt><trkpt lat="39.38313672138822" lon="8.580302647756696"><ele>529.0</ele><time>2026-04-10T10:38:55Z</time></trkpt><trkpt lat="39.38318858797207" lon="8.580226054720294"><ele>530.0</ele><time>2026-04-10T10:38:59Z</time></trkpt><trkpt lat="39.38323095979474" lon="8.58016500487203"><ele>531.0</ele><time>2026-04-10T10:39:01Z</time></trkpt><trkpt lat="39.383277938869995" lon="8.580099968544921"><ele>532.0</ele><time>2026-04-10T10:39:02Z</time></trkpt><trkpt lat="39.38331571263202" lon="8.580023238522989"><ele>533.0000000000001</ele><time>2026-04-10T10:39:03Z</time></trkpt><trkpt lat="39.383363941069604" lon="8.579967024080439"><ele>534.0</ele><time>2026-04-10T10:39:04Z</time></trkpt><trkpt lat="39.383446482527916" lon="8.57989824422411"><ele>534.0</ele><time>2026-04-10T10:39:05Z</time></trkpt><trkpt lat="39.38352024342242" lon="8.57980445272732"><ele>534.0</ele><time>2026-04-10T10:39:06Z</time></trkpt><trkpt lat="39.38359642492048" lon="8.579692464180606"><ele>534.0</ele><time>2026-04-10T10:39:07Z</time></trkpt><trkpt lat="39.38363387877087" lon="8.579510567583322"><ele>534.0</ele><time>2026-04-10T10:39:09Z</time></trkpt><trkpt lat="39.38368058021974" lon="8.579415392267498"><ele>536.4</ele><time>2026-04-10T10:39:10Z</time></trkpt><trkpt lat="39.383712284957376" lon="8.579303026346416"><ele>538.8</ele><time>2026-04-10T10:39:11Z</time></trkpt><trkpt lat="39.38373942796793" lon="8.579177221006463"><ele>541.2</ele><time>2026-04-10T10:39:12Z</time></trkpt><trkpt lat="39.38373033664242" lon="8.579038951988393"><ele>543.6</ele><time>2026-04-10T10:39:13Z</time></trkpt><trkpt lat="39.38374444939636" lon="8.578902812558875"><ele>546.0</ele><time>2026-04-10T10:39:14Z</time></trkpt><trkpt lat="39.38374328032741" lon="8.578783257714516"><ele>544.6666666666666</ele><time>2026-04-10T10:39:15Z</time></trkpt><trkpt lat="39.38376815317021" lon="8.578680814751591"><ele>543.3333333333334</ele><time>2026-04-10T10:39:16Z</time></trkpt><trkpt lat="39.3837865621039" lon="8.578566580138583"><ele>542.0</ele><time>2026-04-10T10:39:17Z</time></trkpt><trkpt lat="39.3838046723544" lon="8.578479431245771"><ele>540.6666666666667</ele><time>2026-04-10T10:39:18Z</time></trkpt><trkpt lat="39.38384442116693" lon="8.578358938900598"><ele>539.3333333333334</ele><time>2026-04-10T10:39:19Z</time></trkpt><trkpt lat="39.38389803085403" lon="8.578247218630828"><ele>538.0</ele><time>2026-04-10T10:39:20Z</time></trkpt><trkpt lat="39.38396559822185" lon="8.578169075635163"><ele>538.0</ele><time>2026-04-10T10:39:21Z</time></trkpt><trkpt lat="39.38404038597808" lon="8.578083847371895"><ele>538.0</ele><time>2026-04-10T10:39:22Z</time></trkpt><trkpt lat="39.38413776027841" lon="8.57797822162026"><ele>538.0</ele><time>2026-04-10T10:39:23Z</time></trkpt><trkpt lat="39.38421554209412" lon="8.577886512183714"><ele>538.0</ele><time>2026-04-10T10:39:24Z</time></trkpt><trkpt lat="39.384282131246565" lon="8.57782434144064"><ele>538.0</ele><time>2026-04-10T10:39:25Z</time></trkpt><trkpt lat="39.384329912190346" lon="8.57776702195699"><ele>539.6</ele><time>2026-04-10T10:39:26.001Z</time></trkpt><trkpt lat="39.384385402894594" lon="8.577673460731713"><ele>541.1999999999999</ele><time>2026-04-10T10:39:28.001Z</time></trkpt><trkpt lat="39.38443601033013" lon="8.577534059347302"><ele>542.8</ele><time>2026-04-10T10:39:29.001Z</time></trkpt><trkpt lat="39.384443904616454" lon="8.577383964468018"><ele>544.4</ele><time>2026-04-10T10:39:30.001Z</time></trkpt><trkpt lat="39.38446951103982" lon="8.577269784067102"><ele>546.0</ele><time>2026-04-10T10:39:31.001Z</time></trkpt><trkpt lat="39.38445300004885" lon="8.577096432883865"><ele>547.6</ele><time>2026-04-10T10:39:32.001Z</time></trkpt><trkpt lat="39.384475418426135" lon="8.576969930662878"><ele>549.2</ele><time>2026-04-10T10:39:33.001Z</time></trkpt><trkpt lat="39.384489438364234" lon="8.576856935219984"><ele>550.8</ele><time>2026-04-10T10:39:34.001Z</time></trkpt><trkpt lat="39.384512156189295" lon="8.576744817335106"><ele>552.4</ele><time>2026-04-10T10:39:35.001Z</time></trkpt><trkpt lat="39.38456010916577" lon="8.576632891061337"><ele>554.0</ele><time>2026-04-10T10:39:36.001Z</time></trkpt><trkpt lat="39.384617454935785" lon="8.576543227666681"><ele>554.0</ele><time>2026-04-10T10:39:37.001Z</time></trkpt><trkpt lat="39.38467343966546" lon="8.576437762014267"><ele>554.0</ele><time>2026-04-10T10:39:38.001Z</time></trkpt><trkpt lat="39.38471566777266" lon="8.576323633587045"><ele>554.0</ele><time>2026-04-10T10:39:39.001Z</time></trkpt><trkpt lat="39.38480518568162" lon="8.576207262348257"><ele>554.0</ele><time>2026-04-10T10:39:40.001Z</time></trkpt><trkpt lat="39.38485171112779" lon="8.576109301010158"><ele>554.0</ele><time>2026-04-10T10:39:41.001Z</time></trkpt><trkpt lat="39.38488474878265" lon="8.575999909697854"><ele>552.4</ele><time>2026-04-10T10:39:42.001Z</time></trkpt><trkpt lat="39.38490776735452" lon="8.57589901691947"><ele>550.8</ele><time>2026-04-10T10:39:43.001Z</time></trkpt><trkpt lat="39.38494877672143" lon="8.575810168739052"><ele>549.2</ele><time>2026-04-10T10:39:44.001Z</time></trkpt><trkpt lat="39.3849869297438" lon="8.575703783258321"><ele>547.6</ele><time>2026-04-10T10:39:45.001Z</time></trkpt><trkpt lat="39.385032884722506" lon="8.575575642873492"><ele>546.0</ele><time>2026-04-10T10:39:46.001Z</time></trkpt><trkpt lat="39.38508065303232" lon="8.575421016360506"><ele>546.2</ele><time>2026-04-10T10:39:47.001Z</time></trkpt><trkpt lat="39.38509141590045" lon="8.575273706225211"><ele>546.4000000000001</ele><time>2026-04-10T10:39:48.001Z</time></trkpt><trkpt lat="39.38509795869841" lon="8.575154413843563"><ele>546.6</ele><time>2026-04-10T10:39:49.001Z</time></trkpt><trkpt lat="39.38510973854899" lon="8.575028469352837"><ele>546.8000000000001</ele><time>2026-04-10T10:39:50.001Z</time></trkpt><trkpt lat="39.38514436634386" lon="8.574862680708458"><ele>547.0</ele><time>2026-04-10T10:39:51.001Z</time></trkpt><trkpt lat="39.38514995657242" lon="8.574721931334723"><ele>547.0</ele><time>2026-04-10T10:39:52.001Z</time></trkpt><trkpt lat="39.385166812255385" lon="8.574616420739167"><ele>547.0</ele><time>2026-04-10T10:39:53.001Z</time></trkpt><trkpt lat="39.385183102367485" lon="8.574512446058064"><ele>547.0</ele><time>2026-04-10T10:39:54.001Z</time></trkpt><trkpt lat="39.38518162679575" lon="8.574410206750885"><ele>547.0</ele><time>2026-04-10T10:39:55.001Z</time></trkpt><trkpt lat="39.38520176882389" lon="8.574326732739422"><ele>547.0</ele><time>2026-04-10T10:39:56.001Z</time></trkpt><trkpt lat="39.38521366989364" lon="8.574234677364728"><ele>547.0</ele><time>2026-04-10T10:39:57.001Z</time></trkpt><trkpt lat="39.38522376132027" lon="8.574144526694312"><ele>547.8000000000001</ele><time>2026-04-10T10:39:58.001Z</time></trkpt><trkpt lat="39.38527305897241" lon="8.57403387220891"><ele>548.6</ele><time>2026-04-10T10:39:59.001Z</time></trkpt><trkpt lat="39.38532069473696" lon="8.573905650977883"><ele>549.4000000000001</ele><time>2026-04-10T10:40:00.001Z</time></trkpt><trkpt lat="39.3853695325361" lon="8.573765754430367"><ele>550.2</ele><time>2026-04-10T10:40:01.001Z</time></trkpt><trkpt lat="39.38541868053488" lon="8.573655245760941"><ele>551.0</ele><time>2026-04-10T10:40:03.001Z</time></trkpt><trkpt lat="39.385428596294226" lon="8.573574434919477"><ele>550.6</ele><time>2026-04-10T10:40:04.001Z</time></trkpt><trkpt lat="39.38550493098347" lon="8.573476810333506"><ele>550.2</ele><time>2026-04-10T10:40:05.001Z</time></trkpt><trkpt lat="39.38557104433699" lon="8.573397926641327"><ele>549.8</ele><time>2026-04-10T10:40:06.001Z</time></trkpt><trkpt lat="39.38561143826783" lon="8.573313384250842"><ele>549.4</ele><time>2026-04-10T10:40:07.001Z</time></trkpt><trkpt lat="39.38567463748635" lon="8.573223099732527"><ele>549.0</ele><time>2026-04-10T10:40:08.001Z</time></trkpt><trkpt lat="39.38576600888069" lon="8.573137928621552"><ele>549.0</ele><time>2026-04-10T10:40:09.001Z</time></trkpt><trkpt lat="39.38582839280168" lon="8.573024082664364"><ele>549.0</ele><time>2026-04-10T10:40:10.001Z</time></trkpt><trkpt lat="39.38590313803847" lon="8.572958596830997"><ele>549.0</ele><time>2026-04-10T10:40:11.001Z</time></trkpt><trkpt lat="39.38596576567647" lon="8.572876913079144"><ele>549.0</ele><time>2026-04-10T10:40:12.001Z</time></trkpt><trkpt lat="39.38600950473236" lon="8.572792173230233"><ele>549.0</ele><time>2026-04-10T10:40:13.001Z</time></trkpt><trkpt lat="39.38601867762706" lon="8.572679212290266"><ele>549.0</ele><time>2026-04-10T10:40:14.001Z</time></trkpt><trkpt lat="39.38605791132963" lon="8.572572871656604"><ele>549.0</ele><time>2026-04-10T10:40:15.001Z</time></trkpt><trkpt lat="39.38609128787581" lon="8.572463615378418"><ele>549.0</ele><time>2026-04-10T10:40:16.001Z</time></trkpt><trkpt lat="39.38610813651401" lon="8.572362047098267"><ele>549.0</ele><time>2026-04-10T10:40:17.001Z</time></trkpt><trkpt lat="39.38616358922654" lon="8.572266502509054"><ele>549.0</ele><time>2026-04-10T10:40:18.001Z</time></trkpt><trkpt lat="39.386190439845294" lon="8.572177411661945"><ele>549.0</ele><time>2026-04-10T10:40:19.001Z</time></trkpt><trkpt lat="39.38621450360332" lon="8.572025282084288"><ele>550.4</ele><time>2026-04-10T10:40:21.001Z</time></trkpt><trkpt lat="39.386246862835364" lon="8.571913743183835"><ele>551.8</ele><time>2026-04-10T10:40:22.001Z</time></trkpt><trkpt lat="39.38625539113214" lon="8.571720989371318"><ele>553.2</ele><time>2026-04-10T10:40:24.001Z</time></trkpt><trkpt lat="39.38625773312393" lon="8.571579775896822"><ele>554.6</ele><time>2026-04-10T10:40:25.001Z</time></trkpt><trkpt lat="39.38627166112127" lon="8.571467588198473"><ele>556.0</ele><time>2026-04-10T10:40:26.001Z</time></trkpt><trkpt lat="39.38630098636688" lon="8.571372153103429"><ele>556.0</ele><time>2026-04-10T10:40:27.001Z</time></trkpt><trkpt lat="39.38628122260855" lon="8.571261836169754"><ele>556.0</ele><time>2026-04-10T10:40:29.001Z</time></trkpt><trkpt lat="39.38626727638577" lon="8.571164512186508"><ele>556.0</ele><time>2026-04-10T10:40:30.001Z</time></trkpt><trkpt lat="39.38628540861523" lon="8.571055719424422"><ele>556.0</ele><time>2026-04-10T10:40:31.001Z</time></trkpt><trkpt lat="39.386292999496355" lon="8.570896655897961"><ele>556.0</ele><time>2026-04-10T10:40:32.001Z</time></trkpt><trkpt lat="39.386298933772615" lon="8.570783183361286"><ele>557.0</ele><time>2026-04-10T10:40:33Z</time></trkpt><trkpt lat="39.3863089793649" lon="8.570638061340306"><ele>558.0</ele><time>2026-04-10T10:40:34Z</time></trkpt><trkpt lat="39.38631958826955" lon="8.570534680376076"><ele>559.0</ele><time>2026-04-10T10:40:35Z</time></trkpt><trkpt lat="39.386337454285304" lon="8.570421796179703"><ele>560.0</ele><time>2026-04-10T10:40:36Z</time></trkpt><trkpt lat="39.386366539589986" lon="8.570307227336148"><ele>561.0</ele><time>2026-04-10T10:40:37Z</time></trkpt><trkpt lat="39.386394768230936" lon="8.57018803373547"><ele>561.0</ele><time>2026-04-10T10:40:38Z</time></trkpt><trkpt lat="39.38641917411492" lon="8.570063472449698"><ele>561.0</ele><time>2026-04-10T10:40:39Z</time></trkpt><trkpt lat="39.38644068064418" lon="8.569930926183924"><ele>561.0</ele><time>2026-04-10T10:40:40Z</time></trkpt><trkpt lat="39.386463618914995" lon="8.5697987852914"><ele>561.0</ele><time>2026-04-10T10:40:41Z</time></trkpt><trkpt lat="39.38647125893547" lon="8.569650095047036"><ele>561.0</ele><time>2026-04-10T10:40:42Z</time></trkpt><trkpt lat="39.38646461664035" lon="8.56951238485408"><ele>561.2</ele><time>2026-04-10T10:40:43Z</time></trkpt><trkpt lat="39.38645220480312" lon="8.56937748771355"><ele>561.4000000000001</ele><time>2026-04-10T10:40:44Z</time></trkpt><trkpt lat="39.38646842841759" lon="8.569270417312605"><ele>561.6</ele><time>2026-04-10T10:40:45Z</time></trkpt><trkpt lat="39.38645327048408" lon="8.569147214712476"><ele>561.8000000000001</ele><time>2026-04-10T10:40:47Z</time></trkpt><trkpt lat="39.38647162357187" lon="8.569013051601296"><ele>562.0</ele><time>2026-04-10T10:40:50Z</time></trkpt><trkpt lat="39.38658103405618" lon="8.568923639552871"><ele>562.0</ele><time>2026-04-10T10:40:51Z</time></trkpt><trkpt lat="39.386646398787406" lon="8.568833798893385"><ele>562.0</ele><time>2026-04-10T10:40:52Z</time></trkpt><trkpt lat="39.38670694624321" lon="8.568718506717653"><ele>562.0</ele><time>2026-04-10T10:40:53Z</time></trkpt><trkpt lat="39.386803311586334" lon="8.568555388541025"><ele>562.0</ele><time>2026-04-10T10:40:54Z</time></trkpt><trkpt lat="39.3868587953318" lon="8.568359152762724"><ele>562.5</ele><time>2026-04-10T10:40:55Z</time></trkpt><trkpt lat="39.38693263075052" lon="8.568219272565194"><ele>563.0</ele><time>2026-04-10T10:40:56Z</time></trkpt><trkpt lat="39.386995812927516" lon="8.568083620374527"><ele>563.5</ele><time>2026-04-10T10:40:57Z</time></trkpt><trkpt lat="39.38707987210646" lon="8.567994587164375"><ele>564.0</ele><time>2026-04-10T10:40:58Z</time></trkpt><trkpt lat="39.38715939151415" lon="8.567873712622038"><ele>564.75</ele><time>2026-04-10T10:40:59Z</time></trkpt><trkpt lat="39.38724620217103" lon="8.567766497356011"><ele>565.5</ele><time>2026-04-10T10:41:00Z</time></trkpt><trkpt lat="39.38729674293391" lon="8.567642820081172"><ele>566.25</ele><time>2026-04-10T10:41:01Z</time></trkpt><trkpt lat="39.38739573596311" lon="8.567541965180347"><ele>567.0</ele><time>2026-04-10T10:41:02Z</time></trkpt><trkpt lat="39.38744495452991" lon="8.567378108553877"><ele>567.0</ele><time>2026-04-10T10:41:03Z</time></trkpt><trkpt lat="39.38753437720213" lon="8.567217198112878"><ele>567.0</ele><time>2026-04-10T10:41:04Z</time></trkpt><trkpt lat="39.387582671678466" lon="8.567023758765513"><ele>567.0</ele><time>2026-04-10T10:41:05Z</time></trkpt><trkpt lat="39.38761518159276" lon="8.566872490426348"><ele>567.0</ele><time>2026-04-10T10:41:06Z</time></trkpt><trkpt lat="39.3876758826709" lon="8.566735347593143"><ele>567.4</ele><time>2026-04-10T10:41:07Z</time></trkpt><trkpt lat="39.38773446245283" lon="8.566622063670508"><ele>567.8000000000001</ele><time>2026-04-10T10:41:08Z</time></trkpt><trkpt lat="39.38780201313252" lon="8.566530956036866"><ele>568.2</ele><time>2026-04-10T10:41:09Z</time></trkpt><trkpt lat="39.387877395605955" lon="8.566506818429483"><ele>568.6</ele><time>2026-04-10T10:41:10Z</time></trkpt><trkpt lat="39.387951630355246" lon="8.56647207662022"><ele>569.0</ele><time>2026-04-10T10:41:11Z</time></trkpt><trkpt lat="39.388037058110335" lon="8.566386620521268"><ele>569.0</ele><time>2026-04-10T10:41:12Z</time></trkpt><trkpt lat="39.388125848484464" lon="8.566285036213706"><ele>569.0</ele><time>2026-04-10T10:41:13Z</time></trkpt><trkpt lat="39.38823830856176" lon="8.56622720643897"><ele>569.0</ele><time>2026-04-10T10:41:14Z</time></trkpt><trkpt lat="39.388328266259066" lon="8.566153624027923"><ele>569.0</ele><time>2026-04-10T10:41:15Z</time></trkpt><trkpt lat="39.388410073630105" lon="8.56606485685177"><ele>570.25</ele><time>2026-04-10T10:41:16Z</time></trkpt><trkpt lat="39.388508288258535" lon="8.565955971981676"><ele>571.5</ele><time>2026-04-10T10:41:17Z</time></trkpt><trkpt lat="39.38861031910737" lon="8.56587231027678"><ele>572.75</ele><time>2026-04-10T10:41:18Z</time></trkpt><trkpt lat="39.38873009276477" lon="8.565770964883013"><ele>574.0</ele><time>2026-04-10T10:41:19Z</time></trkpt><trkpt lat="39.38882718947705" lon="8.565656706161375"><ele>574.25</ele><time>2026-04-10T10:41:20Z</time></trkpt><trkpt lat="39.38892819477825" lon="8.56554338535651"><ele>574.5</ele><time>2026-04-10T10:41:21Z</time></trkpt><trkpt lat="39.38900033913066" lon="8.565447839531283"><ele>574.75</ele><time>2026-04-10T10:41:22Z</time></trkpt><trkpt lat="39.38908952447546" lon="8.565378740389852"><ele>575.0</ele><time>2026-04-10T10:41:23Z</time></trkpt><trkpt lat="39.389196506368" lon="8.565304318285632"><ele>576.8</ele><time>2026-04-10T10:41:24Z</time></trkpt><trkpt lat="39.38929981597915" lon="8.56525455333602"><ele>578.6</ele><time>2026-04-10T10:41:25Z</time></trkpt><trkpt lat="39.389364627399075" lon="8.565191262288458"><ele>580.4</ele><time>2026-04-10T10:41:26Z</time></trkpt><trkpt lat="39.389426967815716" lon="8.565132808294505"><ele>582.2</ele><time>2026-04-10T10:41:27Z</time></trkpt><trkpt lat="39.389530162080916" lon="8.564997454376092"><ele>584.0</ele><time>2026-04-10T10:41:29Z</time></trkpt><trkpt lat="39.389607315911455" lon="8.56489885643936"><ele>584.0</ele><time>2026-04-10T10:41:30Z</time></trkpt><trkpt lat="39.38966628186158" lon="8.564798608554927"><ele>584.0</ele><time>2026-04-10T10:41:31Z</time></trkpt><trkpt lat="39.38971379920227" lon="8.564683515746959"><ele>584.0</ele><time>2026-04-10T10:41:32Z</time></trkpt><trkpt lat="39.38973145654381" lon="8.564601416132312"><ele>584.0</ele><time>2026-04-10T10:41:33Z</time></trkpt><trkpt lat="39.38976666596722" lon="8.564511990362117"><ele>584.0</ele><time>2026-04-10T10:41:34Z</time></trkpt><trkpt lat="39.389819917228934" lon="8.564427751833023"><ele>584.0</ele><time>2026-04-10T10:41:35Z</time></trkpt><trkpt lat="39.38985830866727" lon="8.564342419684124"><ele>588.2</ele><time>2026-04-10T10:41:36Z</time></trkpt><trkpt lat="39.389902815364565" lon="8.56425160733275"><ele>592.4</ele><time>2026-04-10T10:41:37Z</time></trkpt><trkpt lat="39.38993084212251" lon="8.564140712814552"><ele>596.6</ele><time>2026-04-10T10:41:38.001Z</time></trkpt><trkpt lat="39.38999861489119" lon="8.564055854991382"><ele>600.8</ele><time>2026-04-10T10:41:39.001Z</time></trkpt><trkpt lat="39.390091018795914" lon="8.563976774410229"><ele>605.0</ele><time>2026-04-10T10:41:40.001Z</time></trkpt><trkpt lat="39.39015964618493" lon="8.563908841625775"><ele>605.0</ele><time>2026-04-10T10:41:41.001Z</time></trkpt><trkpt lat="39.390282324788416" lon="8.563874438416155"><ele>605.0</ele><time>2026-04-10T10:41:43.001Z</time></trkpt><trkpt lat="39.39037404679255" lon="8.563993708000625"><ele>605.0</ele><time>2026-04-10T10:41:45.001Z</time></trkpt><trkpt lat="39.39041348640441" lon="8.564102201289176"><ele>605.0</ele><time>2026-04-10T10:41:46.001Z</time></trkpt><trkpt lat="39.390427520179315" lon="8.564222009791843"><ele>605.0</ele><time>2026-04-10T10:41:47.001Z</time></trkpt><trkpt lat="39.390452233736134" lon="8.564336765387743"><ele>605.0</ele><time>2026-04-10T10:41:48.001Z</time></trkpt><trkpt lat="39.39048956280062" lon="8.564415837439252"><ele>605.0</ele><time>2026-04-10T10:41:49.001Z</time></trkpt><trkpt lat="39.390550720975035" lon="8.564458693443294"><ele>605.0</ele><time>2026-04-10T10:41:50.001Z</time></trkpt><trkpt lat="39.390617600704864" lon="8.564491236505864"><ele>605.0</ele><time>2026-04-10T10:41:51.001Z</time></trkpt><trkpt lat="39.39069312016518" lon="8.564490885682194"><ele>605.0</ele><time>2026-04-10T10:41:52.001Z</time></trkpt><trkpt lat="39.39077433826558" lon="8.564460528864997"><ele>605.0</ele><time>2026-04-10T10:41:53.001Z</time></trkpt><trkpt lat="39.39084899234228" lon="8.564413815130106"><ele>606.0</ele><time>2026-04-10T10:41:54.001Z</time></trkpt><trkpt lat="39.39094304977839" lon="8.564373658475159"><ele>607.0</ele><time>2026-04-10T10:41:55.001Z</time></trkpt><trkpt lat="39.39106890030604" lon="8.564382103128144"><ele>608.0</ele><time>2026-04-10T10:41:56.001Z</time></trkpt><trkpt lat="39.3911622108827" lon="8.564365410928234"><ele>609.0</ele><time>2026-04-10T10:41:57.001Z</time></trkpt><trkpt lat="39.39126637848841" lon="8.56443251379285"><ele>610.0</ele><time>2026-04-10T10:41:59.001Z</time></trkpt><trkpt lat="39.391310254951456" lon="8.564530419411284"><ele>610.0</ele><time>2026-04-10T10:42:00.001Z</time></trkpt><trkpt lat="39.3913232085684" lon="8.564642140471996"><ele>610.0</ele><time>2026-04-10T10:42:01.001Z</time></trkpt><trkpt lat="39.39130898185911" lon="8.564767266339636"><ele>610.0</ele><time>2026-04-10T10:42:02.001Z</time></trkpt><trkpt lat="39.39128294742262" lon="8.564866797244584"><ele>610.0</ele><time>2026-04-10T10:42:03.001Z</time></trkpt><trkpt lat="39.3912781327993" lon="8.564954051120264"><ele>610.0</ele><time>2026-04-10T10:42:04.001Z</time></trkpt><trkpt lat="39.39131272490096" lon="8.56503360700893"><ele>610.0</ele><time>2026-04-10T10:42:05.001Z</time></trkpt><trkpt lat="39.39138943364395" lon="8.565093143718968"><ele>612.8333333333334</ele><time>2026-04-10T10:42:06.001Z</time></trkpt><trkpt lat="39.391454120058874" lon="8.565130531999113"><ele>615.6666666666667</ele><time>2026-04-10T10:42:07.001Z</time></trkpt><trkpt lat="39.39152356217183" lon="8.565139259397688"><ele>618.5</ele><time>2026-04-10T10:42:08.001Z</time></trkpt><trkpt lat="39.39164269508527" lon="8.565143175498036"><ele>621.3333333333334</ele><time>2026-04-10T10:42:09.001Z</time></trkpt><trkpt lat="39.39174615561566" lon="8.56512521982754"><ele>624.1666666666666</ele><time>2026-04-10T10:42:10.001Z</time></trkpt><trkpt lat="39.39181976259288" lon="8.565148966117022"><ele>627.0</ele><time>2026-04-10T10:42:11.001Z</time></trkpt><trkpt lat="39.39188854179838" lon="8.565162408300111"><ele>627.0</ele><time>2026-04-10T10:42:12.001Z</time></trkpt><trkpt lat="39.39195069839639" lon="8.56522433752245"><ele>627.0</ele><time>2026-04-10T10:42:14.001Z</time></trkpt><trkpt lat="39.39200234655867" lon="8.565329213877169"><ele>627.0</ele><time>2026-04-10T10:42:16.001Z</time></trkpt><trkpt lat="39.3920985402551" lon="8.56543412495153"><ele>627.0</ele><time>2026-04-10T10:42:18.001Z</time></trkpt><trkpt lat="39.392150992014486" lon="8.56551290740838"><ele>627.0</ele><time>2026-04-10T10:42:20.001Z</time></trkpt><trkpt lat="39.392212012044254" lon="8.565589684528813"><ele>628.2</ele><time>2026-04-10T10:43:18Z</time></trkpt><trkpt lat="39.392305393569146" lon="8.565622490836388"><ele>629.4000000000001</ele><time>2026-04-10T10:44:49Z</time></trkpt><trkpt lat="39.392398823946586" lon="8.565704422696406"><ele>630.5999999999999</ele><time>2026-04-10T10:44:51Z</time></trkpt><trkpt lat="39.39246818404983" lon="8.565737481459662"><ele>631.8</ele><time>2026-04-10T10:44:54Z</time></trkpt><trkpt lat="39.39256822561981" lon="8.565731779403729"><ele>633.0</ele><time>2026-04-10T10:44:56Z</time></trkpt><trkpt lat="39.392672677893266" lon="8.565720672300776"><ele>633.0</ele><time>2026-04-10T10:44:58Z</time></trkpt><trkpt lat="39.39273710522367" lon="8.565711470050704"><ele>633.0</ele><time>2026-04-10T10:44:59Z</time></trkpt><trkpt lat="39.39281523477486" lon="8.56576990151173"><ele>633.0</ele><time>2026-04-10T10:45:00Z</time></trkpt><trkpt lat="39.39291017766487" lon="8.56579097302185"><ele>633.0</ele><time>2026-04-10T10:45:01Z</time></trkpt><trkpt lat="39.39302662992279" lon="8.565769062859806"><ele>633.0</ele><time>2026-04-10T10:45:02Z</time></trkpt><trkpt lat="39.39313033416945" lon="8.565773140649021"><ele>633.4</ele><time>2026-04-10T10:45:03Z</time></trkpt><trkpt lat="39.39323793017503" lon="8.565744452707307"><ele>633.8</ele><time>2026-04-10T10:45:04Z</time></trkpt><trkpt lat="39.39335544139096" lon="8.565739544946057"><ele>634.2</ele><time>2026-04-10T10:45:05Z</time></trkpt><trkpt lat="39.39345486311783" lon="8.56572530183916"><ele>634.6</ele><time>2026-04-10T10:45:06Z</time></trkpt><trkpt lat="39.39353723618471" lon="8.56572527302724"><ele>635.0</ele><time>2026-04-10T10:45:07Z</time></trkpt><trkpt lat="39.39358687664584" lon="8.5657812065909"><ele>635.0</ele><time>2026-04-10T10:45:08Z</time></trkpt><trkpt lat="39.39367045138665" lon="8.565844895339062"><ele>635.0</ele><time>2026-04-10T10:45:09Z</time></trkpt><trkpt lat="39.393779212289054" lon="8.565928447514278"><ele>635.0</ele><time>2026-04-10T10:45:10Z</time></trkpt><trkpt lat="39.39387166572166" lon="8.56598872222646"><ele>635.0</ele><time>2026-04-10T10:45:11Z</time></trkpt><trkpt lat="39.39396450239147" lon="8.566041933679896"><ele>635.0</ele><time>2026-04-10T10:45:12Z</time></trkpt><trkpt lat="39.39408505859391" lon="8.566096499342143"><ele>634.6</ele><time>2026-04-10T10:45:13Z</time></trkpt><trkpt lat="39.39415664159127" lon="8.566120833506496"><ele>634.2</ele><time>2026-04-10T10:45:14Z</time></trkpt><trkpt lat="39.39424266537418" lon="8.56611602866581"><ele>633.8</ele><time>2026-04-10T10:45:15Z</time></trkpt><trkpt lat="39.39433225128997" lon="8.566104737541483"><ele>633.4</ele><time>2026-04-10T10:45:16Z</time></trkpt><trkpt lat="39.394437633146566" lon="8.566074981148178"><ele>633.0</ele><time>2026-04-10T10:45:17Z</time></trkpt><trkpt lat="39.39455278585316" lon="8.566042847962239"><ele>633.0</ele><time>2026-04-10T10:45:18Z</time></trkpt><trkpt lat="39.39464794560238" lon="8.566012701622101"><ele>633.0</ele><time>2026-04-10T10:45:19Z</time></trkpt><trkpt lat="39.39477380103751" lon="8.565963304167012"><ele>633.0</ele><time>2026-04-10T10:45:20Z</time></trkpt><trkpt lat="39.39483918754409" lon="8.565928210696677"><ele>633.0</ele><time>2026-04-10T10:45:21Z</time></trkpt><trkpt lat="39.39491953080016" lon="8.565879000911776"><ele>633.0</ele><time>2026-04-10T10:45:22Z</time></trkpt><trkpt lat="39.39502361593605" lon="8.565807502768147"><ele>631.6</ele><time>2026-04-10T10:45:23Z</time></trkpt><trkpt lat="39.39511523176894" lon="8.56571766093272"><ele>630.1999999999999</ele><time>2026-04-10T10:45:24Z</time></trkpt><trkpt lat="39.39521607887406" lon="8.56563912651487"><ele>628.8</ele><time>2026-04-10T10:45:25Z</time></trkpt><trkpt lat="39.39530087311774" lon="8.565608705199597"><ele>627.4</ele><time>2026-04-10T10:45:26Z</time></trkpt><trkpt lat="39.39539506895964" lon="8.565536119839974"><ele>626.0</ele><time>2026-04-10T10:45:27Z</time></trkpt><trkpt lat="39.395509185694664" lon="8.565411797607194"><ele>621.8</ele><time>2026-04-10T10:45:28Z</time></trkpt><trkpt lat="39.395593964973536" lon="8.565295790193195"><ele>617.6</ele><time>2026-04-10T10:45:29Z</time></trkpt><trkpt lat="39.39568622846445" lon="8.565190366487334"><ele>613.4</ele><time>2026-04-10T10:45:30Z</time></trkpt><trkpt lat="39.39576285121592" lon="8.565100699597462"><ele>609.2</ele><time>2026-04-10T10:45:31Z</time></trkpt><trkpt lat="39.39582248973174" lon="8.565054019594415"><ele>605.0</ele><time>2026-04-10T10:45:32Z</time></trkpt><trkpt lat="39.39590328613879" lon="8.565030960946913"><ele>605.0</ele><time>2026-04-10T10:45:33Z</time></trkpt><trkpt lat="39.395990612741464" lon="8.565027785243508"><ele>605.0</ele><time>2026-04-10T10:45:34Z</time></trkpt><trkpt lat="39.396080371199304" lon="8.565053800864678"><ele>605.0</ele><time>2026-04-10T10:45:35Z</time></trkpt><trkpt lat="39.39615735696377" lon="8.5650935671649"><ele>605.0</ele><time>2026-04-10T10:45:36Z</time></trkpt><trkpt lat="39.39621438327" lon="8.565139427380181"><ele>605.0</ele><time>2026-04-10T10:45:37Z</time></trkpt><trkpt lat="39.39629246123788" lon="8.565219394237664"><ele>605.0</ele><time>2026-04-10T10:45:39Z</time></trkpt><trkpt lat="39.396344857870275" lon="8.565284144919412"><ele>603.6</ele><time>2026-04-10T10:45:41Z</time></trkpt><trkpt lat="39.3964232200787" lon="8.56534655740103"><ele>602.2</ele><time>2026-04-10T10:46:02Z</time></trkpt><trkpt lat="39.396508772135164" lon="8.565419705861425"><ele>600.8</ele><time>2026-04-10T10:46:04Z</time></trkpt><trkpt lat="39.396580474890506" lon="8.565477542014248"><ele>599.4</ele><time>2026-04-10T10:46:05Z</time></trkpt><trkpt lat="39.396664361738985" lon="8.56551919738546"><ele>598.0</ele><time>2026-04-10T10:46:06Z</time></trkpt><trkpt lat="39.39673254962727" lon="8.56557997959694"><ele>600.8</ele><time>2026-04-10T10:46:07Z</time></trkpt><trkpt lat="39.39683911599682" lon="8.56565569073933"><ele>603.5999999999999</ele><time>2026-04-10T10:46:08Z</time></trkpt><trkpt lat="39.396924255581006" lon="8.565711149006201"><ele>606.4000000000001</ele><time>2026-04-10T10:46:09Z</time></trkpt><trkpt lat="39.396995100559074" lon="8.565754202304861"><ele>609.2</ele><time>2026-04-10T10:46:10Z</time></trkpt><trkpt lat="39.397079272948865" lon="8.565806353204742"><ele>612.0</ele><time>2026-04-10T10:46:12Z</time></trkpt><trkpt lat="39.39714686500943" lon="8.565832125050147"><ele>608.2</ele><time>2026-04-10T10:46:15Z</time></trkpt><trkpt lat="39.39724834713119" lon="8.565714446360658"><ele>604.4000000000001</ele><time>2026-04-10T10:46:16Z</time></trkpt><trkpt lat="39.397283498148184" lon="8.565616810528873"><ele>600.5999999999999</ele><time>2026-04-10T10:46:17Z</time></trkpt><trkpt lat="39.39731305489352" lon="8.565527783357679"><ele>596.8</ele><time>2026-04-10T10:46:18Z</time></trkpt><trkpt lat="39.39734700536952" lon="8.56542071670344"><ele>593.0</ele><time>2026-04-10T10:46:19Z</time></trkpt><trkpt lat="39.39738540719404" lon="8.56529892247888"><ele>592.0</ele><time>2026-04-10T10:46:20Z</time></trkpt><trkpt lat="39.39742491616099" lon="8.56517361683813"><ele>591.0</ele><time>2026-04-10T10:46:21Z</time></trkpt><trkpt lat="39.39746352592698" lon="8.56505116309449"><ele>590.0</ele><time>2026-04-10T10:46:22Z</time></trkpt><trkpt lat="39.397496679015354" lon="8.564946015584507"><ele>589.0</ele><time>2026-04-10T10:46:23Z</time></trkpt><trkpt lat="39.39752609874231" lon="8.564852708720785"><ele>588.0</ele><time>2026-04-10T10:46:24Z</time></trkpt><trkpt lat="39.39755478912051" lon="8.56476089730266"><ele>587.0</ele><time>2026-04-10T10:46:25Z</time></trkpt><trkpt lat="39.39758597771423" lon="8.564654645488941"><ele>587.0</ele><time>2026-04-10T10:46:26Z</time></trkpt><trkpt lat="39.39760972171245" lon="8.56453664416086"><ele>587.0</ele><time>2026-04-10T10:46:27Z</time></trkpt><trkpt lat="39.39765526475185" lon="8.5644450340709"><ele>587.0</ele><time>2026-04-10T10:46:28Z</time></trkpt><trkpt lat="39.3976894458632" lon="8.564362804643055"><ele>587.0</ele><time>2026-04-10T10:46:29Z</time></trkpt><trkpt lat="39.39774321702182" lon="8.564285740488646"><ele>587.0</ele><time>2026-04-10T10:46:30Z</time></trkpt><trkpt lat="39.397807875116435" lon="8.56420647096429"><ele>587.0</ele><time>2026-04-10T10:46:31Z</time></trkpt><trkpt lat="39.39786631041972" lon="8.564131900442483"><ele>585.8333333333333</ele><time>2026-04-10T10:46:32Z</time></trkpt><trkpt lat="39.39792268020878" lon="8.564061416081962"><ele>584.6666666666666</ele><time>2026-04-10T10:46:33Z</time></trkpt><trkpt lat="39.39798317255578" lon="8.563980043689792"><ele>583.5</ele><time>2026-04-10T10:46:34Z</time></trkpt><trkpt lat="39.3980446658682" lon="8.563894118312032"><ele>582.3333333333334</ele><time>2026-04-10T10:46:35Z</time></trkpt><trkpt lat="39.39810568067001" lon="8.56381459224373"><ele>581.1666666666667</ele><time>2026-04-10T10:46:36Z</time></trkpt><trkpt lat="39.398161483743564" lon="8.563740729101426"><ele>580.0</ele><time>2026-04-10T10:46:37Z</time></trkpt><trkpt lat="39.39822720127291" lon="8.563662867753163"><ele>576.75</ele><time>2026-04-10T10:46:38Z</time></trkpt><trkpt lat="39.39832160846674" lon="8.563537209641021"><ele>573.5</ele><time>2026-04-10T10:46:39Z</time></trkpt><trkpt lat="39.39840403675531" lon="8.563430379461753"><ele>570.25</ele><time>2026-04-10T10:46:40Z</time></trkpt><trkpt lat="39.39846503012759" lon="8.563333246944012"><ele>567.0</ele><time>2026-04-10T10:46:41Z</time></trkpt><trkpt lat="39.398544136955195" lon="8.563244876444646"><ele>567.0</ele><time>2026-04-10T10:46:42Z</time></trkpt><trkpt lat="39.39861104976693" lon="8.56316048579522"><ele>567.0</ele><time>2026-04-10T10:46:43Z</time></trkpt><trkpt lat="39.39869585256218" lon="8.563057289052248"><ele>567.0</ele><time>2026-04-10T10:46:44Z</time></trkpt><trkpt lat="39.39873627305828" lon="8.562960650284097"><ele>567.0</ele><time>2026-04-10T10:46:45Z</time></trkpt><trkpt lat="39.39876630274218" lon="8.562844635806105"><ele>567.0</ele><time>2026-04-10T10:46:46Z</time></trkpt><trkpt lat="39.398752641262995" lon="8.562695039202985"><ele>564.75</ele><time>2026-04-10T10:46:47Z</time></trkpt><trkpt lat="39.39875378392952" lon="8.56256885742569"><ele>562.5</ele><time>2026-04-10T10:46:48Z</time></trkpt><trkpt lat="39.39879094228968" lon="8.562447224778367"><ele>560.25</ele><time>2026-04-10T10:46:49Z</time></trkpt><trkpt lat="39.3988665246002" lon="8.562265455824344"><ele>558.0</ele><time>2026-04-10T10:46:50Z</time></trkpt><trkpt lat="39.398941552178975" lon="8.562056827309194"><ele>556.25</ele><time>2026-04-10T10:46:51Z</time></trkpt><trkpt lat="39.398999093430454" lon="8.56188672921591"><ele>554.5</ele><time>2026-04-10T10:46:52Z</time></trkpt><trkpt lat="39.39903976152651" lon="8.561729134020824"><ele>552.75</ele><time>2026-04-10T10:46:53Z</time></trkpt><trkpt lat="39.399079717194" lon="8.56160101451857"><ele>551.0</ele><time>2026-04-10T10:46:54Z</time></trkpt><trkpt lat="39.399112271547395" lon="8.561497131739266"><ele>551.0</ele><time>2026-04-10T10:46:55Z</time></trkpt><trkpt lat="39.39917278449144" lon="8.561410541674539"><ele>551.0</ele><time>2026-04-10T10:46:56Z</time></trkpt><trkpt lat="39.39925044691704" lon="8.561355405878965"><ele>551.0</ele><time>2026-04-10T10:46:57Z</time></trkpt><trkpt lat="39.39935580444158" lon="8.561319098774943"><ele>551.0</ele><time>2026-04-10T10:46:58Z</time></trkpt><trkpt lat="39.39950377456663" lon="8.56128334744971"><ele>551.0</ele><time>2026-04-10T10:46:59Z</time></trkpt><trkpt lat="39.39968629529431" lon="8.561254160274146"><ele>552.0</ele><time>2026-04-10T10:47:00Z</time></trkpt><trkpt lat="39.39984600022143" lon="8.561209547573005"><ele>553.0</ele><time>2026-04-10T10:47:01Z</time></trkpt><trkpt lat="39.399967866250556" lon="8.561154651843243"><ele>554.0</ele><time>2026-04-10T10:47:02Z</time></trkpt><trkpt lat="39.40006503598471" lon="8.561112474020986"><ele>555.0</ele><time>2026-04-10T10:47:03Z</time></trkpt><trkpt lat="39.400151585032745" lon="8.56107600990631"><ele>555.0</ele><time>2026-04-10T10:47:04Z</time></trkpt><trkpt lat="39.40022582209831" lon="8.561039525919247"><ele>555.0</ele><time>2026-04-10T10:47:05Z</time></trkpt><trkpt lat="39.400288855705206" lon="8.561008548067484"><ele>555.0</ele><time>2026-04-10T10:47:06Z</time></trkpt><trkpt lat="39.400349652157296" lon="8.560978669661358"><ele>555.0</ele><time>2026-04-10T10:47:07Z</time></trkpt><trkpt lat="39.40037882348662" lon="8.560628925614697"><ele>555.0</ele><time>2026-04-10T10:47:09Z</time></trkpt><trkpt lat="39.40038712457347" lon="8.560512685194219"><ele>555.0</ele><time>2026-04-10T10:47:10Z</time></trkpt><trkpt lat="39.40038353652879" lon="8.560410518955202"><ele>555.0</ele><time>2026-04-10T10:47:11Z</time></trkpt><trkpt lat="39.400377429906705" lon="8.56032572244014"><ele>555.0</ele><time>2026-04-10T10:47:12Z</time></trkpt><trkpt lat="39.40038835799542" lon="8.560189036715759"><ele>555.0</ele><time>2026-04-10T10:47:14Z</time></trkpt><trkpt lat="39.40044442678727" lon="8.560050228201264"><ele>553.8333333333334</ele><time>2026-04-10T10:47:16Z</time></trkpt><trkpt lat="39.40049539134626" lon="8.559897073426967"><ele>552.6666666666666</ele><time>2026-04-10T10:47:18Z</time></trkpt><trkpt lat="39.40051738921026" lon="8.55980296256143"><ele>551.5</ele><time>2026-04-10T10:47:19Z</time></trkpt><trkpt lat="39.400540153778266" lon="8.559704636769474"><ele>550.3333333333333</ele><time>2026-04-10T10:47:20Z</time></trkpt><trkpt lat="39.400559040610915" lon="8.559608925967595"><ele>549.1666666666666</ele><time>2026-04-10T10:47:21Z</time></trkpt><trkpt lat="39.400579386075776" lon="8.559517286690317"><ele>548.0</ele><time>2026-04-10T10:47:22Z</time></trkpt><trkpt lat="39.400592686541366" lon="8.559437325282667"><ele>548.0</ele><time>2026-04-10T10:47:23Z</time></trkpt><trkpt lat="39.400623974781595" lon="8.559306703852673"><ele>548.0</ele><time>2026-04-10T10:47:25Z</time></trkpt><trkpt lat="39.400617583229355" lon="8.55919167106503"><ele>548.0</ele><time>2026-04-10T10:47:27Z</time></trkpt><trkpt lat="39.40058388971401" lon="8.559093025852711"><ele>548.0</ele><time>2026-04-10T10:47:29Z</time></trkpt><trkpt lat="39.400525930839414" lon="8.559023313711574"><ele>548.0</ele><time>2026-04-10T10:47:31Z</time></trkpt><trkpt lat="39.400417172851135" lon="8.558966633472687"><ele>548.0</ele><time>2026-04-10T10:47:33Z</time></trkpt><trkpt lat="39.40034590637945" lon="8.558921459758501"><ele>548.0</ele><time>2026-04-10T10:47:34Z</time></trkpt><trkpt lat="39.40025553827516" lon="8.558827551741189"><ele>548.0</ele><time>2026-04-10T10:47:36Z</time></trkpt><trkpt lat="39.400175284745394" lon="8.5587129434863"><ele>548.0</ele><time>2026-04-10T10:47:38Z</time></trkpt><trkpt lat="39.400083598748374" lon="8.55859931362333"><ele>548.0</ele><time>2026-04-10T10:47:40Z</time></trkpt><trkpt lat="39.40002493891471" lon="8.55856117225645"><ele>547.6666666666666</ele><time>2026-04-10T10:47:41Z</time></trkpt><trkpt lat="39.39996357940561" lon="8.558533540478576"><ele>547.3333333333333</ele><time>2026-04-10T10:47:42Z</time></trkpt><trkpt lat="39.39989543586509" lon="8.558506661827423"><ele>547.0</ele><time>2026-04-10T10:47:43Z</time></trkpt><trkpt lat="39.39981544807741" lon="8.558486762339577"><ele>546.6666666666666</ele><time>2026-04-10T10:47:44Z</time></trkpt><trkpt lat="39.39973548121521" lon="8.558462219985023"><ele>546.3333333333334</ele><time>2026-04-10T10:47:45Z</time></trkpt><trkpt lat="39.39965818329472" lon="8.558426756363021"><ele>546.0</ele><time>2026-04-10T10:47:46Z</time></trkpt><trkpt lat="39.39958060200052" lon="8.55838766671854"><ele>546.0</ele><time>2026-04-10T10:47:47Z</time></trkpt><trkpt lat="39.39951210592722" lon="8.558344312644808"><ele>546.0</ele><time>2026-04-10T10:47:48Z</time></trkpt><trkpt lat="39.39942045552499" lon="8.558226983809291"><ele>546.0</ele><time>2026-04-10T10:47:50Z</time></trkpt><trkpt lat="39.39937818221376" lon="8.558075844408217"><ele>546.0</ele><time>2026-04-10T10:47:52Z</time></trkpt><trkpt lat="39.399367433717785" lon="8.55796713530316"><ele>546.0</ele><time>2026-04-10T10:47:53Z</time></trkpt><trkpt lat="39.39934966913781" lon="8.557839238683927"><ele>546.2</ele><time>2026-04-10T10:47:54Z</time></trkpt><trkpt lat="39.399334560205" lon="8.557741790226284"><ele>546.4000000000001</ele><time>2026-04-10T10:47:55Z</time></trkpt><trkpt lat="39.399327537629965" lon="8.5576470948199"><ele>546.6</ele><time>2026-04-10T10:47:56Z</time></trkpt><trkpt lat="39.399270852901694" lon="8.557550302267913"><ele>546.8000000000001</ele><time>2026-04-10T10:47:57Z</time></trkpt><trkpt lat="39.3992011152484" lon="8.557451863386733"><ele>547.0</ele><time>2026-04-10T10:47:58Z</time></trkpt><trkpt lat="39.399122160156146" lon="8.55734154148908"><ele>547.0</ele><time>2026-04-10T10:47:59Z</time></trkpt><trkpt lat="39.39903032441767" lon="8.557220671279417"><ele>547.0</ele><time>2026-04-10T10:48:00Z</time></trkpt><trkpt lat="39.39894271760194" lon="8.5571073156203"><ele>547.0</ele><time>2026-04-10T10:48:01Z</time></trkpt><trkpt lat="39.398850153595234" lon="8.557019663444954"><ele>547.0</ele><time>2026-04-10T10:48:02Z</time></trkpt><trkpt lat="39.398777555452675" lon="8.556922149652939"><ele>547.1666666666667</ele><time>2026-04-10T10:48:03Z</time></trkpt><trkpt lat="39.39870852419349" lon="8.556846676883714"><ele>547.3333333333334</ele><time>2026-04-10T10:48:04Z</time></trkpt><trkpt lat="39.398631604080904" lon="8.556790729820042"><ele>547.5</ele><time>2026-04-10T10:48:05Z</time></trkpt><trkpt lat="39.39856079631045" lon="8.556753348885717"><ele>547.6666666666666</ele><time>2026-04-10T10:48:06Z</time></trkpt><trkpt lat="39.39849552249003" lon="8.556733321578731"><ele>547.8333333333333</ele><time>2026-04-10T10:48:08Z</time></trkpt><trkpt lat="39.39843408370112" lon="8.556677999301254"><ele>548.0</ele><time>2026-04-10T10:48:10Z</time></trkpt><trkpt lat="39.39835200424844" lon="8.55660849679413"><ele>548.0</ele><time>2026-04-10T10:48:15Z</time></trkpt><trkpt lat="39.39830935303892" lon="8.556509421170583"><ele>548.0</ele><time>2026-04-10T10:48:19Z</time></trkpt><trkpt lat="39.3982795607755" lon="8.556429315549002"><ele>548.0</ele><time>2026-04-10T10:48:30Z</time></trkpt><trkpt lat="39.39829463753657" lon="8.55652351116425"><ele>548.0</ele><time>2026-04-10T10:49:05Z</time></trkpt><trkpt lat="39.398337648213925" lon="8.55659332687371"><ele>548.0</ele><time>2026-04-10T10:49:07Z</time></trkpt><trkpt lat="39.398431080884464" lon="8.5566607815333"><ele>548.0</ele><time>2026-04-10T10:49:22Z</time></trkpt><trkpt lat="39.398539689871455" lon="8.556702512976848"><ele>548.0</ele><time>2026-04-10T10:49:24Z</time></trkpt><trkpt lat="39.398601545453815" lon="8.556734027222262"><ele>548.0</ele><time>2026-04-10T10:49:26Z</time></trkpt><trkpt lat="39.39866404479114" lon="8.556775463024595"><ele>548.0</ele><time>2026-04-10T10:49:28Z</time></trkpt><trkpt lat="39.39872044013673" lon="8.556829184755275"><ele>548.0</ele><time>2026-04-10T10:49:29Z</time></trkpt><trkpt lat="39.39879353890524" lon="8.556895570059151"><ele>548.0</ele><time>2026-04-10T10:49:30Z</time></trkpt><trkpt lat="39.39885607240252" lon="8.556957963503221"><ele>548.0</ele><time>2026-04-10T10:49:31Z</time></trkpt><trkpt lat="39.398898656644285" lon="8.557039953199633"><ele>547.8</ele><time>2026-04-10T10:49:32Z</time></trkpt><trkpt lat="39.398960356347516" lon="8.557105962298216"><ele>547.5999999999999</ele><time>2026-04-10T10:49:33Z</time></trkpt><trkpt lat="39.39900785492117" lon="8.557213814386166"><ele>547.4000000000001</ele><time>2026-04-10T10:49:34Z</time></trkpt><trkpt lat="39.399089359464135" lon="8.557309202005367"><ele>547.2</ele><time>2026-04-10T10:49:35Z</time></trkpt><trkpt lat="39.399158471744066" lon="8.55739962671427"><ele>547.0</ele><time>2026-04-10T10:49:36Z</time></trkpt><trkpt lat="39.3992303942115" lon="8.557479542999372"><ele>547.0</ele><time>2026-04-10T10:49:37Z</time></trkpt><trkpt lat="39.39928160137247" lon="8.557582091658226"><ele>547.0</ele><time>2026-04-10T10:49:38Z</time></trkpt><trkpt lat="39.39934284836581" lon="8.557649902017532"><ele>547.0</ele><time>2026-04-10T10:49:39Z</time></trkpt><trkpt lat="39.39936973310222" lon="8.557733436178042"><ele>547.0</ele><time>2026-04-10T10:49:41Z</time></trkpt><trkpt lat="39.39922295802213" lon="8.557845597771152"><ele>547.0</ele><time>2026-04-10T10:49:45Z</time></trkpt><trkpt lat="39.39913649295709" lon="8.557933374069862"><ele>546.8333333333334</ele><time>2026-04-10T10:49:47Z</time></trkpt><trkpt lat="39.39905635153988" lon="8.558015375726637"><ele>546.6666666666667</ele><time>2026-04-10T10:49:49Z</time></trkpt><trkpt lat="39.39900077957086" lon="8.558064209043286"><ele>546.5</ele><time>2026-04-10T10:49:51Z</time></trkpt><trkpt lat="39.39895390674733" lon="8.558139514236423"><ele>546.3333333333334</ele><time>2026-04-10T10:49:54Z</time></trkpt><trkpt lat="39.398979057914005" lon="8.558219826020704"><ele>546.1666666666666</ele><time>2026-04-10T10:50:00Z</time></trkpt><trkpt lat="39.399043566953225" lon="8.558266841120975"><ele>546.0</ele><time>2026-04-10T10:50:03Z</time></trkpt><trkpt lat="39.39914354704819" lon="8.55824382552628"><ele>546.0</ele><time>2026-04-10T10:50:05Z</time></trkpt><trkpt lat="39.39924506152949" lon="8.558251764363428"><ele>546.0</ele><time>2026-04-10T10:50:07Z</time></trkpt><trkpt lat="39.39934546966765" lon="8.558242741606781"><ele>546.0</ele><time>2026-04-10T10:50:09Z</time></trkpt><trkpt lat="39.39943043909993" lon="8.558237637291866"><ele>546.0</ele><time>2026-04-10T10:50:11Z</time></trkpt><trkpt lat="39.39949248037302" lon="8.558264866253568"><ele>546.0</ele><time>2026-04-10T10:50:13Z</time></trkpt><trkpt lat="39.39950265470891" lon="8.558348882214363"><ele>546.0</ele><time>2026-04-10T10:50:14Z</time></trkpt><trkpt lat="39.39962889010213" lon="8.558419415455157"><ele>549.0</ele><time>2026-04-10T10:50:16Z</time></trkpt><trkpt lat="39.399711078679275" lon="8.558454849698832"><ele>552.0</ele><time>2026-04-10T10:50:17Z</time></trkpt><trkpt lat="39.399799231502406" lon="8.558488835182365"><ele>555.0</ele><time>2026-04-10T10:50:18Z</time></trkpt><trkpt lat="39.399888320478254" lon="8.558523002327716"><ele>558.0</ele><time>2026-04-10T10:50:19Z</time></trkpt><trkpt lat="39.3999851857315" lon="8.558569952240244"><ele>561.0</ele><time>2026-04-10T10:50:20Z</time></trkpt><trkpt lat="39.400074327883935" lon="8.55863131210988"><ele>561.0</ele><time>2026-04-10T10:50:21Z</time></trkpt><trkpt lat="39.400143493280105" lon="8.558695951735002"><ele>561.0</ele><time>2026-04-10T10:50:22Z</time></trkpt><trkpt lat="39.40019398023418" lon="8.558746818498271"><ele>561.0</ele><time>2026-04-10T10:50:23Z</time></trkpt><trkpt lat="39.40026118570515" lon="8.558827429035762"><ele>561.0</ele><time>2026-04-10T10:50:25Z</time></trkpt><trkpt lat="39.4003233312222" lon="8.55889548786058"><ele>561.0</ele><time>2026-04-10T10:50:26Z</time></trkpt><trkpt lat="39.4004123962947" lon="8.558953742951468"><ele>561.0</ele><time>2026-04-10T10:50:27Z</time></trkpt><trkpt lat="39.400505075327594" lon="8.559010629351125"><ele>563.5</ele><time>2026-04-10T10:50:29Z</time></trkpt><trkpt lat="39.400570542178954" lon="8.559098953476107"><ele>566.0</ele><time>2026-04-10T10:50:31Z</time></trkpt><trkpt lat="39.40059594433715" lon="8.559281055032944"><ele>568.5</ele><time>2026-04-10T10:50:33Z</time></trkpt><trkpt lat="39.400561795742156" lon="8.559413902702627"><ele>571.0</ele><time>2026-04-10T10:50:34Z</time></trkpt><trkpt lat="39.400522561105824" lon="8.559562892803392"><ele>566.4</ele><time>2026-04-10T10:50:35Z</time></trkpt><trkpt lat="39.40048697456629" lon="8.55968530973418"><ele>561.8</ele><time>2026-04-10T10:50:36Z</time></trkpt><trkpt lat="39.40047485659948" lon="8.55979965411798"><ele>557.1999999999999</ele><time>2026-04-10T10:50:37Z</time></trkpt><trkpt lat="39.40045785695866" lon="8.55992773637808"><ele>552.6</ele><time>2026-04-10T10:50:38Z</time></trkpt><trkpt lat="39.40040466518987" lon="8.560033729127952"><ele>548.0</ele><time>2026-04-10T10:50:39Z</time></trkpt><trkpt lat="39.40037537302717" lon="8.56014469620149"><ele>548.0</ele><time>2026-04-10T10:50:40Z</time></trkpt><trkpt lat="39.40037375815067" lon="8.560231435200823"><ele>548.0</ele><time>2026-04-10T10:50:41Z</time></trkpt><trkpt lat="39.40035324707956" lon="8.560378119010291"><ele>548.0</ele><time>2026-04-10T10:50:43Z</time></trkpt><trkpt lat="39.40037896876398" lon="8.560486120846377"><ele>548.0</ele><time>2026-04-10T10:50:45Z</time></trkpt><trkpt lat="39.400381746924786" lon="8.560594963063679"><ele>548.0</ele><time>2026-04-10T10:50:48Z</time></trkpt><trkpt lat="39.40039248340544" lon="8.560677044595865"><ele>548.0</ele><time>2026-04-10T10:51:34Z</time></trkpt><trkpt lat="39.40046742447123" lon="8.560748032701248"><ele>549.4</ele><time>2026-04-10T10:51:36Z</time></trkpt><trkpt lat="39.40054026611218" lon="8.560795845333693"><ele>550.8</ele><time>2026-04-10T10:51:39Z</time></trkpt><trkpt lat="39.40046817492083" lon="8.560914703255854"><ele>552.2</ele><time>2026-04-10T10:51:43Z</time></trkpt><trkpt lat="39.40037951144743" lon="8.56095556082791"><ele>553.6</ele><time>2026-04-10T10:51:45Z</time></trkpt><trkpt lat="39.400272575055794" lon="8.560974839010226"><ele>555.0</ele><time>2026-04-10T10:51:47Z</time></trkpt><trkpt lat="39.400146597971094" lon="8.561032495028265"><ele>555.0000000000001</ele><time>2026-04-10T10:51:49Z</time></trkpt><trkpt lat="39.40007813319867" lon="8.56106614223962"><ele>555.0</ele><time>2026-04-10T10:51:50Z</time></trkpt><trkpt lat="39.40001292572243" lon="8.561107177527626"><ele>555.0</ele><time>2026-04-10T10:51:51Z</time></trkpt><trkpt lat="39.399938458042136" lon="8.561137297561741"><ele>555.0</ele><time>2026-04-10T10:51:52Z</time></trkpt><trkpt lat="39.399873713450404" lon="8.561167658787152"><ele>555.0</ele><time>2026-04-10T10:51:53Z</time></trkpt><trkpt lat="39.39979353937782" lon="8.561184227062444"><ele>555.0000000000001</ele><time>2026-04-10T10:51:55Z</time></trkpt><trkpt lat="39.399723360204476" lon="8.561199552074903"><ele>555.0</ele><time>2026-04-10T10:51:57Z</time></trkpt><trkpt lat="39.39965966335753" lon="8.561215417003341"><ele>554.3333333333334</ele><time>2026-04-10T10:51:59Z</time></trkpt><trkpt lat="39.39957131675459" lon="8.561226600069803"><ele>553.6666666666666</ele><time>2026-04-10T10:52:02Z</time></trkpt><trkpt lat="39.39949197376269" lon="8.561235963668151"><ele>553.0</ele><time>2026-04-10T10:52:05Z</time></trkpt><trkpt lat="39.39942066450482" lon="8.561242400682264"><ele>552.3333333333333</ele><time>2026-04-10T10:52:08Z</time></trkpt><trkpt lat="39.39933497312075" lon="8.561255962031824"><ele>551.6666666666666</ele><time>2026-04-10T10:52:11Z</time></trkpt><trkpt lat="39.399268594343084" lon="8.561282520197901"><ele>551.0</ele><time>2026-04-10T10:52:14Z</time></trkpt><trkpt lat="39.39921437691597" lon="8.561349281382492"><ele>551.0</ele><time>2026-04-10T10:52:16Z</time></trkpt><trkpt lat="39.39914781198118" lon="8.561381130403257"><ele>551.0</ele><time>2026-04-10T10:52:20Z</time></trkpt><trkpt lat="39.39921759963635" lon="8.561329251691777"><ele>551.0</ele><time>2026-04-10T10:52:26Z</time></trkpt><trkpt lat="39.399328777156576" lon="8.561273745305513"><ele>551.0</ele><time>2026-04-10T10:52:28Z</time></trkpt><trkpt lat="39.39941660369498" lon="8.561246252766736"><ele>551.0</ele><time>2026-04-10T10:52:30Z</time></trkpt><trkpt lat="39.399500203142324" lon="8.561228631232165"><ele>551.0</ele><time>2026-04-10T10:52:34Z</time></trkpt><trkpt lat="39.39961127187473" lon="8.561217957699172"><ele>551.6666666666666</ele><time>2026-04-10T11:00:18Z</time></trkpt><trkpt lat="39.39968752609252" lon="8.561206934996685"><ele>552.3333333333333</ele><time>2026-04-10T11:00:19Z</time></trkpt><trkpt lat="39.399759965700994" lon="8.561187143256305"><ele>553.0</ele><time>2026-04-10T11:00:20Z</time></trkpt><trkpt lat="39.39982274534926" lon="8.561204359219117"><ele>553.6666666666666</ele><time>2026-04-10T11:00:21Z</time></trkpt><trkpt lat="39.39991019450483" lon="8.561179229532522"><ele>554.3333333333334</ele><time>2026-04-10T11:00:23Z</time></trkpt><trkpt lat="39.3999743243093" lon="8.56113624040851"><ele>555.0</ele><time>2026-04-10T11:00:26Z</time></trkpt><trkpt lat="39.40005229866599" lon="8.561117702069641"><ele>555.0</ele><time>2026-04-10T11:01:17Z</time></trkpt><trkpt lat="39.40013462609538" lon="8.56103934144366"><ele>555.0</ele><time>2026-04-10T11:01:19Z</time></trkpt><trkpt lat="39.400183232833655" lon="8.560986313593435"><ele>555.0</ele><time>2026-04-10T11:01:20Z</time></trkpt><trkpt lat="39.400266179848046" lon="8.560907884078638"><ele>555.0</ele><time>2026-04-10T11:01:22Z</time></trkpt><trkpt lat="39.40032563090624" lon="8.560830913961055"><ele>555.0</ele><time>2026-04-10T11:01:23.999Z</time></trkpt><trkpt lat="39.40038458750397" lon="8.560759899571604"><ele>555.0</ele><time>2026-04-10T11:01:25.999Z</time></trkpt><trkpt lat="39.400454528451746" lon="8.560735896518702"><ele>558.3333333333334</ele><time>2026-04-10T11:01:28.999Z</time></trkpt><trkpt lat="39.40051072569625" lon="8.560774337352198"><ele>561.6666666666666</ele><time>2026-04-10T11:01:32.999Z</time></trkpt><trkpt lat="39.40057537554066" lon="8.56081108674049"><ele>565.0</ele><time>2026-04-10T11:01:34.999Z</time></trkpt><trkpt lat="39.400642332145964" lon="8.56082506202867"><ele>568.3333333333333</ele><time>2026-04-10T11:01:36.999Z</time></trkpt><trkpt lat="39.40070507832466" lon="8.56077140899649"><ele>571.6666666666666</ele><time>2026-04-10T11:01:37.999Z</time></trkpt><trkpt lat="39.400743225772246" lon="8.560650438865778"><ele>575.0</ele><time>2026-04-10T11:01:39.999Z</time></trkpt><trkpt lat="39.400753996094664" lon="8.560535516741394"><ele>575.0</ele><time>2026-04-10T11:01:41.999Z</time></trkpt><trkpt lat="39.400765814361975" lon="8.560413909285286"><ele>575.0</ele><time>2026-04-10T11:01:44Z</time></trkpt><trkpt lat="39.400777066870255" lon="8.560280880273377"><ele>575.0</ele><time>2026-04-10T11:01:46Z</time></trkpt><trkpt lat="39.40080186057295" lon="8.560163995223032"><ele>575.0</ele><time>2026-04-10T11:01:48Z</time></trkpt><trkpt lat="39.40086986666315" lon="8.560038697307427"><ele>575.0</ele><time>2026-04-10T11:01:50Z</time></trkpt><trkpt lat="39.40093865155599" lon="8.559930762904914"><ele>574.6666666666666</ele><time>2026-04-10T11:01:52Z</time></trkpt><trkpt lat="39.40101447704106" lon="8.55986567863063"><ele>574.3333333333333</ele><time>2026-04-10T11:01:54Z</time></trkpt><trkpt lat="39.401124902921964" lon="8.55983605342543"><ele>574.0</ele><time>2026-04-10T11:01:56Z</time></trkpt><trkpt lat="39.40119444364998" lon="8.559777287102737"><ele>573.6666666666666</ele><time>2026-04-10T11:01:58Z</time></trkpt><trkpt lat="39.40122651536169" lon="8.559701820619095"><ele>573.3333333333334</ele><time>2026-04-10T11:02:24Z</time></trkpt><trkpt lat="39.401250672404" lon="8.559622805718996"><ele>573.0</ele><time>2026-04-10T11:02:26Z</time></trkpt><trkpt lat="39.401263164258296" lon="8.55947401634643"><ele>573.0</ele><time>2026-04-10T11:02:28Z</time></trkpt><trkpt lat="39.40125359320767" lon="8.559339589878858"><ele>573.0</ele><time>2026-04-10T11:02:30Z</time></trkpt><trkpt lat="39.40118276427095" lon="8.559254478241895"><ele>573.0</ele><time>2026-04-10T11:02:33Z</time></trkpt><trkpt lat="39.40111257600066" lon="8.55917865976948"><ele>573.0</ele><time>2026-04-10T11:04:04Z</time></trkpt><trkpt lat="39.40105677038531" lon="8.559123038398079"><ele>573.0</ele><time>2026-04-10T11:04:05Z</time></trkpt><trkpt lat="39.40100783198401" lon="8.559014554268103"><ele>573.0</ele><time>2026-04-10T11:04:07Z</time></trkpt><trkpt lat="39.400975331102714" lon="8.558942248378028"><ele>573.0</ele><time>2026-04-10T11:04:08Z</time></trkpt><trkpt lat="39.40094338392855" lon="8.55886667512277"><ele>573.0</ele><time>2026-04-10T11:04:09Z</time></trkpt><trkpt lat="39.40089384674897" lon="8.558731378643506"><ele>573.0</ele><time>2026-04-10T11:04:11Z</time></trkpt><trkpt lat="39.40086257340074" lon="8.55865495467224"><ele>573.0</ele><time>2026-04-10T11:04:12Z</time></trkpt><trkpt lat="39.4008327295294" lon="8.558550265955787"><ele>573.0</ele><time>2026-04-10T11:04:13Z</time></trkpt><trkpt lat="39.400807034067725" lon="8.558466395783872"><ele>574.6666666666666</ele><time>2026-04-10T11:04:14Z</time></trkpt><trkpt lat="39.400763332933586" lon="8.558389068346688"><ele>576.3333333333334</ele><time>2026-04-10T11:04:15Z</time></trkpt><trkpt lat="39.4007460303721" lon="8.558304862882451"><ele>578.0</ele><time>2026-04-10T11:04:16Z</time></trkpt><trkpt lat="39.40072428764375" lon="8.558223623852241"><ele>579.6666666666667</ele><time>2026-04-10T11:04:17Z</time></trkpt><trkpt lat="39.40069753813461" lon="8.558132881969184"><ele>581.3333333333334</ele><time>2026-04-10T11:04:18Z</time></trkpt><trkpt lat="39.400666025445645" lon="8.558025982017705"><ele>583.0</ele><time>2026-04-10T11:04:19Z</time></trkpt><trkpt lat="39.40061988193028" lon="8.55792450200149"><ele>581.1999999999999</ele><time>2026-04-10T11:04:20Z</time></trkpt><trkpt lat="39.40059609562948" lon="8.557806314173598"><ele>579.4</ele><time>2026-04-10T11:04:21Z</time></trkpt><trkpt lat="39.40055706833921" lon="8.557689897670414"><ele>577.5999999999999</ele><time>2026-04-10T11:04:22Z</time></trkpt><trkpt lat="39.40052449908155" lon="8.557568617317784"><ele>575.8</ele><time>2026-04-10T11:04:23Z</time></trkpt><trkpt lat="39.400483751084565" lon="8.557442369677728"><ele>574.0</ele><time>2026-04-10T11:04:24Z</time></trkpt><trkpt lat="39.40043892779037" lon="8.55730923961271"><ele>574.0</ele><time>2026-04-10T11:04:25Z</time></trkpt><trkpt lat="39.40039491965731" lon="8.557157784326861"><ele>574.0</ele><time>2026-04-10T11:04:26Z</time></trkpt><trkpt lat="39.400349976481074" lon="8.55701203794045"><ele>574.0</ele><time>2026-04-10T11:04:27Z</time></trkpt><trkpt lat="39.400308568513516" lon="8.556874252382835"><ele>574.0</ele><time>2026-04-10T11:04:28Z</time></trkpt><trkpt lat="39.400271855832116" lon="8.556748503528079"><ele>576.3333333333334</ele><time>2026-04-10T11:04:29Z</time></trkpt><trkpt lat="39.400243571801624" lon="8.556649631678981"><ele>578.6666666666667</ele><time>2026-04-10T11:04:30Z</time></trkpt><trkpt lat="39.40020847510202" lon="8.556561159002998"><ele>581.0</ele><time>2026-04-10T11:04:31Z</time></trkpt><trkpt lat="39.40020110236592" lon="8.556455837684151"><ele>583.3333333333334</ele><time>2026-04-10T11:04:32Z</time></trkpt><trkpt lat="39.40018918175733" lon="8.556369313387085"><ele>585.6666666666666</ele><time>2026-04-10T11:04:33Z</time></trkpt><trkpt lat="39.40018656181308" lon="8.556287217171636"><ele>588.0</ele><time>2026-04-10T11:04:34Z</time></trkpt><trkpt lat="39.40024890135899" lon="8.556154765042448"><ele>593.8</ele><time>2026-04-10T11:04:36Z</time></trkpt><trkpt lat="39.40032999363837" lon="8.556151861452154"><ele>599.5999999999999</ele><time>2026-04-10T11:04:37Z</time></trkpt><trkpt lat="39.40040941915329" lon="8.55618575414846"><ele>605.4000000000001</ele><time>2026-04-10T11:04:38Z</time></trkpt><trkpt lat="39.400507703452014" lon="8.556164250278945"><ele>611.2</ele><time>2026-04-10T11:04:39Z</time></trkpt><trkpt lat="39.40062733792152" lon="8.556155778203468"><ele>617.0</ele><time>2026-04-10T11:04:40Z</time></trkpt><trkpt lat="39.40072453438294" lon="8.556116565639542"><ele>617.0</ele><time>2026-04-10T11:04:41Z</time></trkpt><trkpt lat="39.40081546385593" lon="8.556060710088426"><ele>617.0</ele><time>2026-04-10T11:04:42Z</time></trkpt><trkpt lat="39.400889065065314" lon="8.556011290161468"><ele>617.0</ele><time>2026-04-10T11:04:43Z</time></trkpt><trkpt lat="39.40098242009739" lon="8.555941155536456"><ele>617.0</ele><time>2026-04-10T11:04:44Z</time></trkpt><trkpt lat="39.401062780920434" lon="8.555905459691537"><ele>617.0</ele><time>2026-04-10T11:04:45Z</time></trkpt><trkpt lat="39.40114261348634" lon="8.555857622018586"><ele>617.0</ele><time>2026-04-10T11:04:46Z</time></trkpt><trkpt lat="39.4012274087365" lon="8.555792113546417"><ele>617.0</ele><time>2026-04-10T11:04:47Z</time></trkpt><trkpt lat="39.40130657188248" lon="8.555737145437238"><ele>617.0</ele><time>2026-04-10T11:04:48Z</time></trkpt><trkpt lat="39.401398224741605" lon="8.555674927521599"><ele>617.0</ele><time>2026-04-10T11:04:49Z</time></trkpt><trkpt lat="39.40148008491098" lon="8.555608140224262"><ele>617.0</ele><time>2026-04-10T11:04:50Z</time></trkpt><trkpt lat="39.40155683073656" lon="8.555538946130596"><ele>614.8000000000001</ele><time>2026-04-10T11:04:51Z</time></trkpt><trkpt lat="39.40163365895315" lon="8.55547364438631"><ele>612.6</ele><time>2026-04-10T11:04:52Z</time></trkpt><trkpt lat="39.401702278106946" lon="8.555411278419587"><ele>610.4000000000001</ele><time>2026-04-10T11:04:53Z</time></trkpt><trkpt lat="39.4017766119694" lon="8.555374689020411"><ele>608.2</ele><time>2026-04-10T11:04:55Z</time></trkpt><trkpt lat="39.40185671961944" lon="8.555283742101492"><ele>606.0</ele><time>2026-04-10T11:04:58Z</time></trkpt><trkpt lat="39.40196718832554" lon="8.55531540526948"><ele>607.1666666666666</ele><time>2026-04-10T11:04:59Z</time></trkpt><trkpt lat="39.40204965378201" lon="8.555276377060741"><ele>608.3333333333334</ele><time>2026-04-10T11:05:00Z</time></trkpt><trkpt lat="39.402116591857315" lon="8.555246004168522"><ele>609.5</ele><time>2026-04-10T11:05:01Z</time></trkpt><trkpt lat="39.40218324235575" lon="8.555212761472708"><ele>610.6666666666667</ele><time>2026-04-10T11:05:02Z</time></trkpt><trkpt lat="39.402300878190836" lon="8.555200423857041"><ele>611.8333333333334</ele><time>2026-04-10T11:05:04Z</time></trkpt><trkpt lat="39.40237571780224" lon="8.555190286689923"><ele>613.0</ele><time>2026-04-10T11:05:05Z</time></trkpt><trkpt lat="39.4024567404187" lon="8.555183620860769"><ele>613.0</ele><time>2026-04-10T11:05:06Z</time></trkpt><trkpt lat="39.402525736494006" lon="8.555168175941338"><ele>613.0</ele><time>2026-04-10T11:05:07Z</time></trkpt><trkpt lat="39.40260717082244" lon="8.55518426977836"><ele>613.0</ele><time>2026-04-10T11:05:08Z</time></trkpt><trkpt lat="39.40266865473684" lon="8.555222349124332"><ele>613.0</ele><time>2026-04-10T11:05:09.001Z</time></trkpt><trkpt lat="39.402720670109" lon="8.555275044427974"><ele>613.0</ele><time>2026-04-10T11:05:10.001Z</time></trkpt><trkpt lat="39.402780470756994" lon="8.55532907187131"><ele>613.0</ele><time>2026-04-10T11:05:11.001Z</time></trkpt><trkpt lat="39.4028212339054" lon="8.55540227984934"><ele>613.0</ele><time>2026-04-10T11:05:12.001Z</time></trkpt><trkpt lat="39.40290288207686" lon="8.555540034753559"><ele>610.8333333333334</ele><time>2026-04-10T11:05:14.001Z</time></trkpt><trkpt lat="39.402937521755355" lon="8.555658890957435"><ele>608.6666666666667</ele><time>2026-04-10T11:05:15.001Z</time></trkpt><trkpt lat="39.40297256657912" lon="8.555740728483284"><ele>606.5</ele><time>2026-04-10T11:05:16.001Z</time></trkpt><trkpt lat="39.40302205144623" lon="8.555839937458009"><ele>604.3333333333334</ele><time>2026-04-10T11:05:18.001Z</time></trkpt><trkpt lat="39.40305880531899" lon="8.555922274970765"><ele>602.1666666666666</ele><time>2026-04-10T11:05:21.001Z</time></trkpt><trkpt lat="39.403110068481844" lon="8.556015815361755"><ele>600.0</ele><time>2026-04-10T11:05:24.001Z</time></trkpt><trkpt lat="39.40316065732525" lon="8.556064756146563"><ele>599.1666666666666</ele><time>2026-04-10T11:05:26.001Z</time></trkpt><trkpt lat="39.40323140311887" lon="8.556053440301834"><ele>598.3333333333334</ele><time>2026-04-10T11:05:28.001Z</time></trkpt><trkpt lat="39.40331418302856" lon="8.556027468739089"><ele>597.5</ele><time>2026-04-10T11:05:30.001Z</time></trkpt><trkpt lat="39.403373662728875" lon="8.555984387657452"><ele>596.6666666666667</ele><time>2026-04-10T11:05:32.001Z</time></trkpt><trkpt lat="39.403443696655266" lon="8.55592715303559"><ele>595.8333333333334</ele><time>2026-04-10T11:05:34.001Z</time></trkpt><trkpt lat="39.403500038898585" lon="8.55587764254041"><ele>595.0</ele><time>2026-04-10T11:05:35.999Z</time></trkpt><trkpt lat="39.403560387913515" lon="8.555816978695857"><ele>595.0</ele><time>2026-04-10T11:05:37.999Z</time></trkpt><trkpt lat="39.4036289872453" lon="8.555743353400102"><ele>595.0</ele><time>2026-04-10T11:05:39.999Z</time></trkpt><trkpt lat="39.40371621096095" lon="8.5556371628514"><ele>595.0</ele><time>2026-04-10T11:05:41.999Z</time></trkpt><trkpt lat="39.40374633819201" lon="8.55556553970775"><ele>595.0</ele><time>2026-04-10T11:05:42.999Z</time></trkpt><trkpt lat="39.40383447260286" lon="8.555439676130598"><ele>595.0</ele><time>2026-04-10T11:05:44.999Z</time></trkpt><trkpt lat="39.40389123300616" lon="8.555376272704388"><ele>594.8333333333334</ele><time>2026-04-10T11:05:45.999Z</time></trkpt><trkpt lat="39.403930140476945" lon="8.555306080362303"><ele>594.6666666666667</ele><time>2026-04-10T11:05:46.999Z</time></trkpt><trkpt lat="39.403964000735435" lon="8.55522881949249"><ele>594.5</ele><time>2026-04-10T11:05:47.999Z</time></trkpt><trkpt lat="39.40399550065053" lon="8.555157324600106"><ele>594.3333333333334</ele><time>2026-04-10T11:05:48.999Z</time></trkpt><trkpt lat="39.404049275398144" lon="8.555041277046103"><ele>594.1666666666666</ele><time>2026-04-10T11:05:50.999Z</time></trkpt><trkpt lat="39.40408790771522" lon="8.554918693795827"><ele>594.0</ele><time>2026-04-10T11:05:52.999Z</time></trkpt><trkpt lat="39.40408835139209" lon="8.554830860744163"><ele>594.0</ele><time>2026-04-10T11:05:53.999Z</time></trkpt><trkpt lat="39.40399853790463" lon="8.554774785065732"><ele>594.0</ele><time>2026-04-10T11:05:55.999Z</time></trkpt><trkpt lat="39.403961944646966" lon="8.554708464141287"><ele>594.0</ele><time>2026-04-10T11:05:59Z</time></trkpt><trkpt lat="39.40386847183985" lon="8.554825050185519"><ele>594.0</ele><time>2026-04-10T11:06:05Z</time></trkpt><trkpt lat="39.40390688446393" lon="8.554903688946311"><ele>594.0</ele><time>2026-04-10T11:06:08Z</time></trkpt><trkpt lat="39.40393596202332" lon="8.554977638829055"><ele>594.0</ele><time>2026-04-10T11:06:10Z</time></trkpt><trkpt lat="39.40401037537625" lon="8.555025288548268"><ele>594.0</ele><time>2026-04-10T11:06:14Z</time></trkpt><trkpt lat="39.40408163431493" lon="8.55497245848793"><ele>594.0</ele><time>2026-04-10T11:06:17Z</time></trkpt><trkpt lat="39.40406780932971" lon="8.554859431357881"><ele>594.0</ele><time>2026-04-10T11:06:20Z</time></trkpt><trkpt lat="39.4040074422903" lon="8.554796556575177"><ele>594.0</ele><time>2026-04-10T11:06:22Z</time></trkpt><trkpt lat="39.40395395917589" lon="8.554692730462083"><ele>594.0</ele><time>2026-04-10T11:06:24Z</time></trkpt><trkpt lat="39.40385187297298" lon="8.554750373576606"><ele>594.0</ele><time>2026-04-10T11:06:30Z</time></trkpt><trkpt lat="39.403911204783235" lon="8.554800923472653"><ele>594.0</ele><time>2026-04-10T11:06:37Z</time></trkpt><trkpt lat="39.4039712682794" lon="8.55482789486988"><ele>594.0</ele><time>2026-04-10T11:08:18Z</time></trkpt><trkpt lat="39.40391882320061" lon="8.554781499815311"><ele>594.0</ele><time>2026-04-10T11:15:51.002Z</time></trkpt><trkpt lat="39.40389529474816" lon="8.554695047354949"><ele>594.0</ele><time>2026-04-10T11:16:58.001Z</time></trkpt><trkpt lat="39.40387834882176" lon="8.554604417888358"><ele>594.0</ele><time>2026-04-10T11:17:17.002Z</time></trkpt><trkpt lat="39.40379715478946" lon="8.554557250844805"><ele>594.0</ele><time>2026-04-10T11:17:49.002Z</time></trkpt><trkpt lat="39.40380339678941" lon="8.554454460679862"><ele>594.0</ele><time>2026-04-10T11:17:56.002Z</time></trkpt><trkpt lat="39.40371721658699" lon="8.554313548436653"><ele>594.0</ele><time>2026-04-10T11:18:06.002Z</time></trkpt><trkpt lat="39.403757387198524" lon="8.554423386881258"><ele>594.0</ele><time>2026-04-10T11:18:12Z</time></trkpt><trkpt lat="39.40381675578975" lon="8.554476396873623"><ele>594.0</ele><time>2026-04-10T11:18:15Z</time></trkpt><trkpt lat="39.40387229345462" lon="8.554519571204183"><ele>594.0</ele><time>2026-04-10T11:18:25Z</time></trkpt><trkpt lat="39.40388611288221" lon="8.55459979747763"><ele>594.0</ele><time>2026-04-10T11:18:36Z</time></trkpt><trkpt lat="39.40393857893352" lon="8.554645480348295"><ele>594.0</ele><time>2026-04-10T11:20:49.001Z</time></trkpt><trkpt lat="39.40394550161831" lon="8.554740400783528"><ele>594.0</ele><time>2026-04-10T11:20:58.001Z</time></trkpt><trkpt lat="39.40398386926619" lon="8.5548253985503"><ele>594.0</ele><time>2026-04-10T11:21:01.001Z</time></trkpt><trkpt lat="39.4039641462081" lon="8.554738251741039"><ele>594.0</ele><time>2026-04-10T11:22:07.002Z</time></trkpt><trkpt lat="39.403956863519234" lon="8.55465249539889"><ele>594.0</ele><time>2026-04-10T11:22:13.002Z</time></trkpt><trkpt lat="39.403923315138094" lon="8.554583261512994"><ele>594.0</ele><time>2026-04-10T11:22:18.002Z</time></trkpt><trkpt lat="39.40398607829085" lon="8.554565165945187"><ele>594.0</ele><time>2026-04-10T11:22:26.001Z</time></trkpt><trkpt lat="39.40393366681594" lon="8.554627410054986"><ele>594.0</ele><time>2026-04-10T11:23:27.001Z</time></trkpt><trkpt lat="39.403908940612006" lon="8.55455143487945"><ele>594.0</ele><time>2026-04-10T11:23:32.001Z</time></trkpt><trkpt lat="39.40385036995537" lon="8.55450131780074"><ele>594.0</ele><time>2026-04-10T11:23:39.001Z</time></trkpt><trkpt lat="39.403787442545095" lon="8.554511437262308"><ele>594.0</ele><time>2026-04-10T11:24:19.002Z</time></trkpt><trkpt lat="39.40393190999042" lon="8.554504686222467"><ele>594.0</ele><time>2026-04-10T11:25:32.001Z</time></trkpt><trkpt lat="39.403835001836626" lon="8.554500948033699"><ele>594.0</ele><time>2026-04-10T11:27:45Z</time></trkpt><trkpt lat="39.40389961850794" lon="8.55452832485442"><ele>594.0</ele><time>2026-04-10T11:27:52Z</time></trkpt><trkpt lat="39.40383238279899" lon="8.554473319089398"><ele>594.0</ele><time>2026-04-10T11:28:19Z</time></trkpt><trkpt lat="39.403894705220075" lon="8.554554568313252"><ele>594.0</ele><time>2026-04-10T11:28:28Z</time></trkpt><trkpt lat="39.40387505665118" lon="8.554643352291208"><ele>594.0</ele><time>2026-04-10T11:29:13Z</time></trkpt><trkpt lat="39.40385943518464" lon="8.554563140970746"><ele>594.0</ele><time>2026-04-10T11:29:23.001Z</time></trkpt><trkpt lat="39.40379453078957" lon="8.55451229018577"><ele>594.0</ele><time>2026-04-10T11:30:17.002Z</time></trkpt><trkpt lat="39.40384705315681" lon="8.554583344002586"><ele>595.8</ele><time>2026-04-10T11:30:39.002Z</time></trkpt><trkpt lat="39.40378274131855" lon="8.55450085786159"><ele>597.5999999999999</ele><time>2026-04-10T11:31:08.001Z</time></trkpt><trkpt lat="39.40384384561495" lon="8.554443864271148"><ele>599.4</ele><time>2026-04-10T11:33:05.002Z</time></trkpt><trkpt lat="39.4036959152481" lon="8.55440550859869"><ele>601.1999999999999</ele><time>2026-04-10T11:34:59.002Z</time></trkpt><trkpt lat="39.403805084949525" lon="8.55446069309279"><ele>603.0</ele><time>2026-04-10T11:35:04.002Z</time></trkpt><trkpt lat="39.40385340851369" lon="8.554513374753663"><ele>603.0</ele><time>2026-04-10T11:36:38.001Z</time></trkpt><trkpt lat="39.40379455537764" lon="8.554433750264755"><ele>603.0</ele><time>2026-04-10T11:40:52Z</time></trkpt><trkpt lat="39.403847196875546" lon="8.554318489799146"><ele>603.0</ele><time>2026-04-10T11:40:59Z</time></trkpt><trkpt lat="39.40384595273139" lon="8.554231267413892"><ele>603.0</ele><time>2026-04-10T11:41:19Z</time></trkpt><trkpt lat="39.403843193918824" lon="8.554320291948164"><ele>603.0</ele><time>2026-04-10T11:43:12Z</time></trkpt><trkpt lat="39.403860926664215" lon="8.554423825735114"><ele>603.0</ele><time>2026-04-10T11:43:17Z</time></trkpt><trkpt lat="39.40391932304865" lon="8.554388634364368"><ele>603.0</ele><time>2026-04-10T11:44:51Z</time></trkpt><trkpt lat="39.403908532650185" lon="8.55447105001742"><ele>603.0</ele><time>2026-04-10T11:53:14.001Z</time></trkpt><trkpt lat="39.40391517530909" lon="8.554577326925248"><ele>603.0</ele><time>2026-04-10T11:53:24Z</time></trkpt><trkpt lat="39.403875691759055" lon="8.554505688885477"><ele>603.0</ele><time>2026-04-10T11:54:26Z</time></trkpt><trkpt lat="39.403801583294225" lon="8.554478691905112"><ele>603.0</ele><time>2026-04-10T11:54:38Z</time></trkpt><trkpt lat="39.403859898404896" lon="8.554556370905349"><ele>603.0</ele><time>2026-04-10T11:55:25Z</time></trkpt><trkpt lat="39.403941254891706" lon="8.55462150217639"><ele>601.5</ele><time>2026-04-10T11:56:05Z</time></trkpt><trkpt lat="39.40400535473376" lon="8.55462734019242"><ele>600.0</ele><time>2026-04-10T11:56:10Z</time></trkpt><trkpt lat="39.403955095708376" lon="8.554713767166088"><ele>598.5</ele><time>2026-04-10T12:05:47Z</time></trkpt><trkpt lat="39.40400549389192" lon="8.554798520657084"><ele>597.0</ele><time>2026-04-10T12:05:51Z</time></trkpt><trkpt lat="39.40406647382291" lon="8.55484086065975"><ele>595.5</ele><time>2026-04-10T12:05:54Z</time></trkpt><trkpt lat="39.404085034172496" lon="8.554982199943142"><ele>594.0</ele><time>2026-04-10T12:06:25Z</time></trkpt><trkpt lat="39.40407509260534" lon="8.555068906068092"><ele>594.0</ele><time>2026-04-10T12:06:26Z</time></trkpt><trkpt lat="39.404108604034136" lon="8.555148220558337"><ele>594.0</ele><time>2026-04-10T12:06:28Z</time></trkpt><trkpt lat="39.40417725389368" lon="8.555141396581021"><ele>594.0</ele><time>2026-04-10T12:06:30Z</time></trkpt><trkpt lat="39.404227229585175" lon="8.555082891431887"><ele>594.0</ele><time>2026-04-10T12:06:33Z</time></trkpt><trkpt lat="39.40424040559644" lon="8.554978656497218"><ele>594.0</ele><time>2026-04-10T12:07:12Z</time></trkpt><trkpt lat="39.40421952478662" lon="8.55482526224147"><ele>594.0</ele><time>2026-04-10T12:07:14Z</time></trkpt><trkpt lat="39.404199235803105" lon="8.554721517482976"><ele>594.0</ele><time>2026-04-10T12:07:15Z</time></trkpt><trkpt lat="39.40416673531967" lon="8.554624080553124"><ele>594.0</ele><time>2026-04-10T12:07:16Z</time></trkpt><trkpt lat="39.404139827288915" lon="8.554538304595562"><ele>594.0</ele><time>2026-04-10T12:07:17Z</time></trkpt><trkpt lat="39.40412688299388" lon="8.554448663295588"><ele>594.0</ele><time>2026-04-10T12:07:18Z</time></trkpt><trkpt lat="39.404133323241524" lon="8.554352519526242"><ele>594.0</ele><time>2026-04-10T12:07:19Z</time></trkpt><trkpt lat="39.404164890114515" lon="8.554247790063766"><ele>594.0</ele><time>2026-04-10T12:07:20Z</time></trkpt><trkpt lat="39.40423242887438" lon="8.554114763468025"><ele>595.8</ele><time>2026-04-10T12:07:21Z</time></trkpt><trkpt lat="39.40429622440893" lon="8.55400186239729"><ele>597.5999999999999</ele><time>2026-04-10T12:07:22Z</time></trkpt><trkpt lat="39.404337037310874" lon="8.553928274323948"><ele>599.4</ele><time>2026-04-10T12:07:23Z</time></trkpt><trkpt lat="39.40443461687293" lon="8.553841270523025"><ele>601.1999999999999</ele><time>2026-04-10T12:07:25Z</time></trkpt><trkpt lat="39.40449711896777" lon="8.553781508177593"><ele>603.0</ele><time>2026-04-10T12:07:26Z</time></trkpt><trkpt lat="39.40457104431916" lon="8.55372031869522"><ele>599.4</ele><time>2026-04-10T12:07:27Z</time></trkpt><trkpt lat="39.404645698228514" lon="8.553673249999017"><ele>595.8</ele><time>2026-04-10T12:07:28Z</time></trkpt><trkpt lat="39.404724399024744" lon="8.553590803588149"><ele>592.2</ele><time>2026-04-10T12:07:29Z</time></trkpt><trkpt lat="39.40479431488017" lon="8.553495561431063"><ele>588.6</ele><time>2026-04-10T12:07:30Z</time></trkpt><trkpt lat="39.40486102212828" lon="8.55338051260019"><ele>585.0</ele><time>2026-04-10T12:07:31Z</time></trkpt><trkpt lat="39.40492504580343" lon="8.553276314731422"><ele>585.0</ele><time>2026-04-10T12:07:32Z</time></trkpt><trkpt lat="39.404986840604366" lon="8.55320411893692"><ele>585.0</ele><time>2026-04-10T12:07:33Z</time></trkpt><trkpt lat="39.40505343335642" lon="8.553140424941414"><ele>585.0</ele><time>2026-04-10T12:07:34Z</time></trkpt><trkpt lat="39.40513707458957" lon="8.553073442880967"><ele>585.0</ele><time>2026-04-10T12:07:35Z</time></trkpt><trkpt lat="39.405209824586805" lon="8.553011456376778"><ele>585.0</ele><time>2026-04-10T12:07:36Z</time></trkpt><trkpt lat="39.40528079698061" lon="8.552953872010091"><ele>585.0</ele><time>2026-04-10T12:07:37Z</time></trkpt><trkpt lat="39.40533638271906" lon="8.55290193006262"><ele>582.6666666666666</ele><time>2026-04-10T12:07:38Z</time></trkpt><trkpt lat="39.405404711614786" lon="8.55284537052643"><ele>580.3333333333334</ele><time>2026-04-10T12:07:39Z</time></trkpt><trkpt lat="39.40546316581121" lon="8.552777644850574"><ele>578.0</ele><time>2026-04-10T12:07:40Z</time></trkpt><trkpt lat="39.40555486644144" lon="8.552663258592712"><ele>575.6666666666667</ele><time>2026-04-10T12:07:42Z</time></trkpt><trkpt lat="39.405609589000186" lon="8.552605413178597"><ele>573.3333333333334</ele><time>2026-04-10T12:07:43Z</time></trkpt><trkpt lat="39.405665261564366" lon="8.55255334234299"><ele>571.0</ele><time>2026-04-10T12:07:44Z</time></trkpt><trkpt lat="39.40573219965938" lon="8.55249776734058"><ele>571.0</ele><time>2026-04-10T12:07:45Z</time></trkpt><trkpt lat="39.40579251138874" lon="8.552422449320192"><ele>571.0</ele><time>2026-04-10T12:07:46Z</time></trkpt><trkpt lat="39.40587261821904" lon="8.552332592068606"><ele>571.0</ele><time>2026-04-10T12:07:47Z</time></trkpt><trkpt lat="39.405925534435426" lon="8.552264419557092"><ele>571.0</ele><time>2026-04-10T12:07:48Z</time></trkpt><trkpt lat="39.405982657488074" lon="8.552162329606709"><ele>571.0</ele><time>2026-04-10T12:07:49Z</time></trkpt><trkpt lat="39.40603742094885" lon="8.55208568495075"><ele>571.0</ele><time>2026-04-10T12:07:50Z</time></trkpt><trkpt lat="39.406084396197514" lon="8.552010442499434"><ele>574.1666666666667</ele><time>2026-04-10T12:07:51Z</time></trkpt><trkpt lat="39.40614406897181" lon="8.551941243280131"><ele>577.3333333333334</ele><time>2026-04-10T12:07:52Z</time></trkpt><trkpt lat="39.406203913109984" lon="8.551882013076437"><ele>580.5</ele><time>2026-04-10T12:07:53Z</time></trkpt><trkpt lat="39.40626680239405" lon="8.551828233455"><ele>583.6666666666666</ele><time>2026-04-10T12:07:54Z</time></trkpt><trkpt lat="39.40632258600953" lon="8.55178771767295"><ele>586.8333333333333</ele><time>2026-04-10T12:07:55Z</time></trkpt><trkpt lat="39.406414258846986" lon="8.551727135975641"><ele>590.0</ele><time>2026-04-10T12:07:57Z</time></trkpt><trkpt lat="39.40649627853602" lon="8.551651250068828"><ele>581.4</ele><time>2026-04-10T12:07:59Z</time></trkpt><trkpt lat="39.40654862808553" lon="8.551597315228026"><ele>572.8</ele><time>2026-04-10T12:08:01.999Z</time></trkpt><trkpt lat="39.40659372732532" lon="8.55167144345442"><ele>564.2</ele><time>2026-04-10T12:08:07.999Z</time></trkpt><trkpt lat="39.40650779709261" lon="8.55180976158938"><ele>555.6</ele><time>2026-04-10T12:08:09.999Z</time></trkpt><trkpt lat="39.40642557157624" lon="8.551935752065894"><ele>547.0</ele><time>2026-04-10T12:08:11.999Z</time></trkpt><trkpt lat="39.40639305840997" lon="8.552022908762691"><ele>543.2</ele><time>2026-04-10T12:08:12.999Z</time></trkpt><trkpt lat="39.406350612840754" lon="8.552167615341151"><ele>539.4000000000001</ele><time>2026-04-10T12:08:14.999Z</time></trkpt><trkpt lat="39.4063162870814" lon="8.552309697320785"><ele>535.5999999999999</ele><time>2026-04-10T12:08:16.999Z</time></trkpt><trkpt lat="39.406296369251265" lon="8.55238905636116"><ele>531.8</ele><time>2026-04-10T12:08:17.999Z</time></trkpt><trkpt lat="39.40624570463227" lon="8.552504278344689"><ele>528.0</ele><time>2026-04-10T12:08:19.999Z</time></trkpt><trkpt lat="39.40626956593558" lon="8.552584095026882"><ele>528.0</ele><time>2026-04-10T12:08:21.999Z</time></trkpt><trkpt lat="39.406342083589244" lon="8.552578566546256"><ele>528.0</ele><time>2026-04-10T12:08:24Z</time></trkpt><trkpt lat="39.40637922577635" lon="8.552482464924697"><ele>528.0</ele><time>2026-04-10T12:08:26Z</time></trkpt><trkpt lat="39.40642634784323" lon="8.552392014893183"><ele>528.0</ele><time>2026-04-10T12:08:27Z</time></trkpt><trkpt lat="39.406487697377344" lon="8.552297419327825"><ele>528.0</ele><time>2026-04-10T12:08:28Z</time></trkpt><trkpt lat="39.40654153657816" lon="8.552236424454046"><ele>528.0</ele><time>2026-04-10T12:08:29Z</time></trkpt><trkpt lat="39.406644454662526" lon="8.552145648482774"><ele>528.0</ele><time>2026-04-10T12:08:31Z</time></trkpt><trkpt lat="39.406717127073456" lon="8.552126294865635"><ele>528.0</ele><time>2026-04-10T12:08:32Z</time></trkpt><trkpt lat="39.40674474383676" lon="8.552047754286601"><ele>528.0</ele><time>2026-04-10T12:08:33Z</time></trkpt><trkpt lat="39.406810345199084" lon="8.551991290076659"><ele>528.0</ele><time>2026-04-10T12:08:34Z</time></trkpt><trkpt lat="39.406863612459134" lon="8.551913469252517"><ele>528.0</ele><time>2026-04-10T12:08:35Z</time></trkpt><trkpt lat="39.40693137912307" lon="8.551822206492576"><ele>528.0</ele><time>2026-04-10T12:08:36Z</time></trkpt><trkpt lat="39.406982150139314" lon="8.55173044375516"><ele>531.1666666666666</ele><time>2026-04-10T12:08:37Z</time></trkpt><trkpt lat="39.40702649992542" lon="8.551647561106261"><ele>534.3333333333334</ele><time>2026-04-10T12:08:38Z</time></trkpt><trkpt lat="39.40707591436128" lon="8.551574196794627"><ele>537.5</ele><time>2026-04-10T12:08:39Z</time></trkpt><trkpt lat="39.407145443325355" lon="8.551438798971688"><ele>540.6666666666667</ele><time>2026-04-10T12:08:41Z</time></trkpt><trkpt lat="39.407189626027474" lon="8.551378241056586"><ele>543.8333333333334</ele><time>2026-04-10T12:08:42Z</time></trkpt><trkpt lat="39.40723734148776" lon="8.551304296155033"><ele>547.0</ele><time>2026-04-10T12:08:43Z</time></trkpt><trkpt lat="39.40728937156936" lon="8.551226520033964"><ele>541.8333333333334</ele><time>2026-04-10T12:08:44Z</time></trkpt><trkpt lat="39.4073359878121" lon="8.551145253235234"><ele>536.6666666666667</ele><time>2026-04-10T12:08:45Z</time></trkpt><trkpt lat="39.407384797383244" lon="8.551054175684857"><ele>531.5</ele><time>2026-04-10T12:08:46Z</time></trkpt><trkpt lat="39.407418891926596" lon="8.550972460505024"><ele>526.3333333333334</ele><time>2026-04-10T12:08:47Z</time></trkpt><trkpt lat="39.40748485520087" lon="8.550877683678369"><ele>521.1666666666666</ele><time>2026-04-10T12:08:48Z</time></trkpt><trkpt lat="39.40754781530601" lon="8.550802166296787"><ele>516.0</ele><time>2026-04-10T12:08:49Z</time></trkpt><trkpt lat="39.40761403540432" lon="8.550735119713396"><ele>516.0</ele><time>2026-04-10T12:08:50Z</time></trkpt><trkpt lat="39.40767876553493" lon="8.550669130417367"><ele>516.0</ele><time>2026-04-10T12:08:51Z</time></trkpt><trkpt lat="39.40773320642485" lon="8.550590813338895"><ele>516.0</ele><time>2026-04-10T12:08:52Z</time></trkpt><trkpt lat="39.407772769333114" lon="8.55050807497976"><ele>516.0</ele><time>2026-04-10T12:08:53Z</time></trkpt><trkpt lat="39.40780149124326" lon="8.550418460251525"><ele>516.0</ele><time>2026-04-10T12:08:54Z</time></trkpt><trkpt lat="39.40783010005449" lon="8.55033363602656"><ele>516.0</ele><time>2026-04-10T12:08:55Z</time></trkpt><trkpt lat="39.40786462050763" lon="8.550256458896364"><ele>518.0</ele><time>2026-04-10T12:08:56Z</time></trkpt><trkpt lat="39.4078986234982" lon="8.550174630196278"><ele>520.0</ele><time>2026-04-10T12:08:57Z</time></trkpt><trkpt lat="39.40794183726906" lon="8.550097366109501"><ele>522.0</ele><time>2026-04-10T12:08:58Z</time></trkpt><trkpt lat="39.407980374189805" lon="8.550014615340476"><ele>524.0</ele><time>2026-04-10T12:08:59Z</time></trkpt><trkpt lat="39.40803640625712" lon="8.549861319887762"><ele>526.0</ele><time>2026-04-10T12:09:01Z</time></trkpt><trkpt lat="39.40806476726219" lon="8.549786088492285"><ele>528.0</ele><time>2026-04-10T12:09:02Z</time></trkpt><trkpt lat="39.40810137701127" lon="8.549700083245394"><ele>522.0</ele><time>2026-04-10T12:09:03Z</time></trkpt><trkpt lat="39.408135465764566" lon="8.549610101918462"><ele>516.0</ele><time>2026-04-10T12:09:04Z</time></trkpt><trkpt lat="39.4081657514258" lon="8.549532314367791"><ele>510.0</ele><time>2026-04-10T12:09:05Z</time></trkpt><trkpt lat="39.408204948015275" lon="8.54946047643004"><ele>504.0</ele><time>2026-04-10T12:09:06Z</time></trkpt><trkpt lat="39.40825555764722" lon="8.549400001616627"><ele>498.0</ele><time>2026-04-10T12:09:07Z</time></trkpt><trkpt lat="39.40831702526321" lon="8.549363823441515"><ele>492.0</ele><time>2026-04-10T12:09:08Z</time></trkpt><trkpt lat="39.40844735602979" lon="8.549342517120243"><ele>492.0</ele><time>2026-04-10T12:09:10Z</time></trkpt><trkpt lat="39.40851973960168" lon="8.549333314034651"><ele>492.0</ele><time>2026-04-10T12:09:11Z</time></trkpt><trkpt lat="39.408581334004914" lon="8.549289067213346"><ele>492.0</ele><time>2026-04-10T12:09:12Z</time></trkpt><trkpt lat="39.40863624653935" lon="8.54922716975941"><ele>492.0</ele><time>2026-04-10T12:09:13Z</time></trkpt><trkpt lat="39.408660143400496" lon="8.549145989935392"><ele>492.0</ele><time>2026-04-10T12:09:14Z</time></trkpt><trkpt lat="39.40867254741186" lon="8.548977221184373"><ele>492.0</ele><time>2026-04-10T12:09:16Z</time></trkpt><trkpt lat="39.40868233513889" lon="8.548825622337839"><ele>492.6</ele><time>2026-04-10T12:09:18Z</time></trkpt><trkpt lat="39.40869931770699" lon="8.548686460108987"><ele>493.20000000000005</ele><time>2026-04-10T12:09:20Z</time></trkpt><trkpt lat="39.40876657753279" lon="8.548568610841457"><ele>493.8</ele><time>2026-04-10T12:09:22Z</time></trkpt><trkpt lat="39.40879614468515" lon="8.548473613055844"><ele>494.4</ele><time>2026-04-10T12:09:24Z</time></trkpt><trkpt lat="39.408805772964214" lon="8.54835222257193"><ele>495.0</ele><time>2026-04-10T12:09:26Z</time></trkpt><trkpt lat="39.408795395056515" lon="8.548222047078985"><ele>495.0</ele><time>2026-04-10T12:09:28Z</time></trkpt><trkpt lat="39.408799932575455" lon="8.548117780819034"><ele>495.0</ele><time>2026-04-10T12:09:30Z</time></trkpt><trkpt lat="39.40880369302629" lon="8.54801565514652"><ele>495.0</ele><time>2026-04-10T12:09:32Z</time></trkpt><trkpt lat="39.4087982921747" lon="8.54790996325034"><ele>495.0</ele><time>2026-04-10T12:09:34Z</time></trkpt><trkpt lat="39.408809984612965" lon="8.547766823031978"><ele>495.0</ele><time>2026-04-10T12:09:36Z</time></trkpt><trkpt lat="39.40883627431982" lon="8.54761001006758"><ele>486.8333333333333</ele><time>2026-04-10T12:09:38Z</time></trkpt><trkpt lat="39.408860190631295" lon="8.547471979130162"><ele>478.66666666666663</ele><time>2026-04-10T12:09:40Z</time></trkpt><trkpt lat="39.40890870785003" lon="8.547374179885495"><ele>470.5</ele><time>2026-04-10T12:09:42Z</time></trkpt><trkpt lat="39.40893665387306" lon="8.547300237892536"><ele>462.3333333333333</ele><time>2026-04-10T12:09:43Z</time></trkpt><trkpt lat="39.40895504296225" lon="8.54721996208293"><ele>454.16666666666663</ele><time>2026-04-10T12:09:44Z</time></trkpt><trkpt lat="39.40898492417619" lon="8.547143584339125"><ele>446.0</ele><time>2026-04-10T12:09:45Z</time></trkpt><trkpt lat="39.40905305730511" lon="8.547058092085132"><ele>446.3333333333333</ele><time>2026-04-10T12:09:46Z</time></trkpt><trkpt lat="39.40910764875362" lon="8.546972020801954"><ele>446.66666666666663</ele><time>2026-04-10T12:09:47Z</time></trkpt><trkpt lat="39.40916347100754" lon="8.546829855794211"><ele>447.0</ele><time>2026-04-10T12:09:49Z</time></trkpt><trkpt lat="39.40920027440927" lon="8.546740780224908"><ele>447.33333333333337</ele><time>2026-04-10T12:09:50Z</time></trkpt><trkpt lat="39.40924535506145" lon="8.546660315633465"><ele>447.6666666666667</ele><time>2026-04-10T12:09:51Z</time></trkpt><trkpt lat="39.40927636461919" lon="8.546581584326757"><ele>448.0</ele><time>2026-04-10T12:09:52Z</time></trkpt><trkpt lat="39.40928784409103" lon="8.546454055300257"><ele>448.0</ele><time>2026-04-10T12:09:54Z</time></trkpt><trkpt lat="39.40922134879845" lon="8.54634386496537"><ele>447.99999999999994</ele><time>2026-04-10T12:09:56Z</time></trkpt><trkpt lat="39.409237817477106" lon="8.546200532146024"><ele>447.99999999999994</ele><time>2026-04-10T12:09:58Z</time></trkpt><trkpt lat="39.40926621726712" lon="8.546123210267575"><ele>448.0</ele><time>2026-04-10T12:09:59Z</time></trkpt><trkpt lat="39.40933174650793" lon="8.545992717717581"><ele>448.0</ele><time>2026-04-10T12:10:01Z</time></trkpt><trkpt lat="39.40938127189643" lon="8.545916191769852"><ele>449.1666666666667</ele><time>2026-04-10T12:10:02Z</time></trkpt><trkpt lat="39.409441652708665" lon="8.545865101608099"><ele>450.33333333333337</ele><time>2026-04-10T12:10:03Z</time></trkpt><trkpt lat="39.409518655978474" lon="8.545775616119347"><ele>451.5</ele><time>2026-04-10T12:10:05Z</time></trkpt><trkpt lat="39.40958824430682" lon="8.545718902721129"><ele>452.66666666666663</ele><time>2026-04-10T12:10:07Z</time></trkpt><trkpt lat="39.409661236229084" lon="8.545641921136912"><ele>453.8333333333333</ele><time>2026-04-10T12:10:08.999Z</time></trkpt><trkpt lat="39.40968725926386" lon="8.545551829825602"><ele>455.0</ele><time>2026-04-10T12:10:09.999Z</time></trkpt><trkpt lat="39.40968338291969" lon="8.545393269822535"><ele>448.66666666666663</ele><time>2026-04-10T12:10:11.999Z</time></trkpt><trkpt lat="39.40968555676486" lon="8.545287758380125"><ele>442.3333333333333</ele><time>2026-04-10T12:10:12.999Z</time></trkpt><trkpt lat="39.40969506886992" lon="8.545185168385293"><ele>436.0</ele><time>2026-04-10T12:10:13.999Z</time></trkpt><trkpt lat="39.409721955328074" lon="8.54509686149712"><ele>429.66666666666663</ele><time>2026-04-10T12:10:14.999Z</time></trkpt><trkpt lat="39.40976149333615" lon="8.545022361104946"><ele>423.3333333333333</ele><time>2026-04-10T12:10:15.999Z</time></trkpt><trkpt lat="39.40985392915756" lon="8.544915912804047"><ele>417.0</ele><time>2026-04-10T12:10:17.999Z</time></trkpt><trkpt lat="39.409968359159286" lon="8.544838679344721"><ele>417.0</ele><time>2026-04-10T12:10:19.999Z</time></trkpt><trkpt lat="39.41004113010823" lon="8.544744706506881"><ele>417.0</ele><time>2026-04-10T12:10:21.999Z</time></trkpt><trkpt lat="39.41009400364347" lon="8.544599158094496"><ele>417.0</ele><time>2026-04-10T12:10:24Z</time></trkpt><trkpt lat="39.41010830531272" lon="8.544511707616934"><ele>417.0</ele><time>2026-04-10T12:10:25Z</time></trkpt><trkpt lat="39.41011025883368" lon="8.544354284490373"><ele>417.0</ele><time>2026-04-10T12:10:27Z</time></trkpt><trkpt lat="39.41010733107939" lon="8.544269158014098"><ele>419.1666666666667</ele><time>2026-04-10T12:10:28Z</time></trkpt><trkpt lat="39.41010207861091" lon="8.544179951408974"><ele>421.33333333333337</ele><time>2026-04-10T12:10:29Z</time></trkpt><trkpt lat="39.41011029408303" lon="8.544080300155876"><ele>423.5</ele><time>2026-04-10T12:10:30Z</time></trkpt><trkpt lat="39.410122662407396" lon="8.543980871583384"><ele>425.6666666666667</ele><time>2026-04-10T12:10:31Z</time></trkpt><trkpt lat="39.41014780990285" lon="8.54388853677811"><ele>427.83333333333337</ele><time>2026-04-10T12:10:32Z</time></trkpt><trkpt lat="39.41017777799245" lon="8.543801183352132"><ele>430.0</ele><time>2026-04-10T12:10:33Z</time></trkpt><trkpt lat="39.41022726552863" lon="8.543719689604048"><ele>431.6</ele><time>2026-04-10T12:10:34Z</time></trkpt><trkpt lat="39.41028047651397" lon="8.543661061281837"><ele>433.2</ele><time>2026-04-10T12:10:35Z</time></trkpt><trkpt lat="39.410340355640336" lon="8.543633475534403"><ele>434.79999999999995</ele><time>2026-04-10T12:10:36Z</time></trkpt><trkpt lat="39.410465189815966" lon="8.543599589030546"><ele>436.4</ele><time>2026-04-10T12:10:38Z</time></trkpt><trkpt lat="39.41056762727709" lon="8.543543077763468"><ele>438.0</ele><time>2026-04-10T12:10:40Z</time></trkpt><trkpt lat="39.41059904973764" lon="8.543433317658677"><ele>433.2</ele><time>2026-04-10T12:10:42Z</time></trkpt><trkpt lat="39.410620033383246" lon="8.543241861820354"><ele>428.4</ele><time>2026-04-10T12:10:44Z</time></trkpt><trkpt lat="39.410634278917705" lon="8.543148726342338"><ele>423.59999999999997</ele><time>2026-04-10T12:10:45Z</time></trkpt><trkpt lat="39.41070198495417" lon="8.543032688635458"><ele>418.79999999999995</ele><time>2026-04-10T12:10:47Z</time></trkpt><trkpt lat="39.41072337729586" lon="8.542909299366158"><ele>414.0</ele><time>2026-04-10T12:10:49Z</time></trkpt><trkpt lat="39.41067863549556" lon="8.542816786008146"><ele>413.6666666666667</ele><time>2026-04-10T12:10:51Z</time></trkpt><trkpt lat="39.41056229886056" lon="8.542786605485565"><ele>413.33333333333337</ele><time>2026-04-10T12:10:53Z</time></trkpt><trkpt lat="39.41048830629732" lon="8.542823445742108"><ele>413.0</ele><time>2026-04-10T12:10:54Z</time></trkpt><trkpt lat="39.41040817950954" lon="8.542875170734265"><ele>412.6666666666667</ele><time>2026-04-10T12:10:55Z</time></trkpt><trkpt lat="39.41035219159611" lon="8.542922763984318"><ele>412.33333333333337</ele><time>2026-04-10T12:10:56Z</time></trkpt><trkpt lat="39.41028321769794" lon="8.542969306084318"><ele>412.0</ele><time>2026-04-10T12:10:57Z</time></trkpt><trkpt lat="39.41022565231974" lon="8.543004130826445"><ele>416.33333333333337</ele><time>2026-04-10T12:10:58Z</time></trkpt><trkpt lat="39.41015550854005" lon="8.54303249318365"><ele>420.6666666666667</ele><time>2026-04-10T12:10:59Z</time></trkpt><trkpt lat="39.41008312464056" lon="8.543060460315296"><ele>425.0</ele><time>2026-04-10T12:11:00Z</time></trkpt><trkpt lat="39.41001248835477" lon="8.543089164227979"><ele>429.33333333333337</ele><time>2026-04-10T12:11:01Z</time></trkpt><trkpt lat="39.409951123373695" lon="8.543120084097685"><ele>433.6666666666667</ele><time>2026-04-10T12:11:02Z</time></trkpt><trkpt lat="39.40988268139194" lon="8.54315582991364"><ele>438.0</ele><time>2026-04-10T12:11:03Z</time></trkpt><trkpt lat="39.40978474409891" lon="8.54318906282528"><ele>438.0</ele><time>2026-04-10T12:11:05Z</time></trkpt><trkpt lat="39.409680882082846" lon="8.543203078412926"><ele>437.99999999999994</ele><time>2026-04-10T12:11:07Z</time></trkpt><trkpt lat="39.40955206574632" lon="8.543244910624779"><ele>437.99999999999994</ele><time>2026-04-10T12:11:09Z</time></trkpt><trkpt lat="39.409436806054096" lon="8.54327643907619"><ele>438.0</ele><time>2026-04-10T12:11:11Z</time></trkpt><trkpt lat="39.40937126425027" lon="8.543297548082679"><ele>438.0</ele><time>2026-04-10T12:11:12Z</time></trkpt><trkpt lat="39.409307762111354" lon="8.543309113737426"><ele>441.0</ele><time>2026-04-10T12:11:13Z</time></trkpt><trkpt lat="39.40918054964211" lon="8.54334049128348"><ele>443.99999999999994</ele><time>2026-04-10T12:11:15Z</time></trkpt><trkpt lat="39.40910407049226" lon="8.543351556780747"><ele>446.99999999999994</ele><time>2026-04-10T12:11:16Z</time></trkpt><trkpt lat="39.409032485082605" lon="8.54337173919246"><ele>450.0</ele><time>2026-04-10T12:11:17Z</time></trkpt><trkpt lat="39.40893684975176" lon="8.543359509166532"><ele>453.0</ele><time>2026-04-10T12:11:19Z</time></trkpt><trkpt lat="39.40889211611109" lon="8.543252337781587"><ele>453.0</ele><time>2026-04-10T12:11:21Z</time></trkpt><trkpt lat="39.408886312474216" lon="8.543154385773056"><ele>453.0</ele><time>2026-04-10T12:11:22Z</time></trkpt><trkpt lat="39.40889083745953" lon="8.543050438371113"><ele>453.0</ele><time>2026-04-10T12:11:23Z</time></trkpt><trkpt lat="39.40888075968404" lon="8.54295821264228"><ele>453.0</ele><time>2026-04-10T12:11:24Z</time></trkpt><trkpt lat="39.40886644864481" lon="8.542858372895461"><ele>453.0</ele><time>2026-04-10T12:11:25Z</time></trkpt><trkpt lat="39.40881662447191" lon="8.542754599167031"><ele>453.0</ele><time>2026-04-10T12:11:26Z</time></trkpt><trkpt lat="39.40877916342914" lon="8.542654951804261"><ele>453.0</ele><time>2026-04-10T12:11:27Z</time></trkpt><trkpt lat="39.40875108764243" lon="8.542574898402403"><ele>452.99999999999994</ele><time>2026-04-10T12:11:28Z</time></trkpt><trkpt lat="39.4086687198113" lon="8.542444553344698"><ele>452.99999999999994</ele><time>2026-04-10T12:11:30Z</time></trkpt><trkpt lat="39.40861833304254" lon="8.542395021767275"><ele>453.0</ele><time>2026-04-10T12:11:31Z</time></trkpt><trkpt lat="39.40849143374766" lon="8.542361163308053"><ele>453.0</ele><time>2026-04-10T12:11:33Z</time></trkpt><trkpt lat="39.408420483868944" lon="8.542370723627128"><ele>453.0</ele><time>2026-04-10T12:11:34Z</time></trkpt><trkpt lat="39.40832295149694" lon="8.542457221273244"><ele>453.0</ele><time>2026-04-10T12:11:36Z</time></trkpt><trkpt lat="39.40826413602849" lon="8.542569975178559"><ele>453.0</ele><time>2026-04-10T12:11:38Z</time></trkpt><trkpt lat="39.40823147050444" lon="8.542642509260535"><ele>453.0</ele><time>2026-04-10T12:11:40Z</time></trkpt><trkpt lat="39.40817121554302" lon="8.542734607075392"><ele>453.0</ele><time>2026-04-10T12:11:42Z</time></trkpt><trkpt lat="39.40812787611078" lon="8.54279964049804"><ele>453.0</ele><time>2026-04-10T12:11:43Z</time></trkpt><trkpt lat="39.40808115950738" lon="8.542869833095654"><ele>452.6666666666667</ele><time>2026-04-10T12:11:44Z</time></trkpt><trkpt lat="39.408026953271424" lon="8.542915582554466"><ele>452.33333333333337</ele><time>2026-04-10T12:11:45Z</time></trkpt><trkpt lat="39.40796490923071" lon="8.542940393697336"><ele>452.0</ele><time>2026-04-10T12:11:46Z</time></trkpt><trkpt lat="39.40784880344468" lon="8.542931938373888"><ele>451.6666666666667</ele><time>2026-04-10T12:11:48Z</time></trkpt><trkpt lat="39.40772928769538" lon="8.542949431281654"><ele>451.33333333333337</ele><time>2026-04-10T12:11:50Z</time></trkpt><trkpt lat="39.40766673645386" lon="8.5429854476506"><ele>451.0</ele><time>2026-04-10T12:11:51Z</time></trkpt><trkpt lat="39.40761131407277" lon="8.543036872965889"><ele>451.0</ele><time>2026-04-10T12:11:52Z</time></trkpt><trkpt lat="39.40755453798095" lon="8.543077128407804"><ele>451.0</ele><time>2026-04-10T12:11:53Z</time></trkpt><trkpt lat="39.40748605892157" lon="8.543088237434922"><ele>451.0</ele><time>2026-04-10T12:11:54Z</time></trkpt><trkpt lat="39.40741829501762" lon="8.54307470119169"><ele>451.0</ele><time>2026-04-10T12:11:55Z</time></trkpt><trkpt lat="39.407343873874865" lon="8.543070890615244"><ele>451.0</ele><time>2026-04-10T12:11:56Z</time></trkpt><trkpt lat="39.40727204773956" lon="8.543076531641914"><ele>451.0</ele><time>2026-04-10T12:11:57Z</time></trkpt><trkpt lat="39.407202755869655" lon="8.543093826379167"><ele>451.0</ele><time>2026-04-10T12:11:58Z</time></trkpt><trkpt lat="39.40713505225651" lon="8.543113692223542"><ele>449.0</ele><time>2026-04-10T12:11:59Z</time></trkpt><trkpt lat="39.40704830360391" lon="8.543116240644858"><ele>447.0</ele><time>2026-04-10T12:12:00Z</time></trkpt><trkpt lat="39.40695939277749" lon="8.54322271135014"><ele>445.0</ele><time>2026-04-10T12:12:02Z</time></trkpt><trkpt lat="39.40688513328944" lon="8.543315702248826"><ele>443.0</ele><time>2026-04-10T12:12:04Z</time></trkpt><trkpt lat="39.40677564510015" lon="8.54332464992592"><ele>441.0</ele><time>2026-04-10T12:12:06Z</time></trkpt><trkpt lat="39.40675857107939" lon="8.543170903208182"><ele>441.0</ele><time>2026-04-10T12:12:08Z</time></trkpt><trkpt lat="39.40677702523728" lon="8.543018094806246"><ele>441.0</ele><time>2026-04-10T12:12:10Z</time></trkpt><trkpt lat="39.40682025026648" lon="8.542911534945095"><ele>441.0</ele><time>2026-04-10T12:12:11Z</time></trkpt><trkpt lat="39.40686642945927" lon="8.54282957817934"><ele>441.0</ele><time>2026-04-10T12:12:12Z</time></trkpt><trkpt lat="39.40691398973193" lon="8.542739958979677"><ele>441.0</ele><time>2026-04-10T12:12:13Z</time></trkpt><trkpt lat="39.40696930379858" lon="8.542609966433835"><ele>438.5</ele><time>2026-04-10T12:12:15Z</time></trkpt><trkpt lat="39.40694730704632" lon="8.54247141672546"><ele>436.0</ele><time>2026-04-10T12:12:17Z</time></trkpt><trkpt lat="39.40682953392459" lon="8.542388715158374"><ele>433.5</ele><time>2026-04-10T12:12:19Z</time></trkpt><trkpt lat="39.40680214926443" lon="8.542250556381694"><ele>431.0</ele><time>2026-04-10T12:12:20Z</time></trkpt><trkpt lat="39.40684261684635" lon="8.54209157813726"><ele>431.16666666666663</ele><time>2026-04-10T12:12:22Z</time></trkpt><trkpt lat="39.40686842149583" lon="8.541999011036657"><ele>431.3333333333333</ele><time>2026-04-10T12:12:23Z</time></trkpt><trkpt lat="39.40690867359877" lon="8.541928504962163"><ele>431.5</ele><time>2026-04-10T12:12:24Z</time></trkpt><trkpt lat="39.40694007217167" lon="8.54184134850753"><ele>431.66666666666663</ele><time>2026-04-10T12:12:26Z</time></trkpt><trkpt lat="39.40699445462393" lon="8.541730405115313"><ele>431.8333333333333</ele><time>2026-04-10T12:12:28Z</time></trkpt><trkpt lat="39.407024942376005" lon="8.541592075602507"><ele>432.0</ele><time>2026-04-10T12:12:30Z</time></trkpt><trkpt lat="39.407053562042975" lon="8.541480318186744"><ele>432.0</ele><time>2026-04-10T12:12:31Z</time></trkpt><trkpt lat="39.40704654472273" lon="8.541360193498168"><ele>432.00000000000006</ele><time>2026-04-10T12:12:32Z</time></trkpt><trkpt lat="39.40704818931361" lon="8.541202876055985"><ele>432.00000000000006</ele><time>2026-04-10T12:12:34Z</time></trkpt><trkpt lat="39.40703459490381" lon="8.541118937938831"><ele>432.0</ele><time>2026-04-10T12:12:35Z</time></trkpt><trkpt lat="39.40702370453341" lon="8.541033542512347"><ele>432.0</ele><time>2026-04-10T12:12:36Z</time></trkpt><trkpt lat="39.40699795318402" lon="8.540889983222765"><ele>430.0</ele><time>2026-04-10T12:12:38Z</time></trkpt><trkpt lat="39.40693901296235" lon="8.540835726199248"><ele>428.0</ele><time>2026-04-10T12:12:39Z</time></trkpt><trkpt lat="39.40689166184022" lon="8.54076721592149"><ele>426.0</ele><time>2026-04-10T12:12:40Z</time></trkpt><trkpt lat="39.40683524177345" lon="8.54070360847725"><ele>424.0</ele><time>2026-04-10T12:12:41Z</time></trkpt><trkpt lat="39.40675500989565" lon="8.540568939483542"><ele>422.0</ele><time>2026-04-10T12:12:43Z</time></trkpt><trkpt lat="39.406723225790486" lon="8.540489202017197"><ele>420.0</ele><time>2026-04-10T12:12:44Z</time></trkpt><trkpt lat="39.40669635266458" lon="8.540316865338676"><ele>416.8333333333333</ele><time>2026-04-10T12:12:46Z</time></trkpt><trkpt lat="39.406688708400374" lon="8.54022973399893"><ele>413.66666666666663</ele><time>2026-04-10T12:12:47Z</time></trkpt><trkpt lat="39.40667509543965" lon="8.540135868044798"><ele>410.5</ele><time>2026-04-10T12:12:49Z</time></trkpt><trkpt lat="39.40668188548994" lon="8.540042161125498"><ele>407.3333333333333</ele><time>2026-04-10T12:12:51Z</time></trkpt><trkpt lat="39.40667757534285" lon="8.539898813148124"><ele>404.16666666666663</ele><time>2026-04-10T12:12:53Z</time></trkpt><trkpt lat="39.406650477718294" lon="8.53982295285094"><ele>401.0</ele><time>2026-04-10T12:12:54Z</time></trkpt><trkpt lat="39.40660522129274" lon="8.53969415882385"><ele>401.0</ele><time>2026-04-10T12:12:56Z</time></trkpt><trkpt lat="39.406607900625865" lon="8.539581646596153"><ele>401.0</ele><time>2026-04-10T12:12:58Z</time></trkpt><trkpt lat="39.4065368545819" lon="8.539580570240954"><ele>401.0</ele><time>2026-04-10T12:13:02Z</time></trkpt><trkpt lat="39.406526613343694" lon="8.539738395539338"><ele>401.0</ele><time>2026-04-10T12:13:04Z</time></trkpt><trkpt lat="39.40653117261004" lon="8.53986432768949"><ele>401.0</ele><time>2026-04-10T12:13:06Z</time></trkpt><trkpt lat="39.4064739127321" lon="8.539977358213426"><ele>400.99999999999994</ele><time>2026-04-10T12:13:08Z</time></trkpt><trkpt lat="39.40636843843462" lon="8.539960492367403"><ele>401.0</ele><time>2026-04-10T12:13:10Z</time></trkpt><trkpt lat="39.40631206591138" lon="8.53990790929215"><ele>401.0</ele><time>2026-04-10T12:13:11Z</time></trkpt><trkpt lat="39.40626980977435" lon="8.539835563860807"><ele>401.0</ele><time>2026-04-10T12:13:12Z</time></trkpt><trkpt lat="39.40626152271677" lon="8.539684979420128"><ele>400.99999999999994</ele><time>2026-04-10T12:13:14Z</time></trkpt><trkpt lat="39.406273584935" lon="8.53959496152258"><ele>401.0</ele><time>2026-04-10T12:13:15Z</time></trkpt><trkpt lat="39.406262644500686" lon="8.539492779820835"><ele>395.6</ele><time>2026-04-10T12:13:16Z</time></trkpt><trkpt lat="39.40620573554581" lon="8.539434104556765"><ele>390.20000000000005</ele><time>2026-04-10T12:13:17Z</time></trkpt><trkpt lat="39.4061513579972" lon="8.53935908183321"><ele>384.79999999999995</ele><time>2026-04-10T12:13:18Z</time></trkpt><trkpt lat="39.40609643019165" lon="8.539298245200415"><ele>379.4</ele><time>2026-04-10T12:13:19Z</time></trkpt><trkpt lat="39.4060234270843" lon="8.539165857778404"><ele>374.0</ele><time>2026-04-10T12:13:21Z</time></trkpt><trkpt lat="39.4059588397044" lon="8.539015679162956"><ele>374.0</ele><time>2026-04-10T12:13:23Z</time></trkpt><trkpt lat="39.40593139440559" lon="8.538934305005254"><ele>374.0</ele><time>2026-04-10T12:13:24Z</time></trkpt><trkpt lat="39.40590943852269" lon="8.538856007090411"><ele>374.0</ele><time>2026-04-10T12:13:25Z</time></trkpt><trkpt lat="39.40589413019799" lon="8.538665181330469"><ele>374.0</ele><time>2026-04-10T12:13:27Z</time></trkpt><trkpt lat="39.40588137233025" lon="8.538574734212002"><ele>374.0</ele><time>2026-04-10T12:13:28Z</time></trkpt><trkpt lat="39.405902132467155" lon="8.538418802976313"><ele>370.6666666666667</ele><time>2026-04-10T12:13:30Z</time></trkpt><trkpt lat="39.40593760433382" lon="8.538349382640996"><ele>367.33333333333337</ele><time>2026-04-10T12:13:31Z</time></trkpt><trkpt lat="39.40599238711995" lon="8.538295535877545"><ele>364.0</ele><time>2026-04-10T12:13:32Z</time></trkpt><trkpt lat="39.40605746091469" lon="8.538252575833974"><ele>360.6666666666667</ele><time>2026-04-10T12:13:33Z</time></trkpt><trkpt lat="39.40611981935003" lon="8.538206850700742"><ele>357.3333333333333</ele><time>2026-04-10T12:13:34Z</time></trkpt><trkpt lat="39.406212599234266" lon="8.53814144632095"><ele>354.0</ele><time>2026-04-10T12:13:36Z</time></trkpt><trkpt lat="39.406303068775934" lon="8.538113450257997"><ele>355.2</ele><time>2026-04-10T12:13:38Z</time></trkpt><trkpt lat="39.406390597215896" lon="8.538126672132767"><ele>356.4</ele><time>2026-04-10T12:13:40Z</time></trkpt><trkpt lat="39.406501660158774" lon="8.538116404987203"><ele>357.6</ele><time>2026-04-10T12:13:42Z</time></trkpt><trkpt lat="39.40659375858592" lon="8.538037538659886"><ele>358.8</ele><time>2026-04-10T12:13:44Z</time></trkpt><trkpt lat="39.40666206530427" lon="8.537945635122263"><ele>360.0</ele><time>2026-04-10T12:13:46Z</time></trkpt><trkpt lat="39.40671656206922" lon="8.53781246337461"><ele>356.5</ele><time>2026-04-10T12:13:48Z</time></trkpt><trkpt lat="39.40672363222923" lon="8.537729287129613"><ele>353.0</ele><time>2026-04-10T12:13:49Z</time></trkpt><trkpt lat="39.40671234530666" lon="8.537641436581602"><ele>349.5</ele><time>2026-04-10T12:13:50Z</time></trkpt><trkpt lat="39.406732474584686" lon="8.537548135015884"><ele>346.0</ele><time>2026-04-10T12:13:51Z</time></trkpt><trkpt lat="39.40674840170175" lon="8.537445059894043"><ele>342.5</ele><time>2026-04-10T12:13:52Z</time></trkpt><trkpt lat="39.406761465987906" lon="8.537364767419442"><ele>339.0</ele><time>2026-04-10T12:13:53Z</time></trkpt><trkpt lat="39.40679626708609" lon="8.537209464011159"><ele>337.1666666666667</ele><time>2026-04-10T12:13:55Z</time></trkpt><trkpt lat="39.40681604399554" lon="8.537048467014731"><ele>335.3333333333333</ele><time>2026-04-10T12:13:57Z</time></trkpt><trkpt lat="39.40683496768996" lon="8.536962533579262"><ele>333.5</ele><time>2026-04-10T12:13:58Z</time></trkpt><trkpt lat="39.40683796984742" lon="8.536871300725053"><ele>331.66666666666663</ele><time>2026-04-10T12:13:59Z</time></trkpt><trkpt lat="39.4068325743407" lon="8.536775377423083"><ele>329.8333333333333</ele><time>2026-04-10T12:14:00Z</time></trkpt><trkpt lat="39.4067987771236" lon="8.53669646698038"><ele>328.0</ele><time>2026-04-10T12:14:01Z</time></trkpt><trkpt lat="39.40677798493175" lon="8.536589969269029"><ele>328.0</ele><time>2026-04-10T12:14:02Z</time></trkpt><trkpt lat="39.40673332745916" lon="8.536498828476464"><ele>328.0</ele><time>2026-04-10T12:14:03Z</time></trkpt><trkpt lat="39.40668724413588" lon="8.53644308317387"><ele>328.0</ele><time>2026-04-10T12:14:04Z</time></trkpt><trkpt lat="39.406601864355004" lon="8.536308834286428"><ele>328.0</ele><time>2026-04-10T12:14:06Z</time></trkpt><trkpt lat="39.40651891539691" lon="8.53621508934261"><ele>328.0</ele><time>2026-04-10T12:14:08Z</time></trkpt><trkpt lat="39.40641415693516" lon="8.536186891509105"><ele>326.59999999999997</ele><time>2026-04-10T12:14:10Z</time></trkpt><trkpt lat="39.406324192336925" lon="8.536190799832802"><ele>325.2</ele><time>2026-04-10T12:14:12Z</time></trkpt><trkpt lat="39.4062588721326" lon="8.53620259628454"><ele>323.8</ele><time>2026-04-10T12:14:13Z</time></trkpt><trkpt lat="39.40613828180366" lon="8.536193660216359"><ele>322.4</ele><time>2026-04-10T12:14:15Z</time></trkpt><trkpt lat="39.40604765243688" lon="8.536121706281406"><ele>321.0</ele><time>2026-04-10T12:14:17Z</time></trkpt><trkpt lat="39.40600178803821" lon="8.535966691290565"><ele>321.0</ele><time>2026-04-10T12:14:19Z</time></trkpt><trkpt lat="39.40598126951052" lon="8.535885081471582"><ele>321.0</ele><time>2026-04-10T12:14:20Z</time></trkpt><trkpt lat="39.40596208029699" lon="8.535804927683653"><ele>321.0</ele><time>2026-04-10T12:14:21Z</time></trkpt><trkpt lat="39.405985721609426" lon="8.53567041209459"><ele>321.0</ele><time>2026-04-10T12:14:23Z</time></trkpt><trkpt lat="39.40601109175449" lon="8.535514065745133"><ele>321.0</ele><time>2026-04-10T12:14:25Z</time></trkpt><trkpt lat="39.40602485228457" lon="8.535372147977792"><ele>319.0</ele><time>2026-04-10T12:14:27Z</time></trkpt><trkpt lat="39.40600428241623" lon="8.53519448412459"><ele>317.0</ele><time>2026-04-10T12:14:29Z</time></trkpt><trkpt lat="39.40596443540365" lon="8.535127100942578"><ele>315.0</ele><time>2026-04-10T12:14:30Z</time></trkpt><trkpt lat="39.40598404229207" lon="8.534996204811318"><ele>313.0</ele><time>2026-04-10T12:14:32Z</time></trkpt><trkpt lat="39.40606330378987" lon="8.534871353452383"><ele>311.0</ele><time>2026-04-10T12:14:34Z</time></trkpt><trkpt lat="39.406124261787696" lon="8.534810828338534"><ele>311.0</ele><time>2026-04-10T12:14:35Z</time></trkpt><trkpt lat="39.40618152322311" lon="8.534751359655445"><ele>311.0</ele><time>2026-04-10T12:14:36Z</time></trkpt><trkpt lat="39.40625510340559" lon="8.534632703865666"><ele>311.0</ele><time>2026-04-10T12:14:38Z</time></trkpt><trkpt lat="39.40624106337689" lon="8.534487672652611"><ele>311.0</ele><time>2026-04-10T12:14:40Z</time></trkpt><trkpt lat="39.40621259573574" lon="8.534382546914095"><ele>311.0</ele><time>2026-04-10T12:14:42Z</time></trkpt><trkpt lat="39.40617616523891" lon="8.534309015541343"><ele>309.33333333333337</ele><time>2026-04-10T12:14:43Z</time></trkpt><trkpt lat="39.40613919408138" lon="8.534234895106282"><ele>307.6666666666667</ele><time>2026-04-10T12:14:44Z</time></trkpt><trkpt lat="39.40609770628834" lon="8.534116717777266"><ele>306.0</ele><time>2026-04-10T12:14:46Z</time></trkpt><trkpt lat="39.40609379278876" lon="8.534017491396197"><ele>304.3333333333333</ele><time>2026-04-10T12:14:47Z</time></trkpt><trkpt lat="39.406052809207175" lon="8.533914833557972"><ele>302.66666666666663</ele><time>2026-04-10T12:14:49Z</time></trkpt><trkpt lat="39.4060230200758" lon="8.533819648300248"><ele>301.0</ele><time>2026-04-10T12:14:51Z</time></trkpt><trkpt lat="39.40605907036351" lon="8.533656198360866"><ele>300.5</ele><time>2026-04-10T12:14:53Z</time></trkpt><trkpt lat="39.4061016493899" lon="8.533582751458109"><ele>300.0</ele><time>2026-04-10T12:14:54Z</time></trkpt><trkpt lat="39.40613917109926" lon="8.533510719497672"><ele>299.5</ele><time>2026-04-10T12:14:55Z</time></trkpt><trkpt lat="39.406172405516514" lon="8.533427745814718"><ele>299.0</ele><time>2026-04-10T12:14:56Z</time></trkpt><trkpt lat="39.406222122454686" lon="8.533339956943234"><ele>298.5</ele><time>2026-04-10T12:14:57Z</time></trkpt><trkpt lat="39.406267399056844" lon="8.533272974603141"><ele>298.0</ele><time>2026-04-10T12:14:58Z</time></trkpt><trkpt lat="39.406347378721826" lon="8.533175757923015"><ele>295.16666666666663</ele><time>2026-04-10T12:15:00Z</time></trkpt><trkpt lat="39.406400743188975" lon="8.533122562585207"><ele>292.3333333333333</ele><time>2026-04-10T12:15:01Z</time></trkpt><trkpt lat="39.4064420391003" lon="8.533056170874966"><ele>289.5</ele><time>2026-04-10T12:15:02Z</time></trkpt><trkpt lat="39.406548886645375" lon="8.532946255214778"><ele>286.6666666666667</ele><time>2026-04-10T12:15:04Z</time></trkpt><trkpt lat="39.40659969166492" lon="8.532886243092442"><ele>283.83333333333337</ele><time>2026-04-10T12:15:05Z</time></trkpt><trkpt lat="39.406637428800444" lon="8.532812748662021"><ele>281.0</ele><time>2026-04-10T12:15:06Z</time></trkpt><trkpt lat="39.40667657690872" lon="8.532727384683326"><ele>280.33333333333337</ele><time>2026-04-10T12:15:07Z</time></trkpt><trkpt lat="39.40670394877533" lon="8.532651219528194"><ele>279.6666666666667</ele><time>2026-04-10T12:15:08Z</time></trkpt><trkpt lat="39.4067411534229" lon="8.532546684505535"><ele>279.0</ele><time>2026-04-10T12:15:10Z</time></trkpt><trkpt lat="39.40679467856282" lon="8.532482752055767"><ele>278.3333333333333</ele><time>2026-04-10T12:15:13Z</time></trkpt><trkpt lat="39.40687230783076" lon="8.532464608729809"><ele>277.66666666666663</ele><time>2026-04-10T12:15:15Z</time></trkpt><trkpt lat="39.40697253369835" lon="8.532418498792772"><ele>277.0</ele><time>2026-04-10T12:15:17Z</time></trkpt><trkpt lat="39.407031061686666" lon="8.532388400036114"><ele>277.0</ele><time>2026-04-10T12:15:18Z</time></trkpt><trkpt lat="39.40710721716042" lon="8.532369446166378"><ele>277.0</ele><time>2026-04-10T12:15:19Z</time></trkpt><trkpt lat="39.40717419933226" lon="8.532360472145546"><ele>277.0</ele><time>2026-04-10T12:15:20Z</time></trkpt><trkpt lat="39.407242577447576" lon="8.53234618793133"><ele>277.0</ele><time>2026-04-10T12:15:21Z</time></trkpt><trkpt lat="39.407308632998436" lon="8.532332601029424"><ele>277.0</ele><time>2026-04-10T12:15:22Z</time></trkpt><trkpt lat="39.40744299439571" lon="8.532319120488001"><ele>277.0</ele><time>2026-04-10T12:15:24Z</time></trkpt><trkpt lat="39.407532000041336" lon="8.532336295271078"><ele>274.0</ele><time>2026-04-10T12:15:25Z</time></trkpt><trkpt lat="39.407627189027735" lon="8.532340014844223"><ele>271.0</ele><time>2026-04-10T12:15:26Z</time></trkpt><trkpt lat="39.40770794874848" lon="8.532345150837811"><ele>268.0</ele><time>2026-04-10T12:15:27Z</time></trkpt><trkpt lat="39.407781920632246" lon="8.532351436141298"><ele>265.0</ele><time>2026-04-10T12:15:28Z</time></trkpt><trkpt lat="39.40786318246304" lon="8.5323646079339"><ele>262.0</ele><time>2026-04-10T12:15:29Z</time></trkpt><trkpt lat="39.40794826861857" lon="8.532382199986658"><ele>259.0</ele><time>2026-04-10T12:15:30Z</time></trkpt><trkpt lat="39.40803124963907" lon="8.532395909876607"><ele>258.16666666666663</ele><time>2026-04-10T12:15:31Z</time></trkpt><trkpt lat="39.40811043506586" lon="8.532403279834778"><ele>257.3333333333333</ele><time>2026-04-10T12:15:32Z</time></trkpt><trkpt lat="39.40818574315905" lon="8.532398380314316"><ele>256.5</ele><time>2026-04-10T12:15:33Z</time></trkpt><trkpt lat="39.408253290095345" lon="8.532379405155146"><ele>255.66666666666669</ele><time>2026-04-10T12:15:34Z</time></trkpt><trkpt lat="39.408357514332145" lon="8.532302786217326"><ele>254.83333333333334</ele><time>2026-04-10T12:15:36Z</time></trkpt><trkpt lat="39.40841283001689" lon="8.532216086988646"><ele>254.0</ele><time>2026-04-10T12:15:37Z</time></trkpt><trkpt lat="39.40846335952014" lon="8.532109573694786"><ele>252.85714285714286</ele><time>2026-04-10T12:15:38Z</time></trkpt><trkpt lat="39.40850518170231" lon="8.532032923452538"><ele>251.71428571428572</ele><time>2026-04-10T12:15:39Z</time></trkpt><trkpt lat="39.40853604260549" lon="8.531951456009647"><ele>250.57142857142858</ele><time>2026-04-10T12:15:40Z</time></trkpt><trkpt lat="39.40854934642175" lon="8.531871727405376"><ele>249.42857142857144</ele><time>2026-04-10T12:15:41Z</time></trkpt><trkpt lat="39.40854361252901" lon="8.53178766952033"><ele>248.28571428571428</ele><time>2026-04-10T12:15:42Z</time></trkpt><trkpt lat="39.4085223714033" lon="8.531710842877011"><ele>247.14285714285717</ele><time>2026-04-10T12:15:43Z</time></trkpt><trkpt lat="39.408483449797345" lon="8.53164621221188"><ele>246.00000000000003</ele><time>2026-04-10T12:15:44Z</time></trkpt><trkpt lat="39.40842641537199" lon="8.531603042334929"><ele>246.0</ele><time>2026-04-10T12:15:45Z</time></trkpt><trkpt lat="39.40829432610906" lon="8.531572301706742"><ele>246.00000000000003</ele><time>2026-04-10T12:15:47Z</time></trkpt><trkpt lat="39.40823289615267" lon="8.531541827896923"><ele>246.00000000000003</ele><time>2026-04-10T12:15:48Z</time></trkpt><trkpt lat="39.408141315266235" lon="8.531447153992314"><ele>246.0</ele><time>2026-04-10T12:15:50Z</time></trkpt><trkpt lat="39.40811007769559" lon="8.531373414059356"><ele>246.0</ele><time>2026-04-10T12:15:51Z</time></trkpt><trkpt lat="39.40810240741849" lon="8.531281003066383"><ele>244.83333333333334</ele><time>2026-04-10T12:15:52Z</time></trkpt><trkpt lat="39.408117646049824" lon="8.531196378178363"><ele>243.66666666666669</ele><time>2026-04-10T12:15:53Z</time></trkpt><trkpt lat="39.408142886432806" lon="8.531112611146485"><ele>242.5</ele><time>2026-04-10T12:15:54Z</time></trkpt><trkpt lat="39.40816665428374" lon="8.531015457714453"><ele>241.33333333333334</ele><time>2026-04-10T12:15:55Z</time></trkpt><trkpt lat="39.408184353211624" lon="8.530914551971824"><ele>240.16666666666669</ele><time>2026-04-10T12:15:56Z</time></trkpt><trkpt lat="39.408217972157885" lon="8.530802637687925"><ele>239.0</ele><time>2026-04-10T12:15:57Z</time></trkpt><trkpt lat="39.40826161091575" lon="8.530710653932047"><ele>239.00000000000003</ele><time>2026-04-10T12:15:58Z</time></trkpt><trkpt lat="39.408313652101704" lon="8.530601986847186"><ele>239.0</ele><time>2026-04-10T12:15:59Z</time></trkpt><trkpt lat="39.408368531558374" lon="8.530509412540049"><ele>239.0</ele><time>2026-04-10T12:16:00Z</time></trkpt><trkpt lat="39.40838989454937" lon="8.53040397855343"><ele>239.0</ele><time>2026-04-10T12:16:01Z</time></trkpt><trkpt lat="39.408424457244024" lon="8.530315396422047"><ele>239.00000000000003</ele><time>2026-04-10T12:16:02Z</time></trkpt><trkpt lat="39.40848517944195" lon="8.53021761571915"><ele>239.0</ele><time>2026-04-10T12:16:03Z</time></trkpt><trkpt lat="39.40852548683652" lon="8.53013438427106"><ele>239.00000000000003</ele><time>2026-04-10T12:16:04Z</time></trkpt><trkpt lat="39.40856993868903" lon="8.530065502763913"><ele>239.0</ele><time>2026-04-10T12:16:05Z</time></trkpt><trkpt lat="39.408627157789994" lon="8.529992968238815"><ele>239.0</ele><time>2026-04-10T12:16:06Z</time></trkpt><trkpt lat="39.40868982544541" lon="8.529921872287282"><ele>239.0</ele><time>2026-04-10T12:16:07Z</time></trkpt><trkpt lat="39.40873633227259" lon="8.529850389851747"><ele>239.00000000000003</ele><time>2026-04-10T12:16:08Z</time></trkpt><trkpt lat="39.40879660501849" lon="8.529779767421813"><ele>239.0</ele><time>2026-04-10T12:16:09Z</time></trkpt><trkpt lat="39.408830991041455" lon="8.52968884641738"><ele>239.0</ele><time>2026-04-10T12:16:10Z</time></trkpt><trkpt lat="39.40886716891557" lon="8.529579206299143"><ele>238.99999999999997</ele><time>2026-04-10T12:16:11Z</time></trkpt><trkpt lat="39.408867174583136" lon="8.529438164823993"><ele>238.99999999999997</ele><time>2026-04-10T12:16:12Z</time></trkpt><trkpt lat="39.408887479527515" lon="8.52926984093573"><ele>239.0</ele><time>2026-04-10T12:16:13Z</time></trkpt><trkpt lat="39.40889491533307" lon="8.529142244182484"><ele>239.0</ele><time>2026-04-10T12:16:14Z</time></trkpt><trkpt lat="39.408909080927515" lon="8.529043347972223"><ele>235.2</ele><time>2026-04-10T12:16:15Z</time></trkpt><trkpt lat="39.40898542745787" lon="8.528899582973585"><ele>231.39999999999998</ele><time>2026-04-10T12:16:17Z</time></trkpt><trkpt lat="39.40902866602457" lon="8.528836189377053"><ele>227.6</ele><time>2026-04-10T12:16:18Z</time></trkpt><trkpt lat="39.409092047314694" lon="8.52870293669556"><ele>223.8</ele><time>2026-04-10T12:16:20.001Z</time></trkpt><trkpt lat="39.40916943798031" lon="8.528587863881402"><ele>220.0</ele><time>2026-04-10T12:16:22.001Z</time></trkpt><trkpt lat="39.409249021658376" lon="8.52847784094759"><ele>218.99999999999997</ele><time>2026-04-10T12:16:24.001Z</time></trkpt><trkpt lat="39.409280057816474" lon="8.528392590143696"><ele>218.0</ele><time>2026-04-10T12:16:25.001Z</time></trkpt><trkpt lat="39.409326966960954" lon="8.52831918846387"><ele>217.0</ele><time>2026-04-10T12:16:26Z</time></trkpt><trkpt lat="39.40937736416308" lon="8.528253943039589"><ele>216.0</ele><time>2026-04-10T12:16:27Z</time></trkpt><trkpt lat="39.409434410212725" lon="8.52812000537322"><ele>214.99999999999997</ele><time>2026-04-10T12:16:29Z</time></trkpt><trkpt lat="39.409467503635874" lon="8.528043434689367"><ele>214.0</ele><time>2026-04-10T12:16:30Z</time></trkpt><trkpt lat="39.40950438954492" lon="8.52797058871142"><ele>215.66666666666666</ele><time>2026-04-10T12:16:31Z</time></trkpt><trkpt lat="39.40954712531104" lon="8.527891796943852"><ele>217.33333333333331</ele><time>2026-04-10T12:16:32Z</time></trkpt><trkpt lat="39.409578701389506" lon="8.527804445588748"><ele>219.0</ele><time>2026-04-10T12:16:33Z</time></trkpt><trkpt lat="39.40960145214485" lon="8.52768287638445"><ele>220.66666666666669</ele><time>2026-04-10T12:16:35Z</time></trkpt><trkpt lat="39.40961407947395" lon="8.52760252102464"><ele>222.33333333333334</ele><time>2026-04-10T12:16:37Z</time></trkpt><trkpt lat="39.4096010299196" lon="8.527685175074785"><ele>224.0</ele><time>2026-04-10T12:17:14Z</time></trkpt><trkpt lat="39.409574950065554" lon="8.52782716476779"><ele>222.0</ele><time>2026-04-10T12:17:16Z</time></trkpt><trkpt lat="39.409528046015815" lon="8.527953469046489"><ele>219.99999999999997</ele><time>2026-04-10T12:17:17Z</time></trkpt><trkpt lat="39.40945461554301" lon="8.528059452188767"><ele>217.99999999999997</ele><time>2026-04-10T12:17:19Z</time></trkpt><trkpt lat="39.409418935517174" lon="8.52815356561371"><ele>216.0</ele><time>2026-04-10T12:17:22Z</time></trkpt><trkpt lat="39.40950911513648" lon="8.528158405107472"><ele>214.0</ele><time>2026-04-10T12:20:23Z</time></trkpt><trkpt lat="39.40946248497209" lon="8.528055046691001"><ele>214.0</ele><time>2026-04-10T12:22:23Z</time></trkpt><trkpt lat="39.409575115230844" lon="8.528013707767213"><ele>213.99999999999997</ele><time>2026-04-10T12:22:25Z</time></trkpt><trkpt lat="39.409660541425936" lon="8.52794386160943"><ele>213.99999999999997</ele><time>2026-04-10T12:22:27Z</time></trkpt><trkpt lat="39.40972838775893" lon="8.527894983614528"><ele>214.0</ele><time>2026-04-10T12:22:29Z</time></trkpt><trkpt lat="39.40983100526422" lon="8.527880415777075"><ele>214.0</ele><time>2026-04-10T12:22:31Z</time></trkpt><trkpt lat="39.409896419968966" lon="8.527826003679246"><ele>211.83333333333331</ele><time>2026-04-10T12:22:33Z</time></trkpt><trkpt lat="39.40996278961634" lon="8.52777307256252"><ele>209.66666666666666</ele><time>2026-04-10T12:22:36Z</time></trkpt><trkpt lat="39.41000803463501" lon="8.527698158238511"><ele>207.5</ele><time>2026-04-10T12:22:39Z</time></trkpt><trkpt lat="39.41007482630207" lon="8.5276424315496"><ele>205.33333333333331</ele><time>2026-04-10T12:22:45Z</time></trkpt><trkpt lat="39.41011989106336" lon="8.52758319006"><ele>203.16666666666666</ele><time>2026-04-10T12:22:50Z</time></trkpt><trkpt lat="39.41017437834123" lon="8.52749179169925"><ele>201.0</ele><time>2026-04-10T12:22:54Z</time></trkpt><trkpt lat="39.41021096419019" lon="8.527395554821965"><ele>201.0</ele><time>2026-04-10T12:22:57Z</time></trkpt><trkpt lat="39.41023938070552" lon="8.527287695681093"><ele>201.0</ele><time>2026-04-10T12:23:00Z</time></trkpt><trkpt lat="39.41025481698748" lon="8.527206406725435"><ele>201.0</ele><time>2026-04-10T12:23:02Z</time></trkpt><trkpt lat="39.4102577641899" lon="8.527068554106672"><ele>201.0</ele><time>2026-04-10T12:23:04Z</time></trkpt><trkpt lat="39.41035068676988" lon="8.527014918971714"><ele>201.0</ele><time>2026-04-10T12:23:06Z</time></trkpt><trkpt lat="39.41046556994604" lon="8.52696510178883"><ele>200.75</ele><time>2026-04-10T12:23:08Z</time></trkpt><trkpt lat="39.41053419627028" lon="8.526935708350212"><ele>200.5</ele><time>2026-04-10T12:23:10Z</time></trkpt><trkpt lat="39.41064689470973" lon="8.526756392848817"><ele>200.25</ele><time>2026-04-10T12:23:12Z</time></trkpt><trkpt lat="39.41065877944686" lon="8.526615780575582"><ele>200.0</ele><time>2026-04-10T12:23:13Z</time></trkpt><trkpt lat="39.41066099466787" lon="8.526480952137657"><ele>200.0</ele><time>2026-04-10T12:23:14Z</time></trkpt><trkpt lat="39.41067713503656" lon="8.526364342211679"><ele>200.0</ele><time>2026-04-10T12:23:15Z</time></trkpt><trkpt lat="39.41070481692255" lon="8.526249896437893"><ele>200.0</ele><time>2026-04-10T12:23:16Z</time></trkpt><trkpt lat="39.41073304806283" lon="8.5261446824094"><ele>200.0</ele><time>2026-04-10T12:23:17Z</time></trkpt><trkpt lat="39.410767916490904" lon="8.526033178952659"><ele>200.0</ele><time>2026-04-10T12:23:18Z</time></trkpt><trkpt lat="39.41079693066496" lon="8.525892601294803"><ele>198.50000000000003</ele><time>2026-04-10T12:23:19Z</time></trkpt><trkpt lat="39.41083210032156" lon="8.525774885951437"><ele>197.0</ele><time>2026-04-10T12:23:20Z</time></trkpt><trkpt lat="39.41086354773737" lon="8.525678391101176"><ele>195.5</ele><time>2026-04-10T12:23:21Z</time></trkpt><trkpt lat="39.41087509913024" lon="8.52559145781103"><ele>194.0</ele><time>2026-04-10T12:23:22Z</time></trkpt><trkpt lat="39.41092111149289" lon="8.52546436476989"><ele>192.5</ele><time>2026-04-10T12:23:24Z</time></trkpt><trkpt lat="39.41099994027094" lon="8.52543568788661"><ele>191.0</ele><time>2026-04-10T12:23:25Z</time></trkpt><trkpt lat="39.41109803437063" lon="8.525361905063617"><ele>190.83333333333331</ele><time>2026-04-10T12:23:26Z</time></trkpt><trkpt lat="39.41118613049642" lon="8.525268473648131"><ele>190.66666666666666</ele><time>2026-04-10T12:23:27Z</time></trkpt><trkpt lat="39.4112430292558" lon="8.525231224193556"><ele>190.5</ele><time>2026-04-10T12:23:28Z</time></trkpt><trkpt lat="39.41135542388485" lon="8.525244536271803"><ele>190.33333333333334</ele><time>2026-04-10T12:23:30Z</time></trkpt><trkpt lat="39.41142960838167" lon="8.525290083574069"><ele>190.16666666666669</ele><time>2026-04-10T12:23:31Z</time></trkpt><trkpt lat="39.41149534053475" lon="8.525291713930221"><ele>190.0</ele><time>2026-04-10T12:23:32Z</time></trkpt><trkpt lat="39.41156938996532" lon="8.525213019179981"><ele>190.8</ele><time>2026-04-10T12:23:34Z</time></trkpt><trkpt lat="39.41155414463957" lon="8.52509824775307"><ele>191.6</ele><time>2026-04-10T12:23:35Z</time></trkpt><trkpt lat="39.41156549199231" lon="8.52495584590797"><ele>192.39999999999998</ele><time>2026-04-10T12:23:36Z</time></trkpt><trkpt lat="39.41158581838751" lon="8.524783917142123"><ele>193.2</ele><time>2026-04-10T12:23:37Z</time></trkpt><trkpt lat="39.4115870626912" lon="8.524653641934666"><ele>194.0</ele><time>2026-04-10T12:23:38Z</time></trkpt><trkpt lat="39.411573761034795" lon="8.524530047397931"><ele>192.2</ele><time>2026-04-10T12:23:39Z</time></trkpt><trkpt lat="39.41154768179579" lon="8.524422043757312"><ele>190.39999999999998</ele><time>2026-04-10T12:23:40Z</time></trkpt><trkpt lat="39.41150130908167" lon="8.524340690344633"><ele>188.6</ele><time>2026-04-10T12:23:41Z</time></trkpt><trkpt lat="39.41142221597306" lon="8.524286961989944"><ele>186.8</ele><time>2026-04-10T12:23:42Z</time></trkpt><trkpt lat="39.41137117625045" lon="8.524186869016722"><ele>185.0</ele><time>2026-04-10T12:23:44Z</time></trkpt><trkpt lat="39.411452961827855" lon="8.524097855949465"><ele>185.0</ele><time>2026-04-10T12:23:46Z</time></trkpt><trkpt lat="39.411530382426065" lon="8.524079056810516"><ele>185.0</ele><time>2026-04-10T12:23:47Z</time></trkpt><trkpt lat="39.41161670860151" lon="8.524050052086446"><ele>185.0</ele><time>2026-04-10T12:23:48Z</time></trkpt><trkpt lat="39.411712529839" lon="8.524029407294936"><ele>185.0</ele><time>2026-04-10T12:23:49Z</time></trkpt><trkpt lat="39.411776482523535" lon="8.523981630918918"><ele>185.0</ele><time>2026-04-10T12:23:50Z</time></trkpt><trkpt lat="39.41181965131336" lon="8.523892580980641"><ele>185.0</ele><time>2026-04-10T12:23:51Z</time></trkpt><trkpt lat="39.41186076178946" lon="8.523764988916383"><ele>183.6</ele><time>2026-04-10T12:23:52Z</time></trkpt><trkpt lat="39.411892251978664" lon="8.523633843109149"><ele>182.2</ele><time>2026-04-10T12:23:53Z</time></trkpt><trkpt lat="39.411907656027694" lon="8.523476476901013"><ele>180.8</ele><time>2026-04-10T12:23:54Z</time></trkpt><trkpt lat="39.411893237571896" lon="8.523364353346395"><ele>179.4</ele><time>2026-04-10T12:23:55Z</time></trkpt><trkpt lat="39.411866790031304" lon="8.523267821251729"><ele>178.0</ele><time>2026-04-10T12:23:56Z</time></trkpt><trkpt lat="39.41183310095255" lon="8.523181743054588"><ele>178.0</ele><time>2026-04-10T12:23:57Z</time></trkpt><trkpt lat="39.41176110752248" lon="8.523105885661465"><ele>178.0</ele><time>2026-04-10T12:23:58Z</time></trkpt><trkpt lat="39.41166416711472" lon="8.5230352191086"><ele>178.0</ele><time>2026-04-10T12:23:59Z</time></trkpt><trkpt lat="39.41158018625553" lon="8.52298097950118"><ele>178.0</ele><time>2026-04-10T12:24:00Z</time></trkpt><trkpt lat="39.41151814487958" lon="8.52291815538785"><ele>178.0</ele><time>2026-04-10T12:24:01Z</time></trkpt><trkpt lat="39.41148166518074" lon="8.522837990560372"><ele>178.0</ele><time>2026-04-10T12:24:02Z</time></trkpt><trkpt lat="39.41145149681761" lon="8.522740078653525"><ele>177.4</ele><time>2026-04-10T12:24:03Z</time></trkpt><trkpt lat="39.41145453393437" lon="8.522589653021301"><ele>176.8</ele><time>2026-04-10T12:24:04Z</time></trkpt><trkpt lat="39.4114491580775" lon="8.522429543123854"><ele>176.2</ele><time>2026-04-10T12:24:05Z</time></trkpt><trkpt lat="39.41142173618016" lon="8.522297974041217"><ele>175.6</ele><time>2026-04-10T12:24:06Z</time></trkpt><trkpt lat="39.41139947643094" lon="8.52218484582332"><ele>175.0</ele><time>2026-04-10T12:24:07Z</time></trkpt><trkpt lat="39.411379542658715" lon="8.522072479854616"><ele>172.0</ele><time>2026-04-10T12:24:08Z</time></trkpt><trkpt lat="39.41142412266327" lon="8.521944852864888"><ele>169.0</ele><time>2026-04-10T12:24:10Z</time></trkpt><trkpt lat="39.41148552481759" lon="8.52191147508029"><ele>166.0</ele><time>2026-04-10T12:24:11Z</time></trkpt><trkpt lat="39.41158684673664" lon="8.521890062348254"><ele>163.0</ele><time>2026-04-10T12:24:12Z</time></trkpt><trkpt lat="39.411715815694635" lon="8.521882018273237"><ele>160.0</ele><time>2026-04-10T12:24:13Z</time></trkpt><trkpt lat="39.411802531805954" lon="8.52188513887746"><ele>160.0</ele><time>2026-04-10T12:24:14Z</time></trkpt><trkpt lat="39.41185779196545" lon="8.521941570884794"><ele>160.0</ele><time>2026-04-10T12:24:15Z</time></trkpt><trkpt lat="39.4119923068039" lon="8.521951307062364"><ele>160.0</ele><time>2026-04-10T12:24:17Z</time></trkpt><trkpt lat="39.41204249374541" lon="8.52184473492006"><ele>160.0</ele><time>2026-04-10T12:24:18Z</time></trkpt><trkpt lat="39.41212574265738" lon="8.521800108472263"><ele>160.0</ele><time>2026-04-10T12:24:19Z</time></trkpt><trkpt lat="39.412210327707356" lon="8.521762304341987"><ele>162.25</ele><time>2026-04-10T12:24:20Z</time></trkpt><trkpt lat="39.412318023355866" lon="8.521733808620253"><ele>164.5</ele><time>2026-04-10T12:24:21Z</time></trkpt><trkpt lat="39.412404834956476" lon="8.521685896760166"><ele>166.75</ele><time>2026-04-10T12:24:22Z</time></trkpt><trkpt lat="39.41249122636496" lon="8.521578403573232"><ele>169.0</ele><time>2026-04-10T12:24:23Z</time></trkpt><trkpt lat="39.41257700679184" lon="8.52144436588261"><ele>169.0</ele><time>2026-04-10T12:24:24Z</time></trkpt><trkpt lat="39.41268126194353" lon="8.521322300548416"><ele>169.0</ele><time>2026-04-10T12:24:25Z</time></trkpt><trkpt lat="39.412796539157036" lon="8.521209263414043"><ele>169.0</ele><time>2026-04-10T12:24:26Z</time></trkpt><trkpt lat="39.41290191493683" lon="8.521097144290195"><ele>169.0</ele><time>2026-04-10T12:24:27Z</time></trkpt><trkpt lat="39.412973778376625" lon="8.520981995415807"><ele>167.0</ele><time>2026-04-10T12:24:28Z</time></trkpt><trkpt lat="39.413086317734795" lon="8.520909546709479"><ele>165.0</ele><time>2026-04-10T12:24:29Z</time></trkpt><trkpt lat="39.41319347668001" lon="8.520794164588812"><ele>163.0</ele><time>2026-04-10T12:24:30Z</time></trkpt><trkpt lat="39.413307871294556" lon="8.520676917353352"><ele>161.0</ele><time>2026-04-10T12:24:31Z</time></trkpt><trkpt lat="39.41340416533064" lon="8.520584069516008"><ele>161.0</ele><time>2026-04-10T12:24:32Z</time></trkpt><trkpt lat="39.41347284274713" lon="8.52050610232467"><ele>161.0</ele><time>2026-04-10T12:24:33Z</time></trkpt><trkpt lat="39.41353286777723" lon="8.520438806549615"><ele>161.0</ele><time>2026-04-10T12:24:34Z</time></trkpt><trkpt lat="39.413584351548394" lon="8.52038050289121"><ele>161.0</ele><time>2026-04-10T12:24:35Z</time></trkpt><trkpt lat="39.41366213138195" lon="8.520348149107077"><ele>161.0</ele><time>2026-04-10T12:24:37Z</time></trkpt><trkpt lat="39.41377992369833" lon="8.520433712666165"><ele>158.0</ele><time>2026-04-10T12:24:39Z</time></trkpt><trkpt lat="39.41385482028497" lon="8.520502526527553"><ele>155.0</ele><time>2026-04-10T12:24:40Z</time></trkpt><trkpt lat="39.41392425151212" lon="8.52058504089926"><ele>152.0</ele><time>2026-04-10T12:24:41Z</time></trkpt><trkpt lat="39.413944461796206" lon="8.520710498986373"><ele>149.0</ele><time>2026-04-10T12:24:43Z</time></trkpt><trkpt lat="39.41391173546694" lon="8.520786992646942"><ele>146.0</ele><time>2026-04-10T12:24:44Z</time></trkpt><trkpt lat="39.41389514777693" lon="8.520946235400785"><ele>146.0</ele><time>2026-04-10T12:24:45Z</time></trkpt><trkpt lat="39.41390739095667" lon="8.521096387121226"><ele>146.0</ele><time>2026-04-10T12:24:46Z</time></trkpt><trkpt lat="39.41393310168717" lon="8.521249965627453"><ele>146.0</ele><time>2026-04-10T12:24:47Z</time></trkpt><trkpt lat="39.41395094784927" lon="8.521359541259885"><ele>146.0</ele><time>2026-04-10T12:24:48Z</time></trkpt><trkpt lat="39.41398531997972" lon="8.521430957289683"><ele>146.0</ele><time>2026-04-10T12:24:49Z</time></trkpt><trkpt lat="39.41407194182849" lon="8.521477445727893"><ele>146.16666666666666</ele><time>2026-04-10T12:24:50Z</time></trkpt><trkpt lat="39.41412255519289" lon="8.5215632444692"><ele>146.33333333333331</ele><time>2026-04-10T12:24:51Z</time></trkpt><trkpt lat="39.41413916745259" lon="8.521685743678184"><ele>146.5</ele><time>2026-04-10T12:24:53Z</time></trkpt><trkpt lat="39.4140976286813" lon="8.521777118211734"><ele>146.66666666666666</ele><time>2026-04-10T12:24:54Z</time></trkpt><trkpt lat="39.414090588038235" lon="8.521897603127245"><ele>146.83333333333334</ele><time>2026-04-10T12:24:55Z</time></trkpt><trkpt lat="39.414085899484576" lon="8.521988802054803"><ele>147.0</ele><time>2026-04-10T12:24:56Z</time></trkpt><trkpt lat="39.41418053181123" lon="8.522062177920287"><ele>147.0</ele><time>2026-04-10T12:24:58Z</time></trkpt><trkpt lat="39.41423865996775" lon="8.522020939184888"><ele>147.0</ele><time>2026-04-10T12:24:59Z</time></trkpt><trkpt lat="39.41438715867122" lon="8.521966904167886"><ele>147.0</ele><time>2026-04-10T12:25:01Z</time></trkpt><trkpt lat="39.41447218074924" lon="8.521855290741906"><ele>147.0</ele><time>2026-04-10T12:25:02Z</time></trkpt><trkpt lat="39.4145349473553" lon="8.521771598230021"><ele>147.0</ele><time>2026-04-10T12:25:03Z</time></trkpt><trkpt lat="39.41459965538218" lon="8.521742112748337"><ele>144.4</ele><time>2026-04-10T12:25:04Z</time></trkpt><trkpt lat="39.414697405199085" lon="8.521770358771851"><ele>141.79999999999998</ele><time>2026-04-10T12:25:05Z</time></trkpt><trkpt lat="39.41483721175282" lon="8.52174896849823"><ele>139.2</ele><time>2026-04-10T12:25:06Z</time></trkpt><trkpt lat="39.41494968120185" lon="8.521726610588049"><ele>136.6</ele><time>2026-04-10T12:25:07Z</time></trkpt><trkpt lat="39.415037269234666" lon="8.521712328306345"><ele>134.0</ele><time>2026-04-10T12:25:08Z</time></trkpt><trkpt lat="39.415141660314696" lon="8.521730133797254"><ele>134.0</ele><time>2026-04-10T12:25:10Z</time></trkpt><trkpt lat="39.41515682589847" lon="8.521866856126055"><ele>134.0</ele><time>2026-04-10T12:25:12Z</time></trkpt><trkpt lat="39.415139175635346" lon="8.521992411064497"><ele>134.0</ele><time>2026-04-10T12:25:13Z</time></trkpt><trkpt lat="39.41514924675364" lon="8.522146840395118"><ele>134.0</ele><time>2026-04-10T12:25:14Z</time></trkpt><trkpt lat="39.41516622439615" lon="8.522287512298094"><ele>134.0</ele><time>2026-04-10T12:25:15Z</time></trkpt><trkpt lat="39.41517123719125" lon="8.522412413348757"><ele>135.5</ele><time>2026-04-10T12:25:16Z</time></trkpt><trkpt lat="39.4151662030616" lon="8.522526480671257"><ele>137.0</ele><time>2026-04-10T12:25:17Z</time></trkpt><trkpt lat="39.41515965124833" lon="8.522650914081424"><ele>138.5</ele><time>2026-04-10T12:25:18Z</time></trkpt><trkpt lat="39.4151499494712" lon="8.522780444132025"><ele>140.0</ele><time>2026-04-10T12:25:19Z</time></trkpt><trkpt lat="39.415137929431744" lon="8.522879321803952"><ele>141.5</ele><time>2026-04-10T12:25:20Z</time></trkpt><trkpt lat="39.415127909849254" lon="8.52298508104557"><ele>143.0</ele><time>2026-04-10T12:25:21Z</time></trkpt><trkpt lat="39.41513487534269" lon="8.523075223130778"><ele>143.0</ele><time>2026-04-10T12:25:22Z</time></trkpt><trkpt lat="39.41517375092859" lon="8.523213101344096"><ele>143.0</ele><time>2026-04-10T12:25:24Z</time></trkpt><trkpt lat="39.41526075480187" lon="8.523221430094397"><ele>143.0</ele><time>2026-04-10T12:25:25Z</time></trkpt><trkpt lat="39.41534905796333" lon="8.523126926074777"><ele>143.0</ele><time>2026-04-10T12:25:27Z</time></trkpt><trkpt lat="39.415344889825676" lon="8.523010229598313"><ele>143.0</ele><time>2026-04-10T12:25:28Z</time></trkpt><trkpt lat="39.41536498169262" lon="8.522861584020303"><ele>143.25</ele><time>2026-04-10T12:25:29Z</time></trkpt><trkpt lat="39.415390980388814" lon="8.522677802913384"><ele>143.5</ele><time>2026-04-10T12:25:30Z</time></trkpt><trkpt lat="39.415405284261055" lon="8.522479802066858"><ele>143.75</ele><time>2026-04-10T12:25:31Z</time></trkpt><trkpt lat="39.41539777225864" lon="8.522316462110284"><ele>144.0</ele><time>2026-04-10T12:25:32Z</time></trkpt><trkpt lat="39.41542508735933" lon="8.522176122181948"><ele>141.75</ele><time>2026-04-10T12:25:33Z</time></trkpt><trkpt lat="39.41544268998835" lon="8.522053326150443"><ele>139.5</ele><time>2026-04-10T12:25:34Z</time></trkpt><trkpt lat="39.41545303739303" lon="8.521897193989577"><ele>137.25</ele><time>2026-04-10T12:25:35Z</time></trkpt><trkpt lat="39.415500196862084" lon="8.521739784607114"><ele>135.0</ele><time>2026-04-10T12:25:36Z</time></trkpt><trkpt lat="39.41550398144769" lon="8.52158596120934"><ele>135.0</ele><time>2026-04-10T12:25:37Z</time></trkpt><trkpt lat="39.41552120310058" lon="8.52148092128952"><ele>135.0</ele><time>2026-04-10T12:25:38Z</time></trkpt><trkpt lat="39.415605656038515" lon="8.521371466000057"><ele>135.0</ele><time>2026-04-10T12:25:40Z</time></trkpt><trkpt lat="39.41569740233574" lon="8.521350150101675"><ele>135.0</ele><time>2026-04-10T12:25:41Z</time></trkpt><trkpt lat="39.415820622877625" lon="8.521305430541316"><ele>135.0</ele><time>2026-04-10T12:25:42Z</time></trkpt><trkpt lat="39.41595234710261" lon="8.521221582304568"><ele>133.25</ele><time>2026-04-10T12:25:43Z</time></trkpt><trkpt lat="39.416064161641046" lon="8.521134570234816"><ele>131.5</ele><time>2026-04-10T12:25:44Z</time></trkpt><trkpt lat="39.41615204139829" lon="8.521038582726476"><ele>129.75</ele><time>2026-04-10T12:25:45Z</time></trkpt><trkpt lat="39.416220507321434" lon="8.52091587296627"><ele>128.0</ele><time>2026-04-10T12:25:46Z</time></trkpt><trkpt lat="39.41629899757556" lon="8.520820434740294"><ele>127.80000000000001</ele><time>2026-04-10T12:25:47Z</time></trkpt><trkpt lat="39.41638678775108" lon="8.520721019535126"><ele>127.60000000000001</ele><time>2026-04-10T12:25:48Z</time></trkpt><trkpt lat="39.41647070169973" lon="8.52061837516763"><ele>127.39999999999999</ele><time>2026-04-10T12:25:49Z</time></trkpt><trkpt lat="39.41652678625088" lon="8.52051605829056"><ele>127.19999999999999</ele><time>2026-04-10T12:25:50Z</time></trkpt><trkpt lat="39.416563924208745" lon="8.52041969029109"><ele>127.0</ele><time>2026-04-10T12:25:51Z</time></trkpt><trkpt lat="39.41660799042525" lon="8.520294830717935"><ele>127.0</ele><time>2026-04-10T12:25:52Z</time></trkpt><trkpt lat="39.416652697133344" lon="8.520166367150194"><ele>126.99999999999999</ele><time>2026-04-10T12:25:53Z</time></trkpt><trkpt lat="39.41669504616626" lon="8.520041025707203"><ele>126.99999999999999</ele><time>2026-04-10T12:25:54Z</time></trkpt><trkpt lat="39.41673478438274" lon="8.51992214044361"><ele>127.0</ele><time>2026-04-10T12:25:55Z</time></trkpt><trkpt lat="39.41678282657365" lon="8.519778412098667"><ele>127.0</ele><time>2026-04-10T12:25:56Z</time></trkpt><trkpt lat="39.41682361489258" lon="8.519626275063846"><ele>127.19999999999999</ele><time>2026-04-10T12:25:57Z</time></trkpt><trkpt lat="39.416882833749675" lon="8.51951611795368"><ele>127.39999999999999</ele><time>2026-04-10T12:25:58Z</time></trkpt><trkpt lat="39.41693960176605" lon="8.519404010813185"><ele>127.60000000000001</ele><time>2026-04-10T12:25:59Z</time></trkpt><trkpt lat="39.41702203066696" lon="8.51930589695704"><ele>127.80000000000001</ele><time>2026-04-10T12:26:00Z</time></trkpt><trkpt lat="39.41712056248205" lon="8.519214920230375"><ele>128.0</ele><time>2026-04-10T12:26:01Z</time></trkpt><trkpt lat="39.41723228676115" lon="8.51911024468399"><ele>128.0</ele><time>2026-04-10T12:26:02Z</time></trkpt><trkpt lat="39.417322066719855" lon="8.519031518513883"><ele>128.0</ele><time>2026-04-10T12:26:03Z</time></trkpt><trkpt lat="39.417379523567305" lon="8.51897759907777"><ele>128.0</ele><time>2026-04-10T12:26:04Z</time></trkpt><trkpt lat="39.417474300462814" lon="8.518928693280545"><ele>128.0</ele><time>2026-04-10T12:26:06Z</time></trkpt><trkpt lat="39.417553412996604" lon="8.51899689738948"><ele>128.0</ele><time>2026-04-10T12:26:07Z</time></trkpt><trkpt lat="39.41767410323355" lon="8.5190507232927"><ele>128.0</ele><time>2026-04-10T12:26:08Z</time></trkpt><trkpt lat="39.41777221699055" lon="8.519103333174407"><ele>128.0</ele><time>2026-04-10T12:26:09Z</time></trkpt><trkpt lat="39.417844684119075" lon="8.519166748301126"><ele>128.0</ele><time>2026-04-10T12:26:10Z</time></trkpt><trkpt lat="39.41794524294257" lon="8.519191066677347"><ele>128.0</ele><time>2026-04-10T12:26:12Z</time></trkpt><trkpt lat="39.41799589581867" lon="8.519137747680443"><ele>128.0</ele><time>2026-04-10T12:26:14Z</time></trkpt><trkpt lat="39.41796005805049" lon="8.519000699592784"><ele>127.99999999999999</ele><time>2026-04-10T12:26:16Z</time></trkpt><trkpt lat="39.41796729457665" lon="8.518916757615115"><ele>128.0</ele><time>2026-04-10T12:26:18Z</time></trkpt><trkpt lat="39.41806030969337" lon="8.518906612063478"><ele>128.0</ele><time>2026-04-10T12:26:20Z</time></trkpt><trkpt lat="39.41811542810977" lon="8.518981144746984"><ele>128.0</ele><time>2026-04-10T12:26:21Z</time></trkpt><trkpt lat="39.41820502934957" lon="8.51899555648318"><ele>127.99999999999999</ele><time>2026-04-10T12:26:22Z</time></trkpt><trkpt lat="39.41830679852324" lon="8.518960641629425"><ele>128.0</ele><time>2026-04-10T12:26:24Z</time></trkpt><trkpt lat="39.41832108644211" lon="8.518820811350814"><ele>129.33333333333331</ele><time>2026-04-10T12:26:26Z</time></trkpt><trkpt lat="39.41829981811709" lon="8.518726755992963"><ele>130.66666666666666</ele><time>2026-04-10T12:26:27Z</time></trkpt><trkpt lat="39.41829928777062" lon="8.518642148662025"><ele>132.0</ele><time>2026-04-10T12:26:28Z</time></trkpt><trkpt lat="39.41835125653005" lon="8.51858425380418"><ele>133.33333333333334</ele><time>2026-04-10T12:26:29Z</time></trkpt><trkpt lat="39.418373597503646" lon="8.518503534569449"><ele>134.66666666666669</ele><time>2026-04-10T12:26:30Z</time></trkpt><trkpt lat="39.41839046293773" lon="8.518403866123114"><ele>136.0</ele><time>2026-04-10T12:26:31Z</time></trkpt><trkpt lat="39.418382233986115" lon="8.518279201895053"><ele>136.0</ele><time>2026-04-10T12:26:32Z</time></trkpt><trkpt lat="39.418368451268236" lon="8.51812896558513"><ele>136.0</ele><time>2026-04-10T12:26:33Z</time></trkpt><trkpt lat="39.41834037299513" lon="8.517989574744549"><ele>136.0</ele><time>2026-04-10T12:26:34Z</time></trkpt><trkpt lat="39.418319630735176" lon="8.517884945817064"><ele>136.0</ele><time>2026-04-10T12:26:35Z</time></trkpt><trkpt lat="39.418319478823626" lon="8.517795149943616"><ele>136.0</ele><time>2026-04-10T12:26:36Z</time></trkpt><trkpt lat="39.418342444183054" lon="8.517710067854757"><ele>136.0</ele><time>2026-04-10T12:26:37Z</time></trkpt><trkpt lat="39.418372473767384" lon="8.517633229624339"><ele>136.0</ele><time>2026-04-10T12:26:38Z</time></trkpt><trkpt lat="39.418429763079196" lon="8.517563148524609"><ele>136.0</ele><time>2026-04-10T12:26:39Z</time></trkpt><trkpt lat="39.41849093476025" lon="8.517489952319178"><ele>136.0</ele><time>2026-04-10T12:26:40Z</time></trkpt><trkpt lat="39.41854691854637" lon="8.517412439840385"><ele>136.0</ele><time>2026-04-10T12:26:41Z</time></trkpt><trkpt lat="39.41859963910105" lon="8.517353602529791"><ele>136.0</ele><time>2026-04-10T12:26:42Z</time></trkpt><trkpt lat="39.418707293569774" lon="8.517270137925388"><ele>136.0</ele><time>2026-04-10T12:26:44Z</time></trkpt><trkpt lat="39.41877116207854" lon="8.517248851419826"><ele>136.0</ele><time>2026-04-10T12:26:45Z</time></trkpt><trkpt lat="39.41885645062823" lon="8.517230217740751"><ele>136.0</ele><time>2026-04-10T12:26:47Z</time></trkpt><trkpt lat="39.418947841545744" lon="8.517210544601854"><ele>136.0</ele><time>2026-04-10T12:27:40Z</time></trkpt><trkpt lat="39.41897620758775" lon="8.517111905979906"><ele>136.0</ele><time>2026-04-10T12:27:42Z</time></trkpt><trkpt lat="39.41897473311492" lon="8.516988496722476"><ele>136.0</ele><time>2026-04-10T12:27:44Z</time></trkpt><trkpt lat="39.41895587627555" lon="8.516847569486224"><ele>136.5</ele><time>2026-04-10T12:27:47Z</time></trkpt><trkpt lat="39.41896457713548" lon="8.51675654654391"><ele>137.0</ele><time>2026-04-10T12:27:48Z</time></trkpt><trkpt lat="39.418975674000436" lon="8.516648714899997"><ele>137.5</ele><time>2026-04-10T12:27:49Z</time></trkpt><trkpt lat="39.41899499813632" lon="8.51654899263596"><ele>138.0</ele><time>2026-04-10T12:27:50Z</time></trkpt><trkpt lat="39.41903641662864" lon="8.51645406704866"><ele>138.5</ele><time>2026-04-10T12:27:51Z</time></trkpt><trkpt lat="39.41907593948323" lon="8.516376283900815"><ele>139.0</ele><time>2026-04-10T12:27:52Z</time></trkpt><trkpt lat="39.41914411819498" lon="8.5163089754357"><ele>138.6</ele><time>2026-04-10T12:27:53Z</time></trkpt><trkpt lat="39.4191797903922" lon="8.516228755917066"><ele>138.2</ele><time>2026-04-10T12:27:54Z</time></trkpt><trkpt lat="39.419211038849134" lon="8.516081659697159"><ele>137.79999999999998</ele><time>2026-04-10T12:27:56Z</time></trkpt><trkpt lat="39.419213433965865" lon="8.515986347988415"><ele>137.4</ele><time>2026-04-10T12:27:57Z</time></trkpt><trkpt lat="39.41920294785961" lon="8.51589626915044"><ele>137.0</ele><time>2026-04-10T12:27:58Z</time></trkpt><trkpt lat="39.41920651894464" lon="8.515722265086026"><ele>137.0</ele><time>2026-04-10T12:28:00Z</time></trkpt><trkpt lat="39.419205262782405" lon="8.515609228641967"><ele>137.0</ele><time>2026-04-10T12:28:01Z</time></trkpt><trkpt lat="39.41920526277967" lon="8.515502988642432"><ele>137.0</ele><time>2026-04-10T12:28:02Z</time></trkpt><trkpt lat="39.41921733191001" lon="8.515338569266424"><ele>137.0</ele><time>2026-04-10T12:28:04Z</time></trkpt><trkpt lat="39.41928189703848" lon="8.515203522509154"><ele>137.0</ele><time>2026-04-10T12:28:06Z</time></trkpt><trkpt lat="39.41935721705119" lon="8.515073605087919"><ele>135.2</ele><time>2026-04-10T12:28:08Z</time></trkpt><trkpt lat="39.419423525711395" lon="8.514952790473469"><ele>133.39999999999998</ele><time>2026-04-10T12:28:10Z</time></trkpt><trkpt lat="39.41947001842525" lon="8.514872541125367"><ele>131.60000000000002</ele><time>2026-04-10T12:28:11Z</time></trkpt><trkpt lat="39.41953146440927" lon="8.514773298727055"><ele>129.8</ele><time>2026-04-10T12:28:12Z</time></trkpt><trkpt lat="39.419577638852374" lon="8.514685501555446"><ele>128.0</ele><time>2026-04-10T12:28:13Z</time></trkpt><trkpt lat="39.41964152549882" lon="8.514566618268862"><ele>127.83333333333333</ele><time>2026-04-10T12:28:14Z</time></trkpt><trkpt lat="39.41971086334811" lon="8.51446863492913"><ele>127.66666666666666</ele><time>2026-04-10T12:28:15Z</time></trkpt><trkpt lat="39.41975777960195" lon="8.514385395980442"><ele>127.5</ele><time>2026-04-10T12:28:16Z</time></trkpt><trkpt lat="39.41980710213161" lon="8.514304957522334"><ele>127.33333333333334</ele><time>2026-04-10T12:28:17Z</time></trkpt><trkpt lat="39.419838765559916" lon="8.514220514001844"><ele>127.16666666666667</ele><time>2026-04-10T12:28:18Z</time></trkpt><trkpt lat="39.41989094002363" lon="8.514141844421623"><ele>127.0</ele><time>2026-04-10T12:28:19Z</time></trkpt><trkpt lat="39.41994091356878" lon="8.514045120167884"><ele>127.0</ele><time>2026-04-10T12:28:20Z</time></trkpt><trkpt lat="39.41999181110376" lon="8.513943102091671"><ele>126.99999999999999</ele><time>2026-04-10T12:28:21Z</time></trkpt><trkpt lat="39.42008853915926" lon="8.513844874895554"><ele>126.99999999999999</ele><time>2026-04-10T12:28:23Z</time></trkpt><trkpt lat="39.42019408543352" lon="8.513782164627742"><ele>127.0</ele><time>2026-04-10T12:28:25Z</time></trkpt><trkpt lat="39.420251445359945" lon="8.513745222509348"><ele>127.0</ele><time>2026-04-10T12:28:26Z</time></trkpt><trkpt lat="39.420317631816104" lon="8.513704070024248"><ele>123.39999999999999</ele><time>2026-04-10T12:28:27Z</time></trkpt><trkpt lat="39.42039256401429" lon="8.513665994273447"><ele>119.79999999999998</ele><time>2026-04-10T12:28:28Z</time></trkpt><trkpt lat="39.42048384341095" lon="8.513617356359555"><ele>116.2</ele><time>2026-04-10T12:28:29Z</time></trkpt><trkpt lat="39.42056555769181" lon="8.51356178338036"><ele>112.6</ele><time>2026-04-10T12:28:30Z</time></trkpt><trkpt lat="39.42065372550036" lon="8.513510783720088"><ele>109.0</ele><time>2026-04-10T12:28:31Z</time></trkpt><trkpt lat="39.420743318643666" lon="8.513491155633776"><ele>108.6</ele><time>2026-04-10T12:28:32Z</time></trkpt><trkpt lat="39.42083988912024" lon="8.513458156964916"><ele>108.2</ele><time>2026-04-10T12:28:33Z</time></trkpt><trkpt lat="39.42093370617448" lon="8.51342215061452"><ele>107.79999999999998</ele><time>2026-04-10T12:28:34Z</time></trkpt><trkpt lat="39.42101411349349" lon="8.513387814845347"><ele>107.39999999999999</ele><time>2026-04-10T12:28:35Z</time></trkpt><trkpt lat="39.42108955808985" lon="8.513354986897275"><ele>107.0</ele><time>2026-04-10T12:28:36Z</time></trkpt><trkpt lat="39.421171790453464" lon="8.513313742732667"><ele>106.99999999999999</ele><time>2026-04-10T12:28:37Z</time></trkpt><trkpt lat="39.421260616596435" lon="8.513243434926073"><ele>107.0</ele><time>2026-04-10T12:28:38Z</time></trkpt><trkpt lat="39.42133772427691" lon="8.513187523365772"><ele>107.0</ele><time>2026-04-10T12:28:39Z</time></trkpt><trkpt lat="39.42141483162288" lon="8.51314756527576"><ele>107.0</ele><time>2026-04-10T12:28:40Z</time></trkpt><trkpt lat="39.42148115488682" lon="8.513097599637693"><ele>106.99999999999999</ele><time>2026-04-10T12:28:41Z</time></trkpt><trkpt lat="39.421556225736154" lon="8.513052628808227"><ele>107.0</ele><time>2026-04-10T12:28:42Z</time></trkpt><trkpt lat="39.42162711197866" lon="8.513018161505473"><ele>105.83333333333333</ele><time>2026-04-10T12:28:43Z</time></trkpt><trkpt lat="39.421685694614" lon="8.512984183848156"><ele>104.66666666666666</ele><time>2026-04-10T12:28:44Z</time></trkpt><trkpt lat="39.4217952725734" lon="8.51303206336662"><ele>103.5</ele><time>2026-04-10T12:28:46Z</time></trkpt><trkpt lat="39.42181737486052" lon="8.51311214295622"><ele>102.33333333333334</ele><time>2026-04-10T12:28:47Z</time></trkpt><trkpt lat="39.42184283972841" lon="8.513197346836192"><ele>101.16666666666667</ele><time>2026-04-10T12:28:48Z</time></trkpt><trkpt lat="39.42187318745075" lon="8.513292310793792"><ele>100.0</ele><time>2026-04-10T12:28:49Z</time></trkpt><trkpt lat="39.42192037424552" lon="8.513466960182415"><ele>100.0</ele><time>2026-04-10T12:28:51Z</time></trkpt><trkpt lat="39.4219525115849" lon="8.513539186166161"><ele>100.0</ele><time>2026-04-10T12:28:52Z</time></trkpt><trkpt lat="39.42203751291304" lon="8.513604648505572"><ele>100.0</ele><time>2026-04-10T12:28:54Z</time></trkpt><trkpt lat="39.42212173019615" lon="8.513651703160791"><ele>100.0</ele><time>2026-04-10T12:28:56Z</time></trkpt><trkpt lat="39.42221606604359" lon="8.513692383005314"><ele>100.0</ele><time>2026-04-10T12:28:58Z</time></trkpt><trkpt lat="39.42232382879651" lon="8.513621260273627"><ele>99.0</ele><time>2026-04-10T12:29:00Z</time></trkpt><trkpt lat="39.42229980203403" lon="8.513726763562222"><ele>98.0</ele><time>2026-04-10T12:30:19Z</time></trkpt><trkpt lat="39.42235162991056" lon="8.51360111437615"><ele>97.0</ele><time>2026-04-10T12:36:04Z</time></trkpt><trkpt lat="39.4222885021683" lon="8.51372212403317"><ele>96.0</ele><time>2026-04-10T12:36:41Z</time></trkpt><trkpt lat="39.42237346603968" lon="8.513608901796168"><ele>95.0</ele><time>2026-04-10T12:49:37.001Z</time></trkpt><trkpt lat="39.42246496407501" lon="8.513567496055005"><ele>95.0</ele><time>2026-04-10T12:49:39.001Z</time></trkpt><trkpt lat="39.42256635858437" lon="8.513500067538224"><ele>95.0</ele><time>2026-04-10T12:49:41.001Z</time></trkpt><trkpt lat="39.422627525681285" lon="8.513462886733024"><ele>95.0</ele><time>2026-04-10T12:49:42.001Z</time></trkpt><trkpt lat="39.422686448477734" lon="8.513416868469028"><ele>95.0</ele><time>2026-04-10T12:49:43.001Z</time></trkpt><trkpt lat="39.42274494768841" lon="8.51336355180692"><ele>95.0</ele><time>2026-04-10T12:49:44.001Z</time></trkpt><trkpt lat="39.422804917967326" lon="8.513320541535434"><ele>95.0</ele><time>2026-04-10T12:49:45.001Z</time></trkpt><trkpt lat="39.422858912578924" lon="8.513254072782711"><ele>95.0</ele><time>2026-04-10T12:49:46.001Z</time></trkpt><trkpt lat="39.42290653867115" lon="8.51315608673289"><ele>95.0</ele><time>2026-04-10T12:49:47.002Z</time></trkpt><trkpt lat="39.42294447586045" lon="8.513060254616247"><ele>95.0</ele><time>2026-04-10T12:49:48.002Z</time></trkpt><trkpt lat="39.422978897227395" lon="8.512952553541904"><ele>95.0</ele><time>2026-04-10T12:49:49.002Z</time></trkpt><trkpt lat="39.42301567002591" lon="8.512868463607859"><ele>95.0</ele><time>2026-04-10T12:49:50.002Z</time></trkpt><trkpt lat="39.42306555063651" lon="8.512781735783793"><ele>95.0</ele><time>2026-04-10T12:49:51.002Z</time></trkpt><trkpt lat="39.42312415246592" lon="8.512697950310486"><ele>95.6</ele><time>2026-04-10T12:49:52.002Z</time></trkpt><trkpt lat="39.4231867812383" lon="8.512603984019796"><ele>96.2</ele><time>2026-04-10T12:49:53.002Z</time></trkpt><trkpt lat="39.42324959589085" lon="8.512509475976646"><ele>96.80000000000001</ele><time>2026-04-10T12:49:54.002Z</time></trkpt><trkpt lat="39.42330571066524" lon="8.512415413609448"><ele>97.4</ele><time>2026-04-10T12:49:55.002Z</time></trkpt><trkpt lat="39.42334791948897" lon="8.512313159752086"><ele>98.0</ele><time>2026-04-10T12:49:56.002Z</time></trkpt><trkpt lat="39.423397535712105" lon="8.512208831624202"><ele>98.0</ele><time>2026-04-10T12:49:57.002Z</time></trkpt><trkpt lat="39.42344976673512" lon="8.51210888552316"><ele>98.0</ele><time>2026-04-10T12:49:58.002Z</time></trkpt><trkpt lat="39.423513566683596" lon="8.512017702613655"><ele>98.0</ele><time>2026-04-10T12:49:59.002Z</time></trkpt><trkpt lat="39.42357217115755" lon="8.51195520728581"><ele>98.0</ele><time>2026-04-10T12:50:00.002Z</time></trkpt><trkpt lat="39.42364500764892" lon="8.511961944177507"><ele>98.0</ele><time>2026-04-10T12:50:01.002Z</time></trkpt><trkpt lat="39.423774202611995" lon="8.511978889698854"><ele>97.0</ele><time>2026-04-10T12:50:03Z</time></trkpt><trkpt lat="39.423871891138" lon="8.511976584188327"><ele>96.0</ele><time>2026-04-10T12:50:04Z</time></trkpt><trkpt lat="39.42398662916524" lon="8.51196186406146"><ele>95.0</ele><time>2026-04-10T12:50:05Z</time></trkpt><trkpt lat="39.4240804348549" lon="8.51195964615307"><ele>94.0</ele><time>2026-04-10T12:50:06Z</time></trkpt><trkpt lat="39.42416292314172" lon="8.51192823371749"><ele>93.0</ele><time>2026-04-10T12:50:07Z</time></trkpt><trkpt lat="39.42425468166603" lon="8.511892985707108"><ele>93.0</ele><time>2026-04-10T12:50:08Z</time></trkpt><trkpt lat="39.42433780108523" lon="8.51180236508616"><ele>93.0</ele><time>2026-04-10T12:50:09Z</time></trkpt><trkpt lat="39.42438159003137" lon="8.511695944662993"><ele>93.0</ele><time>2026-04-10T12:50:10Z</time></trkpt><trkpt lat="39.424422590250295" lon="8.511584540058692"><ele>93.0</ele><time>2026-04-10T12:50:11Z</time></trkpt><trkpt lat="39.42444302187161" lon="8.511452627401683"><ele>93.0</ele><time>2026-04-10T12:50:12Z</time></trkpt><trkpt lat="39.424456697250115" lon="8.511319181473574"><ele>92.60000000000001</ele><time>2026-04-10T12:50:13Z</time></trkpt><trkpt lat="39.424452105394714" lon="8.511170272407515"><ele>92.2</ele><time>2026-04-10T12:50:14Z</time></trkpt><trkpt lat="39.424441923702894" lon="8.511041794884687"><ele>91.8</ele><time>2026-04-10T12:50:15Z</time></trkpt><trkpt lat="39.424436288845556" lon="8.510927294131463"><ele>91.4</ele><time>2026-04-10T12:50:16Z</time></trkpt><trkpt lat="39.424428148237894" lon="8.510814910620077"><ele>91.0</ele><time>2026-04-10T12:50:17Z</time></trkpt><trkpt lat="39.42439998060482" lon="8.510710736860824"><ele>91.0</ele><time>2026-04-10T12:50:18Z</time></trkpt><trkpt lat="39.42438741296633" lon="8.510606815601653"><ele>91.0</ele><time>2026-04-10T12:50:19Z</time></trkpt><trkpt lat="39.42435383254772" lon="8.510462518323164"><ele>91.0</ele><time>2026-04-10T12:50:20Z</time></trkpt><trkpt lat="39.42432765095372" lon="8.510314448918464"><ele>91.0</ele><time>2026-04-10T12:50:21Z</time></trkpt><trkpt lat="39.424306388787606" lon="8.51017359019069"><ele>91.0</ele><time>2026-04-10T12:50:22Z</time></trkpt><trkpt lat="39.42429268974524" lon="8.510048993933925"><ele>90.5</ele><time>2026-04-10T12:50:23Z</time></trkpt><trkpt lat="39.42428088868302" lon="8.509921882360738"><ele>90.0</ele><time>2026-04-10T12:50:24Z</time></trkpt><trkpt lat="39.42427792117221" lon="8.509821396485249"><ele>89.5</ele><time>2026-04-10T12:50:25Z</time></trkpt><trkpt lat="39.424329195643004" lon="8.509718327294753"><ele>89.0</ele><time>2026-04-10T12:50:27Z</time></trkpt><trkpt lat="39.424389726525156" lon="8.50968601385266"><ele>88.5</ele><time>2026-04-10T12:50:28Z</time></trkpt><trkpt lat="39.42445870951349" lon="8.509680523169319"><ele>88.0</ele><time>2026-04-10T12:50:29Z</time></trkpt><trkpt lat="39.42455228142123" lon="8.509688186329068"><ele>87.80000000000001</ele><time>2026-04-10T12:50:30Z</time></trkpt><trkpt lat="39.42466438045313" lon="8.50971783317011"><ele>87.6</ele><time>2026-04-10T12:50:31Z</time></trkpt><trkpt lat="39.42475813398288" lon="8.50975227392607"><ele>87.4</ele><time>2026-04-10T12:50:32Z</time></trkpt><trkpt lat="39.42485504510637" lon="8.509826673539761"><ele>87.19999999999999</ele><time>2026-04-10T12:50:33Z</time></trkpt><trkpt lat="39.424936707842086" lon="8.509904072186433"><ele>87.0</ele><time>2026-04-10T12:50:34Z</time></trkpt><trkpt lat="39.42500939469809" lon="8.509984658995212"><ele>87.0</ele><time>2026-04-10T12:50:35Z</time></trkpt><trkpt lat="39.42508766716969" lon="8.510075504476408"><ele>87.0</ele><time>2026-04-10T12:50:36Z</time></trkpt><trkpt lat="39.4251412685634" lon="8.510130583091115"><ele>87.0</ele><time>2026-04-10T12:50:37Z</time></trkpt><trkpt lat="39.425209555786644" lon="8.510159045059735"><ele>87.0</ele><time>2026-04-10T12:50:38Z</time></trkpt><trkpt lat="39.42529719186646" lon="8.510179021346438"><ele>87.0</ele><time>2026-04-10T12:50:39Z</time></trkpt><trkpt lat="39.42537745836634" lon="8.510170034754587"><ele>87.0</ele><time>2026-04-10T12:50:40Z</time></trkpt><trkpt lat="39.42544876796548" lon="8.51013255767882"><ele>88.39999999999999</ele><time>2026-04-10T12:50:41Z</time></trkpt><trkpt lat="39.42552670379721" lon="8.510065220765329"><ele>89.8</ele><time>2026-04-10T12:50:42Z</time></trkpt><trkpt lat="39.42561004743646" lon="8.50997127795178"><ele>91.2</ele><time>2026-04-10T12:50:43Z</time></trkpt><trkpt lat="39.42569239136016" lon="8.509864917501622"><ele>92.6</ele><time>2026-04-10T12:50:44Z</time></trkpt><trkpt lat="39.425749741640445" lon="8.509755350530376"><ele>94.0</ele><time>2026-04-10T12:50:45Z</time></trkpt><trkpt lat="39.42580387157483" lon="8.509651650485216"><ele>93.2</ele><time>2026-04-10T12:50:46Z</time></trkpt><trkpt lat="39.42584257567844" lon="8.509539564275883"><ele>92.4</ele><time>2026-04-10T12:50:47Z</time></trkpt><trkpt lat="39.42588492097239" lon="8.509420126179664"><ele>91.6</ele><time>2026-04-10T12:50:48Z</time></trkpt><trkpt lat="39.42590598843403" lon="8.50929044175189"><ele>90.8</ele><time>2026-04-10T12:50:49Z</time></trkpt><trkpt lat="39.42592719954545" lon="8.509179838197278"><ele>90.0</ele><time>2026-04-10T12:50:50Z</time></trkpt><trkpt lat="39.42592957684045" lon="8.509082863637815"><ele>90.0</ele><time>2026-04-10T12:50:51Z</time></trkpt><trkpt lat="39.42594163119326" lon="8.508974339316259"><ele>90.0</ele><time>2026-04-10T12:50:52Z</time></trkpt><trkpt lat="39.425909521066146" lon="8.508853795792776"><ele>90.0</ele><time>2026-04-10T12:50:53Z</time></trkpt><trkpt lat="39.425859996105046" lon="8.508692312891501"><ele>90.0</ele><time>2026-04-10T12:50:54.001Z</time></trkpt><trkpt lat="39.425813413438576" lon="8.508537801646707"><ele>90.0</ele><time>2026-04-10T12:50:55.001Z</time></trkpt><trkpt lat="39.425765304878546" lon="8.508416856187651"><ele>89.8</ele><time>2026-04-10T12:50:56.001Z</time></trkpt><trkpt lat="39.425711233131814" lon="8.508302290172315"><ele>89.6</ele><time>2026-04-10T12:50:57.001Z</time></trkpt><trkpt lat="39.42563875580733" lon="8.508207259937548"><ele>89.4</ele><time>2026-04-10T12:50:58.001Z</time></trkpt><trkpt lat="39.425576718916176" lon="8.508101513312319"><ele>89.2</ele><time>2026-04-10T12:50:59.001Z</time></trkpt><trkpt lat="39.42552035546043" lon="8.507985406418692"><ele>89.0</ele><time>2026-04-10T12:51:00.001Z</time></trkpt><trkpt lat="39.42544850780089" lon="8.507878591213835"><ele>89.0</ele><time>2026-04-10T12:51:01.001Z</time></trkpt><trkpt lat="39.4254024466796" lon="8.507786324382838"><ele>89.0</ele><time>2026-04-10T12:51:02.001Z</time></trkpt><trkpt lat="39.42534817446887" lon="8.507703337268007"><ele>89.0</ele><time>2026-04-10T12:51:03.001Z</time></trkpt><trkpt lat="39.42529845396754" lon="8.507615308187361"><ele>89.0</ele><time>2026-04-10T12:51:04.001Z</time></trkpt><trkpt lat="39.425236805088026" lon="8.507534353138453"><ele>89.0</ele><time>2026-04-10T12:51:05.001Z</time></trkpt><trkpt lat="39.42518195876983" lon="8.507443985808184"><ele>89.0</ele><time>2026-04-10T12:51:06.001Z</time></trkpt><trkpt lat="39.425135166886356" lon="8.50733739875637"><ele>89.0</ele><time>2026-04-10T12:51:07.001Z</time></trkpt><trkpt lat="39.425099660014524" lon="8.507229505786611"><ele>89.0</ele><time>2026-04-10T12:51:08.001Z</time></trkpt><trkpt lat="39.42506948287201" lon="8.507150392570829"><ele>89.0</ele><time>2026-04-10T12:51:09.001Z</time></trkpt><trkpt lat="39.42508922028582" lon="8.507054562390154"><ele>89.0</ele><time>2026-04-10T12:51:10.001Z</time></trkpt><trkpt lat="39.425127861719844" lon="8.506971845727014"><ele>89.0</ele><time>2026-04-10T12:51:11.001Z</time></trkpt><trkpt lat="39.42519487313467" lon="8.506902736863081"><ele>89.0</ele><time>2026-04-10T12:51:12.001Z</time></trkpt><trkpt lat="39.425296938062395" lon="8.506810135732673"><ele>89.4</ele><time>2026-04-10T12:51:13.001Z</time></trkpt><trkpt lat="39.42538680326301" lon="8.50673315528261"><ele>89.80000000000001</ele><time>2026-04-10T12:51:14.001Z</time></trkpt><trkpt lat="39.425482348093496" lon="8.506667271438097"><ele>90.19999999999999</ele><time>2026-04-10T12:51:15.001Z</time></trkpt><trkpt lat="39.42557827046224" lon="8.50660616734654"><ele>90.6</ele><time>2026-04-10T12:51:16.001Z</time></trkpt><trkpt lat="39.425675311165506" lon="8.506559486081356"><ele>91.0</ele><time>2026-04-10T12:51:17.001Z</time></trkpt><trkpt lat="39.42576842063613" lon="8.506523658101855"><ele>91.0</ele><time>2026-04-10T12:51:18.001Z</time></trkpt><trkpt lat="39.42585775706509" lon="8.506470678020818"><ele>91.0</ele><time>2026-04-10T12:51:19.001Z</time></trkpt><trkpt lat="39.42595153699179" lon="8.50641733941729"><ele>91.0</ele><time>2026-04-10T12:51:20.001Z</time></trkpt><trkpt lat="39.426043950126186" lon="8.506355327532276"><ele>91.0</ele><time>2026-04-10T12:51:21.001Z</time></trkpt><trkpt lat="39.42613172395661" lon="8.506291098875481"><ele>91.0</ele><time>2026-04-10T12:51:22.001Z</time></trkpt><trkpt lat="39.42621374949544" lon="8.506198434199526"><ele>89.6</ele><time>2026-04-10T12:51:23.001Z</time></trkpt><trkpt lat="39.42629034299253" lon="8.506117576275345"><ele>88.19999999999999</ele><time>2026-04-10T12:51:24.001Z</time></trkpt><trkpt lat="39.42634581821017" lon="8.506022504852455"><ele>86.80000000000001</ele><time>2026-04-10T12:51:25.001Z</time></trkpt><trkpt lat="39.42639007663872" lon="8.505929441140223"><ele>85.4</ele><time>2026-04-10T12:51:26.001Z</time></trkpt><trkpt lat="39.426437438024784" lon="8.505807879180615"><ele>84.0</ele><time>2026-04-10T12:51:27.001Z</time></trkpt><trkpt lat="39.42647486339249" lon="8.50565814344444"><ele>84.66666666666667</ele><time>2026-04-10T12:51:28.001Z</time></trkpt><trkpt lat="39.42649190739507" lon="8.505544196564736"><ele>85.33333333333333</ele><time>2026-04-10T12:51:29.001Z</time></trkpt><trkpt lat="39.42650046290169" lon="8.505435508659517"><ele>86.0</ele><time>2026-04-10T12:51:30.001Z</time></trkpt><trkpt lat="39.42645301562294" lon="8.505333638030963"><ele>86.66666666666666</ele><time>2026-04-10T12:51:31.001Z</time></trkpt><trkpt lat="39.4264551807165" lon="8.505244422222054"><ele>87.33333333333333</ele><time>2026-04-10T12:51:32.001Z</time></trkpt><trkpt lat="39.42645463089153" lon="8.505147708850462"><ele>88.0</ele><time>2026-04-10T12:51:33.001Z</time></trkpt><trkpt lat="39.42649968589951" lon="8.505045780981769"><ele>88.0</ele><time>2026-04-10T12:51:34.001Z</time></trkpt><trkpt lat="39.42656116261994" lon="8.504953075799156"><ele>88.0</ele><time>2026-04-10T12:51:35.001Z</time></trkpt><trkpt lat="39.42664090442346" lon="8.50486817004121"><ele>88.0</ele><time>2026-04-10T12:51:36.001Z</time></trkpt><trkpt lat="39.42673203827457" lon="8.504796459370935"><ele>88.0</ele><time>2026-04-10T12:51:37.001Z</time></trkpt><trkpt lat="39.42682884531065" lon="8.504719512954033"><ele>88.0</ele><time>2026-04-10T12:51:38.001Z</time></trkpt><trkpt lat="39.4269252218416" lon="8.504622656708861"><ele>87.75</ele><time>2026-04-10T12:51:39.001Z</time></trkpt><trkpt lat="39.42702045895465" lon="8.50450260951184"><ele>87.5</ele><time>2026-04-10T12:51:40.001Z</time></trkpt><trkpt lat="39.42710373457772" lon="8.504376632473464"><ele>87.25</ele><time>2026-04-10T12:51:41.001Z</time></trkpt><trkpt lat="39.4271733037871" lon="8.50425166424615"><ele>87.0</ele><time>2026-04-10T12:51:42.001Z</time></trkpt><trkpt lat="39.42724248729355" lon="8.504120536352149"><ele>87.0</ele><time>2026-04-10T12:51:43.001Z</time></trkpt><trkpt lat="39.427313305183155" lon="8.504010533865795"><ele>87.0</ele><time>2026-04-10T12:51:44.001Z</time></trkpt><trkpt lat="39.4273811677063" lon="8.50388951575782"><ele>87.0</ele><time>2026-04-10T12:51:45.001Z</time></trkpt><trkpt lat="39.42745286426107" lon="8.503780566526418"><ele>87.0</ele><time>2026-04-10T12:51:46.001Z</time></trkpt><trkpt lat="39.427529398276945" lon="8.50367240763731"><ele>86.16666666666667</ele><time>2026-04-10T12:51:47.001Z</time></trkpt><trkpt lat="39.427593394143905" lon="8.50357945869449"><ele>85.33333333333333</ele><time>2026-04-10T12:51:48.001Z</time></trkpt><trkpt lat="39.42766466633061" lon="8.503503573505311"><ele>84.5</ele><time>2026-04-10T12:51:49.002Z</time></trkpt><trkpt lat="39.4277370992746" lon="8.50345735351517"><ele>83.66666666666666</ele><time>2026-04-10T12:51:50.002Z</time></trkpt><trkpt lat="39.427824369829864" lon="8.503431962362912"><ele>82.83333333333333</ele><time>2026-04-10T12:51:52.002Z</time></trkpt><trkpt lat="39.427891152982674" lon="8.50342654269946"><ele>82.0</ele><time>2026-04-10T12:51:55.002Z</time></trkpt><trkpt lat="39.4279735445821" lon="8.503386847793344"><ele>82.8</ele><time>2026-04-10T12:51:58.002Z</time></trkpt><trkpt lat="39.42806624378002" lon="8.503354344500309"><ele>83.6</ele><time>2026-04-10T12:52:00.002Z</time></trkpt><trkpt lat="39.42816172843105" lon="8.503354431443086"><ele>84.39999999999999</ele><time>2026-04-10T12:52:02.002Z</time></trkpt><trkpt lat="39.42826642720448" lon="8.503309847888179"><ele>85.19999999999999</ele><time>2026-04-10T12:52:04.002Z</time></trkpt><trkpt lat="39.428370210337036" lon="8.503227401463917"><ele>86.0</ele><time>2026-04-10T12:52:06.002Z</time></trkpt><trkpt lat="39.428477217787986" lon="8.503157789067235"><ele>86.0</ele><time>2026-04-10T12:52:08Z</time></trkpt><trkpt lat="39.42855039661356" lon="8.503122934591318"><ele>86.0</ele><time>2026-04-10T12:52:09Z</time></trkpt><trkpt lat="39.428631355398736" lon="8.503085940058234"><ele>86.0</ele><time>2026-04-10T12:52:10Z</time></trkpt><trkpt lat="39.42871709099177" lon="8.503036585409149"><ele>86.0</ele><time>2026-04-10T12:52:11Z</time></trkpt><trkpt lat="39.428784467709264" lon="8.502975682989371"><ele>86.0</ele><time>2026-04-10T12:52:12Z</time></trkpt><trkpt lat="39.42886149177354" lon="8.502913085317338"><ele>86.0</ele><time>2026-04-10T12:52:13Z</time></trkpt><trkpt lat="39.42895498019531" lon="8.502833371376202"><ele>84.2</ele><time>2026-04-10T12:52:14Z</time></trkpt><trkpt lat="39.42905053591295" lon="8.502753273223995"><ele>82.39999999999999</ele><time>2026-04-10T12:52:15Z</time></trkpt><trkpt lat="39.429133267006144" lon="8.50268798361199"><ele>80.6</ele><time>2026-04-10T12:52:16Z</time></trkpt><trkpt lat="39.42921047470155" lon="8.5026345459655"><ele>78.8</ele><time>2026-04-10T12:52:17Z</time></trkpt><trkpt lat="39.429292990217746" lon="8.502593185586369"><ele>77.0</ele><time>2026-04-10T12:52:18Z</time></trkpt><trkpt lat="39.42938096551419" lon="8.50258201366537"><ele>77.0</ele><time>2026-04-10T12:52:19Z</time></trkpt><trkpt lat="39.429450555891435" lon="8.502585499299654"><ele>77.0</ele><time>2026-04-10T12:52:20Z</time></trkpt><trkpt lat="39.429523226479326" lon="8.502600693973577"><ele>77.0</ele><time>2026-04-10T12:52:21Z</time></trkpt><trkpt lat="39.42958070707543" lon="8.502678721164992"><ele>77.0</ele><time>2026-04-10T12:52:22Z</time></trkpt><trkpt lat="39.429650200762104" lon="8.502709533895455"><ele>77.0</ele><time>2026-04-10T12:52:23Z</time></trkpt><trkpt lat="39.42972062269676" lon="8.502725137656647"><ele>77.0</ele><time>2026-04-10T12:52:24Z</time></trkpt><trkpt lat="39.42980670120919" lon="8.502682524711783"><ele>77.2</ele><time>2026-04-10T12:52:25Z</time></trkpt><trkpt lat="39.42990452793114" lon="8.502637879892724"><ele>77.4</ele><time>2026-04-10T12:52:26Z</time></trkpt><trkpt lat="39.42998971398584" lon="8.502588064284911"><ele>77.6</ele><time>2026-04-10T12:52:27Z</time></trkpt><trkpt lat="39.430088113238774" lon="8.502603885685687"><ele>77.8</ele><time>2026-04-10T12:52:28Z</time></trkpt><trkpt lat="39.43019161290294" lon="8.502608256640986"><ele>78.0</ele><time>2026-04-10T12:52:29Z</time></trkpt><trkpt lat="39.43032371447496" lon="8.502612471533112"><ele>78.0</ele><time>2026-04-10T12:52:30Z</time></trkpt><trkpt lat="39.43042223800183" lon="8.502651029349941"><ele>78.0</ele><time>2026-04-10T12:52:31Z</time></trkpt><trkpt lat="39.43049584749929" lon="8.502665040943953"><ele>78.0</ele><time>2026-04-10T12:52:32Z</time></trkpt><trkpt lat="39.43061540235116" lon="8.502604638402792"><ele>78.0</ele><time>2026-04-10T12:52:34Z</time></trkpt><trkpt lat="39.430662292037034" lon="8.502531768143898"><ele>78.0</ele><time>2026-04-10T12:52:35Z</time></trkpt><trkpt lat="39.430711210703144" lon="8.50243416779958"><ele>77.8</ele><time>2026-04-10T12:52:36Z</time></trkpt><trkpt lat="39.43078088713741" lon="8.502300867277526"><ele>77.6</ele><time>2026-04-10T12:52:37Z</time></trkpt><trkpt lat="39.430826726929006" lon="8.502193160861154"><ele>77.4</ele><time>2026-04-10T12:52:38Z</time></trkpt><trkpt lat="39.43085966312964" lon="8.502114267696747"><ele>77.2</ele><time>2026-04-10T12:52:39Z</time></trkpt><trkpt lat="39.43087230800456" lon="8.502002066128602"><ele>77.0</ele><time>2026-04-10T12:52:40Z</time></trkpt><trkpt lat="39.430886270392094" lon="8.501881428617914"><ele>77.0</ele><time>2026-04-10T12:52:41Z</time></trkpt><trkpt lat="39.43091074235123" lon="8.501802776049866"><ele>77.0</ele><time>2026-04-10T12:52:42Z</time></trkpt><trkpt lat="39.43100049631139" lon="8.501701964687078"><ele>77.0</ele><time>2026-04-10T12:52:44Z</time></trkpt><trkpt lat="39.43107323214094" lon="8.501665433031118"><ele>77.0</ele><time>2026-04-10T12:52:45.001Z</time></trkpt><trkpt lat="39.43115702291514" lon="8.50165115993968"><ele>77.0</ele><time>2026-04-10T12:52:46.001Z</time></trkpt><trkpt lat="39.43124089515239" lon="8.501633356236342"><ele>77.0</ele><time>2026-04-10T12:52:47.001Z</time></trkpt><trkpt lat="39.431317692023846" lon="8.501636140849325"><ele>77.16666666666667</ele><time>2026-04-10T12:52:48.001Z</time></trkpt><trkpt lat="39.43143439048024" lon="8.501661659888407"><ele>77.33333333333334</ele><time>2026-04-10T12:52:50.001Z</time></trkpt><trkpt lat="39.431478364169166" lon="8.501724413135362"><ele>77.5</ele><time>2026-04-10T12:52:51.001Z</time></trkpt><trkpt lat="39.43153108916655" lon="8.501778814748691"><ele>77.66666666666667</ele><time>2026-04-10T12:52:52.001Z</time></trkpt><trkpt lat="39.431591696381716" lon="8.501843427726445"><ele>77.83333333333333</ele><time>2026-04-10T12:52:53.001Z</time></trkpt><trkpt lat="39.431637062498325" lon="8.501909326887514"><ele>78.0</ele><time>2026-04-10T12:52:54.001Z</time></trkpt><trkpt lat="39.43169541945404" lon="8.502019015404588"><ele>80.0</ele><time>2026-04-10T12:52:56.001Z</time></trkpt><trkpt lat="39.43174910849136" lon="8.502147161394811"><ele>82.0</ele><time>2026-04-10T12:52:58.001Z</time></trkpt><trkpt lat="39.431797563598124" lon="8.502306816811911"><ele>84.0</ele><time>2026-04-10T12:53:00.001Z</time></trkpt><trkpt lat="39.43181311804821" lon="8.502393382928226"><ele>86.0</ele><time>2026-04-10T12:53:01.001Z</time></trkpt><trkpt lat="39.43189470051541" lon="8.50254538887197"><ele>86.0</ele><time>2026-04-10T12:53:03.001Z</time></trkpt><trkpt lat="39.43194534636067" lon="8.502605761568546"><ele>86.0</ele><time>2026-04-10T12:53:04.001Z</time></trkpt><trkpt lat="39.43199115140485" lon="8.502670098411965"><ele>86.0</ele><time>2026-04-10T12:53:05.001Z</time></trkpt><trkpt lat="39.43203266070394" lon="8.502759321138699"><ele>86.0</ele><time>2026-04-10T12:53:06.001Z</time></trkpt><trkpt lat="39.43204398787609" lon="8.502848045207726"><ele>86.0</ele><time>2026-04-10T12:53:07.001Z</time></trkpt><trkpt lat="39.432061693458614" lon="8.502937071098541"><ele>86.0</ele><time>2026-04-10T12:53:08.001Z</time></trkpt><trkpt lat="39.4320977826964" lon="8.503069036224723"><ele>85.6</ele><time>2026-04-10T12:53:10.001Z</time></trkpt><trkpt lat="39.432128926344554" lon="8.503173413708735"><ele>85.19999999999999</ele><time>2026-04-10T12:53:12.001Z</time></trkpt><trkpt lat="39.432294347340736" lon="8.50313988605773"><ele>84.80000000000001</ele><time>2026-04-10T12:53:14.001Z</time></trkpt><trkpt lat="39.432360157584725" lon="8.503076315288428"><ele>84.4</ele><time>2026-04-10T12:53:16.001Z</time></trkpt><trkpt lat="39.43242099997146" lon="8.503005282986194"><ele>84.0</ele><time>2026-04-10T12:53:19.001Z</time></trkpt><trkpt lat="39.43248545968986" lon="8.502928914438712"><ele>81.83333333333333</ele><time>2026-04-10T12:53:22.001Z</time></trkpt><trkpt lat="39.43254040942102" lon="8.502879235841366"><ele>79.66666666666667</ele><time>2026-04-10T12:53:24.001Z</time></trkpt><trkpt lat="39.43261902150966" lon="8.502835794294079"><ele>77.5</ele><time>2026-04-10T12:53:28.001Z</time></trkpt><trkpt lat="39.43268702061307" lon="8.502839429278552"><ele>75.33333333333334</ele><time>2026-04-10T12:54:05.002Z</time></trkpt><trkpt lat="39.432773725949914" lon="8.502832397542234"><ele>73.16666666666667</ele><time>2026-04-10T12:54:06.002Z</time></trkpt><trkpt lat="39.432867760122214" lon="8.502807868790013"><ele>71.0</ele><time>2026-04-10T12:54:07.002Z</time></trkpt><trkpt lat="39.43294436427572" lon="8.502811293844687"><ele>70.39999999999999</ele><time>2026-04-10T12:54:08.002Z</time></trkpt><trkpt lat="39.43307883433461" lon="8.502800412838885"><ele>69.8</ele><time>2026-04-10T12:54:10.002Z</time></trkpt><trkpt lat="39.4331630934698" lon="8.502786722915136"><ele>69.19999999999999</ele><time>2026-04-10T12:54:11.002Z</time></trkpt><trkpt lat="39.43324268958364" lon="8.5027556601223"><ele>68.6</ele><time>2026-04-10T12:54:12.002Z</time></trkpt><trkpt lat="39.43331348961124" lon="8.50269977249726"><ele>68.0</ele><time>2026-04-10T12:54:13.002Z</time></trkpt><trkpt lat="39.43338667551344" lon="8.502626229276064"><ele>68.0</ele><time>2026-04-10T12:54:14.001Z</time></trkpt><trkpt lat="39.43346778455376" lon="8.502556796981027"><ele>68.0</ele><time>2026-04-10T12:54:15.001Z</time></trkpt><trkpt lat="39.43355825024768" lon="8.502505520792031"><ele>68.0</ele><time>2026-04-10T12:54:16.001Z</time></trkpt><trkpt lat="39.433650222766325" lon="8.502470424680864"><ele>68.0</ele><time>2026-04-10T12:54:17.001Z</time></trkpt><trkpt lat="39.433738232076784" lon="8.502429316602722"><ele>68.0</ele><time>2026-04-10T12:54:18.001Z</time></trkpt><trkpt lat="39.43382510735071" lon="8.502385629149773"><ele>68.2</ele><time>2026-04-10T12:54:19.001Z</time></trkpt><trkpt lat="39.433905930255825" lon="8.502324468526655"><ele>68.4</ele><time>2026-04-10T12:54:20.001Z</time></trkpt><trkpt lat="39.43397098914868" lon="8.502237637493076"><ele>68.60000000000001</ele><time>2026-04-10T12:54:21.001Z</time></trkpt><trkpt lat="39.43401023094996" lon="8.502131218639951"><ele>68.8</ele><time>2026-04-10T12:54:22.001Z</time></trkpt><trkpt lat="39.43405583816503" lon="8.502030067550438"><ele>69.0</ele><time>2026-04-10T12:54:23.001Z</time></trkpt><trkpt lat="39.434091141272695" lon="8.501893948467663"><ele>69.0</ele><time>2026-04-10T12:54:24.001Z</time></trkpt><trkpt lat="39.43415061242288" lon="8.501743418340125"><ele>69.0</ele><time>2026-04-10T12:54:25.001Z</time></trkpt><trkpt lat="39.43419496279163" lon="8.501615072175808"><ele>69.0</ele><time>2026-04-10T12:54:26.001Z</time></trkpt><trkpt lat="39.434245996390025" lon="8.50150812277589"><ele>69.0</ele><time>2026-04-10T12:54:27Z</time></trkpt><trkpt lat="39.43429140497253" lon="8.50140445111359"><ele>69.0</ele><time>2026-04-10T12:54:28Z</time></trkpt><trkpt lat="39.434328287606725" lon="8.501308679604117"><ele>68.33333333333333</ele><time>2026-04-10T12:54:29Z</time></trkpt><trkpt lat="39.43434476038549" lon="8.501226719444146"><ele>67.66666666666667</ele><time>2026-04-10T12:54:30Z</time></trkpt><trkpt lat="39.43437566080445" lon="8.501074218999246"><ele>67.0</ele><time>2026-04-10T12:54:32Z</time></trkpt><trkpt lat="39.43439429700447" lon="8.500984816171448"><ele>66.33333333333334</ele><time>2026-04-10T12:54:33Z</time></trkpt><trkpt lat="39.43442296394016" lon="8.50090495483854"><ele>65.66666666666667</ele><time>2026-04-10T12:54:34.001Z</time></trkpt><trkpt lat="39.4344630234093" lon="8.500834920996851"><ele>65.0</ele><time>2026-04-10T12:54:35.001Z</time></trkpt><trkpt lat="39.43450022879971" lon="8.50076536638073"><ele>65.0</ele><time>2026-04-10T12:54:36.001Z</time></trkpt><trkpt lat="39.43457097264545" lon="8.500645213275455"><ele>65.0</ele><time>2026-04-10T12:54:38.001Z</time></trkpt><trkpt lat="39.434648992702385" lon="8.500544615279763"><ele>65.0</ele><time>2026-04-10T12:54:40.001Z</time></trkpt><trkpt lat="39.43469405734266" lon="8.500467257599428"><ele>65.0</ele><time>2026-04-10T12:54:42.001Z</time></trkpt><trkpt lat="39.43473307745849" lon="8.500401526935697"><ele>65.0</ele><time>2026-04-10T12:55:00.001Z</time></trkpt><trkpt lat="39.43463840834792" lon="8.500246677496342"><ele>65.0</ele><time>2026-04-10T12:55:03.001Z</time></trkpt><trkpt lat="39.434601620483086" lon="8.500176984643469"><ele>65.0</ele><time>2026-04-10T12:55:13.001Z</time></trkpt><trkpt lat="39.43456645686024" lon="8.500106853481551"><ele>65.0</ele><time>2026-04-10T12:55:16.001Z</time></trkpt><trkpt lat="39.43444381399173" lon="8.500066708511687"><ele>65.0</ele><time>2026-04-10T12:55:32.001Z</time></trkpt><trkpt lat="39.43436635143151" lon="8.500047074895248"><ele>65.0</ele><time>2026-04-10T12:55:33.001Z</time></trkpt><trkpt lat="39.43427701336543" lon="8.5000244313319"><ele>65.0</ele><time>2026-04-10T12:55:34.001Z</time></trkpt><trkpt lat="39.434186219420596" lon="8.500004897034028"><ele>65.0</ele><time>2026-04-10T12:55:35.001Z</time></trkpt><trkpt lat="39.4340881795298" lon="8.499991392031204"><ele>65.0</ele><time>2026-04-10T12:55:36.001Z</time></trkpt><trkpt lat="39.43398495035096" lon="8.50000937328001"><ele>65.0</ele><time>2026-04-10T12:55:37.001Z</time></trkpt><trkpt lat="39.43388540379935" lon="8.500090803906607"><ele>65.0</ele><time>2026-04-10T12:55:38.001Z</time></trkpt><trkpt lat="39.43379690872075" lon="8.500160872812115"><ele>65.0</ele><time>2026-04-10T12:55:39.001Z</time></trkpt><trkpt lat="39.43371156681496" lon="8.500235754022766"><ele>65.33333333333334</ele><time>2026-04-10T12:55:40.001Z</time></trkpt><trkpt lat="39.4336334915011" lon="8.50031533111899"><ele>65.66666666666667</ele><time>2026-04-10T12:55:41.001Z</time></trkpt><trkpt lat="39.43356772879797" lon="8.500410313705894"><ele>66.0</ele><time>2026-04-10T12:55:42.001Z</time></trkpt><trkpt lat="39.43352019974983" lon="8.500501321872802"><ele>66.33333333333333</ele><time>2026-04-10T12:55:43.001Z</time></trkpt><trkpt lat="39.43348658655222" lon="8.500576048769865"><ele>66.66666666666666</ele><time>2026-04-10T12:55:44.001Z</time></trkpt><trkpt lat="39.433452823521364" lon="8.500653283799814"><ele>67.0</ele><time>2026-04-10T12:55:45.001Z</time></trkpt><trkpt lat="39.4334180376767" lon="8.500740759257845"><ele>67.0</ele><time>2026-04-10T12:55:46.002Z</time></trkpt><trkpt lat="39.43338581243236" lon="8.500821795578005"><ele>67.0</ele><time>2026-04-10T12:55:47.002Z</time></trkpt><trkpt lat="39.43334717781072" lon="8.500920114217006"><ele>67.0</ele><time>2026-04-10T12:55:48.002Z</time></trkpt><trkpt lat="39.433307247043764" lon="8.501010845640561"><ele>67.0</ele><time>2026-04-10T12:55:49.002Z</time></trkpt><trkpt lat="39.433262676083665" lon="8.50108219575771"><ele>67.0</ele><time>2026-04-10T12:55:50.002Z</time></trkpt><trkpt lat="39.43313804077978" lon="8.501148855397057"><ele>67.0</ele><time>2026-04-10T12:55:52.002Z</time></trkpt><trkpt lat="39.4330626121487" lon="8.501195647898308"><ele>67.0</ele><time>2026-04-10T12:55:53.002Z</time></trkpt><trkpt lat="39.432977923035295" lon="8.501168470334052"><ele>67.0</ele><time>2026-04-10T12:55:54.002Z</time></trkpt><trkpt lat="39.43289784700448" lon="8.50110817259315"><ele>67.0</ele><time>2026-04-10T12:55:55.002Z</time></trkpt><trkpt lat="39.43281087099285" lon="8.50103741206963"><ele>67.0</ele><time>2026-04-10T12:55:56.002Z</time></trkpt><trkpt lat="39.43272710188201" lon="8.50096096381389"><ele>67.0</ele><time>2026-04-10T12:55:57.002Z</time></trkpt><trkpt lat="39.432644665592015" lon="8.500898238131324"><ele>67.8</ele><time>2026-04-10T12:55:58.002Z</time></trkpt><trkpt lat="39.43255127119187" lon="8.500842097712413"><ele>68.6</ele><time>2026-04-10T12:55:59.002Z</time></trkpt><trkpt lat="39.43244710943799" lon="8.500780649065918"><ele>69.39999999999999</ele><time>2026-04-10T12:56:00.002Z</time></trkpt><trkpt lat="39.43233894759264" lon="8.50071992162177"><ele>70.2</ele><time>2026-04-10T12:56:01.002Z</time></trkpt><trkpt lat="39.43223444401263" lon="8.500665511070249"><ele>71.0</ele><time>2026-04-10T12:56:02.002Z</time></trkpt><trkpt lat="39.43214396867557" lon="8.50062013108561"><ele>70.8</ele><time>2026-04-10T12:56:03.002Z</time></trkpt><trkpt lat="39.432056192569775" lon="8.500566561522543"><ele>70.6</ele><time>2026-04-10T12:56:04.002Z</time></trkpt><trkpt lat="39.431951517419286" lon="8.500525996074451"><ele>70.4</ele><time>2026-04-10T12:56:05.002Z</time></trkpt><trkpt lat="39.43184595910114" lon="8.500477663383942"><ele>70.2</ele><time>2026-04-10T12:56:06.002Z</time></trkpt><trkpt lat="39.43173435056226" lon="8.500441558502965"><ele>70.0</ele><time>2026-04-10T12:56:07.002Z</time></trkpt><trkpt lat="39.43162352933994" lon="8.500404955493961"><ele>73.2</ele><time>2026-04-10T12:56:08.002Z</time></trkpt><trkpt lat="39.431506453893434" lon="8.500363641325242"><ele>76.4</ele><time>2026-04-10T12:56:09.002Z</time></trkpt><trkpt lat="39.43139162535339" lon="8.500323601361798"><ele>79.6</ele><time>2026-04-10T12:56:10.002Z</time></trkpt><trkpt lat="39.43128644184492" lon="8.500289289600085"><ele>82.8</ele><time>2026-04-10T12:56:11.002Z</time></trkpt><trkpt lat="39.431196122284895" lon="8.500259904171308"><ele>86.0</ele><time>2026-04-10T12:56:12.002Z</time></trkpt><trkpt lat="39.43111422259198" lon="8.500233672157144"><ele>86.0</ele><time>2026-04-10T12:56:13.002Z</time></trkpt><trkpt lat="39.43102030164655" lon="8.500217017709522"><ele>86.0</ele><time>2026-04-10T12:56:14.002Z</time></trkpt><trkpt lat="39.430906033082664" lon="8.50024750346691"><ele>86.0</ele><time>2026-04-10T12:56:15.002Z</time></trkpt><trkpt lat="39.43078648341428" lon="8.500290764655517"><ele>86.0</ele><time>2026-04-10T12:56:16.002Z</time></trkpt><trkpt lat="39.43067652090804" lon="8.500382875446757"><ele>83.25</ele><time>2026-04-10T12:56:17.002Z</time></trkpt><trkpt lat="39.43056545712753" lon="8.500475499212762"><ele>80.5</ele><time>2026-04-10T12:56:18.002Z</time></trkpt><trkpt lat="39.43045853786145" lon="8.500564629220362"><ele>77.75</ele><time>2026-04-10T12:56:19.002Z</time></trkpt><trkpt lat="39.430363743055274" lon="8.500643652043852"><ele>75.0</ele><time>2026-04-10T12:56:20.001Z</time></trkpt><trkpt lat="39.43027375093845" lon="8.500721146878819"><ele>75.0</ele><time>2026-04-10T12:56:21.001Z</time></trkpt><trkpt lat="39.43020061456185" lon="8.500823504128778"><ele>75.0</ele><time>2026-04-10T12:56:22.001Z</time></trkpt><trkpt lat="39.430114023942274" lon="8.500903930571424"><ele>75.0</ele><time>2026-04-10T12:56:23.001Z</time></trkpt><trkpt lat="39.430060922327755" lon="8.501031130927137"><ele>75.0</ele><time>2026-04-10T12:56:24.001Z</time></trkpt><trkpt lat="39.430071710786486" lon="8.501188687340491"><ele>75.0</ele><time>2026-04-10T12:56:25.001Z</time></trkpt><trkpt lat="39.430092385454294" lon="8.50133636865742"><ele>74.2</ele><time>2026-04-10T12:56:26.001Z</time></trkpt><trkpt lat="39.43009843474211" lon="8.501471452681722"><ele>73.4</ele><time>2026-04-10T12:56:27.001Z</time></trkpt><trkpt lat="39.43006193491417" lon="8.501604583883362"><ele>72.6</ele><time>2026-04-10T12:56:28.001Z</time></trkpt><trkpt lat="39.43000474853432" lon="8.501718570370667"><ele>71.8</ele><time>2026-04-10T12:56:29.001Z</time></trkpt><trkpt lat="39.4299003981217" lon="8.501770292113726"><ele>71.0</ele><time>2026-04-10T12:56:30.001Z</time></trkpt><trkpt lat="39.42978033815655" lon="8.501771822815925"><ele>71.0</ele><time>2026-04-10T12:56:31.001Z</time></trkpt><trkpt lat="39.42965771044415" lon="8.501740245577121"><ele>71.0</ele><time>2026-04-10T12:56:32.001Z</time></trkpt><trkpt lat="39.42952591358815" lon="8.50174633792633"><ele>71.0</ele><time>2026-04-10T12:56:33.001Z</time></trkpt><trkpt lat="39.42938640404254" lon="8.501789718780993"><ele>71.0</ele><time>2026-04-10T12:56:34.001Z</time></trkpt><trkpt lat="39.42926135183229" lon="8.501836705470442"><ele>74.25</ele><time>2026-04-10T12:56:35.001Z</time></trkpt><trkpt lat="39.429140629741305" lon="8.501879458845018"><ele>77.5</ele><time>2026-04-10T12:56:36.001Z</time></trkpt><trkpt lat="39.42901603972603" lon="8.50193318338894"><ele>80.75</ele><time>2026-04-10T12:56:37.001Z</time></trkpt><trkpt lat="39.4288918188036" lon="8.502002675032559"><ele>84.0</ele><time>2026-04-10T12:56:38.001Z</time></trkpt><trkpt lat="39.42876907472847" lon="8.502084123549354"><ele>84.25</ele><time>2026-04-10T12:56:39.001Z</time></trkpt><trkpt lat="39.428642286495624" lon="8.502168568638089"><ele>84.5</ele><time>2026-04-10T12:56:40.001Z</time></trkpt><trkpt lat="39.42851781933282" lon="8.502261296762955"><ele>84.75</ele><time>2026-04-10T12:56:41.001Z</time></trkpt><trkpt lat="39.42839324847337" lon="8.50235994139521"><ele>85.0</ele><time>2026-04-10T12:56:42.001Z</time></trkpt><trkpt lat="39.42826660644016" lon="8.502457133379773"><ele>85.0</ele><time>2026-04-10T12:56:43.001Z</time></trkpt><trkpt lat="39.42814349080815" lon="8.502545348671267"><ele>85.0</ele><time>2026-04-10T12:56:44.001Z</time></trkpt><trkpt lat="39.42802870486396" lon="8.502618562827541"><ele>85.0</ele><time>2026-04-10T12:56:45.001Z</time></trkpt><trkpt lat="39.42791095561603" lon="8.502684723365267"><ele>85.0</ele><time>2026-04-10T12:56:46.001Z</time></trkpt><trkpt lat="39.42778730941409" lon="8.50273156340351"><ele>91.0</ele><time>2026-04-10T12:56:47.001Z</time></trkpt><trkpt lat="39.42766915995009" lon="8.502764942817864"><ele>97.0</ele><time>2026-04-10T12:56:48.001Z</time></trkpt><trkpt lat="39.427550849832" lon="8.502792317020624"><ele>103.0</ele><time>2026-04-10T12:56:49.001Z</time></trkpt><trkpt lat="39.42745164803455" lon="8.502834122291047"><ele>109.0</ele><time>2026-04-10T12:56:50.001Z</time></trkpt><trkpt lat="39.42735825360358" lon="8.502903594865888"><ele>106.5</ele><time>2026-04-10T12:56:51.001Z</time></trkpt><trkpt lat="39.42725181499184" lon="8.503013590861139"><ele>104.0</ele><time>2026-04-10T12:56:52.001Z</time></trkpt><trkpt lat="39.42715083612407" lon="8.503120507996583"><ele>101.5</ele><time>2026-04-10T12:56:53.001Z</time></trkpt><trkpt lat="39.42705422196201" lon="8.503254518844921"><ele>99.0</ele><time>2026-04-10T12:56:54.001Z</time></trkpt><trkpt lat="39.42695382690126" lon="8.503388073022096"><ele>99.0</ele><time>2026-04-10T12:56:55.001Z</time></trkpt><trkpt lat="39.42685210619416" lon="8.503527771941389"><ele>99.0</ele><time>2026-04-10T12:56:56.001Z</time></trkpt><trkpt lat="39.426725285983636" lon="8.50362288577334"><ele>99.0</ele><time>2026-04-10T12:56:57.001Z</time></trkpt><trkpt lat="39.42659922091597" lon="8.503722857197504"><ele>99.0</ele><time>2026-04-10T12:56:58.001Z</time></trkpt><trkpt lat="39.42649338304955" lon="8.503829981899733"><ele>97.6</ele><time>2026-04-10T12:56:59.001Z</time></trkpt><trkpt lat="39.426389274011186" lon="8.50390467215913"><ele>96.2</ele><time>2026-04-10T12:57:00.001Z</time></trkpt><trkpt lat="39.42629851648903" lon="8.503936683163424"><ele>94.8</ele><time>2026-04-10T12:57:01.001Z</time></trkpt><trkpt lat="39.42620770301753" lon="8.503929409872713"><ele>93.39999999999999</ele><time>2026-04-10T12:57:02.001Z</time></trkpt><trkpt lat="39.42612618092588" lon="8.503853737408027"><ele>92.0</ele><time>2026-04-10T12:57:03.001Z</time></trkpt><trkpt lat="39.42606456005536" lon="8.503721404529243"><ele>91.5</ele><time>2026-04-10T12:57:04.001Z</time></trkpt><trkpt lat="39.42601684067333" lon="8.503566301466549"><ele>91.0</ele><time>2026-04-10T12:57:05.001Z</time></trkpt><trkpt lat="39.425965612178516" lon="8.503425329337237"><ele>90.5</ele><time>2026-04-10T12:57:06.001Z</time></trkpt><trkpt lat="39.42592201495928" lon="8.503282431865554"><ele>90.0</ele><time>2026-04-10T12:57:07.001Z</time></trkpt><trkpt lat="39.42588920380198" lon="8.503126636110203"><ele>90.0</ele><time>2026-04-10T12:57:08.001Z</time></trkpt><trkpt lat="39.42587495449235" lon="8.502941260726823"><ele>90.0</ele><time>2026-04-10T12:57:09.001Z</time></trkpt><trkpt lat="39.425887595813265" lon="8.502737868316494"><ele>90.0</ele><time>2026-04-10T12:57:10.001Z</time></trkpt><trkpt lat="39.4259285679194" lon="8.50254478069039"><ele>91.5</ele><time>2026-04-10T12:57:11.001Z</time></trkpt><trkpt lat="39.42596661350077" lon="8.502361223346396"><ele>93.0</ele><time>2026-04-10T12:57:12.001Z</time></trkpt><trkpt lat="39.425996099816324" lon="8.502193736224607"><ele>94.5</ele><time>2026-04-10T12:57:13.001Z</time></trkpt><trkpt lat="39.42601981281656" lon="8.50203846029092"><ele>96.0</ele><time>2026-04-10T12:57:14.001Z</time></trkpt><trkpt lat="39.426024791920476" lon="8.501887798087521"><ele>97.75</ele><time>2026-04-10T12:57:15.001Z</time></trkpt><trkpt lat="39.426007863371886" lon="8.50174128941661"><ele>99.5</ele><time>2026-04-10T12:57:16.001Z</time></trkpt><trkpt lat="39.425970110248166" lon="8.501610161454959"><ele>101.25</ele><time>2026-04-10T12:57:17.001Z</time></trkpt><trkpt lat="39.42591602036779" lon="8.501476280089847"><ele>103.0</ele><time>2026-04-10T12:57:18.001Z</time></trkpt><trkpt lat="39.42584946387466" lon="8.501350341113618"><ele>103.0</ele><time>2026-04-10T12:57:19.001Z</time></trkpt><trkpt lat="39.42576078273443" lon="8.501254330473513"><ele>103.0</ele><time>2026-04-10T12:57:20.001Z</time></trkpt><trkpt lat="39.42564198435648" lon="8.5012046041018"><ele>103.0</ele><time>2026-04-10T12:57:21.001Z</time></trkpt><trkpt lat="39.42550680396635" lon="8.501199721966408"><ele>103.0</ele><time>2026-04-10T12:57:22.001Z</time></trkpt><trkpt lat="39.42535637225774" lon="8.50119064109036"><ele>104.0</ele><time>2026-04-10T12:57:23.001Z</time></trkpt><trkpt lat="39.4252088031621" lon="8.501143108928195"><ele>105.0</ele><time>2026-04-10T12:57:24.001Z</time></trkpt><trkpt lat="39.42507360535605" lon="8.501062634751007"><ele>106.0</ele><time>2026-04-10T12:57:25.001Z</time></trkpt><trkpt lat="39.42494566449113" lon="8.500960345722323"><ele>106.0</ele><time>2026-04-10T12:57:26.001Z</time></trkpt><trkpt lat="39.42482555585271" lon="8.500828958670725"><ele>106.0</ele><time>2026-04-10T12:57:27.001Z</time></trkpt><trkpt lat="39.424726541059066" lon="8.500657837164216"><ele>106.0</ele><time>2026-04-10T12:57:28.001Z</time></trkpt><trkpt lat="39.42462666890384" lon="8.500483391098564"><ele>107.0</ele><time>2026-04-10T12:57:29.001Z</time></trkpt><trkpt lat="39.42454956197498" lon="8.500324502733882"><ele>108.0</ele><time>2026-04-10T12:57:30.001Z</time></trkpt><trkpt lat="39.42447866602337" lon="8.5001774917168"><ele>109.0</ele><time>2026-04-10T12:57:31.001Z</time></trkpt><trkpt lat="39.424414754648126" lon="8.500048305289917"><ele>110.0</ele><time>2026-04-10T12:57:32.001Z</time></trkpt><trkpt lat="39.42435158018045" lon="8.49996149636578"><ele>110.0</ele><time>2026-04-10T12:57:33.001Z</time></trkpt><trkpt lat="39.42426868776136" lon="8.499926296772978"><ele>110.0</ele><time>2026-04-10T12:57:34.001Z</time></trkpt><trkpt lat="39.424163586781354" lon="8.499942889978488"><ele>110.0</ele><time>2026-04-10T12:57:35.001Z</time></trkpt><trkpt lat="39.424040898789805" lon="8.50002504495333"><ele>110.0</ele><time>2026-04-10T12:57:36.001Z</time></trkpt><trkpt lat="39.42390668680206" lon="8.500154775056723"><ele>109.0</ele><time>2026-04-10T12:57:37.001Z</time></trkpt><trkpt lat="39.42377904864608" lon="8.50027073209438"><ele>108.0</ele><time>2026-04-10T12:57:38.001Z</time></trkpt><trkpt lat="39.423646475839384" lon="8.500349372951984"><ele>107.0</ele><time>2026-04-10T12:57:39.001Z</time></trkpt><trkpt lat="39.42352471421058" lon="8.500426936480645"><ele>106.0</ele><time>2026-04-10T12:57:40.001Z</time></trkpt><trkpt lat="39.423394430165246" lon="8.500453015153978"><ele>106.0</ele><time>2026-04-10T12:57:41.001Z</time></trkpt><trkpt lat="39.42325368848819" lon="8.500483796697877"><ele>106.0</ele><time>2026-04-10T12:57:42.001Z</time></trkpt><trkpt lat="39.423112028540935" lon="8.500543935404554"><ele>106.0</ele><time>2026-04-10T12:57:43.001Z</time></trkpt><trkpt lat="39.42297045983137" lon="8.500623438310033"><ele>106.0</ele><time>2026-04-10T12:57:44.001Z</time></trkpt><trkpt lat="39.42282997186733" lon="8.500686539587825"><ele>105.6</ele><time>2026-04-10T12:57:45.001Z</time></trkpt><trkpt lat="39.42272959865703" lon="8.500734822744336"><ele>105.19999999999999</ele><time>2026-04-10T12:57:46.001Z</time></trkpt><trkpt lat="39.42265397192096" lon="8.50076473446388"><ele>104.80000000000001</ele><time>2026-04-10T12:57:47.001Z</time></trkpt><trkpt lat="39.42257452423391" lon="8.50072500232325"><ele>104.4</ele><time>2026-04-10T12:57:48.001Z</time></trkpt><trkpt lat="39.42251336864827" lon="8.500631976998747"><ele>104.0</ele><time>2026-04-10T12:57:49.001Z</time></trkpt><trkpt lat="39.42249367573625" lon="8.500493480704707"><ele>106.0</ele><time>2026-04-10T12:57:50.001Z</time></trkpt><trkpt lat="39.422525526462714" lon="8.500337341460304"><ele>108.0</ele><time>2026-04-10T12:57:51.001Z</time></trkpt><trkpt lat="39.42258156314438" lon="8.500184236257649"><ele>110.0</ele><time>2026-04-10T12:57:52.001Z</time></trkpt><trkpt lat="39.42261980783014" lon="8.500032527958158"><ele>112.0</ele><time>2026-04-10T12:57:53.001Z</time></trkpt><trkpt lat="39.42257395192056" lon="8.499876342987372"><ele>112.0</ele><time>2026-04-10T12:57:54.001Z</time></trkpt><trkpt lat="39.422488864694515" lon="8.499706726572544"><ele>112.0</ele><time>2026-04-10T12:57:55.002Z</time></trkpt><trkpt lat="39.42240085745307" lon="8.499519492734114"><ele>112.0</ele><time>2026-04-10T12:57:56.002Z</time></trkpt><trkpt lat="39.42232324984902" lon="8.499313541811109"><ele>115.33333333333334</ele><time>2026-04-10T12:57:57.002Z</time></trkpt><trkpt lat="39.422265734553044" lon="8.499100826703522"><ele>118.66666666666666</ele><time>2026-04-10T12:57:58.002Z</time></trkpt><trkpt lat="39.42222127997372" lon="8.498886948017203"><ele>122.0</ele><time>2026-04-10T12:57:59.002Z</time></trkpt><trkpt lat="39.422192452936834" lon="8.498659344728711"><ele>125.33333333333333</ele><time>2026-04-10T12:58:00.002Z</time></trkpt><trkpt lat="39.42216591626829" lon="8.49843671971578"><ele>128.66666666666666</ele><time>2026-04-10T12:58:01.002Z</time></trkpt><trkpt lat="39.422123305312816" lon="8.498225069842029"><ele>132.0</ele><time>2026-04-10T12:58:02.002Z</time></trkpt><trkpt lat="39.4220536609631" lon="8.498026972712692"><ele>125.0</ele><time>2026-04-10T12:58:03.002Z</time></trkpt><trkpt lat="39.42194759227705" lon="8.497859029103383"><ele>118.0</ele><time>2026-04-10T12:58:04.002Z</time></trkpt><trkpt lat="39.42181811240226" lon="8.497726246430222"><ele>111.0</ele><time>2026-04-10T12:58:05.002Z</time></trkpt><trkpt lat="39.42170295437476" lon="8.497602551660822"><ele>111.0</ele><time>2026-04-10T12:58:06.002Z</time></trkpt><trkpt lat="39.42161537728839" lon="8.497430556545703"><ele>111.0</ele><time>2026-04-10T12:58:07.002Z</time></trkpt><trkpt lat="39.42156423101085" lon="8.497215777751116"><ele>111.0</ele><time>2026-04-10T12:58:08.002Z</time></trkpt><trkpt lat="39.42155476192014" lon="8.496988744017278"><ele>113.33333333333334</ele><time>2026-04-10T12:58:09.002Z</time></trkpt><trkpt lat="39.42159701751205" lon="8.496750697447824"><ele>115.66666666666667</ele><time>2026-04-10T12:58:10.002Z</time></trkpt><trkpt lat="39.42164136698241" lon="8.496513304116764"><ele>118.0</ele><time>2026-04-10T12:58:11.002Z</time></trkpt><trkpt lat="39.421655225747976" lon="8.496301206366136"><ele>116.80000000000001</ele><time>2026-04-10T12:58:12.002Z</time></trkpt><trkpt lat="39.42163492764117" lon="8.496123235582974"><ele>115.60000000000001</ele><time>2026-04-10T12:58:13.002Z</time></trkpt><trkpt lat="39.421593330416066" lon="8.495986735648847"><ele>114.39999999999999</ele><time>2026-04-10T12:58:14.002Z</time></trkpt><trkpt lat="39.421535826069736" lon="8.495898651017617"><ele>113.19999999999999</ele><time>2026-04-10T12:58:15.002Z</time></trkpt><trkpt lat="39.4214509681204" lon="8.495852002457594"><ele>112.0</ele><time>2026-04-10T12:58:16.002Z</time></trkpt><trkpt lat="39.42131232072245" lon="8.49585699628578"><ele>112.0</ele><time>2026-04-10T12:58:17.002Z</time></trkpt><trkpt lat="39.42116095961027" lon="8.49586521542156"><ele>112.0</ele><time>2026-04-10T12:58:18.002Z</time></trkpt><trkpt lat="39.42105778916367" lon="8.495849791295381"><ele>112.0</ele><time>2026-04-10T12:58:19.002Z</time></trkpt><trkpt lat="39.42098296415394" lon="8.49573946570971"><ele>112.0</ele><time>2026-04-10T12:58:20.002Z</time></trkpt><trkpt lat="39.42091800017311" lon="8.495554348855986"><ele>115.33333333333334</ele><time>2026-04-10T12:58:21.002Z</time></trkpt><trkpt lat="39.42083106673101" lon="8.495364701255772"><ele>118.66666666666666</ele><time>2026-04-10T12:58:22.002Z</time></trkpt><trkpt lat="39.42072167116127" lon="8.495188959477357"><ele>122.0</ele><time>2026-04-10T12:58:23.002Z</time></trkpt><trkpt lat="39.4205591670614" lon="8.49502650146514"><ele>118.66666666666666</ele><time>2026-04-10T12:58:24.002Z</time></trkpt><trkpt lat="39.42037468431396" lon="8.494889738489764"><ele>115.33333333333334</ele><time>2026-04-10T12:58:25.002Z</time></trkpt><trkpt lat="39.420206826608535" lon="8.494775756716267"><ele>112.0</ele><time>2026-04-10T12:58:26.001Z</time></trkpt><trkpt lat="39.420059649062864" lon="8.494663014790047"><ele>115.25</ele><time>2026-04-10T12:58:27.001Z</time></trkpt><trkpt lat="39.419929442266884" lon="8.494555673849375"><ele>118.5</ele><time>2026-04-10T12:58:28.001Z</time></trkpt><trkpt lat="39.41981212991205" lon="8.494450129390424"><ele>121.75</ele><time>2026-04-10T12:58:29.001Z</time></trkpt><trkpt lat="39.4197207044992" lon="8.494340926847066"><ele>125.0</ele><time>2026-04-10T12:58:30.001Z</time></trkpt><trkpt lat="39.419666805600485" lon="8.494210684638993"><ele>125.0</ele><time>2026-04-10T12:58:31.001Z</time></trkpt><trkpt lat="39.41965721567539" lon="8.49404054283229"><ele>125.0</ele><time>2026-04-10T12:58:32.001Z</time></trkpt><trkpt lat="39.41967992788362" lon="8.493841122977372"><ele>125.0</ele><time>2026-04-10T12:58:33.001Z</time></trkpt><trkpt lat="39.41965987690298" lon="8.49364514235551"><ele>125.0</ele><time>2026-04-10T12:58:34.001Z</time></trkpt><trkpt lat="39.41958965679399" lon="8.493469082989488"><ele>123.25</ele><time>2026-04-10T12:58:35.001Z</time></trkpt><trkpt lat="39.41947642470808" lon="8.493327828235532"><ele>121.5</ele><time>2026-04-10T12:58:36.001Z</time></trkpt><trkpt lat="39.419363494911025" lon="8.493239413532965"><ele>119.75</ele><time>2026-04-10T12:58:37.001Z</time></trkpt><trkpt lat="39.419275016941754" lon="8.493145102564826"><ele>118.0</ele><time>2026-04-10T12:58:38.001Z</time></trkpt><trkpt lat="39.419242421421416" lon="8.493024894416317"><ele>118.75</ele><time>2026-04-10T12:58:39.001Z</time></trkpt><trkpt lat="39.41926860696148" lon="8.49291176963578"><ele>119.5</ele><time>2026-04-10T12:58:40.001Z</time></trkpt><trkpt lat="39.41935203299156" lon="8.492786581049916"><ele>120.25</ele><time>2026-04-10T12:58:41.001Z</time></trkpt><trkpt lat="39.41945520462009" lon="8.49264415551999"><ele>121.0</ele><time>2026-04-10T12:58:42.001Z</time></trkpt><trkpt lat="39.41950434997851" lon="8.492511742798735"><ele>121.0</ele><time>2026-04-10T12:58:43Z</time></trkpt><trkpt lat="39.41949931399154" lon="8.492361241547847"><ele>121.0</ele><time>2026-04-10T12:58:44.001Z</time></trkpt><trkpt lat="39.419432456581816" lon="8.492170229571347"><ele>121.0</ele><time>2026-04-10T12:58:45.001Z</time></trkpt><trkpt lat="39.419331941273335" lon="8.491987242042246"><ele>125.33333333333334</ele><time>2026-04-10T12:58:46.001Z</time></trkpt><trkpt lat="39.41920989453709" lon="8.491821588393934"><ele>129.66666666666666</ele><time>2026-04-10T12:58:47.001Z</time></trkpt><trkpt lat="39.419060793493244" lon="8.49169976382215"><ele>134.0</ele><time>2026-04-10T12:58:48.001Z</time></trkpt><trkpt lat="39.41890514998545" lon="8.491619895641929"><ele>131.5</ele><time>2026-04-10T12:58:49.001Z</time></trkpt><trkpt lat="39.41875988503214" lon="8.491564001668198"><ele>129.0</ele><time>2026-04-10T12:58:50.001Z</time></trkpt><trkpt lat="39.418636122732764" lon="8.491499001967517"><ele>126.5</ele><time>2026-04-10T12:58:51.001Z</time></trkpt><trkpt lat="39.41852584024461" lon="8.491463714525985"><ele>124.0</ele><time>2026-04-10T12:58:52.001Z</time></trkpt><trkpt lat="39.418458810919766" lon="8.491386006943504"><ele>124.0</ele><time>2026-04-10T12:58:53.001Z</time></trkpt><trkpt lat="39.418425625038324" lon="8.491268529864003"><ele>124.0</ele><time>2026-04-10T12:58:54.001Z</time></trkpt><trkpt lat="39.41843792081495" lon="8.491116023869392"><ele>124.0</ele><time>2026-04-10T12:58:55.001Z</time></trkpt><trkpt lat="39.418488208325385" lon="8.49095752592994"><ele>124.0</ele><time>2026-04-10T12:58:56.001Z</time></trkpt><trkpt lat="39.41854530441023" lon="8.490787559838834"><ele>124.75</ele><time>2026-04-10T12:58:57.001Z</time></trkpt><trkpt lat="39.4185950532119" lon="8.490609239945258"><ele>125.5</ele><time>2026-04-10T12:58:58.001Z</time></trkpt><trkpt lat="39.41863460045757" lon="8.490440718848044"><ele>126.25</ele><time>2026-04-10T12:58:59.001Z</time></trkpt><trkpt lat="39.41866463001889" lon="8.490292899070097"><ele>127.0</ele><time>2026-04-10T12:59:00.001Z</time></trkpt><trkpt lat="39.41866014696908" lon="8.49015042985958"><ele>127.5</ele><time>2026-04-10T12:59:01.001Z</time></trkpt><trkpt lat="39.418612922779296" lon="8.4899920908131"><ele>128.0</ele><time>2026-04-10T12:59:02.001Z</time></trkpt><trkpt lat="39.418536913044235" lon="8.489850993385664"><ele>128.5</ele><time>2026-04-10T12:59:03.001Z</time></trkpt><trkpt lat="39.418468461073225" lon="8.48970728051631"><ele>129.0</ele><time>2026-04-10T12:59:04.001Z</time></trkpt><trkpt lat="39.41840167118974" lon="8.489593950181401"><ele>129.0</ele><time>2026-04-10T12:59:05.001Z</time></trkpt><trkpt lat="39.418306180099044" lon="8.489539523136004"><ele>129.0</ele><time>2026-04-10T12:59:06.001Z</time></trkpt><trkpt lat="39.41818120097789" lon="8.489543511442516"><ele>129.0</ele><time>2026-04-10T12:59:07.001Z</time></trkpt><trkpt lat="39.41803244883964" lon="8.489611194008312"><ele>129.0</ele><time>2026-04-10T12:59:08.001Z</time></trkpt><trkpt lat="39.417883511023454" lon="8.489707043429489"><ele>129.25</ele><time>2026-04-10T12:59:09.001Z</time></trkpt><trkpt lat="39.41774971983517" lon="8.4898193240661"><ele>129.5</ele><time>2026-04-10T12:59:10.001Z</time></trkpt><trkpt lat="39.417635182581456" lon="8.489874123146384"><ele>129.75</ele><time>2026-04-10T12:59:11.001Z</time></trkpt><trkpt lat="39.41754633316611" lon="8.489891660271198"><ele>130.0</ele><time>2026-04-10T12:59:12.001Z</time></trkpt><trkpt lat="39.41746637349604" lon="8.489852724177691"><ele>130.0</ele><time>2026-04-10T12:59:13.001Z</time></trkpt><trkpt lat="39.41740772316678" lon="8.489776715702792"><ele>130.0</ele><time>2026-04-10T12:59:14.001Z</time></trkpt><trkpt lat="39.417360219289854" lon="8.489648713442827"><ele>130.0</ele><time>2026-04-10T12:59:15.001Z</time></trkpt><trkpt lat="39.417317478573956" lon="8.489485237726985"><ele>130.0</ele><time>2026-04-10T12:59:16.001Z</time></trkpt><trkpt lat="39.41726505917972" lon="8.48933103027935"><ele>130.5</ele><time>2026-04-10T12:59:17.001Z</time></trkpt><trkpt lat="39.41715477868095" lon="8.489178727439871"><ele>131.0</ele><time>2026-04-10T12:59:18.001Z</time></trkpt><trkpt lat="39.41703798679157" lon="8.489056238701451"><ele>131.5</ele><time>2026-04-10T12:59:19.001Z</time></trkpt><trkpt lat="39.41693389012515" lon="8.488966496521861"><ele>132.0</ele><time>2026-04-10T12:59:20.001Z</time></trkpt><trkpt lat="39.41687073852156" lon="8.488877624094481"><ele>132.0</ele><time>2026-04-10T12:59:21.001Z</time></trkpt><trkpt lat="39.41685729478206" lon="8.488779776514356"><ele>132.0</ele><time>2026-04-10T12:59:22.001Z</time></trkpt><trkpt lat="39.41690843564363" lon="8.4886796766352"><ele>132.0</ele><time>2026-04-10T12:59:23.001Z</time></trkpt><trkpt lat="39.41700813590228" lon="8.48858506802319"><ele>132.0</ele><time>2026-04-10T12:59:24.001Z</time></trkpt><trkpt lat="39.41711146017199" lon="8.488465379954453"><ele>132.0</ele><time>2026-04-10T12:59:25.001Z</time></trkpt><trkpt lat="39.41716098254721" lon="8.488313056530766"><ele>132.66666666666666</ele><time>2026-04-10T12:59:26.001Z</time></trkpt><trkpt lat="39.41714828408384" lon="8.488114859711688"><ele>133.33333333333331</ele><time>2026-04-10T12:59:27.001Z</time></trkpt><trkpt lat="39.41708328404033" lon="8.487930364466596"><ele>134.0</ele><time>2026-04-10T12:59:28.001Z</time></trkpt><trkpt lat="39.416974989231186" lon="8.48775397029623"><ele>135.0</ele><time>2026-04-10T12:59:29.001Z</time></trkpt><trkpt lat="39.4168426349537" lon="8.487613674665095"><ele>136.0</ele><time>2026-04-10T12:59:30.001Z</time></trkpt><trkpt lat="39.41670673822086" lon="8.487499841479144"><ele>137.0</ele><time>2026-04-10T12:59:31.001Z</time></trkpt><trkpt lat="39.41659319291644" lon="8.487355052819948"><ele>137.0</ele><time>2026-04-10T12:59:32.001Z</time></trkpt><trkpt lat="39.4164882568912" lon="8.48721308717869"><ele>137.0</ele><time>2026-04-10T12:59:33.001Z</time></trkpt><trkpt lat="39.41639878292865" lon="8.487049145732769"><ele>137.0</ele><time>2026-04-10T12:59:34.001Z</time></trkpt><trkpt lat="39.416291685601" lon="8.486850675321591"><ele>141.0</ele><time>2026-04-10T12:59:35.001Z</time></trkpt><trkpt lat="39.41617764612474" lon="8.486642139031384"><ele>145.0</ele><time>2026-04-10T12:59:36.001Z</time></trkpt><trkpt lat="39.41602568436587" lon="8.486462034228062"><ele>149.0</ele><time>2026-04-10T12:59:37.001Z</time></trkpt><trkpt lat="39.415842775154005" lon="8.486304310072082"><ele>150.0</ele><time>2026-04-10T12:59:38.001Z</time></trkpt><trkpt lat="39.41564007857796" lon="8.486160218849054"><ele>151.0</ele><time>2026-04-10T12:59:39.001Z</time></trkpt><trkpt lat="39.41545804637897" lon="8.485983958560077"><ele>151.0</ele><time>2026-04-10T12:59:40.001Z</time></trkpt><trkpt lat="39.41526915645323" lon="8.485827620017485"><ele>151.0</ele><time>2026-04-10T12:59:41.001Z</time></trkpt><trkpt lat="39.41507895883659" lon="8.485692148519309"><ele>151.0</ele><time>2026-04-10T12:59:42.001Z</time></trkpt><trkpt lat="39.41492956155727" lon="8.485498082128576"><ele>149.0</ele><time>2026-04-10T12:59:43.001Z</time></trkpt><trkpt lat="39.414787284398415" lon="8.48529299212125"><ele>147.0</ele><time>2026-04-10T12:59:44.001Z</time></trkpt><trkpt lat="39.41467670937919" lon="8.485095076432135"><ele>145.0</ele><time>2026-04-10T12:59:45.001Z</time></trkpt><trkpt lat="39.41458970652016" lon="8.484900554933095"><ele>145.0</ele><time>2026-04-10T12:59:46.001Z</time></trkpt><trkpt lat="39.414580929402234" lon="8.48469352036525"><ele>145.0</ele><time>2026-04-10T12:59:47.001Z</time></trkpt><trkpt lat="39.41455696568497" lon="8.484476318131055"><ele>145.0</ele><time>2026-04-10T12:59:48.001Z</time></trkpt><trkpt lat="39.4145540076257" lon="8.484218102127572"><ele>147.66666666666669</ele><time>2026-04-10T12:59:49.001Z</time></trkpt><trkpt lat="39.41453471047725" lon="8.483940848623545"><ele>150.33333333333334</ele><time>2026-04-10T12:59:50.001Z</time></trkpt><trkpt lat="39.414516619847035" lon="8.483683235846172"><ele>153.0</ele><time>2026-04-10T12:59:51.001Z</time></trkpt><trkpt lat="39.41452581547101" lon="8.483450533096427"><ele>153.66666666666666</ele><time>2026-04-10T12:59:52.001Z</time></trkpt><trkpt lat="39.41456019717156" lon="8.483251075064782"><ele>154.33333333333331</ele><time>2026-04-10T12:59:53.001Z</time></trkpt><trkpt lat="39.41459732140182" lon="8.483070238555067"><ele>155.0</ele><time>2026-04-10T12:59:54.001Z</time></trkpt><trkpt lat="39.41459086602997" lon="8.482875357303085"><ele>155.33333333333331</ele><time>2026-04-10T12:59:55.001Z</time></trkpt><trkpt lat="39.41452661005337" lon="8.48266994239939"><ele>155.66666666666666</ele><time>2026-04-10T12:59:56.001Z</time></trkpt><trkpt lat="39.41440794504482" lon="8.482484434228995"><ele>156.0</ele><time>2026-04-10T12:59:57.001Z</time></trkpt><trkpt lat="39.414263841539324" lon="8.482311401491451"><ele>156.0</ele><time>2026-04-10T12:59:58.001Z</time></trkpt><trkpt lat="39.414155484567054" lon="8.48212120734729"><ele>156.0</ele><time>2026-04-10T12:59:59.001Z</time></trkpt><trkpt lat="39.41408097084475" lon="8.481891384132444"><ele>156.0</ele><time>2026-04-10T13:00:00.001Z</time></trkpt><trkpt lat="39.41402077211168" lon="8.481638014151946"><ele>156.0</ele><time>2026-04-10T13:00:01.001Z</time></trkpt><trkpt lat="39.41395712022403" lon="8.481398345547953"><ele>156.0</ele><time>2026-04-10T13:00:02.001Z</time></trkpt><trkpt lat="39.413887228108784" lon="8.481171271189183"><ele>156.0</ele><time>2026-04-10T13:00:03.001Z</time></trkpt><trkpt lat="39.41382026708105" lon="8.48094580765262"><ele>156.0</ele><time>2026-04-10T13:00:04.001Z</time></trkpt><trkpt lat="39.41377226065585" lon="8.48072927226272"><ele>156.0</ele><time>2026-04-10T13:00:05.001Z</time></trkpt><trkpt lat="39.4137536977175" lon="8.480529474650389"><ele>156.0</ele><time>2026-04-10T13:00:06.001Z</time></trkpt><trkpt lat="39.41374952663903" lon="8.480342113786982"><ele>158.66666666666666</ele><time>2026-04-10T13:00:07.001Z</time></trkpt><trkpt lat="39.41370837418644" lon="8.480158994461961"><ele>161.33333333333331</ele><time>2026-04-10T13:00:08.001Z</time></trkpt><trkpt lat="39.413617385481245" lon="8.479976747016673"><ele>164.0</ele><time>2026-04-10T13:00:09.001Z</time></trkpt><trkpt lat="39.41351243352933" lon="8.479826615860357"><ele>164.0</ele><time>2026-04-10T13:00:10.001Z</time></trkpt><trkpt lat="39.41340714884623" lon="8.479702569284093"><ele>164.0</ele><time>2026-04-10T13:00:11.001Z</time></trkpt><trkpt lat="39.41326471942896" lon="8.479621892617388"><ele>164.0</ele><time>2026-04-10T13:00:12.001Z</time></trkpt><trkpt lat="39.41309674031094" lon="8.479569481770929"><ele>164.5</ele><time>2026-04-10T13:00:13.001Z</time></trkpt><trkpt lat="39.41295126029348" lon="8.479527020212181"><ele>165.0</ele><time>2026-04-10T13:00:14.001Z</time></trkpt><trkpt lat="39.412850635442766" lon="8.479444431839008"><ele>165.5</ele><time>2026-04-10T13:00:15.001Z</time></trkpt><trkpt lat="39.4127817191563" lon="8.479348162169353"><ele>166.0</ele><time>2026-04-10T13:00:16.002Z</time></trkpt><trkpt lat="39.41272282730233" lon="8.479231689998214"><ele>166.0</ele><time>2026-04-10T13:00:17.002Z</time></trkpt><trkpt lat="39.41274529832448" lon="8.479057356381816"><ele>166.0</ele><time>2026-04-10T13:00:18.002Z</time></trkpt><trkpt lat="39.41278123990676" lon="8.478864837399774"><ele>166.0</ele><time>2026-04-10T13:00:19.002Z</time></trkpt><trkpt lat="39.4127923521748" lon="8.478661629120012"><ele>166.0</ele><time>2026-04-10T13:00:20.002Z</time></trkpt><trkpt lat="39.41276839743862" lon="8.478493174318293"><ele>166.75</ele><time>2026-04-10T13:00:21.002Z</time></trkpt><trkpt lat="39.41270542854074" lon="8.478332689318115"><ele>167.5</ele><time>2026-04-10T13:00:22.002Z</time></trkpt><trkpt lat="39.41260942966754" lon="8.478211482152826"><ele>168.25</ele><time>2026-04-10T13:00:23.002Z</time></trkpt><trkpt lat="39.412553362946475" lon="8.478092847304916"><ele>169.0</ele><time>2026-04-10T13:00:24.002Z</time></trkpt><trkpt lat="39.412557399782" lon="8.477952912479186"><ele>169.5</ele><time>2026-04-10T13:00:25.002Z</time></trkpt><trkpt lat="39.41261542951702" lon="8.477768731931576"><ele>170.0</ele><time>2026-04-10T13:00:26.002Z</time></trkpt><trkpt lat="39.412651263377434" lon="8.477621733172455"><ele>170.5</ele><time>2026-04-10T13:00:27.002Z</time></trkpt><trkpt lat="39.412624461953236" lon="8.477510218689515"><ele>171.0</ele><time>2026-04-10T13:00:28.002Z</time></trkpt><trkpt lat="39.41253200077055" lon="8.477407534836809"><ele>171.0</ele><time>2026-04-10T13:00:29.002Z</time></trkpt><trkpt lat="39.41237937459961" lon="8.477311425916676"><ele>171.0</ele><time>2026-04-10T13:00:30.002Z</time></trkpt><trkpt lat="39.41220506365736" lon="8.4771992484162"><ele>171.0</ele><time>2026-04-10T13:00:31.002Z</time></trkpt><trkpt lat="39.412032155862384" lon="8.47705724396702"><ele>174.66666666666666</ele><time>2026-04-10T13:00:32.001Z</time></trkpt><trkpt lat="39.41181419580892" lon="8.476997350183831"><ele>178.33333333333331</ele><time>2026-04-10T13:00:33.001Z</time></trkpt><trkpt lat="39.41161117106712" lon="8.47690731486606"><ele>182.0</ele><time>2026-04-10T13:00:34.001Z</time></trkpt><trkpt lat="39.411441297142474" lon="8.476822687188925"><ele>181.25</ele><time>2026-04-10T13:00:35.001Z</time></trkpt><trkpt lat="39.411289181049995" lon="8.476743197295605"><ele>180.5</ele><time>2026-04-10T13:00:36.001Z</time></trkpt><trkpt lat="39.41116808939811" lon="8.476658410900182"><ele>179.75</ele><time>2026-04-10T13:00:37.001Z</time></trkpt><trkpt lat="39.411091049809734" lon="8.476498992673521"><ele>179.0</ele><time>2026-04-10T13:00:38.001Z</time></trkpt><trkpt lat="39.410981525152636" lon="8.47633281070663"><ele>186.33333333333331</ele><time>2026-04-10T13:00:39.001Z</time></trkpt><trkpt lat="39.410870152828544" lon="8.47616728310628"><ele>193.66666666666666</ele><time>2026-04-10T13:00:40.001Z</time></trkpt><trkpt lat="39.410717247300404" lon="8.476041711450383"><ele>201.0</ele><time>2026-04-10T13:00:41.001Z</time></trkpt><trkpt lat="39.41052602255747" lon="8.475955782472068"><ele>198.0</ele><time>2026-04-10T13:00:42.001Z</time></trkpt><trkpt lat="39.41029758476083" lon="8.4759151381117"><ele>195.0</ele><time>2026-04-10T13:00:43.001Z</time></trkpt><trkpt lat="39.41009462466111" lon="8.475873890043221"><ele>192.0</ele><time>2026-04-10T13:00:44.001Z</time></trkpt><trkpt lat="39.409924634588435" lon="8.475846146729634"><ele>192.0</ele><time>2026-04-10T13:00:45.001Z</time></trkpt><trkpt lat="39.40977344016141" lon="8.475821592547419"><ele>192.0</ele><time>2026-04-10T13:00:46.001Z</time></trkpt><trkpt lat="39.409655244888384" lon="8.47580012478524"><ele>192.0</ele><time>2026-04-10T13:00:47.001Z</time></trkpt><trkpt lat="39.409567658196494" lon="8.475772680702919"><ele>192.0</ele><time>2026-04-10T13:00:48.001Z</time></trkpt><trkpt lat="39.40951104419479" lon="8.475681676545781"><ele>193.0</ele><time>2026-04-10T13:00:49.001Z</time></trkpt><trkpt lat="39.40950218831412" lon="8.475558423696157"><ele>194.0</ele><time>2026-04-10T13:00:50.001Z</time></trkpt><trkpt lat="39.409543396507566" lon="8.475428765050037"><ele>195.0</ele><time>2026-04-10T13:00:51.001Z</time></trkpt><trkpt lat="39.40961930080915" lon="8.4752446228213"><ele>196.0</ele><time>2026-04-10T13:00:52.001Z</time></trkpt><trkpt lat="39.409603411294064" lon="8.475051332697268"><ele>196.66666666666666</ele><time>2026-04-10T13:00:53.001Z</time></trkpt><trkpt lat="39.40954284922079" lon="8.474872393657018"><ele>197.33333333333331</ele><time>2026-04-10T13:00:54.001Z</time></trkpt><trkpt lat="39.40942585912023" lon="8.474728102171863"><ele>198.0</ele><time>2026-04-10T13:00:55.001Z</time></trkpt><trkpt lat="39.40926649908316" lon="8.474607759056713"><ele>200.0</ele><time>2026-04-10T13:00:56.001Z</time></trkpt><trkpt lat="39.40910913371133" lon="8.474483634983715"><ele>202.0</ele><time>2026-04-10T13:00:57.001Z</time></trkpt><trkpt lat="39.408937885379494" lon="8.474371410649557"><ele>204.0</ele><time>2026-04-10T13:00:58.001Z</time></trkpt><trkpt lat="39.40873617904008" lon="8.474275256040121"><ele>204.0</ele><time>2026-04-10T13:00:59.001Z</time></trkpt><trkpt lat="39.408529309703624" lon="8.47419765876985"><ele>204.0</ele><time>2026-04-10T13:01:00.001Z</time></trkpt><trkpt lat="39.40833308677998" lon="8.474124260714902"><ele>204.0</ele><time>2026-04-10T13:01:01.001Z</time></trkpt><trkpt lat="39.4081451488676" lon="8.4740531952591"><ele>203.5</ele><time>2026-04-10T13:01:02.001Z</time></trkpt><trkpt lat="39.407977806144274" lon="8.473990138592416"><ele>203.0</ele><time>2026-04-10T13:01:03.001Z</time></trkpt><trkpt lat="39.40783495441948" lon="8.47393401824319"><ele>202.5</ele><time>2026-04-10T13:01:04.001Z</time></trkpt><trkpt lat="39.407719072318756" lon="8.473878071079698"><ele>202.0</ele><time>2026-04-10T13:01:05.001Z</time></trkpt><trkpt lat="39.40764323923592" lon="8.473759199341742"><ele>205.66666666666666</ele><time>2026-04-10T13:01:06.001Z</time></trkpt><trkpt lat="39.40760456886688" lon="8.473605360758073"><ele>209.33333333333331</ele><time>2026-04-10T13:01:07.001Z</time></trkpt><trkpt lat="39.40761530129967" lon="8.473416566853974"><ele>213.0</ele><time>2026-04-10T13:01:08.001Z</time></trkpt><trkpt lat="39.40765845489019" lon="8.473191256632614"><ele>213.0</ele><time>2026-04-10T13:01:09.001Z</time></trkpt><trkpt lat="39.407692260303044" lon="8.473009793758044"><ele>213.0</ele><time>2026-04-10T13:01:10.001Z</time></trkpt><trkpt lat="39.40768682854124" lon="8.472836023929608"><ele>213.0</ele><time>2026-04-10T13:01:11.001Z</time></trkpt><trkpt lat="39.40763706595476" lon="8.47266032832498"><ele>213.0</ele><time>2026-04-10T13:01:12.001Z</time></trkpt><trkpt lat="39.40751368742579" lon="8.472483460911363"><ele>216.75</ele><time>2026-04-10T13:01:13.001Z</time></trkpt><trkpt lat="39.40738822995838" lon="8.472343800568641"><ele>220.5</ele><time>2026-04-10T13:01:14.001Z</time></trkpt><trkpt lat="39.40730355320796" lon="8.47220932766291"><ele>224.25</ele><time>2026-04-10T13:01:15.001Z</time></trkpt><trkpt lat="39.4072490752934" lon="8.472080428140162"><ele>228.0</ele><time>2026-04-10T13:01:16.001Z</time></trkpt><trkpt lat="39.4072340641027" lon="8.471946771061639"><ele>231.5</ele><time>2026-04-10T13:01:17.001Z</time></trkpt><trkpt lat="39.40727569316161" lon="8.471787284801165"><ele>235.0</ele><time>2026-04-10T13:01:18.001Z</time></trkpt><trkpt lat="39.40730992058515" lon="8.471621832227704"><ele>238.5</ele><time>2026-04-10T13:01:19.001Z</time></trkpt><trkpt lat="39.40726668280089" lon="8.47145183649214"><ele>242.0</ele><time>2026-04-10T13:01:20.001Z</time></trkpt><trkpt lat="39.407184676475225" lon="8.47129966990427"><ele>239.66666666666669</ele><time>2026-04-10T13:01:21.001Z</time></trkpt><trkpt lat="39.407078356216786" lon="8.471183968386432"><ele>237.33333333333331</ele><time>2026-04-10T13:01:22.001Z</time></trkpt><trkpt lat="39.406956721076966" lon="8.471084349536476"><ele>235.0</ele><time>2026-04-10T13:01:23.001Z</time></trkpt><trkpt lat="39.40678303760545" lon="8.471078427904049"><ele>235.0</ele><time>2026-04-10T13:01:24.001Z</time></trkpt><trkpt lat="39.406609419322514" lon="8.471087034867182"><ele>235.0</ele><time>2026-04-10T13:01:25.001Z</time></trkpt><trkpt lat="39.40647057566502" lon="8.471027411913342"><ele>235.0</ele><time>2026-04-10T13:01:26.001Z</time></trkpt><trkpt lat="39.40632372905488" lon="8.47093174077662"><ele>236.5</ele><time>2026-04-10T13:01:27.001Z</time></trkpt><trkpt lat="39.40619460748936" lon="8.47085489361721"><ele>238.0</ele><time>2026-04-10T13:01:28.001Z</time></trkpt><trkpt lat="39.40605733957342" lon="8.470835820311986"><ele>239.5</ele><time>2026-04-10T13:01:29.001Z</time></trkpt><trkpt lat="39.405899504082" lon="8.470885764011884"><ele>241.0</ele><time>2026-04-10T13:01:30.001Z</time></trkpt><trkpt lat="39.405718022563185" lon="8.470989978105033"><ele>241.0</ele><time>2026-04-10T13:01:31.001Z</time></trkpt><trkpt lat="39.40556869795954" lon="8.471075281335782"><ele>241.0</ele><time>2026-04-10T13:01:32.001Z</time></trkpt><trkpt lat="39.40543400655738" lon="8.47115233727171"><ele>241.0</ele><time>2026-04-10T13:01:33.001Z</time></trkpt><trkpt lat="39.40531292714184" lon="8.471216862166745"><ele>241.0</ele><time>2026-04-10T13:01:34.001Z</time></trkpt><trkpt lat="39.40519368361708" lon="8.471255202582881"><ele>243.0</ele><time>2026-04-10T13:01:35.001Z</time></trkpt><trkpt lat="39.4050615516531" lon="8.471208896428903"><ele>245.0</ele><time>2026-04-10T13:01:36.001Z</time></trkpt><trkpt lat="39.40494730897289" lon="8.471137678723474"><ele>247.0</ele><time>2026-04-10T13:01:37.001Z</time></trkpt><trkpt lat="39.404826110856234" lon="8.47114071556693"><ele>249.0</ele><time>2026-04-10T13:01:38.001Z</time></trkpt><trkpt lat="39.40469717466256" lon="8.471232244085108"><ele>250.0</ele><time>2026-04-10T13:01:39.001Z</time></trkpt><trkpt lat="39.404573515470304" lon="8.471382374467131"><ele>251.0</ele><time>2026-04-10T13:01:40.001Z</time></trkpt><trkpt lat="39.40448938853541" lon="8.471564011404123"><ele>252.0</ele><time>2026-04-10T13:01:41.001Z</time></trkpt><trkpt lat="39.40447187234175" lon="8.471789765379958"><ele>252.0</ele><time>2026-04-10T13:01:42.001Z</time></trkpt><trkpt lat="39.40445551762798" lon="8.472001177128337"><ele>252.0</ele><time>2026-04-10T13:01:43.001Z</time></trkpt><trkpt lat="39.40442269799432" lon="8.47216129793266"><ele>252.0</ele><time>2026-04-10T13:01:44.001Z</time></trkpt><trkpt lat="39.40439748036074" lon="8.472285715274797"><ele>252.0</ele><time>2026-04-10T13:01:45.001Z</time></trkpt><trkpt lat="39.40431575996154" lon="8.472356947501726"><ele>253.25</ele><time>2026-04-10T13:01:46.001Z</time></trkpt><trkpt lat="39.40420016898334" lon="8.472332721873839"><ele>254.5</ele><time>2026-04-10T13:01:47.001Z</time></trkpt><trkpt lat="39.40405797725085" lon="8.472309877801269"><ele>255.75</ele><time>2026-04-10T13:01:48.001Z</time></trkpt><trkpt lat="39.40392941718765" lon="8.472306524766875"><ele>257.0</ele><time>2026-04-10T13:01:49.001Z</time></trkpt><trkpt lat="39.40381209454881" lon="8.472335194944737"><ele>257.0</ele><time>2026-04-10T13:01:50.001Z</time></trkpt><trkpt lat="39.40371720769249" lon="8.472385293875355"><ele>257.0</ele><time>2026-04-10T13:01:51.001Z</time></trkpt><trkpt lat="39.40360068952467" lon="8.472465325691664"><ele>257.0</ele><time>2026-04-10T13:01:52.001Z</time></trkpt><trkpt lat="39.40351824136416" lon="8.472588189131697"><ele>257.0</ele><time>2026-04-10T13:01:53.001Z</time></trkpt><trkpt lat="39.4034572759741" lon="8.47270432629751"><ele>257.0</ele><time>2026-04-10T13:01:54.001Z</time></trkpt><trkpt lat="39.40339915920607" lon="8.47281625893259"><ele>257.0</ele><time>2026-04-10T13:01:55.001Z</time></trkpt><trkpt lat="39.40334388096465" lon="8.472922980337497"><ele>257.0</ele><time>2026-04-10T13:01:56.001Z</time></trkpt><trkpt lat="39.40329159837599" lon="8.473029571677761"><ele>257.0</ele><time>2026-04-10T13:01:57.001Z</time></trkpt><trkpt lat="39.40323739653594" lon="8.473121017018318"><ele>257.0</ele><time>2026-04-10T13:01:58.001Z</time></trkpt><trkpt lat="39.403194213651204" lon="8.47321063797252"><ele>255.8</ele><time>2026-04-10T13:01:59.001Z</time></trkpt><trkpt lat="39.40315741037496" lon="8.473293322984068"><ele>254.6</ele><time>2026-04-10T13:02:00.001Z</time></trkpt><trkpt lat="39.40308918956846" lon="8.473410451328695"><ele>253.40000000000003</ele><time>2026-04-10T13:02:02.001Z</time></trkpt><trkpt lat="39.40303466952549" lon="8.473496859987618"><ele>252.20000000000002</ele><time>2026-04-10T13:02:04.001Z</time></trkpt><trkpt lat="39.40294971847997" lon="8.473548431283511"><ele>251.0</ele><time>2026-04-10T13:02:07.001Z</time></trkpt><trkpt lat="39.402864194791945" lon="8.473505646183801"><ele>251.0</ele><time>2026-04-10T13:02:09.001Z</time></trkpt><trkpt lat="39.40284870270479" lon="8.473394621136778"><ele>251.00000000000003</ele><time>2026-04-10T13:02:11.001Z</time></trkpt><trkpt lat="39.402848664494904" lon="8.473231058734424"><ele>251.00000000000003</ele><time>2026-04-10T13:02:13.001Z</time></trkpt><trkpt lat="39.402829902160896" lon="8.473145444871497"><ele>251.0</ele><time>2026-04-10T13:02:14.001Z</time></trkpt><trkpt lat="39.40273759541558" lon="8.473031158613582"><ele>251.0</ele><time>2026-04-10T13:02:16.001Z</time></trkpt><trkpt lat="39.402659093758686" lon="8.472977347570307"><ele>251.00000000000003</ele><time>2026-04-10T13:02:17.001Z</time></trkpt><trkpt lat="39.402576395699775" lon="8.47294815647109"><ele>251.0</ele><time>2026-04-10T13:02:18.001Z</time></trkpt><trkpt lat="39.4025057429788" lon="8.472935820450395"><ele>251.0</ele><time>2026-04-10T13:02:19.001Z</time></trkpt><trkpt lat="39.40243565267106" lon="8.472933005124487"><ele>251.0</ele><time>2026-04-10T13:02:20.001Z</time></trkpt><trkpt lat="39.40238056392991" lon="8.472981724498977"><ele>251.00000000000003</ele><time>2026-04-10T13:02:21.001Z</time></trkpt><trkpt lat="39.40230674665785" lon="8.473094455538282"><ele>251.0</ele><time>2026-04-10T13:02:23.001Z</time></trkpt><trkpt lat="39.40223856611023" lon="8.473142077743057"><ele>252.0</ele><time>2026-04-10T13:02:25.001Z</time></trkpt><trkpt lat="39.402159203796366" lon="8.473173781720607"><ele>253.00000000000003</ele><time>2026-04-10T13:02:28.001Z</time></trkpt><trkpt lat="39.402083862197415" lon="8.473145657811934"><ele>254.00000000000003</ele><time>2026-04-10T13:02:30.001Z</time></trkpt><trkpt lat="39.40192732312826" lon="8.472978644136795"><ele>255.0</ele><time>2026-04-10T13:02:33.002Z</time></trkpt><trkpt lat="39.40185753525466" lon="8.472924017696394"><ele>256.0</ele><time>2026-04-10T13:02:34.002Z</time></trkpt><trkpt lat="39.40178132692654" lon="8.472897959961855"><ele>255.99999999999997</ele><time>2026-04-10T13:02:35.002Z</time></trkpt><trkpt lat="39.401714996658086" lon="8.472905513401678"><ele>256.0</ele><time>2026-04-10T13:02:36.002Z</time></trkpt><trkpt lat="39.401638421511414" lon="8.472926991910269"><ele>256.0</ele><time>2026-04-10T13:02:37.002Z</time></trkpt><trkpt lat="39.40156389087511" lon="8.472975045078533"><ele>256.0</ele><time>2026-04-10T13:02:38.001Z</time></trkpt><trkpt lat="39.40149830506649" lon="8.473030838082764"><ele>255.99999999999997</ele><time>2026-04-10T13:02:39.001Z</time></trkpt><trkpt lat="39.40143022911728" lon="8.473077972621182"><ele>256.0</ele><time>2026-04-10T13:02:40.001Z</time></trkpt><trkpt lat="39.401318460993444" lon="8.473104200623562"><ele>256.2</ele><time>2026-04-10T13:02:42.001Z</time></trkpt><trkpt lat="39.40119589780697" lon="8.473045605839435"><ele>256.40000000000003</ele><time>2026-04-10T13:02:44.001Z</time></trkpt><trkpt lat="39.40112715365284" lon="8.472998506057884"><ele>256.6</ele><time>2026-04-10T13:02:45.001Z</time></trkpt><trkpt lat="39.40104572005204" lon="8.47295199371512"><ele>256.8</ele><time>2026-04-10T13:02:46.001Z</time></trkpt><trkpt lat="39.40096078251718" lon="8.472915638400327"><ele>257.0</ele><time>2026-04-10T13:02:47.001Z</time></trkpt><trkpt lat="39.40087151606218" lon="8.472899348594414"><ele>257.0</ele><time>2026-04-10T13:02:48.001Z</time></trkpt><trkpt lat="39.400776578118894" lon="8.47290965576105"><ele>257.0</ele><time>2026-04-10T13:02:49.001Z</time></trkpt><trkpt lat="39.40069054878638" lon="8.472935015619372"><ele>257.0</ele><time>2026-04-10T13:02:50.001Z</time></trkpt><trkpt lat="39.40061989387598" lon="8.472971313582198"><ele>257.0</ele><time>2026-04-10T13:02:51.001Z</time></trkpt><trkpt lat="39.400554441227996" lon="8.47300632083213"><ele>257.0</ele><time>2026-04-10T13:02:52.001Z</time></trkpt><trkpt lat="39.40048546814594" lon="8.473041695750192"><ele>257.0</ele><time>2026-04-10T13:02:53.001Z</time></trkpt><trkpt lat="39.400409053268234" lon="8.473077970993412"><ele>257.1666666666667</ele><time>2026-04-10T13:02:54.001Z</time></trkpt><trkpt lat="39.400343093803905" lon="8.473108265403072"><ele>257.33333333333337</ele><time>2026-04-10T13:02:55.001Z</time></trkpt><trkpt lat="39.400282281336665" lon="8.473137653479698"><ele>257.5</ele><time>2026-04-10T13:02:56.001Z</time></trkpt><trkpt lat="39.400217454094324" lon="8.473161878348964"><ele>257.6666666666667</ele><time>2026-04-10T13:02:57.001Z</time></trkpt><trkpt lat="39.40010489077316" lon="8.473153895270082"><ele>257.8333333333333</ele><time>2026-04-10T13:02:59.001Z</time></trkpt><trkpt lat="39.39999520436519" lon="8.473069462481389"><ele>258.0</ele><time>2026-04-10T13:03:01.001Z</time></trkpt><trkpt lat="39.399934307082766" lon="8.473004213828832"><ele>260.1666666666667</ele><time>2026-04-10T13:03:02.001Z</time></trkpt><trkpt lat="39.399878980707065" lon="8.472936231065876"><ele>262.3333333333333</ele><time>2026-04-10T13:03:03.001Z</time></trkpt><trkpt lat="39.3998316009488" lon="8.472863538471005"><ele>264.5</ele><time>2026-04-10T13:03:04.001Z</time></trkpt><trkpt lat="39.39979222506309" lon="8.47279236589263"><ele>266.66666666666663</ele><time>2026-04-10T13:03:05.001Z</time></trkpt><trkpt lat="39.39969353816492" lon="8.472688420005868"><ele>268.8333333333333</ele><time>2026-04-10T13:03:07.001Z</time></trkpt><trkpt lat="39.39961825043971" lon="8.4726628246011"><ele>271.0</ele><time>2026-04-10T13:03:08.001Z</time></trkpt><trkpt lat="39.399524554092544" lon="8.472667190221244"><ele>271.0</ele><time>2026-04-10T13:03:09.001Z</time></trkpt><trkpt lat="39.39942247505272" lon="8.472702540687287"><ele>271.0</ele><time>2026-04-10T13:03:10.001Z</time></trkpt><trkpt lat="39.39929396891783" lon="8.47276591086877"><ele>271.0</ele><time>2026-04-10T13:03:11.001Z</time></trkpt><trkpt lat="39.39914849846189" lon="8.47283076708617"><ele>271.0</ele><time>2026-04-10T13:03:12.001Z</time></trkpt><trkpt lat="39.399012565235026" lon="8.472888795261925"><ele>269.5</ele><time>2026-04-10T13:03:13.001Z</time></trkpt><trkpt lat="39.39889576281654" lon="8.472940804406445"><ele>268.0</ele><time>2026-04-10T13:03:14.001Z</time></trkpt><trkpt lat="39.39880451966632" lon="8.47298299156235"><ele>266.5</ele><time>2026-04-10T13:03:15.001Z</time></trkpt><trkpt lat="39.39873047707282" lon="8.473028181670458"><ele>265.0</ele><time>2026-04-10T13:03:16.001Z</time></trkpt><trkpt lat="39.39866381602511" lon="8.473074870911013"><ele>263.5</ele><time>2026-04-10T13:03:17.001Z</time></trkpt><trkpt lat="39.398601136937955" lon="8.473108488777237"><ele>262.0</ele><time>2026-04-10T13:03:18.001Z</time></trkpt><trkpt lat="39.398482274724365" lon="8.473108146188375"><ele>262.0</ele><time>2026-04-10T13:03:20.001Z</time></trkpt><trkpt lat="39.39841547383531" lon="8.47308118274983"><ele>262.0</ele><time>2026-04-10T13:03:21.001Z</time></trkpt><trkpt lat="39.39834981849171" lon="8.473034698442"><ele>262.0</ele><time>2026-04-10T13:03:22.001Z</time></trkpt><trkpt lat="39.39829315321741" lon="8.47296428022939"><ele>262.0</ele><time>2026-04-10T13:03:23.001Z</time></trkpt><trkpt lat="39.39825268867091" lon="8.472880607630941"><ele>262.0</ele><time>2026-04-10T13:03:24.001Z</time></trkpt><trkpt lat="39.398217722849544" lon="8.472808724316515"><ele>262.0</ele><time>2026-04-10T13:03:25.001Z</time></trkpt><trkpt lat="39.39817143969317" lon="8.472753409381452"><ele>262.0</ele><time>2026-04-10T13:03:26.001Z</time></trkpt><trkpt lat="39.39809994420422" lon="8.472712483813071"><ele>266.3333333333333</ele><time>2026-04-10T13:03:27.001Z</time></trkpt><trkpt lat="39.398020734553846" lon="8.47269803452368"><ele>270.66666666666663</ele><time>2026-04-10T13:03:28.001Z</time></trkpt><trkpt lat="39.39793580262732" lon="8.472711002760041"><ele>275.0</ele><time>2026-04-10T13:03:29.001Z</time></trkpt><trkpt lat="39.397857212994325" lon="8.472747622766713"><ele>279.3333333333333</ele><time>2026-04-10T13:03:30.001Z</time></trkpt><trkpt lat="39.39780032402774" lon="8.472784450796842"><ele>283.6666666666667</ele><time>2026-04-10T13:03:31.001Z</time></trkpt><trkpt lat="39.39774268525402" lon="8.472846133591778"><ele>288.0</ele><time>2026-04-10T13:03:32.001Z</time></trkpt><trkpt lat="39.3976834695369" lon="8.472922476941644"><ele>282.8</ele><time>2026-04-10T13:03:33.001Z</time></trkpt><trkpt lat="39.39762987748386" lon="8.472992485370154"><ele>277.6</ele><time>2026-04-10T13:03:34.001Z</time></trkpt><trkpt lat="39.39758204153497" lon="8.47305363213424"><ele>272.4</ele><time>2026-04-10T13:03:35.001Z</time></trkpt><trkpt lat="39.39753240841436" lon="8.473113498941297"><ele>267.2</ele><time>2026-04-10T13:03:36.001Z</time></trkpt><trkpt lat="39.39743115413077" lon="8.473180008752214"><ele>262.0</ele><time>2026-04-10T13:03:38.001Z</time></trkpt><trkpt lat="39.39730419600871" lon="8.473155823844001"><ele>262.0</ele><time>2026-04-10T13:03:40.001Z</time></trkpt><trkpt lat="39.39722350466697" lon="8.473121577413755"><ele>262.0</ele><time>2026-04-10T13:03:41.001Z</time></trkpt><trkpt lat="39.39713158680093" lon="8.473108353239558"><ele>262.0</ele><time>2026-04-10T13:03:42.001Z</time></trkpt><trkpt lat="39.39701601886207" lon="8.473125887912285"><ele>262.0</ele><time>2026-04-10T13:03:43.001Z</time></trkpt><trkpt lat="39.39686579428932" lon="8.47316929076964"><ele>262.0</ele><time>2026-04-10T13:03:44.001Z</time></trkpt><trkpt lat="39.396701082500336" lon="8.473218810064248"><ele>265.0</ele><time>2026-04-10T13:03:45.001Z</time></trkpt><trkpt lat="39.39652911153588" lon="8.473255626331712"><ele>268.0</ele><time>2026-04-10T13:03:46.001Z</time></trkpt><trkpt lat="39.39632566281116" lon="8.473306921349435"><ele>271.0</ele><time>2026-04-10T13:03:47.001Z</time></trkpt><trkpt lat="39.39607321225746" lon="8.473373365296574"><ele>273.5</ele><time>2026-04-10T13:03:48.001Z</time></trkpt><trkpt lat="39.395801437767645" lon="8.473434906557456"><ele>276.0</ele><time>2026-04-10T13:03:49.001Z</time></trkpt><trkpt lat="39.395607636390636" lon="8.473482804180513"><ele>279.3333333333333</ele><time>2026-04-10T13:03:50.001Z</time></trkpt><trkpt lat="39.39541096978912" lon="8.473552831422818"><ele>282.66666666666663</ele><time>2026-04-10T13:03:51.001Z</time></trkpt><trkpt lat="39.395228655752256" lon="8.473620885555448"><ele>286.0</ele><time>2026-04-10T13:03:52.001Z</time></trkpt><trkpt lat="39.39504716630641" lon="8.473681318597022"><ele>286.0</ele><time>2026-04-10T13:03:53.001Z</time></trkpt><trkpt lat="39.394857684887214" lon="8.473739081200165"><ele>286.0</ele><time>2026-04-10T13:03:54.001Z</time></trkpt><trkpt lat="39.39465314847476" lon="8.473806516768938"><ele>286.0</ele><time>2026-04-10T13:03:55.001Z</time></trkpt><trkpt lat="39.39445146919843" lon="8.473889366806223"><ele>283.0</ele><time>2026-04-10T13:03:56.001Z</time></trkpt><trkpt lat="39.39425702209618" lon="8.473984171398387"><ele>280.0</ele><time>2026-04-10T13:03:57.001Z</time></trkpt><trkpt lat="39.394080325674565" lon="8.474083087990435"><ele>277.0</ele><time>2026-04-10T13:03:58.001Z</time></trkpt><trkpt lat="39.39391807099855" lon="8.474174266897506"><ele>285.66666666666663</ele><time>2026-04-10T13:03:59.001Z</time></trkpt><trkpt lat="39.39377112880104" lon="8.47426580732891"><ele>294.3333333333333</ele><time>2026-04-10T13:04:00.001Z</time></trkpt><trkpt lat="39.39364112007741" lon="8.474360702446555"><ele>303.0</ele><time>2026-04-10T13:04:01.001Z</time></trkpt><trkpt lat="39.39351624657419" lon="8.474462972647958"><ele>296.3333333333333</ele><time>2026-04-10T13:04:02.001Z</time></trkpt><trkpt lat="39.3934058871032" lon="8.474606857096129"><ele>289.66666666666663</ele><time>2026-04-10T13:04:03.001Z</time></trkpt><trkpt lat="39.39330632487899" lon="8.474777822877234"><ele>283.0</ele><time>2026-04-10T13:04:04.001Z</time></trkpt><trkpt lat="39.39323152699859" lon="8.474940428359798"><ele>283.0</ele><time>2026-04-10T13:04:05.001Z</time></trkpt><trkpt lat="39.3931890203682" lon="8.475108353172581"><ele>283.0</ele><time>2026-04-10T13:04:06.001Z</time></trkpt><trkpt lat="39.39317113684141" lon="8.475307119058666"><ele>283.0</ele><time>2026-04-10T13:04:07.001Z</time></trkpt><trkpt lat="39.39317765302791" lon="8.475508665941398"><ele>283.0</ele><time>2026-04-10T13:04:08.001Z</time></trkpt><trkpt lat="39.39318263864869" lon="8.47569087440133"><ele>283.0</ele><time>2026-04-10T13:04:09.001Z</time></trkpt><trkpt lat="39.39322416061193" lon="8.475848004952741"><ele>283.0</ele><time>2026-04-10T13:04:10.001Z</time></trkpt><trkpt lat="39.39327554031947" lon="8.475986804334742"><ele>283.0</ele><time>2026-04-10T13:04:11.001Z</time></trkpt><trkpt lat="39.39332510690711" lon="8.476124099410196"><ele>283.0</ele><time>2026-04-10T13:04:12.001Z</time></trkpt><trkpt lat="39.393355247883264" lon="8.47625316646125"><ele>282.5</ele><time>2026-04-10T13:04:13.001Z</time></trkpt><trkpt lat="39.393337486129866" lon="8.47636929130543"><ele>282.0</ele><time>2026-04-10T13:04:14.001Z</time></trkpt><trkpt lat="39.3932483229364" lon="8.47644019465903"><ele>281.5</ele><time>2026-04-10T13:04:15.001Z</time></trkpt><trkpt lat="39.39315037713039" lon="8.476500592403923"><ele>281.0</ele><time>2026-04-10T13:04:16.001Z</time></trkpt><trkpt lat="39.39300293903061" lon="8.476554189999913"><ele>284.40000000000003</ele><time>2026-04-10T13:04:17.001Z</time></trkpt><trkpt lat="39.39287381524885" lon="8.476590624163723"><ele>287.8</ele><time>2026-04-10T13:04:18.001Z</time></trkpt><trkpt lat="39.39276466331836" lon="8.476633098005301"><ele>291.20000000000005</ele><time>2026-04-10T13:04:19.001Z</time></trkpt><trkpt lat="39.39268537733299" lon="8.47669156215947"><ele>294.6</ele><time>2026-04-10T13:04:20.001Z</time></trkpt><trkpt lat="39.39262988441093" lon="8.47677886868232"><ele>298.0</ele><time>2026-04-10T13:04:21.001Z</time></trkpt><trkpt lat="39.392616975037676" lon="8.47690046663884"><ele>298.0</ele><time>2026-04-10T13:04:22.001Z</time></trkpt><trkpt lat="39.39265885417491" lon="8.477025150094365"><ele>298.0</ele><time>2026-04-10T13:04:23.001Z</time></trkpt><trkpt lat="39.39274758728074" lon="8.477169849703222"><ele>298.0</ele><time>2026-04-10T13:04:24.001Z</time></trkpt><trkpt lat="39.392801173069465" lon="8.477313817027678"><ele>298.0</ele><time>2026-04-10T13:04:25.001Z</time></trkpt><trkpt lat="39.3928049334675" lon="8.477481401458249"><ele>298.75</ele><time>2026-04-10T13:04:26.001Z</time></trkpt><trkpt lat="39.392776476419634" lon="8.477655639204613"><ele>299.5</ele><time>2026-04-10T13:04:27.001Z</time></trkpt><trkpt lat="39.39271528916318" lon="8.477806462394653"><ele>300.25</ele><time>2026-04-10T13:04:28.001Z</time></trkpt><trkpt lat="39.392618385436315" lon="8.477898399627252"><ele>301.0</ele><time>2026-04-10T13:04:29.001Z</time></trkpt><trkpt lat="39.39248578860168" lon="8.47796257761269"><ele>298.66666666666663</ele><time>2026-04-10T13:04:30.001Z</time></trkpt><trkpt lat="39.39236991952335" lon="8.478055802018739"><ele>296.3333333333333</ele><time>2026-04-10T13:04:31.001Z</time></trkpt><trkpt lat="39.39228207062301" lon="8.478228779150786"><ele>294.0</ele><time>2026-04-10T13:04:32.001Z</time></trkpt><trkpt lat="39.39222227600384" lon="8.478415011797608"><ele>294.0</ele><time>2026-04-10T13:04:33.001Z</time></trkpt><trkpt lat="39.39218365975604" lon="8.478601039142973"><ele>294.0</ele><time>2026-04-10T13:04:34.001Z</time></trkpt><trkpt lat="39.392181362477885" lon="8.478830036017575"><ele>294.0</ele><time>2026-04-10T13:04:35.001Z</time></trkpt><trkpt lat="39.39219451191912" lon="8.47907850862325"><ele>294.0</ele><time>2026-04-10T13:04:36.001Z</time></trkpt><trkpt lat="39.392201467578595" lon="8.479294830777096"><ele>294.0</ele><time>2026-04-10T13:04:37.001Z</time></trkpt><trkpt lat="39.392197662951226" lon="8.47949273529396"><ele>294.0</ele><time>2026-04-10T13:04:38.001Z</time></trkpt><trkpt lat="39.392178187956794" lon="8.479671801062919"><ele>302.0</ele><time>2026-04-10T13:04:39.001Z</time></trkpt><trkpt lat="39.39212354141251" lon="8.479830736997533"><ele>310.0</ele><time>2026-04-10T13:04:40.001Z</time></trkpt><trkpt lat="39.392030889676334" lon="8.480004186422338"><ele>318.0</ele><time>2026-04-10T13:04:41.001Z</time></trkpt><trkpt lat="39.39192872593318" lon="8.480186303227123"><ele>318.0</ele><time>2026-04-10T13:04:42.001Z</time></trkpt><trkpt lat="39.3918318048682" lon="8.480372438131875"><ele>318.0</ele><time>2026-04-10T13:04:43.001Z</time></trkpt><trkpt lat="39.39174439337616" lon="8.480553854676696"><ele>318.0</ele><time>2026-04-10T13:04:44.001Z</time></trkpt><trkpt lat="39.391664739191505" lon="8.480709558961722"><ele>319.5</ele><time>2026-04-10T13:04:45.001Z</time></trkpt><trkpt lat="39.39158627778239" lon="8.480837684345492"><ele>321.0</ele><time>2026-04-10T13:04:46.001Z</time></trkpt><trkpt lat="39.391489408741414" lon="8.480928366258727"><ele>322.5</ele><time>2026-04-10T13:04:47.001Z</time></trkpt><trkpt lat="39.39135576451182" lon="8.48098915991988"><ele>324.0</ele><time>2026-04-10T13:04:48.001Z</time></trkpt><trkpt lat="39.39118218050189" lon="8.481025691456367"><ele>324.0</ele><time>2026-04-10T13:04:49.001Z</time></trkpt><trkpt lat="39.39099333901829" lon="8.481061212980586"><ele>324.0</ele><time>2026-04-10T13:04:50.001Z</time></trkpt><trkpt lat="39.39079389717766" lon="8.481110092323147"><ele>324.0</ele><time>2026-04-10T13:04:51.001Z</time></trkpt><trkpt lat="39.390587794399046" lon="8.481152173894191"><ele>325.3333333333333</ele><time>2026-04-10T13:04:52.001Z</time></trkpt><trkpt lat="39.39037966285741" lon="8.481172698512575"><ele>326.66666666666663</ele><time>2026-04-10T13:04:53.001Z</time></trkpt><trkpt lat="39.39018534666446" lon="8.481174645574786"><ele>328.0</ele><time>2026-04-10T13:04:54.001Z</time></trkpt><trkpt lat="39.3900075768383" lon="8.481163223427322"><ele>328.0</ele><time>2026-04-10T13:04:55.001Z</time></trkpt><trkpt lat="39.389850675880595" lon="8.481143102329613"><ele>328.0</ele><time>2026-04-10T13:04:56.001Z</time></trkpt><trkpt lat="39.38971543398365" lon="8.48110290373803"><ele>328.0</ele><time>2026-04-10T13:04:57.001Z</time></trkpt><trkpt lat="39.38959536857819" lon="8.481017239832347"><ele>328.0</ele><time>2026-04-10T13:04:58.001Z</time></trkpt><trkpt lat="39.38947091264009" lon="8.480892801044893"><ele>324.75</ele><time>2026-04-10T13:04:59.001Z</time></trkpt><trkpt lat="39.389360214900535" lon="8.480741137475782"><ele>321.5</ele><time>2026-04-10T13:05:00.001Z</time></trkpt><trkpt lat="39.38927321067877" lon="8.480602445196546"><ele>318.25</ele><time>2026-04-10T13:05:01.001Z</time></trkpt><trkpt lat="39.389179570038536" lon="8.480497261046198"><ele>315.0</ele><time>2026-04-10T13:05:02.001Z</time></trkpt><trkpt lat="39.38906636413091" lon="8.480457465135832"><ele>315.0</ele><time>2026-04-10T13:05:03.001Z</time></trkpt><trkpt lat="39.38894544474604" lon="8.480476314535542"><ele>315.0</ele><time>2026-04-10T13:05:04.001Z</time></trkpt><trkpt lat="39.38880896855698" lon="8.480548382822668"><ele>315.0</ele><time>2026-04-10T13:05:05.001Z</time></trkpt><trkpt lat="39.38868429215133" lon="8.480655335803029"><ele>315.0</ele><time>2026-04-10T13:05:06.001Z</time></trkpt><trkpt lat="39.388577978787296" lon="8.480757943871149"><ele>317.8</ele><time>2026-04-10T13:05:07.001Z</time></trkpt><trkpt lat="39.38851437163614" lon="8.480865500637057"><ele>320.6</ele><time>2026-04-10T13:05:08.001Z</time></trkpt><trkpt lat="39.38850323478577" lon="8.480978341761839"><ele>323.4</ele><time>2026-04-10T13:05:09.001Z</time></trkpt><trkpt lat="39.38854303925345" lon="8.481098806710419"><ele>326.2</ele><time>2026-04-10T13:05:10.001Z</time></trkpt><trkpt lat="39.38863094618964" lon="8.48120607070563"><ele>329.0</ele><time>2026-04-10T13:05:11.001Z</time></trkpt><trkpt lat="39.38874952876552" lon="8.481318431275998"><ele>325.0</ele><time>2026-04-10T13:05:12.001Z</time></trkpt><trkpt lat="39.38883312381299" lon="8.481488243154338"><ele>321.0</ele><time>2026-04-10T13:05:13.001Z</time></trkpt><trkpt lat="39.388919847006306" lon="8.481710815285075"><ele>317.0</ele><time>2026-04-10T13:05:14.001Z</time></trkpt><trkpt lat="39.38899649823528" lon="8.481893529225072"><ele>317.0</ele><time>2026-04-10T13:05:15.001Z</time></trkpt><trkpt lat="39.38906901339115" lon="8.482049720571892"><ele>317.0</ele><time>2026-04-10T13:05:16.001Z</time></trkpt><trkpt lat="39.38916112027324" lon="8.482152857963918"><ele>317.0</ele><time>2026-04-10T13:05:17.001Z</time></trkpt><trkpt lat="39.38928435354595" lon="8.482199548097874"><ele>317.0</ele><time>2026-04-10T13:05:18.001Z</time></trkpt><trkpt lat="39.38944858199992" lon="8.482220072045747"><ele>319.33333333333337</ele><time>2026-04-10T13:05:19.001Z</time></trkpt><trkpt lat="39.3896274544672" lon="8.482284349038528"><ele>321.6666666666667</ele><time>2026-04-10T13:05:20.001Z</time></trkpt><trkpt lat="39.3897855316184" lon="8.482376335874786"><ele>324.0</ele><time>2026-04-10T13:05:21.001Z</time></trkpt><trkpt lat="39.38993576288546" lon="8.482458283672079"><ele>324.0</ele><time>2026-04-10T13:05:22.001Z</time></trkpt><trkpt lat="39.39007873071235" lon="8.482530363046843"><ele>324.0</ele><time>2026-04-10T13:05:23.001Z</time></trkpt><trkpt lat="39.39021761622752" lon="8.482586549945918"><ele>324.0</ele><time>2026-04-10T13:05:24.001Z</time></trkpt><trkpt lat="39.390358700257075" lon="8.48260872891164"><ele>324.0</ele><time>2026-04-10T13:05:25.001Z</time></trkpt><trkpt lat="39.390484499688455" lon="8.482594698809647"><ele>322.8</ele><time>2026-04-10T13:05:26.001Z</time></trkpt><trkpt lat="39.39059393652599" lon="8.48258106467707"><ele>321.59999999999997</ele><time>2026-04-10T13:05:27.001Z</time></trkpt><trkpt lat="39.390684091915745" lon="8.482619800055994"><ele>320.4</ele><time>2026-04-10T13:05:28.001Z</time></trkpt><trkpt lat="39.39072828074995" lon="8.482711039683595"><ele>319.2</ele><time>2026-04-10T13:05:29.001Z</time></trkpt><trkpt lat="39.39071679427843" lon="8.482825230065064"><ele>318.0</ele><time>2026-04-10T13:05:30.001Z</time></trkpt><trkpt lat="39.39064993237369" lon="8.482944979921157"><ele>317.0</ele><time>2026-04-10T13:05:31.001Z</time></trkpt><trkpt lat="39.39054336839141" lon="8.483066976128379"><ele>316.0</ele><time>2026-04-10T13:05:32.001Z</time></trkpt><trkpt lat="39.39042395982789" lon="8.483171045262463"><ele>315.0</ele><time>2026-04-10T13:05:33.001Z</time></trkpt><trkpt lat="39.39030810598952" lon="8.483233594769239"><ele>314.0</ele><time>2026-04-10T13:05:34.001Z</time></trkpt><trkpt lat="39.39015979072026" lon="8.483276115710888"><ele>320.6666666666667</ele><time>2026-04-10T13:05:35.001Z</time></trkpt><trkpt lat="39.39002064606013" lon="8.483347156106916"><ele>327.3333333333333</ele><time>2026-04-10T13:05:36.001Z</time></trkpt><trkpt lat="39.389880496185384" lon="8.483477898276934"><ele>334.0</ele><time>2026-04-10T13:05:37.001Z</time></trkpt><trkpt lat="39.38975354055164" lon="8.48362741130838"><ele>337.0</ele><time>2026-04-10T13:05:38.001Z</time></trkpt><trkpt lat="39.389616563929515" lon="8.483769353377468"><ele>340.0</ele><time>2026-04-10T13:05:39.001Z</time></trkpt><trkpt lat="39.389465185093655" lon="8.483879076593231"><ele>343.0</ele><time>2026-04-10T13:05:40.001Z</time></trkpt><trkpt lat="39.38929505794852" lon="8.483958718283453"><ele>343.0</ele><time>2026-04-10T13:05:41.001Z</time></trkpt><trkpt lat="39.38913854524465" lon="8.484030860832604"><ele>343.0</ele><time>2026-04-10T13:05:42.001Z</time></trkpt><trkpt lat="39.3890049745338" lon="8.48413859267558"><ele>343.0</ele><time>2026-04-10T13:05:43.001Z</time></trkpt><trkpt lat="39.38887536193094" lon="8.48431053698442"><ele>346.0</ele><time>2026-04-10T13:05:44.001Z</time></trkpt><trkpt lat="39.38875701012514" lon="8.484489515022691"><ele>349.0</ele><time>2026-04-10T13:05:45.001Z</time></trkpt><trkpt lat="39.38862388376729" lon="8.484629627664367"><ele>352.0</ele><time>2026-04-10T13:05:46.001Z</time></trkpt><trkpt lat="39.38846928895563" lon="8.484751148530016"><ele>352.0</ele><time>2026-04-10T13:05:47.001Z</time></trkpt><trkpt lat="39.38831714149547" lon="8.48486033044636"><ele>352.0</ele><time>2026-04-10T13:05:48.001Z</time></trkpt><trkpt lat="39.388172850706674" lon="8.484970689796674"><ele>352.0</ele><time>2026-04-10T13:05:49.001Z</time></trkpt><trkpt lat="39.38805192324183" lon="8.485068101005812"><ele>357.20000000000005</ele><time>2026-04-10T13:05:50.001Z</time></trkpt><trkpt lat="39.38796129195649" lon="8.485144830246227"><ele>362.4</ele><time>2026-04-10T13:05:51.001Z</time></trkpt><trkpt lat="39.38790150620164" lon="8.48522263798254"><ele>367.6</ele><time>2026-04-10T13:05:52.001Z</time></trkpt><trkpt lat="39.38788160479333" lon="8.485320521303343"><ele>372.79999999999995</ele><time>2026-04-10T13:05:53.001Z</time></trkpt><trkpt lat="39.38791103520872" lon="8.485434924416012"><ele>378.0</ele><time>2026-04-10T13:05:54.001Z</time></trkpt><trkpt lat="39.38799482900208" lon="8.485542625304435"><ele>370.3333333333333</ele><time>2026-04-10T13:05:55.001Z</time></trkpt><trkpt lat="39.38812337582879" lon="8.485660390272379"><ele>362.66666666666663</ele><time>2026-04-10T13:05:56.001Z</time></trkpt><trkpt lat="39.38824724422263" lon="8.485765927072464"><ele>355.0</ele><time>2026-04-10T13:05:57.001Z</time></trkpt><trkpt lat="39.388341677453624" lon="8.485910630450615"><ele>355.0</ele><time>2026-04-10T13:05:58.001Z</time></trkpt><trkpt lat="39.38839772543333" lon="8.486107581071552"><ele>355.0</ele><time>2026-04-10T13:05:59.001Z</time></trkpt><trkpt lat="39.38841892543159" lon="8.486319211538303"><ele>355.0</ele><time>2026-04-10T13:06:00.001Z</time></trkpt><trkpt lat="39.38841085476774" lon="8.486513787984961"><ele>357.0</ele><time>2026-04-10T13:06:01.001Z</time></trkpt><trkpt lat="39.38836681415502" lon="8.486683808661711"><ele>359.0</ele><time>2026-04-10T13:06:02.001Z</time></trkpt><trkpt lat="39.388286684315496" lon="8.486832744523634"><ele>361.0</ele><time>2026-04-10T13:06:03.001Z</time></trkpt><trkpt lat="39.38817851958055" lon="8.48697063428529"><ele>363.0</ele><time>2026-04-10T13:06:04.001Z</time></trkpt><trkpt lat="39.38810489552274" lon="8.48710482502461"><ele>363.0</ele><time>2026-04-10T13:06:05.001Z</time></trkpt><trkpt lat="39.38810318634258" lon="8.487264591919276"><ele>363.0</ele><time>2026-04-10T13:06:06.001Z</time></trkpt><trkpt lat="39.38814448245427" lon="8.487460274295612"><ele>363.0</ele><time>2026-04-10T13:06:07.001Z</time></trkpt><trkpt lat="39.38819094077524" lon="8.487618950796794"><ele>363.0</ele><time>2026-04-10T13:06:08.001Z</time></trkpt><trkpt lat="39.38821518983842" lon="8.487759377464178"><ele>363.0</ele><time>2026-04-10T13:06:09.001Z</time></trkpt><trkpt lat="39.388204161901555" lon="8.48788165503835"><ele>363.0</ele><time>2026-04-10T13:06:10.001Z</time></trkpt><trkpt lat="39.3881528735742" lon="8.487967351413808"><ele>363.0</ele><time>2026-04-10T13:06:11.001Z</time></trkpt><trkpt lat="39.38805765049831" lon="8.487989259882086"><ele>363.0</ele><time>2026-04-10T13:06:12.001Z</time></trkpt><trkpt lat="39.387963047447506" lon="8.487951973614562"><ele>363.0</ele><time>2026-04-10T13:06:13.001Z</time></trkpt><trkpt lat="39.38788074273164" lon="8.487847769256389"><ele>367.0</ele><time>2026-04-10T13:06:14.001Z</time></trkpt><trkpt lat="39.38781602840647" lon="8.487686929955993"><ele>371.0</ele><time>2026-04-10T13:06:15.001Z</time></trkpt><trkpt lat="39.38776368319364" lon="8.487525361166659"><ele>375.0</ele><time>2026-04-10T13:06:16.001Z</time></trkpt><trkpt lat="39.38771722759106" lon="8.487384947506806"><ele>379.0</ele><time>2026-04-10T13:06:17.001Z</time></trkpt><trkpt lat="39.38765927130173" lon="8.48726974293121"><ele>379.0</ele><time>2026-04-10T13:06:18.001Z</time></trkpt><trkpt lat="39.38756686328955" lon="8.487194912439373"><ele>379.0</ele><time>2026-04-10T13:06:19.001Z</time></trkpt><trkpt lat="39.38745801303975" lon="8.487179120845248"><ele>379.0</ele><time>2026-04-10T13:06:20.001Z</time></trkpt><trkpt lat="39.38735259743565" lon="8.487211088259174"><ele>379.0</ele><time>2026-04-10T13:06:21.001Z</time></trkpt><trkpt lat="39.3872771357601" lon="8.487339233407992"><ele>379.0</ele><time>2026-04-10T13:06:22.001Z</time></trkpt><trkpt lat="39.387240869439694" lon="8.487506353534846"><ele>379.0</ele><time>2026-04-10T13:06:23.001Z</time></trkpt><trkpt lat="39.387216585368265" lon="8.48775294699608"><ele>379.0</ele><time>2026-04-10T13:06:24.001Z</time></trkpt><trkpt lat="39.38720631339252" lon="8.487975074107876"><ele>376.25</ele><time>2026-04-10T13:06:25.001Z</time></trkpt><trkpt lat="39.38718728621903" lon="8.488149812446371"><ele>373.5</ele><time>2026-04-10T13:06:26.001Z</time></trkpt><trkpt lat="39.38715480740032" lon="8.488295890302263"><ele>370.75</ele><time>2026-04-10T13:06:27.001Z</time></trkpt><trkpt lat="39.387096703834494" lon="8.488386818862132"><ele>368.0</ele><time>2026-04-10T13:06:28.001Z</time></trkpt><trkpt lat="39.386986604268856" lon="8.48843464211182"><ele>376.6666666666667</ele><time>2026-04-10T13:06:29.001Z</time></trkpt><trkpt lat="39.38681392577876" lon="8.488471769008912"><ele>385.33333333333337</ele><time>2026-04-10T13:06:30.001Z</time></trkpt><trkpt lat="39.38666394781445" lon="8.488542060426358"><ele>394.0</ele><time>2026-04-10T13:06:31.001Z</time></trkpt><trkpt lat="39.38652592673228" lon="8.488656790210024"><ele>394.33333333333337</ele><time>2026-04-10T13:06:32.001Z</time></trkpt><trkpt lat="39.38639372644789" lon="8.48880429981808"><ele>394.66666666666663</ele><time>2026-04-10T13:06:33.001Z</time></trkpt><trkpt lat="39.38626054952466" lon="8.488927690692384"><ele>395.0</ele><time>2026-04-10T13:06:34.001Z</time></trkpt><trkpt lat="39.38612257280212" lon="8.488993350723948"><ele>395.0</ele><time>2026-04-10T13:06:35.001Z</time></trkpt><trkpt lat="39.385996736316315" lon="8.489021799065455"><ele>395.0</ele><time>2026-04-10T13:06:36.001Z</time></trkpt><trkpt lat="39.385871117362335" lon="8.488986109959866"><ele>395.0</ele><time>2026-04-10T13:06:37.001Z</time></trkpt><trkpt lat="39.38572692768127" lon="8.488923808089666"><ele>395.0</ele><time>2026-04-10T13:06:38.001Z</time></trkpt><trkpt lat="39.38559546328564" lon="8.488868571038799"><ele>399.6</ele><time>2026-04-10T13:06:39.001Z</time></trkpt><trkpt lat="39.38549649061633" lon="8.48883108194455"><ele>404.2</ele><time>2026-04-10T13:06:40.001Z</time></trkpt><trkpt lat="39.385411275010476" lon="8.488855401295895"><ele>408.79999999999995</ele><time>2026-04-10T13:06:41.001Z</time></trkpt><trkpt lat="39.38534396829936" lon="8.488959874747891"><ele>413.4</ele><time>2026-04-10T13:06:42.001Z</time></trkpt><trkpt lat="39.38529828299908" lon="8.489100104179363"><ele>418.0</ele><time>2026-04-10T13:06:43.001Z</time></trkpt><trkpt lat="39.38529032760382" lon="8.489294718378424"><ele>418.0</ele><time>2026-04-10T13:06:44.001Z</time></trkpt><trkpt lat="39.3853114804802" lon="8.489515976324661"><ele>418.0</ele><time>2026-04-10T13:06:45.001Z</time></trkpt><trkpt lat="39.38530570311667" lon="8.489649741863326"><ele>418.0</ele><time>2026-04-10T13:06:46.001Z</time></trkpt><trkpt lat="39.38531840165268" lon="8.489761341813715"><ele>418.0</ele><time>2026-04-10T13:06:47.001Z</time></trkpt><trkpt lat="39.38542402783097" lon="8.489864935563194"><ele>413.6666666666667</ele><time>2026-04-10T13:06:48.001Z</time></trkpt><trkpt lat="39.38557819559879" lon="8.489934883026818"><ele>409.33333333333337</ele><time>2026-04-10T13:06:49.001Z</time></trkpt><trkpt lat="39.3857693387199" lon="8.48996260344025"><ele>405.0</ele><time>2026-04-10T13:06:50.001Z</time></trkpt><trkpt lat="39.38594167055241" lon="8.489996196748441"><ele>405.0</ele><time>2026-04-10T13:06:51.001Z</time></trkpt><trkpt lat="39.3861265248395" lon="8.490034338997042"><ele>405.0</ele><time>2026-04-10T13:06:52.001Z</time></trkpt><trkpt lat="39.386291210000294" lon="8.490081085439705"><ele>405.0</ele><time>2026-04-10T13:06:53.001Z</time></trkpt><trkpt lat="39.386432971311834" lon="8.49014111944404"><ele>406.0</ele><time>2026-04-10T13:06:54.001Z</time></trkpt><trkpt lat="39.386546871674774" lon="8.490235392303664"><ele>407.0</ele><time>2026-04-10T13:06:55.001Z</time></trkpt><trkpt lat="39.386636772734455" lon="8.49036101141145"><ele>408.0</ele><time>2026-04-10T13:06:56.001Z</time></trkpt><trkpt lat="39.38668899656801" lon="8.49051666777663"><ele>409.0</ele><time>2026-04-10T13:06:57.001Z</time></trkpt><trkpt lat="39.386690871954904" lon="8.49066124481817"><ele>409.0</ele><time>2026-04-10T13:06:58.001Z</time></trkpt><trkpt lat="39.38664577033447" lon="8.490789664510563"><ele>409.0</ele><time>2026-04-10T13:06:59.001Z</time></trkpt><trkpt lat="39.38655307897358" lon="8.490926516916696"><ele>409.0</ele><time>2026-04-10T13:07:00.001Z</time></trkpt><trkpt lat="39.386453437754014" lon="8.49107817523525"><ele>409.0</ele><time>2026-04-10T13:07:01.001Z</time></trkpt><trkpt lat="39.38639751270217" lon="8.491236452245976"><ele>407.79999999999995</ele><time>2026-04-10T13:07:02.001Z</time></trkpt><trkpt lat="39.38636426716215" lon="8.491384214014914"><ele>406.59999999999997</ele><time>2026-04-10T13:07:03.001Z</time></trkpt><trkpt lat="39.38632298834705" lon="8.49150928779739"><ele>405.4</ele><time>2026-04-10T13:07:04.001Z</time></trkpt><trkpt lat="39.38625576512559" lon="8.49158256823726"><ele>404.2</ele><time>2026-04-10T13:07:05.001Z</time></trkpt><trkpt lat="39.38616693357652" lon="8.491583126761084"><ele>403.0</ele><time>2026-04-10T13:07:06.001Z</time></trkpt><trkpt lat="39.38603572497102" lon="8.491525419601047"><ele>406.79999999999995</ele><time>2026-04-10T13:07:07.001Z</time></trkpt><trkpt lat="39.385932704769644" lon="8.491508473951777"><ele>410.6</ele><time>2026-04-10T13:07:08.001Z</time></trkpt><trkpt lat="39.38583268749165" lon="8.49152417408535"><ele>414.4</ele><time>2026-04-10T13:07:09.001Z</time></trkpt><trkpt lat="39.38573010192738" lon="8.491578309270295"><ele>418.20000000000005</ele><time>2026-04-10T13:07:10Z</time></trkpt><trkpt lat="39.38565311121901" lon="8.491669004640245"><ele>422.0</ele><time>2026-04-10T13:07:11Z</time></trkpt><trkpt lat="39.385593553070144" lon="8.49184012792103"><ele>422.0</ele><time>2026-04-10T13:07:12Z</time></trkpt><trkpt lat="39.38553625521862" lon="8.49204603877603"><ele>422.0</ele><time>2026-04-10T13:07:13Z</time></trkpt><trkpt lat="39.385467485284515" lon="8.492221231860903"><ele>422.0</ele><time>2026-04-10T13:07:14Z</time></trkpt><trkpt lat="39.38536732467829" lon="8.492360130329411"><ele>426.25</ele><time>2026-04-10T13:07:15Z</time></trkpt><trkpt lat="39.385230096329614" lon="8.49247986732324"><ele>430.5</ele><time>2026-04-10T13:07:16Z</time></trkpt><trkpt lat="39.38514519083862" lon="8.492612864261835"><ele>434.75</ele><time>2026-04-10T13:07:17Z</time></trkpt><trkpt lat="39.38507970632549" lon="8.492759481708287"><ele>439.0</ele><time>2026-04-10T13:07:18Z</time></trkpt><trkpt lat="39.38501640517893" lon="8.49289452442222"><ele>436.6</ele><time>2026-04-10T13:07:19Z</time></trkpt><trkpt lat="39.384926233860455" lon="8.492969214536885"><ele>434.2</ele><time>2026-04-10T13:07:20Z</time></trkpt><trkpt lat="39.38481963817882" lon="8.49299300506392"><ele>431.80000000000007</ele><time>2026-04-10T13:07:21Z</time></trkpt><trkpt lat="39.38471585128861" lon="8.493024364755593"><ele>429.40000000000003</ele><time>2026-04-10T13:07:22Z</time></trkpt><trkpt lat="39.384625190415825" lon="8.493085931967109"><ele>427.0</ele><time>2026-04-10T13:07:23Z</time></trkpt><trkpt lat="39.38456520112921" lon="8.493225837580063"><ele>432.0</ele><time>2026-04-10T13:07:24Z</time></trkpt><trkpt lat="39.384522367582896" lon="8.493419450382195"><ele>437.0</ele><time>2026-04-10T13:07:25Z</time></trkpt><trkpt lat="39.3844755135735" lon="8.493598499569574"><ele>442.0</ele><time>2026-04-10T13:07:26Z</time></trkpt><trkpt lat="39.38441918388176" lon="8.493772438614256"><ele>447.0</ele><time>2026-04-10T13:07:27Z</time></trkpt><trkpt lat="39.384365183287954" lon="8.493933709666358"><ele>447.0</ele><time>2026-04-10T13:07:28Z</time></trkpt><trkpt lat="39.384326530071625" lon="8.494101889408165"><ele>447.0</ele><time>2026-04-10T13:07:29Z</time></trkpt><trkpt lat="39.38433642932035" lon="8.494296023452003"><ele>447.0</ele><time>2026-04-10T13:07:30Z</time></trkpt><trkpt lat="39.384392225276784" lon="8.494485651138842"><ele>447.0</ele><time>2026-04-10T13:07:31Z</time></trkpt><trkpt lat="39.384439521558015" lon="8.49464689483306"><ele>446.8</ele><time>2026-04-10T13:07:32Z</time></trkpt><trkpt lat="39.384445943702595" lon="8.494803186992204"><ele>446.6</ele><time>2026-04-10T13:07:33Z</time></trkpt><trkpt lat="39.38442361443108" lon="8.494935879734607"><ele>446.40000000000003</ele><time>2026-04-10T13:07:34Z</time></trkpt><trkpt lat="39.38437877476158" lon="8.4950528026815"><ele>446.20000000000005</ele><time>2026-04-10T13:07:35Z</time></trkpt><trkpt lat="39.38432834482382" lon="8.49517986712652"><ele>446.0</ele><time>2026-04-10T13:07:36Z</time></trkpt><trkpt lat="39.384282959682636" lon="8.495306386468004"><ele>445.6</ele><time>2026-04-10T13:07:37Z</time></trkpt><trkpt lat="39.38422483620981" lon="8.495423052022195"><ele>445.20000000000005</ele><time>2026-04-10T13:07:38Z</time></trkpt><trkpt lat="39.384139120050676" lon="8.49551060278382"><ele>444.79999999999995</ele><time>2026-04-10T13:07:39Z</time></trkpt><trkpt lat="39.38403794834018" lon="8.495548770221546"><ele>444.4</ele><time>2026-04-10T13:07:40Z</time></trkpt><trkpt lat="39.38392439502838" lon="8.495547181615942"><ele>444.0</ele><time>2026-04-10T13:07:41Z</time></trkpt><trkpt lat="39.38382110326079" lon="8.495491311567328"><ele>443.75</ele><time>2026-04-10T13:07:42Z</time></trkpt><trkpt lat="39.38373314573331" lon="8.495402907990094"><ele>443.5</ele><time>2026-04-10T13:07:43Z</time></trkpt><trkpt lat="39.38365534923787" lon="8.495279344417382"><ele>443.25</ele><time>2026-04-10T13:07:44Z</time></trkpt><trkpt lat="39.383586199615934" lon="8.495138704316187"><ele>443.0</ele><time>2026-04-10T13:07:45Z</time></trkpt><trkpt lat="39.38351663325287" lon="8.49497795008128"><ele>443.0</ele><time>2026-04-10T13:07:46Z</time></trkpt><trkpt lat="39.383454399762286" lon="8.494815075012557"><ele>443.0</ele><time>2026-04-10T13:07:47Z</time></trkpt><trkpt lat="39.38340633949186" lon="8.494641901095447"><ele>443.0</ele><time>2026-04-10T13:07:48Z</time></trkpt><trkpt lat="39.383360755576334" lon="8.49447810938815"><ele>443.0</ele><time>2026-04-10T13:07:49Z</time></trkpt><trkpt lat="39.38331495214397" lon="8.49431603243134"><ele>445.0</ele><time>2026-04-10T13:07:50Z</time></trkpt><trkpt lat="39.383271543984705" lon="8.494160711857635"><ele>447.0</ele><time>2026-04-10T13:07:51Z</time></trkpt><trkpt lat="39.38323499445506" lon="8.493991958937347"><ele>449.0</ele><time>2026-04-10T13:07:52Z</time></trkpt><trkpt lat="39.3831926456391" lon="8.493822190372315"><ele>451.0</ele><time>2026-04-10T13:07:53Z</time></trkpt><trkpt lat="39.38314881971983" lon="8.493652129457498"><ele>451.25</ele><time>2026-04-10T13:07:54Z</time></trkpt><trkpt lat="39.38310522376181" lon="8.493477618278227"><ele>451.5</ele><time>2026-04-10T13:07:55Z</time></trkpt><trkpt lat="39.38306210797331" lon="8.493305471512416"><ele>451.75</ele><time>2026-04-10T13:07:56Z</time></trkpt><trkpt lat="39.383019072698374" lon="8.493135086082916"><ele>452.0</ele><time>2026-04-10T13:07:57Z</time></trkpt><trkpt lat="39.382974586607546" lon="8.492964297594959"><ele>454.0</ele><time>2026-04-10T13:07:58Z</time></trkpt><trkpt lat="39.3829293830356" lon="8.492790341320049"><ele>456.0</ele><time>2026-04-10T13:07:59Z</time></trkpt><trkpt lat="39.382883434484995" lon="8.492614748205964"><ele>458.0</ele><time>2026-04-10T13:08:00Z</time></trkpt><trkpt lat="39.3828417644719" lon="8.49242855530352"><ele>460.0</ele><time>2026-04-10T13:08:01Z</time></trkpt><trkpt lat="39.38279403049167" lon="8.492251363804154"><ele>462.5</ele><time>2026-04-10T13:08:02Z</time></trkpt><trkpt lat="39.38275251795729" lon="8.492078255681045"><ele>465.0</ele><time>2026-04-10T13:08:03Z</time></trkpt><trkpt lat="39.3827121925895" lon="8.491906403087105"><ele>467.5</ele><time>2026-04-10T13:08:04Z</time></trkpt><trkpt lat="39.38267282680399" lon="8.491740936034958"><ele>470.0</ele><time>2026-04-10T13:08:05Z</time></trkpt><trkpt lat="39.38262985747032" lon="8.491601169048698"><ele>470.0</ele><time>2026-04-10T13:08:06Z</time></trkpt><trkpt lat="39.38255931588393" lon="8.49148308623014"><ele>470.0</ele><time>2026-04-10T13:08:07Z</time></trkpt><trkpt lat="39.38245179180316" lon="8.491409589227526"><ele>470.0</ele><time>2026-04-10T13:08:08.001Z</time></trkpt><trkpt lat="39.38231003329292" lon="8.491410261207783"><ele>470.0</ele><time>2026-04-10T13:08:09.001Z</time></trkpt><trkpt lat="39.382156531333514" lon="8.491461497613212"><ele>473.25</ele><time>2026-04-10T13:08:10.001Z</time></trkpt><trkpt lat="39.38199397535187" lon="8.491562582117394"><ele>476.5</ele><time>2026-04-10T13:08:11.001Z</time></trkpt><trkpt lat="39.38185491006775" lon="8.491644302350778"><ele>479.75</ele><time>2026-04-10T13:08:12.001Z</time></trkpt><trkpt lat="39.38176628465878" lon="8.491723081127532"><ele>483.0</ele><time>2026-04-10T13:08:13.001Z</time></trkpt><trkpt lat="39.38173781725713" lon="8.49180671974616"><ele>483.0</ele><time>2026-04-10T13:08:14.001Z</time></trkpt><trkpt lat="39.38173922070607" lon="8.491909395933096"><ele>483.0</ele><time>2026-04-10T13:08:15.001Z</time></trkpt><trkpt lat="39.381792531086546" lon="8.492103953029742"><ele>483.0</ele><time>2026-04-10T13:08:16.001Z</time></trkpt><trkpt lat="39.38183330733246" lon="8.492372684114985"><ele>483.33333333333337</ele><time>2026-04-10T13:08:17.001Z</time></trkpt><trkpt lat="39.381847663127296" lon="8.492621603332369"><ele>483.6666666666667</ele><time>2026-04-10T13:08:18.001Z</time></trkpt><trkpt lat="39.38183234942959" lon="8.492904697227878"><ele>484.0</ele><time>2026-04-10T13:08:19.001Z</time></trkpt><trkpt lat="39.38180310269561" lon="8.493151729939324"><ele>484.0</ele><time>2026-04-10T13:08:20.001Z</time></trkpt><trkpt lat="39.38178629455975" lon="8.493358815095972"><ele>484.0</ele><time>2026-04-10T13:08:21.001Z</time></trkpt><trkpt lat="39.38176970701888" lon="8.493525208745735"><ele>484.0</ele><time>2026-04-10T13:08:22.001Z</time></trkpt><trkpt lat="39.381721739249436" lon="8.493652410971688"><ele>484.0</ele><time>2026-04-10T13:08:23.001Z</time></trkpt><trkpt lat="39.38164594092493" lon="8.493766667105058"><ele>482.5</ele><time>2026-04-10T13:08:24.001Z</time></trkpt><trkpt lat="39.38152676551579" lon="8.493878850825311"><ele>481.0</ele><time>2026-04-10T13:08:25.001Z</time></trkpt><trkpt lat="39.3814083147586" lon="8.493958999825788"><ele>479.5</ele><time>2026-04-10T13:08:26.001Z</time></trkpt><trkpt lat="39.38130095823503" lon="8.493992512222531"><ele>478.0</ele><time>2026-04-10T13:08:27.001Z</time></trkpt><trkpt lat="39.381186016345346" lon="8.4939879708759"><ele>478.0</ele><time>2026-04-10T13:08:28.001Z</time></trkpt><trkpt lat="39.38103556848657" lon="8.493924782971538"><ele>478.0</ele><time>2026-04-10T13:08:29.001Z</time></trkpt><trkpt lat="39.3809101034246" lon="8.493843798114222"><ele>478.0</ele><time>2026-04-10T13:08:30.001Z</time></trkpt><trkpt lat="39.38080721906675" lon="8.493711514747726"><ele>478.0</ele><time>2026-04-10T13:08:31.001Z</time></trkpt><trkpt lat="39.38072081273332" lon="8.493554585679577"><ele>482.75</ele><time>2026-04-10T13:08:32.001Z</time></trkpt><trkpt lat="39.38061266426232" lon="8.49346505147874"><ele>487.5</ele><time>2026-04-10T13:08:33.001Z</time></trkpt><trkpt lat="39.38046591087814" lon="8.493428259104848"><ele>492.25</ele><time>2026-04-10T13:08:34.001Z</time></trkpt><trkpt lat="39.38030720041142" lon="8.493470491624556"><ele>497.0</ele><time>2026-04-10T13:08:35.001Z</time></trkpt><trkpt lat="39.38016307517061" lon="8.493581960786852"><ele>498.0</ele><time>2026-04-10T13:08:36.001Z</time></trkpt><trkpt lat="39.3800420954664" lon="8.493725223384283"><ele>499.0</ele><time>2026-04-10T13:08:37.001Z</time></trkpt><trkpt lat="39.37996923926334" lon="8.493903173750477"><ele>500.0</ele><time>2026-04-10T13:08:38.001Z</time></trkpt><trkpt lat="39.37989805265589" lon="8.494046064759695"><ele>497.6</ele><time>2026-04-10T13:08:39.001Z</time></trkpt><trkpt lat="39.37981091676455" lon="8.49414434229714"><ele>495.2</ele><time>2026-04-10T13:08:40.001Z</time></trkpt><trkpt lat="39.37971041061653" lon="8.49418490706346"><ele>492.79999999999995</ele><time>2026-04-10T13:08:41.001Z</time></trkpt><trkpt lat="39.37963243837377" lon="8.494165508585851"><ele>490.4</ele><time>2026-04-10T13:08:42.001Z</time></trkpt><trkpt lat="39.37953675451271" lon="8.494074725519173"><ele>488.0</ele><time>2026-04-10T13:08:43.001Z</time></trkpt><trkpt lat="39.3794299547432" lon="8.493963566044958"><ele>488.0</ele><time>2026-04-10T13:08:44.001Z</time></trkpt><trkpt lat="39.37931087455816" lon="8.493865689685409"><ele>488.0</ele><time>2026-04-10T13:08:45.001Z</time></trkpt><trkpt lat="39.37918491578079" lon="8.493773973769041"><ele>488.0</ele><time>2026-04-10T13:08:46.001Z</time></trkpt><trkpt lat="39.37908091109935" lon="8.49367624972026"><ele>488.0</ele><time>2026-04-10T13:08:47.001Z</time></trkpt><trkpt lat="39.37900446384726" lon="8.493561646848518"><ele>487.66666666666663</ele><time>2026-04-10T13:08:48.001Z</time></trkpt><trkpt lat="39.378933282238634" lon="8.493421406428233"><ele>487.33333333333337</ele><time>2026-04-10T13:08:49.001Z</time></trkpt><trkpt lat="39.37884415547171" lon="8.493261144493346"><ele>487.0</ele><time>2026-04-10T13:08:50.001Z</time></trkpt><trkpt lat="39.37874673402678" lon="8.493084447040292"><ele>495.0</ele><time>2026-04-10T13:08:51.001Z</time></trkpt><trkpt lat="39.37864883611657" lon="8.49291254001815"><ele>503.0</ele><time>2026-04-10T13:08:52.001Z</time></trkpt><trkpt lat="39.37855601221186" lon="8.4927460443893"><ele>511.0</ele><time>2026-04-10T13:08:53.001Z</time></trkpt><trkpt lat="39.37846749997555" lon="8.492573842244983"><ele>511.0</ele><time>2026-04-10T13:08:54.001Z</time></trkpt><trkpt lat="39.37837979838225" lon="8.49240408035311"><ele>511.0</ele><time>2026-04-10T13:08:55.001Z</time></trkpt><trkpt lat="39.378295960036944" lon="8.492255511491475"><ele>511.0</ele><time>2026-04-10T13:08:56.001Z</time></trkpt><trkpt lat="39.37821726010967" lon="8.492135795001225"><ele>511.0</ele><time>2026-04-10T13:08:57.001Z</time></trkpt><trkpt lat="39.37813019688319" lon="8.492069573745066"><ele>511.75</ele><time>2026-04-10T13:08:58.001Z</time></trkpt><trkpt lat="39.378027989714646" lon="8.492049126312658"><ele>512.5</ele><time>2026-04-10T13:08:59Z</time></trkpt><trkpt lat="39.37787905253044" lon="8.492058919288263"><ele>513.25</ele><time>2026-04-10T13:09:00Z</time></trkpt><trkpt lat="39.3777353906057" lon="8.492086934702007"><ele>514.0</ele><time>2026-04-10T13:09:01Z</time></trkpt><trkpt lat="39.37760599442249" lon="8.492092854490535"><ele>514.0</ele><time>2026-04-10T13:09:02Z</time></trkpt><trkpt lat="39.377488582918026" lon="8.492103600417229"><ele>514.0</ele><time>2026-04-10T13:09:03Z</time></trkpt><trkpt lat="39.37739151553256" lon="8.49214509475425"><ele>514.0</ele><time>2026-04-10T13:09:04Z</time></trkpt><trkpt lat="39.377341260445164" lon="8.492235174599017"><ele>514.0</ele><time>2026-04-10T13:09:05Z</time></trkpt><trkpt lat="39.37733380355009" lon="8.492350863790238"><ele>514.0</ele><time>2026-04-10T13:09:06Z</time></trkpt><trkpt lat="39.3773653608561" lon="8.49250623477205"><ele>514.0</ele><time>2026-04-10T13:09:07Z</time></trkpt><trkpt lat="39.37737926947381" lon="8.492627004142864"><ele>514.0</ele><time>2026-04-10T13:09:08Z</time></trkpt><trkpt lat="39.37735091415788" lon="8.492737234794056"><ele>514.0</ele><time>2026-04-10T13:09:09Z</time></trkpt><trkpt lat="39.37727566042223" lon="8.49282345701159"><ele>514.0</ele><time>2026-04-10T13:09:10Z</time></trkpt><trkpt lat="39.377154804321535" lon="8.492908430524405"><ele>514.0</ele><time>2026-04-10T13:09:11Z</time></trkpt><trkpt lat="39.37703883034877" lon="8.492988023776588"><ele>513.75</ele><time>2026-04-10T13:09:12Z</time></trkpt><trkpt lat="39.376913446260076" lon="8.49307010490038"><ele>513.5</ele><time>2026-04-10T13:09:13Z</time></trkpt><trkpt lat="39.37679669831028" lon="8.493135339976567"><ele>513.25</ele><time>2026-04-10T13:09:14Z</time></trkpt><trkpt lat="39.37668953081963" lon="8.493163412860323"><ele>513.0</ele><time>2026-04-10T13:09:15Z</time></trkpt><trkpt lat="39.376594131484566" lon="8.49314978273423"><ele>513.0</ele><time>2026-04-10T13:09:16Z</time></trkpt><trkpt lat="39.37649521058646" lon="8.493089071550797"><ele>513.0</ele><time>2026-04-10T13:09:17Z</time></trkpt><trkpt lat="39.37641229257826" lon="8.492968765727982"><ele>513.0</ele><time>2026-04-10T13:09:18Z</time></trkpt><trkpt lat="39.37632716954115" lon="8.492852259122916"><ele>513.0</ele><time>2026-04-10T13:09:19Z</time></trkpt><trkpt lat="39.37622083620675" lon="8.492807157019902"><ele>516.0</ele><time>2026-04-10T13:09:20Z</time></trkpt><trkpt lat="39.37610700606557" lon="8.492826400245674"><ele>519.0</ele><time>2026-04-10T13:09:21Z</time></trkpt><trkpt lat="39.37598839490908" lon="8.492902375695536"><ele>522.0</ele><time>2026-04-10T13:09:22Z</time></trkpt><trkpt lat="39.37589328170949" lon="8.493016491057764"><ele>525.0</ele><time>2026-04-10T13:09:23Z</time></trkpt><trkpt lat="39.375789868058234" lon="8.493162144943893"><ele>525.0</ele><time>2026-04-10T13:09:24Z</time></trkpt><trkpt lat="39.37565487676624" lon="8.49324988826828"><ele>525.0</ele><time>2026-04-10T13:09:25Z</time></trkpt><trkpt lat="39.375512466808765" lon="8.493339313042584"><ele>525.0</ele><time>2026-04-10T13:09:26Z</time></trkpt><trkpt lat="39.375372085977915" lon="8.493433239062986"><ele>529.25</ele><time>2026-04-10T13:09:27Z</time></trkpt><trkpt lat="39.37524709448981" lon="8.493550738228672"><ele>533.5</ele><time>2026-04-10T13:09:28Z</time></trkpt><trkpt lat="39.375152700268835" lon="8.493683632135223"><ele>537.75</ele><time>2026-04-10T13:09:29Z</time></trkpt><trkpt lat="39.37509884968553" lon="8.493831068046829"><ele>542.0</ele><time>2026-04-10T13:09:30Z</time></trkpt><trkpt lat="39.375104719699394" lon="8.49397590690007"><ele>542.0</ele><time>2026-04-10T13:09:31Z</time></trkpt><trkpt lat="39.37515004488063" lon="8.494122714472839"><ele>542.0</ele><time>2026-04-10T13:09:32Z</time></trkpt><trkpt lat="39.37521062772081" lon="8.49425277668"><ele>542.0</ele><time>2026-04-10T13:09:33Z</time></trkpt><trkpt lat="39.375225920415836" lon="8.494382838758812"><ele>542.0</ele><time>2026-04-10T13:09:34Z</time></trkpt><trkpt lat="39.37519062917882" lon="8.494529184049325"><ele>540.0</ele><time>2026-04-10T13:09:35Z</time></trkpt><trkpt lat="39.37511568583222" lon="8.49467105007369"><ele>538.0</ele><time>2026-04-10T13:09:36Z</time></trkpt><trkpt lat="39.37502779782967" lon="8.49481789786111"><ele>536.0</ele><time>2026-04-10T13:09:37Z</time></trkpt><trkpt lat="39.37491996067046" lon="8.494940262805189"><ele>534.0</ele><time>2026-04-10T13:09:38Z</time></trkpt><trkpt lat="39.37479673538001" lon="8.4950352747373"><ele>538.25</ele><time>2026-04-10T13:09:39Z</time></trkpt><trkpt lat="39.37467908739688" lon="8.495119171803461"><ele>542.5</ele><time>2026-04-10T13:09:40Z</time></trkpt><trkpt lat="39.37459133952996" lon="8.495214253241835"><ele>546.75</ele><time>2026-04-10T13:09:41Z</time></trkpt><trkpt lat="39.37455320842353" lon="8.495341925310676"><ele>551.0</ele><time>2026-04-10T13:09:42Z</time></trkpt><trkpt lat="39.37456232294748" lon="8.495498901579941"><ele>551.0</ele><time>2026-04-10T13:09:43Z</time></trkpt><trkpt lat="39.374589785746075" lon="8.495685820400256"><ele>551.0</ele><time>2026-04-10T13:09:44Z</time></trkpt><trkpt lat="39.37457562714221" lon="8.49583148525597"><ele>551.0</ele><time>2026-04-10T13:09:45Z</time></trkpt><trkpt lat="39.37450984539983" lon="8.495988513446287"><ele>551.0</ele><time>2026-04-10T13:09:46Z</time></trkpt><trkpt lat="39.374423865134155" lon="8.496127694811873"><ele>551.0</ele><time>2026-04-10T13:09:47Z</time></trkpt><trkpt lat="39.37432340517823" lon="8.49623391574427"><ele>551.0</ele><time>2026-04-10T13:09:48Z</time></trkpt><trkpt lat="39.37424047060909" lon="8.496357354482805"><ele>551.0</ele><time>2026-04-10T13:09:49Z</time></trkpt><trkpt lat="39.37415534030974" lon="8.496484061348331"><ele>551.0</ele><time>2026-04-10T13:09:50Z</time></trkpt><trkpt lat="39.3740706761989" lon="8.496610074321506"><ele>550.2</ele><time>2026-04-10T13:09:51Z</time></trkpt><trkpt lat="39.37399880643414" lon="8.49671752735622"><ele>549.4000000000001</ele><time>2026-04-10T13:09:52Z</time></trkpt><trkpt lat="39.373933207998085" lon="8.496815381649798"><ele>548.6</ele><time>2026-04-10T13:09:53Z</time></trkpt><trkpt lat="39.373868988306434" lon="8.496910918709409"><ele>547.8000000000001</ele><time>2026-04-10T13:09:54Z</time></trkpt><trkpt lat="39.37380569444782" lon="8.497005078415725"><ele>547.0</ele><time>2026-04-10T13:09:55Z</time></trkpt><trkpt lat="39.37375125594916" lon="8.497086064381815"><ele>547.0</ele><time>2026-04-10T13:09:56Z</time></trkpt><trkpt lat="39.373685520215304" lon="8.497183856766274"><ele>547.0</ele><time>2026-04-10T13:09:58Z</time></trkpt><trkpt lat="39.37363879281043" lon="8.497253371239013"><ele>547.0</ele><time>2026-04-10T13:10:00Z</time></trkpt><trkpt lat="39.37359522224541" lon="8.497332717197601"><ele>547.0</ele><time>2026-04-10T13:10:03Z</time></trkpt><trkpt lat="39.37362864892518" lon="8.497246491080325"><ele>547.0</ele><time>2026-04-10T13:10:38Z</time></trkpt><trkpt lat="39.373677715482295" lon="8.497152229908602"><ele>547.0</ele><time>2026-04-10T13:10:40Z</time></trkpt><trkpt lat="39.373705071459455" lon="8.497072933670182"><ele>547.0</ele><time>2026-04-10T13:10:43Z</time></trkpt><trkpt lat="39.37375660308903" lon="8.496996631808567"><ele>547.0</ele><time>2026-04-10T13:11:34Z</time></trkpt><trkpt lat="39.373819473746465" lon="8.49691591557457"><ele>547.0</ele><time>2026-04-10T13:11:36Z</time></trkpt><trkpt lat="39.37388295509657" lon="8.496824363703308"><ele>547.0</ele><time>2026-04-10T13:11:38Z</time></trkpt><trkpt lat="39.37392055039984" lon="8.496720148179165"><ele>547.0</ele><time>2026-04-10T13:11:41Z</time></trkpt><trkpt lat="39.37397154601335" lon="8.496671030319128"><ele>547.0</ele><time>2026-04-10T13:12:13Z</time></trkpt><trkpt lat="39.373999207541694" lon="8.496596359842108"><ele>546.8333333333334</ele><time>2026-04-10T13:12:18Z</time></trkpt><trkpt lat="39.37404161795004" lon="8.496531809308271"><ele>546.6666666666667</ele><time>2026-04-10T13:12:21Z</time></trkpt><trkpt lat="39.3740691467455" lon="8.496436770762548"><ele>546.5</ele><time>2026-04-10T13:12:23Z</time></trkpt><trkpt lat="39.37409469313979" lon="8.496311895389377"><ele>546.3333333333334</ele><time>2026-04-10T13:12:25Z</time></trkpt><trkpt lat="39.374149537995244" lon="8.496190124300275"><ele>546.1666666666666</ele><time>2026-04-10T13:12:27Z</time></trkpt><trkpt lat="39.37417674309833" lon="8.496108909623006"><ele>546.0</ele><time>2026-04-10T13:12:28Z</time></trkpt><trkpt lat="39.374204699160046" lon="8.49599883580847"><ele>546.8333333333334</ele><time>2026-04-10T13:12:29Z</time></trkpt><trkpt lat="39.374232713523384" lon="8.49592368046148"><ele>547.6666666666666</ele><time>2026-04-10T13:12:30Z</time></trkpt><trkpt lat="39.37426821772049" lon="8.495799059604206"><ele>548.5</ele><time>2026-04-10T13:12:32Z</time></trkpt><trkpt lat="39.37427920347768" lon="8.495673265796361"><ele>549.3333333333333</ele><time>2026-04-10T13:12:34Z</time></trkpt><trkpt lat="39.37429484564561" lon="8.495582743163183"><ele>550.1666666666666</ele><time>2026-04-10T13:12:35Z</time></trkpt><trkpt lat="39.37424761310678" lon="8.49549678080892"><ele>551.0</ele><time>2026-04-10T13:12:36Z</time></trkpt><trkpt lat="39.374228777079594" lon="8.495405819504432"><ele>553.0</ele><time>2026-04-10T13:12:37Z</time></trkpt><trkpt lat="39.374217774346235" lon="8.495244059687222"><ele>555.0</ele><time>2026-04-10T13:12:39Z</time></trkpt><trkpt lat="39.37424968427109" lon="8.49515766925592"><ele>557.0</ele><time>2026-04-10T13:12:40Z</time></trkpt><trkpt lat="39.37428916101964" lon="8.495083774232524"><ele>559.0</ele><time>2026-04-10T13:12:41Z</time></trkpt><trkpt lat="39.37434581574473" lon="8.495004672948173"><ele>561.0</ele><time>2026-04-10T13:12:42Z</time></trkpt><trkpt lat="39.37443427115303" lon="8.494923418951759"><ele>561.0</ele><time>2026-04-10T13:12:44Z</time></trkpt><trkpt lat="39.37449447291184" lon="8.494890782732096"><ele>561.0</ele><time>2026-04-10T13:12:45Z</time></trkpt><trkpt lat="39.37454710682216" lon="8.494844095956472"><ele>561.0</ele><time>2026-04-10T13:12:46Z</time></trkpt><trkpt lat="39.374590128450514" lon="8.494784114948207"><ele>561.0</ele><time>2026-04-10T13:12:47Z</time></trkpt><trkpt lat="39.374648547875125" lon="8.49463812343308"><ele>561.0</ele><time>2026-04-10T13:12:49Z</time></trkpt><trkpt lat="39.374688884843884" lon="8.494512904084711"><ele>561.0</ele><time>2026-04-10T13:12:51Z</time></trkpt><trkpt lat="39.3747237655531" lon="8.4944106066588"><ele>563.2</ele><time>2026-04-10T13:12:53Z</time></trkpt><trkpt lat="39.37474793128314" lon="8.494269471385724"><ele>565.4000000000001</ele><time>2026-04-10T13:12:55Z</time></trkpt><trkpt lat="39.37471337829983" lon="8.494135162181024"><ele>567.6</ele><time>2026-04-10T13:12:57Z</time></trkpt><trkpt lat="39.374651883611584" lon="8.493968202284863"><ele>569.8000000000001</ele><time>2026-04-10T13:12:59Z</time></trkpt><trkpt lat="39.37463579883154" lon="8.493866245185716"><ele>572.0</ele><time>2026-04-10T13:13:00Z</time></trkpt><trkpt lat="39.3746316690096" lon="8.493778422719599"><ele>568.0</ele><time>2026-04-10T13:13:01Z</time></trkpt><trkpt lat="39.37469036829597" lon="8.49365817786553"><ele>564.0</ele><time>2026-04-10T13:13:03Z</time></trkpt><trkpt lat="39.37475700195159" lon="8.493573025162705"><ele>560.0</ele><time>2026-04-10T13:13:05Z</time></trkpt><trkpt lat="39.374802363749765" lon="8.493480710060584"><ele>556.0</ele><time>2026-04-10T13:13:07Z</time></trkpt><trkpt lat="39.37482114726252" lon="8.493380622830374"><ele>552.0</ele><time>2026-04-10T13:13:09Z</time></trkpt><trkpt lat="39.37484231443431" lon="8.493226092078134"><ele>552.0</ele><time>2026-04-10T13:13:11Z</time></trkpt><trkpt lat="39.374865626904786" lon="8.493138961488711"><ele>552.0</ele><time>2026-04-10T13:13:12Z</time></trkpt><trkpt lat="39.37494039508046" lon="8.493089910893115"><ele>552.0</ele><time>2026-04-10T13:13:13Z</time></trkpt><trkpt lat="39.37501411384855" lon="8.493067647903578"><ele>552.0</ele><time>2026-04-10T13:13:14Z</time></trkpt><trkpt lat="39.375092510343805" lon="8.4930780145358"><ele>552.0</ele><time>2026-04-10T13:13:15Z</time></trkpt><trkpt lat="39.37515837058669" lon="8.493053430671214"><ele>552.0</ele><time>2026-04-10T13:13:16Z</time></trkpt><trkpt lat="39.375247270152634" lon="8.493002114388075"><ele>552.0</ele><time>2026-04-10T13:13:17Z</time></trkpt><trkpt lat="39.37530206314914" lon="8.49293805921594"><ele>552.0</ele><time>2026-04-10T13:13:18Z</time></trkpt><trkpt lat="39.37536666636856" lon="8.49287792604545"><ele>552.0</ele><time>2026-04-10T13:13:19Z</time></trkpt><trkpt lat="39.37542881000484" lon="8.492733867591992"><ele>552.0</ele><time>2026-04-10T13:13:21Z</time></trkpt><trkpt lat="39.37550168334794" lon="8.492514974025136"><ele>552.0</ele><time>2026-04-10T13:13:23Z</time></trkpt><trkpt lat="39.375571506434746" lon="8.492451558673114"><ele>552.0</ele><time>2026-04-10T13:13:24Z</time></trkpt><trkpt lat="39.375636326481036" lon="8.492395002926695"><ele>552.0</ele><time>2026-04-10T13:13:25Z</time></trkpt><trkpt lat="39.37569824777677" lon="8.492344468408525"><ele>552.0</ele><time>2026-04-10T13:13:26Z</time></trkpt><trkpt lat="39.37578139752359" lon="8.492314036638415"><ele>552.0</ele><time>2026-04-10T13:13:27Z</time></trkpt><trkpt lat="39.375935224256175" lon="8.4923293535369"><ele>552.0</ele><time>2026-04-10T13:13:29Z</time></trkpt><trkpt lat="39.37603570018665" lon="8.49232520921781"><ele>552.0</ele><time>2026-04-10T13:13:30Z</time></trkpt><trkpt lat="39.37612787624448" lon="8.492292592588301"><ele>552.0</ele><time>2026-04-10T13:13:31Z</time></trkpt><trkpt lat="39.37618719372204" lon="8.492236334103085"><ele>552.0</ele><time>2026-04-10T13:13:32Z</time></trkpt><trkpt lat="39.37624766390703" lon="8.492098743531699"><ele>552.0</ele><time>2026-04-10T13:13:33Z</time></trkpt><trkpt lat="39.376278209285545" lon="8.491969707729721"><ele>549.4</ele><time>2026-04-10T13:13:34Z</time></trkpt><trkpt lat="39.37631894750007" lon="8.491798306460643"><ele>546.8000000000001</ele><time>2026-04-10T13:13:35Z</time></trkpt><trkpt lat="39.3763484110282" lon="8.491651573458034"><ele>544.2</ele><time>2026-04-10T13:13:36Z</time></trkpt><trkpt lat="39.37637062436626" lon="8.491533571626512"><ele>541.6</ele><time>2026-04-10T13:13:37Z</time></trkpt><trkpt lat="39.37638690721984" lon="8.491428496503048"><ele>539.0</ele><time>2026-04-10T13:13:38Z</time></trkpt><trkpt lat="39.376393360096436" lon="8.49134322366881"><ele>541.0</ele><time>2026-04-10T13:13:39Z</time></trkpt><trkpt lat="39.37636569343816" lon="8.491235422639111"><ele>543.0</ele><time>2026-04-10T13:13:40Z</time></trkpt><trkpt lat="39.37636043949656" lon="8.491137173413115"><ele>545.0</ele><time>2026-04-10T13:13:41Z</time></trkpt><trkpt lat="39.37641053010255" lon="8.491056899082684"><ele>547.0</ele><time>2026-04-10T13:13:42Z</time></trkpt><trkpt lat="39.37643889326466" lon="8.490903345113365"><ele>549.0</ele><time>2026-04-10T13:13:44Z</time></trkpt><trkpt lat="39.37641702385064" lon="8.490817993199908"><ele>551.0</ele><time>2026-04-10T13:13:45Z</time></trkpt><trkpt lat="39.376413555397086" lon="8.49073433610366"><ele>551.0</ele><time>2026-04-10T13:13:46Z</time></trkpt><trkpt lat="39.376408962850455" lon="8.490623566725567"><ele>551.0</ele><time>2026-04-10T13:13:47Z</time></trkpt><trkpt lat="39.376404801770214" lon="8.49051088896313"><ele>551.0</ele><time>2026-04-10T13:13:48Z</time></trkpt><trkpt lat="39.376412756531906" lon="8.490367028585856"><ele>551.0</ele><time>2026-04-10T13:13:49Z</time></trkpt><trkpt lat="39.376429669111175" lon="8.490271206653158"><ele>551.0</ele><time>2026-04-10T13:13:50Z</time></trkpt><trkpt lat="39.37648667332591" lon="8.490181673963228"><ele>551.0</ele><time>2026-04-10T13:13:52Z</time></trkpt><trkpt lat="39.37654369724075" lon="8.490230952862511"><ele>551.0</ele><time>2026-04-10T13:13:53Z</time></trkpt><trkpt lat="39.376618982365564" lon="8.490302394040572"><ele>551.0</ele><time>2026-04-10T13:13:54Z</time></trkpt><trkpt lat="39.37669694340306" lon="8.490367571355003"><ele>551.0</ele><time>2026-04-10T13:13:55Z</time></trkpt><trkpt lat="39.376805576384264" lon="8.490452480074845"><ele>551.0</ele><time>2026-04-10T13:13:56Z</time></trkpt><trkpt lat="39.37690610303318" lon="8.490530501233323"><ele>551.0</ele><time>2026-04-10T13:13:57Z</time></trkpt><trkpt lat="39.37698584520232" lon="8.490618641554443"><ele>551.0</ele><time>2026-04-10T13:13:58Z</time></trkpt><trkpt lat="39.37705047261655" lon="8.49071983205919"><ele>551.0</ele><time>2026-04-10T13:13:59Z</time></trkpt><trkpt lat="39.37709059871469" lon="8.49079417195753"><ele>551.0</ele><time>2026-04-10T13:14:00Z</time></trkpt><trkpt lat="39.37713947088724" lon="8.490886007021771"><ele>551.0</ele><time>2026-04-10T13:14:01Z</time></trkpt><trkpt lat="39.37718541857948" lon="8.49099279059701"><ele>551.6666666666666</ele><time>2026-04-10T13:14:02Z</time></trkpt><trkpt lat="39.377213200382926" lon="8.491109430838106"><ele>552.3333333333333</ele><time>2026-04-10T13:14:03Z</time></trkpt><trkpt lat="39.37724579027363" lon="8.491181824096538"><ele>553.0</ele><time>2026-04-10T13:14:04Z</time></trkpt><trkpt lat="39.3773146187814" lon="8.491290187695865"><ele>553.6666666666666</ele><time>2026-04-10T13:14:06Z</time></trkpt><trkpt lat="39.37740687036068" lon="8.491307945953132"><ele>554.3333333333334</ele><time>2026-04-10T13:14:08Z</time></trkpt><trkpt lat="39.377482687778596" lon="8.491294958176638"><ele>555.0</ele><time>2026-04-10T13:14:09Z</time></trkpt><trkpt lat="39.37756238294584" lon="8.491250984904193"><ele>555.0000000000001</ele><time>2026-04-10T13:14:10Z</time></trkpt><trkpt lat="39.37762529263012" lon="8.49120016513275"><ele>555.0</ele><time>2026-04-10T13:14:11Z</time></trkpt><trkpt lat="39.377696596757005" lon="8.49114311319635"><ele>555.0</ele><time>2026-04-10T13:14:12Z</time></trkpt><trkpt lat="39.37774041922034" lon="8.491070312256188"><ele>555.0</ele><time>2026-04-10T13:14:13Z</time></trkpt><trkpt lat="39.37779432467984" lon="8.491016281798116"><ele>555.0</ele><time>2026-04-10T13:14:14Z</time></trkpt><trkpt lat="39.3778294627572" lon="8.490940927508781"><ele>555.0000000000001</ele><time>2026-04-10T13:14:15Z</time></trkpt><trkpt lat="39.37785562046222" lon="8.490863950698078"><ele>555.0</ele><time>2026-04-10T13:14:16Z</time></trkpt><trkpt lat="39.37788354010745" lon="8.490726962530777"><ele>555.0</ele><time>2026-04-10T13:14:17Z</time></trkpt><trkpt lat="39.37791537358471" lon="8.490578632048324"><ele>555.0</ele><time>2026-04-10T13:14:18Z</time></trkpt><trkpt lat="39.37794619532356" lon="8.490439966432493"><ele>555.0</ele><time>2026-04-10T13:14:19Z</time></trkpt><trkpt lat="39.377982970101215" lon="8.490329227844484"><ele>555.0</ele><time>2026-04-10T13:14:20Z</time></trkpt><trkpt lat="39.378027672482155" lon="8.490227379298627"><ele>555.0</ele><time>2026-04-10T13:14:21Z</time></trkpt><trkpt lat="39.37806254988649" lon="8.490151379081222"><ele>555.3333333333334</ele><time>2026-04-10T13:14:22Z</time></trkpt><trkpt lat="39.37810703040556" lon="8.490074113030012"><ele>555.6666666666666</ele><time>2026-04-10T13:14:23Z</time></trkpt><trkpt lat="39.378147987661364" lon="8.490006694739835"><ele>556.0</ele><time>2026-04-10T13:14:24Z</time></trkpt><trkpt lat="39.37825640449309" lon="8.489948731547228"><ele>556.3333333333333</ele><time>2026-04-10T13:14:26Z</time></trkpt><trkpt lat="39.37831557840932" lon="8.489997645479718"><ele>556.6666666666666</ele><time>2026-04-10T13:14:27Z</time></trkpt><trkpt lat="39.37837001061845" lon="8.490066967788295"><ele>557.0</ele><time>2026-04-10T13:14:28Z</time></trkpt><trkpt lat="39.37842343089876" lon="8.490187696227366"><ele>557.0</ele><time>2026-04-10T13:14:29Z</time></trkpt><trkpt lat="39.37846188583184" lon="8.490279716147388"><ele>557.0</ele><time>2026-04-10T13:14:30Z</time></trkpt><trkpt lat="39.37852864941065" lon="8.490385672959036"><ele>557.0</ele><time>2026-04-10T13:14:32Z</time></trkpt><trkpt lat="39.37858351997544" lon="8.490425745433003"><ele>557.0</ele><time>2026-04-10T13:15:42Z</time></trkpt><trkpt lat="39.37861799760354" lon="8.490514406496102"><ele>557.0</ele><time>2026-04-10T13:15:44Z</time></trkpt><trkpt lat="39.378673664751275" lon="8.49059114080754"><ele>557.0</ele><time>2026-04-10T13:15:46Z</time></trkpt><trkpt lat="39.378743424631935" lon="8.490631112631048"><ele>556.8333333333333</ele><time>2026-04-10T13:15:48Z</time></trkpt><trkpt lat="39.37882238194382" lon="8.490608647480467"><ele>556.6666666666666</ele><time>2026-04-10T13:15:50Z</time></trkpt><trkpt lat="39.37890443420808" lon="8.490565950432648"><ele>556.5</ele><time>2026-04-10T13:15:53Z</time></trkpt><trkpt lat="39.37894787966926" lon="8.490497886338044"><ele>556.3333333333334</ele><time>2026-04-10T13:15:55Z</time></trkpt><trkpt lat="39.378973318200934" lon="8.490416947995557"><ele>556.1666666666667</ele><time>2026-04-10T13:15:57Z</time></trkpt><trkpt lat="39.37899377208395" lon="8.490329863658124"><ele>556.0</ele><time>2026-04-10T13:15:59Z</time></trkpt><trkpt lat="39.37898776767376" lon="8.490225801454237"><ele>556.0</ele><time>2026-04-10T13:16:01Z</time></trkpt><trkpt lat="39.37901356127266" lon="8.490127382249145"><ele>556.0</ele><time>2026-04-10T13:16:02Z</time></trkpt><trkpt lat="39.3790304406748" lon="8.490032477283908"><ele>556.0</ele><time>2026-04-10T13:16:03Z</time></trkpt><trkpt lat="39.37905100611674" lon="8.489944947311105"><ele>556.0</ele><time>2026-04-10T13:16:04Z</time></trkpt><trkpt lat="39.37911826015388" lon="8.48990239553576"><ele>556.0</ele><time>2026-04-10T13:16:05Z</time></trkpt><trkpt lat="39.37918202082185" lon="8.489902046093318"><ele>556.0</ele><time>2026-04-10T13:16:06Z</time></trkpt><trkpt lat="39.37923973843996" lon="8.48997208690488"><ele>556.0</ele><time>2026-04-10T13:16:07Z</time></trkpt><trkpt lat="39.3793119233932" lon="8.490001141383436"><ele>556.0</ele><time>2026-04-10T13:16:08Z</time></trkpt><trkpt lat="39.37939741232598" lon="8.490011487586063"><ele>556.0</ele><time>2026-04-10T13:16:11Z</time></trkpt><trkpt lat="39.37946688079487" lon="8.489996406065211"><ele>556.0</ele><time>2026-04-10T13:16:32Z</time></trkpt><trkpt lat="39.37957021047042" lon="8.489976310342682"><ele>556.0</ele><time>2026-04-10T13:16:34Z</time></trkpt><trkpt lat="39.37963024431154" lon="8.48991464896306"><ele>556.0</ele><time>2026-04-10T13:16:35Z</time></trkpt><trkpt lat="39.37975669253901" lon="8.489967582730703"><ele>555.6666666666667</ele><time>2026-04-10T13:16:37Z</time></trkpt><trkpt lat="39.37982653447063" lon="8.48998106349087"><ele>555.3333333333334</ele><time>2026-04-10T13:16:38Z</time></trkpt><trkpt lat="39.37991452986881" lon="8.489969856679975"><ele>555.0</ele><time>2026-04-10T13:16:39Z</time></trkpt><trkpt lat="39.37998477473806" lon="8.489942464066054"><ele>554.6666666666666</ele><time>2026-04-10T13:16:40Z</time></trkpt><trkpt lat="39.380069629371846" lon="8.489938362482777"><ele>554.3333333333333</ele><time>2026-04-10T13:16:41Z</time></trkpt><trkpt lat="39.38016743172221" lon="8.489944301016726"><ele>554.0</ele><time>2026-04-10T13:16:42Z</time></trkpt><trkpt lat="39.38026915823366" lon="8.489926998845908"><ele>554.0</ele><time>2026-04-10T13:16:43Z</time></trkpt><trkpt lat="39.38034910785038" lon="8.489985202229782"><ele>554.0</ele><time>2026-04-10T13:16:44Z</time></trkpt><trkpt lat="39.380412089019686" lon="8.490051716809795"><ele>554.0</ele><time>2026-04-10T13:16:45Z</time></trkpt><trkpt lat="39.38049781915377" lon="8.490105933215707"><ele>554.0</ele><time>2026-04-10T13:16:46Z</time></trkpt><trkpt lat="39.38059335428424" lon="8.490130779042559"><ele>554.0</ele><time>2026-04-10T13:16:47Z</time></trkpt><trkpt lat="39.38068523812388" lon="8.490123297289726"><ele>552.0</ele><time>2026-04-10T13:16:48Z</time></trkpt><trkpt lat="39.3807508445819" lon="8.49010414531981"><ele>550.0</ele><time>2026-04-10T13:16:49Z</time></trkpt><trkpt lat="39.38081185020412" lon="8.490064726520698"><ele>548.0</ele><time>2026-04-10T13:16:50Z</time></trkpt><trkpt lat="39.38088660089471" lon="8.489993123323888"><ele>546.0</ele><time>2026-04-10T13:16:51Z</time></trkpt><trkpt lat="39.38096890889135" lon="8.489880736642506"><ele>544.0</ele><time>2026-04-10T13:16:52Z</time></trkpt><trkpt lat="39.38105343157926" lon="8.489758314276001"><ele>544.0</ele><time>2026-04-10T13:16:53Z</time></trkpt><trkpt lat="39.38114639528619" lon="8.489668059156841"><ele>544.0</ele><time>2026-04-10T13:16:54Z</time></trkpt><trkpt lat="39.38122990029067" lon="8.489557901001206"><ele>544.0</ele><time>2026-04-10T13:16:55Z</time></trkpt><trkpt lat="39.38131177333009" lon="8.489437971167375"><ele>544.0</ele><time>2026-04-10T13:16:56Z</time></trkpt><trkpt lat="39.3813826320075" lon="8.489355638090784"><ele>543.4</ele><time>2026-04-10T13:16:57Z</time></trkpt><trkpt lat="39.381434955153075" lon="8.489255758183095"><ele>542.8</ele><time>2026-04-10T13:16:58Z</time></trkpt><trkpt lat="39.38149549340666" lon="8.4891441675637"><ele>542.2</ele><time>2026-04-10T13:16:59Z</time></trkpt><trkpt lat="39.38156308287555" lon="8.489040480486828"><ele>541.6</ele><time>2026-04-10T13:17:00Z</time></trkpt><trkpt lat="39.38159383524977" lon="8.488961490916349"><ele>541.0</ele><time>2026-04-10T13:17:01Z</time></trkpt><trkpt lat="39.3816821612851" lon="8.488809364885016"><ele>543.4</ele><time>2026-04-10T13:17:03Z</time></trkpt><trkpt lat="39.38171405476288" lon="8.488717930008029"><ele>545.8</ele><time>2026-04-10T13:17:04Z</time></trkpt><trkpt lat="39.38174226680431" lon="8.48861780671892"><ele>548.1999999999999</ele><time>2026-04-10T13:17:05Z</time></trkpt><trkpt lat="39.38177631623611" lon="8.488481845928606"><ele>550.6</ele><time>2026-04-10T13:17:06Z</time></trkpt><trkpt lat="39.38180734816998" lon="8.488360461041278"><ele>553.0</ele><time>2026-04-10T13:17:07Z</time></trkpt><trkpt lat="39.381836803282525" lon="8.488238727563964"><ele>553.0</ele><time>2026-04-10T13:17:08Z</time></trkpt><trkpt lat="39.38184393846617" lon="8.488143308532063"><ele>553.0</ele><time>2026-04-10T13:17:09Z</time></trkpt><trkpt lat="39.381831330032725" lon="8.488058575150314"><ele>553.0</ele><time>2026-04-10T13:17:10Z</time></trkpt><trkpt lat="39.38179861272074" lon="8.487969661152283"><ele>553.0</ele><time>2026-04-10T13:17:11Z</time></trkpt><trkpt lat="39.381763446533284" lon="8.487857240284276"><ele>553.0</ele><time>2026-04-10T13:17:12Z</time></trkpt><trkpt lat="39.38171108059039" lon="8.487751603419916"><ele>553.0</ele><time>2026-04-10T13:17:13Z</time></trkpt><trkpt lat="39.38166719713285" lon="8.48767185763764"><ele>551.6666666666667</ele><time>2026-04-10T13:17:14Z</time></trkpt><trkpt lat="39.381615636765346" lon="8.487586055032752"><ele>550.3333333333334</ele><time>2026-04-10T13:17:15Z</time></trkpt><trkpt lat="39.38156582515265" lon="8.487510937680927"><ele>549.0</ele><time>2026-04-10T13:17:16Z</time></trkpt><trkpt lat="39.381501906790994" lon="8.487432744796463"><ele>547.6666666666666</ele><time>2026-04-10T13:17:17Z</time></trkpt><trkpt lat="39.381438650840124" lon="8.487362624076713"><ele>546.3333333333333</ele><time>2026-04-10T13:17:18Z</time></trkpt><trkpt lat="39.38136895080269" lon="8.487294689281807"><ele>545.0</ele><time>2026-04-10T13:17:19Z</time></trkpt><trkpt lat="39.381290971852145" lon="8.487228838311102"><ele>548.8</ele><time>2026-04-10T13:17:20Z</time></trkpt><trkpt lat="39.38120423057999" lon="8.487167094523324"><ele>552.6</ele><time>2026-04-10T13:17:21Z</time></trkpt><trkpt lat="39.381102925772424" lon="8.487113359341537"><ele>556.4</ele><time>2026-04-10T13:17:22Z</time></trkpt><trkpt lat="39.381022513908235" lon="8.487067319652422"><ele>560.2</ele><time>2026-04-10T13:17:23Z</time></trkpt><trkpt lat="39.38093452625787" lon="8.486992001347172"><ele>564.0</ele><time>2026-04-10T13:17:25Z</time></trkpt><trkpt lat="39.38095847403444" lon="8.486847184578354"><ele>564.0</ele><time>2026-04-10T13:17:27Z</time></trkpt><trkpt lat="39.38100697311936" lon="8.48676894090663"><ele>564.0</ele><time>2026-04-10T13:17:28Z</time></trkpt><trkpt lat="39.381085221808476" lon="8.48667858169086"><ele>564.0</ele><time>2026-04-10T13:17:29Z</time></trkpt><trkpt lat="39.38115069614946" lon="8.486595595922227"><ele>564.0</ele><time>2026-04-10T13:17:30Z</time></trkpt><trkpt lat="39.38121113924717" lon="8.486499280374556"><ele>564.0</ele><time>2026-04-10T13:17:31Z</time></trkpt><trkpt lat="39.38126683676563" lon="8.48642111869629"><ele>564.0</ele><time>2026-04-10T13:17:32Z</time></trkpt><trkpt lat="39.3813317117148" lon="8.486377523619545"><ele>564.0</ele><time>2026-04-10T13:17:33Z</time></trkpt><trkpt lat="39.38140388859376" lon="8.486385983171752"><ele>564.0</ele><time>2026-04-10T13:17:35Z</time></trkpt><trkpt lat="39.38154437752479" lon="8.486406445902235"><ele>564.0</ele><time>2026-04-10T13:17:37Z</time></trkpt><trkpt lat="39.38161998295718" lon="8.486395762992148"><ele>564.0</ele><time>2026-04-10T13:17:38Z</time></trkpt><trkpt lat="39.381691551344666" lon="8.486403832897143"><ele>564.0</ele><time>2026-04-10T13:17:39Z</time></trkpt><trkpt lat="39.3817628346805" lon="8.486418956571528"><ele>561.3333333333334</ele><time>2026-04-10T13:17:40Z</time></trkpt><trkpt lat="39.3818702494062" lon="8.486426122565076"><ele>558.6666666666666</ele><time>2026-04-10T13:17:41Z</time></trkpt><trkpt lat="39.38197029410021" lon="8.486444989684665"><ele>556.0</ele><time>2026-04-10T13:17:42Z</time></trkpt><trkpt lat="39.38204738902162" lon="8.48644776527437"><ele>553.3333333333333</ele><time>2026-04-10T13:17:43Z</time></trkpt><trkpt lat="39.382119960922104" lon="8.486454133882344"><ele>550.6666666666666</ele><time>2026-04-10T13:17:44Z</time></trkpt><trkpt lat="39.38219297260122" lon="8.486461464257639"><ele>548.0</ele><time>2026-04-10T13:17:45Z</time></trkpt><trkpt lat="39.38226264127229" lon="8.48645654566899"><ele>546.0</ele><time>2026-04-10T13:17:46Z</time></trkpt><trkpt lat="39.38232858560885" lon="8.486442385564718"><ele>544.0</ele><time>2026-04-10T13:17:47Z</time></trkpt><trkpt lat="39.38241429722451" lon="8.486431482969964"><ele>542.0</ele><time>2026-04-10T13:17:48Z</time></trkpt><trkpt lat="39.382505290589" lon="8.48641021811787"><ele>540.0</ele><time>2026-04-10T13:17:49Z</time></trkpt><trkpt lat="39.38257883810218" lon="8.486382999477296"><ele>538.0</ele><time>2026-04-10T13:17:50Z</time></trkpt><trkpt lat="39.38265655246625" lon="8.486360724919912"><ele>536.0</ele><time>2026-04-10T13:17:53Z</time></trkpt><trkpt lat="39.382724233060806" lon="8.486338564657158"><ele>536.0</ele><time>2026-04-10T13:17:55Z</time></trkpt><trkpt lat="39.382796498631514" lon="8.486279698368994"><ele>536.0</ele><time>2026-04-10T13:17:57Z</time></trkpt><trkpt lat="39.38285711595765" lon="8.486126765479902"><ele>536.0</ele><time>2026-04-10T13:17:59Z</time></trkpt><trkpt lat="39.382869905671775" lon="8.48599616743209"><ele>536.0</ele><time>2026-04-10T13:18:00Z</time></trkpt><trkpt lat="39.382865680134614" lon="8.485896647908147"><ele>536.0</ele><time>2026-04-10T13:18:01Z</time></trkpt><trkpt lat="39.38287047159456" lon="8.485796239205522"><ele>540.2</ele><time>2026-04-10T13:18:02Z</time></trkpt><trkpt lat="39.382873240156" lon="8.485709297286634"><ele>544.4000000000001</ele><time>2026-04-10T13:18:03Z</time></trkpt><trkpt lat="39.382853581951906" lon="8.485548616083937"><ele>548.6</ele><time>2026-04-10T13:18:05Z</time></trkpt><trkpt lat="39.382837026711805" lon="8.485464640855708"><ele>552.8000000000001</ele><time>2026-04-10T13:18:06Z</time></trkpt><trkpt lat="39.382829059833774" lon="8.48533856791455"><ele>557.0</ele><time>2026-04-10T13:18:07Z</time></trkpt><trkpt lat="39.38280337195441" lon="8.485209462602802"><ele>557.4</ele><time>2026-04-10T13:18:08Z</time></trkpt><trkpt lat="39.38278231899418" lon="8.485123540941256"><ele>557.8000000000001</ele><time>2026-04-10T13:18:09Z</time></trkpt><trkpt lat="39.38271178709995" lon="8.48497403327434"><ele>558.2</ele><time>2026-04-10T13:18:11Z</time></trkpt><trkpt lat="39.38267957188222" lon="8.484848514546176"><ele>558.6</ele><time>2026-04-10T13:18:12Z</time></trkpt><trkpt lat="39.38264405534573" lon="8.484758426291645"><ele>559.0</ele><time>2026-04-10T13:18:13Z</time></trkpt><trkpt lat="39.38261173784117" lon="8.484638137683394"><ele>559.6</ele><time>2026-04-10T13:18:15Z</time></trkpt><trkpt lat="39.38259449938861" lon="8.484546460379867"><ele>560.2</ele><time>2026-04-10T13:18:17Z</time></trkpt><trkpt lat="39.38262566080683" lon="8.484381529123429"><ele>560.8000000000001</ele><time>2026-04-10T13:18:19Z</time></trkpt><trkpt lat="39.38266168427451" lon="8.484256357883904"><ele>561.4</ele><time>2026-04-10T13:18:21Z</time></trkpt><trkpt lat="39.38272081106495" lon="8.48415286118078"><ele>562.0</ele><time>2026-04-10T13:18:23Z</time></trkpt><trkpt lat="39.38278143945081" lon="8.484037468381464"><ele>562.0</ele><time>2026-04-10T13:18:25Z</time></trkpt><trkpt lat="39.38283580124051" lon="8.483938940704775"><ele>562.0</ele><time>2026-04-10T13:18:26Z</time></trkpt><trkpt lat="39.382878504149076" lon="8.483857630502472"><ele>562.0</ele><time>2026-04-10T13:18:27Z</time></trkpt><trkpt lat="39.38293209037386" lon="8.483785398320753"><ele>562.0</ele><time>2026-04-10T13:18:28Z</time></trkpt><trkpt lat="39.382997569724196" lon="8.483729505589624"><ele>562.0</ele><time>2026-04-10T13:18:29Z</time></trkpt><trkpt lat="39.38305472075677" lon="8.483683512282477"><ele>562.0</ele><time>2026-04-10T13:18:30Z</time></trkpt><trkpt lat="39.38312288472919" lon="8.48364188039752"><ele>561.1666666666667</ele><time>2026-04-10T13:18:31Z</time></trkpt><trkpt lat="39.38318734056396" lon="8.483602959757441"><ele>560.3333333333334</ele><time>2026-04-10T13:18:32Z</time></trkpt><trkpt lat="39.38325246023189" lon="8.483570024553483"><ele>559.5</ele><time>2026-04-10T13:18:33Z</time></trkpt><trkpt lat="39.38333993208785" lon="8.483539270839055"><ele>558.6666666666666</ele><time>2026-04-10T13:18:34Z</time></trkpt><trkpt lat="39.38342566990619" lon="8.483517695408262"><ele>557.8333333333333</ele><time>2026-04-10T13:18:35Z</time></trkpt><trkpt lat="39.383514845589815" lon="8.483501727477549"><ele>557.0</ele><time>2026-04-10T13:18:36Z</time></trkpt><trkpt lat="39.383591076163974" lon="8.483476317321479"><ele>557.0</ele><time>2026-04-10T13:18:37Z</time></trkpt><trkpt lat="39.3837113437136" lon="8.483439996475491"><ele>557.0</ele><time>2026-04-10T13:18:39Z</time></trkpt><trkpt lat="39.38385512758863" lon="8.483416095354753"><ele>557.0</ele><time>2026-04-10T13:18:41Z</time></trkpt><trkpt lat="39.38395065806624" lon="8.483425460048384"><ele>557.0</ele><time>2026-04-10T13:18:42Z</time></trkpt><trkpt lat="39.38402447175964" lon="8.483441732536335"><ele>557.0</ele><time>2026-04-10T13:18:43Z</time></trkpt><trkpt lat="39.38410263813136" lon="8.483472055245663"><ele>555.5</ele><time>2026-04-10T13:18:44Z</time></trkpt><trkpt lat="39.384169796153174" lon="8.483469729316264"><ele>554.0</ele><time>2026-04-10T13:18:45Z</time></trkpt><trkpt lat="39.384245700294414" lon="8.483445241040618"><ele>552.5</ele><time>2026-04-10T13:18:46Z</time></trkpt><trkpt lat="39.3843120579495" lon="8.483396739545524"><ele>551.0</ele><time>2026-04-10T13:18:47Z</time></trkpt><trkpt lat="39.38437985395832" lon="8.483341334009586"><ele>549.5</ele><time>2026-04-10T13:18:48Z</time></trkpt><trkpt lat="39.384442978725446" lon="8.483278219954771"><ele>548.0</ele><time>2026-04-10T13:18:49Z</time></trkpt><trkpt lat="39.384501358946295" lon="8.483223922700345"><ele>548.0</ele><time>2026-04-10T13:18:50Z</time></trkpt><trkpt lat="39.38454281882713" lon="8.483156429001424"><ele>548.0</ele><time>2026-04-10T13:18:51Z</time></trkpt><trkpt lat="39.38459046092857" lon="8.483010875172289"><ele>548.0</ele><time>2026-04-10T13:18:53Z</time></trkpt><trkpt lat="39.384589056006064" lon="8.482921183621153"><ele>548.0</ele><time>2026-04-10T13:18:54Z</time></trkpt><trkpt lat="39.38457519810459" lon="8.482799183929814"><ele>548.0</ele><time>2026-04-10T13:18:56Z</time></trkpt><trkpt lat="39.384569226111296" lon="8.48269021737943"><ele>548.0</ele><time>2026-04-10T13:18:59Z</time></trkpt><trkpt lat="39.38452870440179" lon="8.482536498539652"><ele>549.0</ele><time>2026-04-10T13:19:01Z</time></trkpt><trkpt lat="39.384499175303695" lon="8.482447716747322"><ele>550.0</ele><time>2026-04-10T13:19:02Z</time></trkpt><trkpt lat="39.38446191011941" lon="8.482371041011294"><ele>551.0</ele><time>2026-04-10T13:19:03Z</time></trkpt><trkpt lat="39.38442122453965" lon="8.482307288341277"><ele>552.0</ele><time>2026-04-10T13:19:04Z</time></trkpt><trkpt lat="39.384368114221424" lon="8.482236142086155"><ele>553.0</ele><time>2026-04-10T13:19:05Z</time></trkpt><trkpt lat="39.38431361770732" lon="8.482171136541597"><ele>554.0</ele><time>2026-04-10T13:19:06Z</time></trkpt><trkpt lat="39.384207900193964" lon="8.482074170775356"><ele>550.0</ele><time>2026-04-10T13:19:08Z</time></trkpt><trkpt lat="39.38414026318607" lon="8.482022871961169"><ele>546.0</ele><time>2026-04-10T13:19:09Z</time></trkpt><trkpt lat="39.38406443969001" lon="8.481992583986715"><ele>542.0</ele><time>2026-04-10T13:19:10Z</time></trkpt><trkpt lat="39.38395680324279" lon="8.481991531451357"><ele>538.0</ele><time>2026-04-10T13:19:11Z</time></trkpt><trkpt lat="39.38385501615278" lon="8.481987616099683"><ele>534.0</ele><time>2026-04-10T13:19:12Z</time></trkpt><trkpt lat="39.38375372158511" lon="8.481976633265955"><ele>534.0</ele><time>2026-04-10T13:19:13Z</time></trkpt><trkpt lat="39.38366453484476" lon="8.481964813908485"><ele>534.0</ele><time>2026-04-10T13:19:14Z</time></trkpt><trkpt lat="39.38359998684662" lon="8.48195398271912"><ele>534.0</ele><time>2026-04-10T13:19:15Z</time></trkpt><trkpt lat="39.38352944558098" lon="8.481940430596543"><ele>534.0</ele><time>2026-04-10T13:19:16Z</time></trkpt><trkpt lat="39.38344579401274" lon="8.481918774219494"><ele>534.0</ele><time>2026-04-10T13:19:17Z</time></trkpt><trkpt lat="39.383376019396906" lon="8.481898367223502"><ele>534.0</ele><time>2026-04-10T13:19:18Z</time></trkpt><trkpt lat="39.38330266043852" lon="8.481877615367118"><ele>534.0</ele><time>2026-04-10T13:19:19Z</time></trkpt><trkpt lat="39.38323982859213" lon="8.481863592458405"><ele>534.0</ele><time>2026-04-10T13:19:20Z</time></trkpt><trkpt lat="39.38311065226614" lon="8.481851729240036"><ele>534.0</ele><time>2026-04-10T13:19:22Z</time></trkpt><trkpt lat="39.383041072363824" lon="8.481874498729711"><ele>534.0</ele><time>2026-04-10T13:19:23Z</time></trkpt><trkpt lat="39.38297922002732" lon="8.481901629874265"><ele>534.0</ele><time>2026-04-10T13:19:24Z</time></trkpt><trkpt lat="39.38290081281836" lon="8.481945244191095"><ele>534.0</ele><time>2026-04-10T13:19:25Z</time></trkpt><trkpt lat="39.38281035004137" lon="8.481992079881312"><ele>532.1666666666666</ele><time>2026-04-10T13:19:26Z</time></trkpt><trkpt lat="39.38271342309739" lon="8.482037305254694"><ele>530.3333333333334</ele><time>2026-04-10T13:19:27Z</time></trkpt><trkpt lat="39.38262511776894" lon="8.482078195169995"><ele>528.5</ele><time>2026-04-10T13:19:28Z</time></trkpt><trkpt lat="39.38254855311497" lon="8.482133728216409"><ele>526.6666666666667</ele><time>2026-04-10T13:19:29Z</time></trkpt><trkpt lat="39.38247394780728" lon="8.482167314247686"><ele>524.8333333333334</ele><time>2026-04-10T13:19:30Z</time></trkpt><trkpt lat="39.382410240280805" lon="8.482197828866953"><ele>523.0</ele><time>2026-04-10T13:19:31Z</time></trkpt><trkpt lat="39.38234555266142" lon="8.482276213421954"><ele>526.0</ele><time>2026-04-10T13:19:32Z</time></trkpt><trkpt lat="39.38225582785124" lon="8.482319509059387"><ele>529.0</ele><time>2026-04-10T13:19:33Z</time></trkpt><trkpt lat="39.382167779109395" lon="8.482355144180561"><ele>532.0</ele><time>2026-04-10T13:19:34Z</time></trkpt><trkpt lat="39.38208650614933" lon="8.48240216296864"><ele>535.0</ele><time>2026-04-10T13:19:35Z</time></trkpt><trkpt lat="39.38201006659373" lon="8.482422010908927"><ele>538.0</ele><time>2026-04-10T13:19:36Z</time></trkpt><trkpt lat="39.38194501775011" lon="8.48245140505573"><ele>541.0</ele><time>2026-04-10T13:19:37Z</time></trkpt><trkpt lat="39.381870946006096" lon="8.482468378866043"><ele>541.0</ele><time>2026-04-10T13:19:38Z</time></trkpt><trkpt lat="39.381789033667445" lon="8.482508546398638"><ele>541.0</ele><time>2026-04-10T13:19:39Z</time></trkpt><trkpt lat="39.38171134620701" lon="8.482560297318837"><ele>541.0</ele><time>2026-04-10T13:19:40Z</time></trkpt><trkpt lat="39.38162022458101" lon="8.482613134063385"><ele>541.0</ele><time>2026-04-10T13:19:41Z</time></trkpt><trkpt lat="39.38152551372328" lon="8.482608740020513"><ele>541.0</ele><time>2026-04-10T13:19:42Z</time></trkpt><trkpt lat="39.38142883288847" lon="8.482618725708761"><ele>541.0</ele><time>2026-04-10T13:19:43Z</time></trkpt><trkpt lat="39.38135435689433" lon="8.482634696186656"><ele>541.0</ele><time>2026-04-10T13:19:44Z</time></trkpt><trkpt lat="39.38128774836219" lon="8.48265799478304"><ele>541.0</ele><time>2026-04-10T13:19:45Z</time></trkpt><trkpt lat="39.38122993655998" lon="8.482718464421904"><ele>541.0</ele><time>2026-04-10T13:19:46Z</time></trkpt><trkpt lat="39.381164935274576" lon="8.482770900540265"><ele>541.0</ele><time>2026-04-10T13:19:47Z</time></trkpt><trkpt lat="39.38109477939772" lon="8.48283348267772"><ele>541.0</ele><time>2026-04-10T13:19:48Z</time></trkpt><trkpt lat="39.38103995260167" lon="8.48290359280466"><ele>544.1666666666667</ele><time>2026-04-10T13:19:49Z</time></trkpt><trkpt lat="39.380974431119434" lon="8.482955073622737"><ele>547.3333333333334</ele><time>2026-04-10T13:19:50Z</time></trkpt><trkpt lat="39.38091739695501" lon="8.48299795874982"><ele>550.5</ele><time>2026-04-10T13:19:51Z</time></trkpt><trkpt lat="39.38083861148236" lon="8.483028525939693"><ele>553.6666666666666</ele><time>2026-04-10T13:19:52Z</time></trkpt><trkpt lat="39.380763399025284" lon="8.483043173609842"><ele>556.8333333333333</ele><time>2026-04-10T13:19:53Z</time></trkpt><trkpt lat="39.380671910790156" lon="8.48310757719149"><ele>560.0</ele><time>2026-04-10T13:19:55Z</time></trkpt><trkpt lat="39.380603708117825" lon="8.483120188469266"><ele>560.0</ele><time>2026-04-10T13:19:56Z</time></trkpt><trkpt lat="39.380527987655995" lon="8.4831518496099"><ele>560.0</ele><time>2026-04-10T13:19:57Z</time></trkpt><trkpt lat="39.380447808300346" lon="8.48317493191834"><ele>560.0</ele><time>2026-04-10T13:19:58Z</time></trkpt><trkpt lat="39.38037837457418" lon="8.48318846381795"><ele>560.0</ele><time>2026-04-10T13:19:59Z</time></trkpt><trkpt lat="39.38025272427787" lon="8.483143816999204"><ele>560.0</ele><time>2026-04-10T13:20:01Z</time></trkpt><trkpt lat="39.38016703998606" lon="8.48312495874939"><ele>560.0</ele><time>2026-04-10T13:20:02Z</time></trkpt><trkpt lat="39.380095534677274" lon="8.483112470060329"><ele>559.8</ele><time>2026-04-10T13:20:03Z</time></trkpt><trkpt lat="39.37995624446563" lon="8.48308013081292"><ele>559.6</ele><time>2026-04-10T13:20:05Z</time></trkpt><trkpt lat="39.37987749748967" lon="8.483060097896342"><ele>559.4</ele><time>2026-04-10T13:20:06Z</time></trkpt><trkpt lat="39.379801043783786" lon="8.483028448037736"><ele>559.2</ele><time>2026-04-10T13:20:07Z</time></trkpt><trkpt lat="39.37970828030429" lon="8.482983367031345"><ele>559.0</ele><time>2026-04-10T13:20:08Z</time></trkpt><trkpt lat="39.379625292509566" lon="8.482939301344611"><ele>559.0</ele><time>2026-04-10T13:20:09Z</time></trkpt><trkpt lat="39.379551875615675" lon="8.482900293066976"><ele>559.0</ele><time>2026-04-10T13:20:10Z</time></trkpt><trkpt lat="39.37944136552228" lon="8.482847364508627"><ele>559.0</ele><time>2026-04-10T13:20:12Z</time></trkpt><trkpt lat="39.37939732916229" lon="8.482749912505684"><ele>559.0</ele><time>2026-04-10T13:20:14Z</time></trkpt><trkpt lat="39.37939308397899" lon="8.482647936066973"><ele>559.0</ele><time>2026-04-10T13:20:16Z</time></trkpt><trkpt lat="39.37939267224535" lon="8.482562457672355"><ele>559.0</ele><time>2026-04-10T13:20:18Z</time></trkpt><trkpt lat="39.37941451195358" lon="8.482432611449102"><ele>559.0</ele><time>2026-04-10T13:20:20Z</time></trkpt><trkpt lat="39.37942940970454" lon="8.482324792574472"><ele>559.0</ele><time>2026-04-10T13:20:21Z</time></trkpt><trkpt lat="39.37944758955158" lon="8.482213145423177"><ele>559.0</ele><time>2026-04-10T13:20:22Z</time></trkpt><trkpt lat="39.37947268356062" lon="8.482107456783474"><ele>559.0</ele><time>2026-04-10T13:20:23Z</time></trkpt><trkpt lat="39.379495749839684" lon="8.482016470016346"><ele>559.0</ele><time>2026-04-10T13:20:24Z</time></trkpt><trkpt lat="39.37952380684301" lon="8.481900522817309"><ele>559.0</ele><time>2026-04-10T13:20:25Z</time></trkpt><trkpt lat="39.379549926314525" lon="8.481772823312616"><ele>558.5</ele><time>2026-04-10T13:20:26Z</time></trkpt><trkpt lat="39.3795701522046" lon="8.481633192961723"><ele>558.0</ele><time>2026-04-10T13:20:27Z</time></trkpt><trkpt lat="39.37956913511894" lon="8.481520392041697"><ele>557.5</ele><time>2026-04-10T13:20:28Z</time></trkpt><trkpt lat="39.379556337231186" lon="8.48142412144414"><ele>557.0</ele><time>2026-04-10T13:20:29Z</time></trkpt><trkpt lat="39.379514661140746" lon="8.48131638741255"><ele>556.5</ele><time>2026-04-10T13:20:31Z</time></trkpt><trkpt lat="39.379483948373014" lon="8.48123935317495"><ele>556.0</ele><time>2026-04-10T13:20:32Z</time></trkpt><trkpt lat="39.379372930149586" lon="8.48113902098482"><ele>554.1666666666667</ele><time>2026-04-10T13:20:34Z</time></trkpt><trkpt lat="39.379298141907405" lon="8.481101060352543"><ele>552.3333333333334</ele><time>2026-04-10T13:20:35Z</time></trkpt><trkpt lat="39.379223230984756" lon="8.481069233443192"><ele>550.5</ele><time>2026-04-10T13:20:36Z</time></trkpt><trkpt lat="39.379139043965" lon="8.48104140732331"><ele>548.6666666666666</ele><time>2026-04-10T13:20:37Z</time></trkpt><trkpt lat="39.37905550906596" lon="8.4810240466294"><ele>546.8333333333333</ele><time>2026-04-10T13:20:38Z</time></trkpt><trkpt lat="39.37899267042996" lon="8.481013638432842"><ele>545.0</ele><time>2026-04-10T13:20:39Z</time></trkpt><trkpt lat="39.3789343605895" lon="8.480951828002238"><ele>545.0</ele><time>2026-04-10T13:20:41Z</time></trkpt><trkpt lat="39.378954779777864" lon="8.480811968724355"><ele>545.0</ele><time>2026-04-10T13:20:43Z</time></trkpt><trkpt lat="39.37899629111816" lon="8.480693540898498"><ele>545.0</ele><time>2026-04-10T13:20:44Z</time></trkpt><trkpt lat="39.379041810079954" lon="8.48056976867"><ele>545.0</ele><time>2026-04-10T13:20:45Z</time></trkpt><trkpt lat="39.3790854228189" lon="8.480480671247593"><ele>545.0</ele><time>2026-04-10T13:20:46Z</time></trkpt><trkpt lat="39.37914240927816" lon="8.480426045251004"><ele>546.1666666666666</ele><time>2026-04-10T13:20:47Z</time></trkpt><trkpt lat="39.37921825281826" lon="8.480353103659652"><ele>547.3333333333333</ele><time>2026-04-10T13:20:48Z</time></trkpt><trkpt lat="39.37927221483524" lon="8.480305166656018"><ele>548.5</ele><time>2026-04-10T13:20:49Z</time></trkpt><trkpt lat="39.379317876822476" lon="8.480242301346124"><ele>549.6666666666666</ele><time>2026-04-10T13:20:50Z</time></trkpt><trkpt lat="39.37936256948663" lon="8.480172844721212"><ele>550.8333333333334</ele><time>2026-04-10T13:20:51Z</time></trkpt><trkpt lat="39.37941438334448" lon="8.480085222779593"><ele>552.0</ele><time>2026-04-10T13:20:52Z</time></trkpt><trkpt lat="39.37946065752585" lon="8.479983428946"><ele>552.0</ele><time>2026-04-10T13:20:53Z</time></trkpt><trkpt lat="39.37949958080678" lon="8.479886962829248"><ele>552.0</ele><time>2026-04-10T13:20:54Z</time></trkpt><trkpt lat="39.37953725463622" lon="8.479789289746378"><ele>552.0</ele><time>2026-04-10T13:20:55Z</time></trkpt><trkpt lat="39.37956924277215" lon="8.479695293753876"><ele>552.0</ele><time>2026-04-10T13:20:56Z</time></trkpt><trkpt lat="39.379602666098734" lon="8.4796060737059"><ele>552.0</ele><time>2026-04-10T13:20:57Z</time></trkpt><trkpt lat="39.37963449902413" lon="8.479508461499702"><ele>552.0</ele><time>2026-04-10T13:20:58Z</time></trkpt><trkpt lat="39.37966021219489" lon="8.479419566717866"><ele>551.0</ele><time>2026-04-10T13:20:59Z</time></trkpt><trkpt lat="39.37967734288795" lon="8.479252967964637"><ele>550.0</ele><time>2026-04-10T13:21:01Z</time></trkpt><trkpt lat="39.379666870266966" lon="8.479158661031448"><ele>549.0</ele><time>2026-04-10T13:21:02Z</time></trkpt><trkpt lat="39.379644310371795" lon="8.47907291518199"><ele>548.0</ele><time>2026-04-10T13:21:03Z</time></trkpt><trkpt lat="39.379583925298114" lon="8.47899022929752"><ele>547.0</ele><time>2026-04-10T13:21:04Z</time></trkpt><trkpt lat="39.37951222217939" lon="8.478924713632463"><ele>546.0</ele><time>2026-04-10T13:21:05Z</time></trkpt><trkpt lat="39.37942156658412" lon="8.478888403614524"><ele>546.0</ele><time>2026-04-10T13:21:06Z</time></trkpt><trkpt lat="39.37931770303732" lon="8.478857110549123"><ele>546.0</ele><time>2026-04-10T13:21:07Z</time></trkpt><trkpt lat="39.379236764336916" lon="8.478837240368351"><ele>546.0</ele><time>2026-04-10T13:21:08Z</time></trkpt><trkpt lat="39.37916343949415" lon="8.478822193234734"><ele>546.0</ele><time>2026-04-10T13:21:09Z</time></trkpt><trkpt lat="39.37907668751968" lon="8.478807892930408"><ele>546.0</ele><time>2026-04-10T13:21:10Z</time></trkpt><trkpt lat="39.378999231904615" lon="8.478798831086603"><ele>546.0</ele><time>2026-04-10T13:21:11Z</time></trkpt><trkpt lat="39.37892949933052" lon="8.478791958117844"><ele>546.0</ele><time>2026-04-10T13:21:12Z</time></trkpt><trkpt lat="39.37885626379315" lon="8.47878473987646"><ele>546.0</ele><time>2026-04-10T13:21:13Z</time></trkpt><trkpt lat="39.3787781017335" lon="8.478777036082343"><ele>546.0</ele><time>2026-04-10T13:21:14Z</time></trkpt><trkpt lat="39.37869832803691" lon="8.478770055669765"><ele>546.0</ele><time>2026-04-10T13:21:15Z</time></trkpt><trkpt lat="39.37861636832244" lon="8.478764773405418"><ele>546.0</ele><time>2026-04-10T13:21:16Z</time></trkpt><trkpt lat="39.378541537045116" lon="8.478765829305205"><ele>546.0</ele><time>2026-04-10T13:21:17Z</time></trkpt><trkpt lat="39.37846589792156" lon="8.478769689364642"><ele>546.3333333333334</ele><time>2026-04-10T13:21:18Z</time></trkpt><trkpt lat="39.37838412265915" lon="8.478777311734571"><ele>546.6666666666666</ele><time>2026-04-10T13:21:19Z</time></trkpt><trkpt lat="39.37831043318977" lon="8.478786484647749"><ele>547.0</ele><time>2026-04-10T13:21:20Z</time></trkpt><trkpt lat="39.37824906840458" lon="8.478817603617523"><ele>547.3333333333333</ele><time>2026-04-10T13:21:21Z</time></trkpt><trkpt lat="39.378164235455536" lon="8.478814178758478"><ele>547.6666666666666</ele><time>2026-04-10T13:21:23Z</time></trkpt><trkpt lat="39.37808061409068" lon="8.47885038677453"><ele>548.0</ele><time>2026-04-10T13:21:25Z</time></trkpt><trkpt lat="39.377956298218635" lon="8.478935831166302"><ele>548.0</ele><time>2026-04-10T13:21:27Z</time></trkpt><trkpt lat="39.37788590940948" lon="8.478972092593258"><ele>548.0</ele><time>2026-04-10T13:21:28Z</time></trkpt><trkpt lat="39.377805535907136" lon="8.479002315530401"><ele>548.0</ele><time>2026-04-10T13:21:29Z</time></trkpt><trkpt lat="39.37772033277071" lon="8.479025869117004"><ele>548.0</ele><time>2026-04-10T13:21:30Z</time></trkpt><trkpt lat="39.37763597002216" lon="8.479041980977096"><ele>548.0</ele><time>2026-04-10T13:21:31Z</time></trkpt><trkpt lat="39.37754788743556" lon="8.479051526223815"><ele>548.0</ele><time>2026-04-10T13:21:32Z</time></trkpt><trkpt lat="39.37747444080523" lon="8.479041647056741"><ele>548.0</ele><time>2026-04-10T13:21:33Z</time></trkpt><trkpt lat="39.37739040133706" lon="8.479032679292628"><ele>548.0</ele><time>2026-04-10T13:21:34Z</time></trkpt><trkpt lat="39.3772739772026" lon="8.479044942290448"><ele>548.0</ele><time>2026-04-10T13:21:36Z</time></trkpt><trkpt lat="39.377211011763116" lon="8.479076025647968"><ele>548.0</ele><time>2026-04-10T13:21:37Z</time></trkpt><trkpt lat="39.37713710936301" lon="8.479111350187711"><ele>548.0</ele><time>2026-04-10T13:21:38Z</time></trkpt><trkpt lat="39.37707518211269" lon="8.479137894358567"><ele>548.0</ele><time>2026-04-10T13:21:39Z</time></trkpt><trkpt lat="39.37700997714119" lon="8.479103378166895"><ele>549.5</ele><time>2026-04-10T13:21:41Z</time></trkpt><trkpt lat="39.37694459049185" lon="8.478996353242234"><ele>551.0</ele><time>2026-04-10T13:21:43Z</time></trkpt><trkpt lat="39.37691066185776" lon="8.478924077452726"><ele>552.5</ele><time>2026-04-10T13:21:44Z</time></trkpt><trkpt lat="39.37686021910265" lon="8.478857527887204"><ele>554.0</ele><time>2026-04-10T13:21:45Z</time></trkpt><trkpt lat="39.376814834321095" lon="8.478761466647125"><ele>555.5</ele><time>2026-04-10T13:21:46Z</time></trkpt><trkpt lat="39.37676447795644" lon="8.478677991965403"><ele>557.0</ele><time>2026-04-10T13:21:47Z</time></trkpt><trkpt lat="39.376713845633496" lon="8.478588413095041"><ele>559.0</ele><time>2026-04-10T13:21:49Z</time></trkpt><trkpt lat="39.37662642764097" lon="8.47851159209509"><ele>561.0</ele><time>2026-04-10T13:21:54Z</time></trkpt><trkpt lat="39.37652574874972" lon="8.478466533881141"><ele>563.0</ele><time>2026-04-10T13:21:56Z</time></trkpt><trkpt lat="39.3764574113112" lon="8.478453584417036"><ele>565.0</ele><time>2026-04-10T13:21:57Z</time></trkpt><trkpt lat="39.376365953965454" lon="8.478474016421766"><ele>567.0</ele><time>2026-04-10T13:21:58Z</time></trkpt><trkpt lat="39.376302461602634" lon="8.478477308723699"><ele>569.0</ele><time>2026-04-10T13:21:59Z</time></trkpt><trkpt lat="39.37625412403012" lon="8.478412359258073"><ele>569.0</ele><time>2026-04-10T13:22:01Z</time></trkpt><trkpt lat="39.37626432219074" lon="8.478289409487811"><ele>569.0</ele><time>2026-04-10T13:22:03Z</time></trkpt><trkpt lat="39.37629417569698" lon="8.478185265477169"><ele>569.0</ele><time>2026-04-10T13:22:04Z</time></trkpt><trkpt lat="39.37634073263746" lon="8.478073945486154"><ele>569.0</ele><time>2026-04-10T13:22:05Z</time></trkpt><trkpt lat="39.37640752446808" lon="8.477966220813464"><ele>569.0</ele><time>2026-04-10T13:22:06Z</time></trkpt><trkpt lat="39.37649081268696" lon="8.47786796901685"><ele>564.8</ele><time>2026-04-10T13:22:07Z</time></trkpt><trkpt lat="39.37657703606701" lon="8.477769137900372"><ele>560.5999999999999</ele><time>2026-04-10T13:22:08Z</time></trkpt><trkpt lat="39.376659003871666" lon="8.477673472926785"><ele>556.4</ele><time>2026-04-10T13:22:09Z</time></trkpt><trkpt lat="39.3767308352941" lon="8.477592147771029"><ele>552.1999999999999</ele><time>2026-04-10T13:22:10Z</time></trkpt><trkpt lat="39.3768088496094" lon="8.477524258862406"><ele>548.0</ele><time>2026-04-10T13:22:11Z</time></trkpt><trkpt lat="39.376885435719835" lon="8.477466341497282"><ele>548.0</ele><time>2026-04-10T13:22:12Z</time></trkpt><trkpt lat="39.37696652265362" lon="8.477400674651923"><ele>548.0</ele><time>2026-04-10T13:22:13Z</time></trkpt><trkpt lat="39.37705138884399" lon="8.47733461715608"><ele>548.0</ele><time>2026-04-10T13:22:14Z</time></trkpt><trkpt lat="39.37712337242476" lon="8.477265993570581"><ele>548.0</ele><time>2026-04-10T13:22:15Z</time></trkpt><trkpt lat="39.377183131839566" lon="8.477206217704765"><ele>548.0</ele><time>2026-04-10T13:22:16Z</time></trkpt><trkpt lat="39.37727087297835" lon="8.477125510789065"><ele>546.1666666666666</ele><time>2026-04-10T13:22:18Z</time></trkpt><trkpt lat="39.37737613714802" lon="8.477045251230825"><ele>544.3333333333333</ele><time>2026-04-10T13:22:20Z</time></trkpt><trkpt lat="39.37742968683502" lon="8.476995836879059"><ele>542.5</ele><time>2026-04-10T13:22:21Z</time></trkpt><trkpt lat="39.3774820540759" lon="8.47692406913659"><ele>540.6666666666666</ele><time>2026-04-10T13:22:22Z</time></trkpt><trkpt lat="39.37752980880136" lon="8.476838617326871"><ele>538.8333333333334</ele><time>2026-04-10T13:22:23Z</time></trkpt><trkpt lat="39.377571680391775" lon="8.476737372994178"><ele>537.0</ele><time>2026-04-10T13:22:24Z</time></trkpt><trkpt lat="39.377587672003614" lon="8.476647879668448"><ele>537.0</ele><time>2026-04-10T13:22:25Z</time></trkpt><trkpt lat="39.37758701877388" lon="8.476526368448456"><ele>537.0</ele><time>2026-04-10T13:22:27Z</time></trkpt><trkpt lat="39.37757810027762" lon="8.476442202676592"><ele>537.0</ele><time>2026-04-10T13:22:29Z</time></trkpt><trkpt lat="39.37756494054806" lon="8.476362237007217"><ele>537.0</ele><time>2026-04-10T13:22:31Z</time></trkpt><trkpt lat="39.3775381390171" lon="8.476250678365467"><ele>537.0</ele><time>2026-04-10T13:22:33Z</time></trkpt><trkpt lat="39.37749203687609" lon="8.476097812386266"><ele>537.0</ele><time>2026-04-10T13:22:35Z</time></trkpt><trkpt lat="39.37746676929748" lon="8.476013169278053"><ele>540.4</ele><time>2026-04-10T13:22:36Z</time></trkpt><trkpt lat="39.37747559574347" lon="8.475925156968913"><ele>543.8000000000001</ele><time>2026-04-10T13:22:38Z</time></trkpt><trkpt lat="39.37753597987678" lon="8.475875458382683"><ele>547.2</ele><time>2026-04-10T13:24:28Z</time></trkpt><trkpt lat="39.37767216789096" lon="8.475894502919726"><ele>550.6</ele><time>2026-04-10T13:24:30Z</time></trkpt><trkpt lat="39.37775708851931" lon="8.475916259100366"><ele>554.0</ele><time>2026-04-10T13:24:31Z</time></trkpt><trkpt lat="39.37784998400608" lon="8.475922141420575"><ele>554.0</ele><time>2026-04-10T13:24:32Z</time></trkpt><trkpt lat="39.377959256470646" lon="8.475916348855032"><ele>554.0</ele><time>2026-04-10T13:24:33Z</time></trkpt><trkpt lat="39.37807641454581" lon="8.475896182704725"><ele>554.0</ele><time>2026-04-10T13:24:34Z</time></trkpt><trkpt lat="39.37818176190817" lon="8.475855919149938"><ele>554.0</ele><time>2026-04-10T13:24:35Z</time></trkpt><trkpt lat="39.37829646444763" lon="8.47578862559241"><ele>550.4</ele><time>2026-04-10T13:24:36Z</time></trkpt><trkpt lat="39.37840232833311" lon="8.475726405870367"><ele>546.8</ele><time>2026-04-10T13:24:37Z</time></trkpt><trkpt lat="39.37849096382274" lon="8.4756825432422"><ele>543.2</ele><time>2026-04-10T13:24:38Z</time></trkpt><trkpt lat="39.37858873301372" lon="8.475667655913234"><ele>539.6</ele><time>2026-04-10T13:24:39Z</time></trkpt><trkpt lat="39.37868597658172" lon="8.475662367026914"><ele>536.0</ele><time>2026-04-10T13:24:40Z</time></trkpt><trkpt lat="39.37876212474953" lon="8.475669867174636"><ele>534.6</ele><time>2026-04-10T13:24:41Z</time></trkpt><trkpt lat="39.37887323699664" lon="8.47562378286133"><ele>533.2</ele><time>2026-04-10T13:24:43Z</time></trkpt><trkpt lat="39.378965288769855" lon="8.47555679275535"><ele>531.8</ele><time>2026-04-10T13:24:44Z</time></trkpt><trkpt lat="39.3790684535975" lon="8.475482540263972"><ele>530.4</ele><time>2026-04-10T13:24:45Z</time></trkpt><trkpt lat="39.379125210867" lon="8.475422427558033"><ele>529.0</ele><time>2026-04-10T13:24:46Z</time></trkpt><trkpt lat="39.37916683507897" lon="8.475359535514485"><ele>529.0</ele><time>2026-04-10T13:24:47Z</time></trkpt><trkpt lat="39.37921087601164" lon="8.475252303982554"><ele>529.0</ele><time>2026-04-10T13:24:49Z</time></trkpt><trkpt lat="39.37921700114944" lon="8.475161939802783"><ele>529.0</ele><time>2026-04-10T13:24:50Z</time></trkpt><trkpt lat="39.379195179929525" lon="8.475074536872237"><ele>529.0</ele><time>2026-04-10T13:24:51Z</time></trkpt><trkpt lat="39.37916851025447" lon="8.474979605948594"><ele>529.0</ele><time>2026-04-10T13:24:52Z</time></trkpt><trkpt lat="39.3790985455836" lon="8.474911649646149"><ele>529.0</ele><time>2026-04-10T13:24:53Z</time></trkpt><trkpt lat="39.3790123887251" lon="8.474823266692194"><ele>529.0</ele><time>2026-04-10T13:24:54Z</time></trkpt><trkpt lat="39.37892684328691" lon="8.474735369370423"><ele>529.0</ele><time>2026-04-10T13:24:55Z</time></trkpt><trkpt lat="39.378869345018714" lon="8.474664103198835"><ele>529.0</ele><time>2026-04-10T13:24:56Z</time></trkpt><trkpt lat="39.378822810256175" lon="8.474595358361926"><ele>529.0</ele><time>2026-04-10T13:24:57Z</time></trkpt><trkpt lat="39.37876278248513" lon="8.474480753082226"><ele>529.0</ele><time>2026-04-10T13:24:59Z</time></trkpt><trkpt lat="39.37871284175931" lon="8.47437045061413"><ele>534.6</ele><time>2026-04-10T13:25:01Z</time></trkpt><trkpt lat="39.378659950186375" lon="8.474244432047746"><ele>540.2</ele><time>2026-04-10T13:25:03Z</time></trkpt><trkpt lat="39.37862056568417" lon="8.474144285995761"><ele>545.8000000000001</ele><time>2026-04-10T13:25:05Z</time></trkpt><trkpt lat="39.37858594309866" lon="8.474015266548175"><ele>551.4</ele><time>2026-04-10T13:25:07Z</time></trkpt><trkpt lat="39.37857334068907" lon="8.473932893225172"><ele>557.0</ele><time>2026-04-10T13:25:08Z</time></trkpt><trkpt lat="39.37855152206215" lon="8.473819275137675"><ele>557.4</ele><time>2026-04-10T13:25:10Z</time></trkpt><trkpt lat="39.37858270843265" lon="8.473700238151784"><ele>557.8000000000001</ele><time>2026-04-10T13:25:12Z</time></trkpt><trkpt lat="39.37869585461986" lon="8.473645332026448"><ele>558.2</ele><time>2026-04-10T13:25:14Z</time></trkpt><trkpt lat="39.37879207746039" lon="8.473642404370727"><ele>558.6</ele><time>2026-04-10T13:25:15Z</time></trkpt><trkpt lat="39.37889039079718" lon="8.47366358985662"><ele>559.0</ele><time>2026-04-10T13:25:16Z</time></trkpt><trkpt lat="39.37898430685935" lon="8.473690412048603"><ele>556.8</ele><time>2026-04-10T13:25:17Z</time></trkpt><trkpt lat="39.37906102476618" lon="8.473692387938964"><ele>554.5999999999999</ele><time>2026-04-10T13:25:18Z</time></trkpt><trkpt lat="39.37915043559322" lon="8.473667978767022"><ele>552.4</ele><time>2026-04-10T13:25:19Z</time></trkpt><trkpt lat="39.37926139628573" lon="8.473597355788204"><ele>550.1999999999999</ele><time>2026-04-10T13:25:21Z</time></trkpt><trkpt lat="39.37933159262534" lon="8.473558777543602"><ele>548.0</ele><time>2026-04-10T13:25:22Z</time></trkpt><trkpt lat="39.37943847575873" lon="8.473453832866314"><ele>548.0</ele><time>2026-04-10T13:25:24Z</time></trkpt><trkpt lat="39.37949642536093" lon="8.473399613183155"><ele>548.0</ele><time>2026-04-10T13:25:25Z</time></trkpt><trkpt lat="39.379556894668426" lon="8.473361197797736"><ele>548.0</ele><time>2026-04-10T13:25:26Z</time></trkpt><trkpt lat="39.37963115244242" lon="8.473310834685993"><ele>548.0</ele><time>2026-04-10T13:25:27Z</time></trkpt><trkpt lat="39.3796902123902" lon="8.473282515588537"><ele>548.0</ele><time>2026-04-10T13:25:28Z</time></trkpt><trkpt lat="39.37977609156838" lon="8.473265531196734"><ele>548.0</ele><time>2026-04-10T13:25:29Z</time></trkpt><trkpt lat="39.3798607168583" lon="8.473249015254837"><ele>546.1666666666666</ele><time>2026-04-10T13:25:30Z</time></trkpt><trkpt lat="39.37994276169557" lon="8.473260161314746"><ele>544.3333333333333</ele><time>2026-04-10T13:25:31Z</time></trkpt><trkpt lat="39.38002076421225" lon="8.47322804704722"><ele>542.5</ele><time>2026-04-10T13:25:32Z</time></trkpt><trkpt lat="39.380121117041746" lon="8.473228245868386"><ele>540.6666666666666</ele><time>2026-04-10T13:25:33Z</time></trkpt><trkpt lat="39.38020256787477" lon="8.473195903062777"><ele>538.8333333333334</ele><time>2026-04-10T13:25:34Z</time></trkpt><trkpt lat="39.380262625410914" lon="8.473170867711369"><ele>537.0</ele><time>2026-04-10T13:25:35Z</time></trkpt><trkpt lat="39.380355820361565" lon="8.473134308776705"><ele>537.0</ele><time>2026-04-10T13:25:37Z</time></trkpt><trkpt lat="39.38045329262634" lon="8.47311225643956"><ele>537.0</ele><time>2026-04-10T13:25:39Z</time></trkpt><trkpt lat="39.38054190260104" lon="8.4731242156502"><ele>537.0</ele><time>2026-04-10T13:25:41Z</time></trkpt><trkpt lat="39.3806074061534" lon="8.47312403443822"><ele>537.0</ele><time>2026-04-10T13:25:44Z</time></trkpt><trkpt lat="39.38071755528433" lon="8.4731244197744"><ele>537.0</ele><time>2026-04-10T13:26:09Z</time></trkpt><trkpt lat="39.38084214441647" lon="8.473100352042653"><ele>535.1666666666666</ele><time>2026-04-10T13:26:11Z</time></trkpt><trkpt lat="39.380908541682864" lon="8.473088683328145"><ele>533.3333333333334</ele><time>2026-04-10T13:26:12Z</time></trkpt><trkpt lat="39.38098173967489" lon="8.473080926580431"><ele>531.5</ele><time>2026-04-10T13:26:13Z</time></trkpt><trkpt lat="39.381067945366574" lon="8.473074880661246"><ele>529.6666666666667</ele><time>2026-04-10T13:26:14Z</time></trkpt><trkpt lat="39.381162493325355" lon="8.473069729469497"><ele>527.8333333333334</ele><time>2026-04-10T13:26:15Z</time></trkpt><trkpt lat="39.381236655030726" lon="8.47307046937231"><ele>526.0</ele><time>2026-04-10T13:26:16Z</time></trkpt><trkpt lat="39.38130781474289" lon="8.473055171053"><ele>525.5</ele><time>2026-04-10T13:26:17Z</time></trkpt><trkpt lat="39.38137976301318" lon="8.473057127859843"><ele>525.0</ele><time>2026-04-10T13:26:18Z</time></trkpt><trkpt lat="39.381447908960666" lon="8.473086944540622"><ele>524.5</ele><time>2026-04-10T13:26:19Z</time></trkpt><trkpt lat="39.38151272789817" lon="8.47309549350375"><ele>524.0</ele><time>2026-04-10T13:26:20Z</time></trkpt><trkpt lat="39.38162129935982" lon="8.473079033628656"><ele>523.5</ele><time>2026-04-10T13:26:22Z</time></trkpt><trkpt lat="39.38170236642602" lon="8.473063141172625"><ele>523.0</ele><time>2026-04-10T13:26:24Z</time></trkpt><trkpt lat="39.38177786779298" lon="8.473027023458597"><ele>523.0</ele><time>2026-04-10T13:26:26Z</time></trkpt><trkpt lat="39.381858998718286" lon="8.473001946491452"><ele>523.0</ele><time>2026-04-10T13:26:29Z</time></trkpt><trkpt lat="39.381885135915624" lon="8.473162082657204"><ele>523.0</ele><time>2026-04-10T13:26:31Z</time></trkpt><trkpt lat="39.38191510042266" lon="8.473256657635838"><ele>523.0</ele><time>2026-04-10T13:26:33Z</time></trkpt><trkpt lat="39.38224700807687" lon="8.473094290827987"><ele>523.0</ele><time>2026-04-10T13:26:49Z</time></trkpt><trkpt lat="39.3822482452688" lon="8.473012758440428"><ele>523.0</ele><time>2026-04-10T13:26:52Z</time></trkpt><trkpt lat="39.382164312326395" lon="8.472981577100937"><ele>523.0</ele><time>2026-04-10T13:26:55Z</time></trkpt><trkpt lat="39.382145362158546" lon="8.472892505937244"><ele>523.0</ele><time>2026-04-10T13:26:57Z</time></trkpt><trkpt lat="39.38211856075233" lon="8.472770447228235"><ele>523.0</ele><time>2026-04-10T13:26:59Z</time></trkpt><trkpt lat="39.38207811841916" lon="8.472691450083042"><ele>523.0</ele><time>2026-04-10T13:27:01Z</time></trkpt><trkpt lat="39.38201785262839" lon="8.472661245361849"><ele>523.0</ele><time>2026-04-10T13:27:03Z</time></trkpt><trkpt lat="39.38194253902213" lon="8.47270662364252"><ele>523.0</ele><time>2026-04-10T13:27:05Z</time></trkpt><trkpt lat="39.381880805642815" lon="8.472749671048799"><ele>523.0</ele><time>2026-04-10T13:27:07Z</time></trkpt><trkpt lat="39.381823593758774" lon="8.472839616941108"><ele>523.0</ele><time>2026-04-10T13:27:11Z</time></trkpt><trkpt lat="39.381824900928166" lon="8.472964739099869"><ele>523.0</ele><time>2026-04-10T13:27:13Z</time></trkpt><trkpt lat="39.38178543943792" lon="8.473088559676594"><ele>523.0</ele><time>2026-04-10T13:27:15Z</time></trkpt><trkpt lat="39.38166430979994" lon="8.473111580545835"><ele>523.0</ele><time>2026-04-10T13:27:17Z</time></trkpt><trkpt lat="39.381582889269616" lon="8.473117738026298"><ele>523.0</ele><time>2026-04-10T13:27:18Z</time></trkpt><trkpt lat="39.38148786700069" lon="8.473113039510515"><ele>523.0</ele><time>2026-04-10T13:27:19Z</time></trkpt><trkpt lat="39.38139735783047" lon="8.473100777273766"><ele>523.0</ele><time>2026-04-10T13:27:20Z</time></trkpt><trkpt lat="39.38132701106478" lon="8.473029920561437"><ele>523.0</ele><time>2026-04-10T13:27:21Z</time></trkpt><trkpt lat="39.38123869366998" lon="8.473027859364501"><ele>523.0</ele><time>2026-04-10T13:27:22Z</time></trkpt><trkpt lat="39.38114804417907" lon="8.473027530646485"><ele>523.6</ele><time>2026-04-10T13:27:23Z</time></trkpt><trkpt lat="39.38104864524648" lon="8.473029429931762"><ele>524.1999999999999</ele><time>2026-04-10T13:27:24Z</time></trkpt><trkpt lat="39.38094149589831" lon="8.473044920305094"><ele>524.8</ele><time>2026-04-10T13:27:25Z</time></trkpt><trkpt lat="39.38084446568084" lon="8.47306557395324"><ele>525.4</ele><time>2026-04-10T13:27:26Z</time></trkpt><trkpt lat="39.38076663157811" lon="8.473076429057553"><ele>526.0</ele><time>2026-04-10T13:27:27Z</time></trkpt><trkpt lat="39.380695432220705" lon="8.473076050476404"><ele>526.0</ele><time>2026-04-10T13:27:29Z</time></trkpt><trkpt lat="39.38061928817886" lon="8.47306511546201"><ele>526.0</ele><time>2026-04-10T13:27:32Z</time></trkpt><trkpt lat="39.380683992802844" lon="8.473074937308185"><ele>526.0</ele><time>2026-04-10T13:29:44Z</time></trkpt><trkpt lat="39.38073295665588" lon="8.472989042995062"><ele>526.0</ele><time>2026-04-10T13:29:48Z</time></trkpt><trkpt lat="39.380837220258" lon="8.47286923546267"><ele>526.0</ele><time>2026-04-10T13:29:50Z</time></trkpt><trkpt lat="39.380894865228704" lon="8.472818356222177"><ele>526.0</ele><time>2026-04-10T13:29:51Z</time></trkpt><trkpt lat="39.380960957086245" lon="8.472789947530092"><ele>528.1666666666667</ele><time>2026-04-10T13:29:52Z</time></trkpt><trkpt lat="39.381030027853825" lon="8.47277281874467"><ele>530.3333333333334</ele><time>2026-04-10T13:29:53Z</time></trkpt><trkpt lat="39.381115059951966" lon="8.472759878596626"><ele>532.5</ele><time>2026-04-10T13:29:54Z</time></trkpt><trkpt lat="39.38120714802104" lon="8.472734424311568"><ele>534.6666666666666</ele><time>2026-04-10T13:29:55Z</time></trkpt><trkpt lat="39.38127704740063" lon="8.47270216818211"><ele>536.8333333333333</ele><time>2026-04-10T13:29:56Z</time></trkpt><trkpt lat="39.38132619021635" lon="8.47260934413862"><ele>539.0</ele><time>2026-04-10T13:29:58Z</time></trkpt><trkpt lat="39.38137144230935" lon="8.472500825732578"><ele>539.0</ele><time>2026-04-10T13:29:59Z</time></trkpt><trkpt lat="39.381403708466244" lon="8.472392099636027"><ele>539.0</ele><time>2026-04-10T13:30:00Z</time></trkpt><trkpt lat="39.38145705047144" lon="8.472338022445431"><ele>539.0</ele><time>2026-04-10T13:30:01Z</time></trkpt><trkpt lat="39.38156209722619" lon="8.472219085875643"><ele>539.0</ele><time>2026-04-10T13:30:03Z</time></trkpt><trkpt lat="39.3816248090957" lon="8.472167283242738"><ele>539.0</ele><time>2026-04-10T13:30:04Z</time></trkpt><trkpt lat="39.381700343691676" lon="8.472120563153645"><ele>542.5714285714286</ele><time>2026-04-10T13:30:05Z</time></trkpt><trkpt lat="39.38176648477777" lon="8.472067912136186"><ele>546.1428571428571</ele><time>2026-04-10T13:30:06Z</time></trkpt><trkpt lat="39.381827491356546" lon="8.472032598706212"><ele>549.7142857142858</ele><time>2026-04-10T13:30:07Z</time></trkpt><trkpt lat="39.381891207842216" lon="8.471990239940599"><ele>553.2857142857142</ele><time>2026-04-10T13:30:08Z</time></trkpt><trkpt lat="39.38196144775662" lon="8.4719557378473"><ele>556.8571428571429</ele><time>2026-04-10T13:30:09Z</time></trkpt><trkpt lat="39.382036435966604" lon="8.47194557730044"><ele>560.4285714285714</ele><time>2026-04-10T13:30:10Z</time></trkpt><trkpt lat="39.38210780681071" lon="8.471952411309504"><ele>564.0</ele><time>2026-04-10T13:30:11Z</time></trkpt><trkpt lat="39.38218906373358" lon="8.47197188570316"><ele>564.0</ele><time>2026-04-10T13:30:12Z</time></trkpt><trkpt lat="39.38229054258288" lon="8.471996656110234"><ele>564.0</ele><time>2026-04-10T13:30:13Z</time></trkpt><trkpt lat="39.38237861250962" lon="8.472028241793106"><ele>564.0</ele><time>2026-04-10T13:30:14Z</time></trkpt><trkpt lat="39.38247112438236" lon="8.472041902872768"><ele>564.0</ele><time>2026-04-10T13:30:15Z</time></trkpt><trkpt lat="39.382550337020206" lon="8.47205518746893"><ele>564.0</ele><time>2026-04-10T13:30:16Z</time></trkpt><trkpt lat="39.38263200747067" lon="8.472078306992804"><ele>564.0</ele><time>2026-04-10T13:30:17Z</time></trkpt><trkpt lat="39.38271401130478" lon="8.472091202225672"><ele>564.0</ele><time>2026-04-10T13:30:18Z</time></trkpt><trkpt lat="39.38279633605453" lon="8.472093793460505"><ele>564.0</ele><time>2026-04-10T13:30:19Z</time></trkpt><trkpt lat="39.38287022341627" lon="8.472097465374341"><ele>564.0</ele><time>2026-04-10T13:30:20Z</time></trkpt><trkpt lat="39.38293837508345" lon="8.472099956069265"><ele>564.0</ele><time>2026-04-10T13:30:21Z</time></trkpt><trkpt lat="39.383005604382426" lon="8.472101607008334"><ele>564.0</ele><time>2026-04-10T13:30:22Z</time></trkpt><trkpt lat="39.38307719139222" lon="8.472101950942951"><ele>564.0</ele><time>2026-04-10T13:30:23Z</time></trkpt><trkpt lat="39.383150687307506" lon="8.4720847392551"><ele>563.0</ele><time>2026-04-10T13:30:24Z</time></trkpt><trkpt lat="39.38322113066263" lon="8.472034542456305"><ele>562.0</ele><time>2026-04-10T13:30:25Z</time></trkpt><trkpt lat="39.38326522572067" lon="8.471974427958886"><ele>561.0</ele><time>2026-04-10T13:30:26Z</time></trkpt><trkpt lat="39.3833108471796" lon="8.47189031496167"><ele>560.0</ele><time>2026-04-10T13:30:28Z</time></trkpt><trkpt lat="39.38337735483397" lon="8.471849264770727"><ele>559.0</ele><time>2026-04-10T13:30:30Z</time></trkpt><trkpt lat="39.38345833501003" lon="8.471864172751879"><ele>558.0</ele><time>2026-04-10T13:30:32Z</time></trkpt><trkpt lat="39.38351439834966" lon="8.471942373149872"><ele>558.0</ele><time>2026-04-10T13:30:33Z</time></trkpt><trkpt lat="39.383609147092045" lon="8.472029258480267"><ele>558.0</ele><time>2026-04-10T13:30:35Z</time></trkpt><trkpt lat="39.383678789833844" lon="8.47216982765166"><ele>558.0</ele><time>2026-04-10T13:30:37Z</time></trkpt><trkpt lat="39.383745365581035" lon="8.472254537737292"><ele>558.0</ele><time>2026-04-10T13:30:38Z</time></trkpt><trkpt lat="39.383792755646006" lon="8.472329870770336"><ele>558.0</ele><time>2026-04-10T13:30:39Z</time></trkpt><trkpt lat="39.38383966207886" lon="8.47239178369608"><ele>552.6</ele><time>2026-04-10T13:30:40Z</time></trkpt><trkpt lat="39.383913666166706" lon="8.472493829361822"><ele>547.1999999999999</ele><time>2026-04-10T13:30:42Z</time></trkpt><trkpt lat="39.38401580883231" lon="8.472503007550953"><ele>541.8</ele><time>2026-04-10T13:30:44Z</time></trkpt><trkpt lat="39.384085126759054" lon="8.472482156365867"><ele>536.4</ele><time>2026-04-10T13:30:45Z</time></trkpt><trkpt lat="39.3841646956378" lon="8.472422907025296"><ele>531.0</ele><time>2026-04-10T13:30:46Z</time></trkpt><trkpt lat="39.38424512864642" lon="8.47235968331522"><ele>531.0</ele><time>2026-04-10T13:30:47Z</time></trkpt><trkpt lat="39.384299370764786" lon="8.472301131962071"><ele>531.0</ele><time>2026-04-10T13:30:48Z</time></trkpt><trkpt lat="39.38435005678518" lon="8.47223322022728"><ele>531.0</ele><time>2026-04-10T13:30:49Z</time></trkpt><trkpt lat="39.38440078913628" lon="8.472150372697087"><ele>531.0</ele><time>2026-04-10T13:30:50Z</time></trkpt><trkpt lat="39.38446925272227" lon="8.47208647027072"><ele>531.0</ele><time>2026-04-10T13:30:51Z</time></trkpt><trkpt lat="39.38451438778916" lon="8.471995908881627"><ele>531.0</ele><time>2026-04-10T13:30:52Z</time></trkpt><trkpt lat="39.384570135536535" lon="8.471952147658099"><ele>534.6</ele><time>2026-04-10T13:30:53Z</time></trkpt><trkpt lat="39.38465079617408" lon="8.471946608678207"><ele>538.2</ele><time>2026-04-10T13:30:54Z</time></trkpt><trkpt lat="39.384727053787266" lon="8.47194973353827"><ele>541.8</ele><time>2026-04-10T13:30:55Z</time></trkpt><trkpt lat="39.384841629755606" lon="8.47197945162437"><ele>545.4</ele><time>2026-04-10T13:30:56Z</time></trkpt><trkpt lat="39.38494597623518" lon="8.472014724621106"><ele>549.0</ele><time>2026-04-10T13:30:57Z</time></trkpt><trkpt lat="39.38501439833737" lon="8.47204344197211"><ele>545.0</ele><time>2026-04-10T13:30:58Z</time></trkpt><trkpt lat="39.38503938357132" lon="8.472137083271509"><ele>541.0</ele><time>2026-04-10T13:30:59Z</time></trkpt><trkpt lat="39.385107939491874" lon="8.472222171582539"><ele>537.0</ele><time>2026-04-10T13:31:00Z</time></trkpt><trkpt lat="39.38518340216886" lon="8.472274773896439"><ele>533.0</ele><time>2026-04-10T13:31:01Z</time></trkpt><trkpt lat="39.38524544532473" lon="8.472311706728801"><ele>529.0</ele><time>2026-04-10T13:31:02Z</time></trkpt><trkpt lat="39.38532758470189" lon="8.472276612209544"><ele>525.0</ele><time>2026-04-10T13:31:04Z</time></trkpt><trkpt lat="39.38537041597429" lon="8.47221403568288"><ele>525.0</ele><time>2026-04-10T13:31:05Z</time></trkpt><trkpt lat="39.3854375976994" lon="8.472145875653634"><ele>525.0</ele><time>2026-04-10T13:31:06Z</time></trkpt><trkpt lat="39.38548932803435" lon="8.472077269638048"><ele>525.0</ele><time>2026-04-10T13:31:07Z</time></trkpt><trkpt lat="39.385564641291595" lon="8.472034872719346"><ele>525.0</ele><time>2026-04-10T13:31:08Z</time></trkpt><trkpt lat="39.385657831777806" lon="8.472022154624659"><ele>525.0</ele><time>2026-04-10T13:31:09Z</time></trkpt><trkpt lat="39.385713586989674" lon="8.471913718434005"><ele>525.0</ele><time>2026-04-10T13:31:11Z</time></trkpt><trkpt lat="39.38571388250646" lon="8.471812038835248"><ele>528.0</ele><time>2026-04-10T13:31:12Z</time></trkpt><trkpt lat="39.38572268392139" lon="8.471704093774202"><ele>531.0</ele><time>2026-04-10T13:31:13Z</time></trkpt><trkpt lat="39.385823305811584" lon="8.471623317860224"><ele>534.0</ele><time>2026-04-10T13:31:15Z</time></trkpt><trkpt lat="39.385918436399095" lon="8.471619732389453"><ele>537.0</ele><time>2026-04-10T13:31:16Z</time></trkpt><trkpt lat="39.38601259016655" lon="8.47160521316277"><ele>540.0</ele><time>2026-04-10T13:31:17Z</time></trkpt><trkpt lat="39.38609698634527" lon="8.471578340858683"><ele>540.0</ele><time>2026-04-10T13:31:18Z</time></trkpt><trkpt lat="39.38617662215722" lon="8.471551827694153"><ele>540.0</ele><time>2026-04-10T13:31:19Z</time></trkpt><trkpt lat="39.38624305791" lon="8.471539354932023"><ele>540.0</ele><time>2026-04-10T13:31:20Z</time></trkpt><trkpt lat="39.38635454498826" lon="8.471614683365985"><ele>540.0</ele><time>2026-04-10T13:31:22Z</time></trkpt><trkpt lat="39.38642547240247" lon="8.471656263103627"><ele>540.0</ele><time>2026-04-10T13:31:23Z</time></trkpt><trkpt lat="39.38651629818919" lon="8.471676395898456"><ele>540.0</ele><time>2026-04-10T13:31:24Z</time></trkpt><trkpt lat="39.386602868714846" lon="8.471689918354633"><ele>539.0</ele><time>2026-04-10T13:31:25Z</time></trkpt><trkpt lat="39.38670138589504" lon="8.471714696387705"><ele>538.0</ele><time>2026-04-10T13:31:26Z</time></trkpt><trkpt lat="39.38678107233775" lon="8.47176079713967"><ele>537.0</ele><time>2026-04-10T13:31:27Z</time></trkpt><trkpt lat="39.38685831386964" lon="8.471758576195597"><ele>536.0</ele><time>2026-04-10T13:31:28Z</time></trkpt><trkpt lat="39.386967217774526" lon="8.471752377231278"><ele>535.0</ele><time>2026-04-10T13:31:30Z</time></trkpt><trkpt lat="39.38704576765063" lon="8.471681133322186"><ele>535.0</ele><time>2026-04-10T13:31:31Z</time></trkpt><trkpt lat="39.38716500660514" lon="8.471576954371749"><ele>535.0</ele><time>2026-04-10T13:31:32Z</time></trkpt><trkpt lat="39.38727334939467" lon="8.471495016856409"><ele>535.0</ele><time>2026-04-10T13:31:33Z</time></trkpt><trkpt lat="39.38738586633469" lon="8.471414029139755"><ele>535.0</ele><time>2026-04-10T13:31:34Z</time></trkpt><trkpt lat="39.38747455000572" lon="8.471315481672839"><ele>535.5</ele><time>2026-04-10T13:31:35Z</time></trkpt><trkpt lat="39.387551731247925" lon="8.471244469337169"><ele>536.0</ele><time>2026-04-10T13:31:36Z</time></trkpt><trkpt lat="39.387618839426615" lon="8.471161206402702"><ele>536.5</ele><time>2026-04-10T13:31:37Z</time></trkpt><trkpt lat="39.38765873985875" lon="8.471077907172136"><ele>537.0</ele><time>2026-04-10T13:31:38Z</time></trkpt><trkpt lat="39.3876791349274" lon="8.470983317376618"><ele>537.5</ele><time>2026-04-10T13:31:39Z</time></trkpt><trkpt lat="39.387688019996794" lon="8.470866572957043"><ele>538.0</ele><time>2026-04-10T13:31:40Z</time></trkpt><trkpt lat="39.387683399130474" lon="8.470729860571524"><ele>538.0</ele><time>2026-04-10T13:31:41Z</time></trkpt><trkpt lat="39.387686567177276" lon="8.470620329272153"><ele>538.0</ele><time>2026-04-10T13:31:42Z</time></trkpt><trkpt lat="39.38766373609207" lon="8.470528659477619"><ele>538.0</ele><time>2026-04-10T13:31:43Z</time></trkpt><trkpt lat="39.38761522829813" lon="8.47041728449617"><ele>538.0</ele><time>2026-04-10T13:31:44Z</time></trkpt><trkpt lat="39.38755756427392" lon="8.470304586636775"><ele>538.0</ele><time>2026-04-10T13:31:45Z</time></trkpt><trkpt lat="39.38750926452831" lon="8.47020971219848"><ele>539.0</ele><time>2026-04-10T13:31:46Z</time></trkpt><trkpt lat="39.38747242061983" lon="8.470085898500122"><ele>540.0</ele><time>2026-04-10T13:31:48Z</time></trkpt><trkpt lat="39.38752467269658" lon="8.469967121961814"><ele>541.0</ele><time>2026-04-10T13:31:50Z</time></trkpt><trkpt lat="39.387578608801654" lon="8.469877711339725"><ele>542.0</ele><time>2026-04-10T13:31:51Z</time></trkpt><trkpt lat="39.38767433463388" lon="8.469807473874782"><ele>543.0</ele><time>2026-04-10T13:31:52Z</time></trkpt><trkpt lat="39.387759467520716" lon="8.469750959149746"><ele>543.0</ele><time>2026-04-10T13:31:53Z</time></trkpt><trkpt lat="39.38785553378022" lon="8.469688565771063"><ele>543.0</ele><time>2026-04-10T13:31:54Z</time></trkpt><trkpt lat="39.38791148378072" lon="8.469640679649697"><ele>543.0</ele><time>2026-04-10T13:31:55Z</time></trkpt><trkpt lat="39.388007572241925" lon="8.46959003976224"><ele>543.0</ele><time>2026-04-10T13:31:56Z</time></trkpt><trkpt lat="39.38812240803731" lon="8.469520215757314"><ele>543.0</ele><time>2026-04-10T13:31:57Z</time></trkpt><trkpt lat="39.38820662386041" lon="8.469468460980094"><ele>543.6</ele><time>2026-04-10T13:31:58Z</time></trkpt><trkpt lat="39.388332863586676" lon="8.469448495113594"><ele>544.1999999999999</ele><time>2026-04-10T13:32:00Z</time></trkpt><trkpt lat="39.38842542725828" lon="8.469488541022896"><ele>544.8</ele><time>2026-04-10T13:32:02Z</time></trkpt><trkpt lat="39.38851170943063" lon="8.469519859662936"><ele>545.4</ele><time>2026-04-10T13:32:03Z</time></trkpt><trkpt lat="39.38861949274673" lon="8.469589979055874"><ele>546.0</ele><time>2026-04-10T13:32:04Z</time></trkpt><trkpt lat="39.38872699883314" lon="8.469672798324922"><ele>541.2</ele><time>2026-04-10T13:32:05Z</time></trkpt><trkpt lat="39.38881910413742" lon="8.469756719562518"><ele>536.4000000000001</ele><time>2026-04-10T13:32:06Z</time></trkpt><trkpt lat="39.38890691291833" lon="8.469840278628412"><ele>531.6</ele><time>2026-04-10T13:32:07Z</time></trkpt><trkpt lat="39.38898396509026" lon="8.469906699084465"><ele>526.8000000000001</ele><time>2026-04-10T13:32:08Z</time></trkpt><trkpt lat="39.389109042433354" lon="8.46993377013464"><ele>522.0</ele><time>2026-04-10T13:32:10Z</time></trkpt><trkpt lat="39.389187228943044" lon="8.469925598147737"><ele>522.0</ele><time>2026-04-10T13:32:11Z</time></trkpt><trkpt lat="39.389269961578776" lon="8.469904977762969"><ele>522.0</ele><time>2026-04-10T13:32:12Z</time></trkpt><trkpt lat="39.38934623285699" lon="8.469851559975181"><ele>522.0</ele><time>2026-04-10T13:32:13Z</time></trkpt><trkpt lat="39.38940221183887" lon="8.46977110257526"><ele>522.0</ele><time>2026-04-10T13:32:14Z</time></trkpt><trkpt lat="39.38943350086165" lon="8.469680380093076"><ele>522.0</ele><time>2026-04-10T13:32:15Z</time></trkpt><trkpt lat="39.389471180677525" lon="8.469549002061772"><ele>522.0</ele><time>2026-04-10T13:32:16Z</time></trkpt><trkpt lat="39.3895115323698" lon="8.469386237711477"><ele>522.5</ele><time>2026-04-10T13:32:17Z</time></trkpt><trkpt lat="39.389551110451556" lon="8.469248529029406"><ele>523.0</ele><time>2026-04-10T13:32:18Z</time></trkpt><trkpt lat="39.38959160049659" lon="8.469095854031943"><ele>523.5</ele><time>2026-04-10T13:32:19Z</time></trkpt><trkpt lat="39.389644743795635" lon="8.468966740074643"><ele>524.0</ele><time>2026-04-10T13:32:20Z</time></trkpt><trkpt lat="39.389716763167215" lon="8.468824399609968"><ele>525.8</ele><time>2026-04-10T13:32:21Z</time></trkpt><trkpt lat="39.38977491006166" lon="8.468697064244092"><ele>527.5999999999999</ele><time>2026-04-10T13:32:22Z</time></trkpt><trkpt lat="39.38982109423832" lon="8.468601673885205"><ele>529.4</ele><time>2026-04-10T13:32:23Z</time></trkpt><trkpt lat="39.389855516647145" lon="8.468531274409612"><ele>531.1999999999999</ele><time>2026-04-10T13:32:24Z</time></trkpt><trkpt lat="39.389968442814194" lon="8.468504259142813"><ele>533.0</ele><time>2026-04-10T13:32:26Z</time></trkpt><trkpt lat="39.39003965551201" lon="8.46848401542838"><ele>533.0</ele><time>2026-04-10T13:32:27Z</time></trkpt><trkpt lat="39.39011998796814" lon="8.468377721244194"><ele>533.0</ele><time>2026-04-10T13:32:29Z</time></trkpt><trkpt lat="39.3901149058528" lon="8.468248670621982"><ele>533.0</ele><time>2026-04-10T13:32:31Z</time></trkpt><trkpt lat="39.389984268879275" lon="8.46820118251689"><ele>533.0</ele><time>2026-04-10T13:32:33Z</time></trkpt><trkpt lat="39.389918350266605" lon="8.468191821565718"><ele>533.0</ele><time>2026-04-10T13:32:34Z</time></trkpt><trkpt lat="39.38984772783699" lon="8.46817556167457"><ele>533.0</ele><time>2026-04-10T13:32:35Z</time></trkpt><trkpt lat="39.389756559058014" lon="8.468146931074582"><ele>533.0</ele><time>2026-04-10T13:32:36Z</time></trkpt><trkpt lat="39.38967175316516" lon="8.468106658685405"><ele>533.0</ele><time>2026-04-10T13:32:37Z</time></trkpt><trkpt lat="39.38959305734431" lon="8.46806094996689"><ele>533.0</ele><time>2026-04-10T13:32:38Z</time></trkpt><trkpt lat="39.38950690823798" lon="8.468004855553488"><ele>533.0</ele><time>2026-04-10T13:32:39Z</time></trkpt><trkpt lat="39.38943386020608" lon="8.467953636925303"><ele>531.2857142857142</ele><time>2026-04-10T13:32:40Z</time></trkpt><trkpt lat="39.38936831219978" lon="8.467903677440027"><ele>529.5714285714286</ele><time>2026-04-10T13:32:41Z</time></trkpt><trkpt lat="39.389305213449184" lon="8.46785316832669"><ele>527.8571428571429</ele><time>2026-04-10T13:32:42Z</time></trkpt><trkpt lat="39.389254399353256" lon="8.467802304561205"><ele>526.1428571428571</ele><time>2026-04-10T13:32:43Z</time></trkpt><trkpt lat="39.38921289027325" lon="8.46772504215649"><ele>524.4285714285714</ele><time>2026-04-10T13:32:45Z</time></trkpt><trkpt lat="39.389256654680935" lon="8.467661539820146"><ele>522.7142857142857</ele><time>2026-04-10T13:32:48Z</time></trkpt><trkpt lat="39.38933970513418" lon="8.4677083132874"><ele>521.0</ele><time>2026-04-10T13:32:50Z</time></trkpt><trkpt lat="39.3894044421224" lon="8.467735609907715"><ele>521.0</ele><time>2026-04-10T13:32:52Z</time></trkpt><trkpt lat="39.38943013677719" lon="8.4676473809258"><ele>521.0</ele><time>2026-04-10T13:32:54Z</time></trkpt><trkpt lat="39.38936979003785" lon="8.467577977187599"><ele>521.0</ele><time>2026-04-10T13:32:56Z</time></trkpt><trkpt lat="39.389293364776925" lon="8.467519636268106"><ele>521.0</ele><time>2026-04-10T13:32:57Z</time></trkpt><trkpt lat="39.389213728858515" lon="8.467469131076713"><ele>521.0</ele><time>2026-04-10T13:32:58Z</time></trkpt><trkpt lat="39.38914633770974" lon="8.46742463124423"><ele>521.0</ele><time>2026-04-10T13:32:59Z</time></trkpt><trkpt lat="39.389073907358814" lon="8.46738457270044"><ele>521.0</ele><time>2026-04-10T13:33:00Z</time></trkpt><trkpt lat="39.38900047330118" lon="8.467355197802695"><ele>521.0</ele><time>2026-04-10T13:33:01Z</time></trkpt><trkpt lat="39.388920068316764" lon="8.467336864287049"><ele>521.0</ele><time>2026-04-10T13:33:02Z</time></trkpt><trkpt lat="39.38880184742703" lon="8.467352861531502"><ele>521.0</ele><time>2026-04-10T13:33:04Z</time></trkpt><trkpt lat="39.38871656765053" lon="8.467395194752859"><ele>521.0</ele><time>2026-04-10T13:33:06Z</time></trkpt><trkpt lat="39.38865428663347" lon="8.46742518659407"><ele>521.0</ele><time>2026-04-10T13:33:11Z</time></trkpt><trkpt lat="39.38871451062534" lon="8.467336283015122"><ele>521.0</ele><time>2026-04-10T13:33:14Z</time></trkpt><trkpt lat="39.388781612733816" lon="8.46730605625955"><ele>521.0</ele><time>2026-04-10T13:33:15Z</time></trkpt><trkpt lat="39.388884553419146" lon="8.467267130941536"><ele>521.0</ele><time>2026-04-10T13:33:17Z</time></trkpt><trkpt lat="39.38900271706272" lon="8.467256754813985"><ele>521.0</ele><time>2026-04-10T13:33:19Z</time></trkpt><trkpt lat="39.38908568815627" lon="8.467244111418152"><ele>521.0</ele><time>2026-04-10T13:33:20Z</time></trkpt><trkpt lat="39.38917900693984" lon="8.467241312107287"><ele>521.0</ele><time>2026-04-10T13:33:21Z</time></trkpt><trkpt lat="39.38925824073049" lon="8.46724780016632"><ele>521.0</ele><time>2026-04-10T13:33:22Z</time></trkpt><trkpt lat="39.38934301086731" lon="8.467255115363413"><ele>521.0</ele><time>2026-04-10T13:33:24Z</time></trkpt><trkpt lat="39.38938414472415" lon="8.467146806088374"><ele>521.0</ele><time>2026-04-10T13:33:27Z</time></trkpt><trkpt lat="39.38927068521601" lon="8.467060437645053"><ele>521.0</ele><time>2026-04-10T13:33:29Z</time></trkpt><trkpt lat="39.38917451733923" lon="8.46704853023656"><ele>518.6</ele><time>2026-04-10T13:33:30Z</time></trkpt><trkpt lat="39.38907227736109" lon="8.467038283299834"><ele>516.2</ele><time>2026-04-10T13:33:31Z</time></trkpt><trkpt lat="39.388987131872405" lon="8.467029104902528"><ele>513.8</ele><time>2026-04-10T13:33:32Z</time></trkpt><trkpt lat="39.38889096609436" lon="8.467018664805497"><ele>511.4</ele><time>2026-04-10T13:33:33Z</time></trkpt><trkpt lat="39.38879853189987" lon="8.467020363181007"><ele>509.0</ele><time>2026-04-10T13:33:34Z</time></trkpt><trkpt lat="39.38871531009934" lon="8.46705759394298"><ele>506.79999999999995</ele><time>2026-04-10T13:33:35Z</time></trkpt><trkpt lat="39.38862295014396" lon="8.467072208543664"><ele>504.59999999999997</ele><time>2026-04-10T13:33:36Z</time></trkpt><trkpt lat="39.388548952004726" lon="8.467073070552404"><ele>502.4</ele><time>2026-04-10T13:33:37Z</time></trkpt><trkpt lat="39.38846731561297" lon="8.467045607864916"><ele>500.2</ele><time>2026-04-10T13:33:39Z</time></trkpt><trkpt lat="39.388350287342845" lon="8.466993785079252"><ele>498.0</ele><time>2026-04-10T13:33:41Z</time></trkpt><trkpt lat="39.38828034524535" lon="8.466916955052174"><ele>498.0</ele><time>2026-04-10T13:33:42Z</time></trkpt><trkpt lat="39.388200395211555" lon="8.466841364058569"><ele>497.99999999999994</ele><time>2026-04-10T13:33:43Z</time></trkpt><trkpt lat="39.38812264033929" lon="8.466767139028116"><ele>497.99999999999994</ele><time>2026-04-10T13:33:44Z</time></trkpt><trkpt lat="39.388044534025376" lon="8.466697624106404"><ele>498.0</ele><time>2026-04-10T13:33:45Z</time></trkpt><trkpt lat="39.387967228704156" lon="8.466637999076347"><ele>498.0</ele><time>2026-04-10T13:33:46Z</time></trkpt><trkpt lat="39.38789590657154" lon="8.466563130175162"><ele>500.5</ele><time>2026-04-10T13:33:47Z</time></trkpt><trkpt lat="39.38782360277484" lon="8.466508563137577"><ele>503.0</ele><time>2026-04-10T13:33:48Z</time></trkpt><trkpt lat="39.38775699629798" lon="8.466456330004517"><ele>505.5</ele><time>2026-04-10T13:33:49Z</time></trkpt><trkpt lat="39.38769751275248" lon="8.466401604614948"><ele>508.0</ele><time>2026-04-10T13:33:50Z</time></trkpt><trkpt lat="39.3876317936776" lon="8.466333515526875"><ele>510.5</ele><time>2026-04-10T13:33:51Z</time></trkpt><trkpt lat="39.387534838937285" lon="8.466253066151046"><ele>513.0</ele><time>2026-04-10T13:33:52Z</time></trkpt><trkpt lat="39.387443886756756" lon="8.466202234774428"><ele>507.0</ele><time>2026-04-10T13:33:53Z</time></trkpt><trkpt lat="39.38735631142148" lon="8.466166064855052"><ele>500.99999999999994</ele><time>2026-04-10T13:33:54Z</time></trkpt><trkpt lat="39.38727377543597" lon="8.466137775892486"><ele>494.99999999999994</ele><time>2026-04-10T13:33:55Z</time></trkpt><trkpt lat="39.38718249753497" lon="8.466109824315533"><ele>489.0</ele><time>2026-04-10T13:33:56Z</time></trkpt><trkpt lat="39.38708307175281" lon="8.466102267068708"><ele>483.0</ele><time>2026-04-10T13:33:57Z</time></trkpt><trkpt lat="39.38700113060449" lon="8.466087848420981"><ele>482.4</ele><time>2026-04-10T13:33:58Z</time></trkpt><trkpt lat="39.386908545084665" lon="8.466052332536886"><ele>481.79999999999995</ele><time>2026-04-10T13:33:59Z</time></trkpt><trkpt lat="39.38681578192228" lon="8.466055656752072"><ele>481.2</ele><time>2026-04-10T13:34:00Z</time></trkpt><trkpt lat="39.386739184251155" lon="8.466032828281566"><ele>480.6</ele><time>2026-04-10T13:34:01Z</time></trkpt><trkpt lat="39.38662439746721" lon="8.466081224550981"><ele>480.0</ele><time>2026-04-10T13:34:03Z</time></trkpt><trkpt lat="39.38655271497103" lon="8.46615087783078"><ele>480.0</ele><time>2026-04-10T13:34:04Z</time></trkpt><trkpt lat="39.38648781694905" lon="8.466213833747698"><ele>480.0</ele><time>2026-04-10T13:34:05Z</time></trkpt><trkpt lat="39.38642408612407" lon="8.466283417706745"><ele>480.0</ele><time>2026-04-10T13:34:06Z</time></trkpt><trkpt lat="39.38637388233452" lon="8.466366670880777"><ele>480.0</ele><time>2026-04-10T13:34:07Z</time></trkpt><trkpt lat="39.38631187456696" lon="8.466412460969616"><ele>480.0</ele><time>2026-04-10T13:34:08Z</time></trkpt><trkpt lat="39.38625487866468" lon="8.4664816528966"><ele>480.0</ele><time>2026-04-10T13:34:09Z</time></trkpt><trkpt lat="39.386203888547584" lon="8.466547553731198"><ele>482.3333333333333</ele><time>2026-04-10T13:34:10Z</time></trkpt><trkpt lat="39.38615103698355" lon="8.46661913445454"><ele>484.66666666666663</ele><time>2026-04-10T13:34:11Z</time></trkpt><trkpt lat="39.38610175692597" lon="8.466685877814392"><ele>487.0</ele><time>2026-04-10T13:34:12Z</time></trkpt><trkpt lat="39.38604422173716" lon="8.466750438250022"><ele>489.3333333333333</ele><time>2026-04-10T13:34:13Z</time></trkpt><trkpt lat="39.385951937970134" lon="8.466763628961138"><ele>491.66666666666663</ele><time>2026-04-10T13:34:16Z</time></trkpt><trkpt lat="39.38590302374561" lon="8.466709222355275"><ele>494.0</ele><time>2026-04-10T13:34:17Z</time></trkpt><trkpt lat="39.38583609833789" lon="8.466587907237106"><ele>493.99999999999994</ele><time>2026-04-10T13:34:18Z</time></trkpt><trkpt lat="39.38575930744324" lon="8.466483743185963"><ele>494.0</ele><time>2026-04-10T13:34:19Z</time></trkpt><trkpt lat="39.385708001046936" lon="8.466404972673896"><ele>494.0</ele><time>2026-04-10T13:34:20Z</time></trkpt><trkpt lat="39.38565254584908" lon="8.466356231144177"><ele>494.0</ele><time>2026-04-10T13:34:21Z</time></trkpt><trkpt lat="39.385573495399456" lon="8.466340944522583"><ele>493.99999999999994</ele><time>2026-04-10T13:34:23Z</time></trkpt><trkpt lat="39.38552007130049" lon="8.46626281776198"><ele>494.0</ele><time>2026-04-10T13:34:25Z</time></trkpt><trkpt lat="39.385586795778444" lon="8.466220057760244"><ele>494.0</ele><time>2026-04-10T13:34:29Z</time></trkpt><trkpt lat="39.38568605392471" lon="8.466308177359787"><ele>494.0</ele><time>2026-04-10T13:34:31Z</time></trkpt><trkpt lat="39.385752755766106" lon="8.46635874134841"><ele>494.0</ele><time>2026-04-10T13:34:32Z</time></trkpt><trkpt lat="39.385808298827186" lon="8.466414591728693"><ele>494.0</ele><time>2026-04-10T13:34:33Z</time></trkpt><trkpt lat="39.38587041317446" lon="8.466455755950118"><ele>494.0</ele><time>2026-04-10T13:34:34Z</time></trkpt><trkpt lat="39.38595126443969" lon="8.466574642051775"><ele>493.99999999999994</ele><time>2026-04-10T13:34:36Z</time></trkpt><trkpt lat="39.38606017903538" lon="8.46657950575599"><ele>494.0</ele><time>2026-04-10T13:34:38Z</time></trkpt><trkpt lat="39.38608650822829" lon="8.466497417756704"><ele>494.0</ele><time>2026-04-10T13:34:39Z</time></trkpt><trkpt lat="39.38610659366699" lon="8.466412892028732"><ele>494.0</ele><time>2026-04-10T13:34:40Z</time></trkpt><trkpt lat="39.386133471597226" lon="8.466281701271576"><ele>493.99999999999994</ele><time>2026-04-10T13:34:41Z</time></trkpt><trkpt lat="39.38617993988033" lon="8.46617406014336"><ele>494.0</ele><time>2026-04-10T13:34:42Z</time></trkpt><trkpt lat="39.38624513034219" lon="8.466071490705687"><ele>491.66666666666663</ele><time>2026-04-10T13:34:43Z</time></trkpt><trkpt lat="39.38629319200858" lon="8.465963325190804"><ele>489.3333333333333</ele><time>2026-04-10T13:34:44Z</time></trkpt><trkpt lat="39.386328966768765" lon="8.465878685303803"><ele>487.0</ele><time>2026-04-10T13:34:45Z</time></trkpt><trkpt lat="39.38636611690612" lon="8.465794668890334"><ele>484.66666666666663</ele><time>2026-04-10T13:34:46Z</time></trkpt><trkpt lat="39.38643272957689" lon="8.465653616458328"><ele>482.3333333333333</ele><time>2026-04-10T13:34:48Z</time></trkpt><trkpt lat="39.3864904501422" lon="8.46561177259888"><ele>480.0</ele><time>2026-04-10T13:34:49Z</time></trkpt><trkpt lat="39.3865491368395" lon="8.465568207859334"><ele>480.0</ele><time>2026-04-10T13:34:50Z</time></trkpt><trkpt lat="39.38661139761011" lon="8.46553702779034"><ele>480.0</ele><time>2026-04-10T13:34:51Z</time></trkpt><trkpt lat="39.38667435486034" lon="8.465525355198034"><ele>480.0</ele><time>2026-04-10T13:34:52Z</time></trkpt><trkpt lat="39.38673799186101" lon="8.465506595007932"><ele>480.0</ele><time>2026-04-10T13:34:53Z</time></trkpt><trkpt lat="39.38681436811305" lon="8.465476299338901"><ele>480.0</ele><time>2026-04-10T13:34:54Z</time></trkpt><trkpt lat="39.38689780426334" lon="8.46546378445648"><ele>480.0</ele><time>2026-04-10T13:34:55Z</time></trkpt><trkpt lat="39.386975621440165" lon="8.46545272264963"><ele>480.0</ele><time>2026-04-10T13:34:56Z</time></trkpt><trkpt lat="39.38705739125225" lon="8.465465355954167"><ele>480.0</ele><time>2026-04-10T13:34:57Z</time></trkpt><trkpt lat="39.38717187675637" lon="8.465470228366163"><ele>480.0</ele><time>2026-04-10T13:34:59Z</time></trkpt><trkpt lat="39.387256504799005" lon="8.465476789834822"><ele>480.0</ele><time>2026-04-10T13:35:00Z</time></trkpt><trkpt lat="39.387347576508304" lon="8.465450064616164"><ele>480.0</ele><time>2026-04-10T13:35:01Z</time></trkpt><trkpt lat="39.38743347880021" lon="8.465464728408701"><ele>480.0</ele><time>2026-04-10T13:35:02Z</time></trkpt><trkpt lat="39.38756299568582" lon="8.465473479466711"><ele>480.5</ele><time>2026-04-10T13:35:04Z</time></trkpt><trkpt lat="39.387629825484474" lon="8.465464257260711"><ele>481.0</ele><time>2026-04-10T13:35:05Z</time></trkpt><trkpt lat="39.38771441484892" lon="8.465478871830781"><ele>481.5</ele><time>2026-04-10T13:35:07Z</time></trkpt><trkpt lat="39.38778934028501" lon="8.465381963921613"><ele>482.0</ele><time>2026-04-10T13:35:10Z</time></trkpt><trkpt lat="39.3877688754923" lon="8.465299312046401"><ele>482.5</ele><time>2026-04-10T13:35:11Z</time></trkpt><trkpt lat="39.38766517573745" lon="8.46523602804744"><ele>483.0</ele><time>2026-04-10T13:35:12Z</time></trkpt><trkpt lat="39.38755468035999" lon="8.465235503514076"><ele>477.79999999999995</ele><time>2026-04-10T13:35:13Z</time></trkpt><trkpt lat="39.387439882571556" lon="8.465176625333818"><ele>472.59999999999997</ele><time>2026-04-10T13:35:14Z</time></trkpt><trkpt lat="39.38734168417325" lon="8.465149527308627"><ele>467.40000000000003</ele><time>2026-04-10T13:35:15Z</time></trkpt><trkpt lat="39.387236224235274" lon="8.46512415694028"><ele>462.20000000000005</ele><time>2026-04-10T13:35:16Z</time></trkpt><trkpt lat="39.387145563196476" lon="8.465105638714512"><ele>457.0</ele><time>2026-04-10T13:35:17Z</time></trkpt><trkpt lat="39.38701696795954" lon="8.465086163674263"><ele>456.1666666666667</ele><time>2026-04-10T13:35:18Z</time></trkpt><trkpt lat="39.38691232464508" lon="8.465095211287526"><ele>455.33333333333337</ele><time>2026-04-10T13:35:19Z</time></trkpt><trkpt lat="39.386822009226215" lon="8.46507359012492"><ele>454.5</ele><time>2026-04-10T13:35:20Z</time></trkpt><trkpt lat="39.38675295502581" lon="8.465064980857983"><ele>453.66666666666663</ele><time>2026-04-10T13:35:21Z</time></trkpt><trkpt lat="39.386690748143664" lon="8.465049450091854"><ele>452.8333333333333</ele><time>2026-04-10T13:35:22Z</time></trkpt><trkpt lat="39.386586047978426" lon="8.465050593702966"><ele>452.0</ele><time>2026-04-10T13:35:23Z</time></trkpt><trkpt lat="39.386462971554614" lon="8.465069817063787"><ele>452.0</ele><time>2026-04-10T13:35:24Z</time></trkpt><trkpt lat="39.38635636415783" lon="8.465073522172485"><ele>452.00000000000006</ele><time>2026-04-10T13:35:25Z</time></trkpt><trkpt lat="39.38626678737125" lon="8.465089375488619"><ele>452.00000000000006</ele><time>2026-04-10T13:35:26Z</time></trkpt><trkpt lat="39.38618296490918" lon="8.465101581856786"><ele>452.0</ele><time>2026-04-10T13:35:27Z</time></trkpt><trkpt lat="39.38610425500434" lon="8.465113077615346"><ele>452.0</ele><time>2026-04-10T13:35:28Z</time></trkpt><trkpt lat="39.38601851545967" lon="8.46515342472109"><ele>450.40000000000003</ele><time>2026-04-10T13:35:29Z</time></trkpt><trkpt lat="39.38592969491376" lon="8.46519730611856"><ele>448.80000000000007</ele><time>2026-04-10T13:35:30Z</time></trkpt><trkpt lat="39.3858146932661" lon="8.465212690532718"><ele>447.2</ele><time>2026-04-10T13:35:31Z</time></trkpt><trkpt lat="39.38572096682815" lon="8.465237992069298"><ele>445.6</ele><time>2026-04-10T13:35:32Z</time></trkpt><trkpt lat="39.3856244405013" lon="8.465258556904864"><ele>444.0</ele><time>2026-04-10T13:35:33Z</time></trkpt><trkpt lat="39.385531226898124" lon="8.465268795518234"><ele>443.5</ele><time>2026-04-10T13:35:34Z</time></trkpt><trkpt lat="39.38544983367386" lon="8.46529522803521"><ele>443.0</ele><time>2026-04-10T13:35:35Z</time></trkpt><trkpt lat="39.385372391576084" lon="8.465308736628824"><ele>442.5</ele><time>2026-04-10T13:35:36Z</time></trkpt><trkpt lat="39.38531096461118" lon="8.465342473458474"><ele>442.0</ele><time>2026-04-10T13:35:37Z</time></trkpt><trkpt lat="39.38524605178532" lon="8.465403234575145"><ele>441.5</ele><time>2026-04-10T13:35:38Z</time></trkpt><trkpt lat="39.38515683066036" lon="8.465464745379839"><ele>441.0</ele><time>2026-04-10T13:35:39Z</time></trkpt><trkpt lat="39.38507863497843" lon="8.465542035531973"><ele>441.0</ele><time>2026-04-10T13:35:40Z</time></trkpt><trkpt lat="39.3850132873757" lon="8.465602740844883"><ele>441.0</ele><time>2026-04-10T13:35:41Z</time></trkpt><trkpt lat="39.38496073777032" lon="8.465650137614734"><ele>441.0</ele><time>2026-04-10T13:35:42Z</time></trkpt><trkpt lat="39.38485442649626" lon="8.465675462446463"><ele>441.0</ele><time>2026-04-10T13:35:44Z</time></trkpt><trkpt lat="39.38479369728971" lon="8.465553108726036"><ele>441.0</ele><time>2026-04-10T13:35:46Z</time></trkpt><trkpt lat="39.384809429035485" lon="8.465391730863708"><ele>441.0</ele><time>2026-04-10T13:35:48Z</time></trkpt><trkpt lat="39.384808658334414" lon="8.465309886998162"><ele>441.0</ele><time>2026-04-10T13:35:49Z</time></trkpt><trkpt lat="39.3848236823898" lon="8.465213202846103"><ele>441.0</ele><time>2026-04-10T13:35:50Z</time></trkpt><trkpt lat="39.38482077973302" lon="8.465113961907129"><ele>441.0</ele><time>2026-04-10T13:35:51Z</time></trkpt><trkpt lat="39.384829277490155" lon="8.464980642549524"><ele>441.0</ele><time>2026-04-10T13:35:52Z</time></trkpt><trkpt lat="39.38484292459739" lon="8.464860384480474"><ele>441.0</ele><time>2026-04-10T13:35:53Z</time></trkpt><trkpt lat="39.38486137393547" lon="8.464738957479694"><ele>441.0</ele><time>2026-04-10T13:35:54Z</time></trkpt><trkpt lat="39.384888510079776" lon="8.464618778531277"><ele>441.0</ele><time>2026-04-10T13:35:55Z</time></trkpt><trkpt lat="39.384915562078035" lon="8.46451460301061"><ele>441.0</ele><time>2026-04-10T13:35:56Z</time></trkpt><trkpt lat="39.38492892118288" lon="8.464409755545535"><ele>441.0</ele><time>2026-04-10T13:35:57Z</time></trkpt><trkpt lat="39.38493801498595" lon="8.464296254275396"><ele>441.0</ele><time>2026-04-10T13:35:58Z</time></trkpt><trkpt lat="39.384940558091294" lon="8.464171424415861"><ele>441.0</ele><time>2026-04-10T13:35:59Z</time></trkpt><trkpt lat="39.3849353790132" lon="8.46405155378367"><ele>439.5</ele><time>2026-04-10T13:36:00Z</time></trkpt><trkpt lat="39.384912428688104" lon="8.463945950086067"><ele>438.0</ele><time>2026-04-10T13:36:01Z</time></trkpt><trkpt lat="39.384928785742055" lon="8.46384086576817"><ele>436.5</ele><time>2026-04-10T13:36:02Z</time></trkpt><trkpt lat="39.38490138332185" lon="8.463732590776965"><ele>435.0</ele><time>2026-04-10T13:36:03Z</time></trkpt><trkpt lat="39.38490213058556" lon="8.463617901547098"><ele>433.5</ele><time>2026-04-10T13:36:04Z</time></trkpt><trkpt lat="39.38489186447262" lon="8.46351956920729"><ele>432.0</ele><time>2026-04-10T13:36:05Z</time></trkpt><trkpt lat="39.38487953348671" lon="8.46339806204583"><ele>430.6</ele><time>2026-04-10T13:36:06Z</time></trkpt><trkpt lat="39.384864699007686" lon="8.463288045824712"><ele>429.20000000000005</ele><time>2026-04-10T13:36:07Z</time></trkpt><trkpt lat="39.38485101842506" lon="8.46317699319758"><ele>427.8</ele><time>2026-04-10T13:36:08Z</time></trkpt><trkpt lat="39.384839311141036" lon="8.46306491562976"><ele>426.4</ele><time>2026-04-10T13:36:09Z</time></trkpt><trkpt lat="39.38484892105363" lon="8.462937078446549"><ele>425.0</ele><time>2026-04-10T13:36:10Z</time></trkpt><trkpt lat="39.384841794451354" lon="8.462814326982638"><ele>423.0</ele><time>2026-04-10T13:36:11Z</time></trkpt><trkpt lat="39.384841866350094" lon="8.46268356062088"><ele>421.0</ele><time>2026-04-10T13:36:12Z</time></trkpt><trkpt lat="39.38483769341845" lon="8.462551875391032"><ele>419.0</ele><time>2026-04-10T13:36:13Z</time></trkpt><trkpt lat="39.384821430488564" lon="8.462408781776457"><ele>417.0</ele><time>2026-04-10T13:36:14Z</time></trkpt><trkpt lat="39.384824499138865" lon="8.462286433775482"><ele>415.0</ele><time>2026-04-10T13:36:15Z</time></trkpt><trkpt lat="39.38481788842992" lon="8.46219937643525"><ele>415.6</ele><time>2026-04-10T13:36:16Z</time></trkpt><trkpt lat="39.38481027328838" lon="8.462080971016281"><ele>416.2</ele><time>2026-04-10T13:36:17Z</time></trkpt><trkpt lat="39.38480413139719" lon="8.4619774799638"><ele>416.79999999999995</ele><time>2026-04-10T13:36:18Z</time></trkpt><trkpt lat="39.3847490265608" lon="8.461896856989453"><ele>417.4</ele><time>2026-04-10T13:36:19Z</time></trkpt><trkpt lat="39.384680536306895" lon="8.46177007727101"><ele>418.0</ele><time>2026-04-10T13:36:20Z</time></trkpt><trkpt lat="39.38461884840251" lon="8.461649809392917"><ele>418.0</ele><time>2026-04-10T13:36:21Z</time></trkpt><trkpt lat="39.38456751724075" lon="8.461534937159799"><ele>418.0</ele><time>2026-04-10T13:36:22Z</time></trkpt><trkpt lat="39.38452275681172" lon="8.461434204205387"><ele>418.0</ele><time>2026-04-10T13:36:23Z</time></trkpt><trkpt lat="39.3844648207255" lon="8.46132327461482"><ele>418.0</ele><time>2026-04-10T13:36:24Z</time></trkpt><trkpt lat="39.3844241888269" lon="8.461231962345122"><ele>418.0</ele><time>2026-04-10T13:36:25Z</time></trkpt><trkpt lat="39.384381588526345" lon="8.461143212808038"><ele>414.79999999999995</ele><time>2026-04-10T13:36:26Z</time></trkpt><trkpt lat="39.38432889643755" lon="8.461024265030945"><ele>411.6</ele><time>2026-04-10T13:36:27Z</time></trkpt><trkpt lat="39.38427697800058" lon="8.460918095528381"><ele>408.4</ele><time>2026-04-10T13:36:28Z</time></trkpt><trkpt lat="39.38423106089905" lon="8.460824767930012"><ele>405.20000000000005</ele><time>2026-04-10T13:36:29Z</time></trkpt><trkpt lat="39.38417407682436" lon="8.460743272630477"><ele>402.0</ele><time>2026-04-10T13:36:30Z</time></trkpt><trkpt lat="39.38410040258788" lon="8.46066442497563"><ele>402.0</ele><time>2026-04-10T13:36:31Z</time></trkpt><trkpt lat="39.38401471573966" lon="8.460550543424622"><ele>402.0</ele><time>2026-04-10T13:36:32Z</time></trkpt><trkpt lat="39.38390929871519" lon="8.460434107931633"><ele>402.0</ele><time>2026-04-10T13:36:33Z</time></trkpt><trkpt lat="39.383827092866426" lon="8.460298861705734"><ele>402.0</ele><time>2026-04-10T13:36:34Z</time></trkpt><trkpt lat="39.38378062941026" lon="8.460162808052438"><ele>401.5</ele><time>2026-04-10T13:36:35Z</time></trkpt><trkpt lat="39.383724684193744" lon="8.460040289178828"><ele>401.0</ele><time>2026-04-10T13:36:36Z</time></trkpt><trkpt lat="39.38367241543466" lon="8.459925821671536"><ele>400.5</ele><time>2026-04-10T13:36:37Z</time></trkpt><trkpt lat="39.38362123351824" lon="8.459813734329323"><ele>400.0</ele><time>2026-04-10T13:36:38Z</time></trkpt><trkpt lat="39.38347777404143" lon="8.45975951084776"><ele>400.0</ele><time>2026-04-10T13:36:39Z</time></trkpt><trkpt lat="39.383404430293" lon="8.459661865629574"><ele>400.0</ele><time>2026-04-10T13:36:40Z</time></trkpt><trkpt lat="39.383336353025065" lon="8.459571895785558"><ele>400.0</ele><time>2026-04-10T13:36:41Z</time></trkpt><trkpt lat="39.383265245585555" lon="8.45947465888501"><ele>400.0</ele><time>2026-04-10T13:36:42Z</time></trkpt><trkpt lat="39.383200801827996" lon="8.459377376544637"><ele>400.0</ele><time>2026-04-10T13:36:43Z</time></trkpt><trkpt lat="39.38314121580127" lon="8.459264010695078"><ele>399.5</ele><time>2026-04-10T13:36:44Z</time></trkpt><trkpt lat="39.383076018486705" lon="8.459135982208812"><ele>399.0</ele><time>2026-04-10T13:36:45Z</time></trkpt><trkpt lat="39.38299958014399" lon="8.459012201621377"><ele>398.5</ele><time>2026-04-10T13:36:46Z</time></trkpt><trkpt lat="39.38292339553153" lon="8.458887120396312"><ele>398.0</ele><time>2026-04-10T13:36:47Z</time></trkpt><trkpt lat="39.38285273948258" lon="8.458761659461373"><ele>395.75</ele><time>2026-04-10T13:36:48Z</time></trkpt><trkpt lat="39.38278264167286" lon="8.458637252149801"><ele>393.5</ele><time>2026-04-10T13:36:49Z</time></trkpt><trkpt lat="39.38270488305055" lon="8.458499982190883"><ele>391.25</ele><time>2026-04-10T13:36:50Z</time></trkpt><trkpt lat="39.38262771964537" lon="8.4583597668855"><ele>389.0</ele><time>2026-04-10T13:36:51Z</time></trkpt><trkpt lat="39.38255624279938" lon="8.458235047859285"><ele>388.99999999999994</ele><time>2026-04-10T13:36:52Z</time></trkpt><trkpt lat="39.38249867624174" lon="8.458134480919295"><ele>389.0</ele><time>2026-04-10T13:36:53Z</time></trkpt><trkpt lat="39.38244512598121" lon="8.458035581269094"><ele>389.0</ele><time>2026-04-10T13:36:54Z</time></trkpt><trkpt lat="39.38239779548839" lon="8.457960696249858"><ele>389.0</ele><time>2026-04-10T13:36:55Z</time></trkpt><trkpt lat="39.38233382081463" lon="8.457860108938075"><ele>388.99999999999994</ele><time>2026-04-10T13:36:57Z</time></trkpt><trkpt lat="39.38230762180852" lon="8.457771826096707"><ele>389.0</ele><time>2026-04-10T13:37:00Z</time></trkpt><trkpt lat="39.38224086903624" lon="8.457663617481542"><ele>389.79999999999995</ele><time>2026-04-10T13:37:37Z</time></trkpt><trkpt lat="39.38220429067796" lon="8.457587809266045"><ele>390.59999999999997</ele><time>2026-04-10T13:37:38Z</time></trkpt><trkpt lat="39.382152828464044" lon="8.4574468069574"><ele>391.4</ele><time>2026-04-10T13:37:40Z</time></trkpt><trkpt lat="39.3821093354181" lon="8.457324424288045"><ele>392.2</ele><time>2026-04-10T13:37:42Z</time></trkpt><trkpt lat="39.38205682162473" lon="8.457245049348023"><ele>393.0</ele><time>2026-04-10T13:37:44Z</time></trkpt><trkpt lat="39.38201332400599" lon="8.457136545755734"><ele>391.59999999999997</ele><time>2026-04-10T13:37:46Z</time></trkpt><trkpt lat="39.3820027911424" lon="8.456997584292331"><ele>390.2</ele><time>2026-04-10T13:37:49Z</time></trkpt><trkpt lat="39.38201352920156" lon="8.456852051736886"><ele>388.8</ele><time>2026-04-10T13:37:51Z</time></trkpt><trkpt lat="39.381949761955845" lon="8.456742524087462"><ele>387.4</ele><time>2026-04-10T13:40:29Z</time></trkpt><trkpt lat="39.38200403374972" lon="8.45665732614111"><ele>386.0</ele><time>2026-04-10T13:40:31Z</time></trkpt><trkpt lat="39.382070881257526" lon="8.456595999723374"><ele>385.99999999999994</ele><time>2026-04-10T13:40:32Z</time></trkpt><trkpt lat="39.382153848447985" lon="8.456573820453615"><ele>386.0</ele><time>2026-04-10T13:40:33Z</time></trkpt><trkpt lat="39.382218038776415" lon="8.456544043450602"><ele>386.0</ele><time>2026-04-10T13:40:34Z</time></trkpt><trkpt lat="39.382285513477456" lon="8.45652613489236"><ele>386.0</ele><time>2026-04-10T13:40:35Z</time></trkpt><trkpt lat="39.38238336829486" lon="8.456479440125511"><ele>385.99999999999994</ele><time>2026-04-10T13:40:37Z</time></trkpt><trkpt lat="39.382463810153425" lon="8.456448091027841"><ele>386.0</ele><time>2026-04-10T13:40:39Z</time></trkpt><trkpt lat="39.382588670114885" lon="8.456422721663204"><ele>385.8333333333333</ele><time>2026-04-10T13:40:41Z</time></trkpt><trkpt lat="39.38265568115335" lon="8.456401967219772"><ele>385.66666666666663</ele><time>2026-04-10T13:40:42Z</time></trkpt><trkpt lat="39.3827261140344" lon="8.456409693671601"><ele>385.5</ele><time>2026-04-10T13:40:43Z</time></trkpt><trkpt lat="39.382810486712145" lon="8.456373833164594"><ele>385.33333333333337</ele><time>2026-04-10T13:40:44Z</time></trkpt><trkpt lat="39.382929371652416" lon="8.45633784633942"><ele>385.1666666666667</ele><time>2026-04-10T13:40:45Z</time></trkpt><trkpt lat="39.38301802414676" lon="8.456296718218933"><ele>385.0</ele><time>2026-04-10T13:40:46Z</time></trkpt><trkpt lat="39.38309073272778" lon="8.45628985747552"><ele>384.8</ele><time>2026-04-10T13:40:47Z</time></trkpt><trkpt lat="39.38317841520664" lon="8.456330167154977"><ele>384.6</ele><time>2026-04-10T13:40:48Z</time></trkpt><trkpt lat="39.38335009973295" lon="8.456347418387624"><ele>384.4</ele><time>2026-04-10T13:40:49Z</time></trkpt><trkpt lat="39.38344434188322" lon="8.456346476670268"><ele>384.2</ele><time>2026-04-10T13:40:50Z</time></trkpt><trkpt lat="39.383516252058264" lon="8.456382336622667"><ele>384.0</ele><time>2026-04-10T13:40:51Z</time></trkpt><trkpt lat="39.38362110394824" lon="8.456306525206466"><ele>387.75</ele><time>2026-04-10T13:40:53Z</time></trkpt><trkpt lat="39.383699661876626" lon="8.456236808846441"><ele>391.5</ele><time>2026-04-10T13:40:54Z</time></trkpt><trkpt lat="39.38379437160582" lon="8.45611069021261"><ele>395.25</ele><time>2026-04-10T13:40:55Z</time></trkpt><trkpt lat="39.38385593037174" lon="8.456000314651018"><ele>399.0</ele><time>2026-04-10T13:40:56Z</time></trkpt><trkpt lat="39.38392809657216" lon="8.455864608419942"><ele>399.0</ele><time>2026-04-10T13:40:57Z</time></trkpt><trkpt lat="39.3839860955541" lon="8.455747057164174"><ele>399.0</ele><time>2026-04-10T13:40:58Z</time></trkpt><trkpt lat="39.38405210708239" lon="8.45563329743532"><ele>399.0</ele><time>2026-04-10T13:40:59Z</time></trkpt><trkpt lat="39.3841153058453" lon="8.455529605008316"><ele>399.0</ele><time>2026-04-10T13:41:00Z</time></trkpt><trkpt lat="39.38417022323238" lon="8.455394844260859"><ele>399.0</ele><time>2026-04-10T13:41:01Z</time></trkpt><trkpt lat="39.384237411552014" lon="8.45527559297188"><ele>399.2</ele><time>2026-04-10T13:41:02Z</time></trkpt><trkpt lat="39.384280259665765" lon="8.45517953611478"><ele>399.4</ele><time>2026-04-10T13:41:03Z</time></trkpt><trkpt lat="39.38430703481721" lon="8.455072644550402"><ele>399.6</ele><time>2026-04-10T13:41:04Z</time></trkpt><trkpt lat="39.384347380785904" lon="8.454956853378713"><ele>399.8</ele><time>2026-04-10T13:41:05Z</time></trkpt><trkpt lat="39.384401092479436" lon="8.454830265539629"><ele>400.0</ele><time>2026-04-10T13:41:06Z</time></trkpt><trkpt lat="39.384455354898115" lon="8.45472495032575"><ele>400.0</ele><time>2026-04-10T13:41:07Z</time></trkpt><trkpt lat="39.384530807184596" lon="8.454655737048821"><ele>400.0</ele><time>2026-04-10T13:41:08Z</time></trkpt><trkpt lat="39.38460291935383" lon="8.454602550441978"><ele>400.0</ele><time>2026-04-10T13:41:09Z</time></trkpt><trkpt lat="39.38467659057925" lon="8.45455693176878"><ele>400.0</ele><time>2026-04-10T13:41:10Z</time></trkpt><trkpt lat="39.38475821353284" lon="8.454474419904267"><ele>400.0</ele><time>2026-04-10T13:41:11Z</time></trkpt><trkpt lat="39.384839940673686" lon="8.454403605957177"><ele>400.2</ele><time>2026-04-10T13:41:12Z</time></trkpt><trkpt lat="39.38494633447627" lon="8.45433832917001"><ele>400.4</ele><time>2026-04-10T13:41:13Z</time></trkpt><trkpt lat="39.38505351389311" lon="8.454295971821505"><ele>400.6</ele><time>2026-04-10T13:41:14Z</time></trkpt><trkpt lat="39.38514566807694" lon="8.454254648228188"><ele>400.8</ele><time>2026-04-10T13:41:15Z</time></trkpt><trkpt lat="39.38524179983637" lon="8.45420094896562"><ele>401.0</ele><time>2026-04-10T13:41:16Z</time></trkpt><trkpt lat="39.38533452935358" lon="8.454147251202341"><ele>401.0</ele><time>2026-04-10T13:41:17Z</time></trkpt><trkpt lat="39.38541631625331" lon="8.454107811406647"><ele>401.0</ele><time>2026-04-10T13:41:18Z</time></trkpt><trkpt lat="39.38552105247314" lon="8.454069197278839"><ele>401.0</ele><time>2026-04-10T13:41:19Z</time></trkpt><trkpt lat="39.385624864210804" lon="8.454052743786145"><ele>401.0</ele><time>2026-04-10T13:41:20Z</time></trkpt><trkpt lat="39.38572604226761" lon="8.454047699211719"><ele>401.0</ele><time>2026-04-10T13:41:21Z</time></trkpt><trkpt lat="39.38582497193858" lon="8.454016890326278"><ele>400.8</ele><time>2026-04-10T13:41:22Z</time></trkpt><trkpt lat="39.38594172586214" lon="8.453960149821656"><ele>400.6</ele><time>2026-04-10T13:41:23Z</time></trkpt><trkpt lat="39.38604178134242" lon="8.453904747007316"><ele>400.4</ele><time>2026-04-10T13:41:24Z</time></trkpt><trkpt lat="39.38613712140147" lon="8.453851194473621"><ele>400.2</ele><time>2026-04-10T13:41:25Z</time></trkpt><trkpt lat="39.38623160423469" lon="8.453818316546121"><ele>400.0</ele><time>2026-04-10T13:41:26Z</time></trkpt><trkpt lat="39.38627962423011" lon="8.453750908738686"><ele>400.00000000000006</ele><time>2026-04-10T13:41:27Z</time></trkpt><trkpt lat="39.38631651692144" lon="8.453669903873827"><ele>400.0</ele><time>2026-04-10T13:41:28Z</time></trkpt><trkpt lat="39.38637779012343" lon="8.45357221885757"><ele>400.0</ele><time>2026-04-10T13:41:29Z</time></trkpt><trkpt lat="39.38643485193186" lon="8.453455923622444"><ele>400.0</ele><time>2026-04-10T13:41:30Z</time></trkpt><trkpt lat="39.38647416773632" lon="8.453370959732718"><ele>400.00000000000006</ele><time>2026-04-10T13:41:31Z</time></trkpt><trkpt lat="39.38652298859906" lon="8.453284460301731"><ele>400.0</ele><time>2026-04-10T13:41:32Z</time></trkpt><trkpt lat="39.38656926534042" lon="8.453172355271448"><ele>400.0</ele><time>2026-04-10T13:41:33Z</time></trkpt><trkpt lat="39.38660542857356" lon="8.453048779308059"><ele>400.0</ele><time>2026-04-10T13:41:34Z</time></trkpt><trkpt lat="39.386654840672165" lon="8.452950199502657"><ele>400.0</ele><time>2026-04-10T13:41:35Z</time></trkpt><trkpt lat="39.38671256152093" lon="8.45282818601945"><ele>400.0</ele><time>2026-04-10T13:41:36Z</time></trkpt><trkpt lat="39.38676638553888" lon="8.452694809914435"><ele>400.0</ele><time>2026-04-10T13:41:37Z</time></trkpt><trkpt lat="39.38682721089309" lon="8.452577102776608"><ele>401.8</ele><time>2026-04-10T13:41:38Z</time></trkpt><trkpt lat="39.38687820817122" lon="8.452447203256469"><ele>403.6</ele><time>2026-04-10T13:41:39Z</time></trkpt><trkpt lat="39.38692035084844" lon="8.45235432021628"><ele>405.4</ele><time>2026-04-10T13:41:40Z</time></trkpt><trkpt lat="39.386953546045895" lon="8.452268812102163"><ele>407.2</ele><time>2026-04-10T13:41:41Z</time></trkpt><trkpt lat="39.38699246407335" lon="8.452139891930976"><ele>409.0</ele><time>2026-04-10T13:41:43Z</time></trkpt><trkpt lat="39.38702909130499" lon="8.45195758760981"><ele>411.33333333333337</ele><time>2026-04-10T13:41:45Z</time></trkpt><trkpt lat="39.38704643332887" lon="8.451875470800683"><ele>413.6666666666667</ele><time>2026-04-10T13:41:46Z</time></trkpt><trkpt lat="39.38703379947446" lon="8.451728820672596"><ele>416.0</ele><time>2026-04-10T13:41:48Z</time></trkpt><trkpt lat="39.387012597395795" lon="8.451613342580982"><ele>418.33333333333337</ele><time>2026-04-10T13:41:50Z</time></trkpt><trkpt lat="39.38704207988709" lon="8.451489221552007"><ele>420.6666666666667</ele><time>2026-04-10T13:41:53Z</time></trkpt><trkpt lat="39.387078023657885" lon="8.451404525459111"><ele>423.0</ele><time>2026-04-10T13:41:54Z</time></trkpt><trkpt lat="39.38714408060923" lon="8.451329244812374"><ele>420.5</ele><time>2026-04-10T13:41:55Z</time></trkpt><trkpt lat="39.38718494585703" lon="8.451240745973202"><ele>418.0</ele><time>2026-04-10T13:41:56Z</time></trkpt><trkpt lat="39.3872338842986" lon="8.451147998106354"><ele>415.5</ele><time>2026-04-10T13:41:57Z</time></trkpt><trkpt lat="39.38725757586218" lon="8.451031667822754"><ele>413.0</ele><time>2026-04-10T13:41:59Z</time></trkpt><trkpt lat="39.38726040248218" lon="8.450917767847463"><ele>410.5</ele><time>2026-04-10T13:42:01Z</time></trkpt><trkpt lat="39.387231148716765" lon="8.450810577620798"><ele>408.0</ele><time>2026-04-10T13:42:03Z</time></trkpt><trkpt lat="39.38720989879519" lon="8.450733117484113"><ele>411.79999999999995</ele><time>2026-04-10T13:42:04Z</time></trkpt><trkpt lat="39.387133085961395" lon="8.45065142769038"><ele>415.6</ele><time>2026-04-10T13:42:06Z</time></trkpt><trkpt lat="39.387022581357286" lon="8.450577950848407"><ele>419.40000000000003</ele><time>2026-04-10T13:42:08Z</time></trkpt><trkpt lat="39.386965524670295" lon="8.450534896425808"><ele>423.20000000000005</ele><time>2026-04-10T13:42:09Z</time></trkpt><trkpt lat="39.386892659850155" lon="8.450458114422094"><ele>427.0</ele><time>2026-04-10T13:42:11Z</time></trkpt><trkpt lat="39.38682048993214" lon="8.45047026183868"><ele>427.00000000000006</ele><time>2026-04-10T13:42:13Z</time></trkpt><trkpt lat="39.386825481012885" lon="8.45058153921326"><ele>427.0</ele><time>2026-04-10T13:42:15Z</time></trkpt><trkpt lat="39.38690383109638" lon="8.450621160335263"><ele>427.0</ele><time>2026-04-10T13:42:17Z</time></trkpt><trkpt lat="39.387003222096396" lon="8.450703531631602"><ele>427.0</ele><time>2026-04-10T13:42:19Z</time></trkpt><trkpt lat="39.38700454359512" lon="8.450791334946524"><ele>427.00000000000006</ele><time>2026-04-10T13:42:21Z</time></trkpt><trkpt lat="39.386952023368316" lon="8.45085294762671"><ele>427.0</ele><time>2026-04-10T13:42:23Z</time></trkpt><trkpt lat="39.38686899140108" lon="8.450793299220862"><ele>427.00000000000006</ele><time>2026-04-10T13:42:25Z</time></trkpt><trkpt lat="39.38680040351639" lon="8.450644758272867"><ele>427.0</ele><time>2026-04-10T13:42:27Z</time></trkpt><trkpt lat="39.386736237967625" lon="8.450574582429347"><ele>427.0</ele><time>2026-04-10T13:42:28Z</time></trkpt><trkpt lat="39.38667810784168" lon="8.450527554481427"><ele>427.0</ele><time>2026-04-10T13:42:29Z</time></trkpt><trkpt lat="39.38662179385549" lon="8.450489482152003"><ele>427.00000000000006</ele><time>2026-04-10T13:42:30Z</time></trkpt><trkpt lat="39.386524759306845" lon="8.450474524844653"><ele>427.0</ele><time>2026-04-10T13:42:32Z</time></trkpt><trkpt lat="39.386453828889785" lon="8.450490936142504"><ele>427.00000000000006</ele><time>2026-04-10T13:42:33Z</time></trkpt><trkpt lat="39.386382799874596" lon="8.450505259885972"><ele>427.0</ele><time>2026-04-10T13:42:34Z</time></trkpt><trkpt lat="39.38631066907207" lon="8.450499541088437"><ele>427.0</ele><time>2026-04-10T13:42:35Z</time></trkpt><trkpt lat="39.3862444287534" lon="8.450458424877628"><ele>427.0</ele><time>2026-04-10T13:42:36Z</time></trkpt><trkpt lat="39.386193177478745" lon="8.45039225250853"><ele>427.00000000000006</ele><time>2026-04-10T13:42:37Z</time></trkpt><trkpt lat="39.38615990824545" lon="8.45026216186219"><ele>427.0</ele><time>2026-04-10T13:42:39Z</time></trkpt><trkpt lat="39.38616961798481" lon="8.450172384101293"><ele>429.00000000000006</ele><time>2026-04-10T13:42:40Z</time></trkpt><trkpt lat="39.38617888651434" lon="8.450079979864608"><ele>431.0</ele><time>2026-04-10T13:42:41Z</time></trkpt><trkpt lat="39.386186414689355" lon="8.449974098495225"><ele>433.0</ele><time>2026-04-10T13:42:42Z</time></trkpt><trkpt lat="39.386200762381975" lon="8.449862559520067"><ele>435.0</ele><time>2026-04-10T13:42:43Z</time></trkpt><trkpt lat="39.38622841671557" lon="8.449776129584738"><ele>437.00000000000006</ele><time>2026-04-10T13:42:44Z</time></trkpt><trkpt lat="39.38624953925261" lon="8.449684431680497"><ele>439.0</ele><time>2026-04-10T13:42:45Z</time></trkpt><trkpt lat="39.38625978756899" lon="8.449600118556416"><ele>439.00000000000006</ele><time>2026-04-10T13:42:46Z</time></trkpt><trkpt lat="39.386216638393066" lon="8.449500070393215"><ele>439.0</ele><time>2026-04-10T13:42:48Z</time></trkpt><trkpt lat="39.38615023967152" lon="8.449389280303233"><ele>439.0</ele><time>2026-04-10T13:42:50Z</time></trkpt><trkpt lat="39.386116635034014" lon="8.449304262051493"><ele>439.0</ele><time>2026-04-10T13:42:51Z</time></trkpt><trkpt lat="39.38608751259039" lon="8.449231242290892"><ele>439.00000000000006</ele><time>2026-04-10T13:42:52Z</time></trkpt><trkpt lat="39.386068421718484" lon="8.449103879555553"><ele>439.0</ele><time>2026-04-10T13:42:54Z</time></trkpt><trkpt lat="39.386094601977305" lon="8.448971372302108"><ele>439.0</ele><time>2026-04-10T13:42:56Z</time></trkpt><trkpt lat="39.38609198168422" lon="8.448866505953465"><ele>439.0</ele><time>2026-04-10T13:42:58Z</time></trkpt><trkpt lat="39.38612095602265" lon="8.448776415175336"><ele>439.0</ele><time>2026-04-10T13:43:00Z</time></trkpt><trkpt lat="39.38620588741451" lon="8.448736985947344"><ele>439.0</ele><time>2026-04-10T13:43:02Z</time></trkpt><trkpt lat="39.386301023465535" lon="8.448674806786823"><ele>439.0</ele><time>2026-04-10T13:43:04Z</time></trkpt><trkpt lat="39.38637539377561" lon="8.448581948240074"><ele>442.4</ele><time>2026-04-10T13:43:06Z</time></trkpt><trkpt lat="39.38643568818979" lon="8.448496058653516"><ele>445.79999999999995</ele><time>2026-04-10T13:43:08Z</time></trkpt><trkpt lat="39.386550382672894" lon="8.448462151710192"><ele>449.20000000000005</ele><time>2026-04-10T13:43:10Z</time></trkpt><trkpt lat="39.38667424775629" lon="8.448431954898867"><ele>452.6</ele><time>2026-04-10T13:43:12Z</time></trkpt><trkpt lat="39.386744210325375" lon="8.448362166011488"><ele>456.0</ele><time>2026-04-10T13:43:13Z</time></trkpt><trkpt lat="39.38684921991527" lon="8.448357441883713"><ele>456.0</ele><time>2026-04-10T13:43:15Z</time></trkpt><trkpt lat="39.386961914748206" lon="8.448320242768077"><ele>456.0</ele><time>2026-04-10T13:43:17Z</time></trkpt><trkpt lat="39.38708616423265" lon="8.448305418428097"><ele>456.0</ele><time>2026-04-10T13:43:19Z</time></trkpt><trkpt lat="39.38720833386202" lon="8.448318600238036"><ele>456.0</ele><time>2026-04-10T13:43:21Z</time></trkpt><trkpt lat="39.387320598038684" lon="8.448357430558264"><ele>457.8</ele><time>2026-04-10T13:43:23Z</time></trkpt><trkpt lat="39.38739078419421" lon="8.448392527954141"><ele>459.6</ele><time>2026-04-10T13:43:24Z</time></trkpt><trkpt lat="39.38746286502179" lon="8.448411814640497"><ele>461.4</ele><time>2026-04-10T13:43:25Z</time></trkpt><trkpt lat="39.387568598037625" lon="8.448416475517725"><ele>463.2</ele><time>2026-04-10T13:43:27Z</time></trkpt><trkpt lat="39.38770853439031" lon="8.448345736917618"><ele>465.0</ele><time>2026-04-10T13:43:29Z</time></trkpt><trkpt lat="39.38777785666888" lon="8.44830751967602"><ele>465.0</ele><time>2026-04-10T13:43:30Z</time></trkpt><trkpt lat="39.3878585380447" lon="8.448264918428503"><ele>465.0</ele><time>2026-04-10T13:43:31Z</time></trkpt><trkpt lat="39.3879478222817" lon="8.448236839697524"><ele>465.0</ele><time>2026-04-10T13:43:32Z</time></trkpt><trkpt lat="39.388025717090215" lon="8.448188165315113"><ele>465.0</ele><time>2026-04-10T13:43:33Z</time></trkpt><trkpt lat="39.38809351467857" lon="8.4481316130829"><ele>465.0</ele><time>2026-04-10T13:43:34Z</time></trkpt><trkpt lat="39.38816342205429" lon="8.448074398478632"><ele>465.0</ele><time>2026-04-10T13:43:35Z</time></trkpt><trkpt lat="39.388231281565346" lon="8.448024528501294"><ele>464.0</ele><time>2026-04-10T13:43:36Z</time></trkpt><trkpt lat="39.38828860875215" lon="8.447965582233861"><ele>463.0</ele><time>2026-04-10T13:43:37Z</time></trkpt><trkpt lat="39.388348311340046" lon="8.447902510695904"><ele>462.0</ele><time>2026-04-10T13:43:38Z</time></trkpt><trkpt lat="39.38840875435163" lon="8.447848944660814"><ele>461.0</ele><time>2026-04-10T13:43:39Z</time></trkpt><trkpt lat="39.3884709845703" lon="8.447804216935314"><ele>460.0</ele><time>2026-04-10T13:43:40Z</time></trkpt><trkpt lat="39.38853841389547" lon="8.447770918672258"><ele>459.0</ele><time>2026-04-10T13:43:41Z</time></trkpt><trkpt lat="39.388599851859155" lon="8.44775042743765"><ele>458.0</ele><time>2026-04-10T13:43:42Z</time></trkpt><trkpt lat="39.38866157371456" lon="8.447722666103383"><ele>462.99999999999994</ele><time>2026-04-10T13:43:43Z</time></trkpt><trkpt lat="39.38878674167235" lon="8.447677967895206"><ele>468.0</ele><time>2026-04-10T13:43:45Z</time></trkpt><trkpt lat="39.388853413030205" lon="8.447653098229537"><ele>473.0</ele><time>2026-04-10T13:43:46Z</time></trkpt><trkpt lat="39.38892908012756" lon="8.447636878158853"><ele>478.0</ele><time>2026-04-10T13:43:47Z</time></trkpt><trkpt lat="39.38899259780353" lon="8.447623961580659"><ele>482.99999999999994</ele><time>2026-04-10T13:43:48Z</time></trkpt><trkpt lat="39.38907038190804" lon="8.447631820833077"><ele>488.0</ele><time>2026-04-10T13:43:50Z</time></trkpt><trkpt lat="39.38913538286163" lon="8.447664374263118"><ele>487.99999999999994</ele><time>2026-04-10T13:43:52Z</time></trkpt><trkpt lat="39.3892019172518" lon="8.447672533837759"><ele>488.0</ele><time>2026-04-10T13:43:54Z</time></trkpt><trkpt lat="39.38930552406423" lon="8.447641192232494"><ele>488.0</ele><time>2026-04-10T13:43:56Z</time></trkpt><trkpt lat="39.38937201413885" lon="8.447611494783457"><ele>488.0</ele><time>2026-04-10T13:43:57Z</time></trkpt><trkpt lat="39.38943704726728" lon="8.447581305711994"><ele>487.99999999999994</ele><time>2026-04-10T13:43:58Z</time></trkpt><trkpt lat="39.38949858013608" lon="8.447558132541026"><ele>488.0</ele><time>2026-04-10T13:43:59Z</time></trkpt><trkpt lat="39.38962472629817" lon="8.447555885769702"><ele>490.4</ele><time>2026-04-10T13:44:01Z</time></trkpt><trkpt lat="39.38975145950293" lon="8.447592561727598"><ele>492.79999999999995</ele><time>2026-04-10T13:44:03Z</time></trkpt><trkpt lat="39.389822041084756" lon="8.447608478966222"><ele>495.2</ele><time>2026-04-10T13:44:04Z</time></trkpt><trkpt lat="39.38988591617345" lon="8.44762300708109"><ele>497.6</ele><time>2026-04-10T13:44:05Z</time></trkpt><trkpt lat="39.38995887413617" lon="8.447655469755086"><ele>500.0</ele><time>2026-04-10T13:44:06Z</time></trkpt><trkpt lat="39.39006641070081" lon="8.447706201625378"><ele>499.99999999999994</ele><time>2026-04-10T13:44:08Z</time></trkpt><trkpt lat="39.39017355919546" lon="8.447771777508095"><ele>500.0</ele><time>2026-04-10T13:44:10Z</time></trkpt><trkpt lat="39.39023971094467" lon="8.447791905111103"><ele>500.0</ele><time>2026-04-10T13:44:11Z</time></trkpt><trkpt lat="39.39031742527061" lon="8.447799721133538"><ele>500.0</ele><time>2026-04-10T13:44:12Z</time></trkpt><trkpt lat="39.39038131323814" lon="8.447791801451915"><ele>499.99999999999994</ele><time>2026-04-10T13:44:13Z</time></trkpt><trkpt lat="39.39044336239577" lon="8.447764628497165"><ele>500.0</ele><time>2026-04-10T13:44:14Z</time></trkpt><trkpt lat="39.39049320262115" lon="8.447694090610847"><ele>500.8</ele><time>2026-04-10T13:44:15Z</time></trkpt><trkpt lat="39.39054890673647" lon="8.447611520562369"><ele>501.6</ele><time>2026-04-10T13:44:16Z</time></trkpt><trkpt lat="39.39061587373868" lon="8.447580734633165"><ele>502.4</ele><time>2026-04-10T13:44:17Z</time></trkpt><trkpt lat="39.39071562864831" lon="8.447553942159958"><ele>503.2</ele><time>2026-04-10T13:44:18Z</time></trkpt><trkpt lat="39.390837730377356" lon="8.447526747100271"><ele>504.0</ele><time>2026-04-10T13:44:19Z</time></trkpt><trkpt lat="39.39095240390837" lon="8.447488282192017"><ele>504.0</ele><time>2026-04-10T13:44:20Z</time></trkpt><trkpt lat="39.39104916168863" lon="8.447453374240874"><ele>504.0</ele><time>2026-04-10T13:44:21Z</time></trkpt><trkpt lat="39.3911504164849" lon="8.447407442959292"><ele>504.0</ele><time>2026-04-10T13:44:22Z</time></trkpt><trkpt lat="39.39125660681055" lon="8.447338670664658"><ele>504.0</ele><time>2026-04-10T13:44:23Z</time></trkpt><trkpt lat="39.39135691571927" lon="8.447274524529384"><ele>504.0</ele><time>2026-04-10T13:44:24Z</time></trkpt><trkpt lat="39.391452467453725" lon="8.447212280213346"><ele>506.0</ele><time>2026-04-10T13:44:25Z</time></trkpt><trkpt lat="39.391533058511904" lon="8.447156800534678"><ele>508.0</ele><time>2026-04-10T13:44:26Z</time></trkpt><trkpt lat="39.391607467572584" lon="8.447115928000256"><ele>510.0</ele><time>2026-04-10T13:44:27Z</time></trkpt><trkpt lat="39.39168504724949" lon="8.447072053068965"><ele>512.0</ele><time>2026-04-10T13:44:28Z</time></trkpt><trkpt lat="39.391763051950015" lon="8.44703693809373"><ele>514.0</ele><time>2026-04-10T13:44:29Z</time></trkpt><trkpt lat="39.391841448058074" lon="8.447004906695147"><ele>516.0</ele><time>2026-04-10T13:44:30Z</time></trkpt><trkpt lat="39.39191766956455" lon="8.44697259117658"><ele>516.0</ele><time>2026-04-10T13:44:31Z</time></trkpt><trkpt lat="39.39198469027464" lon="8.446946189501807"><ele>516.0</ele><time>2026-04-10T13:44:32Z</time></trkpt><trkpt lat="39.39205685120535" lon="8.446914019694445"><ele>516.0</ele><time>2026-04-10T13:44:33Z</time></trkpt><trkpt lat="39.39213155121331" lon="8.446882385553197"><ele>516.0</ele><time>2026-04-10T13:44:34Z</time></trkpt><trkpt lat="39.392197254042145" lon="8.446844344475668"><ele>516.0</ele><time>2026-04-10T13:44:35Z</time></trkpt><trkpt lat="39.392271900384046" lon="8.446807310920573"><ele>516.0</ele><time>2026-04-10T13:44:36Z</time></trkpt><trkpt lat="39.39236048188711" lon="8.446757652614645"><ele>512.3333333333334</ele><time>2026-04-10T13:44:37Z</time></trkpt><trkpt lat="39.392452480003556" lon="8.446709472682024"><ele>508.66666666666663</ele><time>2026-04-10T13:44:38Z</time></trkpt><trkpt lat="39.39255193826246" lon="8.44665557449583"><ele>505.0</ele><time>2026-04-10T13:44:39Z</time></trkpt><trkpt lat="39.39262310347619" lon="8.446606016834101"><ele>501.3333333333333</ele><time>2026-04-10T13:44:40Z</time></trkpt><trkpt lat="39.392684737258165" lon="8.446561587925823"><ele>497.66666666666663</ele><time>2026-04-10T13:44:41Z</time></trkpt><trkpt lat="39.392748918413744" lon="8.4465148294606"><ele>494.0</ele><time>2026-04-10T13:44:42Z</time></trkpt><trkpt lat="39.39282966545768" lon="8.446460947931483"><ele>494.0</ele><time>2026-04-10T13:44:43Z</time></trkpt><trkpt lat="39.392934405421045" lon="8.446391280868577"><ele>494.0</ele><time>2026-04-10T13:44:44Z</time></trkpt><trkpt lat="39.39302594853216" lon="8.446335774957713"><ele>494.0</ele><time>2026-04-10T13:44:45Z</time></trkpt><trkpt lat="39.393116779805815" lon="8.446296582436466"><ele>494.0</ele><time>2026-04-10T13:44:46Z</time></trkpt><trkpt lat="39.39321467485771" lon="8.446255661223066"><ele>494.0</ele><time>2026-04-10T13:44:47Z</time></trkpt><trkpt lat="39.39330776633914" lon="8.446230274180259"><ele>493.6</ele><time>2026-04-10T13:44:48Z</time></trkpt><trkpt lat="39.393397551967034" lon="8.446230376380436"><ele>493.2</ele><time>2026-04-10T13:44:49Z</time></trkpt><trkpt lat="39.39350093729754" lon="8.446254603429992"><ele>492.80000000000007</ele><time>2026-04-10T13:44:50Z</time></trkpt><trkpt lat="39.39362022957879" lon="8.446301038389084"><ele>492.40000000000003</ele><time>2026-04-10T13:44:51Z</time></trkpt><trkpt lat="39.39372893260896" lon="8.446323822038755"><ele>492.0</ele><time>2026-04-10T13:44:52Z</time></trkpt><trkpt lat="39.39383828113002" lon="8.44634483636265"><ele>494.40000000000003</ele><time>2026-04-10T13:44:53Z</time></trkpt><trkpt lat="39.393930052997725" lon="8.446370822541166"><ele>496.80000000000007</ele><time>2026-04-10T13:44:54Z</time></trkpt><trkpt lat="39.39402489263061" lon="8.446404690294667"><ele>499.2</ele><time>2026-04-10T13:44:55Z</time></trkpt><trkpt lat="39.39412752985225" lon="8.44644120481182"><ele>501.6</ele><time>2026-04-10T13:44:56Z</time></trkpt><trkpt lat="39.39422483487843" lon="8.446461911332834"><ele>504.0</ele><time>2026-04-10T13:44:57Z</time></trkpt><trkpt lat="39.394335556267954" lon="8.446482030494423"><ele>504.0</ele><time>2026-04-10T13:44:58Z</time></trkpt><trkpt lat="39.39443864479262" lon="8.446495836425257"><ele>504.0</ele><time>2026-04-10T13:44:59Z</time></trkpt><trkpt lat="39.39453754782176" lon="8.446515982317855"><ele>504.0</ele><time>2026-04-10T13:45:00Z</time></trkpt><trkpt lat="39.39461146929819" lon="8.446537140079021"><ele>504.0</ele><time>2026-04-10T13:45:01Z</time></trkpt><trkpt lat="39.394690919582864" lon="8.4465467371571"><ele>504.0</ele><time>2026-04-10T13:45:02Z</time></trkpt><trkpt lat="39.39476374481967" lon="8.446531646230213"><ele>504.0</ele><time>2026-04-10T13:45:03Z</time></trkpt><trkpt lat="39.39483864042609" lon="8.446479870610005"><ele>504.5</ele><time>2026-04-10T13:45:04Z</time></trkpt><trkpt lat="39.39490250946852" lon="8.446424853829246"><ele>505.0</ele><time>2026-04-10T13:45:05Z</time></trkpt><trkpt lat="39.39497895314238" lon="8.446378599482241"><ele>505.5</ele><time>2026-04-10T13:45:06Z</time></trkpt><trkpt lat="39.395089867279864" lon="8.446335426064442"><ele>506.0</ele><time>2026-04-10T13:45:07Z</time></trkpt><trkpt lat="39.39517294650524" lon="8.446285801677568"><ele>506.5</ele><time>2026-04-10T13:45:08Z</time></trkpt><trkpt lat="39.39523010394483" lon="8.446213475856332"><ele>507.0</ele><time>2026-04-10T13:45:09Z</time></trkpt><trkpt lat="39.39527527175923" lon="8.446128152825997"><ele>507.0</ele><time>2026-04-10T13:45:10Z</time></trkpt><trkpt lat="39.395315202077654" lon="8.446031704823143"><ele>507.0</ele><time>2026-04-10T13:45:11Z</time></trkpt><trkpt lat="39.3953509412333" lon="8.445946491793727"><ele>507.0</ele><time>2026-04-10T13:45:12Z</time></trkpt><trkpt lat="39.395395566625886" lon="8.445856221882392"><ele>507.0</ele><time>2026-04-10T13:45:13Z</time></trkpt><trkpt lat="39.39543135999516" lon="8.445757032554953"><ele>507.0</ele><time>2026-04-10T13:45:14Z</time></trkpt><trkpt lat="39.39546319215665" lon="8.445664852984667"><ele>507.0</ele><time>2026-04-10T13:45:15Z</time></trkpt><trkpt lat="39.39551235398726" lon="8.445574840102047"><ele>510.1666666666667</ele><time>2026-04-10T13:45:16Z</time></trkpt><trkpt lat="39.39554435422447" lon="8.445495168863298"><ele>513.3333333333334</ele><time>2026-04-10T13:45:17Z</time></trkpt><trkpt lat="39.395571240670535" lon="8.445404958537036"><ele>516.5</ele><time>2026-04-10T13:45:18Z</time></trkpt><trkpt lat="39.39563320518574" lon="8.445286905606125"><ele>519.6666666666667</ele><time>2026-04-10T13:45:20Z</time></trkpt><trkpt lat="39.395675204284345" lon="8.445197527293168"><ele>522.8333333333334</ele><time>2026-04-10T13:45:21Z</time></trkpt><trkpt lat="39.39570993594977" lon="8.445103977973108"><ele>526.0</ele><time>2026-04-10T13:45:22Z</time></trkpt><trkpt lat="39.3957484819831" lon="8.44500363886713"><ele>526.0</ele><time>2026-04-10T13:45:23Z</time></trkpt><trkpt lat="39.39578484204975" lon="8.444908986119623"><ele>526.0</ele><time>2026-04-10T13:45:24Z</time></trkpt><trkpt lat="39.39582626791663" lon="8.444806929541993"><ele>526.0</ele><time>2026-04-10T13:45:25Z</time></trkpt><trkpt lat="39.39587071498702" lon="8.444703667220818"><ele>526.0</ele><time>2026-04-10T13:45:26Z</time></trkpt><trkpt lat="39.39592139893055" lon="8.444592287896356"><ele>526.0</ele><time>2026-04-10T13:45:27Z</time></trkpt><trkpt lat="39.39597166233665" lon="8.444484213644559"><ele>523.8</ele><time>2026-04-10T13:45:28Z</time></trkpt><trkpt lat="39.396020480699725" lon="8.444376898330797"><ele>521.6</ele><time>2026-04-10T13:45:29Z</time></trkpt><trkpt lat="39.39607650196415" lon="8.444275428154029"><ele>519.4</ele><time>2026-04-10T13:45:30Z</time></trkpt><trkpt lat="39.39614899978485" lon="8.444183699603132"><ele>517.2</ele><time>2026-04-10T13:45:31Z</time></trkpt><trkpt lat="39.39622436902405" lon="8.444087671363006"><ele>515.0</ele><time>2026-04-10T13:45:32Z</time></trkpt><trkpt lat="39.39629525616798" lon="8.443988708667392"><ele>515.8333333333333</ele><time>2026-04-10T13:45:33Z</time></trkpt><trkpt lat="39.39636248074304" lon="8.443895236671274"><ele>516.6666666666666</ele><time>2026-04-10T13:45:34Z</time></trkpt><trkpt lat="39.396426832181156" lon="8.443821719138972"><ele>517.5</ele><time>2026-04-10T13:45:35Z</time></trkpt><trkpt lat="39.396496865358735" lon="8.443756858892035"><ele>518.3333333333334</ele><time>2026-04-10T13:45:36Z</time></trkpt><trkpt lat="39.39657335324011" lon="8.443715158038733"><ele>519.1666666666667</ele><time>2026-04-10T13:45:37Z</time></trkpt><trkpt lat="39.39665175227358" lon="8.44367560125302"><ele>520.0</ele><time>2026-04-10T13:45:38Z</time></trkpt><trkpt lat="39.39673511321026" lon="8.443612797118984"><ele>520.0</ele><time>2026-04-10T13:45:39Z</time></trkpt><trkpt lat="39.396809375712884" lon="8.443554884390371"><ele>520.0</ele><time>2026-04-10T13:45:40Z</time></trkpt><trkpt lat="39.39687984332646" lon="8.443506877480457"><ele>520.0</ele><time>2026-04-10T13:45:41Z</time></trkpt><trkpt lat="39.39693980516233" lon="8.443461778306203"><ele>520.0</ele><time>2026-04-10T13:45:42Z</time></trkpt><trkpt lat="39.3970019753484" lon="8.443399364933402"><ele>520.0</ele><time>2026-04-10T13:45:43Z</time></trkpt><trkpt lat="39.3970798434933" lon="8.443350380798167"><ele>520.0</ele><time>2026-04-10T13:45:44Z</time></trkpt><trkpt lat="39.39717187028332" lon="8.443331704410642"><ele>520.4</ele><time>2026-04-10T13:45:45Z</time></trkpt><trkpt lat="39.39727484244823" lon="8.443317393419495"><ele>520.8</ele><time>2026-04-10T13:45:46Z</time></trkpt><trkpt lat="39.39738559402935" lon="8.443295334181702"><ele>521.2</ele><time>2026-04-10T13:45:47Z</time></trkpt><trkpt lat="39.39750154668293" lon="8.443267805993857"><ele>521.6</ele><time>2026-04-10T13:45:48Z</time></trkpt><trkpt lat="39.39761412782764" lon="8.443240996589704"><ele>522.0</ele><time>2026-04-10T13:45:49Z</time></trkpt><trkpt lat="39.39772160776344" lon="8.443206827816217"><ele>522.0</ele><time>2026-04-10T13:45:50Z</time></trkpt><trkpt lat="39.39784559090227" lon="8.4431652174167"><ele>522.0</ele><time>2026-04-10T13:45:51Z</time></trkpt><trkpt lat="39.397977994063176" lon="8.44312853544289"><ele>522.0</ele><time>2026-04-10T13:45:52Z</time></trkpt><trkpt lat="39.398109561222476" lon="8.443080647893758"><ele>522.0</ele><time>2026-04-10T13:45:53Z</time></trkpt><trkpt lat="39.398225447956605" lon="8.44303631273854"><ele>522.8000000000001</ele><time>2026-04-10T13:45:54Z</time></trkpt><trkpt lat="39.398327296365146" lon="8.443003544966194"><ele>523.6</ele><time>2026-04-10T13:45:55Z</time></trkpt><trkpt lat="39.398427460435606" lon="8.442984640826959"><ele>524.4000000000001</ele><time>2026-04-10T13:45:56Z</time></trkpt><trkpt lat="39.39852520231167" lon="8.442965148371384"><ele>525.2</ele><time>2026-04-10T13:45:57Z</time></trkpt><trkpt lat="39.398644788631564" lon="8.442954605704388"><ele>526.0</ele><time>2026-04-10T13:45:58Z</time></trkpt><trkpt lat="39.39875956243972" lon="8.442942271823506"><ele>520.25</ele><time>2026-04-10T13:45:59Z</time></trkpt><trkpt lat="39.39885693512209" lon="8.442920128853634"><ele>514.5</ele><time>2026-04-10T13:46:00Z</time></trkpt><trkpt lat="39.398953790190994" lon="8.442877706177885"><ele>508.75</ele><time>2026-04-10T13:46:01Z</time></trkpt><trkpt lat="39.39907819986061" lon="8.442817013213663"><ele>503.0</ele><time>2026-04-10T13:46:02Z</time></trkpt><trkpt lat="39.399211809675535" lon="8.442755307385177"><ele>503.0</ele><time>2026-04-10T13:46:03Z</time></trkpt><trkpt lat="39.39932435484754" lon="8.442694466034261"><ele>502.99999999999994</ele><time>2026-04-10T13:46:04Z</time></trkpt><trkpt lat="39.39942368212368" lon="8.442642967594468"><ele>502.99999999999994</ele><time>2026-04-10T13:46:05Z</time></trkpt><trkpt lat="39.39951748575858" lon="8.442600163547356"><ele>503.0</ele><time>2026-04-10T13:46:06Z</time></trkpt><trkpt lat="39.39961225549657" lon="8.442569395270827"><ele>503.0</ele><time>2026-04-10T13:46:07Z</time></trkpt><trkpt lat="39.399709834790436" lon="8.442544891172187"><ele>504.0</ele><time>2026-04-10T13:46:08Z</time></trkpt><trkpt lat="39.39983973767995" lon="8.442509195469242"><ele>505.0</ele><time>2026-04-10T13:46:09Z</time></trkpt><trkpt lat="39.39996702414946" lon="8.442463113727788"><ele>506.0</ele><time>2026-04-10T13:46:10Z</time></trkpt><trkpt lat="39.40006792001752" lon="8.442435893454297"><ele>507.0</ele><time>2026-04-10T13:46:11Z</time></trkpt><trkpt lat="39.400150775762484" lon="8.442415329180715"><ele>507.0</ele><time>2026-04-10T13:46:12Z</time></trkpt><trkpt lat="39.40025270722197" lon="8.442392157699512"><ele>507.00000000000006</ele><time>2026-04-10T13:46:13Z</time></trkpt><trkpt lat="39.40036786834503" lon="8.442363321490964"><ele>507.00000000000006</ele><time>2026-04-10T13:46:14Z</time></trkpt><trkpt lat="39.40047148296472" lon="8.442343373942707"><ele>507.0</ele><time>2026-04-10T13:46:15Z</time></trkpt><trkpt lat="39.40057780121802" lon="8.442325472390335"><ele>507.0</ele><time>2026-04-10T13:46:16Z</time></trkpt><trkpt lat="39.40067949399156" lon="8.442305756104416"><ele>508.25</ele><time>2026-04-10T13:46:17Z</time></trkpt><trkpt lat="39.40076555208615" lon="8.442295427027231"><ele>509.5</ele><time>2026-04-10T13:46:18Z</time></trkpt><trkpt lat="39.400868370366744" lon="8.442262517734273"><ele>510.75</ele><time>2026-04-10T13:46:19Z</time></trkpt><trkpt lat="39.400994953201845" lon="8.442198642146428"><ele>512.0</ele><time>2026-04-10T13:46:20Z</time></trkpt><trkpt lat="39.40110903868475" lon="8.442122891618517"><ele>510.66666666666663</ele><time>2026-04-10T13:46:21Z</time></trkpt><trkpt lat="39.40120317338666" lon="8.442069541828413"><ele>509.3333333333333</ele><time>2026-04-10T13:46:22Z</time></trkpt><trkpt lat="39.40128245596774" lon="8.442031568691146"><ele>508.0</ele><time>2026-04-10T13:46:23Z</time></trkpt><trkpt lat="39.40135106679566" lon="8.442006400998938"><ele>506.66666666666663</ele><time>2026-04-10T13:46:24Z</time></trkpt><trkpt lat="39.40141945373898" lon="8.441991861573767"><ele>505.3333333333333</ele><time>2026-04-10T13:46:25Z</time></trkpt><trkpt lat="39.40150576653824" lon="8.441976648651146"><ele>504.0</ele><time>2026-04-10T13:46:27Z</time></trkpt><trkpt lat="39.40161208375865" lon="8.441992240369684"><ele>504.0</ele><time>2026-04-10T13:46:29Z</time></trkpt><trkpt lat="39.401718655849294" lon="8.44205269277777"><ele>504.0</ele><time>2026-04-10T13:46:31Z</time></trkpt><trkpt lat="39.4018234261426" lon="8.442095371694002"><ele>504.0</ele><time>2026-04-10T13:46:33Z</time></trkpt><trkpt lat="39.40193497345946" lon="8.442119745399522"><ele>504.0</ele><time>2026-04-10T13:46:35Z</time></trkpt><trkpt lat="39.401987955032965" lon="8.442164478597126"><ele>504.0</ele><time>2026-04-10T13:46:36Z</time></trkpt><trkpt lat="39.402061270797326" lon="8.442224557195068"><ele>504.1428571428571</ele><time>2026-04-10T13:46:37Z</time></trkpt><trkpt lat="39.402142701950325" lon="8.442284160639165"><ele>504.2857142857143</ele><time>2026-04-10T13:46:38Z</time></trkpt><trkpt lat="39.402217876475824" lon="8.442331268958588"><ele>504.42857142857144</ele><time>2026-04-10T13:46:39Z</time></trkpt><trkpt lat="39.4022882276317" lon="8.442355646362968"><ele>504.57142857142856</ele><time>2026-04-10T13:46:40Z</time></trkpt><trkpt lat="39.40235553147109" lon="8.44234433560196"><ele>504.71428571428567</ele><time>2026-04-10T13:46:41Z</time></trkpt><trkpt lat="39.402409865658385" lon="8.442298226937972"><ele>504.85714285714283</ele><time>2026-04-10T13:46:42Z</time></trkpt><trkpt lat="39.402450768004876" lon="8.442233861142013"><ele>505.0</ele><time>2026-04-10T13:46:43Z</time></trkpt><trkpt lat="39.40248886571362" lon="8.442163161334523"><ele>503.50000000000006</ele><time>2026-04-10T13:46:44Z</time></trkpt><trkpt lat="39.40251552891523" lon="8.442072171814596"><ele>502.0</ele><time>2026-04-10T13:46:45Z</time></trkpt><trkpt lat="39.402537414804215" lon="8.441928441846775"><ele>500.5</ele><time>2026-04-10T13:46:46Z</time></trkpt><trkpt lat="39.40254642591256" lon="8.441813984100794"><ele>499.0</ele><time>2026-04-10T13:46:47Z</time></trkpt><trkpt lat="39.40255869210509" lon="8.441718766688862"><ele>497.50000000000006</ele><time>2026-04-10T13:46:48Z</time></trkpt><trkpt lat="39.402571717040416" lon="8.441627180689416"><ele>496.0</ele><time>2026-04-10T13:46:49Z</time></trkpt><trkpt lat="39.40259297735421" lon="8.441531402953355"><ele>496.0</ele><time>2026-04-10T13:46:50Z</time></trkpt><trkpt lat="39.40262481651829" lon="8.441420609885759"><ele>496.0</ele><time>2026-04-10T13:46:51Z</time></trkpt><trkpt lat="39.40263529408998" lon="8.44131282715156"><ele>496.0</ele><time>2026-04-10T13:46:52Z</time></trkpt><trkpt lat="39.40265957952784" lon="8.441193432858395"><ele>496.0</ele><time>2026-04-10T13:46:53Z</time></trkpt><trkpt lat="39.4026934491353" lon="8.441070032898011"><ele>496.0</ele><time>2026-04-10T13:46:54Z</time></trkpt><trkpt lat="39.402729647611494" lon="8.440961451572834"><ele>495.6666666666667</ele><time>2026-04-10T13:46:55Z</time></trkpt><trkpt lat="39.40276884183433" lon="8.440865152140852"><ele>495.33333333333337</ele><time>2026-04-10T13:46:56Z</time></trkpt><trkpt lat="39.40280573924272" lon="8.440763682564564"><ele>495.0</ele><time>2026-04-10T13:46:57Z</time></trkpt><trkpt lat="39.4028412121483" lon="8.440649539060106"><ele>494.66666666666663</ele><time>2026-04-10T13:46:58Z</time></trkpt><trkpt lat="39.40285821563529" lon="8.440551921305698"><ele>494.3333333333333</ele><time>2026-04-10T13:46:59Z</time></trkpt><trkpt lat="39.402879296244535" lon="8.440445645400649"><ele>494.0</ele><time>2026-04-10T13:47:00Z</time></trkpt><trkpt lat="39.402916882045595" lon="8.440341696485886"><ele>493.16666666666663</ele><time>2026-04-10T13:47:01Z</time></trkpt><trkpt lat="39.40296735353017" lon="8.44024665008247"><ele>492.3333333333333</ele><time>2026-04-10T13:47:02Z</time></trkpt><trkpt lat="39.40301239061777" lon="8.440174052956095"><ele>491.5</ele><time>2026-04-10T13:47:03Z</time></trkpt><trkpt lat="39.40306322177501" lon="8.440105037614849"><ele>490.66666666666663</ele><time>2026-04-10T13:47:04Z</time></trkpt><trkpt lat="39.40311021415817" lon="8.440005362496962"><ele>489.8333333333333</ele><time>2026-04-10T13:47:05Z</time></trkpt><trkpt lat="39.40314454283773" lon="8.43989474056096"><ele>489.0</ele><time>2026-04-10T13:47:06Z</time></trkpt><trkpt lat="39.40317305333661" lon="8.439774369589387"><ele>487.4</ele><time>2026-04-10T13:47:07Z</time></trkpt><trkpt lat="39.40320566239836" lon="8.439691317815303"><ele>485.79999999999995</ele><time>2026-04-10T13:47:08Z</time></trkpt><trkpt lat="39.40324833256506" lon="8.439628338063406"><ele>484.20000000000005</ele><time>2026-04-10T13:47:09Z</time></trkpt><trkpt lat="39.40334728744834" lon="8.4395664856842"><ele>482.6</ele><time>2026-04-10T13:47:11Z</time></trkpt><trkpt lat="39.40347660910556" lon="8.439580983916278"><ele>481.0</ele><time>2026-04-10T13:47:13Z</time></trkpt><trkpt lat="39.4035894704898" lon="8.439615202898398"><ele>481.0</ele><time>2026-04-10T13:47:14Z</time></trkpt><trkpt lat="39.40369452643494" lon="8.439666675382389"><ele>481.0</ele><time>2026-04-10T13:47:15Z</time></trkpt><trkpt lat="39.403799303136715" lon="8.439725650827356"><ele>481.0</ele><time>2026-04-10T13:47:16Z</time></trkpt><trkpt lat="39.403921005237834" lon="8.439788739324088"><ele>481.0</ele><time>2026-04-10T13:47:17Z</time></trkpt><trkpt lat="39.404032563463836" lon="8.439861387728948"><ele>479.83333333333337</ele><time>2026-04-10T13:47:18Z</time></trkpt><trkpt lat="39.40413067305323" lon="8.439929565765725"><ele>478.6666666666667</ele><time>2026-04-10T13:47:19Z</time></trkpt><trkpt lat="39.40420567183726" lon="8.439954186362563"><ele>477.5</ele><time>2026-04-10T13:47:20Z</time></trkpt><trkpt lat="39.4043100005535" lon="8.439897846634183"><ele>476.33333333333337</ele><time>2026-04-10T13:47:22Z</time></trkpt><trkpt lat="39.404327583261804" lon="8.439817281061057"><ele>475.1666666666667</ele><time>2026-04-10T13:47:23Z</time></trkpt><trkpt lat="39.40432854592234" lon="8.439709979800368"><ele>474.0</ele><time>2026-04-10T13:47:24Z</time></trkpt><trkpt lat="39.404317454675855" lon="8.439568883132184"><ele>472.8333333333333</ele><time>2026-04-10T13:47:25Z</time></trkpt><trkpt lat="39.40430269522383" lon="8.439439052276674"><ele>471.66666666666663</ele><time>2026-04-10T13:47:26Z</time></trkpt><trkpt lat="39.404297130483954" lon="8.439346097580493"><ele>470.5</ele><time>2026-04-10T13:47:27Z</time></trkpt><trkpt lat="39.4043307661294" lon="8.439274958067854"><ele>469.3333333333333</ele><time>2026-04-10T13:47:30Z</time></trkpt><trkpt lat="39.40443971153839" lon="8.439279748860988"><ele>468.16666666666663</ele><time>2026-04-10T13:56:44Z</time></trkpt><trkpt lat="39.40453584389631" lon="8.439273696068325"><ele>467.0</ele><time>2026-04-10T13:56:46Z</time></trkpt><trkpt lat="39.40460351108623" lon="8.43929632757201"><ele>466.99999999999994</ele><time>2026-04-10T13:56:47Z</time></trkpt><trkpt lat="39.40466181098268" lon="8.439331639367905"><ele>467.0</ele><time>2026-04-10T13:56:48Z</time></trkpt><trkpt lat="39.40470969807903" lon="8.439400486436831"><ele>467.0</ele><time>2026-04-10T13:56:49Z</time></trkpt><trkpt lat="39.404742699933244" lon="8.439477396306199"><ele>467.0</ele><time>2026-04-10T13:56:50Z</time></trkpt><trkpt lat="39.40480440439686" lon="8.43959569489112"><ele>466.99999999999994</ele><time>2026-04-10T13:56:51Z</time></trkpt><trkpt lat="39.40485699780677" lon="8.439711345098386"><ele>467.0</ele><time>2026-04-10T13:56:52Z</time></trkpt><trkpt lat="39.404922012405976" lon="8.439849599031813"><ele>468.25</ele><time>2026-04-10T13:56:53Z</time></trkpt><trkpt lat="39.4049951340253" lon="8.439992166515058"><ele>469.5</ele><time>2026-04-10T13:56:54Z</time></trkpt><trkpt lat="39.40507452578506" lon="8.44014082881896"><ele>470.75</ele><time>2026-04-10T13:56:55Z</time></trkpt><trkpt lat="39.405154368471145" lon="8.44029255991184"><ele>472.0</ele><time>2026-04-10T13:56:56Z</time></trkpt><trkpt lat="39.405235294200324" lon="8.440436774526178"><ele>473.0</ele><time>2026-04-10T13:56:57Z</time></trkpt><trkpt lat="39.40531078852715" lon="8.440570804786377"><ele>474.0</ele><time>2026-04-10T13:56:58Z</time></trkpt><trkpt lat="39.405387334995" lon="8.440684632768734"><ele>475.0</ele><time>2026-04-10T13:56:59Z</time></trkpt><trkpt lat="39.40547908337403" lon="8.440806531936587"><ele>476.0</ele><time>2026-04-10T13:57:00Z</time></trkpt><trkpt lat="39.40557891741874" lon="8.440918288961138"><ele>476.75</ele><time>2026-04-10T13:57:01Z</time></trkpt><trkpt lat="39.40566842787462" lon="8.441027293640001"><ele>477.5</ele><time>2026-04-10T13:57:02Z</time></trkpt><trkpt lat="39.40574896735903" lon="8.441164177561692"><ele>478.25</ele><time>2026-04-10T13:57:03Z</time></trkpt><trkpt lat="39.40582972630298" lon="8.441327996937929"><ele>479.0</ele><time>2026-04-10T13:57:04Z</time></trkpt><trkpt lat="39.405903504306224" lon="8.441469145450316"><ele>479.25</ele><time>2026-04-10T13:57:05Z</time></trkpt><trkpt lat="39.405975398063035" lon="8.441589831858817"><ele>479.5</ele><time>2026-04-10T13:57:06Z</time></trkpt><trkpt lat="39.406040023451624" lon="8.441718080641161"><ele>479.75</ele><time>2026-04-10T13:57:07Z</time></trkpt><trkpt lat="39.40612295099935" lon="8.441856628600148"><ele>480.0</ele><time>2026-04-10T13:57:08Z</time></trkpt><trkpt lat="39.40621667737546" lon="8.441988120635324"><ele>480.0</ele><time>2026-04-10T13:57:09Z</time></trkpt><trkpt lat="39.40630226482413" lon="8.44211723853637"><ele>480.0</ele><time>2026-04-10T13:57:10Z</time></trkpt><trkpt lat="39.406369008695705" lon="8.442242540949568"><ele>480.0</ele><time>2026-04-10T13:57:11Z</time></trkpt><trkpt lat="39.40640646423205" lon="8.44235599963673"><ele>480.0</ele><time>2026-04-10T13:57:12Z</time></trkpt><trkpt lat="39.40643943924317" lon="8.442512033860208"><ele>481.75</ele><time>2026-04-10T13:57:13Z</time></trkpt><trkpt lat="39.40647857216244" lon="8.442702199104223"><ele>483.5</ele><time>2026-04-10T13:57:14Z</time></trkpt><trkpt lat="39.406535323288466" lon="8.442867616718658"><ele>485.25</ele><time>2026-04-10T13:57:15Z</time></trkpt><trkpt lat="39.40659624950691" lon="8.44300396479866"><ele>487.0</ele><time>2026-04-10T13:57:16Z</time></trkpt><trkpt lat="39.40666761170808" lon="8.443133961807101"><ele>487.0</ele><time>2026-04-10T13:57:17Z</time></trkpt><trkpt lat="39.406740937316314" lon="8.443283634649184"><ele>487.0</ele><time>2026-04-10T13:57:18Z</time></trkpt><trkpt lat="39.40681155555891" lon="8.443441942487835"><ele>487.0</ele><time>2026-04-10T13:57:19Z</time></trkpt><trkpt lat="39.40687962284921" lon="8.443608470983765"><ele>487.0</ele><time>2026-04-10T13:57:20Z</time></trkpt><trkpt lat="39.40695030123568" lon="8.443769751019895"><ele>487.5</ele><time>2026-04-10T13:57:21Z</time></trkpt><trkpt lat="39.40702850122383" lon="8.443934256179778"><ele>488.0</ele><time>2026-04-10T13:57:22Z</time></trkpt><trkpt lat="39.40710684147431" lon="8.44408760305644"><ele>488.5</ele><time>2026-04-10T13:57:23Z</time></trkpt><trkpt lat="39.40718327209615" lon="8.444234911534641"><ele>489.0</ele><time>2026-04-10T13:57:24Z</time></trkpt><trkpt lat="39.40724954383863" lon="8.444363775756388"><ele>490.79999999999995</ele><time>2026-04-10T13:57:25Z</time></trkpt><trkpt lat="39.40730338906641" lon="8.444465624539342"><ele>492.59999999999997</ele><time>2026-04-10T13:57:26Z</time></trkpt><trkpt lat="39.4073768529705" lon="8.444547534941746"><ele>494.4</ele><time>2026-04-10T13:57:27Z</time></trkpt><trkpt lat="39.407466128078134" lon="8.444604222513824"><ele>496.2</ele><time>2026-04-10T13:57:28Z</time></trkpt><trkpt lat="39.40755795420975" lon="8.444677410434167"><ele>498.0</ele><time>2026-04-10T13:57:29Z</time></trkpt><trkpt lat="39.407651831237835" lon="8.444768047276519"><ele>498.2</ele><time>2026-04-10T13:57:30Z</time></trkpt><trkpt lat="39.4077462109039" lon="8.44485624062178"><ele>498.4</ele><time>2026-04-10T13:57:31Z</time></trkpt><trkpt lat="39.40781991352625" lon="8.444937799520993"><ele>498.59999999999997</ele><time>2026-04-10T13:57:32Z</time></trkpt><trkpt lat="39.407905198713785" lon="8.445020281062899"><ele>498.79999999999995</ele><time>2026-04-10T13:57:33Z</time></trkpt><trkpt lat="39.40798798023991" lon="8.445102810018362"><ele>499.0</ele><time>2026-04-10T13:57:34Z</time></trkpt><trkpt lat="39.40807885621999" lon="8.44517051687171"><ele>501.4</ele><time>2026-04-10T13:57:35Z</time></trkpt><trkpt lat="39.408160458580895" lon="8.445219280996426"><ele>503.79999999999995</ele><time>2026-04-10T13:57:36Z</time></trkpt><trkpt lat="39.40823686947538" lon="8.445255355371357"><ele>506.20000000000005</ele><time>2026-04-10T13:57:37Z</time></trkpt><trkpt lat="39.40832227516128" lon="8.44532366917826"><ele>508.6</ele><time>2026-04-10T13:57:38Z</time></trkpt><trkpt lat="39.40841068394032" lon="8.445397375864367"><ele>511.0</ele><time>2026-04-10T13:57:39Z</time></trkpt><trkpt lat="39.40850410695841" lon="8.445485103454363"><ele>511.25</ele><time>2026-04-10T13:57:40Z</time></trkpt><trkpt lat="39.40861884045478" lon="8.445585166151576"><ele>511.5</ele><time>2026-04-10T13:57:41Z</time></trkpt><trkpt lat="39.40871976579546" lon="8.445680313494904"><ele>511.75</ele><time>2026-04-10T13:57:42Z</time></trkpt><trkpt lat="39.40881345193095" lon="8.445761843129418"><ele>512.0</ele><time>2026-04-10T13:57:43Z</time></trkpt><trkpt lat="39.40889640846937" lon="8.445855837317026"><ele>513.0</ele><time>2026-04-10T13:57:44Z</time></trkpt><trkpt lat="39.40899128975512" lon="8.445964060326189"><ele>514.0</ele><time>2026-04-10T13:57:45Z</time></trkpt><trkpt lat="39.409084156377844" lon="8.446085699878338"><ele>515.0</ele><time>2026-04-10T13:57:46Z</time></trkpt><trkpt lat="39.409165562493364" lon="8.446194586040296"><ele>516.0</ele><time>2026-04-10T13:57:47Z</time></trkpt><trkpt lat="39.40923371355111" lon="8.446280817839465"><ele>515.6</ele><time>2026-04-10T13:57:48Z</time></trkpt><trkpt lat="39.40929273477286" lon="8.446355756253057"><ele>515.2</ele><time>2026-04-10T13:57:49Z</time></trkpt><trkpt lat="39.409330397077206" lon="8.446439158785681"><ele>514.8</ele><time>2026-04-10T13:57:50Z</time></trkpt><trkpt lat="39.40934806458223" lon="8.446527893880967"><ele>514.4</ele><time>2026-04-10T13:57:51Z</time></trkpt><trkpt lat="39.40935908957157" lon="8.44665737457765"><ele>514.0</ele><time>2026-04-10T13:57:52Z</time></trkpt><trkpt lat="39.409377479009606" lon="8.44681588023253"><ele>514.0</ele><time>2026-04-10T13:57:53Z</time></trkpt><trkpt lat="39.409404122671894" lon="8.446977437268238"><ele>514.0</ele><time>2026-04-10T13:57:54Z</time></trkpt><trkpt lat="39.409415033533485" lon="8.447120458848323"><ele>514.0</ele><time>2026-04-10T13:57:55Z</time></trkpt><trkpt lat="39.40941813445025" lon="8.447231236502734"><ele>514.0</ele><time>2026-04-10T13:57:56Z</time></trkpt><trkpt lat="39.40941145494444" lon="8.447348805693501"><ele>514.0</ele><time>2026-04-10T13:57:57Z</time></trkpt><trkpt lat="39.409409703875596" lon="8.447485579468628"><ele>515.0</ele><time>2026-04-10T13:57:58Z</time></trkpt><trkpt lat="39.40941573615719" lon="8.447623991815979"><ele>516.0</ele><time>2026-04-10T13:57:59Z</time></trkpt><trkpt lat="39.409434008066206" lon="8.44775670724399"><ele>517.0</ele><time>2026-04-10T13:58:00Z</time></trkpt><trkpt lat="39.409459589072966" lon="8.447886967239686"><ele>518.0</ele><time>2026-04-10T13:58:01Z</time></trkpt><trkpt lat="39.40947968879754" lon="8.44802365286026"><ele>519.0</ele><time>2026-04-10T13:58:02Z</time></trkpt><trkpt lat="39.40950245065939" lon="8.448155981537996"><ele>519.8</ele><time>2026-04-10T13:58:03Z</time></trkpt><trkpt lat="39.4095203851957" lon="8.448298808148941"><ele>520.5999999999999</ele><time>2026-04-10T13:58:04Z</time></trkpt><trkpt lat="39.409542822123115" lon="8.448429336134806"><ele>521.4</ele><time>2026-04-10T13:58:05Z</time></trkpt><trkpt lat="39.409556292609984" lon="8.44853327734017"><ele>522.1999999999999</ele><time>2026-04-10T13:58:06Z</time></trkpt><trkpt lat="39.409560861906876" lon="8.448639726916781"><ele>523.0</ele><time>2026-04-10T13:58:07Z</time></trkpt><trkpt lat="39.40958264049908" lon="8.448752045087701"><ele>523.0</ele><time>2026-04-10T13:58:08Z</time></trkpt><trkpt lat="39.409608866080916" lon="8.448875742872941"><ele>523.0</ele><time>2026-04-10T13:58:09Z</time></trkpt><trkpt lat="39.40962401223516" lon="8.44900547794903"><ele>523.0</ele><time>2026-04-10T13:58:10Z</time></trkpt><trkpt lat="39.40962846158573" lon="8.449141896531382"><ele>523.0</ele><time>2026-04-10T13:58:11Z</time></trkpt><trkpt lat="39.40962945266796" lon="8.449281073313793"><ele>523.0</ele><time>2026-04-10T13:58:12Z</time></trkpt><trkpt lat="39.40963952245561" lon="8.449389740189982"><ele>523.0</ele><time>2026-04-10T13:58:13Z</time></trkpt><trkpt lat="39.40964428988391" lon="8.44947470585976"><ele>523.0</ele><time>2026-04-10T13:58:14Z</time></trkpt><trkpt lat="39.40960859384423" lon="8.449585722027086"><ele>523.0</ele><time>2026-04-10T13:58:16Z</time></trkpt><trkpt lat="39.40950125739747" lon="8.449671577573875"><ele>523.0</ele><time>2026-04-10T13:58:18Z</time></trkpt><trkpt lat="39.40941664739176" lon="8.449702111748557"><ele>523.0</ele><time>2026-04-10T13:58:19Z</time></trkpt><trkpt lat="39.4093330810098" lon="8.449715370752969"><ele>523.6</ele><time>2026-04-10T13:58:20Z</time></trkpt><trkpt lat="39.409250388355154" lon="8.449704125205914"><ele>524.1999999999999</ele><time>2026-04-10T13:58:21Z</time></trkpt><trkpt lat="39.409160854339376" lon="8.449689399585372"><ele>524.8</ele><time>2026-04-10T13:58:22Z</time></trkpt><trkpt lat="39.40907466669604" lon="8.449702050919855"><ele>525.4</ele><time>2026-04-10T13:58:23Z</time></trkpt><trkpt lat="39.40897417398152" lon="8.449720775599188"><ele>526.0</ele><time>2026-04-10T13:58:24Z</time></trkpt><trkpt lat="39.40886968138629" lon="8.449757028671188"><ele>527.4</ele><time>2026-04-10T13:58:25Z</time></trkpt><trkpt lat="39.408768716184525" lon="8.449787074815664"><ele>528.8</ele><time>2026-04-10T13:58:26Z</time></trkpt><trkpt lat="39.408674132306025" lon="8.449822757769603"><ele>530.1999999999999</ele><time>2026-04-10T13:58:27Z</time></trkpt><trkpt lat="39.408592393510034" lon="8.449861293790049"><ele>531.6</ele><time>2026-04-10T13:58:28Z</time></trkpt><trkpt lat="39.40850649788511" lon="8.449891910775628"><ele>533.0</ele><time>2026-04-10T13:58:29Z</time></trkpt><trkpt lat="39.40842910299605" lon="8.449920686308156"><ele>533.0</ele><time>2026-04-10T13:58:30Z</time></trkpt><trkpt lat="39.40834125073321" lon="8.449964404091281"><ele>533.0</ele><time>2026-04-10T13:58:31Z</time></trkpt><trkpt lat="39.40828905023358" lon="8.45001621728381"><ele>533.0</ele><time>2026-04-10T13:58:32Z</time></trkpt><trkpt lat="39.40821193923035" lon="8.450096293187444"><ele>533.0</ele><time>2026-04-10T13:58:33Z</time></trkpt><trkpt lat="39.408124830982295" lon="8.450157723491067"><ele>533.0</ele><time>2026-04-10T13:58:34Z</time></trkpt><trkpt lat="39.40803305591187" lon="8.450206631569941"><ele>533.5</ele><time>2026-04-10T13:58:35Z</time></trkpt><trkpt lat="39.40794696608997" lon="8.450246512848269"><ele>534.0</ele><time>2026-04-10T13:58:36Z</time></trkpt><trkpt lat="39.40786322223129" lon="8.45028948141096"><ele>534.5</ele><time>2026-04-10T13:58:37Z</time></trkpt><trkpt lat="39.40777994947798" lon="8.450343376497127"><ele>535.0</ele><time>2026-04-10T13:58:38Z</time></trkpt><trkpt lat="39.4077090683201" lon="8.450388033270553"><ele>535.5</ele><time>2026-04-10T13:58:39Z</time></trkpt><trkpt lat="39.40765160472231" lon="8.450445057104222"><ele>536.0</ele><time>2026-04-10T13:58:40Z</time></trkpt><trkpt lat="39.407596182578345" lon="8.450509991296052"><ele>536.3333333333333</ele><time>2026-04-10T13:58:41Z</time></trkpt><trkpt lat="39.40755907572361" lon="8.450592272490486"><ele>536.6666666666666</ele><time>2026-04-10T13:58:42Z</time></trkpt><trkpt lat="39.407534745309405" lon="8.450692052399821"><ele>537.0</ele><time>2026-04-10T13:58:43Z</time></trkpt><trkpt lat="39.407507402874266" lon="8.450824344036297"><ele>537.3333333333334</ele><time>2026-04-10T13:58:44Z</time></trkpt><trkpt lat="39.40747597866231" lon="8.450935744687236"><ele>537.6666666666667</ele><time>2026-04-10T13:58:45Z</time></trkpt><trkpt lat="39.40744818758983" lon="8.451020655044081"><ele>538.0</ele><time>2026-04-10T13:58:46Z</time></trkpt><trkpt lat="39.407443750695705" lon="8.451110916425499"><ele>538.0</ele><time>2026-04-10T13:58:47Z</time></trkpt><trkpt lat="39.40741491757857" lon="8.451237623528076"><ele>538.0</ele><time>2026-04-10T13:58:48Z</time></trkpt><trkpt lat="39.40739064411093" lon="8.451337082141157"><ele>538.0</ele><time>2026-04-10T13:58:49Z</time></trkpt><trkpt lat="39.40737752185947" lon="8.451420532572671"><ele>538.0</ele><time>2026-04-10T13:58:50Z</time></trkpt><trkpt lat="39.407362482324366" lon="8.451518881616863"><ele>538.0</ele><time>2026-04-10T13:58:51Z</time></trkpt><trkpt lat="39.40734590965847" lon="8.451610744773937"><ele>538.0</ele><time>2026-04-10T13:58:52Z</time></trkpt><trkpt lat="39.40730874035517" lon="8.4517243127035"><ele>539.1999999999999</ele><time>2026-04-10T13:58:53Z</time></trkpt><trkpt lat="39.40728273205605" lon="8.45184957338242"><ele>540.4</ele><time>2026-04-10T13:58:54Z</time></trkpt><trkpt lat="39.407260287892235" lon="8.45193791003955"><ele>541.5999999999999</ele><time>2026-04-10T13:58:55Z</time></trkpt><trkpt lat="39.40723567025164" lon="8.452045088565878"><ele>542.8</ele><time>2026-04-10T13:58:56Z</time></trkpt><trkpt lat="39.40719929723491" lon="8.452179467721217"><ele>544.0</ele><time>2026-04-10T13:58:57Z</time></trkpt><trkpt lat="39.40716962227519" lon="8.45229185295154"><ele>544.4</ele><time>2026-04-10T13:58:58Z</time></trkpt><trkpt lat="39.40713644674358" lon="8.452397904513521"><ele>544.8</ele><time>2026-04-10T13:58:59Z</time></trkpt><trkpt lat="39.40709173006112" lon="8.452517114140903"><ele>545.2</ele><time>2026-04-10T13:59:00Z</time></trkpt><trkpt lat="39.40705378411001" lon="8.452633516449216"><ele>545.6</ele><time>2026-04-10T13:59:01Z</time></trkpt><trkpt lat="39.40702997532218" lon="8.452723636096858"><ele>546.0</ele><time>2026-04-10T13:59:02Z</time></trkpt><trkpt lat="39.406993280645985" lon="8.452851130788869"><ele>547.1666666666666</ele><time>2026-04-10T13:59:03Z</time></trkpt><trkpt lat="39.40694948121948" lon="8.452970929001532"><ele>548.3333333333334</ele><time>2026-04-10T13:59:04Z</time></trkpt><trkpt lat="39.40690521354782" lon="8.453056912368515"><ele>549.5</ele><time>2026-04-10T13:59:05Z</time></trkpt><trkpt lat="39.406846650693495" lon="8.453121422574316"><ele>550.6666666666667</ele><time>2026-04-10T13:59:06Z</time></trkpt><trkpt lat="39.406775481930126" lon="8.453167501526643"><ele>551.8333333333334</ele><time>2026-04-10T13:59:07Z</time></trkpt><trkpt lat="39.40667488764419" lon="8.453204901234017"><ele>553.0</ele><time>2026-04-10T13:59:08Z</time></trkpt><trkpt lat="39.40657305228618" lon="8.453217269831045"><ele>553.0</ele><time>2026-04-10T13:59:09Z</time></trkpt><trkpt lat="39.40648166727472" lon="8.453224788281505"><ele>553.0</ele><time>2026-04-10T13:59:10Z</time></trkpt><trkpt lat="39.4064146014899" lon="8.4532338749378"><ele>553.0</ele><time>2026-04-10T13:59:11Z</time></trkpt><trkpt lat="39.40635163597295" lon="8.45326566248306"><ele>553.0</ele><time>2026-04-10T13:59:12Z</time></trkpt><trkpt lat="39.40629064568923" lon="8.453308180784397"><ele>553.0</ele><time>2026-04-10T13:59:13Z</time></trkpt><trkpt lat="39.4062200303871" lon="8.453358497521341"><ele>553.0</ele><time>2026-04-10T13:59:14Z</time></trkpt><trkpt lat="39.40614746055649" lon="8.453433602397588"><ele>554.3333333333334</ele><time>2026-04-10T13:59:15Z</time></trkpt><trkpt lat="39.406098334439086" lon="8.45349775191097"><ele>555.6666666666667</ele><time>2026-04-10T13:59:16Z</time></trkpt><trkpt lat="39.406052358546745" lon="8.45357533890265"><ele>557.0</ele><time>2026-04-10T13:59:17Z</time></trkpt><trkpt lat="39.40599574389467" lon="8.453664625555858"><ele>558.3333333333334</ele><time>2026-04-10T13:59:18Z</time></trkpt><trkpt lat="39.405942335424456" lon="8.453749436067195"><ele>559.6666666666666</ele><time>2026-04-10T13:59:19Z</time></trkpt><trkpt lat="39.40589717032731" lon="8.453806737479736"><ele>561.0</ele><time>2026-04-10T13:59:20Z</time></trkpt><trkpt lat="39.40583153929742" lon="8.453972179292656"><ele>561.8333333333334</ele><time>2026-04-10T13:59:22Z</time></trkpt><trkpt lat="39.405828028188" lon="8.454063619735852"><ele>562.6666666666666</ele><time>2026-04-10T13:59:23Z</time></trkpt><trkpt lat="39.40583055447934" lon="8.454152513685614"><ele>563.5</ele><time>2026-04-10T13:59:24Z</time></trkpt><trkpt lat="39.40585178674801" lon="8.454235415949713"><ele>564.3333333333333</ele><time>2026-04-10T13:59:25Z</time></trkpt><trkpt lat="39.40592243881435" lon="8.454352350626188"><ele>565.1666666666666</ele><time>2026-04-10T13:59:27Z</time></trkpt><trkpt lat="39.40593962245809" lon="8.454503126783402"><ele>566.0</ele><time>2026-04-10T13:59:29Z</time></trkpt><trkpt lat="39.40592658745372" lon="8.454606667249147"><ele>565.5</ele><time>2026-04-10T13:59:30Z</time></trkpt><trkpt lat="39.405923480076325" lon="8.454703895201257"><ele>565.0</ele><time>2026-04-10T13:59:31Z</time></trkpt><trkpt lat="39.405918598133965" lon="8.454797122925845"><ele>564.5</ele><time>2026-04-10T13:59:32Z</time></trkpt><trkpt lat="39.40591811041366" lon="8.454885327774047"><ele>564.0</ele><time>2026-04-10T13:59:33Z</time></trkpt><trkpt lat="39.405915156546754" lon="8.454975202370825"><ele>563.5</ele><time>2026-04-10T13:59:34Z</time></trkpt><trkpt lat="39.40591459389187" lon="8.455126008508499"><ele>563.0</ele><time>2026-04-10T13:59:36Z</time></trkpt><trkpt lat="39.405975539572665" lon="8.455233810245057"><ele>563.0</ele><time>2026-04-10T13:59:38Z</time></trkpt><trkpt lat="39.406044398847364" lon="8.455255699579553"><ele>563.0</ele><time>2026-04-10T13:59:39Z</time></trkpt><trkpt lat="39.4061373284623" lon="8.455275269806787"><ele>563.0</ele><time>2026-04-10T13:59:40Z</time></trkpt><trkpt lat="39.40623552576971" lon="8.455304120783348"><ele>563.0</ele><time>2026-04-10T13:59:41Z</time></trkpt><trkpt lat="39.4063103637199" lon="8.455350136497657"><ele>563.0</ele><time>2026-04-10T13:59:42Z</time></trkpt><trkpt lat="39.4063724838817" lon="8.455409314821095"><ele>563.0</ele><time>2026-04-10T13:59:43Z</time></trkpt><trkpt lat="39.406414630895995" lon="8.455493629944318"><ele>562.8333333333333</ele><time>2026-04-10T13:59:44Z</time></trkpt><trkpt lat="39.4064561613663" lon="8.455580337352208"><ele>562.6666666666666</ele><time>2026-04-10T13:59:45Z</time></trkpt><trkpt lat="39.40649590590274" lon="8.455687723061173"><ele>562.5</ele><time>2026-04-10T13:59:46Z</time></trkpt><trkpt lat="39.40649424898247" lon="8.455833039561442"><ele>562.3333333333334</ele><time>2026-04-10T13:59:47Z</time></trkpt><trkpt lat="39.406492368219766" lon="8.455916083928255"><ele>562.1666666666667</ele><time>2026-04-10T13:59:48Z</time></trkpt><trkpt lat="39.406501060804636" lon="8.456005785416275"><ele>562.0</ele><time>2026-04-10T13:59:49Z</time></trkpt><trkpt lat="39.40649340987752" lon="8.45610992270048"><ele>562.0</ele><time>2026-04-10T13:59:50Z</time></trkpt><trkpt lat="39.40651720390906" lon="8.456214843907114"><ele>562.0</ele><time>2026-04-10T13:59:51Z</time></trkpt><trkpt lat="39.40653746924534" lon="8.456313272312553"><ele>562.0</ele><time>2026-04-10T13:59:52Z</time></trkpt><trkpt lat="39.406528637476136" lon="8.456431192977512"><ele>562.0</ele><time>2026-04-10T13:59:53Z</time></trkpt><trkpt lat="39.40653215443575" lon="8.456568913436946"><ele>562.0</ele><time>2026-04-10T13:59:54Z</time></trkpt><trkpt lat="39.4065457473874" lon="8.456665740266795"><ele>562.0</ele><time>2026-04-10T13:59:55Z</time></trkpt><trkpt lat="39.40657926413405" lon="8.456767309260087"><ele>560.4</ele><time>2026-04-10T13:59:56Z</time></trkpt><trkpt lat="39.40661746677974" lon="8.456840613105756"><ele>558.8000000000001</ele><time>2026-04-10T13:59:57Z</time></trkpt><trkpt lat="39.406635151274116" lon="8.456993955041648"><ele>557.2</ele><time>2026-04-10T13:59:59Z</time></trkpt><trkpt lat="39.40663605959615" lon="8.4571326922867"><ele>555.6</ele><time>2026-04-10T14:00:00Z</time></trkpt><trkpt lat="39.40663426641813" lon="8.457276374026637"><ele>554.0</ele><time>2026-04-10T14:00:01Z</time></trkpt><trkpt lat="39.40663045732464" lon="8.457426328315968"><ele>552.6</ele><time>2026-04-10T14:00:02Z</time></trkpt><trkpt lat="39.406617655170926" lon="8.457557044227364"><ele>551.2</ele><time>2026-04-10T14:00:03Z</time></trkpt><trkpt lat="39.406612987197484" lon="8.457701539546758"><ele>549.8000000000001</ele><time>2026-04-10T14:00:04Z</time></trkpt><trkpt lat="39.4066174164777" lon="8.457843246635147"><ele>548.4</ele><time>2026-04-10T14:00:05Z</time></trkpt><trkpt lat="39.40661233715763" lon="8.45796362271942"><ele>547.0</ele><time>2026-04-10T14:00:06Z</time></trkpt><trkpt lat="39.40660936794166" lon="8.45806234817309"><ele>546.0</ele><time>2026-04-10T14:00:07Z</time></trkpt><trkpt lat="39.40659870226321" lon="8.45814940005229"><ele>545.0</ele><time>2026-04-10T14:00:08Z</time></trkpt><trkpt lat="39.40656581721444" lon="8.458236476112196"><ele>544.0</ele><time>2026-04-10T14:00:09Z</time></trkpt><trkpt lat="39.40651273616842" lon="8.45834988421286"><ele>543.0</ele><time>2026-04-10T14:00:10Z</time></trkpt><trkpt lat="39.40647356605188" lon="8.458458551172068"><ele>542.0</ele><time>2026-04-10T14:00:11Z</time></trkpt><trkpt lat="39.40643867564266" lon="8.458534857925034"><ele>541.0</ele><time>2026-04-10T14:00:12Z</time></trkpt><trkpt lat="39.40641756795274" lon="8.45862813939045"><ele>541.0</ele><time>2026-04-10T14:00:13Z</time></trkpt><trkpt lat="39.40640827708694" lon="8.458711646083005"><ele>541.0</ele><time>2026-04-10T14:00:14Z</time></trkpt><trkpt lat="39.406403070984055" lon="8.4588137931389"><ele>541.0</ele><time>2026-04-10T14:00:15Z</time></trkpt><trkpt lat="39.40641995160385" lon="8.458910669972038"><ele>541.0</ele><time>2026-04-10T14:00:16Z</time></trkpt><trkpt lat="39.40643872979145" lon="8.45900809075813"><ele>541.0</ele><time>2026-04-10T14:00:17Z</time></trkpt><trkpt lat="39.406420350454454" lon="8.459106982396147"><ele>541.0</ele><time>2026-04-10T14:00:18Z</time></trkpt><trkpt lat="39.40638698005763" lon="8.459204032770941"><ele>541.0</ele><time>2026-04-10T14:00:19Z</time></trkpt><trkpt lat="39.406335633186764" lon="8.459321745475886"><ele>541.0</ele><time>2026-04-10T14:00:20Z</time></trkpt><trkpt lat="39.40626508802354" lon="8.459451732329379"><ele>541.0</ele><time>2026-04-10T14:00:21Z</time></trkpt><trkpt lat="39.406213144242244" lon="8.459559428318544"><ele>541.0</ele><time>2026-04-10T14:00:22Z</time></trkpt><trkpt lat="39.40618618789665" lon="8.459655134089946"><ele>541.0</ele><time>2026-04-10T14:00:23Z</time></trkpt><trkpt lat="39.406149788053966" lon="8.459763264001744"><ele>540.8</ele><time>2026-04-10T14:00:24Z</time></trkpt><trkpt lat="39.40610902614384" lon="8.459878390592637"><ele>540.6</ele><time>2026-04-10T14:00:25Z</time></trkpt><trkpt lat="39.40606249790947" lon="8.459996937701927"><ele>540.4</ele><time>2026-04-10T14:00:26Z</time></trkpt><trkpt lat="39.40602042292908" lon="8.460097570135726"><ele>540.2</ele><time>2026-04-10T14:00:27Z</time></trkpt><trkpt lat="39.40598181914721" lon="8.46020205100519"><ele>540.0</ele><time>2026-04-10T14:00:28Z</time></trkpt><trkpt lat="39.4059385008165" lon="8.460305166134079"><ele>540.0</ele><time>2026-04-10T14:00:29Z</time></trkpt><trkpt lat="39.40590580362394" lon="8.460402406547214"><ele>540.0</ele><time>2026-04-10T14:00:30Z</time></trkpt><trkpt lat="39.40587280673503" lon="8.46050187867747"><ele>540.0</ele><time>2026-04-10T14:00:31Z</time></trkpt><trkpt lat="39.405840057975325" lon="8.460592667523118"><ele>540.0</ele><time>2026-04-10T14:00:32Z</time></trkpt><trkpt lat="39.4057955316253" lon="8.460701773070095"><ele>540.0</ele><time>2026-04-10T14:00:33Z</time></trkpt><trkpt lat="39.405739684618794" lon="8.460806773353779"><ele>540.0</ele><time>2026-04-10T14:00:34Z</time></trkpt><trkpt lat="39.40568151836212" lon="8.460903975838034"><ele>540.0</ele><time>2026-04-10T14:00:35Z</time></trkpt><trkpt lat="39.40562288245003" lon="8.460995618227868"><ele>540.0</ele><time>2026-04-10T14:00:36Z</time></trkpt><trkpt lat="39.40557985790255" lon="8.461071221961959"><ele>540.0</ele><time>2026-04-10T14:00:37Z</time></trkpt><trkpt lat="39.405511053834424" lon="8.461189687959715"><ele>540.0</ele><time>2026-04-10T14:00:39Z</time></trkpt><trkpt lat="39.405491746244024" lon="8.461312572080226"><ele>540.0</ele><time>2026-04-10T14:00:41Z</time></trkpt><trkpt lat="39.405478664399965" lon="8.461434679450655"><ele>537.6</ele><time>2026-04-10T14:00:43Z</time></trkpt><trkpt lat="39.40541902096116" lon="8.461543862581006"><ele>535.2</ele><time>2026-04-10T14:00:45Z</time></trkpt><trkpt lat="39.40533526481823" lon="8.4616359660566"><ele>532.8</ele><time>2026-04-10T14:00:46Z</time></trkpt><trkpt lat="39.4052487118295" lon="8.461732497327057"><ele>530.4</ele><time>2026-04-10T14:00:47Z</time></trkpt><trkpt lat="39.40516337652603" lon="8.461800184933278"><ele>528.0</ele><time>2026-04-10T14:00:48Z</time></trkpt><trkpt lat="39.40508776230221" lon="8.461844721986367"><ele>528.0</ele><time>2026-04-10T14:00:49Z</time></trkpt><trkpt lat="39.405003218473446" lon="8.461898516486025"><ele>528.0</ele><time>2026-04-10T14:00:50Z</time></trkpt><trkpt lat="39.40490034148976" lon="8.4619948055094"><ele>528.0</ele><time>2026-04-10T14:00:51Z</time></trkpt><trkpt lat="39.404841811660994" lon="8.46206146575244"><ele>528.0</ele><time>2026-04-10T14:00:52Z</time></trkpt><trkpt lat="39.40475855695995" lon="8.462138022400577"><ele>528.0</ele><time>2026-04-10T14:00:53Z</time></trkpt><trkpt lat="39.404688051450286" lon="8.462216011204681"><ele>524.1666666666666</ele><time>2026-04-10T14:00:54Z</time></trkpt><trkpt lat="39.40462941597528" lon="8.462301030541386"><ele>520.3333333333334</ele><time>2026-04-10T14:00:55Z</time></trkpt><trkpt lat="39.40457733624254" lon="8.46237503813252"><ele>516.5</ele><time>2026-04-10T14:00:56Z</time></trkpt><trkpt lat="39.40453945191387" lon="8.462440733267039"><ele>512.6666666666667</ele><time>2026-04-10T14:00:57Z</time></trkpt><trkpt lat="39.404470841855705" lon="8.4625922443422"><ele>508.83333333333337</ele><time>2026-04-10T14:00:59Z</time></trkpt><trkpt lat="39.40442275442241" lon="8.462674468635718"><ele>505.0</ele><time>2026-04-10T14:01:00Z</time></trkpt><trkpt lat="39.40436247264991" lon="8.462739571627129"><ele>505.0</ele><time>2026-04-10T14:01:01Z</time></trkpt><trkpt lat="39.404286836094165" lon="8.46278346642798"><ele>505.0</ele><time>2026-04-10T14:01:02Z</time></trkpt><trkpt lat="39.4041909916398" lon="8.462822834865907"><ele>505.0</ele><time>2026-04-10T14:01:03Z</time></trkpt><trkpt lat="39.4040893978406" lon="8.462860691597996"><ele>505.0</ele><time>2026-04-10T14:01:04Z</time></trkpt><trkpt lat="39.40400535925145" lon="8.462888656077375"><ele>505.0</ele><time>2026-04-10T14:01:05Z</time></trkpt><trkpt lat="39.40393043210926" lon="8.462910152433812"><ele>505.00000000000006</ele><time>2026-04-10T14:01:06Z</time></trkpt><trkpt lat="39.403867711669875" lon="8.462927881342642"><ele>505.0</ele><time>2026-04-10T14:01:07Z</time></trkpt><trkpt lat="39.4037979205086" lon="8.462961476478782"><ele>505.0</ele><time>2026-04-10T14:01:08Z</time></trkpt><trkpt lat="39.40373403235914" lon="8.463004495419213"><ele>505.0</ele><time>2026-04-10T14:01:09Z</time></trkpt><trkpt lat="39.403678365389084" lon="8.46306922044676"><ele>505.00000000000006</ele><time>2026-04-10T14:01:10Z</time></trkpt><trkpt lat="39.40360794912319" lon="8.463149521682997"><ele>505.0</ele><time>2026-04-10T14:01:11Z</time></trkpt><trkpt lat="39.40354950864968" lon="8.463207486279236"><ele>502.4</ele><time>2026-04-10T14:01:12Z</time></trkpt><trkpt lat="39.403472674472745" lon="8.463267360433376"><ele>499.8</ele><time>2026-04-10T14:01:13Z</time></trkpt><trkpt lat="39.40338424466433" lon="8.463352013442003"><ele>497.20000000000005</ele><time>2026-04-10T14:01:14Z</time></trkpt><trkpt lat="39.40331446203888" lon="8.46343941982249"><ele>494.6</ele><time>2026-04-10T14:01:15Z</time></trkpt><trkpt lat="39.40324343993997" lon="8.463528200381466"><ele>492.0</ele><time>2026-04-10T14:01:16Z</time></trkpt><trkpt lat="39.40316596513653" lon="8.463630704030077"><ele>492.0</ele><time>2026-04-10T14:01:17Z</time></trkpt><trkpt lat="39.403095538420985" lon="8.463725280760963"><ele>492.00000000000006</ele><time>2026-04-10T14:01:18Z</time></trkpt><trkpt lat="39.403033123963205" lon="8.463808631856336"><ele>492.00000000000006</ele><time>2026-04-10T14:01:19Z</time></trkpt><trkpt lat="39.40296826670975" lon="8.463894989316042"><ele>492.0</ele><time>2026-04-10T14:01:20Z</time></trkpt><trkpt lat="39.40291329877514" lon="8.463986294214882"><ele>492.0</ele><time>2026-04-10T14:01:21Z</time></trkpt><trkpt lat="39.40283841370636" lon="8.464085016041336"><ele>489.0</ele><time>2026-04-10T14:01:22Z</time></trkpt><trkpt lat="39.402777474634924" lon="8.464177122378365"><ele>486.00000000000006</ele><time>2026-04-10T14:01:23Z</time></trkpt><trkpt lat="39.40272919010145" lon="8.464275936072019"><ele>483.00000000000006</ele><time>2026-04-10T14:01:24Z</time></trkpt><trkpt lat="39.40268950220895" lon="8.464382492480512"><ele>480.0</ele><time>2026-04-10T14:01:25Z</time></trkpt><trkpt lat="39.402648908933784" lon="8.464489259708397"><ele>477.0</ele><time>2026-04-10T14:01:26Z</time></trkpt><trkpt lat="39.40259966639067" lon="8.464585523722985"><ele>480.3333333333333</ele><time>2026-04-10T14:01:27Z</time></trkpt><trkpt lat="39.40257400177118" lon="8.464672026229634"><ele>483.66666666666663</ele><time>2026-04-10T14:01:28Z</time></trkpt><trkpt lat="39.40250140853061" lon="8.464787607778057"><ele>487.0</ele><time>2026-04-10T14:01:30Z</time></trkpt><trkpt lat="39.402435080713886" lon="8.464811057227578"><ele>490.3333333333333</ele><time>2026-04-10T14:01:31Z</time></trkpt><trkpt lat="39.40235797570159" lon="8.464798902160396"><ele>493.66666666666663</ele><time>2026-04-10T14:01:32Z</time></trkpt><trkpt lat="39.402280340302575" lon="8.464748119356209"><ele>497.0</ele><time>2026-04-10T14:01:33Z</time></trkpt><trkpt lat="39.40218070489976" lon="8.464660169511129"><ele>492.16666666666663</ele><time>2026-04-10T14:01:34Z</time></trkpt><trkpt lat="39.40211571206149" lon="8.46459884916704"><ele>487.3333333333333</ele><time>2026-04-10T14:01:35Z</time></trkpt><trkpt lat="39.40205549925334" lon="8.464559923154027"><ele>482.5</ele><time>2026-04-10T14:01:36Z</time></trkpt><trkpt lat="39.401944650575224" lon="8.46449353823074"><ele>477.66666666666663</ele><time>2026-04-10T14:01:38Z</time></trkpt><trkpt lat="39.40187319289934" lon="8.46445257354332"><ele>472.8333333333333</ele><time>2026-04-10T14:01:39Z</time></trkpt><trkpt lat="39.401806214498585" lon="8.464412442083711"><ele>468.0</ele><time>2026-04-10T14:01:40Z</time></trkpt><trkpt lat="39.40173898662252" lon="8.464376197996993"><ele>468.0</ele><time>2026-04-10T14:01:41Z</time></trkpt><trkpt lat="39.40164573436245" lon="8.464329103834823"><ele>467.99999999999994</ele><time>2026-04-10T14:01:43Z</time></trkpt><trkpt lat="39.40155100977237" lon="8.464303333481727"><ele>467.99999999999994</ele><time>2026-04-10T14:01:45Z</time></trkpt><trkpt lat="39.40148400060258" lon="8.464303077321908"><ele>468.0</ele><time>2026-04-10T14:01:46Z</time></trkpt><trkpt lat="39.401395770419704" lon="8.464304456534796"><ele>468.0</ele><time>2026-04-10T14:01:47Z</time></trkpt><trkpt lat="39.40127388783396" lon="8.464278403370223"><ele>465.8333333333333</ele><time>2026-04-10T14:01:49Z</time></trkpt><trkpt lat="39.40120467762135" lon="8.46425926054133"><ele>463.66666666666663</ele><time>2026-04-10T14:01:50Z</time></trkpt><trkpt lat="39.40112853645047" lon="8.464251675937998"><ele>461.5</ele><time>2026-04-10T14:01:51Z</time></trkpt><trkpt lat="39.40105928621779" lon="8.464244422227475"><ele>459.3333333333333</ele><time>2026-04-10T14:01:52Z</time></trkpt><trkpt lat="39.400990069346" lon="8.464235402472582"><ele>457.16666666666663</ele><time>2026-04-10T14:01:53Z</time></trkpt><trkpt lat="39.40087650884318" lon="8.4642320263433"><ele>455.0</ele><time>2026-04-10T14:01:55Z</time></trkpt><trkpt lat="39.40078635454269" lon="8.464266179057056"><ele>455.0</ele><time>2026-04-10T14:01:57Z</time></trkpt><trkpt lat="39.400757646301706" lon="8.464387409636158"><ele>455.0</ele><time>2026-04-10T14:01:59Z</time></trkpt><trkpt lat="39.40073041746191" lon="8.464557199876358"><ele>455.0</ele><time>2026-04-10T14:02:01Z</time></trkpt><trkpt lat="39.4006703786362" lon="8.464690607381192"><ele>455.0</ele><time>2026-04-10T14:02:03Z</time></trkpt><trkpt lat="39.4006387545147" lon="8.464839082958598"><ele>458.49999999999994</ele><time>2026-04-10T14:02:05Z</time></trkpt><trkpt lat="39.400615357551956" lon="8.464923200861634"><ele>462.0</ele><time>2026-04-10T14:02:06Z</time></trkpt><trkpt lat="39.400559729142515" lon="8.465071858793376"><ele>465.5</ele><time>2026-04-10T14:02:08Z</time></trkpt><trkpt lat="39.40055824058112" lon="8.46516435665029"><ele>469.0</ele><time>2026-04-10T14:02:09Z</time></trkpt><trkpt lat="39.40051610906899" lon="8.46523591951138"><ele>472.49999999999994</ele><time>2026-04-10T14:02:10Z</time></trkpt><trkpt lat="39.40047367370349" lon="8.465325194108074"><ele>476.0</ele><time>2026-04-10T14:02:11Z</time></trkpt><trkpt lat="39.40041951061784" lon="8.465408041859705"><ele>467.66666666666663</ele><time>2026-04-10T14:02:12Z</time></trkpt><trkpt lat="39.40036575080164" lon="8.465481123652648"><ele>459.3333333333333</ele><time>2026-04-10T14:02:13Z</time></trkpt><trkpt lat="39.40032971350741" lon="8.465551086622431"><ele>451.0</ele><time>2026-04-10T14:02:14Z</time></trkpt><trkpt lat="39.40029929272759" lon="8.465699489025633"><ele>442.66666666666663</ele><time>2026-04-10T14:02:16Z</time></trkpt><trkpt lat="39.40029467287061" lon="8.465785549894708"><ele>434.3333333333333</ele><time>2026-04-10T14:02:17Z</time></trkpt><trkpt lat="39.400304242615285" lon="8.465896385517672"><ele>426.0</ele><time>2026-04-10T14:02:18Z</time></trkpt><trkpt lat="39.4003216983863" lon="8.46598375272194"><ele>426.0</ele><time>2026-04-10T14:02:19Z</time></trkpt><trkpt lat="39.400328926198554" lon="8.466075992646983"><ele>426.0</ele><time>2026-04-10T14:02:20Z</time></trkpt><trkpt lat="39.40031797210398" lon="8.466171920999695"><ele>426.0</ele><time>2026-04-10T14:02:21Z</time></trkpt><trkpt lat="39.40030285635834" lon="8.466279555596962"><ele>426.0</ele><time>2026-04-10T14:02:22Z</time></trkpt><trkpt lat="39.400308378638165" lon="8.46640067960313"><ele>426.0</ele><time>2026-04-10T14:02:23Z</time></trkpt><trkpt lat="39.400296554540844" lon="8.466493285714616"><ele>426.0</ele><time>2026-04-10T14:02:24Z</time></trkpt><trkpt lat="39.40028615043233" lon="8.466589781270228"><ele>425.4285714285714</ele><time>2026-04-10T14:02:25Z</time></trkpt><trkpt lat="39.40029807853313" lon="8.46668666572147"><ele>424.85714285714283</ele><time>2026-04-10T14:02:26Z</time></trkpt><trkpt lat="39.400282650855495" lon="8.466773383818259"><ele>424.2857142857143</ele><time>2026-04-10T14:02:27Z</time></trkpt><trkpt lat="39.400284584489775" lon="8.466864167955064"><ele>423.71428571428567</ele><time>2026-04-10T14:02:28Z</time></trkpt><trkpt lat="39.4003060180093" lon="8.466942059244941"><ele>423.14285714285717</ele><time>2026-04-10T14:02:29Z</time></trkpt><trkpt lat="39.40032327968394" lon="8.467023945964637"><ele>422.57142857142856</ele><time>2026-04-10T14:02:30Z</time></trkpt><trkpt lat="39.400381886473056" lon="8.46711320273564"><ele>422.0</ele><time>2026-04-10T14:02:32Z</time></trkpt><trkpt lat="39.40048896021169" lon="8.467188404436703"><ele>427.99999999999994</ele><time>2026-04-10T14:02:34Z</time></trkpt><trkpt lat="39.40054510292356" lon="8.467237696522044"><ele>434.0</ele><time>2026-04-10T14:02:35Z</time></trkpt><trkpt lat="39.40058504911571" lon="8.467310656877704"><ele>440.0</ele><time>2026-04-10T14:02:36Z</time></trkpt><trkpt lat="39.400609586264316" lon="8.467437498000647"><ele>446.0</ele><time>2026-04-10T14:02:38Z</time></trkpt><trkpt lat="39.40060750587198" lon="8.467526143775622"><ele>451.99999999999994</ele><time>2026-04-10T14:02:39Z</time></trkpt><trkpt lat="39.40058591241553" lon="8.467637404092256"><ele>458.0</ele><time>2026-04-10T14:02:40Z</time></trkpt><trkpt lat="39.400568847544314" lon="8.467743341464427"><ele>457.99999999999994</ele><time>2026-04-10T14:02:41Z</time></trkpt><trkpt lat="39.400568608147694" lon="8.467840150913002"><ele>458.0</ele><time>2026-04-10T14:02:42Z</time></trkpt><trkpt lat="39.4005576150279" lon="8.46793666854742"><ele>458.0</ele><time>2026-04-10T14:02:43Z</time></trkpt><trkpt lat="39.400532354972455" lon="8.468048237067602"><ele>458.0</ele><time>2026-04-10T14:02:44Z</time></trkpt><trkpt lat="39.40052089391388" lon="8.468159567362687"><ele>457.99999999999994</ele><time>2026-04-10T14:02:45Z</time></trkpt><trkpt lat="39.40051023834859" lon="8.468264946101264"><ele>458.0</ele><time>2026-04-10T14:02:46Z</time></trkpt><trkpt lat="39.400512730866" lon="8.468385529991888"><ele>444.79999999999995</ele><time>2026-04-10T14:02:47Z</time></trkpt><trkpt lat="39.4004862518548" lon="8.468503626652208"><ele>431.59999999999997</ele><time>2026-04-10T14:02:48Z</time></trkpt><trkpt lat="39.400475241131545" lon="8.468625114331697"><ele>418.4</ele><time>2026-04-10T14:02:49Z</time></trkpt><trkpt lat="39.400462775151354" lon="8.468745357140202"><ele>405.20000000000005</ele><time>2026-04-10T14:02:50Z</time></trkpt><trkpt lat="39.40046010402643" lon="8.468847576314456"><ele>392.0</ele><time>2026-04-10T14:02:51Z</time></trkpt><trkpt lat="39.40046424330596" lon="8.468962263176882"><ele>391.3333333333333</ele><time>2026-04-10T14:02:52Z</time></trkpt><trkpt lat="39.40046616918838" lon="8.469081707154093"><ele>390.66666666666663</ele><time>2026-04-10T14:02:53Z</time></trkpt><trkpt lat="39.400462360600514" lon="8.469215419595457"><ele>390.0</ele><time>2026-04-10T14:02:54Z</time></trkpt><trkpt lat="39.40046356512635" lon="8.469319096539595"><ele>389.33333333333337</ele><time>2026-04-10T14:02:55Z</time></trkpt><trkpt lat="39.40048105612656" lon="8.469397759589052"><ele>388.6666666666667</ele><time>2026-04-10T14:02:56Z</time></trkpt><trkpt lat="39.4005152527298" lon="8.469487369645105"><ele>388.0</ele><time>2026-04-10T14:02:58Z</time></trkpt><trkpt lat="39.40061501028886" lon="8.469483196729104"><ele>395.79999999999995</ele><time>2026-04-10T14:03:00Z</time></trkpt><trkpt lat="39.40070066877414" lon="8.46945195605294"><ele>403.6</ele><time>2026-04-10T14:03:01Z</time></trkpt><trkpt lat="39.40084847915661" lon="8.469420874456421"><ele>411.40000000000003</ele><time>2026-04-10T14:03:03Z</time></trkpt><trkpt lat="39.40093780250643" lon="8.46946643198072"><ele>419.20000000000005</ele><time>2026-04-10T14:03:04Z</time></trkpt><trkpt lat="39.40100964105628" lon="8.469506418492914"><ele>427.0</ele><time>2026-04-10T14:03:05Z</time></trkpt><trkpt lat="39.40108177401383" lon="8.469525868573266"><ele>427.0</ele><time>2026-04-10T14:03:06Z</time></trkpt><trkpt lat="39.40116546520551" lon="8.469552322997114"><ele>427.00000000000006</ele><time>2026-04-10T14:03:07Z</time></trkpt><trkpt lat="39.40125815825236" lon="8.46957597941121"><ele>427.00000000000006</ele><time>2026-04-10T14:03:08Z</time></trkpt><trkpt lat="39.40134863083894" lon="8.469591668855372"><ele>427.0</ele><time>2026-04-10T14:03:09Z</time></trkpt><trkpt lat="39.40144686888558" lon="8.46960759975096"><ele>427.0</ele><time>2026-04-10T14:03:10Z</time></trkpt><trkpt lat="39.4015381912314" lon="8.4696120818108"><ele>422.50000000000006</ele><time>2026-04-10T14:03:11Z</time></trkpt><trkpt lat="39.401619099983" lon="8.469638413787944"><ele>418.0</ele><time>2026-04-10T14:03:12Z</time></trkpt><trkpt lat="39.40169323999271" lon="8.469649120530143"><ele>413.5</ele><time>2026-04-10T14:03:13Z</time></trkpt><trkpt lat="39.40175889387938" lon="8.469680210191175"><ele>409.0</ele><time>2026-04-10T14:03:14Z</time></trkpt><trkpt lat="39.40181557262765" lon="8.469741555122507"><ele>404.50000000000006</ele><time>2026-04-10T14:03:15Z</time></trkpt><trkpt lat="39.401869669608644" lon="8.469829940781926"><ele>400.0</ele><time>2026-04-10T14:03:16Z</time></trkpt><trkpt lat="39.40190010332939" lon="8.469919299845458"><ele>400.00000000000006</ele><time>2026-04-10T14:03:17Z</time></trkpt><trkpt lat="39.40196098013336" lon="8.470022168721282"><ele>400.0</ele><time>2026-04-10T14:03:19Z</time></trkpt><trkpt lat="39.40206066459086" lon="8.470005776568712"><ele>400.0</ele><time>2026-04-10T14:03:21Z</time></trkpt><trkpt lat="39.402116887893364" lon="8.469949122558454"><ele>400.0</ele><time>2026-04-10T14:03:22Z</time></trkpt><trkpt lat="39.402165790784096" lon="8.469869949169736"><ele>400.00000000000006</ele><time>2026-04-10T14:03:23Z</time></trkpt><trkpt lat="39.402211299142316" lon="8.469807281404618"><ele>400.0</ele><time>2026-04-10T14:03:24Z</time></trkpt><trkpt lat="39.40226394446149" lon="8.469752268795007"><ele>397.4</ele><time>2026-04-10T14:03:25Z</time></trkpt><trkpt lat="39.40234774262676" lon="8.469693789373308"><ele>394.8</ele><time>2026-04-10T14:03:26Z</time></trkpt><trkpt lat="39.402429434317355" lon="8.469661997315026"><ele>392.20000000000005</ele><time>2026-04-10T14:03:27Z</time></trkpt><trkpt lat="39.40250108566187" lon="8.469597816986711"><ele>389.6</ele><time>2026-04-10T14:03:28Z</time></trkpt><trkpt lat="39.40257150868426" lon="8.469516076839216"><ele>387.0</ele><time>2026-04-10T14:03:29Z</time></trkpt><trkpt lat="39.402643549803834" lon="8.469439367185581"><ele>391.3333333333333</ele><time>2026-04-10T14:03:30Z</time></trkpt><trkpt lat="39.40270923591353" lon="8.469379811757223"><ele>395.66666666666663</ele><time>2026-04-10T14:03:31Z</time></trkpt><trkpt lat="39.40274774335974" lon="8.469300689580393"><ele>400.0</ele><time>2026-04-10T14:03:32Z</time></trkpt><trkpt lat="39.40277008851877" lon="8.469217253890072"><ele>404.3333333333333</ele><time>2026-04-10T14:03:33Z</time></trkpt><trkpt lat="39.4028004845064" lon="8.46909059619468"><ele>408.66666666666663</ele><time>2026-04-10T14:03:34Z</time></trkpt><trkpt lat="39.4028395397549" lon="8.468974948554772"><ele>413.0</ele><time>2026-04-10T14:03:35Z</time></trkpt><trkpt lat="39.4028685745575" lon="8.46886403736682"><ele>414.2857142857143</ele><time>2026-04-10T14:03:36Z</time></trkpt><trkpt lat="39.40288550153413" lon="8.468760999678528"><ele>415.57142857142856</ele><time>2026-04-10T14:03:37Z</time></trkpt><trkpt lat="39.4028971858265" lon="8.46867816917654"><ele>416.8571428571429</ele><time>2026-04-10T14:03:38Z</time></trkpt><trkpt lat="39.40288685704877" lon="8.468587652192452"><ele>418.1428571428571</ele><time>2026-04-10T14:03:39Z</time></trkpt><trkpt lat="39.40289086560588" lon="8.468482420834995"><ele>419.42857142857144</ele><time>2026-04-10T14:03:40Z</time></trkpt><trkpt lat="39.402892766027044" lon="8.46838393840935"><ele>420.7142857142857</ele><time>2026-04-10T14:03:41Z</time></trkpt><trkpt lat="39.402896194290975" lon="8.468297972724114"><ele>422.0</ele><time>2026-04-10T14:03:42Z</time></trkpt><trkpt lat="39.402942297634205" lon="8.468238152637163"><ele>415.8333333333333</ele><time>2026-04-10T14:03:43Z</time></trkpt><trkpt lat="39.40300724102819" lon="8.46821330356691"><ele>409.66666666666663</ele><time>2026-04-10T14:03:44Z</time></trkpt><trkpt lat="39.40308242004865" lon="8.46820412531255"><ele>403.5</ele><time>2026-04-10T14:03:45Z</time></trkpt><trkpt lat="39.40318918228512" lon="8.46820859567038"><ele>397.33333333333337</ele><time>2026-04-10T14:03:46Z</time></trkpt><trkpt lat="39.40328351548969" lon="8.468205222923977"><ele>391.1666666666667</ele><time>2026-04-10T14:03:47Z</time></trkpt><trkpt lat="39.40336633419041" lon="8.46819710919386"><ele>385.0</ele><time>2026-04-10T14:03:48Z</time></trkpt><trkpt lat="39.40343903985189" lon="8.46818574282172"><ele>385.0</ele><time>2026-04-10T14:03:49Z</time></trkpt><trkpt lat="39.40354898939096" lon="8.468141937092506"><ele>385.0</ele><time>2026-04-10T14:03:51Z</time></trkpt><trkpt lat="39.403598239268774" lon="8.468065418405851"><ele>385.0</ele><time>2026-04-10T14:03:52Z</time></trkpt><trkpt lat="39.40368401177452" lon="8.467982693769953"><ele>385.0</ele><time>2026-04-10T14:03:53Z</time></trkpt><trkpt lat="39.40374727294224" lon="8.467937097904214"><ele>385.0</ele><time>2026-04-10T14:03:54Z</time></trkpt><trkpt lat="39.403831605138755" lon="8.467928767241975"><ele>383.6666666666667</ele><time>2026-04-10T14:03:55Z</time></trkpt><trkpt lat="39.40390143935699" lon="8.467948326125144"><ele>382.33333333333337</ele><time>2026-04-10T14:03:56Z</time></trkpt><trkpt lat="39.40395781703646" lon="8.467990648443934"><ele>381.0</ele><time>2026-04-10T14:03:57Z</time></trkpt><trkpt lat="39.40403331504896" lon="8.468066872085014"><ele>379.6666666666667</ele><time>2026-04-10T14:03:58Z</time></trkpt><trkpt lat="39.40410611880792" lon="8.4681307177268"><ele>378.33333333333337</ele><time>2026-04-10T14:03:59Z</time></trkpt><trkpt lat="39.40417383208117" lon="8.468180554323734"><ele>377.0</ele><time>2026-04-10T14:04:00Z</time></trkpt><trkpt lat="39.404241012995236" lon="8.468197477635623"><ele>377.0</ele><time>2026-04-10T14:04:01Z</time></trkpt><trkpt lat="39.40433262668134" lon="8.468196488502306"><ele>377.0</ele><time>2026-04-10T14:04:02Z</time></trkpt><trkpt lat="39.404412905337935" lon="8.468186692289"><ele>377.0</ele><time>2026-04-10T14:04:03Z</time></trkpt><trkpt lat="39.404492718244846" lon="8.468159840386718"><ele>377.0</ele><time>2026-04-10T14:04:04Z</time></trkpt><trkpt lat="39.40455292506039" lon="8.468120394624421"><ele>377.0</ele><time>2026-04-10T14:04:05Z</time></trkpt><trkpt lat="39.404601077499635" lon="8.468057352741395"><ele>377.0</ele><time>2026-04-10T14:04:06Z</time></trkpt><trkpt lat="39.40466792869755" lon="8.467999200405291"><ele>373.5</ele><time>2026-04-10T14:04:07Z</time></trkpt><trkpt lat="39.40473824052165" lon="8.46794682353632"><ele>370.0</ele><time>2026-04-10T14:04:08Z</time></trkpt><trkpt lat="39.404796501763656" lon="8.467896221446207"><ele>366.5</ele><time>2026-04-10T14:04:09Z</time></trkpt><trkpt lat="39.40485524056478" lon="8.467840037116508"><ele>363.0</ele><time>2026-04-10T14:04:10Z</time></trkpt><trkpt lat="39.404950710291715" lon="8.467814222599046"><ele>359.5</ele><time>2026-04-10T14:04:11Z</time></trkpt><trkpt lat="39.405070288292954" lon="8.467812121561339"><ele>356.0</ele><time>2026-04-10T14:04:13Z</time></trkpt><trkpt lat="39.40512198395237" lon="8.4677621119253"><ele>364.4</ele><time>2026-04-10T14:04:15Z</time></trkpt><trkpt lat="39.405202113644705" lon="8.467737060502232"><ele>372.8</ele><time>2026-04-10T14:04:18Z</time></trkpt><trkpt lat="39.40525959071394" lon="8.467771614592653"><ele>381.2</ele><time>2026-04-10T14:04:24Z</time></trkpt><trkpt lat="39.40516401625586" lon="8.467798231793386"><ele>389.59999999999997</ele><time>2026-04-10T14:07:17Z</time></trkpt><trkpt lat="39.405068529085575" lon="8.467849539850254"><ele>398.0</ele><time>2026-04-10T14:07:20Z</time></trkpt><trkpt lat="39.40495346557593" lon="8.467899341793304"><ele>397.99999999999994</ele><time>2026-04-10T14:07:22Z</time></trkpt><trkpt lat="39.4048946656246" lon="8.467929957402138"><ele>398.0</ele><time>2026-04-10T14:07:23Z</time></trkpt><trkpt lat="39.404828854450415" lon="8.46798666881106"><ele>398.0</ele><time>2026-04-10T14:07:24Z</time></trkpt><trkpt lat="39.40478451605444" lon="8.468045988392575"><ele>398.0</ele><time>2026-04-10T14:07:25Z</time></trkpt><trkpt lat="39.40473751110013" lon="8.468135584022958"><ele>398.0</ele><time>2026-04-10T14:07:26Z</time></trkpt><trkpt lat="39.40474194013111" lon="8.468246375355761"><ele>397.99999999999994</ele><time>2026-04-10T14:07:27Z</time></trkpt><trkpt lat="39.40471686988134" lon="8.468330886484047"><ele>398.0</ele><time>2026-04-10T14:07:28Z</time></trkpt><trkpt lat="39.40466989851263" lon="8.468424680459819"><ele>393.79999999999995</ele><time>2026-04-10T14:07:29Z</time></trkpt><trkpt lat="39.404632608263405" lon="8.468505954861627"><ele>389.6</ele><time>2026-04-10T14:07:30Z</time></trkpt><trkpt lat="39.40455004036504" lon="8.468611432333075"><ele>385.4</ele><time>2026-04-10T14:07:32Z</time></trkpt><trkpt lat="39.40444399800858" lon="8.468661337700832"><ele>381.20000000000005</ele><time>2026-04-10T14:07:34Z</time></trkpt><trkpt lat="39.40431719684722" lon="8.468640028802238"><ele>377.0</ele><time>2026-04-10T14:07:36Z</time></trkpt><trkpt lat="39.40424721010171" lon="8.468632603563229"><ele>377.0</ele><time>2026-04-10T14:07:37Z</time></trkpt><trkpt lat="39.40417763443322" lon="8.468625221939114"><ele>377.0</ele><time>2026-04-10T14:07:38Z</time></trkpt><trkpt lat="39.4040565263448" lon="8.468600999675754"><ele>377.0</ele><time>2026-04-10T14:07:40Z</time></trkpt><trkpt lat="39.403990335845066" lon="8.468582106711528"><ele>377.0</ele><time>2026-04-10T14:07:41Z</time></trkpt><trkpt lat="39.40387698373072" lon="8.468567823404051"><ele>377.0</ele><time>2026-04-10T14:07:43Z</time></trkpt><trkpt lat="39.4037706714713" lon="8.46863952434309"><ele>378.33333333333337</ele><time>2026-04-10T14:07:45Z</time></trkpt><trkpt lat="39.40374241162807" lon="8.468742283512602"><ele>379.6666666666667</ele><time>2026-04-10T14:07:46Z</time></trkpt><trkpt lat="39.403680991507336" lon="8.46881305725369"><ele>381.0</ele><time>2026-04-10T14:07:47Z</time></trkpt><trkpt lat="39.40364103276823" lon="8.46888378476327"><ele>382.33333333333337</ele><time>2026-04-10T14:07:48Z</time></trkpt><trkpt lat="39.40360643265218" lon="8.46896853229961"><ele>383.6666666666667</ele><time>2026-04-10T14:07:49Z</time></trkpt><trkpt lat="39.40360012719606" lon="8.469066699899413"><ele>385.0</ele><time>2026-04-10T14:07:50Z</time></trkpt><trkpt lat="39.4036286000657" lon="8.469195031861014"><ele>380.6</ele><time>2026-04-10T14:07:52Z</time></trkpt><trkpt lat="39.40365022324714" lon="8.469344511374503"><ele>376.2</ele><time>2026-04-10T14:07:54Z</time></trkpt><trkpt lat="39.40364079607509" lon="8.46949765788422"><ele>371.79999999999995</ele><time>2026-04-10T14:07:56Z</time></trkpt><trkpt lat="39.403609232239255" lon="8.46957020685318"><ele>367.4</ele><time>2026-04-10T14:07:57Z</time></trkpt><trkpt lat="39.403583510351474" lon="8.4696743994018"><ele>363.0</ele><time>2026-04-10T14:07:58Z</time></trkpt><trkpt lat="39.40356264179154" lon="8.469785934751469"><ele>359.4</ele><time>2026-04-10T14:07:59Z</time></trkpt><trkpt lat="39.40354575837056" lon="8.46987732206266"><ele>355.79999999999995</ele><time>2026-04-10T14:08:00Z</time></trkpt><trkpt lat="39.40352855851028" lon="8.469971744585125"><ele>352.2</ele><time>2026-04-10T14:08:01Z</time></trkpt><trkpt lat="39.4035291029844" lon="8.470068052532724"><ele>348.6</ele><time>2026-04-10T14:08:02Z</time></trkpt><trkpt lat="39.403495507621315" lon="8.47022912413928"><ele>345.0</ele><time>2026-04-10T14:08:04Z</time></trkpt><trkpt lat="39.40344826582794" lon="8.470349774648298"><ele>345.0</ele><time>2026-04-10T14:08:06Z</time></trkpt><trkpt lat="39.40340059296027" lon="8.47041313084516"><ele>345.0</ele><time>2026-04-10T14:08:07Z</time></trkpt><trkpt lat="39.40331850765376" lon="8.470524340595006"><ele>345.0</ele><time>2026-04-10T14:08:09Z</time></trkpt><trkpt lat="39.40327031988096" lon="8.470698062219164"><ele>345.0</ele><time>2026-04-10T14:08:11Z</time></trkpt><trkpt lat="39.40327583041718" lon="8.470784500111614"><ele>345.0</ele><time>2026-04-10T14:08:12Z</time></trkpt><trkpt lat="39.40325643059681" lon="8.470881143244105"><ele>340.5</ele><time>2026-04-10T14:08:13Z</time></trkpt><trkpt lat="39.40323887114764" lon="8.47097152937734"><ele>336.0</ele><time>2026-04-10T14:08:14Z</time></trkpt><trkpt lat="39.40321252841752" lon="8.471075244629198"><ele>331.5</ele><time>2026-04-10T14:08:15Z</time></trkpt><trkpt lat="39.40315874180788" lon="8.471177774919397"><ele>327.0</ele><time>2026-04-10T14:08:16Z</time></trkpt><trkpt lat="39.40312828695525" lon="8.471270957221147"><ele>322.5</ele><time>2026-04-10T14:08:17Z</time></trkpt><trkpt lat="39.4031025452986" lon="8.471355739214868"><ele>318.0</ele><time>2026-04-10T14:08:18Z</time></trkpt><trkpt lat="39.40307187682386" lon="8.471453388921834"><ele>319.3333333333333</ele><time>2026-04-10T14:08:19Z</time></trkpt><trkpt lat="39.403013789434716" lon="8.471525402981019"><ele>320.6666666666667</ele><time>2026-04-10T14:08:20Z</time></trkpt><trkpt lat="39.40298845010113" lon="8.471630848139558"><ele>322.0</ele><time>2026-04-10T14:08:21Z</time></trkpt><trkpt lat="39.402943786606635" lon="8.471712583257549"><ele>323.33333333333337</ele><time>2026-04-10T14:08:22Z</time></trkpt><trkpt lat="39.40290476760671" lon="8.471779648036376"><ele>324.6666666666667</ele><time>2026-04-10T14:08:23Z</time></trkpt><trkpt lat="39.402881578820725" lon="8.4718644711505"><ele>326.0</ele><time>2026-04-10T14:08:24Z</time></trkpt><trkpt lat="39.402865571604664" lon="8.471956027985785"><ele>326.0</ele><time>2026-04-10T14:08:25Z</time></trkpt><trkpt lat="39.40283419873845" lon="8.472035282092827"><ele>326.0</ele><time>2026-04-10T14:08:26Z</time></trkpt><trkpt lat="39.40275281166371" lon="8.472133477132745"><ele>326.0</ele><time>2026-04-10T14:08:28Z</time></trkpt><trkpt lat="39.40263248736654" lon="8.472146103874291"><ele>326.0</ele><time>2026-04-10T14:08:30Z</time></trkpt><trkpt lat="39.4025556664339" lon="8.472155665168692"><ele>326.0</ele><time>2026-04-10T14:08:31Z</time></trkpt><trkpt lat="39.402449747666346" lon="8.472186179568247"><ele>318.83333333333337</ele><time>2026-04-10T14:08:33Z</time></trkpt><trkpt lat="39.40237813422566" lon="8.472212154476297"><ele>311.6666666666667</ele><time>2026-04-10T14:08:34Z</time></trkpt><trkpt lat="39.40231019615822" lon="8.472269607555367"><ele>304.5</ele><time>2026-04-10T14:08:35Z</time></trkpt><trkpt lat="39.40222244152654" lon="8.472293319954627"><ele>297.3333333333333</ele><time>2026-04-10T14:08:36Z</time></trkpt><trkpt lat="39.402152048377765" lon="8.472338176412466"><ele>290.16666666666663</ele><time>2026-04-10T14:08:37Z</time></trkpt><trkpt lat="39.40209235866617" lon="8.472384682639916"><ele>283.0</ele><time>2026-04-10T14:08:38Z</time></trkpt><trkpt lat="39.402014646402606" lon="8.472422727634445"><ele>283.0</ele><time>2026-04-10T14:08:40Z</time></trkpt><trkpt lat="39.40192943819706" lon="8.472389939937083"><ele>283.0</ele><time>2026-04-10T14:08:42Z</time></trkpt><trkpt lat="39.401814292149666" lon="8.472333570998423"><ele>283.0</ele><time>2026-04-10T14:08:44Z</time></trkpt><trkpt lat="39.401747185817975" lon="8.472311356906403"><ele>283.0</ele><time>2026-04-10T14:08:45Z</time></trkpt><trkpt lat="39.40168262149738" lon="8.472315323210479"><ele>283.0</ele><time>2026-04-10T14:08:46Z</time></trkpt><trkpt lat="39.40161133996936" lon="8.472332405421039"><ele>283.0</ele><time>2026-04-10T14:08:47Z</time></trkpt><trkpt lat="39.40155306019315" lon="8.4723888995715"><ele>283.0</ele><time>2026-04-10T14:08:48Z</time></trkpt><trkpt lat="39.40143662748772" lon="8.47239129538453"><ele>283.0</ele><time>2026-04-10T14:08:50Z</time></trkpt><trkpt lat="39.40133483205704" lon="8.472329707326022"><ele>283.0</ele><time>2026-04-10T14:08:52Z</time></trkpt><trkpt lat="39.40123084429282" lon="8.472274302126916"><ele>283.0</ele><time>2026-04-10T14:08:54Z</time></trkpt><trkpt lat="39.401125810147725" lon="8.472262747628415"><ele>283.0</ele><time>2026-04-10T14:08:56Z</time></trkpt><trkpt lat="39.40106353890173" lon="8.472342195640154"><ele>284.0</ele><time>2026-04-10T14:08:57Z</time></trkpt><trkpt lat="39.401003363132595" lon="8.472405271026796"><ele>285.0</ele><time>2026-04-10T14:08:58Z</time></trkpt><trkpt lat="39.400902763676996" lon="8.472454838388467"><ele>286.0</ele><time>2026-04-10T14:09:00Z</time></trkpt><trkpt lat="39.400767830249805" lon="8.472440816093075"><ele>287.0</ele><time>2026-04-10T14:09:02Z</time></trkpt><trkpt lat="39.40068987718091" lon="8.472453059239575"><ele>288.0</ele><time>2026-04-10T14:09:03Z</time></trkpt><trkpt lat="39.400616335554915" lon="8.472491074215034"><ele>288.0</ele><time>2026-04-10T14:09:04Z</time></trkpt><trkpt lat="39.40053214321571" lon="8.472556066885677"><ele>288.0</ele><time>2026-04-10T14:09:05Z</time></trkpt><trkpt lat="39.40045139186298" lon="8.472618240646206"><ele>288.0</ele><time>2026-04-10T14:09:06Z</time></trkpt><trkpt lat="39.40036904202874" lon="8.472676406209084"><ele>288.0</ele><time>2026-04-10T14:09:07Z</time></trkpt><trkpt lat="39.40029845889132" lon="8.472716527814104"><ele>288.0</ele><time>2026-04-10T14:09:08Z</time></trkpt><trkpt lat="39.40018147450817" lon="8.472758102986123"><ele>286.6</ele><time>2026-04-10T14:09:10Z</time></trkpt><trkpt lat="39.40008847211774" lon="8.472741338061065"><ele>285.20000000000005</ele><time>2026-04-10T14:09:12Z</time></trkpt><trkpt lat="39.39997229879694" lon="8.472663240456162"><ele>283.8</ele><time>2026-04-10T14:09:14Z</time></trkpt><trkpt lat="39.39991252938803" lon="8.472587948249947"><ele>282.40000000000003</ele><time>2026-04-10T14:09:15Z</time></trkpt><trkpt lat="39.39986970534322" lon="8.472502277034287"><ele>281.0</ele><time>2026-04-10T14:09:16Z</time></trkpt><trkpt lat="39.399814638149714" lon="8.47243104582122"><ele>281.0</ele><time>2026-04-10T14:09:17Z</time></trkpt><trkpt lat="39.39975766867171" lon="8.47239390632262"><ele>281.0</ele><time>2026-04-10T14:09:18Z</time></trkpt><trkpt lat="39.39969841750756" lon="8.472335148202301"><ele>281.0</ele><time>2026-04-10T14:09:19Z</time></trkpt><trkpt lat="39.399623986667365" lon="8.47229130318816"><ele>281.0</ele><time>2026-04-10T14:09:20Z</time></trkpt><trkpt lat="39.39952977803142" lon="8.472224808006631"><ele>281.0</ele><time>2026-04-10T14:09:22Z</time></trkpt><trkpt lat="39.39949289019389" lon="8.472117861179777"><ele>281.0</ele><time>2026-04-10T14:09:24Z</time></trkpt><trkpt lat="39.39951338249072" lon="8.471981639542397"><ele>282.1666666666667</ele><time>2026-04-10T14:09:26Z</time></trkpt><trkpt lat="39.39947249547939" lon="8.47189573609085"><ele>283.33333333333337</ele><time>2026-04-10T14:09:28Z</time></trkpt><trkpt lat="39.399404738892876" lon="8.471866952056148"><ele>284.5</ele><time>2026-04-10T14:09:29Z</time></trkpt><trkpt lat="39.39931419896853" lon="8.471915727382795"><ele>285.6666666666667</ele><time>2026-04-10T14:09:30Z</time></trkpt><trkpt lat="39.39925604050636" lon="8.47198120366818"><ele>286.8333333333333</ele><time>2026-04-10T14:09:31Z</time></trkpt><trkpt lat="39.399168278641596" lon="8.47208500618662"><ele>288.0</ele><time>2026-04-10T14:09:33Z</time></trkpt><trkpt lat="39.399128010504704" lon="8.472169876664609"><ele>285.1666666666667</ele><time>2026-04-10T14:09:34Z</time></trkpt><trkpt lat="39.39913065599852" lon="8.472294402356885"><ele>282.3333333333333</ele><time>2026-04-10T14:09:36Z</time></trkpt><trkpt lat="39.399183574020086" lon="8.472371626061456"><ele>279.5</ele><time>2026-04-10T14:09:37Z</time></trkpt><trkpt lat="39.399223112341566" lon="8.472439061660523"><ele>276.66666666666663</ele><time>2026-04-10T14:09:38Z</time></trkpt><trkpt lat="39.39929347169268" lon="8.472475711399769"><ele>273.8333333333333</ele><time>2026-04-10T14:09:39Z</time></trkpt><trkpt lat="39.39936958391241" lon="8.472537537239683"><ele>271.0</ele><time>2026-04-10T14:09:41Z</time></trkpt><trkpt lat="39.39942630806344" lon="8.472595311803406"><ele>271.0</ele><time>2026-04-10T14:09:43Z</time></trkpt><trkpt lat="39.39946689003485" lon="8.472661380595843"><ele>271.0</ele><time>2026-04-10T14:09:46Z</time></trkpt><trkpt lat="39.39965121608735" lon="8.472672527446658"><ele>271.0</ele><time>2026-04-10T14:10:52Z</time></trkpt><trkpt lat="39.399736359807825" lon="8.472732230417014"><ele>271.0</ele><time>2026-04-10T14:10:53Z</time></trkpt><trkpt lat="39.39978979027828" lon="8.472844535376918"><ele>271.0</ele><time>2026-04-10T14:10:54Z</time></trkpt><trkpt lat="39.39986222834567" lon="8.472943399417879"><ele>268.40000000000003</ele><time>2026-04-10T14:10:55Z</time></trkpt><trkpt lat="39.39993693665923" lon="8.473047413747908"><ele>265.8</ele><time>2026-04-10T14:10:56Z</time></trkpt><trkpt lat="39.400022100421985" lon="8.473114449833192"><ele>263.20000000000005</ele><time>2026-04-10T14:10:57Z</time></trkpt><trkpt lat="39.40010509831458" lon="8.47317351083828"><ele>260.6</ele><time>2026-04-10T14:10:58Z</time></trkpt><trkpt lat="39.4002161434431" lon="8.473188493530659"><ele>258.0</ele><time>2026-04-10T14:10:59Z</time></trkpt><trkpt lat="39.40032767315413" lon="8.47312047259528"><ele>258.0</ele><time>2026-04-10T14:11:00Z</time></trkpt><trkpt lat="39.40043637425055" lon="8.473062229601089"><ele>258.0</ele><time>2026-04-10T14:11:01Z</time></trkpt><trkpt lat="39.40053526769506" lon="8.473004961695324"><ele>258.0</ele><time>2026-04-10T14:11:02Z</time></trkpt><trkpt lat="39.40063351648076" lon="8.47295523288304"><ele>258.0</ele><time>2026-04-10T14:11:03Z</time></trkpt><trkpt lat="39.40072558477113" lon="8.472919446059679"><ele>258.0</ele><time>2026-04-10T14:11:04Z</time></trkpt><trkpt lat="39.40082391312103" lon="8.472902809584712"><ele>257.8</ele><time>2026-04-10T14:11:05Z</time></trkpt><trkpt lat="39.40093249696248" lon="8.472917093787464"><ele>257.6</ele><time>2026-04-10T14:11:06Z</time></trkpt><trkpt lat="39.40103311152001" lon="8.472957217407565"><ele>257.4</ele><time>2026-04-10T14:11:07Z</time></trkpt><trkpt lat="39.40111993948974" lon="8.473010068462337"><ele>257.2</ele><time>2026-04-10T14:11:08Z</time></trkpt><trkpt lat="39.40119519296041" lon="8.473066804873227"><ele>257.0</ele><time>2026-04-10T14:11:09Z</time></trkpt><trkpt lat="39.40126878483998" lon="8.473106723305138"><ele>256.83333333333337</ele><time>2026-04-10T14:11:10Z</time></trkpt><trkpt lat="39.401337946563494" lon="8.473142922095255"><ele>256.6666666666667</ele><time>2026-04-10T14:11:11Z</time></trkpt><trkpt lat="39.40141407008825" lon="8.473096566327635"><ele>256.5</ele><time>2026-04-10T14:11:12Z</time></trkpt><trkpt lat="39.40148954197583" lon="8.473040464660414"><ele>256.3333333333333</ele><time>2026-04-10T14:11:13Z</time></trkpt><trkpt lat="39.40157094813574" lon="8.472984141630409"><ele>256.16666666666663</ele><time>2026-04-10T14:11:14Z</time></trkpt><trkpt lat="39.401653948645205" lon="8.472926700390465"><ele>256.0</ele><time>2026-04-10T14:11:15Z</time></trkpt><trkpt lat="39.40175685383806" lon="8.47291104273378"><ele>256.0</ele><time>2026-04-10T14:11:16Z</time></trkpt><trkpt lat="39.401857494057865" lon="8.472944190752658"><ele>256.0</ele><time>2026-04-10T14:11:17Z</time></trkpt><trkpt lat="39.40194323972926" lon="8.473016678047731"><ele>256.0</ele><time>2026-04-10T14:11:18Z</time></trkpt><trkpt lat="39.402006262162615" lon="8.473097176006233"><ele>256.0</ele><time>2026-04-10T14:11:19Z</time></trkpt><trkpt lat="39.402074408280036" lon="8.473158453960917"><ele>256.0</ele><time>2026-04-10T14:11:20Z</time></trkpt><trkpt lat="39.402144445331366" lon="8.47321656561821"><ele>255.0</ele><time>2026-04-10T14:11:21Z</time></trkpt><trkpt lat="39.40224442694394" lon="8.47318933642324"><ele>254.00000000000003</ele><time>2026-04-10T14:11:22Z</time></trkpt><trkpt lat="39.40233268050155" lon="8.473096336273176"><ele>253.00000000000003</ele><time>2026-04-10T14:11:23Z</time></trkpt><trkpt lat="39.40240709672448" lon="8.473011732877879"><ele>252.0</ele><time>2026-04-10T14:11:24Z</time></trkpt><trkpt lat="39.40248421262174" lon="8.472961846347753"><ele>251.0</ele><time>2026-04-10T14:11:25Z</time></trkpt><trkpt lat="39.40257893282095" lon="8.472963176930161"><ele>251.0</ele><time>2026-04-10T14:11:26Z</time></trkpt><trkpt lat="39.40267586859293" lon="8.473032268585305"><ele>251.00000000000003</ele><time>2026-04-10T14:11:27Z</time></trkpt><trkpt lat="39.402758137326146" lon="8.473115972338256"><ele>251.00000000000003</ele><time>2026-04-10T14:11:28Z</time></trkpt><trkpt lat="39.402790335900654" lon="8.473238272161865"><ele>251.0</ele><time>2026-04-10T14:11:29Z</time></trkpt><trkpt lat="39.40279587729672" lon="8.473351574750117"><ele>251.0</ele><time>2026-04-10T14:11:30Z</time></trkpt><trkpt lat="39.40281351670771" lon="8.473456306302937"><ele>251.0</ele><time>2026-04-10T14:11:31Z</time></trkpt><trkpt lat="39.40286579679521" lon="8.473569971832392"><ele>251.0</ele><time>2026-04-10T14:11:32Z</time></trkpt><trkpt lat="39.402981588027636" lon="8.473605148954755"><ele>251.0</ele><time>2026-04-10T14:11:33Z</time></trkpt><trkpt lat="39.40309225402275" lon="8.473552291422278"><ele>251.0</ele><time>2026-04-10T14:11:34Z</time></trkpt><trkpt lat="39.4031596977461" lon="8.473400262721874"><ele>249.33333333333334</ele><time>2026-04-10T14:11:35Z</time></trkpt><trkpt lat="39.403230215956896" lon="8.473219061133747"><ele>247.66666666666669</ele><time>2026-04-10T14:11:36Z</time></trkpt><trkpt lat="39.4033022889935" lon="8.473050459797419"><ele>246.0</ele><time>2026-04-10T14:11:37Z</time></trkpt><trkpt lat="39.40338295843913" lon="8.472892033239859"><ele>248.75</ele><time>2026-04-10T14:11:38Z</time></trkpt><trkpt lat="39.4034693439652" lon="8.472742932182731"><ele>251.5</ele><time>2026-04-10T14:11:39Z</time></trkpt><trkpt lat="39.40354949912788" lon="8.472595305318622"><ele>254.25</ele><time>2026-04-10T14:11:40Z</time></trkpt><trkpt lat="39.40363578834835" lon="8.472469559484281"><ele>257.0</ele><time>2026-04-10T14:11:41Z</time></trkpt><trkpt lat="39.40374572824747" lon="8.472392138516529"><ele>252.5</ele><time>2026-04-10T14:11:42Z</time></trkpt><trkpt lat="39.403860346970674" lon="8.472351243693879"><ele>248.0</ele><time>2026-04-10T14:11:43Z</time></trkpt><trkpt lat="39.403990011260795" lon="8.47234083458192"><ele>243.5</ele><time>2026-04-10T14:11:44Z</time></trkpt><trkpt lat="39.404113878116114" lon="8.472363177069328"><ele>239.0</ele><time>2026-04-10T14:11:45Z</time></trkpt><trkpt lat="39.40423938671468" lon="8.47235917474104"><ele>239.0</ele><time>2026-04-10T14:11:46Z</time></trkpt><trkpt lat="39.40436272080859" lon="8.47233935172803"><ele>239.0</ele><time>2026-04-10T14:11:47Z</time></trkpt><trkpt lat="39.40443284991869" lon="8.472279333262064"><ele>239.0</ele><time>2026-04-10T14:11:48Z</time></trkpt><trkpt lat="39.40445774995122" lon="8.472136471982678"><ele>239.0</ele><time>2026-04-10T14:11:49Z</time></trkpt><trkpt lat="39.404476913564416" lon="8.471949202334171"><ele>242.25</ele><time>2026-04-10T14:11:50Z</time></trkpt><trkpt lat="39.40449623756992" lon="8.471771634588874"><ele>245.5</ele><time>2026-04-10T14:11:51Z</time></trkpt><trkpt lat="39.40451440007987" lon="8.471603690311278"><ele>248.75</ele><time>2026-04-10T14:11:52Z</time></trkpt><trkpt lat="39.40455670568569" lon="8.471456104055214"><ele>252.0</ele><time>2026-04-10T14:11:53Z</time></trkpt><trkpt lat="39.40463723391455" lon="8.471328136298132"><ele>251.25</ele><time>2026-04-10T14:11:54Z</time></trkpt><trkpt lat="39.404730894955215" lon="8.47123113889416"><ele>250.5</ele><time>2026-04-10T14:11:55Z</time></trkpt><trkpt lat="39.404830851050626" lon="8.471164637142458"><ele>249.75</ele><time>2026-04-10T14:11:56Z</time></trkpt><trkpt lat="39.40493773107924" lon="8.471179723055474"><ele>249.0</ele><time>2026-04-10T14:11:57Z</time></trkpt><trkpt lat="39.40504847043401" lon="8.471226644479822"><ele>249.0</ele><time>2026-04-10T14:11:58Z</time></trkpt><trkpt lat="39.40517856464675" lon="8.47126889950293"><ele>249.0</ele><time>2026-04-10T14:11:59Z</time></trkpt><trkpt lat="39.40531114980762" lon="8.471261300362926"><ele>249.0</ele><time>2026-04-10T14:12:00Z</time></trkpt><trkpt lat="39.405450480999114" lon="8.471187409671797"><ele>249.0</ele><time>2026-04-10T14:12:01Z</time></trkpt><trkpt lat="39.405573769544276" lon="8.471109256918336"><ele>247.0</ele><time>2026-04-10T14:12:02Z</time></trkpt><trkpt lat="39.40570247055217" lon="8.47103215224919"><ele>245.0</ele><time>2026-04-10T14:12:03Z</time></trkpt><trkpt lat="39.40582755812859" lon="8.470963199952426"><ele>243.0</ele><time>2026-04-10T14:12:04Z</time></trkpt><trkpt lat="39.40594984406023" lon="8.470911737764403"><ele>241.0</ele><time>2026-04-10T14:12:05Z</time></trkpt><trkpt lat="39.40606911759603" lon="8.470878851181773"><ele>241.0</ele><time>2026-04-10T14:12:06Z</time></trkpt><trkpt lat="39.40619060276602" lon="8.47089357787672"><ele>241.0</ele><time>2026-04-10T14:12:07Z</time></trkpt><trkpt lat="39.40629982788968" lon="8.470955723386924"><ele>241.0</ele><time>2026-04-10T14:12:08Z</time></trkpt><trkpt lat="39.406407875547835" lon="8.471038849661587"><ele>241.0</ele><time>2026-04-10T14:12:09Z</time></trkpt><trkpt lat="39.40654501275071" lon="8.471091214570487"><ele>239.0</ele><time>2026-04-10T14:12:10Z</time></trkpt><trkpt lat="39.40671119847448" lon="8.471113097142606"><ele>237.0</ele><time>2026-04-10T14:12:11Z</time></trkpt><trkpt lat="39.40686355495561" lon="8.471112646972186"><ele>235.0</ele><time>2026-04-10T14:12:12Z</time></trkpt><trkpt lat="39.40699763848437" lon="8.471151948132471"><ele>235.0</ele><time>2026-04-10T14:12:13Z</time></trkpt><trkpt lat="39.40710334483527" lon="8.471238050348859"><ele>235.0</ele><time>2026-04-10T14:12:14Z</time></trkpt><trkpt lat="39.407183487934" lon="8.47137319277458"><ele>235.0</ele><time>2026-04-10T14:12:15Z</time></trkpt><trkpt lat="39.40725290472381" lon="8.47152126081213"><ele>235.0</ele><time>2026-04-10T14:12:16Z</time></trkpt><trkpt lat="39.40727442117826" lon="8.471675774064938"><ele>236.75</ele><time>2026-04-10T14:12:17Z</time></trkpt><trkpt lat="39.407236472506135" lon="8.471826310132968"><ele>238.5</ele><time>2026-04-10T14:12:18Z</time></trkpt><trkpt lat="39.40719595799411" lon="8.471974714626874"><ele>240.25</ele><time>2026-04-10T14:12:19Z</time></trkpt><trkpt lat="39.40722537443376" lon="8.472115404244823"><ele>242.0</ele><time>2026-04-10T14:12:20Z</time></trkpt><trkpt lat="39.407321449707894" lon="8.472279139563364"><ele>237.33333333333334</ele><time>2026-04-10T14:12:21Z</time></trkpt><trkpt lat="39.4074504692837" lon="8.472446302319142"><ele>232.66666666666669</ele><time>2026-04-10T14:12:22Z</time></trkpt><trkpt lat="39.407552894210156" lon="8.47259201953349"><ele>228.0</ele><time>2026-04-10T14:12:23Z</time></trkpt><trkpt lat="39.407618808942104" lon="8.47274536479767"><ele>228.0</ele><time>2026-04-10T14:12:24Z</time></trkpt><trkpt lat="39.40766643997114" lon="8.4728852809701"><ele>228.0</ele><time>2026-04-10T14:12:25Z</time></trkpt><trkpt lat="39.40762730426614" lon="8.473083126617833"><ele>228.0</ele><time>2026-04-10T14:12:26Z</time></trkpt><trkpt lat="39.407601068300764" lon="8.473324207696773"><ele>224.25</ele><time>2026-04-10T14:12:27Z</time></trkpt><trkpt lat="39.40757621709171" lon="8.473524111877614"><ele>220.5</ele><time>2026-04-10T14:12:28Z</time></trkpt><trkpt lat="39.40759090577951" lon="8.473688982188193"><ele>216.75</ele><time>2026-04-10T14:12:29Z</time></trkpt><trkpt lat="39.40764840761631" lon="8.473828303562216"><ele>213.0</ele><time>2026-04-10T14:12:30Z</time></trkpt><trkpt lat="39.40776068857422" lon="8.473945172210056"><ele>210.0</ele><time>2026-04-10T14:12:31Z</time></trkpt><trkpt lat="39.407929479026585" lon="8.474037330404071"><ele>207.0</ele><time>2026-04-10T14:12:32Z</time></trkpt><trkpt lat="39.40813415704324" lon="8.474099705999887"><ele>204.0</ele><time>2026-04-10T14:12:33Z</time></trkpt><trkpt lat="39.408361079684624" lon="8.47416629456656"><ele>204.0</ele><time>2026-04-10T14:12:34Z</time></trkpt><trkpt lat="39.40858713587123" lon="8.474245970017884"><ele>204.0</ele><time>2026-04-10T14:12:35Z</time></trkpt><trkpt lat="39.408808499642184" lon="8.474342116653743"><ele>202.0</ele><time>2026-04-10T14:12:36Z</time></trkpt><trkpt lat="39.409010310260264" lon="8.47445308394371"><ele>200.0</ele><time>2026-04-10T14:12:37Z</time></trkpt><trkpt lat="39.40918619613819" lon="8.474574927752354"><ele>198.0</ele><time>2026-04-10T14:12:38Z</time></trkpt><trkpt lat="39.40932564444208" lon="8.474682388430134"><ele>198.0</ele><time>2026-04-10T14:12:39Z</time></trkpt><trkpt lat="39.4094388681301" lon="8.474785184667816"><ele>198.0</ele><time>2026-04-10T14:12:40Z</time></trkpt><trkpt lat="39.409525178832894" lon="8.47490810886685"><ele>198.0</ele><time>2026-04-10T14:12:41Z</time></trkpt><trkpt lat="39.40955245498899" lon="8.475064995008838"><ele>198.0</ele><time>2026-04-10T14:12:42Z</time></trkpt><trkpt lat="39.40956985498769" lon="8.475244481157999"><ele>198.0</ele><time>2026-04-10T14:12:43Z</time></trkpt><trkpt lat="39.40953258485407" lon="8.47541581993675"><ele>198.0</ele><time>2026-04-10T14:12:44Z</time></trkpt><trkpt lat="39.40948045905938" lon="8.475565391300833"><ele>198.0</ele><time>2026-04-10T14:12:45Z</time></trkpt><trkpt lat="39.4094575083684" lon="8.475680805699017"><ele>198.0</ele><time>2026-04-10T14:12:46Z</time></trkpt><trkpt lat="39.40949823090322" lon="8.475786745283882"><ele>198.0</ele><time>2026-04-10T14:12:47Z</time></trkpt><trkpt lat="39.409623073978565" lon="8.475847609225204"><ele>196.0</ele><time>2026-04-10T14:12:48Z</time></trkpt><trkpt lat="39.40979589605392" lon="8.475893740359824"><ele>194.0</ele><time>2026-04-10T14:12:49Z</time></trkpt><trkpt lat="39.40998804609712" lon="8.475900674930777"><ele>192.0</ele><time>2026-04-10T14:12:50Z</time></trkpt><trkpt lat="39.410190383363755" lon="8.475918907320706"><ele>192.0</ele><time>2026-04-10T14:12:51Z</time></trkpt><trkpt lat="39.41040410872641" lon="8.475956173976972"><ele>192.0</ele><time>2026-04-10T14:12:52Z</time></trkpt><trkpt lat="39.410605352185854" lon="8.476014817788204"><ele>192.0</ele><time>2026-04-10T14:12:53Z</time></trkpt><trkpt lat="39.41076914289004" lon="8.476118842263839"><ele>195.0</ele><time>2026-04-10T14:12:54Z</time></trkpt><trkpt lat="39.41090393524652" lon="8.476253822117787"><ele>198.0</ele><time>2026-04-10T14:12:55Z</time></trkpt><trkpt lat="39.41101116261044" lon="8.476435333893967"><ele>201.0</ele><time>2026-04-10T14:12:56Z</time></trkpt><trkpt lat="39.41112658778773" lon="8.476626897671554"><ele>194.66666666666666</ele><time>2026-04-10T14:12:57Z</time></trkpt><trkpt lat="39.411249701268204" lon="8.47677372530464"><ele>188.33333333333331</ele><time>2026-04-10T14:12:58Z</time></trkpt><trkpt lat="39.411402522745114" lon="8.476884065112412"><ele>182.0</ele><time>2026-04-10T14:12:59Z</time></trkpt><trkpt lat="39.41159709818983" lon="8.476955235764958"><ele>182.0</ele><time>2026-04-10T14:13:00Z</time></trkpt><trkpt lat="39.41180523502333" lon="8.47701911560089"><ele>182.0</ele><time>2026-04-10T14:13:01Z</time></trkpt><trkpt lat="39.412009233099106" lon="8.477087763719783"><ele>182.0</ele><time>2026-04-10T14:13:02Z</time></trkpt><trkpt lat="39.41217695338508" lon="8.47720925882611"><ele>179.25</ele><time>2026-04-10T14:13:03Z</time></trkpt><trkpt lat="39.4123277424236" lon="8.47731829868734"><ele>176.5</ele><time>2026-04-10T14:13:04Z</time></trkpt><trkpt lat="39.41246423430032" lon="8.477398621356217"><ele>173.75</ele><time>2026-04-10T14:13:05Z</time></trkpt><trkpt lat="39.41255943712702" lon="8.477485830765495"><ele>171.0</ele><time>2026-04-10T14:13:06Z</time></trkpt><trkpt lat="39.41261916890813" lon="8.477571147003593"><ele>171.0</ele><time>2026-04-10T14:13:07Z</time></trkpt><trkpt lat="39.412609567077276" lon="8.477696718013954"><ele>171.0</ele><time>2026-04-10T14:13:08Z</time></trkpt><trkpt lat="39.41255577743853" lon="8.4778395458091"><ele>171.0</ele><time>2026-04-10T14:13:09Z</time></trkpt><trkpt lat="39.41252081951747" lon="8.478037109153293"><ele>171.0</ele><time>2026-04-10T14:13:10Z</time></trkpt><trkpt lat="39.4125335077468" lon="8.47818880793601"><ele>170.5</ele><time>2026-04-10T14:13:11Z</time></trkpt><trkpt lat="39.41259063326038" lon="8.478330374955616"><ele>170.0</ele><time>2026-04-10T14:13:12Z</time></trkpt><trkpt lat="39.41268577914562" lon="8.478475468808417"><ele>169.5</ele><time>2026-04-10T14:13:13Z</time></trkpt><trkpt lat="39.41276016878502" lon="8.478620500508281"><ele>169.0</ele><time>2026-04-10T14:13:14Z</time></trkpt><trkpt lat="39.41273549586221" lon="8.478815906332315"><ele>168.0</ele><time>2026-04-10T14:13:15Z</time></trkpt><trkpt lat="39.412718539989186" lon="8.479032774117169"><ele>167.0</ele><time>2026-04-10T14:13:16Z</time></trkpt><trkpt lat="39.41271669406429" lon="8.479219674490642"><ele>166.0</ele><time>2026-04-10T14:13:17Z</time></trkpt><trkpt lat="39.4131115339264" lon="8.479640536810475"><ele>165.33333333333334</ele><time>2026-04-10T14:13:21Z</time></trkpt><trkpt lat="39.41323460679878" lon="8.479730514628825"><ele>164.66666666666666</ele><time>2026-04-10T14:13:22Z</time></trkpt><trkpt lat="39.4134128486635" lon="8.479733210047584"><ele>164.0</ele><time>2026-04-10T14:13:23Z</time></trkpt><trkpt lat="39.413509854541445" lon="8.479882238128862"><ele>164.0</ele><time>2026-04-10T14:13:24Z</time></trkpt><trkpt lat="39.41357746490358" lon="8.480029907385982"><ele>164.0</ele><time>2026-04-10T14:13:25Z</time></trkpt><trkpt lat="39.41364830341612" lon="8.480181188163739"><ele>164.0</ele><time>2026-04-10T14:13:26Z</time></trkpt><trkpt lat="39.413721735583465" lon="8.48033250460941"><ele>164.0</ele><time>2026-04-10T14:13:27Z</time></trkpt><trkpt lat="39.41372456841696" lon="8.480518791642638"><ele>161.33333333333331</ele><time>2026-04-10T14:13:28Z</time></trkpt><trkpt lat="39.41373593456466" lon="8.480712809440769"><ele>158.66666666666666</ele><time>2026-04-10T14:13:29Z</time></trkpt><trkpt lat="39.41377398664046" lon="8.480942899347479"><ele>156.0</ele><time>2026-04-10T14:13:30Z</time></trkpt><trkpt lat="39.41385926337186" lon="8.481184706530168"><ele>161.33333333333334</ele><time>2026-04-10T14:13:31Z</time></trkpt><trkpt lat="39.41392801976899" lon="8.481414944686062"><ele>166.66666666666669</ele><time>2026-04-10T14:13:32Z</time></trkpt><trkpt lat="39.41400197066943" lon="8.481645256562722"><ele>172.0</ele><time>2026-04-10T14:13:33Z</time></trkpt><trkpt lat="39.41406339004674" lon="8.481896596203622"><ele>166.66666666666669</ele><time>2026-04-10T14:13:34Z</time></trkpt><trkpt lat="39.41414139005128" lon="8.482117939597401"><ele>161.33333333333334</ele><time>2026-04-10T14:13:35Z</time></trkpt><trkpt lat="39.41421782370076" lon="8.482324909891451"><ele>156.0</ele><time>2026-04-10T14:13:36Z</time></trkpt><trkpt lat="39.41432567311475" lon="8.482471526415477"><ele>156.0</ele><time>2026-04-10T14:13:37Z</time></trkpt><trkpt lat="39.414445020842884" lon="8.482607581450697"><ele>156.0</ele><time>2026-04-10T14:13:38Z</time></trkpt><trkpt lat="39.414514864297416" lon="8.48275404298122"><ele>156.0</ele><time>2026-04-10T14:13:39Z</time></trkpt><trkpt lat="39.4145434878006" lon="8.482932679649805"><ele>156.0</ele><time>2026-04-10T14:13:40Z</time></trkpt><trkpt lat="39.41457216062819" lon="8.483090993049323"><ele>155.75</ele><time>2026-04-10T14:13:41Z</time></trkpt><trkpt lat="39.41454342304737" lon="8.483212951530392"><ele>155.5</ele><time>2026-04-10T14:13:42Z</time></trkpt><trkpt lat="39.41449676124681" lon="8.483384819834882"><ele>155.25</ele><time>2026-04-10T14:13:43Z</time></trkpt><trkpt lat="39.41447496308248" lon="8.483604426666666"><ele>155.0</ele><time>2026-04-10T14:13:44Z</time></trkpt><trkpt lat="39.41448742278031" lon="8.483794225739903"><ele>154.5</ele><time>2026-04-10T14:13:45Z</time></trkpt><trkpt lat="39.414499150039866" lon="8.483967217654733"><ele>154.0</ele><time>2026-04-10T14:13:46Z</time></trkpt><trkpt lat="39.414511111105284" lon="8.484113543851526"><ele>153.5</ele><time>2026-04-10T14:13:47Z</time></trkpt><trkpt lat="39.41452214797939" lon="8.484255460300266"><ele>153.0</ele><time>2026-04-10T14:13:48Z</time></trkpt><trkpt lat="39.414531628091524" lon="8.484389244078255"><ele>153.0</ele><time>2026-04-10T14:13:49Z</time></trkpt><trkpt lat="39.41454011222145" lon="8.484532852584437"><ele>153.0</ele><time>2026-04-10T14:13:50Z</time></trkpt><trkpt lat="39.41454809379661" lon="8.48470167195028"><ele>153.0</ele><time>2026-04-10T14:13:51Z</time></trkpt><trkpt lat="39.41456569892785" lon="8.48488171734689"><ele>153.0</ele><time>2026-04-10T14:13:52Z</time></trkpt><trkpt lat="39.414631043971504" lon="8.485059322617188"><ele>152.33333333333334</ele><time>2026-04-10T14:13:53Z</time></trkpt><trkpt lat="39.414726396780544" lon="8.485257963321192"><ele>151.66666666666669</ele><time>2026-04-10T14:13:54Z</time></trkpt><trkpt lat="39.414854235000654" lon="8.485455006572192"><ele>151.0</ele><time>2026-04-10T14:13:55Z</time></trkpt><trkpt lat="39.41500307050088" lon="8.485634033853449"><ele>151.0</ele><time>2026-04-10T14:13:56Z</time></trkpt><trkpt lat="39.41516554305749" lon="8.485788798883432"><ele>151.0</ele><time>2026-04-10T14:13:57Z</time></trkpt><trkpt lat="39.415335476509675" lon="8.485926448380962"><ele>151.0</ele><time>2026-04-10T14:13:58Z</time></trkpt><trkpt lat="39.41551967610612" lon="8.486070260256758"><ele>150.33333333333334</ele><time>2026-04-10T14:13:59Z</time></trkpt><trkpt lat="39.415701524008796" lon="8.486217547810728"><ele>149.66666666666666</ele><time>2026-04-10T14:14:00Z</time></trkpt><trkpt lat="39.41586532178593" lon="8.486363601233668"><ele>149.0</ele><time>2026-04-10T14:14:01Z</time></trkpt><trkpt lat="39.41602671631118" lon="8.486496814118901"><ele>149.0</ele><time>2026-04-10T14:14:02Z</time></trkpt><trkpt lat="39.41614845494133" lon="8.486663527174205"><ele>149.0</ele><time>2026-04-10T14:14:03Z</time></trkpt><trkpt lat="39.41625317109021" lon="8.486854488255272"><ele>149.0</ele><time>2026-04-10T14:14:04Z</time></trkpt><trkpt lat="39.41636547662361" lon="8.48706274073481"><ele>145.0</ele><time>2026-04-10T14:14:05Z</time></trkpt><trkpt lat="39.416473753407026" lon="8.487257089196554"><ele>141.0</ele><time>2026-04-10T14:14:06Z</time></trkpt><trkpt lat="39.41660049541556" lon="8.487401515610488"><ele>137.0</ele><time>2026-04-10T14:14:07Z</time></trkpt><trkpt lat="39.41672901978471" lon="8.487543735652203"><ele>137.0</ele><time>2026-04-10T14:14:08Z</time></trkpt><trkpt lat="39.41686488150029" lon="8.48767414983278"><ele>137.0</ele><time>2026-04-10T14:14:09Z</time></trkpt><trkpt lat="39.416977081117594" lon="8.487814932989771"><ele>137.0</ele><time>2026-04-10T14:14:10Z</time></trkpt><trkpt lat="39.4170596729945" lon="8.487946460120966"><ele>136.25</ele><time>2026-04-10T14:14:11Z</time></trkpt><trkpt lat="39.41709012072082" lon="8.48809219256951"><ele>135.5</ele><time>2026-04-10T14:14:12Z</time></trkpt><trkpt lat="39.41710704224606" lon="8.48823205941695"><ele>134.75</ele><time>2026-04-10T14:14:13Z</time></trkpt><trkpt lat="39.41708551666345" lon="8.488367752778569"><ele>134.0</ele><time>2026-04-10T14:14:14Z</time></trkpt><trkpt lat="39.417023508588876" lon="8.488501898613036"><ele>134.0</ele><time>2026-04-10T14:14:15Z</time></trkpt><trkpt lat="39.416929615796334" lon="8.488608737546938"><ele>134.0</ele><time>2026-04-10T14:14:16Z</time></trkpt><trkpt lat="39.41685045242956" lon="8.488715638394329"><ele>134.0</ele><time>2026-04-10T14:14:17Z</time></trkpt><trkpt lat="39.416816674211155" lon="8.488819751470386"><ele>134.0</ele><time>2026-04-10T14:14:18Z</time></trkpt><trkpt lat="39.4168539864809" lon="8.488949105015516"><ele>134.0</ele><time>2026-04-10T14:14:19Z</time></trkpt><trkpt lat="39.41697364429597" lon="8.489054067623362"><ele>133.33333333333331</ele><time>2026-04-10T14:14:20Z</time></trkpt><trkpt lat="39.41711773707307" lon="8.489169954605277"><ele>132.66666666666666</ele><time>2026-04-10T14:14:21Z</time></trkpt><trkpt lat="39.41723551982283" lon="8.489341961464731"><ele>132.0</ele><time>2026-04-10T14:14:22Z</time></trkpt><trkpt lat="39.41731058683125" lon="8.489515597331136"><ele>131.5</ele><time>2026-04-10T14:14:23Z</time></trkpt><trkpt lat="39.41734661417959" lon="8.489693728134432"><ele>131.0</ele><time>2026-04-10T14:14:24Z</time></trkpt><trkpt lat="39.417394032380116" lon="8.489823939494029"><ele>130.5</ele><time>2026-04-10T14:14:25Z</time></trkpt><trkpt lat="39.417475996159055" lon="8.489904898178702"><ele>130.0</ele><time>2026-04-10T14:14:26Z</time></trkpt><trkpt lat="39.41756858834881" lon="8.48995600428771"><ele>130.0</ele><time>2026-04-10T14:14:27Z</time></trkpt><trkpt lat="39.417695837988" lon="8.489928435499774"><ele>130.0</ele><time>2026-04-10T14:14:28Z</time></trkpt><trkpt lat="39.417831220023785" lon="8.489842795682558"><ele>130.0</ele><time>2026-04-10T14:14:29Z</time></trkpt><trkpt lat="39.41796650894327" lon="8.489704948180094"><ele>129.75</ele><time>2026-04-10T14:14:30Z</time></trkpt><trkpt lat="39.4180941976267" lon="8.489608344182399"><ele>129.5</ele><time>2026-04-10T14:14:31Z</time></trkpt><trkpt lat="39.41822437679257" lon="8.489564985382664"><ele>129.25</ele><time>2026-04-10T14:14:32Z</time></trkpt><trkpt lat="39.41834357425582" lon="8.489565417302577"><ele>129.0</ele><time>2026-04-10T14:14:33Z</time></trkpt><trkpt lat="39.4184256309986" lon="8.48964907965831"><ele>129.0</ele><time>2026-04-10T14:14:34Z</time></trkpt><trkpt lat="39.41847405351624" lon="8.489759310465766"><ele>129.0</ele><time>2026-04-10T14:14:35Z</time></trkpt><trkpt lat="39.4185259208712" lon="8.489912678436049"><ele>129.0</ele><time>2026-04-10T14:14:36Z</time></trkpt><trkpt lat="39.41858698415904" lon="8.49006427339036"><ele>129.0</ele><time>2026-04-10T14:14:37Z</time></trkpt><trkpt lat="39.41863029183767" lon="8.490210169940813"><ele>129.0</ele><time>2026-04-10T14:14:38Z</time></trkpt><trkpt lat="39.41861962840431" lon="8.490363185553726"><ele>129.0</ele><time>2026-04-10T14:14:39Z</time></trkpt><trkpt lat="39.41856948376253" lon="8.490532051055762"><ele>129.0</ele><time>2026-04-10T14:14:40Z</time></trkpt><trkpt lat="39.418518131216615" lon="8.490735218955358"><ele>129.0</ele><time>2026-04-10T14:14:41Z</time></trkpt><trkpt lat="39.41848123755357" lon="8.490928908410728"><ele>128.5</ele><time>2026-04-10T14:14:42Z</time></trkpt><trkpt lat="39.41843811077569" lon="8.49109682644573"><ele>128.0</ele><time>2026-04-10T14:14:43Z</time></trkpt><trkpt lat="39.41841074422608" lon="8.4912547682918"><ele>127.5</ele><time>2026-04-10T14:14:44Z</time></trkpt><trkpt lat="39.41843661242894" lon="8.49140372550231"><ele>127.0</ele><time>2026-04-10T14:14:45Z</time></trkpt><trkpt lat="39.41852286350477" lon="8.49152237977783"><ele>126.0</ele><time>2026-04-10T14:14:46Z</time></trkpt><trkpt lat="39.41865082738564" lon="8.49160025173854"><ele>125.0</ele><time>2026-04-10T14:14:47Z</time></trkpt><trkpt lat="39.418843049629366" lon="8.49165028158367"><ele>124.0</ele><time>2026-04-10T14:14:48Z</time></trkpt><trkpt lat="39.41901697034874" lon="8.491710031825898"><ele>123.25</ele><time>2026-04-10T14:14:49Z</time></trkpt><trkpt lat="39.41914559807952" lon="8.49180556771313"><ele>122.5</ele><time>2026-04-10T14:14:50Z</time></trkpt><trkpt lat="39.41926645532093" lon="8.49189675604564"><ele>121.75</ele><time>2026-04-10T14:14:51Z</time></trkpt><trkpt lat="39.41933833096383" lon="8.49205674400719"><ele>121.0</ele><time>2026-04-10T14:14:52Z</time></trkpt><trkpt lat="39.41940105289527" lon="8.492221294799625"><ele>121.0</ele><time>2026-04-10T14:14:53Z</time></trkpt><trkpt lat="39.41945871802184" lon="8.492384088389745"><ele>121.0</ele><time>2026-04-10T14:14:54Z</time></trkpt><trkpt lat="39.419473582793344" lon="8.492511177061239"><ele>121.0</ele><time>2026-04-10T14:14:55Z</time></trkpt><trkpt lat="39.41945913548475" lon="8.492633142836082"><ele>121.0</ele><time>2026-04-10T14:14:56Z</time></trkpt><trkpt lat="39.41933364425221" lon="8.49276300488721"><ele>120.25</ele><time>2026-04-10T14:14:57Z</time></trkpt><trkpt lat="39.41926873889926" lon="8.492924781421891"><ele>119.5</ele><time>2026-04-10T14:14:58Z</time></trkpt><trkpt lat="39.41921838305358" lon="8.493046570388415"><ele>118.75</ele><time>2026-04-10T14:14:59Z</time></trkpt><trkpt lat="39.41924188846747" lon="8.49315844363938"><ele>118.0</ele><time>2026-04-10T14:15:00Z</time></trkpt><trkpt lat="39.41931337330828" lon="8.493272112552223"><ele>118.0</ele><time>2026-04-10T14:15:01Z</time></trkpt><trkpt lat="39.419453346554434" lon="8.493373693562289"><ele>118.0</ele><time>2026-04-10T14:15:02Z</time></trkpt><trkpt lat="39.41956405283256" lon="8.493510911354292"><ele>118.0</ele><time>2026-04-10T14:15:03Z</time></trkpt><trkpt lat="39.41962563087941" lon="8.493680630096966"><ele>118.25</ele><time>2026-04-10T14:15:04Z</time></trkpt><trkpt lat="39.41965477751999" lon="8.493877312174895"><ele>118.5</ele><time>2026-04-10T14:15:05Z</time></trkpt><trkpt lat="39.41963850385089" lon="8.49407231317319"><ele>118.75</ele><time>2026-04-10T14:15:06Z</time></trkpt><trkpt lat="39.41966314017616" lon="8.494249879786372"><ele>119.0</ele><time>2026-04-10T14:15:07Z</time></trkpt><trkpt lat="39.41970226688555" lon="8.494398304521756"><ele>121.0</ele><time>2026-04-10T14:15:08Z</time></trkpt><trkpt lat="39.41980128554733" lon="8.49451885608805"><ele>123.0</ele><time>2026-04-10T14:15:09Z</time></trkpt><trkpt lat="39.41996882037328" lon="8.49462823307116"><ele>125.0</ele><time>2026-04-10T14:15:10Z</time></trkpt><trkpt lat="39.42015512314491" lon="8.49474764480033"><ele>124.0</ele><time>2026-04-10T14:15:11Z</time></trkpt><trkpt lat="39.42032535112295" lon="8.494890217156867"><ele>123.0</ele><time>2026-04-10T14:15:12Z</time></trkpt><trkpt lat="39.4204821736424" lon="8.494986064551357"><ele>122.0</ele><time>2026-04-10T14:15:13Z</time></trkpt><trkpt lat="39.420622430885466" lon="8.495108261671424"><ele>122.0</ele><time>2026-04-10T14:15:14Z</time></trkpt><trkpt lat="39.420737911551825" lon="8.495285042910298"><ele>122.0</ele><time>2026-04-10T14:15:15Z</time></trkpt><trkpt lat="39.42083989711671" lon="8.495475108530128"><ele>122.0</ele><time>2026-04-10T14:15:16Z</time></trkpt><trkpt lat="39.420915533147" lon="8.495656635099962"><ele>123.0</ele><time>2026-04-10T14:15:17Z</time></trkpt><trkpt lat="39.420999265260846" lon="8.495801147600908"><ele>124.0</ele><time>2026-04-10T14:15:18Z</time></trkpt><trkpt lat="39.421080921646585" lon="8.495904001295386"><ele>125.0</ele><time>2026-04-10T14:15:19Z</time></trkpt><trkpt lat="39.421187528208385" lon="8.495934769119824"><ele>126.0</ele><time>2026-04-10T14:15:20Z</time></trkpt><trkpt lat="39.421317868011336" lon="8.495908998022728"><ele>126.0</ele><time>2026-04-10T14:15:21Z</time></trkpt><trkpt lat="39.42143257340556" lon="8.495886931326442"><ele>126.0</ele><time>2026-04-10T14:15:22Z</time></trkpt><trkpt lat="39.42153225741022" lon="8.495927519476641"><ele>126.0</ele><time>2026-04-10T14:15:23Z</time></trkpt><trkpt lat="39.42160237429594" lon="8.496044697522134"><ele>126.0</ele><time>2026-04-10T14:15:24Z</time></trkpt><trkpt lat="39.42159505487232" lon="8.496250438813084"><ele>123.33333333333334</ele><time>2026-04-10T14:15:25Z</time></trkpt><trkpt lat="39.42159963714479" lon="8.496435167611647"><ele>120.66666666666667</ele><time>2026-04-10T14:15:26Z</time></trkpt><trkpt lat="39.42157910686405" lon="8.496628370372676"><ele>118.0</ele><time>2026-04-10T14:15:27Z</time></trkpt><trkpt lat="39.421565719848026" lon="8.496837681332526"><ele>118.0</ele><time>2026-04-10T14:15:28Z</time></trkpt><trkpt lat="39.421543871452855" lon="8.497038086757884"><ele>118.0</ele><time>2026-04-10T14:15:29Z</time></trkpt><trkpt lat="39.421546315422496" lon="8.497238697919007"><ele>118.0</ele><time>2026-04-10T14:15:30Z</time></trkpt><trkpt lat="39.4215883006674" lon="8.497435821726544"><ele>115.66666666666667</ele><time>2026-04-10T14:15:31Z</time></trkpt><trkpt lat="39.421675625765296" lon="8.497621009328116"><ele>113.33333333333334</ele><time>2026-04-10T14:15:32Z</time></trkpt><trkpt lat="39.42180372576943" lon="8.49780414538718"><ele>111.0</ele><time>2026-04-10T14:15:33Z</time></trkpt><trkpt lat="39.421957156052805" lon="8.497947095485191"><ele>110.33333333333334</ele><time>2026-04-10T14:15:34Z</time></trkpt><trkpt lat="39.422050282167824" lon="8.498122551352965"><ele>109.66666666666667</ele><time>2026-04-10T14:15:35Z</time></trkpt><trkpt lat="39.422100798372874" lon="8.498306775453337"><ele>109.0</ele><time>2026-04-10T14:15:36Z</time></trkpt><trkpt lat="39.4221361909013" lon="8.498510968378698"><ele>113.33333333333334</ele><time>2026-04-10T14:15:37Z</time></trkpt><trkpt lat="39.422163907850816" lon="8.498745582972214"><ele>117.66666666666666</ele><time>2026-04-10T14:15:38Z</time></trkpt><trkpt lat="39.42219919148383" lon="8.498987755101828"><ele>122.0</ele><time>2026-04-10T14:15:39Z</time></trkpt><trkpt lat="39.422257161969455" lon="8.49922300390055"><ele>122.0</ele><time>2026-04-10T14:15:40Z</time></trkpt><trkpt lat="39.42232845339644" lon="8.499433977082749"><ele>122.0</ele><time>2026-04-10T14:15:41Z</time></trkpt><trkpt lat="39.42241500407973" lon="8.499624937225436"><ele>122.0</ele><time>2026-04-10T14:15:42Z</time></trkpt><trkpt lat="39.42249857912054" lon="8.49979464041983"><ele>119.5</ele><time>2026-04-10T14:15:43Z</time></trkpt><trkpt lat="39.42256368577271" lon="8.499952318393678"><ele>117.0</ele><time>2026-04-10T14:15:44Z</time></trkpt><trkpt lat="39.42259234572424" lon="8.500081157263313"><ele>114.5</ele><time>2026-04-10T14:15:45Z</time></trkpt><trkpt lat="39.42253438616178" lon="8.500201996792399"><ele>112.0</ele><time>2026-04-10T14:15:46Z</time></trkpt><trkpt lat="39.42247330883881" lon="8.500342517569722"><ele>110.0</ele><time>2026-04-10T14:15:47Z</time></trkpt><trkpt lat="39.42243376565767" lon="8.500493092945918"><ele>108.0</ele><time>2026-04-10T14:15:48Z</time></trkpt><trkpt lat="39.42247366357118" lon="8.500654620973279"><ele>106.0</ele><time>2026-04-10T14:15:49Z</time></trkpt><trkpt lat="39.422536699400766" lon="8.500783595799604"><ele>104.0</ele><time>2026-04-10T14:15:50Z</time></trkpt><trkpt lat="39.422650137460934" lon="8.50081750992668"><ele>104.0</ele><time>2026-04-10T14:15:51Z</time></trkpt><trkpt lat="39.422756606034696" lon="8.500813061949998"><ele>104.0</ele><time>2026-04-10T14:15:52Z</time></trkpt><trkpt lat="39.422879313889496" lon="8.500740886679898"><ele>104.0</ele><time>2026-04-10T14:15:53Z</time></trkpt><trkpt lat="39.423073904252924" lon="8.500597653093694"><ele>104.66666666666666</ele><time>2026-04-10T14:15:54Z</time></trkpt><trkpt lat="39.4232393067978" lon="8.500512597794765"><ele>105.33333333333334</ele><time>2026-04-10T14:15:55Z</time></trkpt><trkpt lat="39.423429417480286" lon="8.5004893055573"><ele>106.0</ele><time>2026-04-10T14:15:56Z</time></trkpt><trkpt lat="39.423592686471636" lon="8.500419117684903"><ele>107.33333333333334</ele><time>2026-04-10T14:15:57Z</time></trkpt><trkpt lat="39.42373998598463" lon="8.500322910804543"><ele>108.66666666666666</ele><time>2026-04-10T14:15:58Z</time></trkpt><trkpt lat="39.42388009890646" lon="8.50020466137436"><ele>110.0</ele><time>2026-04-10T14:15:59Z</time></trkpt><trkpt lat="39.424004362344796" lon="8.500096451410657"><ele>110.0</ele><time>2026-04-10T14:16:00Z</time></trkpt><trkpt lat="39.42412540768129" lon="8.500028858607072"><ele>110.0</ele><time>2026-04-10T14:16:01Z</time></trkpt><trkpt lat="39.42422592851659" lon="8.499979655094842"><ele>110.0</ele><time>2026-04-10T14:16:02Z</time></trkpt><trkpt lat="39.424316067985444" lon="8.499990945398048"><ele>110.0</ele><time>2026-04-10T14:16:03Z</time></trkpt><trkpt lat="39.42440209804812" lon="8.500046797909935"><ele>110.0</ele><time>2026-04-10T14:16:04Z</time></trkpt><trkpt lat="39.424449574930556" lon="8.500208277586424"><ele>110.0</ele><time>2026-04-10T14:16:05Z</time></trkpt><trkpt lat="39.42454847809913" lon="8.500365804337449"><ele>110.0</ele><time>2026-04-10T14:16:06Z</time></trkpt><trkpt lat="39.42463426435651" lon="8.500541712089058"><ele>110.0</ele><time>2026-04-10T14:16:07Z</time></trkpt><trkpt lat="39.424731568051065" lon="8.500714185238902"><ele>108.66666666666666</ele><time>2026-04-10T14:16:08Z</time></trkpt><trkpt lat="39.42483046753092" lon="8.500888318764456"><ele>107.33333333333334</ele><time>2026-04-10T14:16:09Z</time></trkpt><trkpt lat="39.42497033808565" lon="8.50101955288004"><ele>106.0</ele><time>2026-04-10T14:16:10Z</time></trkpt><trkpt lat="39.42513622431741" lon="8.501097577000648"><ele>106.0</ele><time>2026-04-10T14:16:11Z</time></trkpt><trkpt lat="39.42530938887457" lon="8.501172530840222"><ele>106.0</ele><time>2026-04-10T14:16:12Z</time></trkpt><trkpt lat="39.4254909784041" lon="8.50119230273094"><ele>106.0</ele><time>2026-04-10T14:16:13Z</time></trkpt><trkpt lat="39.42563237404073" lon="8.501200392125611"><ele>105.25</ele><time>2026-04-10T14:16:14Z</time></trkpt><trkpt lat="39.42573730388411" lon="8.501267057861481"><ele>104.5</ele><time>2026-04-10T14:16:15Z</time></trkpt><trkpt lat="39.42582082205312" lon="8.501347454536955"><ele>103.75</ele><time>2026-04-10T14:16:16Z</time></trkpt><trkpt lat="39.42588404592801" lon="8.501504628874706"><ele>103.0</ele><time>2026-04-10T14:16:17Z</time></trkpt><trkpt lat="39.42595151237275" lon="8.50166225644625"><ele>103.0</ele><time>2026-04-10T14:16:18Z</time></trkpt><trkpt lat="39.42600416027423" lon="8.501808897930223"><ele>103.0</ele><time>2026-04-10T14:16:19Z</time></trkpt><trkpt lat="39.4259836004795" lon="8.501997392494824"><ele>103.0</ele><time>2026-04-10T14:16:20Z</time></trkpt><trkpt lat="39.42594920625186" lon="8.502221818339784"><ele>103.0</ele><time>2026-04-10T14:16:21Z</time></trkpt><trkpt lat="39.42591553742657" lon="8.502455329972623"><ele>100.66666666666667</ele><time>2026-04-10T14:16:22Z</time></trkpt><trkpt lat="39.42587065292419" lon="8.502686963720274"><ele>98.33333333333334</ele><time>2026-04-10T14:16:23Z</time></trkpt><trkpt lat="39.42583866295327" lon="8.50291378375388"><ele>96.0</ele><time>2026-04-10T14:16:24Z</time></trkpt><trkpt lat="39.42583558216603" lon="8.5031212346481"><ele>94.0</ele><time>2026-04-10T14:16:25Z</time></trkpt><trkpt lat="39.42588734443659" lon="8.503326437240318"><ele>92.0</ele><time>2026-04-10T14:16:26Z</time></trkpt><trkpt lat="39.42595958719909" lon="8.503539260982082"><ele>90.0</ele><time>2026-04-10T14:16:27Z</time></trkpt><trkpt lat="39.42603089844643" lon="8.50371880824101"><ele>90.4</ele><time>2026-04-10T14:16:28Z</time></trkpt><trkpt lat="39.42609607315098" lon="8.503865780082167"><ele>90.8</ele><time>2026-04-10T14:16:29Z</time></trkpt><trkpt lat="39.42615874218101" lon="8.503957974361398"><ele>91.19999999999999</ele><time>2026-04-10T14:16:30Z</time></trkpt><trkpt lat="39.42624016218641" lon="8.50399491985359"><ele>91.6</ele><time>2026-04-10T14:16:31Z</time></trkpt><trkpt lat="39.426341136038296" lon="8.503978144351766"><ele>92.0</ele><time>2026-04-10T14:16:32Z</time></trkpt><trkpt lat="39.42645274563625" lon="8.503900488633917"><ele>94.33333333333334</ele><time>2026-04-10T14:16:33Z</time></trkpt><trkpt lat="39.42659187917855" lon="8.503779016733708"><ele>96.66666666666667</ele><time>2026-04-10T14:16:34Z</time></trkpt><trkpt lat="39.426779846379155" lon="8.503607469124075"><ele>99.0</ele><time>2026-04-10T14:16:35Z</time></trkpt><trkpt lat="39.426937360850474" lon="8.503446067980247"><ele>99.0</ele><time>2026-04-10T14:16:36Z</time></trkpt><trkpt lat="39.42708318581012" lon="8.50325975227293"><ele>99.0</ele><time>2026-04-10T14:16:37Z</time></trkpt><trkpt lat="39.42721331018666" lon="8.503070495938912"><ele>99.0</ele><time>2026-04-10T14:16:38Z</time></trkpt><trkpt lat="39.42735837269463" lon="8.502934455386114"><ele>102.33333333333334</ele><time>2026-04-10T14:16:39Z</time></trkpt><trkpt lat="39.427505290029764" lon="8.502841575991631"><ele>105.66666666666667</ele><time>2026-04-10T14:16:40Z</time></trkpt><trkpt lat="39.42768168370707" lon="8.502794505191465"><ele>109.0</ele><time>2026-04-10T14:16:41Z</time></trkpt><trkpt lat="39.42787821690852" lon="8.502734709601603"><ele>101.0</ele><time>2026-04-10T14:16:42Z</time></trkpt><trkpt lat="39.42805842602355" lon="8.502613783649682"><ele>93.0</ele><time>2026-04-10T14:16:43Z</time></trkpt><trkpt lat="39.42825745073622" lon="8.502474137380757"><ele>85.0</ele><time>2026-04-10T14:16:44Z</time></trkpt><trkpt lat="39.42846598192041" lon="8.502337732567343"><ele>85.0</ele><time>2026-04-10T14:16:45Z</time></trkpt><trkpt lat="39.42866699149183" lon="8.502190935121051"><ele>85.0</ele><time>2026-04-10T14:16:46Z</time></trkpt><trkpt lat="39.42885359379946" lon="8.502055752229728"><ele>85.0</ele><time>2026-04-10T14:16:47Z</time></trkpt><trkpt lat="39.42903975091691" lon="8.501949304100638"><ele>84.75</ele><time>2026-04-10T14:16:48Z</time></trkpt><trkpt lat="39.42921943129861" lon="8.501882085906404"><ele>84.5</ele><time>2026-04-10T14:16:49Z</time></trkpt><trkpt lat="39.42935623353686" lon="8.501831851722754"><ele>84.25</ele><time>2026-04-10T14:16:50Z</time></trkpt><trkpt lat="39.42945463221529" lon="8.501774063442996"><ele>84.0</ele><time>2026-04-10T14:16:51Z</time></trkpt><trkpt lat="39.429556708226585" lon="8.501759079387824"><ele>81.83333333333333</ele><time>2026-04-10T14:16:52Z</time></trkpt><trkpt lat="39.4296517486333" lon="8.501754754584569"><ele>79.66666666666667</ele><time>2026-04-10T14:16:53Z</time></trkpt><trkpt lat="39.42973921380496" lon="8.501803665698871"><ele>77.5</ele><time>2026-04-10T14:16:54Z</time></trkpt><trkpt lat="39.42981994351631" lon="8.50180494283488"><ele>75.33333333333334</ele><time>2026-04-10T14:16:55Z</time></trkpt><trkpt lat="39.42988894437852" lon="8.501819286287315"><ele>73.16666666666667</ele><time>2026-04-10T14:16:56Z</time></trkpt><trkpt lat="39.4299650114245" lon="8.501788583831544"><ele>71.0</ele><time>2026-04-10T14:16:57Z</time></trkpt><trkpt lat="39.430041712795976" lon="8.501690073715075"><ele>71.0</ele><time>2026-04-10T14:16:58Z</time></trkpt><trkpt lat="39.43010194345064" lon="8.501592003740841"><ele>71.0</ele><time>2026-04-10T14:16:59Z</time></trkpt><trkpt lat="39.43013040998622" lon="8.501490734435732"><ele>71.0</ele><time>2026-04-10T14:17:00Z</time></trkpt><trkpt lat="39.43012959731396" lon="8.501368622573281"><ele>71.0</ele><time>2026-04-10T14:17:01Z</time></trkpt><trkpt lat="39.43010771420051" lon="8.501238146575247"><ele>71.0</ele><time>2026-04-10T14:17:02Z</time></trkpt><trkpt lat="39.43008737813897" lon="8.50112353270833"><ele>71.8</ele><time>2026-04-10T14:17:03Z</time></trkpt><trkpt lat="39.43009340006912" lon="8.501019291791858"><ele>72.6</ele><time>2026-04-10T14:17:04Z</time></trkpt><trkpt lat="39.43012215458114" lon="8.500911931052293"><ele>73.4</ele><time>2026-04-10T14:17:05Z</time></trkpt><trkpt lat="39.43021314269486" lon="8.500841229091765"><ele>74.2</ele><time>2026-04-10T14:17:06Z</time></trkpt><trkpt lat="39.4303092958183" lon="8.500739971051143"><ele>75.0</ele><time>2026-04-10T14:17:07Z</time></trkpt><trkpt lat="39.43043327548038" lon="8.500636860448086"><ele>74.0</ele><time>2026-04-10T14:17:08Z</time></trkpt><trkpt lat="39.43056615652633" lon="8.500511208271114"><ele>73.0</ele><time>2026-04-10T14:17:09Z</time></trkpt><trkpt lat="39.43069825564257" lon="8.500404533398875"><ele>72.0</ele><time>2026-04-10T14:17:10Z</time></trkpt><trkpt lat="39.430820753259376" lon="8.500309080372167"><ele>75.5</ele><time>2026-04-10T14:17:11Z</time></trkpt><trkpt lat="39.430941003369924" lon="8.500245634102672"><ele>79.0</ele><time>2026-04-10T14:17:12Z</time></trkpt><trkpt lat="39.43107998667917" lon="8.500243681673783"><ele>82.5</ele><time>2026-04-10T14:17:13Z</time></trkpt><trkpt lat="39.431230157551816" lon="8.500315227808064"><ele>86.0</ele><time>2026-04-10T14:17:14Z</time></trkpt><trkpt lat="39.43138996264812" lon="8.500359074091131"><ele>86.0</ele><time>2026-04-10T14:17:15Z</time></trkpt><trkpt lat="39.43154591946671" lon="8.500406099064953"><ele>86.0</ele><time>2026-04-10T14:17:16Z</time></trkpt><trkpt lat="39.431688023037594" lon="8.500444918189665"><ele>86.0</ele><time>2026-04-10T14:17:17Z</time></trkpt><trkpt lat="39.43182257382358" lon="8.500492090511335"><ele>86.0</ele><time>2026-04-10T14:17:18Z</time></trkpt><trkpt lat="39.431943229381574" lon="8.500542735308152"><ele>83.0</ele><time>2026-04-10T14:17:19Z</time></trkpt><trkpt lat="39.432053114488326" lon="8.50059018584532"><ele>80.0</ele><time>2026-04-10T14:17:20Z</time></trkpt><trkpt lat="39.432158921958596" lon="8.50063767486203"><ele>77.0</ele><time>2026-04-10T14:17:21Z</time></trkpt><trkpt lat="39.43225874285197" lon="8.500682388409286"><ele>74.0</ele><time>2026-04-10T14:17:22Z</time></trkpt><trkpt lat="39.43235244023222" lon="8.500749812698407"><ele>71.0</ele><time>2026-04-10T14:17:23Z</time></trkpt><trkpt lat="39.43245564406234" lon="8.500803145545445"><ele>71.0</ele><time>2026-04-10T14:17:24Z</time></trkpt><trkpt lat="39.43256639171965" lon="8.500860979119386"><ele>71.0</ele><time>2026-04-10T14:17:25Z</time></trkpt><trkpt lat="39.43267005940563" lon="8.500943422189032"><ele>71.0</ele><time>2026-04-10T14:17:26Z</time></trkpt><trkpt lat="39.432770498824055" lon="8.501022629635186"><ele>71.0</ele><time>2026-04-10T14:17:27Z</time></trkpt><trkpt lat="39.43285812267408" lon="8.501099646626239"><ele>71.0</ele><time>2026-04-10T14:17:28Z</time></trkpt><trkpt lat="39.43293586730654" lon="8.50117229660601"><ele>71.0</ele><time>2026-04-10T14:17:29Z</time></trkpt><trkpt lat="39.43301451515685" lon="8.501217633544389"><ele>71.0</ele><time>2026-04-10T14:17:30Z</time></trkpt><trkpt lat="39.43311904780445" lon="8.501222664014023"><ele>71.0</ele><time>2026-04-10T14:17:31Z</time></trkpt><trkpt lat="39.43321718240926" lon="8.501175922853978"><ele>71.0</ele><time>2026-04-10T14:17:32Z</time></trkpt><trkpt lat="39.433299389692834" lon="8.501100386724682"><ele>70.0</ele><time>2026-04-10T14:17:33Z</time></trkpt><trkpt lat="39.43335364278362" lon="8.501001353766354"><ele>69.0</ele><time>2026-04-10T14:17:34Z</time></trkpt><trkpt lat="39.43339148700319" lon="8.500855299705078"><ele>68.0</ele><time>2026-04-10T14:17:35Z</time></trkpt><trkpt lat="39.433463459145955" lon="8.500719663746162"><ele>67.0</ele><time>2026-04-10T14:17:36Z</time></trkpt><trkpt lat="39.43352285071639" lon="8.50058147412518"><ele>67.0</ele><time>2026-04-10T14:17:37Z</time></trkpt><trkpt lat="39.43358625289197" lon="8.500448766212113"><ele>67.0</ele><time>2026-04-10T14:17:38Z</time></trkpt><trkpt lat="39.433656682401754" lon="8.500325973215084"><ele>67.0</ele><time>2026-04-10T14:17:39Z</time></trkpt><trkpt lat="39.43375280991202" lon="8.500229095525983"><ele>67.0</ele><time>2026-04-10T14:17:40Z</time></trkpt><trkpt lat="39.43385479208349" lon="8.500144232874282"><ele>66.6</ele><time>2026-04-10T14:17:41Z</time></trkpt><trkpt lat="39.43395726118354" lon="8.500070462309091"><ele>66.2</ele><time>2026-04-10T14:17:42Z</time></trkpt><trkpt lat="39.43405057895302" lon="8.500023021254442"><ele>65.8</ele><time>2026-04-10T14:17:43Z</time></trkpt><trkpt lat="39.43414675034955" lon="8.500003820600725"><ele>65.4</ele><time>2026-04-10T14:17:44Z</time></trkpt><trkpt lat="39.434252712436404" lon="8.500059497151053"><ele>65.0</ele><time>2026-04-10T14:17:45Z</time></trkpt><trkpt lat="39.434369913814685" lon="8.500075299552284"><ele>65.0</ele><time>2026-04-10T14:17:46Z</time></trkpt><trkpt lat="39.434470662401104" lon="8.500107650830804"><ele>65.0</ele><time>2026-04-10T14:17:47Z</time></trkpt><trkpt lat="39.43453837433191" lon="8.500142700033777"><ele>65.0</ele><time>2026-04-10T14:17:48Z</time></trkpt><trkpt lat="39.43460511483179" lon="8.500153845373704"><ele>65.0</ele><time>2026-04-10T14:17:49Z</time></trkpt><trkpt lat="39.434720335797024" lon="8.50016074112985"><ele>65.0</ele><time>2026-04-10T14:17:51Z</time></trkpt><trkpt lat="39.43478367007118" lon="8.500156690631753"><ele>65.0</ele><time>2026-04-10T14:17:52Z</time></trkpt><trkpt lat="39.4348577689151" lon="8.500156860050913"><ele>64.6</ele><time>2026-04-10T14:17:53Z</time></trkpt><trkpt lat="39.43494046478445" lon="8.500095461891522"><ele>64.2</ele><time>2026-04-10T14:17:54Z</time></trkpt><trkpt lat="39.435008088473424" lon="8.500001436976758"><ele>63.8</ele><time>2026-04-10T14:17:55Z</time></trkpt><trkpt lat="39.43506482970131" lon="8.499935594300233"><ele>63.4</ele><time>2026-04-10T14:17:56Z</time></trkpt><trkpt lat="39.43511356630617" lon="8.499877026168987"><ele>63.0</ele><time>2026-04-10T14:17:57Z</time></trkpt><trkpt lat="39.435216275761064" lon="8.499774618096247"><ele>63.0</ele><time>2026-04-10T14:17:59Z</time></trkpt><trkpt lat="39.43528351020773" lon="8.499699689058444"><ele>63.0</ele><time>2026-04-10T14:18:00Z</time></trkpt><trkpt lat="39.43535544659492" lon="8.499617010196756"><ele>63.0</ele><time>2026-04-10T14:18:01Z</time></trkpt><trkpt lat="39.43543155796935" lon="8.499530492076994"><ele>63.0</ele><time>2026-04-10T14:18:02Z</time></trkpt><trkpt lat="39.43550516785093" lon="8.499440821708584"><ele>63.0</ele><time>2026-04-10T14:18:03Z</time></trkpt><trkpt lat="39.43558553833763" lon="8.499340566692414"><ele>63.8</ele><time>2026-04-10T14:18:04Z</time></trkpt><trkpt lat="39.43567293955408" lon="8.499237743823482"><ele>64.6</ele><time>2026-04-10T14:18:05Z</time></trkpt><trkpt lat="39.43573953422881" lon="8.499132222798561"><ele>65.4</ele><time>2026-04-10T14:18:06Z</time></trkpt><trkpt lat="39.43579827388677" lon="8.499034754225239"><ele>66.2</ele><time>2026-04-10T14:18:07Z</time></trkpt><trkpt lat="39.435852929616146" lon="8.498937314608614"><ele>67.0</ele><time>2026-04-10T14:18:08Z</time></trkpt><trkpt lat="39.435912565228826" lon="8.49885478048385"><ele>67.0</ele><time>2026-04-10T14:18:09Z</time></trkpt><trkpt lat="39.43595545893968" lon="8.498761709986729"><ele>67.0</ele><time>2026-04-10T14:18:10Z</time></trkpt><trkpt lat="39.436004682202125" lon="8.4986821286969"><ele>67.0</ele><time>2026-04-10T14:18:11Z</time></trkpt><trkpt lat="39.43604863609469" lon="8.498590659517255"><ele>67.0</ele><time>2026-04-10T14:18:12Z</time></trkpt><trkpt lat="39.43609214956725" lon="8.498508150033713"><ele>67.0</ele><time>2026-04-10T14:18:13Z</time></trkpt><trkpt lat="39.43614101445314" lon="8.498422360881186"><ele>67.0</ele><time>2026-04-10T14:18:14Z</time></trkpt><trkpt lat="39.436188826718016" lon="8.498327290089989"><ele>66.8</ele><time>2026-04-10T14:18:15Z</time></trkpt><trkpt lat="39.43624798789033" lon="8.498239181803635"><ele>66.6</ele><time>2026-04-10T14:18:16Z</time></trkpt><trkpt lat="39.43631332459223" lon="8.498147814623112"><ele>66.39999999999999</ele><time>2026-04-10T14:18:17Z</time></trkpt><trkpt lat="39.436384680690914" lon="8.498057162933986"><ele>66.2</ele><time>2026-04-10T14:18:18Z</time></trkpt><trkpt lat="39.43644744624166" lon="8.497973099080722"><ele>66.0</ele><time>2026-04-10T14:18:19Z</time></trkpt><trkpt lat="39.4365065422034" lon="8.497905668015413"><ele>65.33333333333333</ele><time>2026-04-10T14:18:20Z</time></trkpt><trkpt lat="39.436547030875694" lon="8.497841893643757"><ele>64.66666666666667</ele><time>2026-04-10T14:18:21Z</time></trkpt><trkpt lat="39.43659159341537" lon="8.497780635853035"><ele>64.0</ele><time>2026-04-10T14:18:22Z</time></trkpt><trkpt lat="39.43667874352596" lon="8.497667889290252"><ele>63.333333333333336</ele><time>2026-04-10T14:18:24Z</time></trkpt><trkpt lat="39.43674139847631" lon="8.49760426805997"><ele>62.66666666666667</ele><time>2026-04-10T14:18:25Z</time></trkpt><trkpt lat="39.436804522637566" lon="8.497539253223803"><ele>62.0</ele><time>2026-04-10T14:18:26Z</time></trkpt><trkpt lat="39.43686992927732" lon="8.497474187809216"><ele>62.00000000000001</ele><time>2026-04-10T14:18:27Z</time></trkpt><trkpt lat="39.43694313934849" lon="8.497404894369241"><ele>62.0</ele><time>2026-04-10T14:18:28Z</time></trkpt><trkpt lat="39.43700584391062" lon="8.49733119584822"><ele>62.0</ele><time>2026-04-10T14:18:29Z</time></trkpt><trkpt lat="39.43706740264808" lon="8.49726585834808"><ele>62.0</ele><time>2026-04-10T14:18:30Z</time></trkpt><trkpt lat="39.437139159821704" lon="8.497200046974466"><ele>62.00000000000001</ele><time>2026-04-10T14:18:31Z</time></trkpt><trkpt lat="39.4372014350459" lon="8.497128053870847"><ele>62.0</ele><time>2026-04-10T14:18:32Z</time></trkpt><trkpt lat="39.43726171611814" lon="8.497058643571167"><ele>62.333333333333336</ele><time>2026-04-10T14:18:33Z</time></trkpt><trkpt lat="39.43732102733143" lon="8.496995953342426"><ele>62.66666666666667</ele><time>2026-04-10T14:18:34Z</time></trkpt><trkpt lat="39.4373875431533" lon="8.496943076837598"><ele>63.0</ele><time>2026-04-10T14:18:35Z</time></trkpt><trkpt lat="39.437443268712165" lon="8.49688032987606"><ele>63.33333333333333</ele><time>2026-04-10T14:18:36Z</time></trkpt><trkpt lat="39.437505646216465" lon="8.496818851750398"><ele>63.666666666666664</ele><time>2026-04-10T14:18:37Z</time></trkpt><trkpt lat="39.437562540428736" lon="8.496751686199572"><ele>64.0</ele><time>2026-04-10T14:18:38Z</time></trkpt><trkpt lat="39.43762890820533" lon="8.496686347039233"><ele>64.0</ele><time>2026-04-10T14:18:39Z</time></trkpt><trkpt lat="39.43769449140468" lon="8.49661546210935"><ele>64.0</ele><time>2026-04-10T14:18:40Z</time></trkpt><trkpt lat="39.437755985982356" lon="8.49654348149044"><ele>64.0</ele><time>2026-04-10T14:18:41Z</time></trkpt><trkpt lat="39.437820876949225" lon="8.496457291433119"><ele>64.0</ele><time>2026-04-10T14:18:42Z</time></trkpt><trkpt lat="39.43787701159992" lon="8.496355404001738"><ele>64.0</ele><time>2026-04-10T14:18:43Z</time></trkpt><trkpt lat="39.43793204337509" lon="8.496253107452299"><ele>64.4</ele><time>2026-04-10T14:18:44Z</time></trkpt><trkpt lat="39.43798090588147" lon="8.496137960016231"><ele>64.80000000000001</ele><time>2026-04-10T14:18:45Z</time></trkpt><trkpt lat="39.43802508502143" lon="8.496023193133993"><ele>65.19999999999999</ele><time>2026-04-10T14:18:46Z</time></trkpt><trkpt lat="39.43807670841046" lon="8.49591400257317"><ele>65.6</ele><time>2026-04-10T14:18:47Z</time></trkpt><trkpt lat="39.438124582797904" lon="8.49580206292152"><ele>66.0</ele><time>2026-04-10T14:18:48Z</time></trkpt><trkpt lat="39.438157174356476" lon="8.495676302559875"><ele>66.0</ele><time>2026-04-10T14:18:49Z</time></trkpt><trkpt lat="39.43818852816404" lon="8.495550906919888"><ele>66.0</ele><time>2026-04-10T14:18:50Z</time></trkpt><trkpt lat="39.43823346353971" lon="8.495436848504887"><ele>66.0</ele><time>2026-04-10T14:18:51Z</time></trkpt><trkpt lat="39.43828562614643" lon="8.495329089742638"><ele>66.0</ele><time>2026-04-10T14:18:52Z</time></trkpt><trkpt lat="39.43833280135433" lon="8.495220627826091"><ele>66.0</ele><time>2026-04-10T14:18:53Z</time></trkpt><trkpt lat="39.43838761997024" lon="8.495112431720658"><ele>64.6</ele><time>2026-04-10T14:18:54Z</time></trkpt><trkpt lat="39.438447854233054" lon="8.495002438623684"><ele>63.199999999999996</ele><time>2026-04-10T14:18:55Z</time></trkpt><trkpt lat="39.438510454622126" lon="8.49491016624161"><ele>61.800000000000004</ele><time>2026-04-10T14:18:56Z</time></trkpt><trkpt lat="39.43856787748" lon="8.49481126439112"><ele>60.400000000000006</ele><time>2026-04-10T14:18:57Z</time></trkpt><trkpt lat="39.438632881508305" lon="8.49473778395335"><ele>59.0</ele><time>2026-04-10T14:18:58Z</time></trkpt><trkpt lat="39.43868514600045" lon="8.494669029793586"><ele>59.0</ele><time>2026-04-10T14:18:59Z</time></trkpt><trkpt lat="39.43873687215609" lon="8.494613192442547"><ele>59.00000000000001</ele><time>2026-04-10T14:19:00Z</time></trkpt><trkpt lat="39.43881828362751" lon="8.494514371801873"><ele>59.00000000000001</ele><time>2026-04-10T14:19:02Z</time></trkpt><trkpt lat="39.438895622199794" lon="8.494383589370722"><ele>59.0</ele><time>2026-04-10T14:19:04Z</time></trkpt><trkpt lat="39.43895377463521" lon="8.494314512732249"><ele>59.0</ele><time>2026-04-10T14:19:05Z</time></trkpt><trkpt lat="39.43901120213356" lon="8.494250770717812"><ele>58.66666666666667</ele><time>2026-04-10T14:19:06Z</time></trkpt><trkpt lat="39.43905726319773" lon="8.494186202886336"><ele>58.333333333333336</ele><time>2026-04-10T14:19:07Z</time></trkpt><trkpt lat="39.439100000441606" lon="8.494121393433398"><ele>58.0</ele><time>2026-04-10T14:19:08Z</time></trkpt><trkpt lat="39.43917097109925" lon="8.49400946999271"><ele>57.66666666666667</ele><time>2026-04-10T14:19:10Z</time></trkpt><trkpt lat="39.43921308703404" lon="8.493948259095681"><ele>57.333333333333336</ele><time>2026-04-10T14:19:11Z</time></trkpt><trkpt lat="39.439256105800496" lon="8.493862346383878"><ele>57.0</ele><time>2026-04-10T14:19:12Z</time></trkpt><trkpt lat="39.43930715754559" lon="8.493803796672323"><ele>57.0</ele><time>2026-04-10T14:19:13Z</time></trkpt><trkpt lat="39.43935568567272" lon="8.493694065573877"><ele>57.0</ele><time>2026-04-10T14:19:15Z</time></trkpt><trkpt lat="39.439424060394295" lon="8.493610676774267"><ele>57.0</ele><time>2026-04-10T14:19:17Z</time></trkpt><trkpt lat="39.4394934121149" lon="8.493500095573747"><ele>57.0</ele><time>2026-04-10T14:19:19Z</time></trkpt><trkpt lat="39.43954885349623" lon="8.493412459529818"><ele>57.0</ele><time>2026-04-10T14:19:21Z</time></trkpt><trkpt lat="39.43959455800742" lon="8.493340216155412"><ele>57.2</ele><time>2026-04-10T14:19:24Z</time></trkpt><trkpt lat="39.43965410780506" lon="8.493269163723417"><ele>57.400000000000006</ele><time>2026-04-10T14:19:28Z</time></trkpt><trkpt lat="39.43973964001491" lon="8.49324735444995"><ele>57.599999999999994</ele><time>2026-04-10T14:19:31Z</time></trkpt><trkpt lat="39.43978873140096" lon="8.493195110531436"><ele>57.8</ele><time>2026-04-10T14:19:35Z</time></trkpt><trkpt lat="39.4397362053202" lon="8.493000325372492"><ele>58.0</ele><time>2026-04-10T14:26:29Z</time></trkpt><trkpt lat="39.43988341851939" lon="8.492880182682843"><ele>57.25</ele><time>2026-04-10T14:26:30Z</time></trkpt><trkpt lat="39.439971834213175" lon="8.492727570987798"><ele>56.5</ele><time>2026-04-10T14:26:31Z</time></trkpt><trkpt lat="39.440083991122" lon="8.492576527148268"><ele>55.75</ele><time>2026-04-10T14:26:32Z</time></trkpt><trkpt lat="39.44015722152168" lon="8.492462187812007"><ele>55.0</ele><time>2026-04-10T14:26:33Z</time></trkpt><trkpt lat="39.44024460017267" lon="8.492295799374816"><ele>55.0</ele><time>2026-04-10T14:26:34Z</time></trkpt><trkpt lat="39.440357610270226" lon="8.492119800095267"><ele>55.0</ele><time>2026-04-10T14:26:35Z</time></trkpt><trkpt lat="39.44047262536498" lon="8.49194162401356"><ele>55.0</ele><time>2026-04-10T14:26:36Z</time></trkpt><trkpt lat="39.440600332514485" lon="8.491782478762298"><ele>55.0</ele><time>2026-04-10T14:26:37Z</time></trkpt><trkpt lat="39.44070930595501" lon="8.491636641323709"><ele>55.0</ele><time>2026-04-10T14:26:38Z</time></trkpt><trkpt lat="39.440836722008434" lon="8.491477351146578"><ele>55.0</ele><time>2026-04-10T14:26:39Z</time></trkpt><trkpt lat="39.440964279132714" lon="8.491310968249584"><ele>54.33333333333333</ele><time>2026-04-10T14:26:40Z</time></trkpt><trkpt lat="39.44111517350307" lon="8.491206451815014"><ele>53.66666666666667</ele><time>2026-04-10T14:26:41Z</time></trkpt><trkpt lat="39.441243723758696" lon="8.491092714894924"><ele>53.0</ele><time>2026-04-10T14:26:42Z</time></trkpt><trkpt lat="39.44136397406986" lon="8.49098559811407"><ele>54.0</ele><time>2026-04-10T14:26:43Z</time></trkpt><trkpt lat="39.44147405051993" lon="8.490885618562668"><ele>55.0</ele><time>2026-04-10T14:26:44Z</time></trkpt><trkpt lat="39.441581021309126" lon="8.490781907930568"><ele>56.0</ele><time>2026-04-10T14:26:45Z</time></trkpt><trkpt lat="39.44169153837424" lon="8.490660066168987"><ele>57.0</ele><time>2026-04-10T14:26:46Z</time></trkpt><trkpt lat="39.44182046156504" lon="8.490520793398302"><ele>55.66666666666667</ele><time>2026-04-10T14:26:47Z</time></trkpt><trkpt lat="39.441932507789446" lon="8.49035247693948"><ele>54.333333333333336</ele><time>2026-04-10T14:26:48Z</time></trkpt><trkpt lat="39.442024314529775" lon="8.490198966834695"><ele>53.0</ele><time>2026-04-10T14:26:49Z</time></trkpt><trkpt lat="39.44210624942934" lon="8.490041610069246"><ele>53.333333333333336</ele><time>2026-04-10T14:26:50Z</time></trkpt><trkpt lat="39.442205774649224" lon="8.489874664576258"><ele>53.66666666666667</ele><time>2026-04-10T14:26:51Z</time></trkpt><trkpt lat="39.44232250761551" lon="8.489671992902084"><ele>54.0</ele><time>2026-04-10T14:26:52Z</time></trkpt><trkpt lat="39.44244669681668" lon="8.489434963558091"><ele>53.0</ele><time>2026-04-10T14:26:53Z</time></trkpt><trkpt lat="39.442619416580705" lon="8.48912227610027"><ele>52.0</ele><time>2026-04-10T14:26:54Z</time></trkpt><trkpt lat="39.442789334269705" lon="8.488874357878016"><ele>52.0</ele><time>2026-04-10T14:26:55Z</time></trkpt><trkpt lat="39.44296731570383" lon="8.488632402810135"><ele>52.0</ele><time>2026-04-10T14:26:56Z</time></trkpt><trkpt lat="39.44309676687665" lon="8.488429310476754"><ele>52.0</ele><time>2026-04-10T14:26:57Z</time></trkpt><trkpt lat="39.44322645310149" lon="8.488244247844781"><ele>52.0</ele><time>2026-04-10T14:26:58Z</time></trkpt><trkpt lat="39.443392698654456" lon="8.48805009414253"><ele>52.0</ele><time>2026-04-10T14:26:59Z</time></trkpt><trkpt lat="39.443550808129025" lon="8.487859585221988"><ele>51.33333333333333</ele><time>2026-04-10T14:27:00Z</time></trkpt><trkpt lat="39.44369268446726" lon="8.487666286595447"><ele>50.66666666666667</ele><time>2026-04-10T14:27:01Z</time></trkpt><trkpt lat="39.44381480012931" lon="8.487466864610013"><ele>50.0</ele><time>2026-04-10T14:27:02Z</time></trkpt><trkpt lat="39.44392272604946" lon="8.48726982965228"><ele>49.0</ele><time>2026-04-10T14:27:03Z</time></trkpt><trkpt lat="39.44403744059123" lon="8.487066166349383"><ele>48.0</ele><time>2026-04-10T14:27:04Z</time></trkpt><trkpt lat="39.44416555542976" lon="8.486847255027453"><ele>47.0</ele><time>2026-04-10T14:27:05Z</time></trkpt><trkpt lat="39.44429481003113" lon="8.486623880798856"><ele>47.0</ele><time>2026-04-10T14:27:06Z</time></trkpt><trkpt lat="39.44442520034067" lon="8.486403963358757"><ele>47.0</ele><time>2026-04-10T14:27:07Z</time></trkpt><trkpt lat="39.44454661279134" lon="8.486194230982937"><ele>47.0</ele><time>2026-04-10T14:27:08Z</time></trkpt><trkpt lat="39.444659563452376" lon="8.485998991841615"><ele>47.33333333333333</ele><time>2026-04-10T14:27:09Z</time></trkpt><trkpt lat="39.44477359874652" lon="8.485817369220886"><ele>47.666666666666664</ele><time>2026-04-10T14:27:10Z</time></trkpt><trkpt lat="39.44488086638177" lon="8.485645891499765"><ele>48.0</ele><time>2026-04-10T14:27:11Z</time></trkpt><trkpt lat="39.44500288117073" lon="8.485474744605426"><ele>48.0</ele><time>2026-04-10T14:27:12Z</time></trkpt><trkpt lat="39.44514922833603" lon="8.485306827275117"><ele>48.0</ele><time>2026-04-10T14:27:13Z</time></trkpt><trkpt lat="39.445324205402976" lon="8.485130562464079"><ele>48.0</ele><time>2026-04-10T14:27:14Z</time></trkpt><trkpt lat="39.445504198635106" lon="8.484940340128363"><ele>48.0</ele><time>2026-04-10T14:27:15Z</time></trkpt><trkpt lat="39.445680368647444" lon="8.484751760890404"><ele>48.0</ele><time>2026-04-10T14:27:16Z</time></trkpt><trkpt lat="39.445854081841674" lon="8.48456796961415"><ele>46.666666666666664</ele><time>2026-04-10T14:27:17Z</time></trkpt><trkpt lat="39.446015861392446" lon="8.484400356147944"><ele>45.33333333333333</ele><time>2026-04-10T14:27:18Z</time></trkpt><trkpt lat="39.44616680954804" lon="8.484244892717715"><ele>44.0</ele><time>2026-04-10T14:27:19Z</time></trkpt><trkpt lat="39.44629761060928" lon="8.484094852684343"><ele>44.25</ele><time>2026-04-10T14:27:20Z</time></trkpt><trkpt lat="39.4464031900356" lon="8.48393195805805"><ele>44.5</ele><time>2026-04-10T14:27:21Z</time></trkpt><trkpt lat="39.44647679909111" lon="8.483765664978952"><ele>44.75</ele><time>2026-04-10T14:27:22Z</time></trkpt><trkpt lat="39.44654023670936" lon="8.483610961232024"><ele>45.0</ele><time>2026-04-10T14:27:23Z</time></trkpt><trkpt lat="39.44661943435961" lon="8.48348715530203"><ele>45.0</ele><time>2026-04-10T14:27:24Z</time></trkpt><trkpt lat="39.44670544117878" lon="8.48339229878541"><ele>45.0</ele><time>2026-04-10T14:27:25Z</time></trkpt><trkpt lat="39.4468093205069" lon="8.483316114085879"><ele>45.0</ele><time>2026-04-10T14:27:26Z</time></trkpt><trkpt lat="39.4469505755695" lon="8.483239587665485"><ele>45.0</ele><time>2026-04-10T14:27:27Z</time></trkpt><trkpt lat="39.4471119885304" lon="8.4831721691835"><ele>46.66666666666667</ele><time>2026-04-10T14:27:28Z</time></trkpt><trkpt lat="39.44728976915687" lon="8.483122220241043"><ele>48.333333333333336</ele><time>2026-04-10T14:27:29Z</time></trkpt><trkpt lat="39.44747590685459" lon="8.483096038154072"><ele>50.0</ele><time>2026-04-10T14:27:30Z</time></trkpt><trkpt lat="39.44766968413981" lon="8.48307371177823"><ele>50.0</ele><time>2026-04-10T14:27:31Z</time></trkpt><trkpt lat="39.44787432177633" lon="8.483046291325376"><ele>50.0</ele><time>2026-04-10T14:27:32Z</time></trkpt><trkpt lat="39.44807724168524" lon="8.483024977676047"><ele>50.0</ele><time>2026-04-10T14:27:33Z</time></trkpt><trkpt lat="39.448279452537214" lon="8.48301357665123"><ele>49.333333333333336</ele><time>2026-04-10T14:27:34Z</time></trkpt><trkpt lat="39.4484928783003" lon="8.483024774523043"><ele>48.66666666666667</ele><time>2026-04-10T14:27:35Z</time></trkpt><trkpt lat="39.44872546396835" lon="8.483058948464596"><ele>48.0</ele><time>2026-04-10T14:27:36Z</time></trkpt><trkpt lat="39.44897368718312" lon="8.483099534246627"><ele>46.0</ele><time>2026-04-10T14:27:37Z</time></trkpt><trkpt lat="39.449221648886855" lon="8.483128062351776"><ele>44.0</ele><time>2026-04-10T14:27:38Z</time></trkpt><trkpt lat="39.449465348293685" lon="8.483151353016884"><ele>43.5</ele><time>2026-04-10T14:27:39Z</time></trkpt><trkpt lat="39.449708500288786" lon="8.48317157533791"><ele>43.0</ele><time>2026-04-10T14:27:40Z</time></trkpt><trkpt lat="39.44995478253505" lon="8.48319364898043"><ele>43.0</ele><time>2026-04-10T14:27:41Z</time></trkpt><trkpt lat="39.450193886009046" lon="8.483207856420186"><ele>43.0</ele><time>2026-04-10T14:27:42Z</time></trkpt><trkpt lat="39.45041603302489" lon="8.483216831298561"><ele>43.66666666666667</ele><time>2026-04-10T14:27:43Z</time></trkpt><trkpt lat="39.45062297339779" lon="8.483227514784515"><ele>44.333333333333336</ele><time>2026-04-10T14:27:44Z</time></trkpt><trkpt lat="39.45081353297788" lon="8.483238878265372"><ele>45.0</ele><time>2026-04-10T14:27:45Z</time></trkpt><trkpt lat="39.4509839464943" lon="8.483253972466398"><ele>45.0</ele><time>2026-04-10T14:27:46Z</time></trkpt><trkpt lat="39.45113285743048" lon="8.483256313879583"><ele>45.0</ele><time>2026-04-10T14:27:47Z</time></trkpt><trkpt lat="39.451264451946436" lon="8.483236937552686"><ele>45.0</ele><time>2026-04-10T14:27:48Z</time></trkpt><trkpt lat="39.45138134253868" lon="8.483178950381504"><ele>45.0</ele><time>2026-04-10T14:27:49Z</time></trkpt><trkpt lat="39.451497761861006" lon="8.483068470221285"><ele>44.0</ele><time>2026-04-10T14:27:50Z</time></trkpt><trkpt lat="39.4516264129923" lon="8.482900706140907"><ele>43.0</ele><time>2026-04-10T14:27:51Z</time></trkpt><trkpt lat="39.45175825260434" lon="8.482723161935711"><ele>42.0</ele><time>2026-04-10T14:27:52Z</time></trkpt><trkpt lat="39.451890216266825" lon="8.482550099199667"><ele>42.0</ele><time>2026-04-10T14:27:53Z</time></trkpt><trkpt lat="39.452030226937836" lon="8.482364817057002"><ele>42.0</ele><time>2026-04-10T14:27:54Z</time></trkpt><trkpt lat="39.45217020312293" lon="8.482156289942024"><ele>42.0</ele><time>2026-04-10T14:27:55Z</time></trkpt><trkpt lat="39.45229320746904" lon="8.481916103596467"><ele>47.5</ele><time>2026-04-10T14:27:56Z</time></trkpt><trkpt lat="39.45238836092058" lon="8.481651092300398"><ele>53.0</ele><time>2026-04-10T14:27:57Z</time></trkpt><trkpt lat="39.452487658871355" lon="8.48138720937781"><ele>47.0</ele><time>2026-04-10T14:27:58Z</time></trkpt><trkpt lat="39.45259037764872" lon="8.48111806868183"><ele>41.0</ele><time>2026-04-10T14:27:59Z</time></trkpt><trkpt lat="39.45267782191613" lon="8.480847806987766"><ele>41.0</ele><time>2026-04-10T14:28:00Z</time></trkpt><trkpt lat="39.45275424287683" lon="8.480577321110305"><ele>41.0</ele><time>2026-04-10T14:28:01Z</time></trkpt><trkpt lat="39.45282491500166" lon="8.48033013683636"><ele>41.0</ele><time>2026-04-10T14:28:02Z</time></trkpt><trkpt lat="39.452888824875195" lon="8.480113778235657"><ele>40.5</ele><time>2026-04-10T14:28:03Z</time></trkpt><trkpt lat="39.4529472429225" lon="8.47993570504571"><ele>40.0</ele><time>2026-04-10T14:28:04Z</time></trkpt><trkpt lat="39.45300002355712" lon="8.479785870326017"><ele>39.5</ele><time>2026-04-10T14:28:05Z</time></trkpt><trkpt lat="39.453055011409646" lon="8.47965916461609"><ele>39.0</ele><time>2026-04-10T14:28:06Z</time></trkpt><trkpt lat="39.453110926178596" lon="8.479537262528869"><ele>39.0</ele><time>2026-04-10T14:28:07Z</time></trkpt><trkpt lat="39.45315951568054" lon="8.479431783022907"><ele>39.0</ele><time>2026-04-10T14:28:08Z</time></trkpt><trkpt lat="39.453191097913965" lon="8.47934458397205"><ele>39.0</ele><time>2026-04-10T14:28:09Z</time></trkpt><trkpt lat="39.453261467128904" lon="8.479233646274059"><ele>39.0</ele><time>2026-04-10T14:28:11Z</time></trkpt><trkpt lat="39.45316012603089" lon="8.479084131514602"><ele>39.0</ele><time>2026-04-10T14:28:12Z</time></trkpt><trkpt lat="39.453077911330105" lon="8.479013904264212"><ele>39.0</ele><time>2026-04-10T14:28:13Z</time></trkpt><trkpt lat="39.4529670055996" lon="8.478981299716288"><ele>39.0</ele><time>2026-04-10T14:28:14Z</time></trkpt><trkpt lat="39.452809535906844" lon="8.478970353936967"><ele>39.0</ele><time>2026-04-10T14:28:15Z</time></trkpt><trkpt lat="39.452664067002914" lon="8.478928963243211"><ele>39.0</ele><time>2026-04-10T14:28:16Z</time></trkpt><trkpt lat="39.452513737280185" lon="8.478894478016855"><ele>37.666666666666664</ele><time>2026-04-10T14:28:17Z</time></trkpt><trkpt lat="39.45234606948235" lon="8.478856015477954"><ele>36.33333333333333</ele><time>2026-04-10T14:28:18Z</time></trkpt><trkpt lat="39.45217596659307" lon="8.478816994294741"><ele>35.0</ele><time>2026-04-10T14:28:19Z</time></trkpt><trkpt lat="39.4520109140843" lon="8.478778499920436"><ele>35.0</ele><time>2026-04-10T14:28:20Z</time></trkpt><trkpt lat="39.45184955450613" lon="8.478722517896836"><ele>35.0</ele><time>2026-04-10T14:28:21Z</time></trkpt><trkpt lat="39.45169090965323" lon="8.47864786294806"><ele>35.0</ele><time>2026-04-10T14:28:22Z</time></trkpt><trkpt lat="39.4515371045753" lon="8.478568257243206"><ele>35.0</ele><time>2026-04-10T14:28:23Z</time></trkpt><trkpt lat="39.45138260214113" lon="8.478506693593268"><ele>35.0</ele><time>2026-04-10T14:28:24Z</time></trkpt><trkpt lat="39.451252432694176" lon="8.478420471284872"><ele>35.0</ele><time>2026-04-10T14:28:25Z</time></trkpt><trkpt lat="39.451115963123605" lon="8.478384317402663"><ele>35.0</ele><time>2026-04-10T14:28:26Z</time></trkpt><trkpt lat="39.450987570454004" lon="8.478405482502634"><ele>35.6</ele><time>2026-04-10T14:28:27Z</time></trkpt><trkpt lat="39.45086479430139" lon="8.478414630030262"><ele>36.2</ele><time>2026-04-10T14:28:28Z</time></trkpt><trkpt lat="39.45075646879457" lon="8.478403177977398"><ele>36.8</ele><time>2026-04-10T14:28:29Z</time></trkpt><trkpt lat="39.45067242703071" lon="8.478327734552353"><ele>37.4</ele><time>2026-04-10T14:28:30Z</time></trkpt><trkpt lat="39.450600339311805" lon="8.47824177264537"><ele>38.0</ele><time>2026-04-10T14:28:31Z</time></trkpt><trkpt lat="39.45053272133095" lon="8.478120888524971"><ele>38.0</ele><time>2026-04-10T14:28:32Z</time></trkpt><trkpt lat="39.45050854051887" lon="8.477944702117034"><ele>38.0</ele><time>2026-04-10T14:28:33Z</time></trkpt><trkpt lat="39.450456082626346" lon="8.477755440089755"><ele>38.0</ele><time>2026-04-10T14:28:34Z</time></trkpt><trkpt lat="39.45042841090108" lon="8.477547827130202"><ele>38.0</ele><time>2026-04-10T14:28:35Z</time></trkpt><trkpt lat="39.450389078671805" lon="8.477338057452247"><ele>38.0</ele><time>2026-04-10T14:28:36Z</time></trkpt><trkpt lat="39.450343064293925" lon="8.477122725480966"><ele>38.0</ele><time>2026-04-10T14:28:37Z</time></trkpt><trkpt lat="39.45029487798301" lon="8.476901719047248"><ele>38.0</ele><time>2026-04-10T14:28:38Z</time></trkpt><trkpt lat="39.45025384984396" lon="8.47668967047087"><ele>38.0</ele><time>2026-04-10T14:28:39Z</time></trkpt><trkpt lat="39.45021290489476" lon="8.476489093641293"><ele>38.0</ele><time>2026-04-10T14:28:40Z</time></trkpt><trkpt lat="39.45017297050158" lon="8.476292170933881"><ele>38.0</ele><time>2026-04-10T14:28:41Z</time></trkpt><trkpt lat="39.45013587357273" lon="8.476093897282592"><ele>38.0</ele><time>2026-04-10T14:28:42Z</time></trkpt><trkpt lat="39.45011358590676" lon="8.475897111563482"><ele>38.0</ele><time>2026-04-10T14:28:43Z</time></trkpt><trkpt lat="39.45011746003661" lon="8.475700608617776"><ele>38.0</ele><time>2026-04-10T14:28:44Z</time></trkpt><trkpt lat="39.4501484750536" lon="8.475505464240834"><ele>38.0</ele><time>2026-04-10T14:28:45Z</time></trkpt><trkpt lat="39.45019328766887" lon="8.475304859113661"><ele>38.0</ele><time>2026-04-10T14:28:46Z</time></trkpt><trkpt lat="39.4502320649927" lon="8.475098318043026"><ele>40.0</ele><time>2026-04-10T14:28:47Z</time></trkpt><trkpt lat="39.450265478423546" lon="8.474878111926296"><ele>42.0</ele><time>2026-04-10T14:28:48Z</time></trkpt><trkpt lat="39.450297717918005" lon="8.474655535630895"><ele>44.0</ele><time>2026-04-10T14:28:49Z</time></trkpt><trkpt lat="39.4503246691651" lon="8.474434860688794"><ele>44.0</ele><time>2026-04-10T14:28:50Z</time></trkpt><trkpt lat="39.45034502890856" lon="8.474207129830761"><ele>44.0</ele><time>2026-04-10T14:28:51Z</time></trkpt><trkpt lat="39.450353260912394" lon="8.47397042027477"><ele>44.0</ele><time>2026-04-10T14:28:52Z</time></trkpt><trkpt lat="39.45034821272798" lon="8.473729781771155"><ele>45.0</ele><time>2026-04-10T14:28:53Z</time></trkpt><trkpt lat="39.45035481730616" lon="8.473486830280187"><ele>46.0</ele><time>2026-04-10T14:28:54Z</time></trkpt><trkpt lat="39.45038354364179" lon="8.473245733774704"><ele>47.0</ele><time>2026-04-10T14:28:55Z</time></trkpt><trkpt lat="39.45042949756522" lon="8.473014689248068"><ele>41.0</ele><time>2026-04-10T14:28:56Z</time></trkpt><trkpt lat="39.45047321642109" lon="8.472796954574822"><ele>35.0</ele><time>2026-04-10T14:28:57Z</time></trkpt><trkpt lat="39.4504986984272" lon="8.472591531634146"><ele>29.0</ele><time>2026-04-10T14:28:58Z</time></trkpt><trkpt lat="39.45050364738672" lon="8.472398986713538"><ele>29.0</ele><time>2026-04-10T14:28:59Z</time></trkpt><trkpt lat="39.45050564113163" lon="8.472207147051042"><ele>29.0</ele><time>2026-04-10T14:29:00Z</time></trkpt><trkpt lat="39.45049262042943" lon="8.471990581694364"><ele>29.0</ele><time>2026-04-10T14:29:01Z</time></trkpt><trkpt lat="39.45047054359855" lon="8.471749183020851"><ele>35.0</ele><time>2026-04-10T14:29:02Z</time></trkpt><trkpt lat="39.4504485396388" lon="8.471487821996604"><ele>41.0</ele><time>2026-04-10T14:29:03Z</time></trkpt><trkpt lat="39.45043260745852" lon="8.47123294047505"><ele>47.0</ele><time>2026-04-10T14:29:04Z</time></trkpt><trkpt lat="39.450421176493734" lon="8.470979967957419"><ele>47.33333333333333</ele><time>2026-04-10T14:29:05Z</time></trkpt><trkpt lat="39.4504064349182" lon="8.470717525258461"><ele>47.666666666666664</ele><time>2026-04-10T14:29:06Z</time></trkpt><trkpt lat="39.45038884261916" lon="8.470457227688238"><ele>48.0</ele><time>2026-04-10T14:29:07Z</time></trkpt><trkpt lat="39.45036702170551" lon="8.470192412340692"><ele>48.0</ele><time>2026-04-10T14:29:08Z</time></trkpt><trkpt lat="39.45033861866841" lon="8.469929055184696"><ele>48.0</ele><time>2026-04-10T14:29:09Z</time></trkpt><trkpt lat="39.450311822527716" lon="8.469672618813194"><ele>48.0</ele><time>2026-04-10T14:29:10Z</time></trkpt><trkpt lat="39.450284974708985" lon="8.469412049620352"><ele>45.0</ele><time>2026-04-10T14:29:11Z</time></trkpt><trkpt lat="39.45026119215238" lon="8.469157961904472"><ele>42.0</ele><time>2026-04-10T14:29:12Z</time></trkpt><trkpt lat="39.45024466196205" lon="8.468916617683163"><ele>39.0</ele><time>2026-04-10T14:29:13Z</time></trkpt><trkpt lat="39.45024231050512" lon="8.468689909972213"><ele>37.25</ele><time>2026-04-10T14:29:14Z</time></trkpt><trkpt lat="39.450252254159" lon="8.4684812236524"><ele>35.5</ele><time>2026-04-10T14:29:15Z</time></trkpt><trkpt lat="39.45024593979927" lon="8.468285489818578"><ele>33.75</ele><time>2026-04-10T14:29:16Z</time></trkpt><trkpt lat="39.45019993046163" lon="8.468121044761082"><ele>32.0</ele><time>2026-04-10T14:29:17Z</time></trkpt><trkpt lat="39.45010954487239" lon="8.467986383987347"><ele>30.666666666666664</ele><time>2026-04-10T14:29:18Z</time></trkpt><trkpt lat="39.449981442004415" lon="8.467884126982927"><ele>29.333333333333336</ele><time>2026-04-10T14:29:19Z</time></trkpt><trkpt lat="39.4498076969457" lon="8.467853395218318"><ele>28.0</ele><time>2026-04-10T14:29:20Z</time></trkpt><trkpt lat="39.44962512820271" lon="8.467875843927882"><ele>27.333333333333336</ele><time>2026-04-10T14:29:21Z</time></trkpt><trkpt lat="39.449427469210114" lon="8.467903895340573"><ele>26.666666666666664</ele><time>2026-04-10T14:29:22Z</time></trkpt><trkpt lat="39.44923927522347" lon="8.467930949533828"><ele>26.0</ele><time>2026-04-10T14:29:23Z</time></trkpt><trkpt lat="39.44905092716067" lon="8.467911515594546"><ele>26.0</ele><time>2026-04-10T14:29:24Z</time></trkpt><trkpt lat="39.4488567506006" lon="8.467821179379843"><ele>26.0</ele><time>2026-04-10T14:29:25Z</time></trkpt><trkpt lat="39.44866220920478" lon="8.467735707797322"><ele>26.0</ele><time>2026-04-10T14:29:26Z</time></trkpt><trkpt lat="39.44846654664307" lon="8.467650685429751"><ele>27.0</ele><time>2026-04-10T14:29:27Z</time></trkpt><trkpt lat="39.44828603890539" lon="8.467567023609044"><ele>28.0</ele><time>2026-04-10T14:29:28Z</time></trkpt><trkpt lat="39.448115011183766" lon="8.46748291304934"><ele>29.0</ele><time>2026-04-10T14:29:29Z</time></trkpt><trkpt lat="39.44795430111837" lon="8.467350493006098"><ele>29.0</ele><time>2026-04-10T14:29:30Z</time></trkpt><trkpt lat="39.44781328975542" lon="8.467162267600175"><ele>29.0</ele><time>2026-04-10T14:29:31Z</time></trkpt><trkpt lat="39.44767051402962" lon="8.466977790279767"><ele>29.0</ele><time>2026-04-10T14:29:32Z</time></trkpt><trkpt lat="39.447545994511046" lon="8.466812242082055"><ele>29.0</ele><time>2026-04-10T14:29:33Z</time></trkpt><trkpt lat="39.4474645217489" lon="8.466620213677324"><ele>29.0</ele><time>2026-04-10T14:29:34Z</time></trkpt><trkpt lat="39.44742111701841" lon="8.46642002191073"><ele>29.0</ele><time>2026-04-10T14:29:35Z</time></trkpt><trkpt lat="39.44741353717121" lon="8.46620177901148"><ele>28.333333333333332</ele><time>2026-04-10T14:29:36Z</time></trkpt><trkpt lat="39.4474234367869" lon="8.465963598114215"><ele>27.666666666666664</ele><time>2026-04-10T14:29:37Z</time></trkpt><trkpt lat="39.44742486849553" lon="8.465731048278625"><ele>27.0</ele><time>2026-04-10T14:29:38Z</time></trkpt><trkpt lat="39.44741939478927" lon="8.46549151595673"><ele>26.333333333333336</ele><time>2026-04-10T14:29:39Z</time></trkpt><trkpt lat="39.44740434958829" lon="8.46524516064151"><ele>25.666666666666668</ele><time>2026-04-10T14:29:40Z</time></trkpt><trkpt lat="39.44737215577717" lon="8.464973643154758"><ele>25.0</ele><time>2026-04-10T14:29:41Z</time></trkpt><trkpt lat="39.44732147214527" lon="8.464685934360407"><ele>24.0</ele><time>2026-04-10T14:29:42Z</time></trkpt><trkpt lat="39.447267368700736" lon="8.46439525174954"><ele>23.0</ele><time>2026-04-10T14:29:43Z</time></trkpt><trkpt lat="39.44721656933419" lon="8.464111097370255"><ele>23.0</ele><time>2026-04-10T14:29:44Z</time></trkpt><trkpt lat="39.44717078320012" lon="8.463847327376612"><ele>23.0</ele><time>2026-04-10T14:29:45Z</time></trkpt><trkpt lat="39.44712739170745" lon="8.463593911404606"><ele>23.0</ele><time>2026-04-10T14:29:46Z</time></trkpt><trkpt lat="39.447086997048" lon="8.46335310766566"><ele>23.0</ele><time>2026-04-10T14:29:47Z</time></trkpt><trkpt lat="39.44704731093604" lon="8.463121176566894"><ele>23.0</ele><time>2026-04-10T14:29:48Z</time></trkpt><trkpt lat="39.44701185344767" lon="8.462903801458646"><ele>23.0</ele><time>2026-04-10T14:29:49Z</time></trkpt><trkpt lat="39.44698855704342" lon="8.462698822827237"><ele>23.0</ele><time>2026-04-10T14:29:50Z</time></trkpt><trkpt lat="39.44698619297998" lon="8.462490549136074"><ele>23.0</ele><time>2026-04-10T14:29:51Z</time></trkpt><trkpt lat="39.44701866044244" lon="8.46227577464987"><ele>23.0</ele><time>2026-04-10T14:29:52Z</time></trkpt><trkpt lat="39.4470844916977" lon="8.462049589688025"><ele>23.0</ele><time>2026-04-10T14:29:53Z</time></trkpt><trkpt lat="39.44717031983356" lon="8.461799388844353"><ele>23.0</ele><time>2026-04-10T14:29:54Z</time></trkpt><trkpt lat="39.447250736350036" lon="8.461565573319312"><ele>23.0</ele><time>2026-04-10T14:29:55Z</time></trkpt><trkpt lat="39.4473270537276" lon="8.461327051837161"><ele>24.666666666666668</ele><time>2026-04-10T14:29:56Z</time></trkpt><trkpt lat="39.447404483971034" lon="8.461076309036109"><ele>26.333333333333336</ele><time>2026-04-10T14:29:57Z</time></trkpt><trkpt lat="39.44748886353364" lon="8.460809739440544"><ele>28.0</ele><time>2026-04-10T14:29:58Z</time></trkpt><trkpt lat="39.44756963428379" lon="8.460559248568437"><ele>31.0</ele><time>2026-04-10T14:29:59Z</time></trkpt><trkpt lat="39.44765189469642" lon="8.460308869126981"><ele>34.0</ele><time>2026-04-10T14:30:00Z</time></trkpt><trkpt lat="39.44773635517398" lon="8.460065757109907"><ele>37.0</ele><time>2026-04-10T14:30:01Z</time></trkpt><trkpt lat="39.4478238795161" lon="8.459825592044014"><ele>33.333333333333336</ele><time>2026-04-10T14:30:02Z</time></trkpt><trkpt lat="39.44792225139791" lon="8.459591687513617"><ele>29.666666666666664</ele><time>2026-04-10T14:30:03Z</time></trkpt><trkpt lat="39.44802477073279" lon="8.45936555485317"><ele>26.0</ele><time>2026-04-10T14:30:04Z</time></trkpt><trkpt lat="39.44811909174731" lon="8.459146546806345"><ele>26.0</ele><time>2026-04-10T14:30:05Z</time></trkpt><trkpt lat="39.4481987715999" lon="8.458930173647806"><ele>26.0</ele><time>2026-04-10T14:30:06Z</time></trkpt><trkpt lat="39.448265480826876" lon="8.458700080293847"><ele>26.0</ele><time>2026-04-10T14:30:07Z</time></trkpt><trkpt lat="39.448309981936504" lon="8.458475395891096"><ele>27.0</ele><time>2026-04-10T14:30:08Z</time></trkpt><trkpt lat="39.44834016419327" lon="8.458261267486657"><ele>28.0</ele><time>2026-04-10T14:30:09Z</time></trkpt><trkpt lat="39.448381279633615" lon="8.458041993367882"><ele>29.0</ele><time>2026-04-10T14:30:10Z</time></trkpt><trkpt lat="39.44843640371285" lon="8.457821688985552"><ele>30.333333333333332</ele><time>2026-04-10T14:30:11Z</time></trkpt><trkpt lat="39.44850329454415" lon="8.457598260722659"><ele>31.666666666666664</ele><time>2026-04-10T14:30:12Z</time></trkpt><trkpt lat="39.44859428367995" lon="8.45737559541352"><ele>33.0</ele><time>2026-04-10T14:30:13Z</time></trkpt><trkpt lat="39.4487067971317" lon="8.457157454105017"><ele>31.333333333333336</ele><time>2026-04-10T14:30:14Z</time></trkpt><trkpt lat="39.44883769875844" lon="8.456946548947338"><ele>29.666666666666668</ele><time>2026-04-10T14:30:15Z</time></trkpt><trkpt lat="39.44897270163709" lon="8.456731996757547"><ele>28.0</ele><time>2026-04-10T14:30:16Z</time></trkpt><trkpt lat="39.44909868680942" lon="8.456522787140008"><ele>28.0</ele><time>2026-04-10T14:30:17Z</time></trkpt><trkpt lat="39.4492141801295" lon="8.456326497043667"><ele>28.0</ele><time>2026-04-10T14:30:18Z</time></trkpt><trkpt lat="39.449324102214554" lon="8.4561367393434"><ele>28.0</ele><time>2026-04-10T14:30:19Z</time></trkpt><trkpt lat="39.44942494956048" lon="8.455951171300276"><ele>32.0</ele><time>2026-04-10T14:30:20Z</time></trkpt><trkpt lat="39.44950168863864" lon="8.455761966913842"><ele>36.0</ele><time>2026-04-10T14:30:21Z</time></trkpt><trkpt lat="39.449554562286" lon="8.455552191036965"><ele>40.0</ele><time>2026-04-10T14:30:22Z</time></trkpt><trkpt lat="39.44958477921386" lon="8.45531864154671"><ele>43.0</ele><time>2026-04-10T14:30:23Z</time></trkpt><trkpt lat="39.44961170688897" lon="8.45506236603855"><ele>46.0</ele><time>2026-04-10T14:30:24Z</time></trkpt><trkpt lat="39.44964474540281" lon="8.454795807714685"><ele>49.0</ele><time>2026-04-10T14:30:25Z</time></trkpt><trkpt lat="39.44968281237509" lon="8.4545327569675"><ele>40.0</ele><time>2026-04-10T14:30:26Z</time></trkpt><trkpt lat="39.44970823335383" lon="8.454266592607395"><ele>31.0</ele><time>2026-04-10T14:30:27Z</time></trkpt><trkpt lat="39.449708222746814" lon="8.453996016061689"><ele>22.0</ele><time>2026-04-10T14:30:28Z</time></trkpt><trkpt lat="39.449685553537876" lon="8.453724841654484"><ele>21.333333333333332</ele><time>2026-04-10T14:30:29Z</time></trkpt><trkpt lat="39.44966075801743" lon="8.453448742337462"><ele>20.666666666666668</ele><time>2026-04-10T14:30:30Z</time></trkpt><trkpt lat="39.449638861034565" lon="8.45316988243919"><ele>20.0</ele><time>2026-04-10T14:30:31Z</time></trkpt><trkpt lat="39.449620086399406" lon="8.452890244127985"><ele>25.0</ele><time>2026-04-10T14:30:32Z</time></trkpt><trkpt lat="39.44960157902266" lon="8.452621084623143"><ele>30.0</ele><time>2026-04-10T14:30:33Z</time></trkpt><trkpt lat="39.449582707977754" lon="8.45237119150081"><ele>35.0</ele><time>2026-04-10T14:30:34Z</time></trkpt><trkpt lat="39.44956489576599" lon="8.452137207159069"><ele>33.666666666666664</ele><time>2026-04-10T14:30:35Z</time></trkpt><trkpt lat="39.44955119001265" lon="8.451924229975095"><ele>32.333333333333336</ele><time>2026-04-10T14:30:36Z</time></trkpt><trkpt lat="39.44954728290582" lon="8.45172644250024"><ele>31.0</ele><time>2026-04-10T14:30:37Z</time></trkpt><trkpt lat="39.449568793673876" lon="8.451541757035695"><ele>31.0</ele><time>2026-04-10T14:30:38Z</time></trkpt><trkpt lat="39.44961974718965" lon="8.45136075823275"><ele>31.0</ele><time>2026-04-10T14:30:39Z</time></trkpt><trkpt lat="39.449684655565555" lon="8.451169869119305"><ele>31.0</ele><time>2026-04-10T14:30:40Z</time></trkpt><trkpt lat="39.44975046812089" lon="8.450961805062116"><ele>27.333333333333336</ele><time>2026-04-10T14:30:41Z</time></trkpt><trkpt lat="39.44981367988781" lon="8.450758369303191"><ele>23.666666666666668</ele><time>2026-04-10T14:30:42Z</time></trkpt><trkpt lat="39.44987350366185" lon="8.450563525780895"><ele>20.0</ele><time>2026-04-10T14:30:43Z</time></trkpt><trkpt lat="39.44992949495007" lon="8.450378160699573"><ele>20.0</ele><time>2026-04-10T14:30:44Z</time></trkpt><trkpt lat="39.44998023750926" lon="8.45019832673576"><ele>20.0</ele><time>2026-04-10T14:30:45Z</time></trkpt><trkpt lat="39.45001308120926" lon="8.450028498262546"><ele>20.0</ele><time>2026-04-10T14:30:46Z</time></trkpt><trkpt lat="39.450012749598194" lon="8.449859291007002"><ele>20.0</ele><time>2026-04-10T14:30:47Z</time></trkpt><trkpt lat="39.449968439163555" lon="8.449683041759133"><ele>19.0</ele><time>2026-04-10T14:30:48Z</time></trkpt><trkpt lat="39.449876018951244" lon="8.449509115283862"><ele>18.0</ele><time>2026-04-10T14:30:49Z</time></trkpt><trkpt lat="39.44975526037522" lon="8.449315718428057"><ele>17.0</ele><time>2026-04-10T14:30:50Z</time></trkpt><trkpt lat="39.44962885157646" lon="8.44912987031313"><ele>16.666666666666668</ele><time>2026-04-10T14:30:51Z</time></trkpt><trkpt lat="39.44950300551846" lon="8.448976290039193"><ele>16.333333333333332</ele><time>2026-04-10T14:30:52Z</time></trkpt><trkpt lat="39.449398400770804" lon="8.448814873545242"><ele>16.0</ele><time>2026-04-10T14:30:53Z</time></trkpt><trkpt lat="39.44929832150772" lon="8.448664899637716"><ele>16.0</ele><time>2026-04-10T14:30:54Z</time></trkpt><trkpt lat="39.4491669071948" lon="8.448561340057074"><ele>16.0</ele><time>2026-04-10T14:30:55Z</time></trkpt><trkpt lat="39.44900256125876" lon="8.448488269070296"><ele>16.0</ele><time>2026-04-10T14:30:56Z</time></trkpt><trkpt lat="39.44881559333432" lon="8.448418704906173"><ele>16.666666666666664</ele><time>2026-04-10T14:30:57Z</time></trkpt><trkpt lat="39.44862173743437" lon="8.448345624006992"><ele>17.333333333333332</ele><time>2026-04-10T14:30:58Z</time></trkpt><trkpt lat="39.44843500531535" lon="8.448275228528622"><ele>18.0</ele><time>2026-04-10T14:30:59Z</time></trkpt><trkpt lat="39.44823888368247" lon="8.448201102523173"><ele>18.0</ele><time>2026-04-10T14:31:00Z</time></trkpt><trkpt lat="39.448031960045626" lon="8.448142270531951"><ele>18.0</ele><time>2026-04-10T14:31:01Z</time></trkpt><trkpt lat="39.44784228683149" lon="8.448067299794396"><ele>18.0</ele><time>2026-04-10T14:31:02Z</time></trkpt><trkpt lat="39.447649971080246" lon="8.447995566216282"><ele>17.666666666666668</ele><time>2026-04-10T14:31:03Z</time></trkpt><trkpt lat="39.447464358573754" lon="8.447928265403059"><ele>17.333333333333336</ele><time>2026-04-10T14:31:04Z</time></trkpt><trkpt lat="39.44729128494101" lon="8.447859789920736"><ele>17.0</ele><time>2026-04-10T14:31:05Z</time></trkpt><trkpt lat="39.44712495987832" lon="8.447794495502345"><ele>17.0</ele><time>2026-04-10T14:31:06Z</time></trkpt><trkpt lat="39.44696695222331" lon="8.447725443036083"><ele>17.0</ele><time>2026-04-10T14:31:07Z</time></trkpt><trkpt lat="39.44682532183102" lon="8.447633472068686"><ele>17.0</ele><time>2026-04-10T14:31:08Z</time></trkpt><trkpt lat="39.44669867342844" lon="8.447509491518451"><ele>17.0</ele><time>2026-04-10T14:31:09Z</time></trkpt><trkpt lat="39.44657640585573" lon="8.44736650651537"><ele>17.0</ele><time>2026-04-10T14:31:10Z</time></trkpt><trkpt lat="39.446450416865844" lon="8.447219007040546"><ele>17.0</ele><time>2026-04-10T14:31:11Z</time></trkpt><trkpt lat="39.44631946527433" lon="8.447074259335885"><ele>18.0</ele><time>2026-04-10T14:31:12Z</time></trkpt><trkpt lat="39.446184059190536" lon="8.446928225260917"><ele>19.0</ele><time>2026-04-10T14:31:13Z</time></trkpt><trkpt lat="39.44605046183539" lon="8.446772496434866"><ele>20.0</ele><time>2026-04-10T14:31:14Z</time></trkpt><trkpt lat="39.44592354400989" lon="8.44659806031933"><ele>20.0</ele><time>2026-04-10T14:31:15Z</time></trkpt><trkpt lat="39.445804981419215" lon="8.446413443777379"><ele>20.0</ele><time>2026-04-10T14:31:16Z</time></trkpt><trkpt lat="39.44568152827435" lon="8.44623092773834"><ele>20.0</ele><time>2026-04-10T14:31:17Z</time></trkpt><trkpt lat="39.44554609698653" lon="8.446058860743086"><ele>20.666666666666668</ele><time>2026-04-10T14:31:18Z</time></trkpt><trkpt lat="39.44539920913095" lon="8.445895829797223"><ele>21.333333333333332</ele><time>2026-04-10T14:31:19Z</time></trkpt><trkpt lat="39.44524643005607" lon="8.445737403872084"><ele>22.0</ele><time>2026-04-10T14:31:20Z</time></trkpt><trkpt lat="39.44509013888241" lon="8.445577422157344"><ele>23.0</ele><time>2026-04-10T14:31:21Z</time></trkpt><trkpt lat="39.44493167792902" lon="8.445412984729495"><ele>24.0</ele><time>2026-04-10T14:31:22Z</time></trkpt><trkpt lat="39.44477209338625" lon="8.4452408844397"><ele>25.0</ele><time>2026-04-10T14:31:23Z</time></trkpt><trkpt lat="39.4446237774213" lon="8.445053786293915"><ele>25.0</ele><time>2026-04-10T14:31:24Z</time></trkpt><trkpt lat="39.44450755961587" lon="8.444833618024225"><ele>25.0</ele><time>2026-04-10T14:31:25Z</time></trkpt><trkpt lat="39.444367846039526" lon="8.444642601776682"><ele>25.0</ele><time>2026-04-10T14:31:26Z</time></trkpt><trkpt lat="39.44424142352354" lon="8.444440126327986"><ele>21.333333333333336</ele><time>2026-04-10T14:31:27Z</time></trkpt><trkpt lat="39.444118709666306" lon="8.444243893136852"><ele>17.666666666666668</ele><time>2026-04-10T14:31:28Z</time></trkpt><trkpt lat="39.44400951819957" lon="8.444053315867691"><ele>14.0</ele><time>2026-04-10T14:31:29Z</time></trkpt><trkpt lat="39.44392508840091" lon="8.443861795029266"><ele>13.333333333333334</ele><time>2026-04-10T14:31:30Z</time></trkpt><trkpt lat="39.44386871225666" lon="8.443668002094048"><ele>12.666666666666668</ele><time>2026-04-10T14:31:31Z</time></trkpt><trkpt lat="39.4438392463441" lon="8.443474902413708"><ele>12.0</ele><time>2026-04-10T14:31:32Z</time></trkpt><trkpt lat="39.443854170346285" lon="8.443287960399314"><ele>12.0</ele><time>2026-04-10T14:31:33Z</time></trkpt><trkpt lat="39.4439160908266" lon="8.443098839819449"><ele>12.0</ele><time>2026-04-10T14:31:34Z</time></trkpt><trkpt lat="39.44401173692303" lon="8.442895408725466"><ele>12.0</ele><time>2026-04-10T14:31:35Z</time></trkpt><trkpt lat="39.444122416661614" lon="8.442691779497608"><ele>13.666666666666668</ele><time>2026-04-10T14:31:36Z</time></trkpt><trkpt lat="39.444229857198465" lon="8.442481270131427"><ele>15.333333333333334</ele><time>2026-04-10T14:31:37Z</time></trkpt><trkpt lat="39.4443325100418" lon="8.44227168084179"><ele>17.0</ele><time>2026-04-10T14:31:38Z</time></trkpt><trkpt lat="39.44443295805751" lon="8.442072592693503"><ele>17.0</ele><time>2026-04-10T14:31:39Z</time></trkpt><trkpt lat="39.444527066665856" lon="8.441892198340465"><ele>17.0</ele><time>2026-04-10T14:31:40Z</time></trkpt><trkpt lat="39.44460212666571" lon="8.441726813664367"><ele>17.0</ele><time>2026-04-10T14:31:41Z</time></trkpt><trkpt lat="39.44463844498124" lon="8.441555780606363"><ele>19.0</ele><time>2026-04-10T14:31:42Z</time></trkpt><trkpt lat="39.44461640282716" lon="8.44134567806297"><ele>21.0</ele><time>2026-04-10T14:31:43Z</time></trkpt><trkpt lat="39.444571581876744" lon="8.44110493733251"><ele>23.0</ele><time>2026-04-10T14:31:44Z</time></trkpt><trkpt lat="39.444526084303014" lon="8.440864067635738"><ele>23.0</ele><time>2026-04-10T14:31:45Z</time></trkpt><trkpt lat="39.44449135761202" lon="8.440622365417427"><ele>23.0</ele><time>2026-04-10T14:31:46Z</time></trkpt><trkpt lat="39.44446359637067" lon="8.44038171099716"><ele>23.0</ele><time>2026-04-10T14:31:47Z</time></trkpt><trkpt lat="39.444434958276354" lon="8.440140644203082"><ele>20.666666666666668</ele><time>2026-04-10T14:31:48Z</time></trkpt><trkpt lat="39.44440119696349" lon="8.439896764090687"><ele>18.333333333333332</ele><time>2026-04-10T14:31:49Z</time></trkpt><trkpt lat="39.44436582893817" lon="8.439659209385937"><ele>16.0</ele><time>2026-04-10T14:31:50Z</time></trkpt><trkpt lat="39.444328835332875" lon="8.439421821174731"><ele>14.666666666666666</ele><time>2026-04-10T14:31:51Z</time></trkpt><trkpt lat="39.444293890181534" lon="8.439183118173757"><ele>13.333333333333332</ele><time>2026-04-10T14:31:52Z</time></trkpt><trkpt lat="39.44426237160979" lon="8.438939781621956"><ele>12.0</ele><time>2026-04-10T14:31:53Z</time></trkpt><trkpt lat="39.444239062006574" lon="8.43869284275337"><ele>11.666666666666666</ele><time>2026-04-10T14:31:54Z</time></trkpt><trkpt lat="39.44422084228553" lon="8.438442792340348"><ele>11.333333333333332</ele><time>2026-04-10T14:31:55Z</time></trkpt><trkpt lat="39.444201958145456" lon="8.438188764520403"><ele>11.0</ele><time>2026-04-10T14:31:56Z</time></trkpt><trkpt lat="39.444179890453675" lon="8.437933998482833"><ele>11.0</ele><time>2026-04-10T14:31:57Z</time></trkpt><trkpt lat="39.444158835490676" lon="8.437682945773354"><ele>11.0</ele><time>2026-04-10T14:31:58Z</time></trkpt><trkpt lat="39.444139426184236" lon="8.437446363142548"><ele>11.0</ele><time>2026-04-10T14:31:59Z</time></trkpt><trkpt lat="39.444119531673074" lon="8.437205352773063"><ele>11.666666666666666</ele><time>2026-04-10T14:32:00Z</time></trkpt><trkpt lat="39.4441008066819" lon="8.436962898982483"><ele>12.333333333333332</ele><time>2026-04-10T14:32:01Z</time></trkpt><trkpt lat="39.44408107714612" lon="8.4367178606312"><ele>13.0</ele><time>2026-04-10T14:32:02Z</time></trkpt><trkpt lat="39.444060856910724" lon="8.436474359160384"><ele>11.333333333333332</ele><time>2026-04-10T14:32:03Z</time></trkpt><trkpt lat="39.44403630248944" lon="8.436245336646108"><ele>9.666666666666666</ele><time>2026-04-10T14:32:04Z</time></trkpt><trkpt lat="39.444000720172006" lon="8.436034410979959"><ele>8.0</ele><time>2026-04-10T14:32:05Z</time></trkpt><trkpt lat="39.443939021682326" lon="8.435825645578657"><ele>8.0</ele><time>2026-04-10T14:32:06Z</time></trkpt><trkpt lat="39.4438460474902" lon="8.43560694675315"><ele>8.0</ele><time>2026-04-10T14:32:07Z</time></trkpt><trkpt lat="39.4437329264465" lon="8.435378262075345"><ele>8.0</ele><time>2026-04-10T14:32:08Z</time></trkpt><trkpt lat="39.4436136440482" lon="8.435130933382352"><ele>9.666666666666666</ele><time>2026-04-10T14:32:09Z</time></trkpt><trkpt lat="39.44349968473328" lon="8.434879275722986"><ele>11.333333333333332</ele><time>2026-04-10T14:32:10Z</time></trkpt><trkpt lat="39.44339016063547" lon="8.434635331820306"><ele>13.0</ele><time>2026-04-10T14:32:11Z</time></trkpt><trkpt lat="39.443283009327686" lon="8.434397450232156"><ele>13.0</ele><time>2026-04-10T14:32:12Z</time></trkpt><trkpt lat="39.443180037258664" lon="8.43417405857007"><ele>13.0</ele><time>2026-04-10T14:32:13Z</time></trkpt><trkpt lat="39.44308577507474" lon="8.433964806656652"><ele>13.0</ele><time>2026-04-10T14:32:14Z</time></trkpt><trkpt lat="39.44300803263954" lon="8.433760553494213"><ele>15.333333333333332</ele><time>2026-04-10T14:32:15Z</time></trkpt><trkpt lat="39.442951806991964" lon="8.433538138681811"><ele>17.666666666666668</ele><time>2026-04-10T14:32:16Z</time></trkpt><trkpt lat="39.442915934770994" lon="8.43327249917529"><ele>20.0</ele><time>2026-04-10T14:32:17Z</time></trkpt><trkpt lat="39.44288995548463" lon="8.432986046886128"><ele>19.5</ele><time>2026-04-10T14:32:18Z</time></trkpt><trkpt lat="39.44286158118891" lon="8.432691620284483"><ele>19.0</ele><time>2026-04-10T14:32:19Z</time></trkpt><trkpt lat="39.442829856979635" lon="8.432403323256542"><ele>17.666666666666664</ele><time>2026-04-10T14:32:20Z</time></trkpt><trkpt lat="39.44279674139098" lon="8.432116481659257"><ele>16.333333333333332</ele><time>2026-04-10T14:32:21Z</time></trkpt><trkpt lat="39.44276756385168" lon="8.43182889927787"><ele>15.0</ele><time>2026-04-10T14:32:22Z</time></trkpt><trkpt lat="39.442741213255644" lon="8.431544731003147"><ele>14.666666666666668</ele><time>2026-04-10T14:32:23Z</time></trkpt><trkpt lat="39.44271545584973" lon="8.431260018761884"><ele>14.333333333333334</ele><time>2026-04-10T14:32:24Z</time></trkpt><trkpt lat="39.442689958221614" lon="8.430972288615795"><ele>14.0</ele><time>2026-04-10T14:32:25Z</time></trkpt><trkpt lat="39.442662902015705" lon="8.43067770153822"><ele>12.0</ele><time>2026-04-10T14:32:26Z</time></trkpt><trkpt lat="39.44263374113405" lon="8.430384161937434"><ele>10.0</ele><time>2026-04-10T14:32:27Z</time></trkpt><trkpt lat="39.44260354815868" lon="8.430084732391476"><ele>10.0</ele><time>2026-04-10T14:32:28Z</time></trkpt><trkpt lat="39.44257372657586" lon="8.429781809986768"><ele>10.0</ele><time>2026-04-10T14:32:29Z</time></trkpt><trkpt lat="39.44254190696034" lon="8.429484709763505"><ele>10.0</ele><time>2026-04-10T14:32:30Z</time></trkpt><trkpt lat="39.442516949463986" lon="8.429187389454235"><ele>10.0</ele><time>2026-04-10T14:32:31Z</time></trkpt><trkpt lat="39.44248742131039" lon="8.428887495038147"><ele>9.0</ele><time>2026-04-10T14:32:32Z</time></trkpt><trkpt lat="39.44245770344837" lon="8.428593614001107"><ele>8.0</ele><time>2026-04-10T14:32:33Z</time></trkpt><trkpt lat="39.44242928746236" lon="8.428302209421737"><ele>8.0</ele><time>2026-04-10T14:32:34Z</time></trkpt><trkpt lat="39.44240316438465" lon="8.428006539118261"><ele>8.0</ele><time>2026-04-10T14:32:35Z</time></trkpt><trkpt lat="39.44237730689363" lon="8.427714447819362"><ele>8.0</ele><time>2026-04-10T14:32:36Z</time></trkpt><trkpt lat="39.44235014712443" lon="8.427422043198483"><ele>8.0</ele><time>2026-04-10T14:32:37Z</time></trkpt><trkpt lat="39.44232413584865" lon="8.427135638929606"><ele>8.0</ele><time>2026-04-10T14:32:38Z</time></trkpt><trkpt lat="39.44230003212002" lon="8.426856327865403"><ele>8.0</ele><time>2026-04-10T14:32:39Z</time></trkpt><trkpt lat="39.44227469073502" lon="8.426597142358348"><ele>8.0</ele><time>2026-04-10T14:32:40Z</time></trkpt><trkpt lat="39.442249253440316" lon="8.426352032523749"><ele>7.333333333333333</ele><time>2026-04-10T14:32:41Z</time></trkpt><trkpt lat="39.44221939595715" lon="8.426119944500952"><ele>6.666666666666666</ele><time>2026-04-10T14:32:42Z</time></trkpt><trkpt lat="39.442213011722366" lon="8.425897087010243"><ele>6.0</ele><time>2026-04-10T14:32:43Z</time></trkpt><trkpt lat="39.442100320374685" lon="8.425702098569499"><ele>6.0</ele><time>2026-04-10T14:32:44Z</time></trkpt><trkpt lat="39.44198687183012" lon="8.425499638997836"><ele>6.0</ele><time>2026-04-10T14:32:45Z</time></trkpt><trkpt lat="39.44183270632194" lon="8.425293691407669"><ele>6.0</ele><time>2026-04-10T14:32:46Z</time></trkpt><trkpt lat="39.44168142136958" lon="8.425078844462726"><ele>6.0</ele><time>2026-04-10T14:32:47Z</time></trkpt><trkpt lat="39.44154248860842" lon="8.424852527263566"><ele>6.0</ele><time>2026-04-10T14:32:48Z</time></trkpt><trkpt lat="39.441416661391905" lon="8.424621918984709"><ele>6.0</ele><time>2026-04-10T14:32:49Z</time></trkpt><trkpt lat="39.4412922344363" lon="8.42438365976578"><ele>6.666666666666666</ele><time>2026-04-10T14:32:50Z</time></trkpt><trkpt lat="39.441166531664095" lon="8.424147840056685"><ele>7.333333333333333</ele><time>2026-04-10T14:32:51Z</time></trkpt><trkpt lat="39.4410368518285" lon="8.423911155663792"><ele>8.0</ele><time>2026-04-10T14:32:52Z</time></trkpt><trkpt lat="39.440908208312585" lon="8.42367978348336"><ele>8.0</ele><time>2026-04-10T14:32:53Z</time></trkpt><trkpt lat="39.44078370056294" lon="8.423451330645713"><ele>8.0</ele><time>2026-04-10T14:32:54Z</time></trkpt><trkpt lat="39.44066211216123" lon="8.423226236177223"><ele>8.0</ele><time>2026-04-10T14:32:55Z</time></trkpt><trkpt lat="39.44054529162078" lon="8.423009108081699"><ele>9.0</ele><time>2026-04-10T14:32:56Z</time></trkpt><trkpt lat="39.440434374346005" lon="8.422805402978787"><ele>10.0</ele><time>2026-04-10T14:32:57Z</time></trkpt><trkpt lat="39.44033431261379" lon="8.422600780505057"><ele>11.0</ele><time>2026-04-10T14:32:58Z</time></trkpt><trkpt lat="39.440247409888734" lon="8.422402363696747"><ele>11.0</ele><time>2026-04-10T14:32:59Z</time></trkpt><trkpt lat="39.440175880047846" lon="8.422195655693187"><ele>11.0</ele><time>2026-04-10T14:33:00Z</time></trkpt><trkpt lat="39.4401362623945" lon="8.421958268430153"><ele>11.0</ele><time>2026-04-10T14:33:01Z</time></trkpt><trkpt lat="39.4401055441416" lon="8.421713899156593"><ele>10.333333333333332</ele><time>2026-04-10T14:33:02Z</time></trkpt><trkpt lat="39.44008733922724" lon="8.421462417114926"><ele>9.666666666666666</ele><time>2026-04-10T14:33:03Z</time></trkpt><trkpt lat="39.440076439396485" lon="8.421203206589317"><ele>9.0</ele><time>2026-04-10T14:33:04Z</time></trkpt><trkpt lat="39.44006376711443" lon="8.420951318814815"><ele>8.333333333333334</ele><time>2026-04-10T14:33:05Z</time></trkpt><trkpt lat="39.44004763343831" lon="8.420715286467553"><ele>7.666666666666667</ele><time>2026-04-10T14:33:06Z</time></trkpt><trkpt lat="39.44003134254821" lon="8.420492242959705"><ele>7.0</ele><time>2026-04-10T14:33:07Z</time></trkpt><trkpt lat="39.440013504605695" lon="8.420281526652866"><ele>6.333333333333334</ele><time>2026-04-10T14:33:08Z</time></trkpt><trkpt lat="39.439988511058324" lon="8.420086065623547"><ele>5.666666666666667</ele><time>2026-04-10T14:33:09Z</time></trkpt><trkpt lat="39.43994273464331" lon="8.419899871888457"><ele>5.0</ele><time>2026-04-10T14:33:10Z</time></trkpt><trkpt lat="39.43987595734273" lon="8.419704588675302"><ele>4.333333333333334</ele><time>2026-04-10T14:33:11Z</time></trkpt><trkpt lat="39.43977874400008" lon="8.419506301603272"><ele>3.666666666666667</ele><time>2026-04-10T14:33:12Z</time></trkpt><trkpt lat="39.43967522622444" lon="8.419307470679955"><ele>3.0</ele><time>2026-04-10T14:33:13Z</time></trkpt><trkpt lat="39.43957831110644" lon="8.419112180195013"><ele>4.333333333333334</ele><time>2026-04-10T14:33:14Z</time></trkpt><trkpt lat="39.4394928548133" lon="8.418919669434445"><ele>5.666666666666667</ele><time>2026-04-10T14:33:15Z</time></trkpt><trkpt lat="39.43942349950173" lon="8.418708878618245"><ele>7.0</ele><time>2026-04-10T14:33:16Z</time></trkpt><trkpt lat="39.43936865141826" lon="8.418477871190943"><ele>7.0</ele><time>2026-04-10T14:33:17Z</time></trkpt><trkpt lat="39.43932943838751" lon="8.41823144181815"><ele>7.0</ele><time>2026-04-10T14:33:18Z</time></trkpt><trkpt lat="39.439308294813266" lon="8.417993325081872"><ele>7.0</ele><time>2026-04-10T14:33:19Z</time></trkpt><trkpt lat="39.439290364497275" lon="8.417776434831755"><ele>7.0</ele><time>2026-04-10T14:33:20Z</time></trkpt><trkpt lat="39.43926948250827" lon="8.417586279199993"><ele>7.0</ele><time>2026-04-10T14:33:21Z</time></trkpt><trkpt lat="39.43925062870521" lon="8.417431028142685"><ele>7.0</ele><time>2026-04-10T14:33:22Z</time></trkpt><trkpt lat="39.4392346238065" lon="8.417302029178707"><ele>7.0</ele><time>2026-04-10T14:33:23Z</time></trkpt><trkpt lat="39.43922652735244" lon="8.417197927883723"><ele>6.333333333333334</ele><time>2026-04-10T14:33:24Z</time></trkpt><trkpt lat="39.439227981408926" lon="8.417115118732351"><ele>5.666666666666667</ele><time>2026-04-10T14:33:25Z</time></trkpt><trkpt lat="39.43921287932434" lon="8.417013363161576"><ele>5.0</ele><time>2026-04-10T14:33:27Z</time></trkpt><trkpt lat="39.43922753066437" lon="8.416919507873377"><ele>4.333333333333334</ele><time>2026-04-10T14:33:30Z</time></trkpt><trkpt lat="39.43933622511973" lon="8.416879376128769"><ele>3.666666666666667</ele><time>2026-04-10T14:33:37Z</time></trkpt><trkpt lat="39.43939896059408" lon="8.416829897615283"><ele>3.0</ele><time>2026-04-10T14:33:38Z</time></trkpt><trkpt lat="39.439466609692516" lon="8.416753165251723"><ele>3.0</ele><time>2026-04-10T14:33:39Z</time></trkpt><trkpt lat="39.43954095411491" lon="8.416656826823612"><ele>3.0</ele><time>2026-04-10T14:33:40Z</time></trkpt><trkpt lat="39.43961441426386" lon="8.416555719175939"><ele>3.0</ele><time>2026-04-10T14:33:41Z</time></trkpt><trkpt lat="39.43969741147767" lon="8.416441620131089"><ele>3.0</ele><time>2026-04-10T14:33:42Z</time></trkpt><trkpt lat="39.4397956928453" lon="8.416321258245372"><ele>3.666666666666667</ele><time>2026-04-10T14:33:43Z</time></trkpt><trkpt lat="39.43989954177692" lon="8.4161945575143"><ele>4.333333333333334</ele><time>2026-04-10T14:33:44Z</time></trkpt><trkpt lat="39.44001784994634" lon="8.416054467433682"><ele>5.0</ele><time>2026-04-10T14:33:45Z</time></trkpt><trkpt lat="39.44014195951257" lon="8.41590600571133"><ele>5.0</ele><time>2026-04-10T14:33:46Z</time></trkpt><trkpt lat="39.44026889630269" lon="8.415751676809585"><ele>5.0</ele><time>2026-04-10T14:33:47Z</time></trkpt><trkpt lat="39.440390929529364" lon="8.415603832793915"><ele>5.0</ele><time>2026-04-10T14:33:48Z</time></trkpt><trkpt lat="39.440510796373125" lon="8.41546084139253"><ele>6.25</ele><time>2026-04-10T14:33:49Z</time></trkpt><trkpt lat="39.440629195282526" lon="8.415320390652216"><ele>7.5</ele><time>2026-04-10T14:33:50Z</time></trkpt><trkpt lat="39.440736831215595" lon="8.415187443742681"><ele>8.75</ele><time>2026-04-10T14:33:51Z</time></trkpt><trkpt lat="39.440840124410386" lon="8.415066695335188"><ele>10.0</ele><time>2026-04-10T14:33:52Z</time></trkpt><trkpt lat="39.44093775592675" lon="8.414950004881318"><ele>10.0</ele><time>2026-04-10T14:33:53Z</time></trkpt><trkpt lat="39.44103495174796" lon="8.41483808616958"><ele>10.0</ele><time>2026-04-10T14:33:54Z</time></trkpt><trkpt lat="39.441129051102585" lon="8.414722038263198"><ele>10.0</ele><time>2026-04-10T14:33:55Z</time></trkpt><trkpt lat="39.44121688448256" lon="8.414612364960844"><ele>10.0</ele><time>2026-04-10T14:33:56Z</time></trkpt><trkpt lat="39.44129790070056" lon="8.414512193139698"><ele>11.2</ele><time>2026-04-10T14:33:57Z</time></trkpt><trkpt lat="39.44136757956609" lon="8.41442643174727"><ele>12.4</ele><time>2026-04-10T14:33:58Z</time></trkpt><trkpt lat="39.44143362810389" lon="8.414344519870106"><ele>13.600000000000001</ele><time>2026-04-10T14:33:59Z</time></trkpt><trkpt lat="39.441497283069964" lon="8.414257901501982"><ele>14.8</ele><time>2026-04-10T14:34:00Z</time></trkpt><trkpt lat="39.44155097505065" lon="8.414164731636378"><ele>16.0</ele><time>2026-04-10T14:34:01Z</time></trkpt><trkpt lat="39.44159780415665" lon="8.41405638008448"><ele>16.0</ele><time>2026-04-10T14:34:02Z</time></trkpt><trkpt lat="39.44163976697107" lon="8.413940679344371"><ele>16.0</ele><time>2026-04-10T14:34:03Z</time></trkpt><trkpt lat="39.441677943555945" lon="8.413812604963205"><ele>16.0</ele><time>2026-04-10T14:34:04Z</time></trkpt><trkpt lat="39.44171833604796" lon="8.41367773611449"><ele>16.0</ele><time>2026-04-10T14:34:05Z</time></trkpt><trkpt lat="39.441758401476335" lon="8.413543506061862"><ele>16.0</ele><time>2026-04-10T14:34:06Z</time></trkpt><trkpt lat="39.4417975082802" lon="8.413397475413696"><ele>16.0</ele><time>2026-04-10T14:34:07Z</time></trkpt><trkpt lat="39.44183007396459" lon="8.413245370051063"><ele>16.0</ele><time>2026-04-10T14:34:08Z</time></trkpt><trkpt lat="39.44184666371767" lon="8.413097149699647"><ele>16.0</ele><time>2026-04-10T14:34:09Z</time></trkpt><trkpt lat="39.4418314519649" lon="8.412948200213226"><ele>16.0</ele><time>2026-04-10T14:34:10Z</time></trkpt><trkpt lat="39.441796085259206" lon="8.412791659102375"><ele>16.0</ele><time>2026-04-10T14:34:11Z</time></trkpt><trkpt lat="39.44175827154955" lon="8.412635465824684"><ele>16.0</ele><time>2026-04-10T14:34:12Z</time></trkpt><trkpt lat="39.441735469326694" lon="8.412478191286269"><ele>16.0</ele><time>2026-04-10T14:34:13Z</time></trkpt><trkpt lat="39.44173617445671" lon="8.412319670717432"><ele>16.0</ele><time>2026-04-10T14:34:14Z</time></trkpt><trkpt lat="39.44175466362319" lon="8.412163007979693"><ele>15.4</ele><time>2026-04-10T14:34:15Z</time></trkpt><trkpt lat="39.44177605153167" lon="8.41202265757419"><ele>14.8</ele><time>2026-04-10T14:34:16Z</time></trkpt><trkpt lat="39.44179268718561" lon="8.411895052047518"><ele>14.200000000000001</ele><time>2026-04-10T14:34:17Z</time></trkpt><trkpt lat="39.441801986850066" lon="8.411789964775387"><ele>13.600000000000001</ele><time>2026-04-10T14:34:18Z</time></trkpt><trkpt lat="39.441810100978756" lon="8.411674141833283"><ele>13.0</ele><time>2026-04-10T14:34:20Z</time></trkpt><trkpt lat="39.441811738360194" lon="8.411566636700496"><ele>12.999999999999998</ele><time>2026-04-10T14:34:22Z</time></trkpt><trkpt lat="39.44181487970693" lon="8.411466049797243"><ele>13.0</ele><time>2026-04-10T14:34:24Z</time></trkpt><trkpt lat="39.441822120359795" lon="8.41137226169953"><ele>13.0</ele><time>2026-04-10T14:34:26Z</time></trkpt><trkpt lat="39.441855180201756" lon="8.411293333247178"><ele>13.0</ele><time>2026-04-10T14:34:28Z</time></trkpt><trkpt lat="39.441899619947506" lon="8.411215638872935"><ele>12.999999999999998</ele><time>2026-04-10T14:34:31Z</time></trkpt><trkpt lat="39.44191594188604" lon="8.411115288030805"><ele>13.0</ele><time>2026-04-10T14:36:30Z</time></trkpt><trkpt lat="39.4418380982277" lon="8.411038793206819"><ele>12.428571428571429</ele><time>2026-04-10T14:36:32Z</time></trkpt><trkpt lat="39.441831142556204" lon="8.410956187649047"><ele>11.857142857142858</ele><time>2026-04-10T14:36:40Z</time></trkpt><trkpt lat="39.441834653057974" lon="8.410871982192566"><ele>11.285714285714286</ele><time>2026-04-10T14:36:46Z</time></trkpt><trkpt lat="39.44177070640963" lon="8.410830068090004"><ele>10.714285714285715</ele><time>2026-04-10T14:36:54Z</time></trkpt><trkpt lat="39.441703600258734" lon="8.410830954928333"><ele>10.142857142857142</ele><time>2026-04-10T14:37:03Z</time></trkpt><trkpt lat="39.441704630469275" lon="8.410747727339263"><ele>9.571428571428573</ele><time>2026-04-10T14:38:12Z</time></trkpt><trkpt lat="39.44172845765424" lon="8.410667102821954"><ele>9.0</ele><time>2026-04-10T14:38:21Z</time></trkpt><trkpt lat="39.44173730742212" lon="8.41058351060764"><ele>9.000000000000002</ele><time>2026-04-10T14:38:29Z</time></trkpt><trkpt lat="39.441793030382364" lon="8.41054351496866"><ele>9.0</ele><time>2026-04-10T14:39:12Z</time></trkpt><trkpt lat="39.44182152458383" lon="8.410466661811954"><ele>9.0</ele><time>2026-04-10T14:39:22Z</time></trkpt><trkpt lat="39.44180769451481" lon="8.41037710601067"><ele>9.0</ele><time>2026-04-10T14:39:30Z</time></trkpt><trkpt lat="39.44181076943501" lon="8.410292777536231"><ele>9.0</ele><time>2026-04-10T14:39:38Z</time></trkpt><trkpt lat="39.44181085079168" lon="8.410207049942189"><ele>9.000000000000002</ele><time>2026-04-10T14:39:46Z</time></trkpt><trkpt lat="39.44178910801883" lon="8.41012289766681"><ele>9.0</ele><time>2026-04-10T14:39:54Z</time></trkpt><trkpt lat="39.44178191340959" lon="8.410036959198278"><ele>9.000000000000002</ele><time>2026-04-10T14:40:03Z</time></trkpt><trkpt lat="39.441808637105645" lon="8.410134509404845"><ele>9.0</ele><time>2026-04-10T14:52:37Z</time></trkpt><trkpt lat="39.441800418280216" lon="8.410224743510378"><ele>9.0</ele><time>2026-04-10T14:52:43Z</time></trkpt><trkpt lat="39.44183756538976" lon="8.410293300607574"><ele>9.0</ele><time>2026-04-10T14:52:49Z</time></trkpt><trkpt lat="39.441860195195574" lon="8.41038238617341"><ele>9.0</ele><time>2026-04-10T14:52:55Z</time></trkpt><trkpt lat="39.44189192978845" lon="8.410466216571397"><ele>9.000000000000002</ele><time>2026-04-10T14:53:01Z</time></trkpt><trkpt lat="39.44193000451006" lon="8.410544130029187"><ele>9.0</ele><time>2026-04-10T14:53:07Z</time></trkpt><trkpt lat="39.441975060710355" lon="8.410609527361606"><ele>9.0</ele><time>2026-04-10T14:53:13Z</time></trkpt><trkpt lat="39.44201878918107" lon="8.4106693509541"><ele>9.0</ele><time>2026-04-10T14:53:19Z</time></trkpt><trkpt lat="39.442038442939214" lon="8.410579510975893"><ele>9.0</ele><time>2026-04-10T14:53:36Z</time></trkpt><trkpt lat="39.44203312904648" lon="8.410487711909566"><ele>9.0</ele><time>2026-04-10T14:53:42.001Z</time></trkpt><trkpt lat="39.44203320557503" lon="8.410403857380569"><ele>9.0</ele><time>2026-04-10T14:53:48.001Z</time></trkpt><trkpt lat="39.4420590163844" lon="8.410327031074635"><ele>9.0</ele><time>2026-04-10T14:53:53.001Z</time></trkpt><trkpt lat="39.44222189299118" lon="8.410331177858962"><ele>8.6</ele><time>2026-04-10T14:54:20Z</time></trkpt><trkpt lat="39.44211662454248" lon="8.410414989175546"><ele>8.2</ele><time>2026-04-10T14:55:04Z</time></trkpt><trkpt lat="39.44198889695839" lon="8.41045610611117"><ele>7.799999999999999</ele><time>2026-04-10T14:57:31.415Z</time></trkpt><trkpt lat="39.442080697165" lon="8.41043792044787"><ele>7.3999999999999995</ele><time>2026-04-10T15:00:30.001Z</time></trkpt><trkpt lat="39.44203154854272" lon="8.410372215792988"><ele>7.0</ele><time>2026-04-10T15:10:01Z</time></trkpt><trkpt lat="39.44203635679068" lon="8.410460156915999"><ele>7.285714285714286</ele><time>2026-04-10T15:16:00.001Z</time></trkpt><trkpt lat="39.44204452177158" lon="8.410544138045466"><ele>7.571428571428571</ele><time>2026-04-10T15:16:07.001Z</time></trkpt><trkpt lat="39.44204553596272" lon="8.41062594044494"><ele>7.857142857142858</ele><time>2026-04-10T15:16:13.001Z</time></trkpt><trkpt lat="39.44205029398725" lon="8.410707539323004"><ele>8.142857142857142</ele><time>2026-04-10T15:16:20.001Z</time></trkpt><trkpt lat="39.442039877148815" lon="8.41079529025045"><ele>8.428571428571429</ele><time>2026-04-10T15:16:27.001Z</time></trkpt><trkpt lat="39.44202495849169" lon="8.41088366460801"><ele>8.714285714285715</ele><time>2026-04-10T15:16:34.001Z</time></trkpt><trkpt lat="39.4420141374258" lon="8.410970170751204"><ele>9.0</ele><time>2026-04-10T15:16:42.001Z</time></trkpt><trkpt lat="39.441951796768315" lon="8.411027215589579"><ele>9.000000000000002</ele><time>2026-04-10T15:16:53.001Z</time></trkpt><trkpt lat="39.44191708130383" lon="8.41109753478937"><ele>9.0</ele><time>2026-04-10T15:17:00.001Z</time></trkpt><trkpt lat="39.44186793924919" lon="8.411163133467136"><ele>9.0</ele><time>2026-04-10T15:17:07.001Z</time></trkpt><trkpt lat="39.44181665949948" lon="8.411216215665949"><ele>9.0</ele><time>2026-04-10T15:17:24Z</time></trkpt><trkpt lat="39.4418624194396" lon="8.411275548706945"><ele>9.0</ele><time>2026-04-10T15:19:28.001Z</time></trkpt><trkpt lat="39.441853773547415" lon="8.411367891988005"><ele>9.000000000000002</ele><time>2026-04-10T15:19:30.001Z</time></trkpt><trkpt lat="39.44182635426407" lon="8.41145542566461"><ele>9.0</ele><time>2026-04-10T15:19:32.001Z</time></trkpt><trkpt lat="39.441795990420275" lon="8.411558092951624"><ele>9.666666666666666</ele><time>2026-04-10T15:19:34.001Z</time></trkpt><trkpt lat="39.44179317115505" lon="8.41165731628199"><ele>10.333333333333332</ele><time>2026-04-10T15:19:36.001Z</time></trkpt><trkpt lat="39.4417915180552" lon="8.41176010758018"><ele>11.0</ele><time>2026-04-10T15:19:38.001Z</time></trkpt><trkpt lat="39.44178719422368" lon="8.411864648190283"><ele>11.666666666666666</ele><time>2026-04-10T15:19:40.001Z</time></trkpt><trkpt lat="39.441773075222166" lon="8.411973313439233"><ele>12.333333333333332</ele><time>2026-04-10T15:19:42.001Z</time></trkpt><trkpt lat="39.441753829878735" lon="8.412090382491865"><ele>13.0</ele><time>2026-04-10T15:19:44.001Z</time></trkpt><trkpt lat="39.4417403194538" lon="8.4122173104979"><ele>13.499999999999998</ele><time>2026-04-10T15:19:46.001Z</time></trkpt><trkpt lat="39.4417284980045" lon="8.41236258308534"><ele>14.0</ele><time>2026-04-10T15:19:48.001Z</time></trkpt><trkpt lat="39.441704239776215" lon="8.412513621873718"><ele>14.5</ele><time>2026-04-10T15:19:50.001Z</time></trkpt><trkpt lat="39.44172539077158" lon="8.412592227241701"><ele>15.0</ele><time>2026-04-10T15:19:51.001Z</time></trkpt><trkpt lat="39.44173856636761" lon="8.412678541036222"><ele>15.499999999999998</ele><time>2026-04-10T15:19:52.001Z</time></trkpt><trkpt lat="39.441751349645884" lon="8.412760689264587"><ele>16.0</ele><time>2026-04-10T15:19:53.001Z</time></trkpt><trkpt lat="39.441790240286615" lon="8.412910168671099"><ele>15.8</ele><time>2026-04-10T15:19:55.001Z</time></trkpt><trkpt lat="39.44180999668515" lon="8.4130027236268"><ele>15.600000000000001</ele><time>2026-04-10T15:19:56.001Z</time></trkpt><trkpt lat="39.44179455294649" lon="8.413102873868128"><ele>15.4</ele><time>2026-04-10T15:19:57.001Z</time></trkpt><trkpt lat="39.44178694555929" lon="8.41324018338437"><ele>15.2</ele><time>2026-04-10T15:19:59.001Z</time></trkpt><trkpt lat="39.44176278279539" lon="8.413374076879961"><ele>15.0</ele><time>2026-04-10T15:20:01.001Z</time></trkpt><trkpt lat="39.44173228081777" lon="8.413523580000911"><ele>15.0</ele><time>2026-04-10T15:20:03.001Z</time></trkpt><trkpt lat="39.44169649122678" lon="8.413625579293264"><ele>15.0</ele><time>2026-04-10T15:20:05.001Z</time></trkpt><trkpt lat="39.44167465327194" lon="8.413710605737602"><ele>15.0</ele><time>2026-04-10T15:20:07.001Z</time></trkpt><trkpt lat="39.44165232364303" lon="8.413818452855041"><ele>15.0</ele><time>2026-04-10T15:20:10.001Z</time></trkpt><trkpt lat="39.44161674100052" lon="8.413902279010415"><ele>15.0</ele><time>2026-04-10T15:20:14.001Z</time></trkpt><trkpt lat="39.4417247177448" lon="8.414002581248798"><ele>15.0</ele><time>2026-04-10T15:20:25.001Z</time></trkpt><trkpt lat="39.441802771171126" lon="8.41394051801893"><ele>15.2</ele><time>2026-04-10T15:20:27.001Z</time></trkpt><trkpt lat="39.44189250747339" lon="8.41403999270984"><ele>15.4</ele><time>2026-04-10T15:20:29.001Z</time></trkpt><trkpt lat="39.44196504655326" lon="8.414129594655863"><ele>15.600000000000001</ele><time>2026-04-10T15:20:31.001Z</time></trkpt><trkpt lat="39.44200437265409" lon="8.414195859637369"><ele>15.8</ele><time>2026-04-10T15:20:32.001Z</time></trkpt><trkpt lat="39.44206821536728" lon="8.414309524823555"><ele>16.0</ele><time>2026-04-10T15:20:34.001Z</time></trkpt><trkpt lat="39.442109302439356" lon="8.414387086688365"><ele>16.2</ele><time>2026-04-10T15:20:37.001Z</time></trkpt><trkpt lat="39.442137229790895" lon="8.414486101797236"><ele>16.400000000000002</ele><time>2026-04-10T15:21:00.001Z</time></trkpt><trkpt lat="39.44217485316034" lon="8.414580105081068"><ele>16.6</ele><time>2026-04-10T15:21:01.001Z</time></trkpt><trkpt lat="39.442226571519214" lon="8.414679489729044"><ele>16.8</ele><time>2026-04-10T15:21:02.001Z</time></trkpt><trkpt lat="39.44226851012029" lon="8.414801414101222"><ele>17.0</ele><time>2026-04-10T15:21:03.001Z</time></trkpt><trkpt lat="39.442317456338294" lon="8.414930949075018"><ele>17.0</ele><time>2026-04-10T15:21:04.001Z</time></trkpt><trkpt lat="39.44236535175968" lon="8.415066962400504"><ele>17.0</ele><time>2026-04-10T15:21:05.001Z</time></trkpt><trkpt lat="39.44240900095152" lon="8.415205279799723"><ele>17.0</ele><time>2026-04-10T15:21:06.001Z</time></trkpt><trkpt lat="39.44244709112814" lon="8.41534360751"><ele>17.0</ele><time>2026-04-10T15:21:07.001Z</time></trkpt><trkpt lat="39.442482486927965" lon="8.415480126550841"><ele>16.4</ele><time>2026-04-10T15:21:08.001Z</time></trkpt><trkpt lat="39.442517163553084" lon="8.415611879689017"><ele>15.799999999999999</ele><time>2026-04-10T15:21:09.001Z</time></trkpt><trkpt lat="39.44254621468018" lon="8.415745031587942"><ele>15.2</ele><time>2026-04-10T15:21:10.001Z</time></trkpt><trkpt lat="39.4425679731743" lon="8.415880553231302"><ele>14.6</ele><time>2026-04-10T15:21:11.001Z</time></trkpt><trkpt lat="39.442575339948704" lon="8.416027571967934"><ele>14.0</ele><time>2026-04-10T15:21:12.001Z</time></trkpt><trkpt lat="39.44254664591806" lon="8.41618044222908"><ele>13.6</ele><time>2026-04-10T15:21:13.001Z</time></trkpt><trkpt lat="39.44254551297022" lon="8.416331027593602"><ele>13.2</ele><time>2026-04-10T15:21:14.001Z</time></trkpt><trkpt lat="39.442530588011515" lon="8.416457302021527"><ele>12.799999999999999</ele><time>2026-04-10T15:21:15.001Z</time></trkpt><trkpt lat="39.442529725569386" lon="8.416564018664248"><ele>12.399999999999999</ele><time>2026-04-10T15:21:16.001Z</time></trkpt><trkpt lat="39.442543457077434" lon="8.416665917251743"><ele>12.0</ele><time>2026-04-10T15:21:17.001Z</time></trkpt><trkpt lat="39.44257528975916" lon="8.416764117669144"><ele>12.0</ele><time>2026-04-10T15:21:18.001Z</time></trkpt><trkpt lat="39.44263007466582" lon="8.416862759151254"><ele>12.0</ele><time>2026-04-10T15:21:19.001Z</time></trkpt><trkpt lat="39.44272065979178" lon="8.416966981934078"><ele>12.0</ele><time>2026-04-10T15:21:20.001Z</time></trkpt><trkpt lat="39.44282560469317" lon="8.41709400909286"><ele>12.0</ele><time>2026-04-10T15:21:21.001Z</time></trkpt><trkpt lat="39.44289827908539" lon="8.417267460057936"><ele>11.75</ele><time>2026-04-10T15:21:22.001Z</time></trkpt><trkpt lat="39.4429771648791" lon="8.417427914325986"><ele>11.5</ele><time>2026-04-10T15:21:23.001Z</time></trkpt><trkpt lat="39.443055095308914" lon="8.417564774183464"><ele>11.25</ele><time>2026-04-10T15:21:24.001Z</time></trkpt><trkpt lat="39.44311475351" lon="8.41770175802185"><ele>11.0</ele><time>2026-04-10T15:21:25.001Z</time></trkpt><trkpt lat="39.44317204826083" lon="8.417828941972804"><ele>11.0</ele><time>2026-04-10T15:21:26.001Z</time></trkpt><trkpt lat="39.44321077471912" lon="8.417954453429417"><ele>11.0</ele><time>2026-04-10T15:21:27.001Z</time></trkpt><trkpt lat="39.44319748985057" lon="8.418083779443919"><ele>11.0</ele><time>2026-04-10T15:21:28.001Z</time></trkpt><trkpt lat="39.44317325642264" lon="8.418221060761761"><ele>11.0</ele><time>2026-04-10T15:21:29.001Z</time></trkpt><trkpt lat="39.443121948637796" lon="8.41836641237961"><ele>11.0</ele><time>2026-04-10T15:21:30.001Z</time></trkpt><trkpt lat="39.44309429666921" lon="8.418521431914005"><ele>10.8</ele><time>2026-04-10T15:21:31.001Z</time></trkpt><trkpt lat="39.44307763052413" lon="8.418654046274357"><ele>10.600000000000001</ele><time>2026-04-10T15:21:32.001Z</time></trkpt><trkpt lat="39.4430927427245" lon="8.418794880446123"><ele>10.4</ele><time>2026-04-10T15:21:33.001Z</time></trkpt><trkpt lat="39.44311164255766" lon="8.418938953580245"><ele>10.2</ele><time>2026-04-10T15:21:34.001Z</time></trkpt><trkpt lat="39.443125453360516" lon="8.419082738099998"><ele>10.0</ele><time>2026-04-10T15:21:35.001Z</time></trkpt><trkpt lat="39.44313927311062" lon="8.41921310422504"><ele>10.166666666666668</ele><time>2026-04-10T15:21:36.001Z</time></trkpt><trkpt lat="39.443151834368024" lon="8.419333177564422"><ele>10.333333333333334</ele><time>2026-04-10T15:21:37.001Z</time></trkpt><trkpt lat="39.44316523421196" lon="8.419435215582304"><ele>10.5</ele><time>2026-04-10T15:21:38.001Z</time></trkpt><trkpt lat="39.44317444035857" lon="8.41952180736163"><ele>10.666666666666666</ele><time>2026-04-10T15:21:39.001Z</time></trkpt><trkpt lat="39.44318466579542" lon="8.419619810447069"><ele>10.833333333333332</ele><time>2026-04-10T15:21:40.001Z</time></trkpt><trkpt lat="39.44319428207786" lon="8.419741288593803"><ele>11.0</ele><time>2026-04-10T15:21:41.001Z</time></trkpt><trkpt lat="39.44320436943381" lon="8.419861739939915"><ele>11.0</ele><time>2026-04-10T15:21:42.001Z</time></trkpt><trkpt lat="39.443225235535806" lon="8.419982158779344"><ele>11.0</ele><time>2026-04-10T15:21:43.001Z</time></trkpt><trkpt lat="39.443245672358486" lon="8.420099607100616"><ele>11.0</ele><time>2026-04-10T15:21:44.001Z</time></trkpt><trkpt lat="39.44330687102902" lon="8.42020354066058"><ele>11.0</ele><time>2026-04-10T15:21:45.001Z</time></trkpt><trkpt lat="39.44338699467404" lon="8.420287052653116"><ele>11.0</ele><time>2026-04-10T15:21:46.001Z</time></trkpt><trkpt lat="39.44346513851383" lon="8.420372291070926"><ele>11.0</ele><time>2026-04-10T15:21:47.001Z</time></trkpt><trkpt lat="39.44355322030959" lon="8.420451597199806"><ele>11.0</ele><time>2026-04-10T15:21:48.001Z</time></trkpt><trkpt lat="39.44365114381574" lon="8.420513656658574"><ele>11.0</ele><time>2026-04-10T15:21:49.001Z</time></trkpt><trkpt lat="39.44375416770116" lon="8.420564817071549"><ele>11.0</ele><time>2026-04-10T15:21:50.001Z</time></trkpt><trkpt lat="39.44385593580003" lon="8.420608970646187"><ele>11.0</ele><time>2026-04-10T15:21:51.001Z</time></trkpt><trkpt lat="39.44395309221389" lon="8.42064952282513"><ele>11.0</ele><time>2026-04-10T15:21:52.001Z</time></trkpt><trkpt lat="39.44404521327239" lon="8.420682293507179"><ele>11.0</ele><time>2026-04-10T15:21:53.001Z</time></trkpt><trkpt lat="39.44413051952156" lon="8.420712694565204"><ele>11.0</ele><time>2026-04-10T15:21:54.001Z</time></trkpt><trkpt lat="39.444218852203825" lon="8.420730025324149"><ele>11.0</ele><time>2026-04-10T15:21:55.001Z</time></trkpt><trkpt lat="39.44430797688125" lon="8.4207311038841"><ele>11.0</ele><time>2026-04-10T15:21:56.001Z</time></trkpt><trkpt lat="39.44439731203932" lon="8.420728642079169"><ele>11.0</ele><time>2026-04-10T15:21:57.001Z</time></trkpt><trkpt lat="39.44449421745762" lon="8.420724206533333"><ele>11.0</ele><time>2026-04-10T15:21:58.001Z</time></trkpt><trkpt lat="39.44459834773208" lon="8.42071914229829"><ele>11.0</ele><time>2026-04-10T15:21:59.001Z</time></trkpt><trkpt lat="39.44470530196783" lon="8.420712285857782"><ele>11.0</ele><time>2026-04-10T15:22:00.001Z</time></trkpt><trkpt lat="39.444811505783264" lon="8.420706102963193"><ele>11.0</ele><time>2026-04-10T15:22:01.001Z</time></trkpt><trkpt lat="39.44491347418199" lon="8.42070069269389"><ele>10.833333333333332</ele><time>2026-04-10T15:22:02.001Z</time></trkpt><trkpt lat="39.445004013431394" lon="8.420694989326517"><ele>10.666666666666666</ele><time>2026-04-10T15:22:03.001Z</time></trkpt><trkpt lat="39.445087477253495" lon="8.420702312991589"><ele>10.5</ele><time>2026-04-10T15:22:04.001Z</time></trkpt><trkpt lat="39.44516386517258" lon="8.420719858320416"><ele>10.333333333333334</ele><time>2026-04-10T15:22:05.001Z</time></trkpt><trkpt lat="39.445243521349724" lon="8.420759704754163"><ele>10.166666666666668</ele><time>2026-04-10T15:22:06.001Z</time></trkpt><trkpt lat="39.44531930631918" lon="8.420825287632864"><ele>10.0</ele><time>2026-04-10T15:22:07.001Z</time></trkpt><trkpt lat="39.445377872323796" lon="8.42091542953905"><ele>10.0</ele><time>2026-04-10T15:22:08.001Z</time></trkpt><trkpt lat="39.44543042298897" lon="8.421026796662234"><ele>10.0</ele><time>2026-04-10T15:22:09.001Z</time></trkpt><trkpt lat="39.44548070304043" lon="8.42113981493142"><ele>10.0</ele><time>2026-04-10T15:22:10.001Z</time></trkpt><trkpt lat="39.445526080025424" lon="8.421237625399169"><ele>10.0</ele><time>2026-04-10T15:22:11.001Z</time></trkpt><trkpt lat="39.44556914850599" lon="8.421334236399286"><ele>10.0</ele><time>2026-04-10T15:22:12.001Z</time></trkpt><trkpt lat="39.44561311665285" lon="8.421431307188682"><ele>10.8</ele><time>2026-04-10T15:22:13.001Z</time></trkpt><trkpt lat="39.4456628772857" lon="8.421534034437569"><ele>11.6</ele><time>2026-04-10T15:22:14.001Z</time></trkpt><trkpt lat="39.44571582665758" lon="8.421646062194583"><ele>12.399999999999999</ele><time>2026-04-10T15:22:15.001Z</time></trkpt><trkpt lat="39.44577319672005" lon="8.421770804153144"><ele>13.2</ele><time>2026-04-10T15:22:16.001Z</time></trkpt><trkpt lat="39.445833276442386" lon="8.421901355899307"><ele>14.0</ele><time>2026-04-10T15:22:17.001Z</time></trkpt><trkpt lat="39.44589648752463" lon="8.422035493823891"><ele>12.5</ele><time>2026-04-10T15:22:18.001Z</time></trkpt><trkpt lat="39.44596184823479" lon="8.422175684264632"><ele>11.0</ele><time>2026-04-10T15:22:19.001Z</time></trkpt><trkpt lat="39.44603058638225" lon="8.42232284207008"><ele>9.5</ele><time>2026-04-10T15:22:20.001Z</time></trkpt><trkpt lat="39.44609764316406" lon="8.4224636703522"><ele>8.0</ele><time>2026-04-10T15:22:21.001Z</time></trkpt><trkpt lat="39.4461631702932" lon="8.422602276498495"><ele>8.0</ele><time>2026-04-10T15:22:22.001Z</time></trkpt><trkpt lat="39.44622780336099" lon="8.422741104006215"><ele>8.0</ele><time>2026-04-10T15:22:23.001Z</time></trkpt><trkpt lat="39.44629223870604" lon="8.422879792468228"><ele>8.0</ele><time>2026-04-10T15:22:24.001Z</time></trkpt><trkpt lat="39.44635319601782" lon="8.42302051583765"><ele>8.0</ele><time>2026-04-10T15:22:25.001Z</time></trkpt><trkpt lat="39.446405763913184" lon="8.423166050878768"><ele>9.4</ele><time>2026-04-10T15:22:26.001Z</time></trkpt><trkpt lat="39.44644355428533" lon="8.423308943716009"><ele>10.8</ele><time>2026-04-10T15:22:27.001Z</time></trkpt><trkpt lat="39.44646774121976" lon="8.423445817991603"><ele>12.2</ele><time>2026-04-10T15:22:28.001Z</time></trkpt><trkpt lat="39.44648530856566" lon="8.423563912798999"><ele>13.6</ele><time>2026-04-10T15:22:29.001Z</time></trkpt><trkpt lat="39.44650454634887" lon="8.423670449952661"><ele>15.0</ele><time>2026-04-10T15:22:30.001Z</time></trkpt><trkpt lat="39.44652214024288" lon="8.423760905465327"><ele>14.2</ele><time>2026-04-10T15:22:31.001Z</time></trkpt><trkpt lat="39.44656568530093" lon="8.423842394179422"><ele>13.4</ele><time>2026-04-10T15:22:32.001Z</time></trkpt><trkpt lat="39.446627390007556" lon="8.423915414012404"><ele>12.600000000000001</ele><time>2026-04-10T15:22:33.001Z</time></trkpt><trkpt lat="39.446735399697126" lon="8.423937883049534"><ele>11.8</ele><time>2026-04-10T15:22:34.001Z</time></trkpt><trkpt lat="39.44683528654783" lon="8.423976212701604"><ele>11.0</ele><time>2026-04-10T15:22:35.001Z</time></trkpt><trkpt lat="39.446921559704776" lon="8.42402077146297"><ele>11.0</ele><time>2026-04-10T15:22:36.001Z</time></trkpt><trkpt lat="39.44699211186161" lon="8.424103147574973"><ele>11.0</ele><time>2026-04-10T15:22:37.001Z</time></trkpt><trkpt lat="39.44703554039746" lon="8.424231075728049"><ele>11.0</ele><time>2026-04-10T15:22:38.001Z</time></trkpt><trkpt lat="39.44705761718832" lon="8.424388304377217"><ele>11.0</ele><time>2026-04-10T15:22:39.001Z</time></trkpt><trkpt lat="39.44708253828322" lon="8.424541370022027"><ele>11.0</ele><time>2026-04-10T15:22:40.001Z</time></trkpt><trkpt lat="39.447115905982365" lon="8.42469578042238"><ele>11.600000000000001</ele><time>2026-04-10T15:22:41.001Z</time></trkpt><trkpt lat="39.447147928271356" lon="8.424844615948048"><ele>12.2</ele><time>2026-04-10T15:22:42.001Z</time></trkpt><trkpt lat="39.447182389615314" lon="8.424981322227996"><ele>12.799999999999999</ele><time>2026-04-10T15:22:43.001Z</time></trkpt><trkpt lat="39.44722832443271" lon="8.42510763299985"><ele>13.399999999999999</ele><time>2026-04-10T15:22:44.001Z</time></trkpt><trkpt lat="39.44728511789818" lon="8.425204930223472"><ele>14.0</ele><time>2026-04-10T15:22:45.001Z</time></trkpt><trkpt lat="39.44735409536997" lon="8.425283957550516"><ele>14.0</ele><time>2026-04-10T15:22:46.001Z</time></trkpt><trkpt lat="39.44742239262985" lon="8.425342632426908"><ele>14.0</ele><time>2026-04-10T15:22:47.001Z</time></trkpt><trkpt lat="39.447485925927374" lon="8.425395082312125"><ele>14.0</ele><time>2026-04-10T15:22:48.001Z</time></trkpt><trkpt lat="39.447545931543765" lon="8.425448332447095"><ele>14.0</ele><time>2026-04-10T15:22:49.001Z</time></trkpt><trkpt lat="39.44760279434562" lon="8.425492903292271"><ele>14.0</ele><time>2026-04-10T15:22:50.001Z</time></trkpt><trkpt lat="39.44765511580018" lon="8.425544906169147"><ele>14.0</ele><time>2026-04-10T15:22:51.001Z</time></trkpt><trkpt lat="39.44770834740708" lon="8.42558896574902"><ele>14.0</ele><time>2026-04-10T15:22:52.001Z</time></trkpt><trkpt lat="39.447838728450456" lon="8.425479821200522"><ele>14.0</ele><time>2026-04-10T15:22:53.001Z</time></trkpt><trkpt lat="39.44794051988585" lon="8.425443866444601"><ele>13.999999999999998</ele><time>2026-04-10T15:22:54.001Z</time></trkpt><trkpt lat="39.4480456634306" lon="8.425417105237814"><ele>13.999999999999998</ele><time>2026-04-10T15:22:55.001Z</time></trkpt><trkpt lat="39.448153319054015" lon="8.425411911887014"><ele>14.0</ele><time>2026-04-10T15:22:56.001Z</time></trkpt><trkpt lat="39.44826076182479" lon="8.4254269577629"><ele>14.0</ele><time>2026-04-10T15:22:57.001Z</time></trkpt><trkpt lat="39.44837063240509" lon="8.425453290826281"><ele>14.0</ele><time>2026-04-10T15:22:58.001Z</time></trkpt><trkpt lat="39.44848256769283" lon="8.425488305148725"><ele>14.0</ele><time>2026-04-10T15:22:59.001Z</time></trkpt><trkpt lat="39.448600528552646" lon="8.425533122214615"><ele>14.0</ele><time>2026-04-10T15:23:00.001Z</time></trkpt><trkpt lat="39.44872077372932" lon="8.425592817346963"><ele>14.0</ele><time>2026-04-10T15:23:01.001Z</time></trkpt><trkpt lat="39.44884827670757" lon="8.42566448388558"><ele>15.0</ele><time>2026-04-10T15:23:02.001Z</time></trkpt><trkpt lat="39.448973517263006" lon="8.425728847620963"><ele>16.0</ele><time>2026-04-10T15:23:03.001Z</time></trkpt><trkpt lat="39.449100258479916" lon="8.42579202428949"><ele>17.0</ele><time>2026-04-10T15:23:04.001Z</time></trkpt><trkpt lat="39.44921441361742" lon="8.425845468986182"><ele>18.0</ele><time>2026-04-10T15:23:05.001Z</time></trkpt><trkpt lat="39.44931480272545" lon="8.4258899526494"><ele>18.0</ele><time>2026-04-10T15:23:06.001Z</time></trkpt><trkpt lat="39.44941009979947" lon="8.425923287158858"><ele>18.0</ele><time>2026-04-10T15:23:07.001Z</time></trkpt><trkpt lat="39.44950666819305" lon="8.425954208392538"><ele>18.0</ele><time>2026-04-10T15:23:08.001Z</time></trkpt><trkpt lat="39.44959645605315" lon="8.425995492766742"><ele>18.0</ele><time>2026-04-10T15:23:09.001Z</time></trkpt><trkpt lat="39.449656090555045" lon="8.426068224886077"><ele>18.0</ele><time>2026-04-10T15:23:10.001Z</time></trkpt><trkpt lat="39.449726280207074" lon="8.426102177581972"><ele>18.0</ele><time>2026-04-10T15:23:11.001Z</time></trkpt><trkpt lat="39.44978562923396" lon="8.426144193497246"><ele>18.0</ele><time>2026-04-10T15:23:12.001Z</time></trkpt><trkpt lat="39.449846902263445" lon="8.426202483447886"><ele>18.0</ele><time>2026-04-10T15:23:13.001Z</time></trkpt><trkpt lat="39.44993114453438" lon="8.42624326785191"><ele>18.0</ele><time>2026-04-10T15:23:14.001Z</time></trkpt><trkpt lat="39.45002419751286" lon="8.426286759092573"><ele>18.0</ele><time>2026-04-10T15:23:15.001Z</time></trkpt><trkpt lat="39.45011099143837" lon="8.426335561420395"><ele>18.0</ele><time>2026-04-10T15:23:16.001Z</time></trkpt><trkpt lat="39.450198271670665" lon="8.426395313634954"><ele>18.0</ele><time>2026-04-10T15:23:17.001Z</time></trkpt><trkpt lat="39.45029250453179" lon="8.426451374511867"><ele>18.0</ele><time>2026-04-10T15:23:18.001Z</time></trkpt><trkpt lat="39.450377217935795" lon="8.42653315668426"><ele>18.0</ele><time>2026-04-10T15:23:19.001Z</time></trkpt><trkpt lat="39.45046143826802" lon="8.426623953697504"><ele>18.0</ele><time>2026-04-10T15:23:20.001Z</time></trkpt><trkpt lat="39.45055427639684" lon="8.426709476982174"><ele>18.0</ele><time>2026-04-10T15:23:21.001Z</time></trkpt><trkpt lat="39.45065260218814" lon="8.426797691986168"><ele>19.25</ele><time>2026-04-10T15:23:22.001Z</time></trkpt><trkpt lat="39.45076072001845" lon="8.42686571318577"><ele>20.5</ele><time>2026-04-10T15:23:23.001Z</time></trkpt><trkpt lat="39.45087395646228" lon="8.426927114348468"><ele>21.75</ele><time>2026-04-10T15:23:24.001Z</time></trkpt><trkpt lat="39.45098825728852" lon="8.426971194380979"><ele>23.0</ele><time>2026-04-10T15:23:25.001Z</time></trkpt><trkpt lat="39.451098110608086" lon="8.427008383103061"><ele>23.0</ele><time>2026-04-10T15:23:26.001Z</time></trkpt><trkpt lat="39.45119723330618" lon="8.427044297466459"><ele>23.0</ele><time>2026-04-10T15:23:27.001Z</time></trkpt><trkpt lat="39.451286814329144" lon="8.427075243418606"><ele>23.0</ele><time>2026-04-10T15:23:28.001Z</time></trkpt><trkpt lat="39.45137469544969" lon="8.427098569114165"><ele>23.0</ele><time>2026-04-10T15:23:29.001Z</time></trkpt><trkpt lat="39.45146412127575" lon="8.427111857393653"><ele>23.0</ele><time>2026-04-10T15:23:30.001Z</time></trkpt><trkpt lat="39.45155999659359" lon="8.427122332982414"><ele>23.2</ele><time>2026-04-10T15:23:31.001Z</time></trkpt><trkpt lat="39.45165454168979" lon="8.427127445277444"><ele>23.4</ele><time>2026-04-10T15:23:32.001Z</time></trkpt><trkpt lat="39.45174634785663" lon="8.427166829572187"><ele>23.599999999999998</ele><time>2026-04-10T15:23:33.001Z</time></trkpt><trkpt lat="39.45184669689405" lon="8.427195673356415"><ele>23.799999999999997</ele><time>2026-04-10T15:23:34.001Z</time></trkpt><trkpt lat="39.45194420698138" lon="8.427233269486148"><ele>24.0</ele><time>2026-04-10T15:23:35Z</time></trkpt><trkpt lat="39.452036123018516" lon="8.42724562733716"><ele>24.0</ele><time>2026-04-10T15:23:36Z</time></trkpt><trkpt lat="39.45210859805738" lon="8.427287608265605"><ele>24.0</ele><time>2026-04-10T15:23:37Z</time></trkpt><trkpt lat="39.452181244694344" lon="8.427311098445696"><ele>24.0</ele><time>2026-04-10T15:23:38Z</time></trkpt><trkpt lat="39.45226080913888" lon="8.427320350309584"><ele>24.0</ele><time>2026-04-10T15:23:39Z</time></trkpt><trkpt lat="39.45234880101411" lon="8.427306389823197"><ele>24.0</ele><time>2026-04-10T15:23:40Z</time></trkpt><trkpt lat="39.45244185783004" lon="8.42732531889319"><ele>24.0</ele><time>2026-04-10T15:23:41Z</time></trkpt><trkpt lat="39.45253483556524" lon="8.427327374371796"><ele>25.2</ele><time>2026-04-10T15:23:42Z</time></trkpt><trkpt lat="39.452628057670154" lon="8.427334795671092"><ele>26.4</ele><time>2026-04-10T15:23:43Z</time></trkpt><trkpt lat="39.452717380832524" lon="8.42736561558605"><ele>27.6</ele><time>2026-04-10T15:23:44Z</time></trkpt><trkpt lat="39.45281022530559" lon="8.42742998985876"><ele>28.8</ele><time>2026-04-10T15:23:45Z</time></trkpt><trkpt lat="39.452914818534" lon="8.427488087159208"><ele>30.0</ele><time>2026-04-10T15:23:46Z</time></trkpt><trkpt lat="39.45300958198574" lon="8.427577684140276"><ele>31.4</ele><time>2026-04-10T15:23:47Z</time></trkpt><trkpt lat="39.4531037565711" lon="8.427660895889332"><ele>32.8</ele><time>2026-04-10T15:23:48Z</time></trkpt><trkpt lat="39.4531993088322" lon="8.427718817965932"><ele>34.2</ele><time>2026-04-10T15:23:49Z</time></trkpt><trkpt lat="39.45330493743735" lon="8.427761168167155"><ele>35.6</ele><time>2026-04-10T15:23:50Z</time></trkpt><trkpt lat="39.45341541710618" lon="8.427791183424414"><ele>37.0</ele><time>2026-04-10T15:23:51Z</time></trkpt><trkpt lat="39.4535176904196" lon="8.427830442092592"><ele>37.0</ele><time>2026-04-10T15:23:52Z</time></trkpt><trkpt lat="39.45361951833516" lon="8.42784686550657"><ele>37.0</ele><time>2026-04-10T15:23:53Z</time></trkpt><trkpt lat="39.45371990687995" lon="8.4278723309348"><ele>37.0</ele><time>2026-04-10T15:23:54Z</time></trkpt><trkpt lat="39.45382248541459" lon="8.427897249916194"><ele>37.0</ele><time>2026-04-10T15:23:55Z</time></trkpt><trkpt lat="39.45393446268708" lon="8.427901039399746"><ele>37.0</ele><time>2026-04-10T15:23:56Z</time></trkpt><trkpt lat="39.4540447646023" lon="8.427917678963839"><ele>36.800000000000004</ele><time>2026-04-10T15:23:57Z</time></trkpt><trkpt lat="39.454154751044335" lon="8.427918379380126"><ele>36.6</ele><time>2026-04-10T15:23:58Z</time></trkpt><trkpt lat="39.45425979494716" lon="8.427932839974124"><ele>36.400000000000006</ele><time>2026-04-10T15:23:59Z</time></trkpt><trkpt lat="39.45437098018032" lon="8.42795991312586"><ele>36.2</ele><time>2026-04-10T15:24:00Z</time></trkpt><trkpt lat="39.45447074473419" lon="8.427996816784338"><ele>36.0</ele><time>2026-04-10T15:24:01Z</time></trkpt><trkpt lat="39.45455305180173" lon="8.428033293569774"><ele>36.0</ele><time>2026-04-10T15:24:02Z</time></trkpt><trkpt lat="39.454619964917065" lon="8.428075513662293"><ele>36.0</ele><time>2026-04-10T15:24:03Z</time></trkpt><trkpt lat="39.45469274660897" lon="8.428121442469354"><ele>36.0</ele><time>2026-04-10T15:24:04Z</time></trkpt><trkpt lat="39.454751569454245" lon="8.428187640620767"><ele>36.0</ele><time>2026-04-10T15:24:05Z</time></trkpt><trkpt lat="39.45481613861081" lon="8.428253360320413"><ele>36.0</ele><time>2026-04-10T15:24:06Z</time></trkpt><trkpt lat="39.45485475940814" lon="8.428349676231203"><ele>36.0</ele><time>2026-04-10T15:24:07Z</time></trkpt><trkpt lat="39.45491584284777" lon="8.428453277197383"><ele>38.0</ele><time>2026-04-10T15:24:08Z</time></trkpt><trkpt lat="39.4549611022336" lon="8.428576594945774"><ele>40.0</ele><time>2026-04-10T15:24:09Z</time></trkpt><trkpt lat="39.4550373608736" lon="8.428678843203766"><ele>42.0</ele><time>2026-04-10T15:24:10Z</time></trkpt><trkpt lat="39.455140802224655" lon="8.428753521876365"><ele>44.0</ele><time>2026-04-10T15:24:11Z</time></trkpt><trkpt lat="39.45525988503817" lon="8.428806035048812"><ele>43.5</ele><time>2026-04-10T15:24:12Z</time></trkpt><trkpt lat="39.45538498944728" lon="8.428849413021805"><ele>43.0</ele><time>2026-04-10T15:24:13Z</time></trkpt><trkpt lat="39.45551100394699" lon="8.42887517232917"><ele>42.5</ele><time>2026-04-10T15:24:14Z</time></trkpt><trkpt lat="39.45563504311751" lon="8.428872466073631"><ele>42.0</ele><time>2026-04-10T15:24:15Z</time></trkpt><trkpt lat="39.455752405661684" lon="8.428862209162684"><ele>43.400000000000006</ele><time>2026-04-10T15:24:16Z</time></trkpt><trkpt lat="39.45584653941512" lon="8.42890623638368"><ele>44.800000000000004</ele><time>2026-04-10T15:24:17Z</time></trkpt><trkpt lat="39.455921175827534" lon="8.42897602351179"><ele>46.2</ele><time>2026-04-10T15:24:18Z</time></trkpt><trkpt lat="39.455992888937146" lon="8.429060302106164"><ele>47.6</ele><time>2026-04-10T15:24:19Z</time></trkpt><trkpt lat="39.45606369001636" lon="8.429125286357486"><ele>49.0</ele><time>2026-04-10T15:24:20Z</time></trkpt><trkpt lat="39.45614184893762" lon="8.42916610280209"><ele>49.0</ele><time>2026-04-10T15:24:21Z</time></trkpt><trkpt lat="39.456245133194706" lon="8.429152480048982"><ele>49.0</ele><time>2026-04-10T15:24:22Z</time></trkpt><trkpt lat="39.4563584327674" lon="8.429135679515843"><ele>49.0</ele><time>2026-04-10T15:24:23Z</time></trkpt><trkpt lat="39.4564657856504" lon="8.429159208858627"><ele>49.0</ele><time>2026-04-10T15:24:24.001Z</time></trkpt><trkpt lat="39.45654491864171" lon="8.42919626023196"><ele>49.0</ele><time>2026-04-10T15:24:25.001Z</time></trkpt><trkpt lat="39.456626636172444" lon="8.42924405451297"><ele>50.400000000000006</ele><time>2026-04-10T15:24:26.001Z</time></trkpt><trkpt lat="39.456707778890554" lon="8.429291738017184"><ele>51.8</ele><time>2026-04-10T15:24:27.001Z</time></trkpt><trkpt lat="39.456788007576534" lon="8.429333894942847"><ele>53.199999999999996</ele><time>2026-04-10T15:24:28.001Z</time></trkpt><trkpt lat="39.45687494163737" lon="8.429379285326437"><ele>54.599999999999994</ele><time>2026-04-10T15:24:29.001Z</time></trkpt><trkpt lat="39.45696594331245" lon="8.429419034577998"><ele>56.0</ele><time>2026-04-10T15:24:30.001Z</time></trkpt><trkpt lat="39.45706310923841" lon="8.429452543225944"><ele>55.8</ele><time>2026-04-10T15:24:31.001Z</time></trkpt><trkpt lat="39.45715839130231" lon="8.42948378009751"><ele>55.599999999999994</ele><time>2026-04-10T15:24:32.001Z</time></trkpt><trkpt lat="39.45725312882312" lon="8.429517480301753"><ele>55.4</ele><time>2026-04-10T15:24:33.001Z</time></trkpt><trkpt lat="39.45735711614849" lon="8.429559721764878"><ele>55.2</ele><time>2026-04-10T15:24:34.001Z</time></trkpt><trkpt lat="39.457459739252265" lon="8.429603737151194"><ele>55.0</ele><time>2026-04-10T15:24:35.001Z</time></trkpt><trkpt lat="39.45756315507409" lon="8.429648449878858"><ele>55.0</ele><time>2026-04-10T15:24:36.001Z</time></trkpt><trkpt lat="39.457667546345604" lon="8.429694931599895"><ele>55.0</ele><time>2026-04-10T15:24:37.001Z</time></trkpt><trkpt lat="39.4577685342397" lon="8.42973341556087"><ele>55.0</ele><time>2026-04-10T15:24:38.001Z</time></trkpt><trkpt lat="39.4578556379723" lon="8.429769540835354"><ele>55.0</ele><time>2026-04-10T15:24:39.001Z</time></trkpt><trkpt lat="39.45794194196407" lon="8.429800630470098"><ele>55.0</ele><time>2026-04-10T15:24:40.001Z</time></trkpt><trkpt lat="39.458036030586314" lon="8.42985283741122"><ele>55.83333333333333</ele><time>2026-04-10T15:24:41.001Z</time></trkpt><trkpt lat="39.45811375598894" lon="8.429909356863783"><ele>56.666666666666664</ele><time>2026-04-10T15:24:42.001Z</time></trkpt><trkpt lat="39.458174600103064" lon="8.429971103824537"><ele>57.5</ele><time>2026-04-10T15:24:43.001Z</time></trkpt><trkpt lat="39.458207889119706" lon="8.430050597402232"><ele>58.33333333333333</ele><time>2026-04-10T15:24:44.001Z</time></trkpt><trkpt lat="39.458215177722515" lon="8.43014795415764"><ele>59.166666666666664</ele><time>2026-04-10T15:24:45.001Z</time></trkpt><trkpt lat="39.458217551642385" lon="8.4302453425116"><ele>60.0</ele><time>2026-04-10T15:24:46.001Z</time></trkpt><trkpt lat="39.45822893462978" lon="8.430357244185107"><ele>60.0</ele><time>2026-04-10T15:24:47.001Z</time></trkpt><trkpt lat="39.458242560520766" lon="8.43046502904939"><ele>60.0</ele><time>2026-04-10T15:24:48.001Z</time></trkpt><trkpt lat="39.45825274870193" lon="8.43057812281427"><ele>60.0</ele><time>2026-04-10T15:24:49.001Z</time></trkpt><trkpt lat="39.45825311829809" lon="8.430691449799133"><ele>60.0</ele><time>2026-04-10T15:24:50.001Z</time></trkpt><trkpt lat="39.458242065013025" lon="8.430805832944374"><ele>60.0</ele><time>2026-04-10T15:24:51.001Z</time></trkpt><trkpt lat="39.4581872721035" lon="8.430904166900419"><ele>60.0</ele><time>2026-04-10T15:24:52.001Z</time></trkpt><trkpt lat="39.45816593706215" lon="8.43101029988884"><ele>60.8</ele><time>2026-04-10T15:24:53.001Z</time></trkpt><trkpt lat="39.45817288498229" lon="8.431121270661015"><ele>61.6</ele><time>2026-04-10T15:24:54.001Z</time></trkpt><trkpt lat="39.458182200865714" lon="8.431237667770217"><ele>62.400000000000006</ele><time>2026-04-10T15:24:55.001Z</time></trkpt><trkpt lat="39.45821198450347" lon="8.431361023679806"><ele>63.2</ele><time>2026-04-10T15:24:56.001Z</time></trkpt><trkpt lat="39.458247904101846" lon="8.431509523656125"><ele>64.0</ele><time>2026-04-10T15:24:57.001Z</time></trkpt><trkpt lat="39.45829072689906" lon="8.431667335603704"><ele>66.25</ele><time>2026-04-10T15:24:58.001Z</time></trkpt><trkpt lat="39.45834059508126" lon="8.431845022580706"><ele>68.5</ele><time>2026-04-10T15:24:59.001Z</time></trkpt><trkpt lat="39.45838924292268" lon="8.432009671463186"><ele>70.75</ele><time>2026-04-10T15:25:00.001Z</time></trkpt><trkpt lat="39.45843735366238" lon="8.43214364716485"><ele>73.0</ele><time>2026-04-10T15:25:01.001Z</time></trkpt><trkpt lat="39.45849171414486" lon="8.432278575522766"><ele>74.4</ele><time>2026-04-10T15:25:02.001Z</time></trkpt><trkpt lat="39.45854881864345" lon="8.432410748306742"><ele>75.8</ele><time>2026-04-10T15:25:03.001Z</time></trkpt><trkpt lat="39.45859805797174" lon="8.432531940502987"><ele>77.2</ele><time>2026-04-10T15:25:04.001Z</time></trkpt><trkpt lat="39.45861355460385" lon="8.432657008203961"><ele>78.6</ele><time>2026-04-10T15:25:05.001Z</time></trkpt><trkpt lat="39.458640505900725" lon="8.432794334744967"><ele>80.0</ele><time>2026-04-10T15:25:06.001Z</time></trkpt><trkpt lat="39.45868076178128" lon="8.432944464266301"><ele>81.25</ele><time>2026-04-10T15:25:07.001Z</time></trkpt><trkpt lat="39.45870385657362" lon="8.43311343233897"><ele>82.5</ele><time>2026-04-10T15:25:08.001Z</time></trkpt><trkpt lat="39.45873562080237" lon="8.433293813194442"><ele>83.75</ele><time>2026-04-10T15:25:09.001Z</time></trkpt><trkpt lat="39.4587581694111" lon="8.433473747277558"><ele>85.0</ele><time>2026-04-10T15:25:10.001Z</time></trkpt><trkpt lat="39.45879287743955" lon="8.43364220203794"><ele>86.0</ele><time>2026-04-10T15:25:11.001Z</time></trkpt><trkpt lat="39.45880916535318" lon="8.433779588604294"><ele>87.0</ele><time>2026-04-10T15:25:12.001Z</time></trkpt><trkpt lat="39.45884592146133" lon="8.433896092029304"><ele>88.0</ele><time>2026-04-10T15:25:13.001Z</time></trkpt><trkpt lat="39.45888962786418" lon="8.434004403518475"><ele>89.0</ele><time>2026-04-10T15:25:14.001Z</time></trkpt><trkpt lat="39.45894506791174" lon="8.43412186342949"><ele>90.0</ele><time>2026-04-10T15:25:15.001Z</time></trkpt><trkpt lat="39.45899179437571" lon="8.43424245173923"><ele>90.66666666666667</ele><time>2026-04-10T15:25:16.001Z</time></trkpt><trkpt lat="39.45903559300127" lon="8.43436264030804"><ele>91.33333333333333</ele><time>2026-04-10T15:25:17.001Z</time></trkpt><trkpt lat="39.45907571245025" lon="8.434473737082843"><ele>92.0</ele><time>2026-04-10T15:25:18.001Z</time></trkpt><trkpt lat="39.459115066308506" lon="8.434567502586692"><ele>92.66666666666666</ele><time>2026-04-10T15:25:19.001Z</time></trkpt><trkpt lat="39.45913339012095" lon="8.434649591603545"><ele>93.33333333333333</ele><time>2026-04-10T15:25:20.001Z</time></trkpt><trkpt lat="39.459159352404576" lon="8.434723914156187"><ele>94.0</ele><time>2026-04-10T15:25:22.001Z</time></trkpt><trkpt lat="39.459210385220096" lon="8.434834560758892"><ele>94.5</ele><time>2026-04-10T15:25:35Z</time></trkpt><trkpt lat="39.45924589986783" lon="8.434959663679296"><ele>95.0</ele><time>2026-04-10T15:25:36Z</time></trkpt><trkpt lat="39.45929003786716" lon="8.435091972912671"><ele>95.5</ele><time>2026-04-10T15:25:37Z</time></trkpt><trkpt lat="39.45933014940416" lon="8.435245923606407"><ele>96.0</ele><time>2026-04-10T15:25:38Z</time></trkpt><trkpt lat="39.45939418399334" lon="8.43540866888397"><ele>97.0</ele><time>2026-04-10T15:25:39Z</time></trkpt><trkpt lat="39.459461139879" lon="8.435590612075048"><ele>98.0</ele><time>2026-04-10T15:25:40Z</time></trkpt><trkpt lat="39.45952626594565" lon="8.435790440433292"><ele>99.0</ele><time>2026-04-10T15:25:41Z</time></trkpt><trkpt lat="39.459585357361476" lon="8.435981688179965"><ele>99.5</ele><time>2026-04-10T15:25:42Z</time></trkpt><trkpt lat="39.45963829862444" lon="8.436143712646842"><ele>100.0</ele><time>2026-04-10T15:25:43Z</time></trkpt><trkpt lat="39.459683030657246" lon="8.436311423218845"><ele>100.5</ele><time>2026-04-10T15:25:44Z</time></trkpt><trkpt lat="39.45972161994218" lon="8.436487685047165"><ele>101.0</ele><time>2026-04-10T15:25:45Z</time></trkpt><trkpt lat="39.459754011648414" lon="8.436670376589483"><ele>102.25</ele><time>2026-04-10T15:25:46Z</time></trkpt><trkpt lat="39.45977145128645" lon="8.436849562113354"><ele>103.5</ele><time>2026-04-10T15:25:47Z</time></trkpt><trkpt lat="39.45976894073147" lon="8.437018630621372"><ele>104.75</ele><time>2026-04-10T15:25:48Z</time></trkpt><trkpt lat="39.45975822602395" lon="8.437200555948715"><ele>106.0</ele><time>2026-04-10T15:25:49Z</time></trkpt><trkpt lat="39.45976657058874" lon="8.437367519098375"><ele>107.0</ele><time>2026-04-10T15:25:50Z</time></trkpt><trkpt lat="39.45979711101714" lon="8.43754221176381"><ele>108.0</ele><time>2026-04-10T15:25:51Z</time></trkpt><trkpt lat="39.45982111233051" lon="8.43767958137947"><ele>109.0</ele><time>2026-04-10T15:25:52Z</time></trkpt><trkpt lat="39.459833535375004" lon="8.437831277932212"><ele>110.0</ele><time>2026-04-10T15:25:53Z</time></trkpt><trkpt lat="39.45981775755124" lon="8.437993345245618"><ele>111.66666666666666</ele><time>2026-04-10T15:25:54Z</time></trkpt><trkpt lat="39.45980155518469" lon="8.438178403857101"><ele>113.33333333333334</ele><time>2026-04-10T15:25:55Z</time></trkpt><trkpt lat="39.4597870541509" lon="8.43839148887223"><ele>115.0</ele><time>2026-04-10T15:25:56Z</time></trkpt><trkpt lat="39.45978998605151" lon="8.438641917957375"><ele>116.66666666666667</ele><time>2026-04-10T15:25:57Z</time></trkpt><trkpt lat="39.45980580811201" lon="8.43889028693508"><ele>118.33333333333334</ele><time>2026-04-10T15:25:58Z</time></trkpt><trkpt lat="39.45981850224765" lon="8.4391122833875"><ele>120.0</ele><time>2026-04-10T15:25:59Z</time></trkpt><trkpt lat="39.459823753570724" lon="8.439340206382338"><ele>120.0</ele><time>2026-04-10T15:26:00Z</time></trkpt><trkpt lat="39.45982650166052" lon="8.43958642933949"><ele>120.0</ele><time>2026-04-10T15:26:01Z</time></trkpt><trkpt lat="39.45982517415827" lon="8.439804229229699"><ele>120.0</ele><time>2026-04-10T15:26:02Z</time></trkpt><trkpt lat="39.459828717789215" lon="8.44000547382681"><ele>120.0</ele><time>2026-04-10T15:26:03Z</time></trkpt><trkpt lat="39.45983131385256" lon="8.440193540846304"><ele>120.0</ele><time>2026-04-10T15:26:04Z</time></trkpt><trkpt lat="39.459834374810384" lon="8.440366102561558"><ele>120.0</ele><time>2026-04-10T15:26:05Z</time></trkpt><trkpt lat="39.459839556252916" lon="8.440542026116578"><ele>120.0</ele><time>2026-04-10T15:26:06Z</time></trkpt><trkpt lat="39.45984311677121" lon="8.440711453698931"><ele>120.0</ele><time>2026-04-10T15:26:07Z</time></trkpt><trkpt lat="39.45984653541451" lon="8.440873981571206"><ele>120.0</ele><time>2026-04-10T15:26:08Z</time></trkpt><trkpt lat="39.45986183939099" lon="8.441009480836133"><ele>120.0</ele><time>2026-04-10T15:26:09Z</time></trkpt><trkpt lat="39.45988991493216" lon="8.441140657892829"><ele>120.0</ele><time>2026-04-10T15:26:10Z</time></trkpt><trkpt lat="39.459925446939636" lon="8.441255677873242"><ele>120.0</ele><time>2026-04-10T15:26:11Z</time></trkpt><trkpt lat="39.459963206368585" lon="8.441390248505117"><ele>120.0</ele><time>2026-04-10T15:26:13Z</time></trkpt><trkpt lat="39.460073521334" lon="8.441309864962896"><ele>120.0</ele><time>2026-04-10T15:26:15Z</time></trkpt><trkpt lat="39.460124246660875" lon="8.44123362884085"><ele>120.0</ele><time>2026-04-10T15:26:16Z</time></trkpt><trkpt lat="39.46022041150949" lon="8.441120959281074"><ele>120.0</ele><time>2026-04-10T15:26:17Z</time></trkpt><trkpt lat="39.46032663442788" lon="8.440965844742014"><ele>120.0</ele><time>2026-04-10T15:26:18Z</time></trkpt><trkpt lat="39.46044353457453" lon="8.440790509622106"><ele>120.0</ele><time>2026-04-10T15:26:19Z</time></trkpt><trkpt lat="39.46056011829258" lon="8.440583580912827"><ele>120.0</ele><time>2026-04-10T15:26:20Z</time></trkpt><trkpt lat="39.46070200446292" lon="8.440388669089069"><ele>121.0</ele><time>2026-04-10T15:26:21Z</time></trkpt><trkpt lat="39.46083447430142" lon="8.440181156325526"><ele>122.0</ele><time>2026-04-10T15:26:22Z</time></trkpt><trkpt lat="39.46095883466976" lon="8.440004072881079"><ele>123.0</ele><time>2026-04-10T15:26:23Z</time></trkpt><trkpt lat="39.46107066505523" lon="8.439844011874087"><ele>123.0</ele><time>2026-04-10T15:26:24Z</time></trkpt><trkpt lat="39.46117306540959" lon="8.439708323155715"><ele>123.0</ele><time>2026-04-10T15:26:25Z</time></trkpt><trkpt lat="39.461257601870564" lon="8.439598439587636"><ele>123.0</ele><time>2026-04-10T15:26:26Z</time></trkpt><trkpt lat="39.46135375468161" lon="8.439527294045643"><ele>123.0</ele><time>2026-04-10T15:26:27Z</time></trkpt><trkpt lat="39.461466106825874" lon="8.439412527534307"><ele>124.25</ele><time>2026-04-10T15:26:28Z</time></trkpt><trkpt lat="39.461586591415724" lon="8.439327083569777"><ele>125.5</ele><time>2026-04-10T15:26:29Z</time></trkpt><trkpt lat="39.46166098889695" lon="8.439230091325538"><ele>126.75</ele><time>2026-04-10T15:26:30Z</time></trkpt><trkpt lat="39.46172200531882" lon="8.439113559972341"><ele>128.0</ele><time>2026-04-10T15:26:31Z</time></trkpt><trkpt lat="39.46180137993872" lon="8.439008054755883"><ele>128.0</ele><time>2026-04-10T15:26:32Z</time></trkpt><trkpt lat="39.461890227484" lon="8.438919839142637"><ele>128.0</ele><time>2026-04-10T15:26:33Z</time></trkpt><trkpt lat="39.46200653954749" lon="8.43879349192026"><ele>128.0</ele><time>2026-04-10T15:26:34Z</time></trkpt><trkpt lat="39.46213053251442" lon="8.438680063677136"><ele>128.0</ele><time>2026-04-10T15:26:35Z</time></trkpt><trkpt lat="39.46220490038338" lon="8.438575531472628"><ele>130.0</ele><time>2026-04-10T15:26:36Z</time></trkpt><trkpt lat="39.46230264330886" lon="8.438453738896133"><ele>132.0</ele><time>2026-04-10T15:26:37Z</time></trkpt><trkpt lat="39.46243814075465" lon="8.438308419869"><ele>134.0</ele><time>2026-04-10T15:26:38Z</time></trkpt><trkpt lat="39.46258964941957" lon="8.438162724422249"><ele>134.0</ele><time>2026-04-10T15:26:39Z</time></trkpt><trkpt lat="39.462745355369364" lon="8.438023223291857"><ele>134.0</ele><time>2026-04-10T15:26:40Z</time></trkpt><trkpt lat="39.46288253180992" lon="8.437899954434108"><ele>134.0</ele><time>2026-04-10T15:26:41Z</time></trkpt><trkpt lat="39.46301911834254" lon="8.437776740410213"><ele>134.5</ele><time>2026-04-10T15:26:42Z</time></trkpt><trkpt lat="39.463154837428185" lon="8.4377024459577"><ele>135.0</ele><time>2026-04-10T15:26:43Z</time></trkpt><trkpt lat="39.46326872376004" lon="8.43762300919987"><ele>135.5</ele><time>2026-04-10T15:26:44Z</time></trkpt><trkpt lat="39.46335996575347" lon="8.437539923740152"><ele>136.0</ele><time>2026-04-10T15:26:45Z</time></trkpt><trkpt lat="39.46346488842022" lon="8.437463083666685"><ele>136.0</ele><time>2026-04-10T15:26:46Z</time></trkpt><trkpt lat="39.46357171756782" lon="8.43738081303504"><ele>136.0</ele><time>2026-04-10T15:26:47Z</time></trkpt><trkpt lat="39.46367962681589" lon="8.437302161532067"><ele>136.0</ele><time>2026-04-10T15:26:48Z</time></trkpt><trkpt lat="39.46378800252046" lon="8.43722469988604"><ele>136.0</ele><time>2026-04-10T15:26:49Z</time></trkpt><trkpt lat="39.463888320637516" lon="8.437150969128655"><ele>137.6</ele><time>2026-04-10T15:26:50Z</time></trkpt><trkpt lat="39.463973985537066" lon="8.437095260474319"><ele>139.2</ele><time>2026-04-10T15:26:51Z</time></trkpt><trkpt lat="39.4640688057254" lon="8.43705444199232"><ele>140.8</ele><time>2026-04-10T15:26:52Z</time></trkpt><trkpt lat="39.46417113656345" lon="8.437029358458316"><ele>142.4</ele><time>2026-04-10T15:26:53Z</time></trkpt><trkpt lat="39.46426236555851" lon="8.436986071946471"><ele>144.0</ele><time>2026-04-10T15:26:54Z</time></trkpt><trkpt lat="39.464373842015675" lon="8.436905537874653"><ele>144.0</ele><time>2026-04-10T15:26:55Z</time></trkpt><trkpt lat="39.46446310842663" lon="8.436826728838948"><ele>144.0</ele><time>2026-04-10T15:26:56Z</time></trkpt><trkpt lat="39.46455897620509" lon="8.43675995432244"><ele>144.0</ele><time>2026-04-10T15:26:57Z</time></trkpt><trkpt lat="39.464668056657224" lon="8.436707094120653"><ele>144.0</ele><time>2026-04-10T15:26:58Z</time></trkpt><trkpt lat="39.46477371428137" lon="8.436664712564161"><ele>144.0</ele><time>2026-04-10T15:26:59Z</time></trkpt><trkpt lat="39.464857506520566" lon="8.436619174689461"><ele>146.0</ele><time>2026-04-10T15:27:00Z</time></trkpt><trkpt lat="39.4649302148987" lon="8.436535510471751"><ele>148.0</ele><time>2026-04-10T15:27:01Z</time></trkpt><trkpt lat="39.46499603117295" lon="8.43643762735775"><ele>150.0</ele><time>2026-04-10T15:27:02Z</time></trkpt><trkpt lat="39.46508882036381" lon="8.436401085831655"><ele>152.0</ele><time>2026-04-10T15:27:03Z</time></trkpt><trkpt lat="39.46519137812578" lon="8.43636026266305"><ele>154.0</ele><time>2026-04-10T15:27:04Z</time></trkpt><trkpt lat="39.465308795473206" lon="8.436298119593525"><ele>154.0</ele><time>2026-04-10T15:27:05Z</time></trkpt><trkpt lat="39.46541509729265" lon="8.436193793976027"><ele>154.0</ele><time>2026-04-10T15:27:06Z</time></trkpt><trkpt lat="39.46554399081016" lon="8.436096898028524"><ele>154.0</ele><time>2026-04-10T15:27:07Z</time></trkpt><trkpt lat="39.465647186046695" lon="8.436028510849214"><ele>154.0</ele><time>2026-04-10T15:27:08Z</time></trkpt><trkpt lat="39.46575353072212" lon="8.435961682283777"><ele>156.5</ele><time>2026-04-10T15:27:09Z</time></trkpt><trkpt lat="39.46587022199335" lon="8.43588884538652"><ele>159.0</ele><time>2026-04-10T15:27:10Z</time></trkpt><trkpt lat="39.465988258420985" lon="8.435816749144488"><ele>161.5</ele><time>2026-04-10T15:27:11Z</time></trkpt><trkpt lat="39.46609521463398" lon="8.43573050532545"><ele>164.0</ele><time>2026-04-10T15:27:12Z</time></trkpt><trkpt lat="39.466208403363865" lon="8.435676229231552"><ele>166.39999999999998</ele><time>2026-04-10T15:27:13Z</time></trkpt><trkpt lat="39.466307941405105" lon="8.43563326974554"><ele>168.8</ele><time>2026-04-10T15:27:14Z</time></trkpt><trkpt lat="39.46640555936921" lon="8.435593493758153"><ele>171.2</ele><time>2026-04-10T15:27:15Z</time></trkpt><trkpt lat="39.466501758633406" lon="8.435558223708316"><ele>173.60000000000002</ele><time>2026-04-10T15:27:16Z</time></trkpt><trkpt lat="39.46660572006411" lon="8.435539011661703"><ele>176.0</ele><time>2026-04-10T15:27:17Z</time></trkpt><trkpt lat="39.466721862851074" lon="8.435523750702336"><ele>176.0</ele><time>2026-04-10T15:27:18Z</time></trkpt><trkpt lat="39.46683153428433" lon="8.435505374636485"><ele>176.0</ele><time>2026-04-10T15:27:19Z</time></trkpt><trkpt lat="39.46693061132005" lon="8.435500212306362"><ele>176.0</ele><time>2026-04-10T15:27:20Z</time></trkpt><trkpt lat="39.46703811710597" lon="8.435495246888044"><ele>176.0</ele><time>2026-04-10T15:27:21Z</time></trkpt><trkpt lat="39.46715295336353" lon="8.435481077772184"><ele>176.0</ele><time>2026-04-10T15:27:22Z</time></trkpt><trkpt lat="39.46725945033078" lon="8.43545913766282"><ele>177.33333333333331</ele><time>2026-04-10T15:27:23Z</time></trkpt><trkpt lat="39.46735130203847" lon="8.435464210035649"><ele>178.66666666666666</ele><time>2026-04-10T15:27:24Z</time></trkpt><trkpt lat="39.46741799552217" lon="8.435475248605712"><ele>180.0</ele><time>2026-04-10T15:27:25Z</time></trkpt><trkpt lat="39.467492764442795" lon="8.43549982528585"><ele>181.33333333333334</ele><time>2026-04-10T15:27:26Z</time></trkpt><trkpt lat="39.46758127678869" lon="8.43554128980648"><ele>182.66666666666669</ele><time>2026-04-10T15:27:27Z</time></trkpt><trkpt lat="39.46769127169276" lon="8.43559716002058"><ele>184.0</ele><time>2026-04-10T15:27:28Z</time></trkpt><trkpt lat="39.46779783272512" lon="8.435653827480708"><ele>184.79999999999998</ele><time>2026-04-10T15:27:29Z</time></trkpt><trkpt lat="39.46788866483133" lon="8.435693467310609"><ele>185.6</ele><time>2026-04-10T15:27:30Z</time></trkpt><trkpt lat="39.467976974358976" lon="8.435736349150075"><ele>186.4</ele><time>2026-04-10T15:27:31Z</time></trkpt><trkpt lat="39.46806704840839" lon="8.435791149759313"><ele>187.2</ele><time>2026-04-10T15:27:32Z</time></trkpt><trkpt lat="39.46816451217662" lon="8.435847241266748"><ele>188.0</ele><time>2026-04-10T15:27:33Z</time></trkpt><trkpt lat="39.46826556923712" lon="8.435894390586723"><ele>190.0</ele><time>2026-04-10T15:27:34Z</time></trkpt><trkpt lat="39.468365871995054" lon="8.435934078483687"><ele>192.0</ele><time>2026-04-10T15:27:35Z</time></trkpt><trkpt lat="39.46846427323064" lon="8.435985580426552"><ele>194.0</ele><time>2026-04-10T15:27:36Z</time></trkpt><trkpt lat="39.468557778943" lon="8.436057680565987"><ele>196.0</ele><time>2026-04-10T15:27:37Z</time></trkpt><trkpt lat="39.46864334987951" lon="8.436146805449711"><ele>198.0</ele><time>2026-04-10T15:27:38Z</time></trkpt><trkpt lat="39.46871609574514" lon="8.436253966013998"><ele>200.0</ele><time>2026-04-10T15:27:39Z</time></trkpt><trkpt lat="39.46876975838097" lon="8.436354269030254"><ele>202.0</ele><time>2026-04-10T15:27:40Z</time></trkpt><trkpt lat="39.46880999845662" lon="8.436436632675854"><ele>204.0</ele><time>2026-04-10T15:27:41Z</time></trkpt><trkpt lat="39.46891549753153" lon="8.436521874287338"><ele>206.0</ele><time>2026-04-10T15:27:43Z</time></trkpt><trkpt lat="39.468985596736935" lon="8.43650296192591"><ele>208.0</ele><time>2026-04-10T15:27:44Z</time></trkpt><trkpt lat="39.46906960303398" lon="8.436467521808753"><ele>208.0</ele><time>2026-04-10T15:27:45Z</time></trkpt><trkpt lat="39.469177316805734" lon="8.436390818450446"><ele>208.0</ele><time>2026-04-10T15:27:46Z</time></trkpt><trkpt lat="39.469257958870614" lon="8.43632676105886"><ele>208.0</ele><time>2026-04-10T15:27:47Z</time></trkpt><trkpt lat="39.46933904543242" lon="8.436271312106975"><ele>208.0</ele><time>2026-04-10T15:27:48Z</time></trkpt><trkpt lat="39.46942399906642" lon="8.436213218821122"><ele>208.0</ele><time>2026-04-10T15:27:49Z</time></trkpt><trkpt lat="39.4694962449529" lon="8.436138441669252"><ele>208.0</ele><time>2026-04-10T15:27:50Z</time></trkpt><trkpt lat="39.46957603911023" lon="8.436072522494182"><ele>208.0</ele><time>2026-04-10T15:27:51Z</time></trkpt><trkpt lat="39.46964856451159" lon="8.435994652950766"><ele>208.0</ele><time>2026-04-10T15:27:52Z</time></trkpt><trkpt lat="39.46971375229344" lon="8.435906605345838"><ele>208.0</ele><time>2026-04-10T15:27:53Z</time></trkpt><trkpt lat="39.46977245183116" lon="8.435821927268243"><ele>208.0</ele><time>2026-04-10T15:27:54Z</time></trkpt><trkpt lat="39.469841274844406" lon="8.435746241174982"><ele>210.4</ele><time>2026-04-10T15:27:55Z</time></trkpt><trkpt lat="39.469918735998526" lon="8.435693537494975"><ele>212.8</ele><time>2026-04-10T15:27:56Z</time></trkpt><trkpt lat="39.47001106414644" lon="8.435655026152638"><ele>215.2</ele><time>2026-04-10T15:27:57Z</time></trkpt><trkpt lat="39.47010810119421" lon="8.435626304481966"><ele>217.6</ele><time>2026-04-10T15:27:58Z</time></trkpt><trkpt lat="39.47021686004247" lon="8.435622990804351"><ele>220.0</ele><time>2026-04-10T15:27:59Z</time></trkpt><trkpt lat="39.4703158835859" lon="8.435573629185344"><ele>220.0</ele><time>2026-04-10T15:28:00Z</time></trkpt><trkpt lat="39.47040997972902" lon="8.435496250078852"><ele>220.0</ele><time>2026-04-10T15:28:01Z</time></trkpt><trkpt lat="39.47050144931921" lon="8.435415174750032"><ele>220.0</ele><time>2026-04-10T15:28:02Z</time></trkpt><trkpt lat="39.47060259849612" lon="8.435330047512087"><ele>220.0</ele><time>2026-04-10T15:28:03Z</time></trkpt><trkpt lat="39.47071164039014" lon="8.43524438238997"><ele>221.8</ele><time>2026-04-10T15:28:04Z</time></trkpt><trkpt lat="39.47080192534548" lon="8.435173453042367"><ele>223.6</ele><time>2026-04-10T15:28:05Z</time></trkpt><trkpt lat="39.47088282240256" lon="8.435108604550143"><ele>225.39999999999998</ele><time>2026-04-10T15:28:06Z</time></trkpt><trkpt lat="39.47095928538768" lon="8.43502326199302"><ele>227.2</ele><time>2026-04-10T15:28:07Z</time></trkpt><trkpt lat="39.471051154281945" lon="8.434949435709564"><ele>229.0</ele><time>2026-04-10T15:28:08Z</time></trkpt><trkpt lat="39.47112625057274" lon="8.434865267269885"><ele>228.99999999999997</ele><time>2026-04-10T15:28:09Z</time></trkpt><trkpt lat="39.47119064900311" lon="8.434798270351235"><ele>229.0</ele><time>2026-04-10T15:28:10Z</time></trkpt><trkpt lat="39.47125438554881" lon="8.434740440288486"><ele>229.0</ele><time>2026-04-10T15:28:11Z</time></trkpt><trkpt lat="39.471328115923946" lon="8.434705087672494"><ele>229.0</ele><time>2026-04-10T15:28:12Z</time></trkpt><trkpt lat="39.471413461446126" lon="8.434737805760417"><ele>228.99999999999997</ele><time>2026-04-10T15:28:13Z</time></trkpt><trkpt lat="39.47152709910289" lon="8.434734619651822"><ele>229.0</ele><time>2026-04-10T15:28:14Z</time></trkpt><trkpt lat="39.47163435542121" lon="8.434715473245957"><ele>230.16666666666666</ele><time>2026-04-10T15:28:15Z</time></trkpt><trkpt lat="39.471720967943995" lon="8.434700189451913"><ele>231.33333333333331</ele><time>2026-04-10T15:28:16Z</time></trkpt><trkpt lat="39.47179174870566" lon="8.434684146742022"><ele>232.5</ele><time>2026-04-10T15:28:17Z</time></trkpt><trkpt lat="39.47190006413461" lon="8.434723343333971"><ele>233.66666666666669</ele><time>2026-04-10T15:28:19Z</time></trkpt><trkpt lat="39.471929268344034" lon="8.43483516058987"><ele>234.83333333333334</ele><time>2026-04-10T15:28:21Z</time></trkpt><trkpt lat="39.47191467388538" lon="8.434923291117649"><ele>236.0</ele><time>2026-04-10T15:28:22Z</time></trkpt><trkpt lat="39.47187510613071" lon="8.435047343073055"><ele>236.0</ele><time>2026-04-10T15:28:23Z</time></trkpt><trkpt lat="39.471837143962034" lon="8.435187426683648"><ele>236.00000000000003</ele><time>2026-04-10T15:28:24Z</time></trkpt><trkpt lat="39.471796191105916" lon="8.435328543282429"><ele>236.00000000000003</ele><time>2026-04-10T15:28:25Z</time></trkpt><trkpt lat="39.47176047998955" lon="8.435469025292246"><ele>236.0</ele><time>2026-04-10T15:28:26Z</time></trkpt><trkpt lat="39.47173046402058" lon="8.435589876929978"><ele>236.0</ele><time>2026-04-10T15:28:27Z</time></trkpt><trkpt lat="39.471708370435785" lon="8.435680997453922"><ele>235.33333333333334</ele><time>2026-04-10T15:28:28Z</time></trkpt><trkpt lat="39.47168998752363" lon="8.435772538266557"><ele>234.66666666666669</ele><time>2026-04-10T15:28:29Z</time></trkpt><trkpt lat="39.471672735883466" lon="8.435873643508014"><ele>234.0</ele><time>2026-04-10T15:28:30Z</time></trkpt><trkpt lat="39.471657077351566" lon="8.435977800902444"><ele>233.33333333333331</ele><time>2026-04-10T15:28:31Z</time></trkpt><trkpt lat="39.47165042136906" lon="8.436102948788195"><ele>232.66666666666666</ele><time>2026-04-10T15:28:32Z</time></trkpt><trkpt lat="39.47165402036117" lon="8.436254093053725"><ele>232.0</ele><time>2026-04-10T15:28:33Z</time></trkpt><trkpt lat="39.4716623336389" lon="8.436405264052645"><ele>230.2</ele><time>2026-04-10T15:28:34Z</time></trkpt><trkpt lat="39.47166884558484" lon="8.436544199292022"><ele>228.39999999999998</ele><time>2026-04-10T15:28:35Z</time></trkpt><trkpt lat="39.47166185483432" lon="8.436672418741209"><ele>226.60000000000002</ele><time>2026-04-10T15:28:36Z</time></trkpt><trkpt lat="39.47165158715128" lon="8.436802092629765"><ele>224.8</ele><time>2026-04-10T15:28:37Z</time></trkpt><trkpt lat="39.47163413034087" lon="8.436926155612733"><ele>223.0</ele><time>2026-04-10T15:28:38Z</time></trkpt><trkpt lat="39.47160998334743" lon="8.437047612083921"><ele>221.8</ele><time>2026-04-10T15:28:39Z</time></trkpt><trkpt lat="39.471589746815674" lon="8.437149040884002"><ele>220.60000000000002</ele><time>2026-04-10T15:28:40Z</time></trkpt><trkpt lat="39.47157725193107" lon="8.437246021314031"><ele>219.39999999999998</ele><time>2026-04-10T15:28:41Z</time></trkpt><trkpt lat="39.47157743421686" lon="8.437333288394798"><ele>218.2</ele><time>2026-04-10T15:28:42Z</time></trkpt><trkpt lat="39.47157084583801" lon="8.437472897007536"><ele>217.0</ele><time>2026-04-10T15:28:44Z</time></trkpt><trkpt lat="39.47166182818535" lon="8.437589893372758"><ele>217.0</ele><time>2026-04-10T15:28:46Z</time></trkpt><trkpt lat="39.4717413211489" lon="8.43760478928594"><ele>217.0</ele><time>2026-04-10T15:28:47Z</time></trkpt><trkpt lat="39.471838639920385" lon="8.437570944361962"><ele>217.0</ele><time>2026-04-10T15:28:48Z</time></trkpt><trkpt lat="39.47195933146727" lon="8.437484048387054"><ele>217.0</ele><time>2026-04-10T15:28:49Z</time></trkpt><trkpt lat="39.47211338081969" lon="8.437393866695595"><ele>214.33333333333331</ele><time>2026-04-10T15:28:50Z</time></trkpt><trkpt lat="39.47226565760352" lon="8.437314315352332"><ele>211.66666666666669</ele><time>2026-04-10T15:28:51Z</time></trkpt><trkpt lat="39.47241208557533" lon="8.437263852276253"><ele>209.0</ele><time>2026-04-10T15:28:52Z</time></trkpt><trkpt lat="39.472554281811824" lon="8.4372626847852"><ele>209.0</ele><time>2026-04-10T15:28:53Z</time></trkpt><trkpt lat="39.4726862267128" lon="8.437244167652112"><ele>209.0</ele><time>2026-04-10T15:28:54Z</time></trkpt><trkpt lat="39.472806221715196" lon="8.43719270291543"><ele>209.0</ele><time>2026-04-10T15:28:55Z</time></trkpt><trkpt lat="39.47292083456083" lon="8.437152638791982"><ele>209.0</ele><time>2026-04-10T15:28:56Z</time></trkpt><trkpt lat="39.47303144592661" lon="8.437102301134376"><ele>207.75</ele><time>2026-04-10T15:28:57Z</time></trkpt><trkpt lat="39.47314281148108" lon="8.437046278354073"><ele>206.5</ele><time>2026-04-10T15:28:58Z</time></trkpt><trkpt lat="39.473257323514574" lon="8.436978376756802"><ele>205.25</ele><time>2026-04-10T15:28:59Z</time></trkpt><trkpt lat="39.47337549045448" lon="8.436897800647394"><ele>204.0</ele><time>2026-04-10T15:29:00Z</time></trkpt><trkpt lat="39.47350232222733" lon="8.436817949122224"><ele>204.0</ele><time>2026-04-10T15:29:01Z</time></trkpt><trkpt lat="39.47362732895748" lon="8.436756345732155"><ele>204.0</ele><time>2026-04-10T15:29:02Z</time></trkpt><trkpt lat="39.47373287949282" lon="8.436683277062983"><ele>204.0</ele><time>2026-04-10T15:29:03Z</time></trkpt><trkpt lat="39.47383769804766" lon="8.436607774218425"><ele>204.0</ele><time>2026-04-10T15:29:04Z</time></trkpt><trkpt lat="39.47393526597282" lon="8.436532178349848"><ele>201.79999999999998</ele><time>2026-04-10T15:29:05Z</time></trkpt><trkpt lat="39.47401252128812" lon="8.436447103984479"><ele>199.6</ele><time>2026-04-10T15:29:06Z</time></trkpt><trkpt lat="39.4740902001446" lon="8.436365486893653"><ele>197.4</ele><time>2026-04-10T15:29:07Z</time></trkpt><trkpt lat="39.474158288654465" lon="8.436289116764327"><ele>195.2</ele><time>2026-04-10T15:29:08Z</time></trkpt><trkpt lat="39.47422334176706" lon="8.436214540316344"><ele>193.0</ele><time>2026-04-10T15:29:09Z</time></trkpt><trkpt lat="39.47429129125722" lon="8.436172487734485"><ele>192.99999999999997</ele><time>2026-04-10T15:29:10Z</time></trkpt><trkpt lat="39.47436189150358" lon="8.436120398578284"><ele>193.0</ele><time>2026-04-10T15:29:11Z</time></trkpt><trkpt lat="39.474424799456735" lon="8.43607978743928"><ele>193.0</ele><time>2026-04-10T15:29:12Z</time></trkpt><trkpt lat="39.4745086773624" lon="8.436001040475963"><ele>193.0</ele><time>2026-04-10T15:29:14Z</time></trkpt><trkpt lat="39.4745705549866" lon="8.435976213444096"><ele>192.99999999999997</ele><time>2026-04-10T15:30:14Z</time></trkpt><trkpt lat="39.47463274226447" lon="8.43592405708549"><ele>193.0</ele><time>2026-04-10T15:30:17Z</time></trkpt><trkpt lat="39.47468866300608" lon="8.435875096030074"><ele>191.66666666666666</ele><time>2026-04-10T15:30:19Z</time></trkpt><trkpt lat="39.47475087832564" lon="8.435821261790029"><ele>190.33333333333331</ele><time>2026-04-10T15:30:23Z</time></trkpt><trkpt lat="39.47481350492676" lon="8.435768718190895"><ele>189.0</ele><time>2026-04-10T15:31:07Z</time></trkpt><trkpt lat="39.47487059571717" lon="8.435704038158539"><ele>187.66666666666666</ele><time>2026-04-10T15:31:10Z</time></trkpt><trkpt lat="39.47493688470762" lon="8.435691764163549"><ele>186.33333333333331</ele><time>2026-04-10T15:31:51Z</time></trkpt><trkpt lat="39.47503375713392" lon="8.435642372172444"><ele>185.0</ele><time>2026-04-10T15:31:52Z</time></trkpt><trkpt lat="39.47516422647851" lon="8.435596559262727"><ele>185.0</ele><time>2026-04-10T15:31:53Z</time></trkpt><trkpt lat="39.47527869857016" lon="8.435580707353342"><ele>185.0</ele><time>2026-04-10T15:31:54Z</time></trkpt><trkpt lat="39.47535576631168" lon="8.435552772369633"><ele>185.0</ele><time>2026-04-10T15:31:55Z</time></trkpt><trkpt lat="39.47543020801771" lon="8.435517567131313"><ele>185.0</ele><time>2026-04-10T15:31:56Z</time></trkpt><trkpt lat="39.475516679372724" lon="8.435448242447078"><ele>185.0</ele><time>2026-04-10T15:31:58Z</time></trkpt><trkpt lat="39.475576941645144" lon="8.435375747563565"><ele>183.25</ele><time>2026-04-10T15:32:00Z</time></trkpt><trkpt lat="39.475621312437404" lon="8.435308084528108"><ele>181.5</ele><time>2026-04-10T15:32:01Z</time></trkpt><trkpt lat="39.47568931945778" lon="8.435207690162528"><ele>179.75</ele><time>2026-04-10T15:32:02Z</time></trkpt><trkpt lat="39.475810262843986" lon="8.435066441293507"><ele>178.0</ele><time>2026-04-10T15:32:03Z</time></trkpt><trkpt lat="39.47592249524907" lon="8.434944242370598"><ele>178.0</ele><time>2026-04-10T15:32:04Z</time></trkpt><trkpt lat="39.47600017438674" lon="8.434862282319875"><ele>178.0</ele><time>2026-04-10T15:32:05Z</time></trkpt><trkpt lat="39.476069870434436" lon="8.434768525330133"><ele>178.0</ele><time>2026-04-10T15:32:06Z</time></trkpt><trkpt lat="39.47615000411936" lon="8.434687356592324"><ele>178.0</ele><time>2026-04-10T15:32:07Z</time></trkpt><trkpt lat="39.476231080543656" lon="8.434608124864988"><ele>178.0</ele><time>2026-04-10T15:32:08Z</time></trkpt><trkpt lat="39.47632475843724" lon="8.434523426832754"><ele>177.25</ele><time>2026-04-10T15:32:09Z</time></trkpt><trkpt lat="39.47642820454315" lon="8.434430415727732"><ele>176.5</ele><time>2026-04-10T15:32:10Z</time></trkpt><trkpt lat="39.476541822419435" lon="8.434339089935877"><ele>175.75</ele><time>2026-04-10T15:32:11Z</time></trkpt><trkpt lat="39.47664926198858" lon="8.434250542968998"><ele>175.0</ele><time>2026-04-10T15:32:12Z</time></trkpt><trkpt lat="39.47676848471809" lon="8.434155174424603"><ele>175.0</ele><time>2026-04-10T15:32:13Z</time></trkpt><trkpt lat="39.476913847789014" lon="8.434038355059254"><ele>175.0</ele><time>2026-04-10T15:32:14Z</time></trkpt><trkpt lat="39.47707041050763" lon="8.4339267776145"><ele>175.0</ele><time>2026-04-10T15:32:15Z</time></trkpt><trkpt lat="39.47721512810496" lon="8.43384181645767"><ele>173.25</ele><time>2026-04-10T15:32:16Z</time></trkpt><trkpt lat="39.4773503559477" lon="8.433775337039743"><ele>171.5</ele><time>2026-04-10T15:32:17Z</time></trkpt><trkpt lat="39.47748915324224" lon="8.433718461742965"><ele>169.75</ele><time>2026-04-10T15:32:18Z</time></trkpt><trkpt lat="39.47763316303364" lon="8.433669220071906"><ele>168.0</ele><time>2026-04-10T15:32:19Z</time></trkpt><trkpt lat="39.47776933736548" lon="8.433626284796583"><ele>168.0</ele><time>2026-04-10T15:32:20Z</time></trkpt><trkpt lat="39.47789388809062" lon="8.433582071296435"><ele>168.0</ele><time>2026-04-10T15:32:21Z</time></trkpt><trkpt lat="39.47802000157748" lon="8.433515180171927"><ele>168.0</ele><time>2026-04-10T15:32:22Z</time></trkpt><trkpt lat="39.47814874373133" lon="8.433436637436328"><ele>168.0</ele><time>2026-04-10T15:32:23Z</time></trkpt><trkpt lat="39.47826396513095" lon="8.433371718052564"><ele>167.0</ele><time>2026-04-10T15:32:24Z</time></trkpt><trkpt lat="39.47836786781177" lon="8.433319605223609"><ele>166.0</ele><time>2026-04-10T15:32:25Z</time></trkpt><trkpt lat="39.478459298224685" lon="8.433268556152163"><ele>165.0</ele><time>2026-04-10T15:32:26Z</time></trkpt><trkpt lat="39.478544587489665" lon="8.433208649958003"><ele>164.0</ele><time>2026-04-10T15:32:27Z</time></trkpt><trkpt lat="39.478623852175076" lon="8.433150217956715"><ele>163.0</ele><time>2026-04-10T15:32:28Z</time></trkpt><trkpt lat="39.47869488046736" lon="8.433055699719013"><ele>160.5</ele><time>2026-04-10T15:32:29Z</time></trkpt><trkpt lat="39.478814763184914" lon="8.432958109954598"><ele>158.0</ele><time>2026-04-10T15:32:30Z</time></trkpt><trkpt lat="39.478883597231736" lon="8.432761639423967"><ele>155.5</ele><time>2026-04-10T15:32:31Z</time></trkpt><trkpt lat="39.478970707829006" lon="8.432624334865745"><ele>153.0</ele><time>2026-04-10T15:32:32Z</time></trkpt><trkpt lat="39.479043246496275" lon="8.432511819289255"><ele>153.0</ele><time>2026-04-10T15:32:33Z</time></trkpt><trkpt lat="39.47909865715109" lon="8.432412564763654"><ele>153.0</ele><time>2026-04-10T15:32:34Z</time></trkpt><trkpt lat="39.479154799021174" lon="8.432306622009262"><ele>153.0</ele><time>2026-04-10T15:32:35Z</time></trkpt><trkpt lat="39.47922332460137" lon="8.432211480085765"><ele>153.0</ele><time>2026-04-10T15:32:36Z</time></trkpt><trkpt lat="39.47930043565372" lon="8.43214851710863"><ele>153.0</ele><time>2026-04-10T15:32:37Z</time></trkpt><trkpt lat="39.47939687451916" lon="8.432099769966836"><ele>152.8</ele><time>2026-04-10T15:32:38Z</time></trkpt><trkpt lat="39.47948425318634" lon="8.432044904445375"><ele>152.60000000000002</ele><time>2026-04-10T15:32:39Z</time></trkpt><trkpt lat="39.47955408102179" lon="8.431981036599282"><ele>152.39999999999998</ele><time>2026-04-10T15:32:40Z</time></trkpt><trkpt lat="39.479608856573265" lon="8.431906568519842"><ele>152.2</ele><time>2026-04-10T15:32:41Z</time></trkpt><trkpt lat="39.47967317028962" lon="8.431818712250823"><ele>152.0</ele><time>2026-04-10T15:32:42Z</time></trkpt><trkpt lat="39.47974301976266" lon="8.431734536063443"><ele>151.83333333333331</ele><time>2026-04-10T15:32:43Z</time></trkpt><trkpt lat="39.47982242428946" lon="8.431663456810423"><ele>151.66666666666666</ele><time>2026-04-10T15:32:44Z</time></trkpt><trkpt lat="39.47990101871055" lon="8.431601168723997"><ele>151.5</ele><time>2026-04-10T15:32:45Z</time></trkpt><trkpt lat="39.479973266303936" lon="8.431561563643568"><ele>151.33333333333334</ele><time>2026-04-10T15:32:46Z</time></trkpt><trkpt lat="39.480054180214864" lon="8.43154256623826"><ele>151.16666666666669</ele><time>2026-04-10T15:32:47Z</time></trkpt><trkpt lat="39.48011895474122" lon="8.431533548463587"><ele>151.0</ele><time>2026-04-10T15:32:48Z</time></trkpt><trkpt lat="39.48019441384161" lon="8.431488439347438"><ele>151.0</ele><time>2026-04-10T15:32:49Z</time></trkpt><trkpt lat="39.48029044452862" lon="8.43145196575302"><ele>151.0</ele><time>2026-04-10T15:32:50Z</time></trkpt><trkpt lat="39.480382365946646" lon="8.431417843722535"><ele>151.0</ele><time>2026-04-10T15:32:51Z</time></trkpt><trkpt lat="39.48046993304885" lon="8.431379567930964"><ele>151.0</ele><time>2026-04-10T15:32:52Z</time></trkpt><trkpt lat="39.480562349041215" lon="8.431325797254527"><ele>151.0</ele><time>2026-04-10T15:32:53Z</time></trkpt><trkpt lat="39.48066433597619" lon="8.431225535614695"><ele>148.66666666666669</ele><time>2026-04-10T15:32:54Z</time></trkpt><trkpt lat="39.48075523398545" lon="8.431082396295066"><ele>146.33333333333334</ele><time>2026-04-10T15:32:55Z</time></trkpt><trkpt lat="39.48084741825978" lon="8.430904704245267"><ele>144.0</ele><time>2026-04-10T15:32:56Z</time></trkpt><trkpt lat="39.480943745643664" lon="8.430752878841814"><ele>144.0</ele><time>2026-04-10T15:32:57Z</time></trkpt><trkpt lat="39.481059643323874" lon="8.430625044822058"><ele>144.0</ele><time>2026-04-10T15:32:58Z</time></trkpt><trkpt lat="39.48118583882267" lon="8.430507307167051"><ele>144.0</ele><time>2026-04-10T15:32:59Z</time></trkpt><trkpt lat="39.48132267223903" lon="8.43039337517367"><ele>143.0</ele><time>2026-04-10T15:33:00Z</time></trkpt><trkpt lat="39.48145982174066" lon="8.430296190086343"><ele>142.0</ele><time>2026-04-10T15:33:01Z</time></trkpt><trkpt lat="39.481570656633835" lon="8.43022074066883"><ele>141.0</ele><time>2026-04-10T15:33:02Z</time></trkpt><trkpt lat="39.48167389575083" lon="8.430146075883435"><ele>140.0</ele><time>2026-04-10T15:33:03Z</time></trkpt><trkpt lat="39.48178836363649" lon="8.430066243203923"><ele>140.0</ele><time>2026-04-10T15:33:04Z</time></trkpt><trkpt lat="39.481912361920166" lon="8.429986417113692"><ele>140.0</ele><time>2026-04-10T15:33:05Z</time></trkpt><trkpt lat="39.48203985214611" lon="8.429896065737568"><ele>140.0</ele><time>2026-04-10T15:33:06Z</time></trkpt><trkpt lat="39.48216188974711" lon="8.429789321428345"><ele>140.0</ele><time>2026-04-10T15:33:07Z</time></trkpt><trkpt lat="39.48228842568658" lon="8.429677830990855"><ele>138.33333333333331</ele><time>2026-04-10T15:33:08Z</time></trkpt><trkpt lat="39.482421960591154" lon="8.429556840476668"><ele>136.66666666666666</ele><time>2026-04-10T15:33:09Z</time></trkpt><trkpt lat="39.48256440163145" lon="8.42943148157323"><ele>135.0</ele><time>2026-04-10T15:33:10Z</time></trkpt><trkpt lat="39.482708451534016" lon="8.429313643071952"><ele>135.0</ele><time>2026-04-10T15:33:11Z</time></trkpt><trkpt lat="39.48285469439011" lon="8.429190718743488"><ele>135.0</ele><time>2026-04-10T15:33:12Z</time></trkpt><trkpt lat="39.48299737188178" lon="8.429064502501028"><ele>135.0</ele><time>2026-04-10T15:33:13Z</time></trkpt><trkpt lat="39.48313322360636" lon="8.428937710926721"><ele>133.5</ele><time>2026-04-10T15:33:14Z</time></trkpt><trkpt lat="39.483258827056666" lon="8.42882354252827"><ele>132.0</ele><time>2026-04-10T15:33:15Z</time></trkpt><trkpt lat="39.48338361338224" lon="8.428728372021304"><ele>130.5</ele><time>2026-04-10T15:33:16Z</time></trkpt><trkpt lat="39.48351898097976" lon="8.428645123804888"><ele>129.0</ele><time>2026-04-10T15:33:17Z</time></trkpt><trkpt lat="39.483651378358964" lon="8.428557583085151"><ele>126.33333333333334</ele><time>2026-04-10T15:33:18Z</time></trkpt><trkpt lat="39.48378243221599" lon="8.428454281310572"><ele>123.66666666666667</ele><time>2026-04-10T15:33:19Z</time></trkpt><trkpt lat="39.48391242859008" lon="8.428336565907331"><ele>121.0</ele><time>2026-04-10T15:33:20Z</time></trkpt><trkpt lat="39.48403655187924" lon="8.428222788681067"><ele>121.0</ele><time>2026-04-10T15:33:21Z</time></trkpt><trkpt lat="39.48414356905718" lon="8.428135394406702"><ele>121.0</ele><time>2026-04-10T15:33:22Z</time></trkpt><trkpt lat="39.48423133495748" lon="8.428058293422167"><ele>121.0</ele><time>2026-04-10T15:33:23Z</time></trkpt><trkpt lat="39.48431276709556" lon="8.427981702466088"><ele>121.0</ele><time>2026-04-10T15:33:24Z</time></trkpt><trkpt lat="39.48439056623294" lon="8.427885482783672"><ele>121.0</ele><time>2026-04-10T15:33:25Z</time></trkpt><trkpt lat="39.48448298961193" lon="8.427744194870698"><ele>121.0</ele><time>2026-04-10T15:33:26Z</time></trkpt><trkpt lat="39.484565679680365" lon="8.427601338520807"><ele>121.0</ele><time>2026-04-10T15:33:27Z</time></trkpt><trkpt lat="39.484653263157966" lon="8.427455806326975"><ele>121.0</ele><time>2026-04-10T15:33:28Z</time></trkpt><trkpt lat="39.48474860898991" lon="8.427315869971798"><ele>121.0</ele><time>2026-04-10T15:33:29Z</time></trkpt><trkpt lat="39.48486693490135" lon="8.427182460277221"><ele>118.0</ele><time>2026-04-10T15:33:30Z</time></trkpt><trkpt lat="39.484995005239846" lon="8.427069399949255"><ele>115.0</ele><time>2026-04-10T15:33:31Z</time></trkpt><trkpt lat="39.48511933622355" lon="8.426964752649747"><ele>112.0</ele><time>2026-04-10T15:33:32Z</time></trkpt><trkpt lat="39.48564397174817" lon="8.426372185357312"><ele>110.75</ele><time>2026-04-10T15:33:37.611Z</time></trkpt><trkpt lat="39.48577296923798" lon="8.426198847599725"><ele>109.5</ele><time>2026-04-10T15:33:39Z</time></trkpt><trkpt lat="39.4858520524944" lon="8.42608820647786"><ele>108.25</ele><time>2026-04-10T15:33:40Z</time></trkpt><trkpt lat="39.485936500168854" lon="8.425987036906578"><ele>107.0</ele><time>2026-04-10T15:33:41Z</time></trkpt><trkpt lat="39.486217754929775" lon="8.425391586505272"><ele>106.66666666666666</ele><time>2026-04-10T15:33:46.384Z</time></trkpt><trkpt lat="39.48624118234914" lon="8.425083383925655"><ele>106.33333333333334</ele><time>2026-04-10T15:33:48Z</time></trkpt><trkpt lat="39.486233135722095" lon="8.424912896015146"><ele>106.0</ele><time>2026-04-10T15:33:49Z</time></trkpt><trkpt lat="39.48620027866166" lon="8.424708545215823"><ele>105.33333333333334</ele><time>2026-04-10T15:33:50Z</time></trkpt><trkpt lat="39.486148059404904" lon="8.424495728694298"><ele>104.66666666666666</ele><time>2026-04-10T15:33:51Z</time></trkpt><trkpt lat="39.48609839662861" lon="8.424306046225526"><ele>104.0</ele><time>2026-04-10T15:33:52.001Z</time></trkpt><trkpt lat="39.486056487112755" lon="8.424108233310676"><ele>104.0</ele><time>2026-04-10T15:33:53.001Z</time></trkpt><trkpt lat="39.48602945547503" lon="8.423910420395828"><ele>104.0</ele><time>2026-04-10T15:33:54.001Z</time></trkpt><trkpt lat="39.48602945547503" lon="8.423704057939744"><ele>104.0</ele><time>2026-04-10T15:33:55.001Z</time></trkpt><trkpt lat="39.48604194451075" lon="8.423460563652611"><ele>104.0</ele><time>2026-04-10T15:33:56.001Z</time></trkpt><trkpt lat="39.48606180962127" lon="8.423196282245613"><ele>104.0</ele><time>2026-04-10T15:33:57.001Z</time></trkpt><trkpt lat="39.4860819680984" lon="8.422951530673004"><ele>104.0</ele><time>2026-04-10T15:33:58.001Z</time></trkpt><trkpt lat="39.48610532012634" lon="8.422694201026538"><ele>103.75</ele><time>2026-04-10T15:33:59Z</time></trkpt><trkpt lat="39.48611930026362" lon="8.422487331724536"><ele>103.5</ele><time>2026-04-10T15:34:00Z</time></trkpt><trkpt lat="39.48612616015778" lon="8.422330318581967"><ele>103.25</ele><time>2026-04-10T15:34:01Z</time></trkpt><trkpt lat="39.48614254287335" lon="8.422132939339663"><ele>103.0</ele><time>2026-04-10T15:34:02Z</time></trkpt><trkpt lat="39.48616435021464" lon="8.421936062959812"><ele>104.33333333333334</ele><time>2026-04-10T15:34:03Z</time></trkpt><trkpt lat="39.48621195442532" lon="8.421741993128824"><ele>105.66666666666666</ele><time>2026-04-10T15:34:04Z</time></trkpt><trkpt lat="39.48629018812335" lon="8.421552037772049"><ele>107.0</ele><time>2026-04-10T15:34:05Z</time></trkpt><trkpt lat="39.48633979049389" lon="8.421379352620297"><ele>105.0</ele><time>2026-04-10T15:34:06Z</time></trkpt><trkpt lat="39.48637166660047" lon="8.421211003854031"><ele>102.99999999999999</ele><time>2026-04-10T15:34:07Z</time></trkpt><trkpt lat="39.48640391025814" lon="8.421088626865114"><ele>101.0</ele><time>2026-04-10T15:34:08Z</time></trkpt><trkpt lat="39.48641586395504" lon="8.420982533543873"><ele>99.0</ele><time>2026-04-10T15:34:09Z</time></trkpt><trkpt lat="39.48647113381597" lon="8.420924712882462"><ele>97.0</ele><time>2026-04-10T15:34:13Z</time></trkpt><trkpt lat="39.48656927375774" lon="8.421012122320901"><ele>97.0</ele><time>2026-04-10T15:34:15Z</time></trkpt><trkpt lat="39.486610527017994" lon="8.421128810858304"><ele>97.0</ele><time>2026-04-10T15:34:16Z</time></trkpt><trkpt lat="39.48666232317222" lon="8.421218984375995"><ele>97.0</ele><time>2026-04-10T15:34:17Z</time></trkpt><trkpt lat="39.48667877595563" lon="8.421328312015094"><ele>97.0</ele><time>2026-04-10T15:34:18Z</time></trkpt><trkpt lat="39.48670875865953" lon="8.421421837809838"><ele>97.0</ele><time>2026-04-10T15:34:19Z</time></trkpt><trkpt lat="39.486744212731345" lon="8.421577099221453"><ele>96.8</ele><time>2026-04-10T15:34:20Z</time></trkpt><trkpt lat="39.486778794978555" lon="8.421735027378627"><ele>96.6</ele><time>2026-04-10T15:34:21Z</time></trkpt><trkpt lat="39.486806310968326" lon="8.421902733185984"><ele>96.39999999999999</ele><time>2026-04-10T15:34:22Z</time></trkpt><trkpt lat="39.486856232302166" lon="8.4219992527275"><ele>96.19999999999999</ele><time>2026-04-10T15:34:23Z</time></trkpt><trkpt lat="39.48690822962488" lon="8.42209983052051"><ele>96.0</ele><time>2026-04-10T15:34:24Z</time></trkpt><trkpt lat="39.486953466692" lon="8.4222174655069"><ele>95.33333333333333</ele><time>2026-04-10T15:34:25Z</time></trkpt><trkpt lat="39.48706918710935" lon="8.422462585504505"><ele>94.66666666666666</ele><time>2026-04-10T15:34:26Z</time></trkpt><trkpt lat="39.48718223852578" lon="8.42271699210283"><ele>94.0</ele><time>2026-04-10T15:34:27Z</time></trkpt><trkpt lat="39.48728756960545" lon="8.422924287967856"><ele>93.0</ele><time>2026-04-10T15:34:28Z</time></trkpt><trkpt lat="39.48740435934104" lon="8.423148223439435"><ele>92.0</ele><time>2026-04-10T15:34:29Z</time></trkpt><trkpt lat="39.487319522239545" lon="8.42299473353535"><ele>91.0</ele><time>2026-04-10T15:34:30Z</time></trkpt><trkpt lat="39.487397002457655" lon="8.423111719339024"><ele>91.0</ele><time>2026-04-10T15:34:31Z</time></trkpt><trkpt lat="39.48747827846671" lon="8.423224521008823"><ele>91.0</ele><time>2026-04-10T15:34:32Z</time></trkpt><trkpt lat="39.48755851123368" lon="8.423327326619587"><ele>91.0</ele><time>2026-04-10T15:34:33Z</time></trkpt><trkpt lat="39.48765102288628" lon="8.42344022451487"><ele>91.0</ele><time>2026-04-10T15:34:34Z</time></trkpt><trkpt lat="39.487737029596396" lon="8.423549691439106"><ele>91.0</ele><time>2026-04-10T15:34:35Z</time></trkpt><trkpt lat="39.4878050459783" lon="8.423636784472372"><ele>91.0</ele><time>2026-04-10T15:34:36Z</time></trkpt><trkpt lat="39.48785217410431" lon="8.423699363904685"><ele>91.0</ele><time>2026-04-10T15:34:37Z</time></trkpt><trkpt lat="39.48790733871143" lon="8.423779757293707"><ele>91.0</ele><time>2026-04-10T15:34:39Z</time></trkpt><trkpt lat="39.487972913079915" lon="8.423712608941914"><ele>91.0</ele><time>2026-04-10T15:34:44Z</time></trkpt><trkpt lat="39.488003201376785" lon="8.423623856566929"><ele>91.0</ele><time>2026-04-10T15:35:31Z</time></trkpt><trkpt lat="39.48805532709272" lon="8.423555907123447"><ele>90.5</ele><time>2026-04-10T15:35:32Z</time></trkpt><trkpt lat="39.488114519884746" lon="8.423481921081805"><ele>90.0</ele><time>2026-04-10T15:35:33Z</time></trkpt><trkpt lat="39.48817980623441" lon="8.423396868957852"><ele>89.5</ele><time>2026-04-10T15:35:34Z</time></trkpt><trkpt lat="39.48823304157584" lon="8.42332319430585"><ele>89.0</ele><time>2026-04-10T15:35:35Z</time></trkpt><trkpt lat="39.48828452672047" lon="8.423255061141605"><ele>88.5</ele><time>2026-04-10T15:35:36Z</time></trkpt><trkpt lat="39.48833486515726" lon="8.423192954313425"><ele>88.0</ele><time>2026-04-10T15:35:37Z</time></trkpt><trkpt lat="39.48837926081224" lon="8.423134259974331"><ele>88.0</ele><time>2026-04-10T15:35:38Z</time></trkpt><trkpt lat="39.48845119437588" lon="8.423027738574396"><ele>88.0</ele><time>2026-04-10T15:35:40Z</time></trkpt><trkpt lat="39.48850615248968" lon="8.422950566481392"><ele>88.0</ele><time>2026-04-10T15:35:42Z</time></trkpt><trkpt lat="39.48857917731448" lon="8.422859240598852"><ele>88.0</ele><time>2026-04-10T15:35:44Z</time></trkpt><trkpt lat="39.48866023933926" lon="8.422761131244428"><ele>88.0</ele><time>2026-04-10T15:35:46Z</time></trkpt><trkpt lat="39.48876164880026" lon="8.422617642969364"><ele>86.5</ele><time>2026-04-10T15:35:48Z</time></trkpt><trkpt lat="39.48884298097594" lon="8.422507166301635"><ele>85.0</ele><time>2026-04-10T15:35:49Z</time></trkpt><trkpt lat="39.48892705899042" lon="8.42239964859427"><ele>83.5</ele><time>2026-04-10T15:35:50Z</time></trkpt><trkpt lat="39.48901625198171" lon="8.422284364244"><ele>82.0</ele><time>2026-04-10T15:35:51Z</time></trkpt><trkpt lat="39.489101052542175" lon="8.422160371637172"><ele>81.0</ele><time>2026-04-10T15:35:52Z</time></trkpt><trkpt lat="39.489188091610615" lon="8.42203548933364"><ele>80.0</ele><time>2026-04-10T15:35:53Z</time></trkpt><trkpt lat="39.48927365891084" lon="8.421915858776106"><ele>79.0</ele><time>2026-04-10T15:35:54Z</time></trkpt><trkpt lat="39.48936093845793" lon="8.421793269224427"><ele>78.0</ele><time>2026-04-10T15:35:55Z</time></trkpt><trkpt lat="39.48945531515086" lon="8.421673706028132"><ele>78.0</ele><time>2026-04-10T15:35:56Z</time></trkpt><trkpt lat="39.48954036149092" lon="8.42155603680347"><ele>78.0</ele><time>2026-04-10T15:35:57Z</time></trkpt><trkpt lat="39.489620395977575" lon="8.421449535824767"><ele>78.0</ele><time>2026-04-10T15:35:58Z</time></trkpt><trkpt lat="39.489693490298414" lon="8.42135242123222"><ele>78.0</ele><time>2026-04-10T15:35:59Z</time></trkpt><trkpt lat="39.489771504129216" lon="8.421248162022763"><ele>76.5</ele><time>2026-04-10T15:36:00Z</time></trkpt><trkpt lat="39.48986218450067" lon="8.421144102246332"><ele>75.0</ele><time>2026-04-10T15:36:01Z</time></trkpt><trkpt lat="39.48994685230288" lon="8.421022874744777"><ele>73.5</ele><time>2026-04-10T15:36:02Z</time></trkpt><trkpt lat="39.490039516588396" lon="8.420901107643239"><ele>72.0</ele><time>2026-04-10T15:36:03Z</time></trkpt><trkpt lat="39.490138702483094" lon="8.420771143878596"><ele>72.0</ele><time>2026-04-10T15:36:04Z</time></trkpt><trkpt lat="39.49022955522997" lon="8.42065211050707"><ele>72.0</ele><time>2026-04-10T15:36:05Z</time></trkpt><trkpt lat="39.490323451210536" lon="8.420529507961877"><ele>72.0</ele><time>2026-04-10T15:36:06Z</time></trkpt><trkpt lat="39.49040875267798" lon="8.420411876877765"><ele>72.0</ele><time>2026-04-10T15:36:07Z</time></trkpt><trkpt lat="39.490484651848355" lon="8.420301785849304"><ele>69.75</ele><time>2026-04-10T15:36:08Z</time></trkpt><trkpt lat="39.49056129447281" lon="8.42019812941927"><ele>67.5</ele><time>2026-04-10T15:36:09Z</time></trkpt><trkpt lat="39.490637211405506" lon="8.420097100757877"><ele>65.25</ele><time>2026-04-10T15:36:10Z</time></trkpt><trkpt lat="39.490729526194855" lon="8.419979770678344"><ele>63.0</ele><time>2026-04-10T15:36:11Z</time></trkpt><trkpt lat="39.49083342978495" lon="8.419850872114452"><ele>63.0</ele><time>2026-04-10T15:36:12Z</time></trkpt><trkpt lat="39.490944166367385" lon="8.419702287107619"><ele>63.0</ele><time>2026-04-10T15:36:13Z</time></trkpt><trkpt lat="39.49105075766864" lon="8.419556288274991"><ele>63.0</ele><time>2026-04-10T15:36:14Z</time></trkpt><trkpt lat="39.49115067155436" lon="8.419418387354781"><ele>63.0</ele><time>2026-04-10T15:36:15Z</time></trkpt><trkpt lat="39.49124454015825" lon="8.419298311601429"><ele>63.0</ele><time>2026-04-10T15:36:16Z</time></trkpt><trkpt lat="39.491343707346026" lon="8.419167433291678"><ele>63.0</ele><time>2026-04-10T15:36:17Z</time></trkpt><trkpt lat="39.49144585264865" lon="8.419028622114013"><ele>63.0</ele><time>2026-04-10T15:36:18Z</time></trkpt><trkpt lat="39.49154850760789" lon="8.41889368576689"><ele>62.25</ele><time>2026-04-10T15:36:19Z</time></trkpt><trkpt lat="39.49165476277825" lon="8.418754878159435"><ele>61.5</ele><time>2026-04-10T15:36:20Z</time></trkpt><trkpt lat="39.49175679268494" lon="8.418616802341626"><ele>60.75</ele><time>2026-04-10T15:36:21Z</time></trkpt><trkpt lat="39.49185365537669" lon="8.418485890797363"><ele>60.0</ele><time>2026-04-10T15:36:22Z</time></trkpt><trkpt lat="39.491953996678376" lon="8.41835040493855"><ele>60.0</ele><time>2026-04-10T15:36:23Z</time></trkpt><trkpt lat="39.49204856492235" lon="8.418222752227122"><ele>60.0</ele><time>2026-04-10T15:36:24Z</time></trkpt><trkpt lat="39.49214186801081" lon="8.418095926187242"><ele>60.0</ele><time>2026-04-10T15:36:25Z</time></trkpt><trkpt lat="39.492222807117685" lon="8.417987862260347"><ele>60.0</ele><time>2026-04-10T15:36:26Z</time></trkpt><trkpt lat="39.492301667878536" lon="8.417886226903583"><ele>58.25</ele><time>2026-04-10T15:36:27Z</time></trkpt><trkpt lat="39.492381045237835" lon="8.417779383426131"><ele>56.5</ele><time>2026-04-10T15:36:28Z</time></trkpt><trkpt lat="39.492463644394995" lon="8.417669755555774"><ele>54.75</ele><time>2026-04-10T15:36:29Z</time></trkpt><trkpt lat="39.492549517451344" lon="8.417557630359692"><ele>53.0</ele><time>2026-04-10T15:36:30Z</time></trkpt><trkpt lat="39.492638869984404" lon="8.417443314041737"><ele>53.0</ele><time>2026-04-10T15:36:31Z</time></trkpt><trkpt lat="39.49272886988346" lon="8.417324612347857"><ele>53.0</ele><time>2026-04-10T15:36:32Z</time></trkpt><trkpt lat="39.492825397350565" lon="8.417199586761472"><ele>53.0</ele><time>2026-04-10T15:36:33Z</time></trkpt><trkpt lat="39.49292566133688" lon="8.417066883944267"><ele>53.0</ele><time>2026-04-10T15:36:34Z</time></trkpt><trkpt lat="39.493027110663704" lon="8.416934719737421"><ele>51.25</ele><time>2026-04-10T15:36:35Z</time></trkpt><trkpt lat="39.49312785605972" lon="8.416799034237838"><ele>49.5</ele><time>2026-04-10T15:36:36Z</time></trkpt><trkpt lat="39.4932312080309" lon="8.416662683020013"><ele>47.75</ele><time>2026-04-10T15:36:37Z</time></trkpt><trkpt lat="39.49333602913009" lon="8.416527418881754"><ele>46.0</ele><time>2026-04-10T15:36:38Z</time></trkpt><trkpt lat="39.49344254885648" lon="8.416390326778039"><ele>45.0</ele><time>2026-04-10T15:36:39Z</time></trkpt><trkpt lat="39.49355127176524" lon="8.416250174193594"><ele>44.0</ele><time>2026-04-10T15:36:40Z</time></trkpt><trkpt lat="39.49365646243881" lon="8.41611037976047"><ele>43.0</ele><time>2026-04-10T15:36:41Z</time></trkpt><trkpt lat="39.49375223548847" lon="8.415980522119556"><ele>42.0</ele><time>2026-04-10T15:36:42Z</time></trkpt><trkpt lat="39.493842800551015" lon="8.415854084782241"><ele>41.5</ele><time>2026-04-10T15:36:43Z</time></trkpt><trkpt lat="39.493924585634154" lon="8.415727993770737"><ele>41.0</ele><time>2026-04-10T15:36:44Z</time></trkpt><trkpt lat="39.49399114948899" lon="8.415599389117176"><ele>40.5</ele><time>2026-04-10T15:36:45Z</time></trkpt><trkpt lat="39.494047327401425" lon="8.415460332324765"><ele>40.0</ele><time>2026-04-10T15:36:46Z</time></trkpt><trkpt lat="39.494095391657595" lon="8.41530970445209"><ele>39.2</ele><time>2026-04-10T15:36:47Z</time></trkpt><trkpt lat="39.49413684026476" lon="8.415161435891772"><ele>38.4</ele><time>2026-04-10T15:36:48Z</time></trkpt><trkpt lat="39.49416826376882" lon="8.41502926340041"><ele>37.6</ele><time>2026-04-10T15:36:49Z</time></trkpt><trkpt lat="39.49418938084285" lon="8.414902787176255"><ele>36.8</ele><time>2026-04-10T15:36:50Z</time></trkpt><trkpt lat="39.49420922697295" lon="8.414785161043737"><ele>36.0</ele><time>2026-04-10T15:36:51Z</time></trkpt><trkpt lat="39.494224474467615" lon="8.414676033351817"><ele>35.333333333333336</ele><time>2026-04-10T15:36:52Z</time></trkpt><trkpt lat="39.49424006971846" lon="8.41457344424457"><ele>34.666666666666664</ele><time>2026-04-10T15:36:53Z</time></trkpt><trkpt lat="39.49425437432391" lon="8.414477648533376"><ele>34.0</ele><time>2026-04-10T15:36:54Z</time></trkpt><trkpt lat="39.49428789962445" lon="8.414395862219477"><ele>33.33333333333333</ele><time>2026-04-10T15:36:55Z</time></trkpt><trkpt lat="39.49434031560046" lon="8.414277097978246"><ele>32.666666666666664</ele><time>2026-04-10T15:36:57Z</time></trkpt><trkpt lat="39.49438906178656" lon="8.414185030451263"><ele>32.0</ele><time>2026-04-10T15:36:59Z</time></trkpt><trkpt lat="39.49445164366397" lon="8.414097008161493"><ele>32.0</ele><time>2026-04-10T15:37:01Z</time></trkpt><trkpt lat="39.494549974974305" lon="8.41398634684185"><ele>32.0</ele><time>2026-04-10T15:37:03Z</time></trkpt><trkpt lat="39.494624183283136" lon="8.413907874725966"><ele>32.0</ele><time>2026-04-10T15:37:04Z</time></trkpt><trkpt lat="39.49468970278789" lon="8.413840820063356"><ele>32.0</ele><time>2026-04-10T15:37:05Z</time></trkpt><trkpt lat="39.494751479748174" lon="8.413769302720677"><ele>32.0</ele><time>2026-04-10T15:37:06Z</time></trkpt><trkpt lat="39.494835602248386" lon="8.413704961285516"><ele>31.166666666666664</ele><time>2026-04-10T15:37:07Z</time></trkpt><trkpt lat="39.494916321027134" lon="8.413661361540406"><ele>30.333333333333332</ele><time>2026-04-10T15:37:08Z</time></trkpt><trkpt lat="39.494985868409564" lon="8.41363306740489"><ele>29.5</ele><time>2026-04-10T15:37:09Z</time></trkpt><trkpt lat="39.49505592515836" lon="8.413615651629732"><ele>28.666666666666664</ele><time>2026-04-10T15:37:10Z</time></trkpt><trkpt lat="39.49515921047377" lon="8.413589437334563"><ele>27.833333333333332</ele><time>2026-04-10T15:37:12Z</time></trkpt><trkpt lat="39.49523521015653" lon="8.41357095414926"><ele>27.0</ele><time>2026-04-10T15:37:14Z</time></trkpt><trkpt lat="39.49511313677493" lon="8.413598409681734"><ele>27.0</ele><time>2026-04-10T15:39:45Z</time></trkpt><trkpt lat="39.49502755670715" lon="8.413576592656959"><ele>27.0</ele><time>2026-04-10T15:39:46Z</time></trkpt><trkpt lat="39.49496904240517" lon="8.413619096960243"><ele>27.0</ele><time>2026-04-10T15:39:47Z</time></trkpt><trkpt lat="39.494901955577134" lon="8.41365763116268"><ele>27.0</ele><time>2026-04-10T15:39:48Z</time></trkpt><trkpt lat="39.49482456913231" lon="8.413708475349043"><ele>27.0</ele><time>2026-04-10T15:39:49Z</time></trkpt><trkpt lat="39.494727441482986" lon="8.413748650171016"><ele>27.0</ele><time>2026-04-10T15:39:50Z</time></trkpt><trkpt lat="39.49464863696066" lon="8.41382734722156"><ele>27.833333333333332</ele><time>2026-04-10T15:39:51Z</time></trkpt><trkpt lat="39.49457210272916" lon="8.413907343359112"><ele>28.666666666666664</ele><time>2026-04-10T15:39:52Z</time></trkpt><trkpt lat="39.494503367828884" lon="8.413980027592148"><ele>29.5</ele><time>2026-04-10T15:39:53Z</time></trkpt><trkpt lat="39.49443733597762" lon="8.414054609428222"><ele>30.333333333333332</ele><time>2026-04-10T15:39:54Z</time></trkpt><trkpt lat="39.49437989640516" lon="8.414138099562884"><ele>31.166666666666664</ele><time>2026-04-10T15:39:55Z</time></trkpt><trkpt lat="39.49433461938115" lon="8.41421943871405"><ele>32.0</ele><time>2026-04-10T15:39:56Z</time></trkpt><trkpt lat="39.49429872664939" lon="8.414292978164942"><ele>32.0</ele><time>2026-04-10T15:39:57Z</time></trkpt><trkpt lat="39.49425411627703" lon="8.414406561250559"><ele>32.0</ele><time>2026-04-10T15:39:59Z</time></trkpt><trkpt lat="39.49422291006052" lon="8.414560670159336"><ele>32.0</ele><time>2026-04-10T15:40:01Z</time></trkpt><trkpt lat="39.49420816283191" lon="8.414658786814414"><ele>32.0</ele><time>2026-04-10T15:40:02Z</time></trkpt><trkpt lat="39.49419086285566" lon="8.414759560056758"><ele>32.0</ele><time>2026-04-10T15:40:03Z</time></trkpt><trkpt lat="39.494171852173274" lon="8.414866293144392"><ele>32.666666666666664</ele><time>2026-04-10T15:40:04Z</time></trkpt><trkpt lat="39.494152755174845" lon="8.414971695918581"><ele>33.33333333333333</ele><time>2026-04-10T15:40:05Z</time></trkpt><trkpt lat="39.49413467939543" lon="8.415062319500631"><ele>34.0</ele><time>2026-04-10T15:40:06Z</time></trkpt><trkpt lat="39.494109904441565" lon="8.415168806137263"><ele>34.666666666666664</ele><time>2026-04-10T15:40:07Z</time></trkpt><trkpt lat="39.49407840333839" lon="8.415290170071314"><ele>35.333333333333336</ele><time>2026-04-10T15:40:08Z</time></trkpt><trkpt lat="39.494054758982465" lon="8.415426458194535"><ele>36.0</ele><time>2026-04-10T15:40:09Z</time></trkpt><trkpt lat="39.49400448243576" lon="8.415548281047348"><ele>36.8</ele><time>2026-04-10T15:40:10Z</time></trkpt><trkpt lat="39.493949656662494" lon="8.415664983742783"><ele>37.6</ele><time>2026-04-10T15:40:11Z</time></trkpt><trkpt lat="39.49388676868769" lon="8.415770661981487"><ele>38.4</ele><time>2026-04-10T15:40:12Z</time></trkpt><trkpt lat="39.4938166670575" lon="8.41586477006663"><ele>39.2</ele><time>2026-04-10T15:40:13Z</time></trkpt><trkpt lat="39.49374318961212" lon="8.41595160683841"><ele>40.0</ele><time>2026-04-10T15:40:14Z</time></trkpt><trkpt lat="39.493679291209425" lon="8.416036082061632"><ele>40.4</ele><time>2026-04-10T15:40:15Z</time></trkpt><trkpt lat="39.49361765580687" lon="8.41612013791325"><ele>40.8</ele><time>2026-04-10T15:40:16Z</time></trkpt><trkpt lat="39.49354869285786" lon="8.41621287918338"><ele>41.2</ele><time>2026-04-10T15:40:17Z</time></trkpt><trkpt lat="39.49347150137642" lon="8.41631777148322"><ele>41.6</ele><time>2026-04-10T15:40:18Z</time></trkpt><trkpt lat="39.49338704940868" lon="8.416430511086379"><ele>42.0</ele><time>2026-04-10T15:40:19Z</time></trkpt><trkpt lat="39.49329587600558" lon="8.416550444705637"><ele>43.0</ele><time>2026-04-10T15:40:20Z</time></trkpt><trkpt lat="39.49320265537766" lon="8.416672159407879"><ele>44.0</ele><time>2026-04-10T15:40:21Z</time></trkpt><trkpt lat="39.49310856019288" lon="8.416800725432582"><ele>45.0</ele><time>2026-04-10T15:40:22Z</time></trkpt><trkpt lat="39.49301467199448" lon="8.416922982209238"><ele>46.0</ele><time>2026-04-10T15:40:23Z</time></trkpt><trkpt lat="39.49292070389968" lon="8.417040648171103"><ele>47.75</ele><time>2026-04-10T15:40:24Z</time></trkpt><trkpt lat="39.49282665282585" lon="8.417158663151843"><ele>49.5</ele><time>2026-04-10T15:40:25Z</time></trkpt><trkpt lat="39.49273422851303" lon="8.4172774211209"><ele>51.25</ele><time>2026-04-10T15:40:26Z</time></trkpt><trkpt lat="39.49264457373989" lon="8.41739344512539"><ele>53.0</ele><time>2026-04-10T15:40:27Z</time></trkpt><trkpt lat="39.492558069270565" lon="8.417508343922126"><ele>53.0</ele><time>2026-04-10T15:40:28Z</time></trkpt><trkpt lat="39.49247006153095" lon="8.417622834907196"><ele>53.0</ele><time>2026-04-10T15:40:29Z</time></trkpt><trkpt lat="39.492386509402294" lon="8.417738162814809"><ele>53.0</ele><time>2026-04-10T15:40:30Z</time></trkpt><trkpt lat="39.492307386865114" lon="8.41784720008764"><ele>53.0</ele><time>2026-04-10T15:40:31Z</time></trkpt><trkpt lat="39.49222580366653" lon="8.417956405819872"><ele>54.0</ele><time>2026-04-10T15:40:32Z</time></trkpt><trkpt lat="39.492148675431324" lon="8.418061923413825"><ele>55.0</ele><time>2026-04-10T15:40:33Z</time></trkpt><trkpt lat="39.49206737996477" lon="8.418159912793122"><ele>56.0</ele><time>2026-04-10T15:40:34Z</time></trkpt><trkpt lat="39.491991735687506" lon="8.418267853650127"><ele>57.0</ele><time>2026-04-10T15:40:35Z</time></trkpt><trkpt lat="39.49191418988807" lon="8.418378879762468"><ele>57.75</ele><time>2026-04-10T15:40:36Z</time></trkpt><trkpt lat="39.491831297545794" lon="8.41849622422356"><ele>58.5</ele><time>2026-04-10T15:40:37Z</time></trkpt><trkpt lat="39.491737382106514" lon="8.418614492611415"><ele>59.25</ele><time>2026-04-10T15:40:38Z</time></trkpt><trkpt lat="39.49164449433127" lon="8.418743162526864"><ele>60.0</ele><time>2026-04-10T15:40:39Z</time></trkpt><trkpt lat="39.49154744428413" lon="8.41886940105052"><ele>60.75</ele><time>2026-04-10T15:40:40Z</time></trkpt><trkpt lat="39.49144856684624" lon="8.419000111834427"><ele>61.5</ele><time>2026-04-10T15:40:41Z</time></trkpt><trkpt lat="39.49134855937569" lon="8.419138263415162"><ele>62.25</ele><time>2026-04-10T15:40:42Z</time></trkpt><trkpt lat="39.49124547941925" lon="8.41927908481495"><ele>63.0</ele><time>2026-04-10T15:40:43Z</time></trkpt><trkpt lat="39.49113395071799" lon="8.419428881866653"><ele>63.0</ele><time>2026-04-10T15:40:44Z</time></trkpt><trkpt lat="39.4910053030362" lon="8.419566041118722"><ele>63.0</ele><time>2026-04-10T15:40:45Z</time></trkpt><trkpt lat="39.490886201823535" lon="8.419722609704658"><ele>63.0</ele><time>2026-04-10T15:40:46Z</time></trkpt><trkpt lat="39.490763256684076" lon="8.419886950340615"><ele>63.0</ele><time>2026-04-10T15:40:47Z</time></trkpt><trkpt lat="39.49064329889478" lon="8.420048753736864"><ele>63.0</ele><time>2026-04-10T15:40:48Z</time></trkpt><trkpt lat="39.49053289776777" lon="8.42019849100312"><ele>63.0</ele><time>2026-04-10T15:40:49Z</time></trkpt><trkpt lat="39.490431628511445" lon="8.420335842708775"><ele>64.66666666666667</ele><time>2026-04-10T15:40:50Z</time></trkpt><trkpt lat="39.490331718244285" lon="8.420472158516384"><ele>66.33333333333334</ele><time>2026-04-10T15:40:51Z</time></trkpt><trkpt lat="39.49022503732729" lon="8.420610978519646"><ele>68.0</ele><time>2026-04-10T15:40:52Z</time></trkpt><trkpt lat="39.49011083678218" lon="8.420759583521058"><ele>69.33333333333334</ele><time>2026-04-10T15:40:53Z</time></trkpt><trkpt lat="39.490007124123174" lon="8.420924096610594"><ele>70.66666666666667</ele><time>2026-04-10T15:40:54Z</time></trkpt><trkpt lat="39.489896512007526" lon="8.421070428854323"><ele>72.0</ele><time>2026-04-10T15:40:55Z</time></trkpt><trkpt lat="39.48978648682115" lon="8.421222529703176"><ele>73.33333333333333</ele><time>2026-04-10T15:40:56Z</time></trkpt><trkpt lat="39.48967513290669" lon="8.421368960489403"><ele>74.66666666666666</ele><time>2026-04-10T15:40:57Z</time></trkpt><trkpt lat="39.489562117579396" lon="8.421517904592234"><ele>76.0</ele><time>2026-04-10T15:40:58Z</time></trkpt><trkpt lat="39.48944577576546" lon="8.421675615695653"><ele>76.66666666666666</ele><time>2026-04-10T15:40:59Z</time></trkpt><trkpt lat="39.4893341955238" lon="8.421825576614408"><ele>77.33333333333333</ele><time>2026-04-10T15:41:00Z</time></trkpt><trkpt lat="39.48920559058118" lon="8.42196878475548"><ele>78.0</ele><time>2026-04-10T15:41:01Z</time></trkpt><trkpt lat="39.48908735732485" lon="8.422126401593403"><ele>79.33333333333333</ele><time>2026-04-10T15:41:02Z</time></trkpt><trkpt lat="39.48896542135542" lon="8.422288954530444"><ele>80.66666666666666</ele><time>2026-04-10T15:41:03Z</time></trkpt><trkpt lat="39.48885918528995" lon="8.422456223287721"><ele>82.0</ele><time>2026-04-10T15:41:04Z</time></trkpt><trkpt lat="39.488746933392854" lon="8.422606168806952"><ele>82.75</ele><time>2026-04-10T15:41:05Z</time></trkpt><trkpt lat="39.488644756987824" lon="8.42274259087531"><ele>83.5</ele><time>2026-04-10T15:41:06Z</time></trkpt><trkpt lat="39.48854628971319" lon="8.4228783184736"><ele>84.25</ele><time>2026-04-10T15:41:07Z</time></trkpt><trkpt lat="39.48844753866083" lon="8.423015095308283"><ele>85.0</ele><time>2026-04-10T15:41:08Z</time></trkpt><trkpt lat="39.488343326340846" lon="8.423124571747843"><ele>85.6</ele><time>2026-04-10T15:41:09Z</time></trkpt><trkpt lat="39.48827238795767" lon="8.423245589553083"><ele>86.2</ele><time>2026-04-10T15:41:10Z</time></trkpt><trkpt lat="39.4881894815103" lon="8.423342041161655"><ele>86.80000000000001</ele><time>2026-04-10T15:41:11Z</time></trkpt><trkpt lat="39.48812279710212" lon="8.423427620683322"><ele>87.4</ele><time>2026-04-10T15:41:12Z</time></trkpt><trkpt lat="39.48806176083253" lon="8.423508366837595"><ele>88.0</ele><time>2026-04-10T15:41:13Z</time></trkpt><trkpt lat="39.48800855405855" lon="8.423581928065973"><ele>88.0</ele><time>2026-04-10T15:41:14Z</time></trkpt><trkpt lat="39.48796729263825" lon="8.423657116302875"><ele>88.0</ele><time>2026-04-10T15:41:15Z</time></trkpt><trkpt lat="39.48790932146963" lon="8.423703594861724"><ele>88.0</ele><time>2026-04-10T15:41:16Z</time></trkpt><trkpt lat="39.48800476756409" lon="8.423944579093009"><ele>88.0</ele><time>2026-04-10T15:41:18Z</time></trkpt><trkpt lat="39.4880855698859" lon="8.424053757606167"><ele>89.0</ele><time>2026-04-10T15:41:19Z</time></trkpt><trkpt lat="39.488145265568065" lon="8.424178907272852"><ele>90.0</ele><time>2026-04-10T15:41:20Z</time></trkpt><trkpt lat="39.48822059536419" lon="8.424301990627901"><ele>91.0</ele><time>2026-04-10T15:41:21Z</time></trkpt><trkpt lat="39.48829825927665" lon="8.424438187100884"><ele>92.0</ele><time>2026-04-10T15:41:22Z</time></trkpt><trkpt lat="39.488373276869076" lon="8.424575362164171"><ele>93.0</ele><time>2026-04-10T15:41:23Z</time></trkpt><trkpt lat="39.488435896474755" lon="8.424699470740405"><ele>94.0</ele><time>2026-04-10T15:41:24Z</time></trkpt><trkpt lat="39.48849653020831" lon="8.424824065865092"><ele>95.0</ele><time>2026-04-10T15:41:25Z</time></trkpt><trkpt lat="39.48857057974309" lon="8.424970715779404"><ele>96.0</ele><time>2026-04-10T15:41:26Z</time></trkpt><trkpt lat="39.48862582698513" lon="8.42507680760925"><ele>96.0</ele><time>2026-04-10T15:41:27Z</time></trkpt><trkpt lat="39.488666629285575" lon="8.425155160684154"><ele>96.0</ele><time>2026-04-10T15:41:28Z</time></trkpt><trkpt lat="39.488732172027426" lon="8.425287979120526"><ele>96.0</ele><time>2026-04-10T15:41:30Z</time></trkpt><trkpt lat="39.48880223902797" lon="8.425431805448788"><ele>96.0</ele><time>2026-04-10T15:41:32Z</time></trkpt><trkpt lat="39.48884608225439" lon="8.425521802157954"><ele>96.0</ele><time>2026-04-10T15:41:33Z</time></trkpt><trkpt lat="39.48889657406746" lon="8.425630712253618"><ele>94.75</ele><time>2026-04-10T15:41:34Z</time></trkpt><trkpt lat="39.488953393520354" lon="8.425752524690374"><ele>93.5</ele><time>2026-04-10T15:41:35Z</time></trkpt><trkpt lat="39.489018255963764" lon="8.425893166221277"><ele>92.25</ele><time>2026-04-10T15:41:36Z</time></trkpt><trkpt lat="39.48910077526692" lon="8.426037018786184"><ele>91.0</ele><time>2026-04-10T15:41:37Z</time></trkpt><trkpt lat="39.48915456016581" lon="8.426207479493721"><ele>91.5</ele><time>2026-04-10T15:41:38Z</time></trkpt><trkpt lat="39.48921598783584" lon="8.42637018614325"><ele>92.0</ele><time>2026-04-10T15:41:39Z</time></trkpt><trkpt lat="39.48927749976751" lon="8.42653509896092"><ele>92.5</ele><time>2026-04-10T15:41:40Z</time></trkpt><trkpt lat="39.489340424314925" lon="8.426692673711246"><ele>93.0</ele><time>2026-04-10T15:41:41Z</time></trkpt><trkpt lat="39.48941834916025" lon="8.426842722869539"><ele>93.0</ele><time>2026-04-10T15:41:42Z</time></trkpt><trkpt lat="39.48946826488525" lon="8.427016917228162"><ele>93.0</ele><time>2026-04-10T15:41:43Z</time></trkpt><trkpt lat="39.48953219095864" lon="8.42718379724101"><ele>93.0</ele><time>2026-04-10T15:41:44Z</time></trkpt><trkpt lat="39.48959904883306" lon="8.427364812014659"><ele>93.0</ele><time>2026-04-10T15:41:45Z</time></trkpt><trkpt lat="39.489681015891385" lon="8.42754710949305"><ele>93.66666666666667</ele><time>2026-04-10T15:41:46Z</time></trkpt><trkpt lat="39.489749463174874" lon="8.427741944718594"><ele>94.33333333333334</ele><time>2026-04-10T15:41:47Z</time></trkpt><trkpt lat="39.48981241046782" lon="8.427926482095483"><ele>95.0</ele><time>2026-04-10T15:41:48Z</time></trkpt><trkpt lat="39.48986743413358" lon="8.428094530739704"><ele>96.75</ele><time>2026-04-10T15:41:49Z</time></trkpt><trkpt lat="39.48991505525447" lon="8.428248047701935"><ele>98.5</ele><time>2026-04-10T15:41:50Z</time></trkpt><trkpt lat="39.48997184914053" lon="8.42840534108171"><ele>100.25</ele><time>2026-04-10T15:41:51Z</time></trkpt><trkpt lat="39.49002317791565" lon="8.428556719428121"><ele>102.0</ele><time>2026-04-10T15:41:52Z</time></trkpt><trkpt lat="39.49009866709667" lon="8.428678264297979"><ele>102.0</ele><time>2026-04-10T15:41:53Z</time></trkpt><trkpt lat="39.49017789350304" lon="8.42877423098799"><ele>102.0</ele><time>2026-04-10T15:41:54Z</time></trkpt><trkpt lat="39.490279424894624" lon="8.428859348942526"><ele>102.0</ele><time>2026-04-10T15:41:55Z</time></trkpt><trkpt lat="39.49039928752618" lon="8.428930591815838"><ele>102.0</ele><time>2026-04-10T15:41:56Z</time></trkpt><trkpt lat="39.49052765467832" lon="8.428985591874863"><ele>103.5</ele><time>2026-04-10T15:41:57Z</time></trkpt><trkpt lat="39.490659791379656" lon="8.429040581592968"><ele>105.0</ele><time>2026-04-10T15:41:58Z</time></trkpt><trkpt lat="39.490793851864794" lon="8.429087196798982"><ele>106.5</ele><time>2026-04-10T15:41:59Z</time></trkpt><trkpt lat="39.49093810049269" lon="8.429114409411355"><ele>108.0</ele><time>2026-04-10T15:42:00Z</time></trkpt><trkpt lat="39.491103457734845" lon="8.429108777497257"><ele>107.33333333333334</ele><time>2026-04-10T15:42:01Z</time></trkpt><trkpt lat="39.491268269945415" lon="8.42908353060196"><ele>106.66666666666667</ele><time>2026-04-10T15:42:02Z</time></trkpt><trkpt lat="39.491421676902725" lon="8.429075095190694"><ele>106.0</ele><time>2026-04-10T15:42:03Z</time></trkpt><trkpt lat="39.49157112721985" lon="8.429103661784639"><ele>106.0</ele><time>2026-04-10T15:42:04Z</time></trkpt><trkpt lat="39.49171884921535" lon="8.429159715300138"><ele>106.0</ele><time>2026-04-10T15:42:05Z</time></trkpt><trkpt lat="39.49186011059801" lon="8.429239970744515"><ele>106.0</ele><time>2026-04-10T15:42:06Z</time></trkpt><trkpt lat="39.49199825814259" lon="8.429319030843322"><ele>105.33333333333334</ele><time>2026-04-10T15:42:07Z</time></trkpt><trkpt lat="39.49213669752893" lon="8.429415269007006"><ele>104.66666666666666</ele><time>2026-04-10T15:42:08Z</time></trkpt><trkpt lat="39.49226935914922" lon="8.42953574949533"><ele>104.0</ele><time>2026-04-10T15:42:09Z</time></trkpt><trkpt lat="39.49238599532946" lon="8.429683382122898"><ele>106.33333333333333</ele><time>2026-04-10T15:42:10Z</time></trkpt><trkpt lat="39.49249378884773" lon="8.429846426132599"><ele>108.66666666666666</ele><time>2026-04-10T15:42:11Z</time></trkpt><trkpt lat="39.49258431158243" lon="8.430013630177594"><ele>111.0</ele><time>2026-04-10T15:42:12Z</time></trkpt><trkpt lat="39.49264638289238" lon="8.430175621977304"><ele>111.0</ele><time>2026-04-10T15:42:13Z</time></trkpt><trkpt lat="39.49265089214093" lon="8.430345526220787"><ele>111.0</ele><time>2026-04-10T15:42:14Z</time></trkpt><trkpt lat="39.49265570093628" lon="8.43052317363074"><ele>111.0</ele><time>2026-04-10T15:42:15Z</time></trkpt><trkpt lat="39.49266967693925" lon="8.43074238737127"><ele>111.0</ele><time>2026-04-10T15:42:16Z</time></trkpt><trkpt lat="39.492669948672784" lon="8.430968866547094"><ele>112.66666666666666</ele><time>2026-04-10T15:42:17Z</time></trkpt><trkpt lat="39.492686160931925" lon="8.43117857060113"><ele>114.33333333333333</ele><time>2026-04-10T15:42:18Z</time></trkpt><trkpt lat="39.49270742604405" lon="8.431377358338874"><ele>116.0</ele><time>2026-04-10T15:42:19Z</time></trkpt><trkpt lat="39.49272829273359" lon="8.431562182419542"><ele>116.4</ele><time>2026-04-10T15:42:20Z</time></trkpt><trkpt lat="39.49273822982364" lon="8.431726122606879"><ele>116.8</ele><time>2026-04-10T15:42:21Z</time></trkpt><trkpt lat="39.49273341832555" lon="8.431870628518226"><ele>117.20000000000002</ele><time>2026-04-10T15:42:22Z</time></trkpt><trkpt lat="39.49267954045462" lon="8.431976020871836"><ele>117.60000000000001</ele><time>2026-04-10T15:42:23Z</time></trkpt><trkpt lat="39.492613491307395" lon="8.43207461580459"><ele>118.0</ele><time>2026-04-10T15:42:24Z</time></trkpt><trkpt lat="39.49249702524677" lon="8.432167376402127"><ele>118.33333333333334</ele><time>2026-04-10T15:42:25Z</time></trkpt><trkpt lat="39.492357222404074" lon="8.432270557146246"><ele>118.66666666666666</ele><time>2026-04-10T15:42:26Z</time></trkpt><trkpt lat="39.49222661706256" lon="8.432381891958745"><ele>119.0</ele><time>2026-04-10T15:42:27Z</time></trkpt><trkpt lat="39.49209623567355" lon="8.432472768506722"><ele>121.66666666666666</ele><time>2026-04-10T15:42:28Z</time></trkpt><trkpt lat="39.49196067271623" lon="8.432575276754939"><ele>124.33333333333334</ele><time>2026-04-10T15:42:29Z</time></trkpt><trkpt lat="39.491818726417314" lon="8.43268096895552"><ele>127.0</ele><time>2026-04-10T15:42:30Z</time></trkpt><trkpt lat="39.491679276418665" lon="8.432782676779444"><ele>127.0</ele><time>2026-04-10T15:42:31Z</time></trkpt><trkpt lat="39.49153871147729" lon="8.432885611913296"><ele>127.0</ele><time>2026-04-10T15:42:32Z</time></trkpt><trkpt lat="39.491396702910386" lon="8.432989470040722"><ele>127.0</ele><time>2026-04-10T15:42:33Z</time></trkpt><trkpt lat="39.49124764726058" lon="8.433073531165132"><ele>129.0</ele><time>2026-04-10T15:42:34Z</time></trkpt><trkpt lat="39.491100370421314" lon="8.433176762772753"><ele>131.0</ele><time>2026-04-10T15:42:35Z</time></trkpt><trkpt lat="39.49095566938197" lon="8.433279039986699"><ele>133.0</ele><time>2026-04-10T15:42:36Z</time></trkpt><trkpt lat="39.49081966187338" lon="8.43339646701638"><ele>133.0</ele><time>2026-04-10T15:42:37Z</time></trkpt><trkpt lat="39.49067227050329" lon="8.4335007260609"><ele>133.0</ele><time>2026-04-10T15:42:38Z</time></trkpt><trkpt lat="39.490524860836054" lon="8.433609121863638"><ele>133.0</ele><time>2026-04-10T15:42:39Z</time></trkpt><trkpt lat="39.49036890529619" lon="8.433692663578364"><ele>134.66666666666669</ele><time>2026-04-10T15:42:40Z</time></trkpt><trkpt lat="39.49021853534232" lon="8.433797685418268"><ele>136.33333333333334</ele><time>2026-04-10T15:42:41Z</time></trkpt><trkpt lat="39.49007803844635" lon="8.433899511314072"><ele>138.0</ele><time>2026-04-10T15:42:42Z</time></trkpt><trkpt lat="39.48994818258895" lon="8.434002446736509"><ele>138.0</ele><time>2026-04-10T15:42:43Z</time></trkpt><trkpt lat="39.48984856289573" lon="8.434144790884986"><ele>138.0</ele><time>2026-04-10T15:42:44Z</time></trkpt><trkpt lat="39.48974018122905" lon="8.434287209331758"><ele>138.0</ele><time>2026-04-10T15:42:45Z</time></trkpt><trkpt lat="39.48963849222231" lon="8.434459990718974"><ele>141.33333333333334</ele><time>2026-04-10T15:42:46Z</time></trkpt><trkpt lat="39.489546463045606" lon="8.434636209818276"><ele>144.66666666666669</ele><time>2026-04-10T15:42:47Z</time></trkpt><trkpt lat="39.48943858949405" lon="8.434791346298828"><ele>148.0</ele><time>2026-04-10T15:42:48Z</time></trkpt><trkpt lat="39.489335126770264" lon="8.434954401444761"><ele>149.0</ele><time>2026-04-10T15:42:49Z</time></trkpt><trkpt lat="39.489242011008656" lon="8.43510246416156"><ele>150.0</ele><time>2026-04-10T15:42:50Z</time></trkpt><trkpt lat="39.48917050756329" lon="8.435254540375444"><ele>151.0</ele><time>2026-04-10T15:42:51Z</time></trkpt><trkpt lat="39.48911716418502" lon="8.435392128648061"><ele>152.0</ele><time>2026-04-10T15:42:52Z</time></trkpt><trkpt lat="39.48908438472996" lon="8.435541633660378"><ele>152.33333333333331</ele><time>2026-04-10T15:42:53Z</time></trkpt><trkpt lat="39.48907062851207" lon="8.435721473944565"><ele>152.66666666666666</ele><time>2026-04-10T15:42:54Z</time></trkpt><trkpt lat="39.48906920684643" lon="8.43592652360427"><ele>153.0</ele><time>2026-04-10T15:42:55Z</time></trkpt><trkpt lat="39.48907202284879" lon="8.436145658625886"><ele>154.33333333333334</ele><time>2026-04-10T15:42:56Z</time></trkpt><trkpt lat="39.48907942442708" lon="8.436375854814331"><ele>155.66666666666669</ele><time>2026-04-10T15:42:57Z</time></trkpt><trkpt lat="39.489068945921595" lon="8.436587310312984"><ele>157.0</ele><time>2026-04-10T15:42:58Z</time></trkpt><trkpt lat="39.48907486859111" lon="8.436805792556145"><ele>157.0</ele><time>2026-04-10T15:42:59Z</time></trkpt><trkpt lat="39.48908589107596" lon="8.437017866723256"><ele>157.0</ele><time>2026-04-10T15:43:00Z</time></trkpt><trkpt lat="39.489097867862725" lon="8.43719672314702"><ele>157.0</ele><time>2026-04-10T15:43:01Z</time></trkpt><trkpt lat="39.489126794549435" lon="8.437358629912328"><ele>157.0</ele><time>2026-04-10T15:43:02Z</time></trkpt><trkpt lat="39.48913784596386" lon="8.437533640622842"><ele>157.33333333333334</ele><time>2026-04-10T15:43:03Z</time></trkpt><trkpt lat="39.48916058606555" lon="8.437728369610332"><ele>157.66666666666666</ele><time>2026-04-10T15:43:04Z</time></trkpt><trkpt lat="39.48917459171847" lon="8.437923359404522"><ele>158.0</ele><time>2026-04-10T15:43:05Z</time></trkpt><trkpt lat="39.48918875072229" lon="8.438137254567575"><ele>159.0</ele><time>2026-04-10T15:43:06Z</time></trkpt><trkpt lat="39.4891966241897" lon="8.438363295701269"><ele>160.0</ele><time>2026-04-10T15:43:07Z</time></trkpt><trkpt lat="39.48919872559821" lon="8.438588808035108"><ele>161.0</ele><time>2026-04-10T15:43:08Z</time></trkpt><trkpt lat="39.48920549540389" lon="8.438822260191316"><ele>162.0</ele><time>2026-04-10T15:43:09Z</time></trkpt><trkpt lat="39.48921221978163" lon="8.43905762996984"><ele>163.0</ele><time>2026-04-10T15:43:10Z</time></trkpt><trkpt lat="39.48922990710245" lon="8.439291929038804"><ele>164.0</ele><time>2026-04-10T15:43:11Z</time></trkpt><trkpt lat="39.489256203633786" lon="8.439529274616191"><ele>165.0</ele><time>2026-04-10T15:43:12Z</time></trkpt><trkpt lat="39.489288580311424" lon="8.439768719852248"><ele>166.0</ele><time>2026-04-10T15:43:13Z</time></trkpt><trkpt lat="39.489324136369184" lon="8.440009357690485"><ele>167.0</ele><time>2026-04-10T15:43:14Z</time></trkpt><trkpt lat="39.48935635447308" lon="8.440244553845668"><ele>167.0</ele><time>2026-04-10T15:43:15Z</time></trkpt><trkpt lat="39.48938576438588" lon="8.440446316731984"><ele>167.0</ele><time>2026-04-10T15:43:16Z</time></trkpt><trkpt lat="39.48941524756982" lon="8.44065428524592"><ele>167.0</ele><time>2026-04-10T15:43:17Z</time></trkpt><trkpt lat="39.489459936762685" lon="8.440868143338708"><ele>168.66666666666666</ele><time>2026-04-10T15:43:18Z</time></trkpt><trkpt lat="39.48952635280572" lon="8.441106270974016"><ele>170.33333333333334</ele><time>2026-04-10T15:43:19Z</time></trkpt><trkpt lat="39.48959461424899" lon="8.441348925325087"><ele>172.0</ele><time>2026-04-10T15:43:20Z</time></trkpt><trkpt lat="39.48964912728355" lon="8.441566323977074"><ele>173.0</ele><time>2026-04-10T15:43:21Z</time></trkpt><trkpt lat="39.489692138711234" lon="8.44176071640129"><ele>174.0</ele><time>2026-04-10T15:43:22Z</time></trkpt><trkpt lat="39.489733921845854" lon="8.441950268247338"><ele>175.0</ele><time>2026-04-10T15:43:23Z</time></trkpt><trkpt lat="39.48977968452315" lon="8.442145988407002"><ele>177.0</ele><time>2026-04-10T15:43:24Z</time></trkpt><trkpt lat="39.489815404181066" lon="8.44234045934761"><ele>179.0</ele><time>2026-04-10T15:43:25Z</time></trkpt><trkpt lat="39.48983481995541" lon="8.4425446260718"><ele>181.0</ele><time>2026-04-10T15:43:26Z</time></trkpt><trkpt lat="39.48984260723268" lon="8.442754392794443"><ele>183.0</ele><time>2026-04-10T15:43:27Z</time></trkpt><trkpt lat="39.48984424825351" lon="8.44296951672397"><ele>185.0</ele><time>2026-04-10T15:43:28Z</time></trkpt><trkpt lat="39.489849892234886" lon="8.443183745034613"><ele>187.0</ele><time>2026-04-10T15:43:29Z</time></trkpt><trkpt lat="39.48985841316865" lon="8.443399894323875"><ele>187.0</ele><time>2026-04-10T15:43:30Z</time></trkpt><trkpt lat="39.489868261537765" lon="8.443630108956663"><ele>187.0</ele><time>2026-04-10T15:43:31Z</time></trkpt><trkpt lat="39.48986921899479" lon="8.443864674944036"><ele>187.0</ele><time>2026-04-10T15:43:32Z</time></trkpt><trkpt lat="39.48985142721007" lon="8.444115920590999"><ele>188.0</ele><time>2026-04-10T15:43:33Z</time></trkpt><trkpt lat="39.48981713829686" lon="8.444365940155"><ele>189.0</ele><time>2026-04-10T15:43:34Z</time></trkpt><trkpt lat="39.48978274147672" lon="8.444602051061064"><ele>190.0</ele><time>2026-04-10T15:43:35Z</time></trkpt><trkpt lat="39.48975921385571" lon="8.444816775719168"><ele>190.66666666666669</ele><time>2026-04-10T15:43:36Z</time></trkpt><trkpt lat="39.48973978071319" lon="8.445015582236676"><ele>191.33333333333334</ele><time>2026-04-10T15:43:37Z</time></trkpt><trkpt lat="39.48971465850779" lon="8.445230992413665"><ele>192.0</ele><time>2026-04-10T15:43:38Z</time></trkpt><trkpt lat="39.48968088549441" lon="8.445449225682438"><ele>193.66666666666669</ele><time>2026-04-10T15:43:39Z</time></trkpt><trkpt lat="39.48963961430726" lon="8.44568110355777"><ele>195.33333333333334</ele><time>2026-04-10T15:43:40Z</time></trkpt><trkpt lat="39.48958516283362" lon="8.445945135618972"><ele>197.0</ele><time>2026-04-10T15:43:41Z</time></trkpt><trkpt lat="39.48953489174754" lon="8.446206475998293"><ele>197.66666666666669</ele><time>2026-04-10T15:43:42Z</time></trkpt><trkpt lat="39.48949043470865" lon="8.446473156437674"><ele>198.33333333333331</ele><time>2026-04-10T15:43:43Z</time></trkpt><trkpt lat="39.48944714613123" lon="8.446719307823237"><ele>199.0</ele><time>2026-04-10T15:43:44Z</time></trkpt><trkpt lat="39.48940513899428" lon="8.446961393749868"><ele>200.0</ele><time>2026-04-10T15:43:45Z</time></trkpt><trkpt lat="39.48936344430599" lon="8.447191032862063"><ele>201.0</ele><time>2026-04-10T15:43:46Z</time></trkpt><trkpt lat="39.48932746218062" lon="8.447419399188027"><ele>202.0</ele><time>2026-04-10T15:43:47Z</time></trkpt><trkpt lat="39.48928805772876" lon="8.447656181724142"><ele>202.0</ele><time>2026-04-10T15:43:48Z</time></trkpt><trkpt lat="39.489237387475534" lon="8.447891488439597"><ele>202.0</ele><time>2026-04-10T15:43:49Z</time></trkpt><trkpt lat="39.48918511703901" lon="8.448121676439866"><ele>202.0</ele><time>2026-04-10T15:43:50Z</time></trkpt><trkpt lat="39.48913776078802" lon="8.448345573834096"><ele>202.33333333333331</ele><time>2026-04-10T15:43:51Z</time></trkpt><trkpt lat="39.48909774131594" lon="8.448567699815317"><ele>202.66666666666669</ele><time>2026-04-10T15:43:52Z</time></trkpt><trkpt lat="39.48905890305335" lon="8.448788482152034"><ele>203.0</ele><time>2026-04-10T15:43:53Z</time></trkpt><trkpt lat="39.4890232502258" lon="8.449008840560248"><ele>203.66666666666669</ele><time>2026-04-10T15:43:54Z</time></trkpt><trkpt lat="39.48898931599221" lon="8.449226502491177"><ele>204.33333333333331</ele><time>2026-04-10T15:43:55Z</time></trkpt><trkpt lat="39.48895112431071" lon="8.449440447048412"><ele>205.0</ele><time>2026-04-10T15:43:56Z</time></trkpt><trkpt lat="39.48889547767556" lon="8.44965134220326"><ele>206.33333333333331</ele><time>2026-04-10T15:43:57Z</time></trkpt><trkpt lat="39.48884463323737" lon="8.449871066024254"><ele>207.66666666666669</ele><time>2026-04-10T15:43:58Z</time></trkpt><trkpt lat="39.488795055189634" lon="8.450088800456204"><ele>209.0</ele><time>2026-04-10T15:43:59Z</time></trkpt><trkpt lat="39.48874580485823" lon="8.450311314021782"><ele>210.0</ele><time>2026-04-10T15:44:00Z</time></trkpt><trkpt lat="39.48869531600548" lon="8.450531468476761"><ele>211.0</ele><time>2026-04-10T15:44:01Z</time></trkpt><trkpt lat="39.48864296117655" lon="8.450764487117645"><ele>212.0</ele><time>2026-04-10T15:44:02Z</time></trkpt><trkpt lat="39.488590597438204" lon="8.451004021191284"><ele>212.0</ele><time>2026-04-10T15:44:03Z</time></trkpt><trkpt lat="39.48853429004433" lon="8.451236356797523"><ele>212.0</ele><time>2026-04-10T15:44:04Z</time></trkpt><trkpt lat="39.48848225576413" lon="8.451468066954098"><ele>212.0</ele><time>2026-04-10T15:44:05Z</time></trkpt><trkpt lat="39.48843261066176" lon="8.451674792869733"><ele>212.0</ele><time>2026-04-10T15:44:06Z</time></trkpt><trkpt lat="39.488399365688096" lon="8.451853892927662"><ele>212.0</ele><time>2026-04-10T15:44:07Z</time></trkpt><trkpt lat="39.488363596499006" lon="8.452040674170002"><ele>212.0</ele><time>2026-04-10T15:44:08Z</time></trkpt><trkpt lat="39.48835539607853" lon="8.45223436460885"><ele>212.0</ele><time>2026-04-10T15:44:09Z</time></trkpt><trkpt lat="39.48836339667434" lon="8.452421153380763"><ele>213.0</ele><time>2026-04-10T15:44:10Z</time></trkpt><trkpt lat="39.48839514375464" lon="8.452627500894044"><ele>214.0</ele><time>2026-04-10T15:44:11Z</time></trkpt><trkpt lat="39.48843985651466" lon="8.452847648554934"><ele>215.0</ele><time>2026-04-10T15:44:12Z</time></trkpt><trkpt lat="39.48848516374005" lon="8.453062637024544"><ele>215.66666666666669</ele><time>2026-04-10T15:44:13Z</time></trkpt><trkpt lat="39.4885205976149" lon="8.453266456933939"><ele>216.33333333333331</ele><time>2026-04-10T15:44:14Z</time></trkpt><trkpt lat="39.48856347321868" lon="8.453453290996523"><ele>217.0</ele><time>2026-04-10T15:44:15Z</time></trkpt><trkpt lat="39.488599968220214" lon="8.453636566345436"><ele>218.25</ele><time>2026-04-10T15:44:16Z</time></trkpt><trkpt lat="39.48863378941537" lon="8.45382752048977"><ele>219.5</ele><time>2026-04-10T15:44:17Z</time></trkpt><trkpt lat="39.48866457150795" lon="8.454018168575171"><ele>220.75</ele><time>2026-04-10T15:44:18Z</time></trkpt><trkpt lat="39.48869773165977" lon="8.454204324824152"><ele>222.0</ele><time>2026-04-10T15:44:19Z</time></trkpt><trkpt lat="39.48871202873055" lon="8.454394951449157"><ele>222.0</ele><time>2026-04-10T15:44:20Z</time></trkpt><trkpt lat="39.48875099714724" lon="8.454581552992348"><ele>222.0</ele><time>2026-04-10T15:44:21Z</time></trkpt><trkpt lat="39.488790194905484" lon="8.454767822522161"><ele>222.0</ele><time>2026-04-10T15:44:22Z</time></trkpt><trkpt lat="39.48882895217646" lon="8.45495199883135"><ele>222.0</ele><time>2026-04-10T15:44:23Z</time></trkpt><trkpt lat="39.488870158036114" lon="8.45513651040779"><ele>223.33333333333331</ele><time>2026-04-10T15:44:24Z</time></trkpt><trkpt lat="39.4889229882848" lon="8.455328739934634"><ele>224.66666666666666</ele><time>2026-04-10T15:44:25Z</time></trkpt><trkpt lat="39.48898327139304" lon="8.455527124979577"><ele>226.0</ele><time>2026-04-10T15:44:26Z</time></trkpt><trkpt lat="39.489055885181585" lon="8.455714762963593"><ele>226.5</ele><time>2026-04-10T15:44:27Z</time></trkpt><trkpt lat="39.489088027969565" lon="8.455899519133249"><ele>227.0</ele><time>2026-04-10T15:44:28Z</time></trkpt><trkpt lat="39.48912927445845" lon="8.45607118890347"><ele>227.5</ele><time>2026-04-10T15:44:29Z</time></trkpt><trkpt lat="39.48916164413881" lon="8.456230939456285"><ele>228.0</ele><time>2026-04-10T15:44:30Z</time></trkpt><trkpt lat="39.489195121304626" lon="8.456383800781161"><ele>228.5</ele><time>2026-04-10T15:44:31Z</time></trkpt><trkpt lat="39.489229879991676" lon="8.456542843701492"><ele>229.0</ele><time>2026-04-10T15:44:32Z</time></trkpt><trkpt lat="39.489264830044945" lon="8.456702762237597"><ele>229.5</ele><time>2026-04-10T15:44:33Z</time></trkpt><trkpt lat="39.48929864929615" lon="8.456850499296838"><ele>230.0</ele><time>2026-04-10T15:44:34Z</time></trkpt><trkpt lat="39.48933187094358" lon="8.456993140240055"><ele>229.8</ele><time>2026-04-10T15:44:35Z</time></trkpt><trkpt lat="39.48938125606095" lon="8.457131177479864"><ele>229.6</ele><time>2026-04-10T15:44:36Z</time></trkpt><trkpt lat="39.489407073805936" lon="8.457287059764948"><ele>229.39999999999998</ele><time>2026-04-10T15:44:37Z</time></trkpt><trkpt lat="39.4894475399045" lon="8.45742412198533"><ele>229.2</ele><time>2026-04-10T15:44:38Z</time></trkpt><trkpt lat="39.48945562635687" lon="8.45754060348433"><ele>229.0</ele><time>2026-04-10T15:44:39Z</time></trkpt><trkpt lat="39.48948466215915" lon="8.45767402468829"><ele>229.0</ele><time>2026-04-10T15:44:41Z</time></trkpt><trkpt lat="39.48938215739083" lon="8.457709646737364"><ele>229.0</ele><time>2026-04-10T15:44:44Z</time></trkpt><trkpt lat="39.48928936537786" lon="8.45771994383438"><ele>229.0</ele><time>2026-04-10T15:44:45Z</time></trkpt><trkpt lat="39.48917051164671" lon="8.457749692252575"><ele>229.0</ele><time>2026-04-10T15:44:46Z</time></trkpt><trkpt lat="39.48903458228687" lon="8.457757307195012"><ele>229.0</ele><time>2026-04-10T15:44:47Z</time></trkpt><trkpt lat="39.488881418349756" lon="8.457783408474608"><ele>229.0</ele><time>2026-04-10T15:44:48Z</time></trkpt><trkpt lat="39.48871618157193" lon="8.457795713064614"><ele>229.0</ele><time>2026-04-10T15:44:49Z</time></trkpt><trkpt lat="39.488561955706295" lon="8.457810140731912"><ele>232.0</ele><time>2026-04-10T15:44:50Z</time></trkpt><trkpt lat="39.48840274526601" lon="8.457838085735508"><ele>235.0</ele><time>2026-04-10T15:44:51Z</time></trkpt><trkpt lat="39.48823946533551" lon="8.457848828683652"><ele>238.0</ele><time>2026-04-10T15:44:52Z</time></trkpt><trkpt lat="39.4880762987631" lon="8.457861163164262"><ele>239.66666666666666</ele><time>2026-04-10T15:44:53Z</time></trkpt><trkpt lat="39.487917575872125" lon="8.457878377677035"><ele>241.33333333333331</ele><time>2026-04-10T15:44:54Z</time></trkpt><trkpt lat="39.48776678253492" lon="8.457896407549432"><ele>243.0</ele><time>2026-04-10T15:44:55Z</time></trkpt><trkpt lat="39.487613282090905" lon="8.457913864296213"><ele>243.0</ele><time>2026-04-10T15:44:56Z</time></trkpt><trkpt lat="39.48746225622804" lon="8.457921995576426"><ele>243.0</ele><time>2026-04-10T15:44:57Z</time></trkpt><trkpt lat="39.48731042976613" lon="8.4579593831217"><ele>243.0</ele><time>2026-04-10T15:44:58Z</time></trkpt><trkpt lat="39.4871705650664" lon="8.457970236411402"><ele>243.0</ele><time>2026-04-10T15:44:59Z</time></trkpt><trkpt lat="39.4870336874018" lon="8.45798507298767"><ele>244.0</ele><time>2026-04-10T15:45:00Z</time></trkpt><trkpt lat="39.48689756399966" lon="8.457991201654362"><ele>245.0</ele><time>2026-04-10T15:45:01Z</time></trkpt><trkpt lat="39.48675752616568" lon="8.458007482038317"><ele>246.0</ele><time>2026-04-10T15:45:02Z</time></trkpt><trkpt lat="39.48661303963941" lon="8.457999340645843"><ele>247.0</ele><time>2026-04-10T15:45:03Z</time></trkpt><trkpt lat="39.48645662667723" lon="8.458013673814987"><ele>247.0</ele><time>2026-04-10T15:45:04Z</time></trkpt><trkpt lat="39.48628992366299" lon="8.458030453552364"><ele>247.0</ele><time>2026-04-10T15:45:05Z</time></trkpt><trkpt lat="39.486103954897786" lon="8.458059431803655"><ele>247.0</ele><time>2026-04-10T15:45:06Z</time></trkpt><trkpt lat="39.48591241730505" lon="8.458085388680892"><ele>248.33333333333331</ele><time>2026-04-10T15:45:07Z</time></trkpt><trkpt lat="39.485708507890685" lon="8.458106934395744"><ele>249.66666666666669</ele><time>2026-04-10T15:45:08Z</time></trkpt><trkpt lat="39.485499816718765" lon="8.458129097970382"><ele>251.0</ele><time>2026-04-10T15:45:09Z</time></trkpt><trkpt lat="39.48529902274702" lon="8.458149750221331"><ele>251.33333333333334</ele><time>2026-04-10T15:45:10Z</time></trkpt><trkpt lat="39.48509217436127" lon="8.458168814455927"><ele>251.66666666666669</ele><time>2026-04-10T15:45:11Z</time></trkpt><trkpt lat="39.48488811185749" lon="8.45818536706512"><ele>252.0</ele><time>2026-04-10T15:45:12Z</time></trkpt><trkpt lat="39.48467744123812" lon="8.45820902132516"><ele>252.66666666666669</ele><time>2026-04-10T15:45:13Z</time></trkpt><trkpt lat="39.4844589010597" lon="8.45823015767723"><ele>253.33333333333334</ele><time>2026-04-10T15:45:14Z</time></trkpt><trkpt lat="39.48425302056004" lon="8.458246561406112"><ele>254.0</ele><time>2026-04-10T15:45:15Z</time></trkpt><trkpt lat="39.48406638699107" lon="8.458263533310804"><ele>254.0</ele><time>2026-04-10T15:45:16Z</time></trkpt><trkpt lat="39.4838840993461" lon="8.458281536002646"><ele>254.0</ele><time>2026-04-10T15:45:17Z</time></trkpt><trkpt lat="39.4836880358618" lon="8.458300620296162"><ele>254.0</ele><time>2026-04-10T15:45:18Z</time></trkpt><trkpt lat="39.483486089126686" lon="8.458317052325663"><ele>256.0</ele><time>2026-04-10T15:45:19Z</time></trkpt><trkpt lat="39.48327811311871" lon="8.458331073140158"><ele>258.0</ele><time>2026-04-10T15:45:20Z</time></trkpt><trkpt lat="39.48306365716662" lon="8.458346134630375"><ele>260.0</ele><time>2026-04-10T15:45:21Z</time></trkpt><trkpt lat="39.48285779076227" lon="8.45836402386559"><ele>261.6666666666667</ele><time>2026-04-10T15:45:22Z</time></trkpt><trkpt lat="39.48265711295296" lon="8.458385643487556"><ele>263.3333333333333</ele><time>2026-04-10T15:45:23Z</time></trkpt><trkpt lat="39.48246494121236" lon="8.458404203295409"><ele>265.0</ele><time>2026-04-10T15:45:24Z</time></trkpt><trkpt lat="39.482269519806074" lon="8.458422027864907"><ele>267.0</ele><time>2026-04-10T15:45:25Z</time></trkpt><trkpt lat="39.482079307381184" lon="8.458434271891033"><ele>269.0</ele><time>2026-04-10T15:45:26Z</time></trkpt><trkpt lat="39.48189120486544" lon="8.458447417654163"><ele>271.0</ele><time>2026-04-10T15:45:27Z</time></trkpt><trkpt lat="39.48170708208854" lon="8.458464635095075"><ele>271.0</ele><time>2026-04-10T15:45:28Z</time></trkpt><trkpt lat="39.481523930487235" lon="8.458482962125588"><ele>271.0</ele><time>2026-04-10T15:45:29Z</time></trkpt><trkpt lat="39.48134390697325" lon="8.458479911917747"><ele>271.0</ele><time>2026-04-10T15:45:30Z</time></trkpt><trkpt lat="39.481163301486674" lon="8.458495997341544"><ele>272.0</ele><time>2026-04-10T15:45:31Z</time></trkpt><trkpt lat="39.480978296293145" lon="8.458533205124219"><ele>273.0</ele><time>2026-04-10T15:45:32Z</time></trkpt><trkpt lat="39.48077553658316" lon="8.458547473949878"><ele>274.0</ele><time>2026-04-10T15:45:33Z</time></trkpt><trkpt lat="39.48056317935775" lon="8.458564687929657"><ele>276.3333333333333</ele><time>2026-04-10T15:45:34Z</time></trkpt><trkpt lat="39.48035681668257" lon="8.45858693071855"><ele>278.6666666666667</ele><time>2026-04-10T15:45:35Z</time></trkpt><trkpt lat="39.480166825797056" lon="8.458622507342081"><ele>281.0</ele><time>2026-04-10T15:45:36Z</time></trkpt><trkpt lat="39.47998137895425" lon="8.458674365829559"><ele>281.0</ele><time>2026-04-10T15:45:37Z</time></trkpt><trkpt lat="39.47980413944776" lon="8.458727331104605"><ele>281.0</ele><time>2026-04-10T15:45:38Z</time></trkpt><trkpt lat="39.479627410239594" lon="8.458750225102788"><ele>281.0</ele><time>2026-04-10T15:45:39Z</time></trkpt><trkpt lat="39.4794606372166" lon="8.458791054116912"><ele>283.0</ele><time>2026-04-10T15:45:40Z</time></trkpt><trkpt lat="39.47929811814213" lon="8.458831493451834"><ele>285.0</ele><time>2026-04-10T15:45:41Z</time></trkpt><trkpt lat="39.47913323629825" lon="8.458872520714289"><ele>287.0</ele><time>2026-04-10T15:45:42Z</time></trkpt><trkpt lat="39.478965943199576" lon="8.458914539505024"><ele>287.0</ele><time>2026-04-10T15:45:43Z</time></trkpt><trkpt lat="39.47879267762838" lon="8.458959844498205"><ele>287.0</ele><time>2026-04-10T15:45:44Z</time></trkpt><trkpt lat="39.47862168952358" lon="8.459006349962063"><ele>287.0</ele><time>2026-04-10T15:45:45Z</time></trkpt><trkpt lat="39.478449629690516" lon="8.459059498461274"><ele>289.33333333333337</ele><time>2026-04-10T15:45:46Z</time></trkpt><trkpt lat="39.47828507744023" lon="8.459131120520542"><ele>291.6666666666667</ele><time>2026-04-10T15:45:47Z</time></trkpt><trkpt lat="39.47812132116761" lon="8.459181564150146"><ele>294.0</ele><time>2026-04-10T15:45:48Z</time></trkpt><trkpt lat="39.47796193163825" lon="8.45923634369381"><ele>298.3333333333333</ele><time>2026-04-10T15:45:49Z</time></trkpt><trkpt lat="39.47780090280424" lon="8.459297185952451"><ele>302.66666666666663</ele><time>2026-04-10T15:45:50Z</time></trkpt><trkpt lat="39.47764067319555" lon="8.459362870752484"><ele>307.0</ele><time>2026-04-10T15:45:51Z</time></trkpt><trkpt lat="39.47748537203299" lon="8.45943235456888"><ele>307.0</ele><time>2026-04-10T15:45:52Z</time></trkpt><trkpt lat="39.47733318025039" lon="8.459512424179712"><ele>307.0</ele><time>2026-04-10T15:45:53Z</time></trkpt><trkpt lat="39.47718671898999" lon="8.459598446711848"><ele>307.0</ele><time>2026-04-10T15:45:54Z</time></trkpt><trkpt lat="39.47704113335945" lon="8.459685231940824"><ele>307.5</ele><time>2026-04-10T15:45:55Z</time></trkpt><trkpt lat="39.47689841362735" lon="8.459758607247363"><ele>308.0</ele><time>2026-04-10T15:45:56Z</time></trkpt><trkpt lat="39.47676718487306" lon="8.459814272789256"><ele>308.5</ele><time>2026-04-10T15:45:57Z</time></trkpt><trkpt lat="39.47665442233334" lon="8.459798760638142"><ele>309.0</ele><time>2026-04-10T15:45:58Z</time></trkpt><trkpt lat="39.47656330118092" lon="8.459762252033094"><ele>309.0</ele><time>2026-04-10T15:45:59Z</time></trkpt><trkpt lat="39.47649012887038" lon="8.459670020518727"><ele>309.0</ele><time>2026-04-10T15:46:00Z</time></trkpt><trkpt lat="39.47637909819572" lon="8.459598278143723"><ele>309.0</ele><time>2026-04-10T15:46:01Z</time></trkpt><trkpt lat="39.47627000208029" lon="8.459532897610448"><ele>309.0</ele><time>2026-04-10T15:46:02Z</time></trkpt><trkpt lat="39.47614130873723" lon="8.459520968419131"><ele>312.0</ele><time>2026-04-10T15:46:03Z</time></trkpt><trkpt lat="39.47599688722956" lon="8.459537503495085"><ele>315.0</ele><time>2026-04-10T15:46:04Z</time></trkpt><trkpt lat="39.47584727037103" lon="8.459532113324586"><ele>318.0</ele><time>2026-04-10T15:46:05Z</time></trkpt><trkpt lat="39.47570082724508" lon="8.459554203239396"><ele>321.0</ele><time>2026-04-10T15:46:06Z</time></trkpt><trkpt lat="39.47555801857174" lon="8.459598539837229"><ele>324.3333333333333</ele><time>2026-04-10T15:46:07Z</time></trkpt><trkpt lat="39.475424460608934" lon="8.459693082274272"><ele>327.66666666666663</ele><time>2026-04-10T15:46:08Z</time></trkpt><trkpt lat="39.47526986050324" lon="8.4597805254437"><ele>331.0</ele><time>2026-04-10T15:46:09Z</time></trkpt><trkpt lat="39.47512019875022" lon="8.459899520677038"><ele>331.0</ele><time>2026-04-10T15:46:10Z</time></trkpt><trkpt lat="39.4749757404889" lon="8.460009171868764"><ele>331.0</ele><time>2026-04-10T15:46:11Z</time></trkpt><trkpt lat="39.47483821378952" lon="8.46011019256166"><ele>331.0</ele><time>2026-04-10T15:46:12Z</time></trkpt><trkpt lat="39.47471037442475" lon="8.460201084308697"><ele>333.0</ele><time>2026-04-10T15:46:13Z</time></trkpt><trkpt lat="39.47458362425091" lon="8.46028709680702"><ele>335.0</ele><time>2026-04-10T15:46:14Z</time></trkpt><trkpt lat="39.47446461142797" lon="8.460360513816976"><ele>337.0</ele><time>2026-04-10T15:46:15Z</time></trkpt><trkpt lat="39.474357734227596" lon="8.460411726613277"><ele>339.0</ele><time>2026-04-10T15:46:16Z</time></trkpt><trkpt lat="39.47426257095788" lon="8.460458557734999"><ele>339.0</ele><time>2026-04-10T15:46:17Z</time></trkpt><trkpt lat="39.4741694541432" lon="8.460507116285322"><ele>339.0</ele><time>2026-04-10T15:46:18Z</time></trkpt><trkpt lat="39.47407431819336" lon="8.46062197839674"><ele>339.0</ele><time>2026-04-10T15:46:19Z</time></trkpt><trkpt lat="39.47399036879573" lon="8.460783714335475"><ele>339.0</ele><time>2026-04-10T15:46:20Z</time></trkpt><trkpt lat="39.47386275777099" lon="8.460906474717158"><ele>346.0</ele><time>2026-04-10T15:46:21Z</time></trkpt><trkpt lat="39.47372526676097" lon="8.461028273432248"><ele>353.0</ele><time>2026-04-10T15:46:22Z</time></trkpt><trkpt lat="39.47357827099507" lon="8.461119411716428"><ele>360.0</ele><time>2026-04-10T15:46:23Z</time></trkpt><trkpt lat="39.47343171964897" lon="8.46119072350483"><ele>360.0</ele><time>2026-04-10T15:46:24Z</time></trkpt><trkpt lat="39.47327984158551" lon="8.461256652910656"><ele>360.0</ele><time>2026-04-10T15:46:25Z</time></trkpt><trkpt lat="39.47314097001731" lon="8.46131201261765"><ele>360.0</ele><time>2026-04-10T15:46:26Z</time></trkpt><trkpt lat="39.47302420171485" lon="8.461351282782866"><ele>360.0</ele><time>2026-04-10T15:46:27Z</time></trkpt><trkpt lat="39.472915288593356" lon="8.46136579385137"><ele>359.25</ele><time>2026-04-10T15:46:28Z</time></trkpt><trkpt lat="39.47279327709149" lon="8.461359294782225"><ele>358.5</ele><time>2026-04-10T15:46:29Z</time></trkpt><trkpt lat="39.47264644355012" lon="8.461345597029887"><ele>357.75</ele><time>2026-04-10T15:46:30Z</time></trkpt><trkpt lat="39.47249302444582" lon="8.461330825832972"><ele>357.0</ele><time>2026-04-10T15:46:31Z</time></trkpt><trkpt lat="39.472354285625634" lon="8.46134208064228"><ele>357.0</ele><time>2026-04-10T15:46:32Z</time></trkpt><trkpt lat="39.4722229039968" lon="8.461361644036868"><ele>357.0</ele><time>2026-04-10T15:46:33Z</time></trkpt><trkpt lat="39.47209160249581" lon="8.461433487539077"><ele>357.0</ele><time>2026-04-10T15:46:34Z</time></trkpt><trkpt lat="39.471955299867766" lon="8.461549534038758"><ele>357.0</ele><time>2026-04-10T15:46:35Z</time></trkpt><trkpt lat="39.471821975746735" lon="8.461687521313811"><ele>361.0</ele><time>2026-04-10T15:46:36Z</time></trkpt><trkpt lat="39.47169900460591" lon="8.461789952488642"><ele>365.0</ele><time>2026-04-10T15:46:37Z</time></trkpt><trkpt lat="39.47160095626064" lon="8.461888562743123"><ele>369.0</ele><time>2026-04-10T15:46:38Z</time></trkpt><trkpt lat="39.47155017219982" lon="8.462014736804644"><ele>373.0</ele><time>2026-04-10T15:46:39Z</time></trkpt><trkpt lat="39.47152029325332" lon="8.462140714496453"><ele>373.0</ele><time>2026-04-10T15:46:40Z</time></trkpt><trkpt lat="39.47152638265684" lon="8.462275957670409"><ele>373.0</ele><time>2026-04-10T15:46:41Z</time></trkpt><trkpt lat="39.471574504113015" lon="8.462386730248426"><ele>373.0</ele><time>2026-04-10T15:46:42Z</time></trkpt><trkpt lat="39.471663040311945" lon="8.46246532225319"><ele>373.0</ele><time>2026-04-10T15:46:43Z</time></trkpt><trkpt lat="39.47178550542299" lon="8.462514738718344"><ele>373.0</ele><time>2026-04-10T15:46:44Z</time></trkpt><trkpt lat="39.47191405425601" lon="8.462556596928584"><ele>373.0</ele><time>2026-04-10T15:46:45Z</time></trkpt><trkpt lat="39.4720057830061" lon="8.4626115898139"><ele>373.0</ele><time>2026-04-10T15:46:46Z</time></trkpt><trkpt lat="39.47204179001989" lon="8.462723671447227"><ele>373.0</ele><time>2026-04-10T15:46:47Z</time></trkpt><trkpt lat="39.47205699243736" lon="8.462860542568807"><ele>373.0</ele><time>2026-04-10T15:46:48Z</time></trkpt><trkpt lat="39.47205199021903" lon="8.463029985906035"><ele>373.0</ele><time>2026-04-10T15:46:49Z</time></trkpt><trkpt lat="39.47203985996887" lon="8.463212237997725"><ele>374.2</ele><time>2026-04-10T15:46:50Z</time></trkpt><trkpt lat="39.47201816237777" lon="8.463374992533636"><ele>375.4</ele><time>2026-04-10T15:46:51Z</time></trkpt><trkpt lat="39.471978279634286" lon="8.463505197534902"><ele>376.59999999999997</ele><time>2026-04-10T15:46:52Z</time></trkpt><trkpt lat="39.47191753841682" lon="8.463596902741811"><ele>377.79999999999995</ele><time>2026-04-10T15:46:53Z</time></trkpt><trkpt lat="39.47183670584954" lon="8.46364994235136"><ele>379.0</ele><time>2026-04-10T15:46:54Z</time></trkpt><trkpt lat="39.471736989502766" lon="8.463667836338342"><ele>379.0</ele><time>2026-04-10T15:46:55Z</time></trkpt><trkpt lat="39.47162289460418" lon="8.463700972081288"><ele>379.0</ele><time>2026-04-10T15:46:56Z</time></trkpt><trkpt lat="39.47153636582189" lon="8.463773067545498"><ele>379.0</ele><time>2026-04-10T15:46:57Z</time></trkpt><trkpt lat="39.47146097270971" lon="8.463816241480297"><ele>379.0</ele><time>2026-04-10T15:46:58Z</time></trkpt><trkpt lat="39.47143116754509" lon="8.463922198971511"><ele>379.0</ele><time>2026-04-10T15:46:59Z</time></trkpt><trkpt lat="39.471467231249655" lon="8.464047320391481"><ele>378.6</ele><time>2026-04-10T15:47:00Z</time></trkpt><trkpt lat="39.471550115815475" lon="8.464133009193217"><ele>378.2</ele><time>2026-04-10T15:47:01Z</time></trkpt><trkpt lat="39.471642967492656" lon="8.46420524726077"><ele>377.8</ele><time>2026-04-10T15:47:02Z</time></trkpt><trkpt lat="39.47173599662699" lon="8.464292652106645"><ele>377.40000000000003</ele><time>2026-04-10T15:47:03Z</time></trkpt><trkpt lat="39.471790775703965" lon="8.464424623498408"><ele>377.0</ele><time>2026-04-10T15:47:04Z</time></trkpt><trkpt lat="39.47182660535067" lon="8.464562713878001"><ele>377.75</ele><time>2026-04-10T15:47:05Z</time></trkpt><trkpt lat="39.4718386922955" lon="8.464704078869136"><ele>378.5</ele><time>2026-04-10T15:47:06Z</time></trkpt><trkpt lat="39.471849474174604" lon="8.464852380903835"><ele>379.25</ele><time>2026-04-10T15:47:07Z</time></trkpt><trkpt lat="39.47187524544584" lon="8.465013923852162"><ele>380.0</ele><time>2026-04-10T15:47:08Z</time></trkpt><trkpt lat="39.471882968637104" lon="8.465189572291058"><ele>380.0</ele><time>2026-04-10T15:47:09Z</time></trkpt><trkpt lat="39.47186725702916" lon="8.465358397756406"><ele>380.0</ele><time>2026-04-10T15:47:10Z</time></trkpt><trkpt lat="39.471842573412886" lon="8.465518189065987"><ele>380.0</ele><time>2026-04-10T15:47:11Z</time></trkpt><trkpt lat="39.47179015811843" lon="8.46565916655134"><ele>380.0</ele><time>2026-04-10T15:47:12Z</time></trkpt><trkpt lat="39.47171503062532" lon="8.465780063843122"><ele>379.8</ele><time>2026-04-10T15:47:13Z</time></trkpt><trkpt lat="39.47161430507098" lon="8.465840319716573"><ele>379.6</ele><time>2026-04-10T15:47:14Z</time></trkpt><trkpt lat="39.4715141859365" lon="8.465889675051745"><ele>379.4</ele><time>2026-04-10T15:47:15Z</time></trkpt><trkpt lat="39.47144027030157" lon="8.465955813215723"><ele>379.2</ele><time>2026-04-10T15:47:16Z</time></trkpt><trkpt lat="39.47138773639568" lon="8.466034402188589"><ele>379.0</ele><time>2026-04-10T15:47:17Z</time></trkpt><trkpt lat="39.471386729924305" lon="8.466151039470976"><ele>379.25</ele><time>2026-04-10T15:47:18Z</time></trkpt><trkpt lat="39.47145629470384" lon="8.46627859072798"><ele>379.5</ele><time>2026-04-10T15:47:19Z</time></trkpt><trkpt lat="39.471535024700096" lon="8.466414059832626"><ele>379.75</ele><time>2026-04-10T15:47:20Z</time></trkpt><trkpt lat="39.47161229001968" lon="8.466548742764358"><ele>380.0</ele><time>2026-04-10T15:47:21Z</time></trkpt><trkpt lat="39.47166031518733" lon="8.46669525495694"><ele>380.0</ele><time>2026-04-10T15:47:22Z</time></trkpt><trkpt lat="39.471697284813736" lon="8.466837910191655"><ele>380.0</ele><time>2026-04-10T15:47:23Z</time></trkpt><trkpt lat="39.47170758943585" lon="8.46700305169131"><ele>380.0</ele><time>2026-04-10T15:47:24Z</time></trkpt><trkpt lat="39.47171179243179" lon="8.467200699563028"><ele>380.0</ele><time>2026-04-10T15:47:25Z</time></trkpt><trkpt lat="39.47171346942403" lon="8.467410281863598"><ele>379.5</ele><time>2026-04-10T15:47:26Z</time></trkpt><trkpt lat="39.47171497957767" lon="8.467599014148533"><ele>379.0</ele><time>2026-04-10T15:47:27Z</time></trkpt><trkpt lat="39.47171118526683" lon="8.46776055516746"><ele>378.5</ele><time>2026-04-10T15:47:28Z</time></trkpt><trkpt lat="39.47169061937341" lon="8.467899167012265"><ele>378.0</ele><time>2026-04-10T15:47:29Z</time></trkpt><trkpt lat="39.471640912034275" lon="8.468027433095463"><ele>378.0</ele><time>2026-04-10T15:47:30Z</time></trkpt><trkpt lat="39.471568502404956" lon="8.468149034675273"><ele>378.0</ele><time>2026-04-10T15:47:31Z</time></trkpt><trkpt lat="39.47146036216558" lon="8.468289643537869"><ele>378.0</ele><time>2026-04-10T15:47:32Z</time></trkpt><trkpt lat="39.47135124913006" lon="8.468448560891636"><ele>378.0</ele><time>2026-04-10T15:47:33Z</time></trkpt><trkpt lat="39.4712426140675" lon="8.468576760435402"><ele>381.79999999999995</ele><time>2026-04-10T15:47:34Z</time></trkpt><trkpt lat="39.47116038635135" lon="8.468700776351332"><ele>385.6</ele><time>2026-04-10T15:47:35Z</time></trkpt><trkpt lat="39.47111986238708" lon="8.468835988500327"><ele>389.4</ele><time>2026-04-10T15:47:36Z</time></trkpt><trkpt lat="39.47111083224272" lon="8.468968738867044"><ele>393.20000000000005</ele><time>2026-04-10T15:47:37Z</time></trkpt><trkpt lat="39.47112470203874" lon="8.469087874745703"><ele>397.0</ele><time>2026-04-10T15:47:38Z</time></trkpt><trkpt lat="39.471144049910436" lon="8.469193021554263"><ele>397.0</ele><time>2026-04-10T15:47:39Z</time></trkpt><trkpt lat="39.47123001273528" lon="8.469270457473256"><ele>397.0</ele><time>2026-04-10T15:47:40Z</time></trkpt><trkpt lat="39.471348392345824" lon="8.469305046269229"><ele>397.0</ele><time>2026-04-10T15:47:41Z</time></trkpt><trkpt lat="39.47147756911292" lon="8.469335301457454"><ele>397.0</ele><time>2026-04-10T15:47:42Z</time></trkpt><trkpt lat="39.471589920938335" lon="8.469410178251092"><ele>395.0</ele><time>2026-04-10T15:47:43Z</time></trkpt><trkpt lat="39.47167393442724" lon="8.469509554650166"><ele>393.0</ele><time>2026-04-10T15:47:44Z</time></trkpt><trkpt lat="39.47170781423514" lon="8.469630502315823"><ele>391.0</ele><time>2026-04-10T15:47:45Z</time></trkpt><trkpt lat="39.4717120755028" lon="8.469761675260541"><ele>389.0</ele><time>2026-04-10T15:47:46Z</time></trkpt><trkpt lat="39.47166752525622" lon="8.469886794543452"><ele>387.0</ele><time>2026-04-10T15:47:47Z</time></trkpt><trkpt lat="39.47161905323645" lon="8.470029104040622"><ele>387.0</ele><time>2026-04-10T15:47:48Z</time></trkpt><trkpt lat="39.47155576905161" lon="8.47016418385557"><ele>387.0</ele><time>2026-04-10T15:47:49Z</time></trkpt><trkpt lat="39.471470481761926" lon="8.470286678717889"><ele>387.0</ele><time>2026-04-10T15:47:50Z</time></trkpt><trkpt lat="39.47135751114948" lon="8.470387739269313"><ele>387.0</ele><time>2026-04-10T15:47:51Z</time></trkpt><trkpt lat="39.47122928449137" lon="8.470496169646166"><ele>389.25</ele><time>2026-04-10T15:47:52Z</time></trkpt><trkpt lat="39.47111746186604" lon="8.470607014313595"><ele>391.5</ele><time>2026-04-10T15:47:53Z</time></trkpt><trkpt lat="39.470997577949554" lon="8.470698925306094"><ele>393.75</ele><time>2026-04-10T15:47:54Z</time></trkpt><trkpt lat="39.470881404512824" lon="8.470794840631934"><ele>396.0</ele><time>2026-04-10T15:47:55Z</time></trkpt><trkpt lat="39.470767296979766" lon="8.470887237284073"><ele>396.0</ele><time>2026-04-10T15:47:56Z</time></trkpt><trkpt lat="39.47066158824849" lon="8.470968587044219"><ele>396.0</ele><time>2026-04-10T15:47:57Z</time></trkpt><trkpt lat="39.47056679319632" lon="8.471042503710924"><ele>396.0</ele><time>2026-04-10T15:47:58Z</time></trkpt><trkpt lat="39.470477634337314" lon="8.471089928687856"><ele>396.0</ele><time>2026-04-10T15:47:59Z</time></trkpt><trkpt lat="39.47041523160967" lon="8.471155481311513"><ele>396.0</ele><time>2026-04-10T15:48:00Z</time></trkpt><trkpt lat="39.47038988851916" lon="8.471245368180117"><ele>395.8</ele><time>2026-04-10T15:48:01Z</time></trkpt><trkpt lat="39.47038928623188" lon="8.471334234746923"><ele>395.6</ele><time>2026-04-10T15:48:02Z</time></trkpt><trkpt lat="39.47043377013417" lon="8.471417659556426"><ele>395.4</ele><time>2026-04-10T15:48:03Z</time></trkpt><trkpt lat="39.470534710825056" lon="8.471459839866158"><ele>395.2</ele><time>2026-04-10T15:48:04Z</time></trkpt><trkpt lat="39.470644086175746" lon="8.471507872546617"><ele>395.0</ele><time>2026-04-10T15:48:05Z</time></trkpt><trkpt lat="39.47076676986836" lon="8.471577815422728"><ele>395.0</ele><time>2026-04-10T15:48:06Z</time></trkpt><trkpt lat="39.47087479912244" lon="8.471699440980224"><ele>395.0</ele><time>2026-04-10T15:48:07Z</time></trkpt><trkpt lat="39.47098449551963" lon="8.471828587029153"><ele>395.0</ele><time>2026-04-10T15:48:08Z</time></trkpt><trkpt lat="39.47110438243955" lon="8.471954445359351"><ele>395.0</ele><time>2026-04-10T15:48:09Z</time></trkpt><trkpt lat="39.471240861294774" lon="8.472010210197206"><ele>392.75</ele><time>2026-04-10T15:48:10Z</time></trkpt><trkpt lat="39.47136292708829" lon="8.472061743312059"><ele>390.5</ele><time>2026-04-10T15:48:11Z</time></trkpt><trkpt lat="39.47147266233964" lon="8.472126199199147"><ele>388.25</ele><time>2026-04-10T15:48:12Z</time></trkpt><trkpt lat="39.471550591743124" lon="8.472243424683265"><ele>386.0</ele><time>2026-04-10T15:48:13Z</time></trkpt><trkpt lat="39.471606122456386" lon="8.472389007649973"><ele>386.0</ele><time>2026-04-10T15:48:14Z</time></trkpt><trkpt lat="39.47167197198467" lon="8.472576675153793"><ele>386.0</ele><time>2026-04-10T15:48:15Z</time></trkpt><trkpt lat="39.471732011549605" lon="8.472762371596186"><ele>386.0</ele><time>2026-04-10T15:48:16Z</time></trkpt><trkpt lat="39.47178104035744" lon="8.472924784989683"><ele>386.0</ele><time>2026-04-10T15:48:17Z</time></trkpt><trkpt lat="39.47181414910983" lon="8.47308379634222"><ele>386.75</ele><time>2026-04-10T15:48:18Z</time></trkpt><trkpt lat="39.47181703848785" lon="8.473251480829965"><ele>387.5</ele><time>2026-04-10T15:48:19Z</time></trkpt><trkpt lat="39.471800240497586" lon="8.473423334135372"><ele>388.25</ele><time>2026-04-10T15:48:20Z</time></trkpt><trkpt lat="39.47175424363247" lon="8.47357717523241"><ele>389.0</ele><time>2026-04-10T15:48:21Z</time></trkpt><trkpt lat="39.471674909750256" lon="8.473724377991259"><ele>387.3333333333333</ele><time>2026-04-10T15:48:22Z</time></trkpt><trkpt lat="39.47156728758891" lon="8.473885002457406"><ele>385.66666666666663</ele><time>2026-04-10T15:48:23Z</time></trkpt><trkpt lat="39.47144729481079" lon="8.474025059436125"><ele>384.0</ele><time>2026-04-10T15:48:24Z</time></trkpt><trkpt lat="39.47134428371592" lon="8.474148382349098"><ele>382.75</ele><time>2026-04-10T15:48:25Z</time></trkpt><trkpt lat="39.47123829881461" lon="8.474248435103917"><ele>381.5</ele><time>2026-04-10T15:48:26Z</time></trkpt><trkpt lat="39.47116146309962" lon="8.474378571965726"><ele>380.25</ele><time>2026-04-10T15:48:27Z</time></trkpt><trkpt lat="39.47111044553418" lon="8.474560677362758"><ele>379.0</ele><time>2026-04-10T15:48:28Z</time></trkpt><trkpt lat="39.47107074752216" lon="8.474797488314412"><ele>378.0</ele><time>2026-04-10T15:48:29Z</time></trkpt><trkpt lat="39.47103618039789" lon="8.475034589147743"><ele>377.0</ele><time>2026-04-10T15:48:30Z</time></trkpt><trkpt lat="39.47099855828184" lon="8.475238527071873"><ele>376.0</ele><time>2026-04-10T15:48:31Z</time></trkpt><trkpt lat="39.47096198275042" lon="8.475411720216462"><ele>377.4</ele><time>2026-04-10T15:48:32Z</time></trkpt><trkpt lat="39.47092979791894" lon="8.475566960668365"><ele>378.8</ele><time>2026-04-10T15:48:33Z</time></trkpt><trkpt lat="39.47090485219367" lon="8.475709083513902"><ele>380.2</ele><time>2026-04-10T15:48:34Z</time></trkpt><trkpt lat="39.47089524322394" lon="8.475837751769783"><ele>381.59999999999997</ele><time>2026-04-10T15:48:35Z</time></trkpt><trkpt lat="39.47090743732755" lon="8.475967797420209"><ele>383.0</ele><time>2026-04-10T15:48:36Z</time></trkpt><trkpt lat="39.470960925677325" lon="8.476072571029029"><ele>383.0</ele><time>2026-04-10T15:48:37Z</time></trkpt><trkpt lat="39.471057650212856" lon="8.476130506917688"><ele>383.0</ele><time>2026-04-10T15:48:38Z</time></trkpt><trkpt lat="39.471199261485644" lon="8.476163489588695"><ele>383.0</ele><time>2026-04-10T15:48:39Z</time></trkpt><trkpt lat="39.47136537832369" lon="8.476191065321084"><ele>383.0</ele><time>2026-04-10T15:48:40Z</time></trkpt><trkpt lat="39.471519667276816" lon="8.476217711242956"><ele>384.0</ele><time>2026-04-10T15:48:41Z</time></trkpt><trkpt lat="39.47166875440838" lon="8.47624030977587"><ele>385.0</ele><time>2026-04-10T15:48:42Z</time></trkpt><trkpt lat="39.47181740029268" lon="8.47626028502464"><ele>386.0</ele><time>2026-04-10T15:48:43Z</time></trkpt><trkpt lat="39.47196381548379" lon="8.476280320507271"><ele>387.0</ele><time>2026-04-10T15:48:44Z</time></trkpt><trkpt lat="39.472110707119924" lon="8.47630017535893"><ele>392.25</ele><time>2026-04-10T15:48:45Z</time></trkpt><trkpt lat="39.47225801577709" lon="8.476320028885112"><ele>397.5</ele><time>2026-04-10T15:48:46Z</time></trkpt><trkpt lat="39.47240613026438" lon="8.476345428021157"><ele>402.75</ele><time>2026-04-10T15:48:47Z</time></trkpt><trkpt lat="39.472551687320625" lon="8.47638029275959"><ele>408.0</ele><time>2026-04-10T15:48:48Z</time></trkpt><trkpt lat="39.472690268144675" lon="8.476421591118513"><ele>408.0</ele><time>2026-04-10T15:48:49Z</time></trkpt><trkpt lat="39.47282683858894" lon="8.476462984143367"><ele>408.0</ele><time>2026-04-10T15:48:50Z</time></trkpt><trkpt lat="39.47295935094578" lon="8.476516560502082"><ele>408.0</ele><time>2026-04-10T15:48:51Z</time></trkpt><trkpt lat="39.47308690930441" lon="8.47659723156703"><ele>408.0</ele><time>2026-04-10T15:48:52Z</time></trkpt><trkpt lat="39.47319291308306" lon="8.47673024958463"><ele>405.33333333333337</ele><time>2026-04-10T15:48:53Z</time></trkpt><trkpt lat="39.47330968538257" lon="8.476869466024338"><ele>402.6666666666667</ele><time>2026-04-10T15:48:54Z</time></trkpt><trkpt lat="39.47343274765374" lon="8.477013104642202"><ele>400.0</ele><time>2026-04-10T15:48:55Z</time></trkpt><trkpt lat="39.47354129529968" lon="8.477176980576756"><ele>399.6666666666667</ele><time>2026-04-10T15:48:56Z</time></trkpt><trkpt lat="39.473652848626784" lon="8.47734388069257"><ele>399.33333333333337</ele><time>2026-04-10T15:48:57Z</time></trkpt><trkpt lat="39.4737688576012" lon="8.477512426511232"><ele>399.0</ele><time>2026-04-10T15:48:58Z</time></trkpt><trkpt lat="39.47388616335339" lon="8.477666553025873"><ele>399.0</ele><time>2026-04-10T15:48:59Z</time></trkpt><trkpt lat="39.47399374891323" lon="8.477808307795867"><ele>399.0</ele><time>2026-04-10T15:49:00Z</time></trkpt><trkpt lat="39.47408560918198" lon="8.477936686936063"><ele>399.0</ele><time>2026-04-10T15:49:01Z</time></trkpt><trkpt lat="39.47414586638359" lon="8.478080631073965"><ele>399.0</ele><time>2026-04-10T15:49:02Z</time></trkpt><trkpt lat="39.474196601716834" lon="8.478239038595872"><ele>401.5</ele><time>2026-04-10T15:49:03Z</time></trkpt><trkpt lat="39.47422459223456" lon="8.478415928125969"><ele>404.0</ele><time>2026-04-10T15:49:04Z</time></trkpt><trkpt lat="39.474216890533846" lon="8.478598599216753"><ele>406.5</ele><time>2026-04-10T15:49:05Z</time></trkpt><trkpt lat="39.47417539571876" lon="8.478790084468889"><ele>409.0</ele><time>2026-04-10T15:49:06Z</time></trkpt><trkpt lat="39.474126206945904" lon="8.478993777492253"><ele>409.25</ele><time>2026-04-10T15:49:07Z</time></trkpt><trkpt lat="39.47406894724645" lon="8.479163188097091"><ele>409.5</ele><time>2026-04-10T15:49:08Z</time></trkpt><trkpt lat="39.47399796988732" lon="8.479280717904574"><ele>409.75</ele><time>2026-04-10T15:49:09Z</time></trkpt><trkpt lat="39.473905620917904" lon="8.47933958599511"><ele>410.0</ele><time>2026-04-10T15:49:10Z</time></trkpt><trkpt lat="39.473803916809935" lon="8.47935567032115"><ele>413.66666666666663</ele><time>2026-04-10T15:49:11Z</time></trkpt><trkpt lat="39.473665253546265" lon="8.479369423871484"><ele>417.33333333333337</ele><time>2026-04-10T15:49:12Z</time></trkpt><trkpt lat="39.47350528083869" lon="8.479394619338963"><ele>421.0</ele><time>2026-04-10T15:49:13Z</time></trkpt><trkpt lat="39.47335544987153" lon="8.47940075119149"><ele>421.0</ele><time>2026-04-10T15:49:14Z</time></trkpt><trkpt lat="39.47321129120257" lon="8.47937538893966"><ele>421.0</ele><time>2026-04-10T15:49:15Z</time></trkpt><trkpt lat="39.473080276678445" lon="8.479352064804754"><ele>421.0</ele><time>2026-04-10T15:49:16Z</time></trkpt><trkpt lat="39.47295850597383" lon="8.479339785472472"><ele>421.0</ele><time>2026-04-10T15:49:17Z</time></trkpt><trkpt lat="39.47285581225338" lon="8.479366860114053"><ele>422.5</ele><time>2026-04-10T15:49:18Z</time></trkpt><trkpt lat="39.47275974791426" lon="8.479413970940854"><ele>424.0</ele><time>2026-04-10T15:49:19Z</time></trkpt><trkpt lat="39.47266195968603" lon="8.47950248756099"><ele>425.5</ele><time>2026-04-10T15:49:20Z</time></trkpt><trkpt lat="39.47258207834779" lon="8.479622185365653"><ele>427.0</ele><time>2026-04-10T15:49:21Z</time></trkpt><trkpt lat="39.472528177484406" lon="8.479764046542762"><ele>424.20000000000005</ele><time>2026-04-10T15:49:22Z</time></trkpt><trkpt lat="39.472500955635404" lon="8.47991198669725"><ele>421.40000000000003</ele><time>2026-04-10T15:49:23Z</time></trkpt><trkpt lat="39.47244457271303" lon="8.480025360625138"><ele>418.6</ele><time>2026-04-10T15:49:24Z</time></trkpt><trkpt lat="39.47237578598409" lon="8.480113122736535"><ele>415.79999999999995</ele><time>2026-04-10T15:49:25Z</time></trkpt><trkpt lat="39.47228177919381" lon="8.480222992124112"><ele>413.0</ele><time>2026-04-10T15:49:26Z</time></trkpt><trkpt lat="39.472178984376875" lon="8.480350458359124"><ele>411.75</ele><time>2026-04-10T15:49:27Z</time></trkpt><trkpt lat="39.472072817438026" lon="8.480459482742617"><ele>410.5</ele><time>2026-04-10T15:49:28Z</time></trkpt><trkpt lat="39.47197484184412" lon="8.480555858693236"><ele>409.25</ele><time>2026-04-10T15:49:29Z</time></trkpt><trkpt lat="39.47189362408492" lon="8.48064777820255"><ele>408.0</ele><time>2026-04-10T15:49:30Z</time></trkpt><trkpt lat="39.47183640162288" lon="8.480751876181362"><ele>408.0</ele><time>2026-04-10T15:49:31Z</time></trkpt><trkpt lat="39.4718176448592" lon="8.48087384622404"><ele>408.0</ele><time>2026-04-10T15:49:32Z</time></trkpt><trkpt lat="39.47184208608157" lon="8.4809955657793"><ele>408.0</ele><time>2026-04-10T15:49:33Z</time></trkpt><trkpt lat="39.47190843610974" lon="8.481110796588775"><ele>408.0</ele><time>2026-04-10T15:49:34Z</time></trkpt><trkpt lat="39.47200542180368" lon="8.48123679172804"><ele>408.0</ele><time>2026-04-10T15:49:35Z</time></trkpt><trkpt lat="39.47212595214532" lon="8.481361144933336"><ele>408.5</ele><time>2026-04-10T15:49:36Z</time></trkpt><trkpt lat="39.4722275203777" lon="8.481504737445627"><ele>409.0</ele><time>2026-04-10T15:49:37Z</time></trkpt><trkpt lat="39.472339617463334" lon="8.481631311078257"><ele>409.5</ele><time>2026-04-10T15:49:38Z</time></trkpt><trkpt lat="39.47244133821688" lon="8.481768980988061"><ele>410.0</ele><time>2026-04-10T15:49:39Z</time></trkpt><trkpt lat="39.472540124159316" lon="8.481914320471411"><ele>410.0</ele><time>2026-04-10T15:49:40Z</time></trkpt><trkpt lat="39.47264923332672" lon="8.482039077019625"><ele>410.0</ele><time>2026-04-10T15:49:41Z</time></trkpt><trkpt lat="39.47276595839618" lon="8.482147564041382"><ele>410.0</ele><time>2026-04-10T15:49:42Z</time></trkpt><trkpt lat="39.47287671034155" lon="8.482242236786842"><ele>410.0</ele><time>2026-04-10T15:49:43Z</time></trkpt><trkpt lat="39.47297454615756" lon="8.482342036323365"><ele>410.25</ele><time>2026-04-10T15:49:44Z</time></trkpt><trkpt lat="39.47306906859479" lon="8.482467356206003"><ele>410.5</ele><time>2026-04-10T15:49:45Z</time></trkpt><trkpt lat="39.473140758014914" lon="8.482638524087772"><ele>410.75</ele><time>2026-04-10T15:49:46Z</time></trkpt><trkpt lat="39.47321049045334" lon="8.482815097240117"><ele>411.0</ele><time>2026-04-10T15:49:47Z</time></trkpt><trkpt lat="39.47327656055207" lon="8.482990898932261"><ele>411.0</ele><time>2026-04-10T15:49:48Z</time></trkpt><trkpt lat="39.47333446741234" lon="8.483165828133476"><ele>411.0</ele><time>2026-04-10T15:49:49Z</time></trkpt><trkpt lat="39.4733976436407" lon="8.483326802315187"><ele>411.0</ele><time>2026-04-10T15:49:50Z</time></trkpt><trkpt lat="39.473411506022735" lon="8.483488473497502"><ele>411.0</ele><time>2026-04-10T15:49:51Z</time></trkpt><trkpt lat="39.473408747092925" lon="8.483626376160649"><ele>411.0</ele><time>2026-04-10T15:49:52Z</time></trkpt><trkpt lat="39.473364058189844" lon="8.483744805772643"><ele>411.0</ele><time>2026-04-10T15:49:53Z</time></trkpt><trkpt lat="39.47329964909875" lon="8.483880966174763"><ele>411.0</ele><time>2026-04-10T15:49:54Z</time></trkpt><trkpt lat="39.47321613508684" lon="8.484042780679248"><ele>411.0</ele><time>2026-04-10T15:49:55Z</time></trkpt><trkpt lat="39.47314635214408" lon="8.484203146119736"><ele>410.20000000000005</ele><time>2026-04-10T15:49:56Z</time></trkpt><trkpt lat="39.47308431416257" lon="8.484326902392793"><ele>409.40000000000003</ele><time>2026-04-10T15:49:57Z</time></trkpt><trkpt lat="39.47304807567123" lon="8.484443234912046"><ele>408.6</ele><time>2026-04-10T15:49:58Z</time></trkpt><trkpt lat="39.47306031882745" lon="8.484553019326134"><ele>407.8</ele><time>2026-04-10T15:49:59Z</time></trkpt><trkpt lat="39.47311322616168" lon="8.484654442117613"><ele>407.0</ele><time>2026-04-10T15:50:00Z</time></trkpt><trkpt lat="39.47320332151312" lon="8.484748053180935"><ele>405.3333333333333</ele><time>2026-04-10T15:50:01Z</time></trkpt><trkpt lat="39.473337154250245" lon="8.484865196943725"><ele>403.66666666666663</ele><time>2026-04-10T15:50:02Z</time></trkpt><trkpt lat="39.473464578397795" lon="8.485004847070758"><ele>402.0</ele><time>2026-04-10T15:50:03Z</time></trkpt><trkpt lat="39.47359805059103" lon="8.48514260567557"><ele>402.0</ele><time>2026-04-10T15:50:04Z</time></trkpt><trkpt lat="39.47373186275621" lon="8.485288773345964"><ele>402.0</ele><time>2026-04-10T15:50:05Z</time></trkpt><trkpt lat="39.47386015211183" lon="8.485429185153286"><ele>402.0</ele><time>2026-04-10T15:50:06Z</time></trkpt><trkpt lat="39.47398133975622" lon="8.485562997543546"><ele>399.33333333333337</ele><time>2026-04-10T15:50:07Z</time></trkpt><trkpt lat="39.47410405587506" lon="8.485695392300244"><ele>396.6666666666667</ele><time>2026-04-10T15:50:08Z</time></trkpt><trkpt lat="39.474230008941056" lon="8.485822963182654"><ele>394.0</ele><time>2026-04-10T15:50:09Z</time></trkpt><trkpt lat="39.47435309451841" lon="8.485947906966011"><ele>394.0</ele><time>2026-04-10T15:50:10Z</time></trkpt><trkpt lat="39.47447251737731" lon="8.486073494591421"><ele>394.0</ele><time>2026-04-10T15:50:11Z</time></trkpt><trkpt lat="39.474584956499285" lon="8.486195334259646"><ele>394.0</ele><time>2026-04-10T15:50:12Z</time></trkpt><trkpt lat="39.474704858335464" lon="8.486319446080543"><ele>392.0</ele><time>2026-04-10T15:50:13Z</time></trkpt><trkpt lat="39.474826738637425" lon="8.486439244745933"><ele>390.0</ele><time>2026-04-10T15:50:14Z</time></trkpt><trkpt lat="39.47495690402667" lon="8.486563057854296"><ele>388.0</ele><time>2026-04-10T15:50:15Z</time></trkpt><trkpt lat="39.475079767196675" lon="8.486694312573277"><ele>388.0</ele><time>2026-04-10T15:50:16Z</time></trkpt><trkpt lat="39.475159421172116" lon="8.486878095270889"><ele>388.0</ele><time>2026-04-10T15:50:17Z</time></trkpt><trkpt lat="39.47524601802866" lon="8.487061427958407"><ele>388.0</ele><time>2026-04-10T15:50:18Z</time></trkpt><trkpt lat="39.47533990497049" lon="8.487244666295805"><ele>388.33333333333337</ele><time>2026-04-10T15:50:19Z</time></trkpt><trkpt lat="39.47540815996703" lon="8.48743693805429"><ele>388.66666666666663</ele><time>2026-04-10T15:50:20Z</time></trkpt><trkpt lat="39.47543803559429" lon="8.487633016321851"><ele>389.0</ele><time>2026-04-10T15:50:21Z</time></trkpt><trkpt lat="39.47546313626897" lon="8.487818884695011"><ele>388.25</ele><time>2026-04-10T15:50:22Z</time></trkpt><trkpt lat="39.475503104567935" lon="8.487976615270572"><ele>387.5</ele><time>2026-04-10T15:50:23Z</time></trkpt><trkpt lat="39.475549879593146" lon="8.488114351226747"><ele>386.75</ele><time>2026-04-10T15:50:24Z</time></trkpt><trkpt lat="39.47563764849841" lon="8.488219007644068"><ele>386.0</ele><time>2026-04-10T15:50:25Z</time></trkpt><trkpt lat="39.47576085416772" lon="8.488287942386737"><ele>386.0</ele><time>2026-04-10T15:50:26Z</time></trkpt><trkpt lat="39.47589056996348" lon="8.488350718094244"><ele>386.0</ele><time>2026-04-10T15:50:27Z</time></trkpt><trkpt lat="39.475992501797414" lon="8.488437092214305"><ele>386.0</ele><time>2026-04-10T15:50:28Z</time></trkpt><trkpt lat="39.476022148059485" lon="8.488577936811124"><ele>386.0</ele><time>2026-04-10T15:50:29Z</time></trkpt><trkpt lat="39.476044153067434" lon="8.488728162843167"><ele>385.66666666666663</ele><time>2026-04-10T15:50:30Z</time></trkpt><trkpt lat="39.47608606598362" lon="8.488905803451063"><ele>385.33333333333337</ele><time>2026-04-10T15:50:31Z</time></trkpt><trkpt lat="39.47613401659388" lon="8.489089454889186"><ele>385.0</ele><time>2026-04-10T15:50:32Z</time></trkpt><trkpt lat="39.4762164037929" lon="8.489270420848568"><ele>386.33333333333337</ele><time>2026-04-10T15:50:33Z</time></trkpt><trkpt lat="39.47632339522515" lon="8.489448375707319"><ele>387.66666666666663</ele><time>2026-04-10T15:50:34Z</time></trkpt><trkpt lat="39.476454751494174" lon="8.489616028210303"><ele>389.0</ele><time>2026-04-10T15:50:35Z</time></trkpt><trkpt lat="39.476578185453526" lon="8.48977353970423"><ele>389.0</ele><time>2026-04-10T15:50:36Z</time></trkpt><trkpt lat="39.4766792312513" lon="8.489921168830147"><ele>389.0</ele><time>2026-04-10T15:50:37Z</time></trkpt><trkpt lat="39.47676525249079" lon="8.490059914369256"><ele>389.0</ele><time>2026-04-10T15:50:38Z</time></trkpt><trkpt lat="39.47684736694649" lon="8.490182499880875"><ele>389.0</ele><time>2026-04-10T15:50:39Z</time></trkpt><trkpt lat="39.47694298623983" lon="8.490292738784332"><ele>389.0</ele><time>2026-04-10T15:50:40Z</time></trkpt><trkpt lat="39.477063135608475" lon="8.490391164717739"><ele>389.0</ele><time>2026-04-10T15:50:41Z</time></trkpt><trkpt lat="39.47722275356445" lon="8.490453062169593"><ele>389.0</ele><time>2026-04-10T15:50:42Z</time></trkpt><trkpt lat="39.477395558029265" lon="8.490514436673426"><ele>388.0</ele><time>2026-04-10T15:50:43Z</time></trkpt><trkpt lat="39.4775665931125" lon="8.49057222700667"><ele>387.0</ele><time>2026-04-10T15:50:44Z</time></trkpt><trkpt lat="39.477736845703305" lon="8.490632110320123"><ele>386.0</ele><time>2026-04-10T15:50:45Z</time></trkpt><trkpt lat="39.477910403666854" lon="8.49069217436771"><ele>386.66666666666663</ele><time>2026-04-10T15:50:46Z</time></trkpt><trkpt lat="39.47808665542178" lon="8.49075040068678"><ele>387.33333333333337</ele><time>2026-04-10T15:50:47Z</time></trkpt><trkpt lat="39.478265555798146" lon="8.490809735376779"><ele>388.0</ele><time>2026-04-10T15:50:48Z</time></trkpt><trkpt lat="39.47844800223277" lon="8.490869242058224"><ele>388.0</ele><time>2026-04-10T15:50:49Z</time></trkpt><trkpt lat="39.4786233985837" lon="8.490927730906456"><ele>388.0</ele><time>2026-04-10T15:50:50Z</time></trkpt><trkpt lat="39.478783031108755" lon="8.490981886831639"><ele>388.0</ele><time>2026-04-10T15:50:51Z</time></trkpt><trkpt lat="39.47894089782181" lon="8.491035982494468"><ele>389.33333333333337</ele><time>2026-04-10T15:50:52Z</time></trkpt><trkpt lat="39.47910864227159" lon="8.491091971396225"><ele>390.66666666666663</ele><time>2026-04-10T15:50:53Z</time></trkpt><trkpt lat="39.479287513594436" lon="8.491151079913267"><ele>392.0</ele><time>2026-04-10T15:50:54Z</time></trkpt><trkpt lat="39.47945109594857" lon="8.491210837992135"><ele>393.0</ele><time>2026-04-10T15:50:55Z</time></trkpt><trkpt lat="39.479598654631125" lon="8.491268658462243"><ele>394.0</ele><time>2026-04-10T15:50:56Z</time></trkpt><trkpt lat="39.479721514715514" lon="8.491329921911403"><ele>395.0</ele><time>2026-04-10T15:50:57Z</time></trkpt><trkpt lat="39.47982019121823" lon="8.491412002175082"><ele>396.0</ele><time>2026-04-10T15:50:58Z</time></trkpt><trkpt lat="39.47987305941251" lon="8.491540342379917"><ele>396.0</ele><time>2026-04-10T15:50:59Z</time></trkpt><trkpt lat="39.47993632188761" lon="8.491694780660257"><ele>396.0</ele><time>2026-04-10T15:51:00Z</time></trkpt><trkpt lat="39.48000647297145" lon="8.491870779093617"><ele>396.0</ele><time>2026-04-10T15:51:01Z</time></trkpt><trkpt lat="39.48006263027705" lon="8.49205325366525"><ele>396.0</ele><time>2026-04-10T15:51:02Z</time></trkpt><trkpt lat="39.480124365921164" lon="8.492221035886928"><ele>395.5</ele><time>2026-04-10T15:51:03Z</time></trkpt><trkpt lat="39.48018384304923" lon="8.49236711555337"><ele>395.0</ele><time>2026-04-10T15:51:04Z</time></trkpt><trkpt lat="39.480247177525" lon="8.492494307178635"><ele>394.5</ele><time>2026-04-10T15:51:05Z</time></trkpt><trkpt lat="39.48033830852359" lon="8.492608704117709"><ele>394.0</ele><time>2026-04-10T15:51:06Z</time></trkpt><trkpt lat="39.48045536144348" lon="8.492718549821271"><ele>393.6666666666667</ele><time>2026-04-10T15:51:07Z</time></trkpt><trkpt lat="39.480602187797025" lon="8.492810740556331"><ele>393.33333333333337</ele><time>2026-04-10T15:51:08Z</time></trkpt><trkpt lat="39.48076002178504" lon="8.492887371062986"><ele>393.0</ele><time>2026-04-10T15:51:09Z</time></trkpt><trkpt lat="39.480907102672276" lon="8.492945528894554"><ele>393.0</ele><time>2026-04-10T15:51:10Z</time></trkpt><trkpt lat="39.48102653152451" lon="8.493046952934504"><ele>393.0</ele><time>2026-04-10T15:51:11Z</time></trkpt><trkpt lat="39.4811453813816" lon="8.493135981894783"><ele>393.0</ele><time>2026-04-10T15:51:12Z</time></trkpt><trkpt lat="39.48124694123544" lon="8.493232116183258"><ele>393.0</ele><time>2026-04-10T15:51:13Z</time></trkpt><trkpt lat="39.48136163452147" lon="8.493278520007996"><ele>393.0</ele><time>2026-04-10T15:51:14Z</time></trkpt><trkpt lat="39.48148240544588" lon="8.493271207927"><ele>393.0</ele><time>2026-04-10T15:51:15Z</time></trkpt><trkpt lat="39.481594935890996" lon="8.493254314630104"><ele>393.0</ele><time>2026-04-10T15:51:16Z</time></trkpt><trkpt lat="39.48170571376832" lon="8.49325970004722"><ele>393.0</ele><time>2026-04-10T15:51:17Z</time></trkpt><trkpt lat="39.481805375946955" lon="8.493328513988956"><ele>393.0</ele><time>2026-04-10T15:51:18Z</time></trkpt><trkpt lat="39.48190125286261" lon="8.493433113819119"><ele>393.0</ele><time>2026-04-10T15:51:19Z</time></trkpt><trkpt lat="39.48202201146609" lon="8.493505308341733"><ele>393.0</ele><time>2026-04-10T15:51:20Z</time></trkpt><trkpt lat="39.482140021852864" lon="8.49358113938977"><ele>393.0</ele><time>2026-04-10T15:51:21Z</time></trkpt><trkpt lat="39.482256206600695" lon="8.49364139699727"><ele>391.5</ele><time>2026-04-10T15:51:22Z</time></trkpt><trkpt lat="39.48236302159584" lon="8.493700894284064"><ele>390.0</ele><time>2026-04-10T15:51:23Z</time></trkpt><trkpt lat="39.482466147610026" lon="8.493765006840373"><ele>388.5</ele><time>2026-04-10T15:51:24Z</time></trkpt><trkpt lat="39.48257262940745" lon="8.493832983178525"><ele>387.0</ele><time>2026-04-10T15:51:25Z</time></trkpt><trkpt lat="39.48268068218674" lon="8.493910589695519"><ele>387.0</ele><time>2026-04-10T15:51:26Z</time></trkpt><trkpt lat="39.482781006525876" lon="8.494003685195258"><ele>387.0</ele><time>2026-04-10T15:51:27Z</time></trkpt><trkpt lat="39.482847823665594" lon="8.494112083323712"><ele>387.0</ele><time>2026-04-10T15:51:28Z</time></trkpt><trkpt lat="39.482873855030476" lon="8.494225988300837"><ele>387.0</ele><time>2026-04-10T15:51:29Z</time></trkpt><trkpt lat="39.48285999694459" lon="8.494352534534674"><ele>387.0</ele><time>2026-04-10T15:51:30Z</time></trkpt><trkpt lat="39.482812033266804" lon="8.494517261000265"><ele>384.3333333333333</ele><time>2026-04-10T15:51:31Z</time></trkpt><trkpt lat="39.482759576633754" lon="8.494710642059808"><ele>381.66666666666663</ele><time>2026-04-10T15:51:32Z</time></trkpt><trkpt lat="39.48271392168822" lon="8.494906575663782"><ele>379.0</ele><time>2026-04-10T15:51:33Z</time></trkpt><trkpt lat="39.482672468809824" lon="8.49508903913907"><ele>379.0</ele><time>2026-04-10T15:51:34Z</time></trkpt><trkpt lat="39.48262750970712" lon="8.495259421332891"><ele>379.0</ele><time>2026-04-10T15:51:35Z</time></trkpt><trkpt lat="39.482580714779715" lon="8.495407574563174"><ele>379.0</ele><time>2026-04-10T15:51:36Z</time></trkpt><trkpt lat="39.48252001524079" lon="8.495518703718846"><ele>379.0</ele><time>2026-04-10T15:51:37Z</time></trkpt><trkpt lat="39.4824799583505" lon="8.495630470218481"><ele>376.4</ele><time>2026-04-10T15:51:38Z</time></trkpt><trkpt lat="39.48246003881318" lon="8.495747017225007"><ele>373.79999999999995</ele><time>2026-04-10T15:51:39Z</time></trkpt><trkpt lat="39.48249545100192" lon="8.495863894616264"><ele>371.20000000000005</ele><time>2026-04-10T15:51:40Z</time></trkpt><trkpt lat="39.482559839870724" lon="8.495940953684675"><ele>368.6</ele><time>2026-04-10T15:51:41Z</time></trkpt><trkpt lat="39.48264570129115" lon="8.49598002497147"><ele>366.0</ele><time>2026-04-10T15:51:42Z</time></trkpt><trkpt lat="39.48277616542711" lon="8.495979346893936"><ele>366.0</ele><time>2026-04-10T15:51:43Z</time></trkpt><trkpt lat="39.48291093247115" lon="8.49598227106843"><ele>366.0</ele><time>2026-04-10T15:51:44Z</time></trkpt><trkpt lat="39.48303659803695" lon="8.496015992938624"><ele>366.0</ele><time>2026-04-10T15:51:45Z</time></trkpt><trkpt lat="39.48314570595761" lon="8.496084109451338"><ele>366.0</ele><time>2026-04-10T15:51:46Z</time></trkpt><trkpt lat="39.48324817659759" lon="8.49619396857011"><ele>364.3333333333333</ele><time>2026-04-10T15:51:47Z</time></trkpt><trkpt lat="39.48335371732903" lon="8.496340968967893"><ele>362.66666666666663</ele><time>2026-04-10T15:51:48Z</time></trkpt><trkpt lat="39.48345513651861" lon="8.496489534462189"><ele>361.0</ele><time>2026-04-10T15:51:49Z</time></trkpt><trkpt lat="39.48356595161542" lon="8.49662412494777"><ele>361.0</ele><time>2026-04-10T15:51:50Z</time></trkpt><trkpt lat="39.48369308808744" lon="8.496726038898018"><ele>361.0</ele><time>2026-04-10T15:51:51Z</time></trkpt><trkpt lat="39.48385209394384" lon="8.496798521358299"><ele>361.0</ele><time>2026-04-10T15:51:52Z</time></trkpt><trkpt lat="39.48403936095948" lon="8.49683832625892"><ele>362.66666666666663</ele><time>2026-04-10T15:51:53Z</time></trkpt><trkpt lat="39.484226448094404" lon="8.496876258859967"><ele>364.3333333333333</ele><time>2026-04-10T15:51:54Z</time></trkpt><trkpt lat="39.48440117239648" lon="8.496926056281774"><ele>366.0</ele><time>2026-04-10T15:51:55Z</time></trkpt><trkpt lat="39.48456521839851" lon="8.496977611821373"><ele>366.6666666666667</ele><time>2026-04-10T15:51:56Z</time></trkpt><trkpt lat="39.48472043704617" lon="8.497031072820855"><ele>367.33333333333337</ele><time>2026-04-10T15:51:57Z</time></trkpt><trkpt lat="39.48487350727423" lon="8.497080388181518"><ele>368.0</ele><time>2026-04-10T15:51:58Z</time></trkpt><trkpt lat="39.48501507934279" lon="8.497110979088985"><ele>371.25</ele><time>2026-04-10T15:51:59Z</time></trkpt><trkpt lat="39.4851575509588" lon="8.497126023695344"><ele>374.5</ele><time>2026-04-10T15:52:00Z</time></trkpt><trkpt lat="39.48529282436926" lon="8.49713399525184"><ele>377.75</ele><time>2026-04-10T15:52:01Z</time></trkpt><trkpt lat="39.48541089583731" lon="8.497145514780813"><ele>381.0</ele><time>2026-04-10T15:52:02Z</time></trkpt><trkpt lat="39.485496793550055" lon="8.49718166896216"><ele>381.0</ele><time>2026-04-10T15:52:03Z</time></trkpt><trkpt lat="39.485526492906715" lon="8.497277709041759"><ele>381.0</ele><time>2026-04-10T15:52:04Z</time></trkpt><trkpt lat="39.48556330836856" lon="8.497418430007269"><ele>381.0</ele><time>2026-04-10T15:52:06Z</time></trkpt><trkpt lat="39.48543172696836" lon="8.49756990588825"><ele>381.0</ele><time>2026-04-10T15:52:07Z</time></trkpt><trkpt lat="39.48539621427703" lon="8.49771144148521"><ele>381.0</ele><time>2026-04-10T15:52:08Z</time></trkpt><trkpt lat="39.48535717844798" lon="8.497834039305012"><ele>381.0</ele><time>2026-04-10T15:52:09Z</time></trkpt><trkpt lat="39.48533962145474" lon="8.497947372240684"><ele>381.0</ele><time>2026-04-10T15:52:10Z</time></trkpt><trkpt lat="39.485349667722204" lon="8.498060563763987"><ele>381.0</ele><time>2026-04-10T15:52:11Z</time></trkpt><trkpt lat="39.48541092638711" lon="8.498153740324868"><ele>381.0</ele><time>2026-04-10T15:52:12Z</time></trkpt><trkpt lat="39.48550716246799" lon="8.498223042311784"><ele>384.25</ele><time>2026-04-10T15:52:13Z</time></trkpt><trkpt lat="39.485647763088394" lon="8.49826755226204"><ele>387.5</ele><time>2026-04-10T15:52:14Z</time></trkpt><trkpt lat="39.485785614672885" lon="8.49830276766734"><ele>390.75</ele><time>2026-04-10T15:52:15Z</time></trkpt><trkpt lat="39.48592173477924" lon="8.498345613124501"><ele>394.0</ele><time>2026-04-10T15:52:16Z</time></trkpt><trkpt lat="39.486060755253774" lon="8.498394003207082"><ele>394.0</ele><time>2026-04-10T15:52:17Z</time></trkpt><trkpt lat="39.48620223627412" lon="8.49843736953216"><ele>394.0</ele><time>2026-04-10T15:52:18Z</time></trkpt><trkpt lat="39.48634761426715" lon="8.498472273670844"><ele>394.0</ele><time>2026-04-10T15:52:19Z</time></trkpt><trkpt lat="39.486493556425124" lon="8.498501420991948"><ele>394.0</ele><time>2026-04-10T15:52:20Z</time></trkpt><trkpt lat="39.48662652850211" lon="8.498522723913366"><ele>393.5</ele><time>2026-04-10T15:52:21Z</time></trkpt><trkpt lat="39.48675428403323" lon="8.498536179207404"><ele>393.0</ele><time>2026-04-10T15:52:22Z</time></trkpt><trkpt lat="39.486874863606666" lon="8.498557989420641"><ele>392.5</ele><time>2026-04-10T15:52:23Z</time></trkpt><trkpt lat="39.486986705567304" lon="8.498597749095318"><ele>392.0</ele><time>2026-04-10T15:52:24Z</time></trkpt><trkpt lat="39.487085293905515" lon="8.498633667723515"><ele>395.0</ele><time>2026-04-10T15:52:25Z</time></trkpt><trkpt lat="39.48717632241389" lon="8.498636465281278"><ele>398.0</ele><time>2026-04-10T15:52:26Z</time></trkpt><trkpt lat="39.48728070809137" lon="8.498578552739962"><ele>401.0</ele><time>2026-04-10T15:52:27Z</time></trkpt><trkpt lat="39.48739127686514" lon="8.49847258641245"><ele>404.0</ele><time>2026-04-10T15:52:28Z</time></trkpt><trkpt lat="39.48751324775754" lon="8.498355020359492"><ele>404.0</ele><time>2026-04-10T15:52:29Z</time></trkpt><trkpt lat="39.487656842491795" lon="8.498259326915132"><ele>404.0</ele><time>2026-04-10T15:52:30Z</time></trkpt><trkpt lat="39.4878213850908" lon="8.498210882731312"><ele>404.0</ele><time>2026-04-10T15:52:31Z</time></trkpt><trkpt lat="39.48797701000845" lon="8.498131528829628"><ele>406.5</ele><time>2026-04-10T15:52:32Z</time></trkpt><trkpt lat="39.48812981435868" lon="8.498085552285316"><ele>409.0</ele><time>2026-04-10T15:52:33Z</time></trkpt><trkpt lat="39.48826759291759" lon="8.498049999877276"><ele>411.5</ele><time>2026-04-10T15:52:34Z</time></trkpt><trkpt lat="39.48839105322958" lon="8.498022199159907"><ele>414.0</ele><time>2026-04-10T15:52:35Z</time></trkpt><trkpt lat="39.48850372604388" lon="8.498008895414321"><ele>414.0</ele><time>2026-04-10T15:52:36Z</time></trkpt><trkpt lat="39.48860662294201" lon="8.49802166196009"><ele>414.0</ele><time>2026-04-10T15:52:37Z</time></trkpt><trkpt lat="39.48868538112217" lon="8.498100627853363"><ele>414.0</ele><time>2026-04-10T15:52:38Z</time></trkpt><trkpt lat="39.48875122899078" lon="8.49819657899835"><ele>414.0</ele><time>2026-04-10T15:52:39Z</time></trkpt><trkpt lat="39.488812051979444" lon="8.49833377209498"><ele>414.0</ele><time>2026-04-10T15:52:40Z</time></trkpt><trkpt lat="39.4888882604924" lon="8.498474159874272"><ele>412.4</ele><time>2026-04-10T15:52:41Z</time></trkpt><trkpt lat="39.488941015067184" lon="8.498619454210123"><ele>410.79999999999995</ele><time>2026-04-10T15:52:42Z</time></trkpt><trkpt lat="39.48899650926387" lon="8.498732871594513"><ele>409.20000000000005</ele><time>2026-04-10T15:52:43Z</time></trkpt><trkpt lat="39.4890621108899" lon="8.498811076740019"><ele>407.6</ele><time>2026-04-10T15:52:44Z</time></trkpt><trkpt lat="39.48914598296732" lon="8.49887110495044"><ele>406.0</ele><time>2026-04-10T15:52:45Z</time></trkpt><trkpt lat="39.489255234056245" lon="8.498899370892275"><ele>406.25</ele><time>2026-04-10T15:52:46Z</time></trkpt><trkpt lat="39.48936383140328" lon="8.498934097300593"><ele>406.5</ele><time>2026-04-10T15:52:47Z</time></trkpt><trkpt lat="39.48946694127586" lon="8.498998623767031"><ele>406.75</ele><time>2026-04-10T15:52:48Z</time></trkpt><trkpt lat="39.48956961041909" lon="8.499088350017564"><ele>407.0</ele><time>2026-04-10T15:52:49Z</time></trkpt><trkpt lat="39.48966801459803" lon="8.499190375206613"><ele>407.0</ele><time>2026-04-10T15:52:50Z</time></trkpt><trkpt lat="39.489756292269554" lon="8.499307917601602"><ele>407.0</ele><time>2026-04-10T15:52:51Z</time></trkpt><trkpt lat="39.48984102803733" lon="8.499436687174056"><ele>407.0</ele><time>2026-04-10T15:52:52Z</time></trkpt><trkpt lat="39.489912117602394" lon="8.499581691404732"><ele>407.0</ele><time>2026-04-10T15:52:53Z</time></trkpt><trkpt lat="39.48998122881855" lon="8.499722553075014"><ele>410.20000000000005</ele><time>2026-04-10T15:52:54Z</time></trkpt><trkpt lat="39.490042074687764" lon="8.499862964490225"><ele>413.4</ele><time>2026-04-10T15:52:55Z</time></trkpt><trkpt lat="39.49008519109937" lon="8.499988268325657"><ele>416.6</ele><time>2026-04-10T15:52:56Z</time></trkpt><trkpt lat="39.49012279562312" lon="8.50009736583463"><ele>419.79999999999995</ele><time>2026-04-10T15:52:57Z</time></trkpt><trkpt lat="39.490118462197266" lon="8.5002152433716"><ele>423.0</ele><time>2026-04-10T15:52:58Z</time></trkpt><trkpt lat="39.4900804731113" lon="8.500349551237953"><ele>423.5</ele><time>2026-04-10T15:52:59Z</time></trkpt><trkpt lat="39.48996898839526" lon="8.5004768858698"><ele>424.0</ele><time>2026-04-10T15:53:00Z</time></trkpt><trkpt lat="39.48988014506308" lon="8.500598548746213"><ele>424.5</ele><time>2026-04-10T15:53:01Z</time></trkpt><trkpt lat="39.48979507348064" lon="8.500688213804901"><ele>425.0</ele><time>2026-04-10T15:53:02Z</time></trkpt><trkpt lat="39.489701041056115" lon="8.500780068562294"><ele>425.0</ele><time>2026-04-10T15:53:03Z</time></trkpt><trkpt lat="39.48959420243812" lon="8.500867577174498"><ele>425.0</ele><time>2026-04-10T15:53:04Z</time></trkpt><trkpt lat="39.489495391035284" lon="8.500987667618599"><ele>425.0</ele><time>2026-04-10T15:53:05Z</time></trkpt><trkpt lat="39.48939479079449" lon="8.50110285845122"><ele>425.0</ele><time>2026-04-10T15:53:06Z</time></trkpt><trkpt lat="39.48931170235455" lon="8.501231133685764"><ele>427.8</ele><time>2026-04-10T15:53:07Z</time></trkpt><trkpt lat="39.48924126520164" lon="8.50135977082041"><ele>430.6</ele><time>2026-04-10T15:53:08Z</time></trkpt><trkpt lat="39.48918223366938" lon="8.50147300734894"><ele>433.4</ele><time>2026-04-10T15:53:09Z</time></trkpt><trkpt lat="39.48913291321633" lon="8.501570935318576"><ele>436.2</ele><time>2026-04-10T15:53:10Z</time></trkpt><trkpt lat="39.48908929068149" lon="8.501663173546117"><ele>439.0</ele><time>2026-04-10T15:53:11Z</time></trkpt><trkpt lat="39.489045978110404" lon="8.501754837219787"><ele>439.0</ele><time>2026-04-10T15:53:12Z</time></trkpt><trkpt lat="39.48899891035219" lon="8.501856711707656"><ele>439.0</ele><time>2026-04-10T15:53:13Z</time></trkpt><trkpt lat="39.488950374883004" lon="8.501975120859033"><ele>439.0</ele><time>2026-04-10T15:53:14Z</time></trkpt><trkpt lat="39.4888929205707" lon="8.502117488400994"><ele>439.0</ele><time>2026-04-10T15:53:15Z</time></trkpt><trkpt lat="39.48882729028874" lon="8.502275513191066"><ele>436.5</ele><time>2026-04-10T15:53:16Z</time></trkpt><trkpt lat="39.488758254433414" lon="8.502429781223052"><ele>434.0</ele><time>2026-04-10T15:53:17Z</time></trkpt><trkpt lat="39.4887006027072" lon="8.5025802456453"><ele>431.5</ele><time>2026-04-10T15:53:18Z</time></trkpt><trkpt lat="39.48863519832338" lon="8.502719940738498"><ele>429.0</ele><time>2026-04-10T15:53:19Z</time></trkpt><trkpt lat="39.4885859079373" lon="8.502860969595535"><ele>428.5</ele><time>2026-04-10T15:53:20Z</time></trkpt><trkpt lat="39.4885362602052" lon="8.50299929069897"><ele>428.0</ele><time>2026-04-10T15:53:21Z</time></trkpt><trkpt lat="39.48849067159377" lon="8.503133821045056"><ele>427.5</ele><time>2026-04-10T15:53:22Z</time></trkpt><trkpt lat="39.48843675937932" lon="8.50327012602456"><ele>427.0</ele><time>2026-04-10T15:53:23Z</time></trkpt><trkpt lat="39.48837934369316" lon="8.503421072331482"><ele>427.0</ele><time>2026-04-10T15:53:24Z</time></trkpt><trkpt lat="39.48830840731553" lon="8.50356171672164"><ele>427.0</ele><time>2026-04-10T15:53:25Z</time></trkpt><trkpt lat="39.48820588550202" lon="8.50364756303577"><ele>427.0</ele><time>2026-04-10T15:53:26Z</time></trkpt><trkpt lat="39.488100503993586" lon="8.503760380514798"><ele>427.0</ele><time>2026-04-10T15:53:27Z</time></trkpt><trkpt lat="39.48795687962592" lon="8.503803806139864"><ele>427.0</ele><time>2026-04-10T15:53:28Z</time></trkpt><trkpt lat="39.48781353292707" lon="8.503865387248414"><ele>427.0</ele><time>2026-04-10T15:53:29Z</time></trkpt><trkpt lat="39.487667221136476" lon="8.503905342327233"><ele>427.0</ele><time>2026-04-10T15:53:30Z</time></trkpt><trkpt lat="39.487528460229306" lon="8.503907496250763"><ele>427.0</ele><time>2026-04-10T15:53:31Z</time></trkpt><trkpt lat="39.48739484413344" lon="8.503907131656852"><ele>427.0</ele><time>2026-04-10T15:53:32Z</time></trkpt><trkpt lat="39.4872807890459" lon="8.503808008041647"><ele>427.0</ele><time>2026-04-10T15:53:33Z</time></trkpt><trkpt lat="39.48714339718917" lon="8.503758236536495"><ele>427.0</ele><time>2026-04-10T15:53:34Z</time></trkpt><trkpt lat="39.48700706508261" lon="8.503672337468826"><ele>427.0</ele><time>2026-04-10T15:53:35Z</time></trkpt><trkpt lat="39.48687020249321" lon="8.50359515634824"><ele>422.25</ele><time>2026-04-10T15:53:36Z</time></trkpt><trkpt lat="39.486738029060014" lon="8.503526194270856"><ele>417.5</ele><time>2026-04-10T15:53:37Z</time></trkpt><trkpt lat="39.486612909988146" lon="8.503461008263507"><ele>412.75</ele><time>2026-04-10T15:53:38Z</time></trkpt><trkpt lat="39.48649730633671" lon="8.503397707356797"><ele>408.0</ele><time>2026-04-10T15:53:39Z</time></trkpt><trkpt lat="39.486385029005355" lon="8.503344917240845"><ele>408.0</ele><time>2026-04-10T15:53:40Z</time></trkpt><trkpt lat="39.48627010902578" lon="8.50331328451635"><ele>408.0</ele><time>2026-04-10T15:53:41Z</time></trkpt><trkpt lat="39.48615537258182" lon="8.503318728919226"><ele>408.0</ele><time>2026-04-10T15:53:42Z</time></trkpt><trkpt lat="39.486043603816015" lon="8.503361372823178"><ele>408.0</ele><time>2026-04-10T15:53:43Z</time></trkpt><trkpt lat="39.48594352443716" lon="8.50343040356938"><ele>406.4</ele><time>2026-04-10T15:53:44Z</time></trkpt><trkpt lat="39.48587183572762" lon="8.503533370335303"><ele>404.79999999999995</ele><time>2026-04-10T15:53:45Z</time></trkpt><trkpt lat="39.485837233150704" lon="8.503665090515819"><ele>403.2</ele><time>2026-04-10T15:53:46Z</time></trkpt><trkpt lat="39.485823537252394" lon="8.503804163660346"><ele>401.6</ele><time>2026-04-10T15:53:47Z</time></trkpt><trkpt lat="39.485785808515445" lon="8.503931777611587"><ele>400.0</ele><time>2026-04-10T15:53:48Z</time></trkpt><trkpt lat="39.48575091132467" lon="8.504045400412156"><ele>400.0</ele><time>2026-04-10T15:53:49Z</time></trkpt><trkpt lat="39.485693300855985" lon="8.504144858307654"><ele>400.0</ele><time>2026-04-10T15:53:50Z</time></trkpt><trkpt lat="39.48560650992495" lon="8.504223681990723"><ele>400.0</ele><time>2026-04-10T15:53:51Z</time></trkpt><trkpt lat="39.48550092558297" lon="8.504298008198932"><ele>400.0</ele><time>2026-04-10T15:53:52Z</time></trkpt><trkpt lat="39.48538274116133" lon="8.504366507823235"><ele>398.0</ele><time>2026-04-10T15:53:53Z</time></trkpt><trkpt lat="39.48528063844835" lon="8.504429965759144"><ele>396.0</ele><time>2026-04-10T15:53:54Z</time></trkpt><trkpt lat="39.485194599835175" lon="8.504511146992945"><ele>394.0</ele><time>2026-04-10T15:53:55Z</time></trkpt><trkpt lat="39.48510234433795" lon="8.504568590958788"><ele>392.0</ele><time>2026-04-10T15:53:56Z</time></trkpt><trkpt lat="39.485011968487115" lon="8.504623441795584"><ele>390.0</ele><time>2026-04-10T15:53:57Z</time></trkpt><trkpt lat="39.484925342621466" lon="8.504679896970575"><ele>390.0</ele><time>2026-04-10T15:53:58Z</time></trkpt><trkpt lat="39.48484410544924" lon="8.504733525989579"><ele>390.0</ele><time>2026-04-10T15:53:59Z</time></trkpt><trkpt lat="39.484778717313034" lon="8.504804162253844"><ele>390.0</ele><time>2026-04-10T15:54:00Z</time></trkpt><trkpt lat="39.48469770533275" lon="8.50482948632319"><ele>390.0</ele><time>2026-04-10T15:54:01Z</time></trkpt><trkpt lat="39.48462243337174" lon="8.504913161013356"><ele>390.0</ele><time>2026-04-10T15:54:03Z</time></trkpt><trkpt lat="39.484613729475775" lon="8.504998349213224"><ele>390.0</ele><time>2026-04-10T15:58:14Z</time></trkpt><trkpt lat="39.484644135242334" lon="8.505143835141894"><ele>390.0</ele><time>2026-04-10T15:58:17Z</time></trkpt><trkpt lat="39.484672093961514" lon="8.505226508104954"><ele>390.0</ele><time>2026-04-10T15:58:18Z</time></trkpt><trkpt lat="39.48464527380142" lon="8.50533990936701"><ele>390.0</ele><time>2026-04-10T15:58:19Z</time></trkpt><trkpt lat="39.484600207442746" lon="8.505437339974135"><ele>390.0</ele><time>2026-04-10T15:58:20Z</time></trkpt><trkpt lat="39.48454930899041" lon="8.50557366066945"><ele>390.0</ele><time>2026-04-10T15:58:21Z</time></trkpt><trkpt lat="39.484496050363155" lon="8.50574501874348"><ele>389.33333333333337</ele><time>2026-04-10T15:58:22Z</time></trkpt><trkpt lat="39.48446740177885" lon="8.50592763847847"><ele>388.6666666666667</ele><time>2026-04-10T15:58:23Z</time></trkpt><trkpt lat="39.484470809208" lon="8.506150384005837"><ele>388.0</ele><time>2026-04-10T15:58:24Z</time></trkpt><trkpt lat="39.484492887470346" lon="8.506392529916516"><ele>388.0</ele><time>2026-04-10T15:58:25Z</time></trkpt><trkpt lat="39.484479828854525" lon="8.506633624640964"><ele>388.0</ele><time>2026-04-10T15:58:26Z</time></trkpt><trkpt lat="39.484462202619646" lon="8.506887084725314"><ele>388.0</ele><time>2026-04-10T15:58:27Z</time></trkpt><trkpt lat="39.48444317110635" lon="8.507161716096913"><ele>390.33333333333337</ele><time>2026-04-10T15:58:28Z</time></trkpt><trkpt lat="39.48442388376281" lon="8.507440039149808"><ele>392.66666666666663</ele><time>2026-04-10T15:58:29Z</time></trkpt><trkpt lat="39.48440576571978" lon="8.50770313064949"><ele>395.0</ele><time>2026-04-10T15:58:30Z</time></trkpt><trkpt lat="39.48438800802616" lon="8.507962452855287"><ele>396.3333333333333</ele><time>2026-04-10T15:58:31Z</time></trkpt><trkpt lat="39.48436952327127" lon="8.508209861374285"><ele>397.66666666666663</ele><time>2026-04-10T15:58:32Z</time></trkpt><trkpt lat="39.48435253507934" lon="8.508447513693426"><ele>399.0</ele><time>2026-04-10T15:58:33Z</time></trkpt><trkpt lat="39.48433636239356" lon="8.508673757887783"><ele>401.25</ele><time>2026-04-10T15:58:34Z</time></trkpt><trkpt lat="39.4843200856424" lon="8.508876502488492"><ele>403.5</ele><time>2026-04-10T15:58:35Z</time></trkpt><trkpt lat="39.4842877967878" lon="8.509046690329916"><ele>405.75</ele><time>2026-04-10T15:58:36Z</time></trkpt><trkpt lat="39.484226548436006" lon="8.509185358261632"><ele>408.0</ele><time>2026-04-10T15:58:37Z</time></trkpt><trkpt lat="39.48412695845562" lon="8.509325825453022"><ele>408.0</ele><time>2026-04-10T15:58:38Z</time></trkpt><trkpt lat="39.48402461165354" lon="8.509490529638448"><ele>408.0</ele><time>2026-04-10T15:58:39Z</time></trkpt><trkpt lat="39.48394697405562" lon="8.509681844933851"><ele>408.0</ele><time>2026-04-10T15:58:40Z</time></trkpt><trkpt lat="39.48390313178236" lon="8.509910451330182"><ele>412.33333333333337</ele><time>2026-04-10T15:58:41Z</time></trkpt><trkpt lat="39.48388106456138" lon="8.510147533067807"><ele>416.6666666666667</ele><time>2026-04-10T15:58:42Z</time></trkpt><trkpt lat="39.483875838152294" lon="8.510378902152112"><ele>421.0</ele><time>2026-04-10T15:58:43Z</time></trkpt><trkpt lat="39.48390867539593" lon="8.510609503067114"><ele>422.0</ele><time>2026-04-10T15:58:44Z</time></trkpt><trkpt lat="39.48398268119942" lon="8.510827951694775"><ele>423.0</ele><time>2026-04-10T15:58:45Z</time></trkpt><trkpt lat="39.48410520150398" lon="8.511013257756035"><ele>424.0</ele><time>2026-04-10T15:58:46Z</time></trkpt><trkpt lat="39.48423845949345" lon="8.511185505922718"><ele>420.33333333333337</ele><time>2026-04-10T15:58:47Z</time></trkpt><trkpt lat="39.48438491822529" lon="8.511364086767896"><ele>416.66666666666663</ele><time>2026-04-10T15:58:48Z</time></trkpt><trkpt lat="39.48455095749855" lon="8.511535997558841"><ele>413.0</ele><time>2026-04-10T15:58:49Z</time></trkpt><trkpt lat="39.48472573422728" lon="8.511689117472919"><ele>416.66666666666663</ele><time>2026-04-10T15:58:50Z</time></trkpt><trkpt lat="39.48487610178638" lon="8.5118478465628"><ele>420.33333333333337</ele><time>2026-04-10T15:58:51Z</time></trkpt><trkpt lat="39.4850227220965" lon="8.512012030604389"><ele>424.0</ele><time>2026-04-10T15:58:52Z</time></trkpt><trkpt lat="39.485159547768234" lon="8.512175642811094"><ele>424.0</ele><time>2026-04-10T15:58:53Z</time></trkpt><trkpt lat="39.48528393615196" lon="8.512338462549375"><ele>424.0</ele><time>2026-04-10T15:58:54Z</time></trkpt><trkpt lat="39.48537968472433" lon="8.512510744689905"><ele>424.0</ele><time>2026-04-10T15:58:55Z</time></trkpt><trkpt lat="39.485485170019395" lon="8.51264669871397"><ele>427.79999999999995</ele><time>2026-04-10T15:58:56Z</time></trkpt><trkpt lat="39.485608832866234" lon="8.51271356636124"><ele>431.59999999999997</ele><time>2026-04-10T15:58:57Z</time></trkpt><trkpt lat="39.485716043433676" lon="8.512781340567873"><ele>435.4</ele><time>2026-04-10T15:58:58Z</time></trkpt><trkpt lat="39.4857755117321" lon="8.512893571535802"><ele>439.2</ele><time>2026-04-10T15:58:59Z</time></trkpt><trkpt lat="39.48579559168221" lon="8.5130081966668"><ele>443.0</ele><time>2026-04-10T15:59:00Z</time></trkpt><trkpt lat="39.485790119310806" lon="8.513145133587571"><ele>443.0</ele><time>2026-04-10T15:59:01Z</time></trkpt><trkpt lat="39.48574820811397" lon="8.513310654057905"><ele>443.0</ele><time>2026-04-10T15:59:02Z</time></trkpt><trkpt lat="39.485702752871504" lon="8.513476646833128"><ele>443.0</ele><time>2026-04-10T15:59:03Z</time></trkpt><trkpt lat="39.485673780332924" lon="8.513620167652087"><ele>443.0</ele><time>2026-04-10T15:59:04Z</time></trkpt><trkpt lat="39.48564024146979" lon="8.513751792530552"><ele>444.0</ele><time>2026-04-10T15:59:05Z</time></trkpt><trkpt lat="39.48565266936802" lon="8.513907578542415"><ele>445.0</ele><time>2026-04-10T15:59:06Z</time></trkpt><trkpt lat="39.48572611501755" lon="8.514072367483353"><ele>446.0</ele><time>2026-04-10T15:59:07Z</time></trkpt><trkpt lat="39.485763741021636" lon="8.514269986106527"><ele>447.0</ele><time>2026-04-10T15:59:08Z</time></trkpt><trkpt lat="39.485774074882876" lon="8.514472649141258"><ele>448.0</ele><time>2026-04-10T15:59:09Z</time></trkpt><trkpt lat="39.485790533934846" lon="8.514688817423524"><ele>449.0</ele><time>2026-04-10T15:59:10Z</time></trkpt><trkpt lat="39.48584463182443" lon="8.51490857864088"><ele>450.0</ele><time>2026-04-10T15:59:11Z</time></trkpt><trkpt lat="39.485909107448066" lon="8.515126962337632"><ele>450.0</ele><time>2026-04-10T15:59:12Z</time></trkpt><trkpt lat="39.48597517150986" lon="8.515349056973266"><ele>450.0</ele><time>2026-04-10T15:59:13Z</time></trkpt><trkpt lat="39.48603873334633" lon="8.515562739467814"><ele>450.0</ele><time>2026-04-10T15:59:14Z</time></trkpt><trkpt lat="39.4861145729637" lon="8.51575951981767"><ele>450.75</ele><time>2026-04-10T15:59:15Z</time></trkpt><trkpt lat="39.48617164816673" lon="8.515948553783074"><ele>451.5</ele><time>2026-04-10T15:59:16Z</time></trkpt><trkpt lat="39.48623058053473" lon="8.516125868778168"><ele>452.25</ele><time>2026-04-10T15:59:17Z</time></trkpt><trkpt lat="39.48629080219953" lon="8.516286458953156"><ele>453.0</ele><time>2026-04-10T15:59:18Z</time></trkpt><trkpt lat="39.48634816633579" lon="8.516424990087547"><ele>455.0</ele><time>2026-04-10T15:59:19Z</time></trkpt><trkpt lat="39.48639089139707" lon="8.516554173758376"><ele>456.99999999999994</ele><time>2026-04-10T15:59:20Z</time></trkpt><trkpt lat="39.486441768064196" lon="8.516664298541901"><ele>458.99999999999994</ele><time>2026-04-10T15:59:21Z</time></trkpt><trkpt lat="39.48650164133956" lon="8.516769920796179"><ele>461.0</ele><time>2026-04-10T15:59:22Z</time></trkpt><trkpt lat="39.4865850821192" lon="8.516863337161624"><ele>463.0</ele><time>2026-04-10T15:59:23Z</time></trkpt><trkpt lat="39.486674171752746" lon="8.516972107568183"><ele>463.0</ele><time>2026-04-10T15:59:24Z</time></trkpt><trkpt lat="39.48678740548065" lon="8.51707065799112"><ele>463.0</ele><time>2026-04-10T15:59:25Z</time></trkpt><trkpt lat="39.48692033993896" lon="8.51717403158314"><ele>463.0</ele><time>2026-04-10T15:59:26Z</time></trkpt><trkpt lat="39.487066422917515" lon="8.517282935952945"><ele>462.33333333333337</ele><time>2026-04-10T15:59:27Z</time></trkpt><trkpt lat="39.4872134459363" lon="8.517400437584332"><ele>461.66666666666663</ele><time>2026-04-10T15:59:28Z</time></trkpt><trkpt lat="39.48735633754634" lon="8.517513541280701"><ele>461.0</ele><time>2026-04-10T15:59:29Z</time></trkpt><trkpt lat="39.48749177231643" lon="8.517617409931008"><ele>461.0</ele><time>2026-04-10T15:59:30Z</time></trkpt><trkpt lat="39.4876237913328" lon="8.517716455162512"><ele>461.0</ele><time>2026-04-10T15:59:31Z</time></trkpt><trkpt lat="39.487753650698664" lon="8.517803741736483"><ele>461.0</ele><time>2026-04-10T15:59:32Z</time></trkpt><trkpt lat="39.487882152875294" lon="8.517867420435165"><ele>461.0</ele><time>2026-04-10T15:59:33Z</time></trkpt><trkpt lat="39.48801495513306" lon="8.517902339673936"><ele>460.75</ele><time>2026-04-10T15:59:34Z</time></trkpt><trkpt lat="39.48815385700158" lon="8.5179146455715"><ele>460.5</ele><time>2026-04-10T15:59:35Z</time></trkpt><trkpt lat="39.488300264370444" lon="8.517903317544631"><ele>460.25</ele><time>2026-04-10T15:59:36Z</time></trkpt><trkpt lat="39.48844894112263" lon="8.517859958211467"><ele>460.0</ele><time>2026-04-10T15:59:37Z</time></trkpt><trkpt lat="39.48860311455908" lon="8.517780931707387"><ele>457.6666666666667</ele><time>2026-04-10T15:59:38Z</time></trkpt><trkpt lat="39.488765653796854" lon="8.517675285199847"><ele>455.33333333333337</ele><time>2026-04-10T15:59:39Z</time></trkpt><trkpt lat="39.48893588483293" lon="8.517568670617361"><ele>453.0</ele><time>2026-04-10T15:59:40Z</time></trkpt><trkpt lat="39.489099980496235" lon="8.517465955810058"><ele>453.0</ele><time>2026-04-10T15:59:41Z</time></trkpt><trkpt lat="39.489258372721174" lon="8.517374125814323"><ele>453.0</ele><time>2026-04-10T15:59:42Z</time></trkpt><trkpt lat="39.48941336759251" lon="8.517290619276741"><ele>453.0</ele><time>2026-04-10T15:59:43Z</time></trkpt><trkpt lat="39.489567835834094" lon="8.517216334402203"><ele>453.0</ele><time>2026-04-10T15:59:44Z</time></trkpt><trkpt lat="39.48972599774839" lon="8.517146569580534"><ele>453.0</ele><time>2026-04-10T15:59:45Z</time></trkpt><trkpt lat="39.48987731752313" lon="8.51707999155965"><ele>453.0</ele><time>2026-04-10T15:59:46Z</time></trkpt><trkpt lat="39.490016540430986" lon="8.517017402373687"><ele>453.0</ele><time>2026-04-10T15:59:47Z</time></trkpt><trkpt lat="39.49014943656406" lon="8.516954588789785"><ele>453.0</ele><time>2026-04-10T15:59:48Z</time></trkpt><trkpt lat="39.49027403260091" lon="8.516894170543694"><ele>453.0</ele><time>2026-04-10T15:59:49Z</time></trkpt><trkpt lat="39.49039943383275" lon="8.516841323261504"><ele>453.0</ele><time>2026-04-10T15:59:50Z</time></trkpt><trkpt lat="39.490535636431446" lon="8.516801270447734"><ele>451.0</ele><time>2026-04-10T15:59:51Z</time></trkpt><trkpt lat="39.490683445148974" lon="8.516783416094702"><ele>449.0</ele><time>2026-04-10T15:59:52Z</time></trkpt><trkpt lat="39.49083495545044" lon="8.516786864398293"><ele>447.0</ele><time>2026-04-10T15:59:53Z</time></trkpt><trkpt lat="39.49098956956763" lon="8.516818187190674"><ele>447.0</ele><time>2026-04-10T15:59:54Z</time></trkpt><trkpt lat="39.49115168319912" lon="8.51687267122278"><ele>447.0</ele><time>2026-04-10T15:59:55Z</time></trkpt><trkpt lat="39.49131483634334" lon="8.516960506971852"><ele>447.0</ele><time>2026-04-10T15:59:56Z</time></trkpt><trkpt lat="39.49146545206795" lon="8.5170647385116"><ele>445.33333333333337</ele><time>2026-04-10T15:59:57Z</time></trkpt><trkpt lat="39.491617683826014" lon="8.51719939535715"><ele>443.6666666666667</ele><time>2026-04-10T15:59:58Z</time></trkpt><trkpt lat="39.49177261790205" lon="8.517339135980674"><ele>442.0</ele><time>2026-04-10T15:59:59Z</time></trkpt><trkpt lat="39.49192038883345" lon="8.517467261498618"><ele>442.0</ele><time>2026-04-10T16:00:00Z</time></trkpt><trkpt lat="39.49206295976591" lon="8.51758774507522"><ele>442.0</ele><time>2026-04-10T16:00:01Z</time></trkpt><trkpt lat="39.49219416822418" lon="8.517705841144858"><ele>442.0</ele><time>2026-04-10T16:00:02Z</time></trkpt><trkpt lat="39.492314492936096" lon="8.517833992988681"><ele>441.33333333333337</ele><time>2026-04-10T16:00:03Z</time></trkpt><trkpt lat="39.492425495134114" lon="8.517988508888076"><ele>440.66666666666663</ele><time>2026-04-10T16:00:04Z</time></trkpt><trkpt lat="39.49252307073196" lon="8.518166503710846"><ele>440.0</ele><time>2026-04-10T16:00:05Z</time></trkpt><trkpt lat="39.49261626866315" lon="8.51838059130932"><ele>440.0</ele><time>2026-04-10T16:00:06Z</time></trkpt><trkpt lat="39.492708586152446" lon="8.518615784961657"><ele>440.0</ele><time>2026-04-10T16:00:07Z</time></trkpt><trkpt lat="39.49280709627309" lon="8.518855415712626"><ele>440.0</ele><time>2026-04-10T16:00:08Z</time></trkpt><trkpt lat="39.49290778631309" lon="8.51909663483704"><ele>440.0</ele><time>2026-04-10T16:00:09Z</time></trkpt><trkpt lat="39.49300828442905" lon="8.519335521682313"><ele>440.0</ele><time>2026-04-10T16:00:10Z</time></trkpt><trkpt lat="39.493111820211205" lon="8.519581192168824"><ele>440.0</ele><time>2026-04-10T16:00:11Z</time></trkpt><trkpt lat="39.49321593164919" lon="8.519832507856425"><ele>439.3333333333333</ele><time>2026-04-10T16:00:12Z</time></trkpt><trkpt lat="39.49331885988702" lon="8.52007933882628"><ele>438.66666666666663</ele><time>2026-04-10T16:00:13Z</time></trkpt><trkpt lat="39.4934202471429" lon="8.52032333839732"><ele>438.0</ele><time>2026-04-10T16:00:14Z</time></trkpt><trkpt lat="39.49351669634936" lon="8.52055759736277"><ele>438.0</ele><time>2026-04-10T16:00:15Z</time></trkpt><trkpt lat="39.493606625555756" lon="8.520781776136463"><ele>438.0</ele><time>2026-04-10T16:00:16Z</time></trkpt><trkpt lat="39.49369164969386" lon="8.520985397807204"><ele>438.0</ele><time>2026-04-10T16:00:17Z</time></trkpt><trkpt lat="39.493770243863246" lon="8.521170090965407"><ele>438.75</ele><time>2026-04-10T16:00:18Z</time></trkpt><trkpt lat="39.493842851988475" lon="8.521347856230753"><ele>439.5</ele><time>2026-04-10T16:00:19Z</time></trkpt><trkpt lat="39.49391137751106" lon="8.521504382550152"><ele>440.25</ele><time>2026-04-10T16:00:20Z</time></trkpt><trkpt lat="39.493995159060525" lon="8.521642560619545"><ele>441.0</ele><time>2026-04-10T16:00:21Z</time></trkpt><trkpt lat="39.49410542436416" lon="8.52178144630248"><ele>441.0</ele><time>2026-04-10T16:00:22Z</time></trkpt><trkpt lat="39.49423843502001" lon="8.521913204688136"><ele>441.0</ele><time>2026-04-10T16:00:23Z</time></trkpt><trkpt lat="39.494387358566954" lon="8.52203576766991"><ele>441.0</ele><time>2026-04-10T16:00:24Z</time></trkpt><trkpt lat="39.49453754605361" lon="8.522151348917554"><ele>440.0</ele><time>2026-04-10T16:00:25Z</time></trkpt><trkpt lat="39.49470520659476" lon="8.522247545698075"><ele>439.0</ele><time>2026-04-10T16:00:26Z</time></trkpt><trkpt lat="39.494885605175675" lon="8.522324143491868"><ele>438.0</ele><time>2026-04-10T16:00:27Z</time></trkpt><trkpt lat="39.4950886466207" lon="8.522378542091182"><ele>438.0</ele><time>2026-04-10T16:00:28Z</time></trkpt><trkpt lat="39.495293136160726" lon="8.522430675350451"><ele>438.0</ele><time>2026-04-10T16:00:29Z</time></trkpt><trkpt lat="39.49548789141849" lon="8.522480038695937"><ele>438.0</ele><time>2026-04-10T16:00:30Z</time></trkpt><trkpt lat="39.495675258476076" lon="8.522534936095829"><ele>437.0</ele><time>2026-04-10T16:00:31Z</time></trkpt><trkpt lat="39.49585491604953" lon="8.522585797544066"><ele>436.0</ele><time>2026-04-10T16:00:32Z</time></trkpt><trkpt lat="39.49603161645726" lon="8.522634631596523"><ele>435.0</ele><time>2026-04-10T16:00:33Z</time></trkpt><trkpt lat="39.49620303228428" lon="8.522681801480338"><ele>433.66666666666663</ele><time>2026-04-10T16:00:34Z</time></trkpt><trkpt lat="39.49637433536022" lon="8.522726374069952"><ele>432.3333333333333</ele><time>2026-04-10T16:00:35Z</time></trkpt><trkpt lat="39.49654996880708" lon="8.522776329863133"><ele>431.0</ele><time>2026-04-10T16:00:36Z</time></trkpt><trkpt lat="39.496729175956816" lon="8.522826776101551"><ele>431.0</ele><time>2026-04-10T16:00:37Z</time></trkpt><trkpt lat="39.496909990898644" lon="8.522876164150766"><ele>431.0</ele><time>2026-04-10T16:00:38Z</time></trkpt><trkpt lat="39.497086596438436" lon="8.522923367612563"><ele>431.0</ele><time>2026-04-10T16:00:39Z</time></trkpt><trkpt lat="39.49725556967176" lon="8.522970318277542"><ele>430.0</ele><time>2026-04-10T16:00:40Z</time></trkpt><trkpt lat="39.49742101345282" lon="8.523013130637107"><ele>429.0</ele><time>2026-04-10T16:00:41Z</time></trkpt><trkpt lat="39.49757855527869" lon="8.523055252229332"><ele>428.0</ele><time>2026-04-10T16:00:42Z</time></trkpt><trkpt lat="39.497715918454546" lon="8.523096215849488"><ele>428.0</ele><time>2026-04-10T16:00:43Z</time></trkpt><trkpt lat="39.497840816174396" lon="8.523150451159573"><ele>428.0</ele><time>2026-04-10T16:00:44Z</time></trkpt><trkpt lat="39.4979510306296" lon="8.523234441560273"><ele>428.0</ele><time>2026-04-10T16:00:45Z</time></trkpt><trkpt lat="39.49802344234229" lon="8.523373251103518"><ele>428.0</ele><time>2026-04-10T16:00:46Z</time></trkpt><trkpt lat="39.4980965802155" lon="8.523533207310626"><ele>428.0</ele><time>2026-04-10T16:00:47Z</time></trkpt><trkpt lat="39.498152859971434" lon="8.523710171375617"><ele>428.0</ele><time>2026-04-10T16:00:48Z</time></trkpt><trkpt lat="39.49819126392264" lon="8.523886020147753"><ele>428.0</ele><time>2026-04-10T16:00:49Z</time></trkpt><trkpt lat="39.49819617289267" lon="8.524064437358872"><ele>428.0</ele><time>2026-04-10T16:00:50Z</time></trkpt><trkpt lat="39.49813989932109" lon="8.524248118181509"><ele>426.3333333333333</ele><time>2026-04-10T16:00:51Z</time></trkpt><trkpt lat="39.49807849411541" lon="8.524456660377183"><ele>424.66666666666663</ele><time>2026-04-10T16:00:52Z</time></trkpt><trkpt lat="39.498023152152655" lon="8.524689469277158"><ele>423.0</ele><time>2026-04-10T16:00:53Z</time></trkpt><trkpt lat="39.497958065914474" lon="8.524907719972553"><ele>421.33333333333337</ele><time>2026-04-10T16:00:54Z</time></trkpt><trkpt lat="39.49788903631125" lon="8.525139692997822"><ele>419.6666666666667</ele><time>2026-04-10T16:00:55Z</time></trkpt><trkpt lat="39.497817466887994" lon="8.525377817266444"><ele>418.0</ele><time>2026-04-10T16:00:56Z</time></trkpt><trkpt lat="39.49774859492591" lon="8.525614892857858"><ele>418.0</ele><time>2026-04-10T16:00:57Z</time></trkpt><trkpt lat="39.49768401187369" lon="8.525840255383232"><ele>418.0</ele><time>2026-04-10T16:00:58Z</time></trkpt><trkpt lat="39.497627684872775" lon="8.526053324701039"><ele>418.0</ele><time>2026-04-10T16:00:59Z</time></trkpt><trkpt lat="39.49759110599503" lon="8.526270083018378"><ele>418.0</ele><time>2026-04-10T16:01:00Z</time></trkpt><trkpt lat="39.49758183622853" lon="8.526491297270523"><ele>418.0</ele><time>2026-04-10T16:01:01Z</time></trkpt><trkpt lat="39.49759354427778" lon="8.526718123891104"><ele>418.0</ele><time>2026-04-10T16:01:02Z</time></trkpt><trkpt lat="39.49762677905008" lon="8.526929467760485"><ele>417.5</ele><time>2026-04-10T16:01:03Z</time></trkpt><trkpt lat="39.49768076376138" lon="8.527113940436102"><ele>417.0</ele><time>2026-04-10T16:01:04Z</time></trkpt><trkpt lat="39.49776937253129" lon="8.527238187418188"><ele>416.5</ele><time>2026-04-10T16:01:05Z</time></trkpt><trkpt lat="39.49788370909767" lon="8.527327335231229"><ele>416.0</ele><time>2026-04-10T16:01:06Z</time></trkpt><trkpt lat="39.49803651534229" lon="8.527385311900316"><ele>417.25</ele><time>2026-04-10T16:01:07Z</time></trkpt><trkpt lat="39.49819438815728" lon="8.527450414719207"><ele>418.5</ele><time>2026-04-10T16:01:08Z</time></trkpt><trkpt lat="39.49832494391218" lon="8.527515793368071"><ele>419.75</ele><time>2026-04-10T16:01:09Z</time></trkpt><trkpt lat="39.49844979708305" lon="8.527576590287525"><ele>421.0</ele><time>2026-04-10T16:01:10Z</time></trkpt><trkpt lat="39.49858363377699" lon="8.527600943621986"><ele>421.0</ele><time>2026-04-10T16:01:11Z</time></trkpt><trkpt lat="39.49872381769113" lon="8.527569044558788"><ele>421.0</ele><time>2026-04-10T16:01:12Z</time></trkpt><trkpt lat="39.4988638853282" lon="8.527478385660116"><ele>421.0</ele><time>2026-04-10T16:01:13Z</time></trkpt><trkpt lat="39.499003972350955" lon="8.527372029062048"><ele>420.25</ele><time>2026-04-10T16:01:14Z</time></trkpt><trkpt lat="39.49913339281751" lon="8.52728566133831"><ele>419.5</ele><time>2026-04-10T16:01:15Z</time></trkpt><trkpt lat="39.49925484669452" lon="8.527225337478683"><ele>418.75</ele><time>2026-04-10T16:01:16Z</time></trkpt><trkpt lat="39.49936023503248" lon="8.527221596050135"><ele>418.0</ele><time>2026-04-10T16:01:17Z</time></trkpt><trkpt lat="39.499456338017026" lon="8.527276616694879"><ele>418.0</ele><time>2026-04-10T16:01:18Z</time></trkpt><trkpt lat="39.49948888629595" lon="8.527407507509576"><ele>418.0</ele><time>2026-04-10T16:01:19Z</time></trkpt><trkpt lat="39.49954474424557" lon="8.527553374783624"><ele>418.0</ele><time>2026-04-10T16:01:20Z</time></trkpt><trkpt lat="39.49961775546484" lon="8.527720945642008"><ele>418.0</ele><time>2026-04-10T16:01:21Z</time></trkpt><trkpt lat="39.499683013881906" lon="8.52789953136425"><ele>418.33333333333337</ele><time>2026-04-10T16:01:22Z</time></trkpt><trkpt lat="39.49975760357179" lon="8.52808624985323"><ele>418.66666666666663</ele><time>2026-04-10T16:01:23Z</time></trkpt><trkpt lat="39.4998349102033" lon="8.52827614436607"><ele>419.0</ele><time>2026-04-10T16:01:24Z</time></trkpt><trkpt lat="39.49991159031701" lon="8.528476933045779"><ele>419.0</ele><time>2026-04-10T16:01:25Z</time></trkpt><trkpt lat="39.49998926806708" lon="8.5286796829149"><ele>419.0</ele><time>2026-04-10T16:01:26Z</time></trkpt><trkpt lat="39.50006263703974" lon="8.528867302384405"><ele>419.0</ele><time>2026-04-10T16:01:27Z</time></trkpt><trkpt lat="39.50013278060387" lon="8.529038513096372"><ele>419.0</ele><time>2026-04-10T16:01:28Z</time></trkpt><trkpt lat="39.50021521788832" lon="8.529164869360413"><ele>419.0</ele><time>2026-04-10T16:01:29Z</time></trkpt><trkpt lat="39.50032615093406" lon="8.529243306882423"><ele>419.0</ele><time>2026-04-10T16:01:30Z</time></trkpt><trkpt lat="39.50045565883683" lon="8.529314003619906"><ele>419.0</ele><time>2026-04-10T16:01:31Z</time></trkpt><trkpt lat="39.5005658687761" lon="8.529417919866763"><ele>416.66666666666663</ele><time>2026-04-10T16:01:32Z</time></trkpt><trkpt lat="39.50066438920864" lon="8.52958056464879"><ele>414.33333333333337</ele><time>2026-04-10T16:01:33Z</time></trkpt><trkpt lat="39.50076437766168" lon="8.529758032509497"><ele>412.0</ele><time>2026-04-10T16:01:34Z</time></trkpt><trkpt lat="39.500864417567776" lon="8.52992255132028"><ele>412.0</ele><time>2026-04-10T16:01:35Z</time></trkpt><trkpt lat="39.50096584503313" lon="8.530082442885218"><ele>412.0</ele><time>2026-04-10T16:01:36Z</time></trkpt><trkpt lat="39.5010664218964" lon="8.530243782081595"><ele>412.0</ele><time>2026-04-10T16:01:37Z</time></trkpt><trkpt lat="39.50116280695483" lon="8.530403059948888"><ele>411.0</ele><time>2026-04-10T16:01:38Z</time></trkpt><trkpt lat="39.50124821756935" lon="8.530557761071492"><ele>410.0</ele><time>2026-04-10T16:01:39Z</time></trkpt><trkpt lat="39.50129101360533" lon="8.530722658696167"><ele>409.0</ele><time>2026-04-10T16:01:40Z</time></trkpt><trkpt lat="39.50133022082651" lon="8.53088188216014"><ele>408.0</ele><time>2026-04-10T16:01:41Z</time></trkpt><trkpt lat="39.50136598138065" lon="8.531014700023949"><ele>409.0</ele><time>2026-04-10T16:01:42Z</time></trkpt><trkpt lat="39.50141729141839" lon="8.53112386508683"><ele>410.0</ele><time>2026-04-10T16:01:43Z</time></trkpt><trkpt lat="39.50150377482118" lon="8.531207087695526"><ele>411.0</ele><time>2026-04-10T16:01:44Z</time></trkpt><trkpt lat="39.501626280983366" lon="8.531264886852505"><ele>412.0</ele><time>2026-04-10T16:01:45Z</time></trkpt><trkpt lat="39.5017643386333" lon="8.531302767866993"><ele>412.0</ele><time>2026-04-10T16:01:46Z</time></trkpt><trkpt lat="39.50190770363663" lon="8.531352108888276"><ele>412.0</ele><time>2026-04-10T16:01:47Z</time></trkpt><trkpt lat="39.502048217611076" lon="8.531400452895413"><ele>412.0</ele><time>2026-04-10T16:01:48Z</time></trkpt><trkpt lat="39.50219751682154" lon="8.531452185150314"><ele>412.0</ele><time>2026-04-10T16:01:49Z</time></trkpt><trkpt lat="39.502354171570694" lon="8.531503474673352"><ele>412.5</ele><time>2026-04-10T16:01:50Z</time></trkpt><trkpt lat="39.50250597536779" lon="8.531552630140707"><ele>413.0</ele><time>2026-04-10T16:01:51Z</time></trkpt><trkpt lat="39.50264725634617" lon="8.5315994567328"><ele>413.5</ele><time>2026-04-10T16:01:52Z</time></trkpt><trkpt lat="39.50277911736319" lon="8.531645273739187"><ele>414.0</ele><time>2026-04-10T16:01:53Z</time></trkpt><trkpt lat="39.502899836229396" lon="8.531685364209727"><ele>413.25</ele><time>2026-04-10T16:01:54Z</time></trkpt><trkpt lat="39.50301650410568" lon="8.5317403263715"><ele>412.5</ele><time>2026-04-10T16:01:55Z</time></trkpt><trkpt lat="39.50313603499593" lon="8.53181457393801"><ele>411.75</ele><time>2026-04-10T16:01:56Z</time></trkpt><trkpt lat="39.503249339074976" lon="8.531904297470687"><ele>411.0</ele><time>2026-04-10T16:01:57Z</time></trkpt><trkpt lat="39.50336095484822" lon="8.531998274045092"><ele>410.25</ele><time>2026-04-10T16:01:58Z</time></trkpt><trkpt lat="39.503469827408324" lon="8.53209488223435"><ele>409.5</ele><time>2026-04-10T16:01:59Z</time></trkpt><trkpt lat="39.50357625831876" lon="8.53217715036886"><ele>408.75</ele><time>2026-04-10T16:02:00Z</time></trkpt><trkpt lat="39.50367332127332" lon="8.53225619890107"><ele>408.0</ele><time>2026-04-10T16:02:01Z</time></trkpt><trkpt lat="39.50375930880254" lon="8.532340142915437"><ele>408.0</ele><time>2026-04-10T16:02:02Z</time></trkpt><trkpt lat="39.5038452856407" lon="8.53243040713005"><ele>408.0</ele><time>2026-04-10T16:02:03Z</time></trkpt><trkpt lat="39.50391871295406" lon="8.532537346916644"><ele>408.0</ele><time>2026-04-10T16:02:04Z</time></trkpt><trkpt lat="39.50398579673803" lon="8.532666373387723"><ele>408.0</ele><time>2026-04-10T16:02:05Z</time></trkpt><trkpt lat="39.504037572773825" lon="8.532798882297485"><ele>408.79999999999995</ele><time>2026-04-10T16:02:06Z</time></trkpt><trkpt lat="39.50407573529482" lon="8.532929368565448"><ele>409.6</ele><time>2026-04-10T16:02:07Z</time></trkpt><trkpt lat="39.504089983855934" lon="8.533053953079285"><ele>410.4</ele><time>2026-04-10T16:02:08Z</time></trkpt><trkpt lat="39.504058477564406" lon="8.533184666092062"><ele>411.20000000000005</ele><time>2026-04-10T16:02:09Z</time></trkpt><trkpt lat="39.5039755775724" lon="8.53329841175466"><ele>412.0</ele><time>2026-04-10T16:02:10Z</time></trkpt><trkpt lat="39.503865297764385" lon="8.533436416146335"><ele>412.0</ele><time>2026-04-10T16:02:11Z</time></trkpt><trkpt lat="39.50377803529285" lon="8.533564158550403"><ele>412.0</ele><time>2026-04-10T16:02:12Z</time></trkpt><trkpt lat="39.50368784357192" lon="8.533669225467705"><ele>412.0</ele><time>2026-04-10T16:02:13Z</time></trkpt><trkpt lat="39.50360699353777" lon="8.533780749793062"><ele>412.0</ele><time>2026-04-10T16:02:14Z</time></trkpt><trkpt lat="39.50354037879404" lon="8.533902691953932"><ele>412.25</ele><time>2026-04-10T16:02:15Z</time></trkpt><trkpt lat="39.50350396045255" lon="8.534055093202722"><ele>412.5</ele><time>2026-04-10T16:02:16Z</time></trkpt><trkpt lat="39.50350474824531" lon="8.534247332954536"><ele>412.75</ele><time>2026-04-10T16:02:17Z</time></trkpt><trkpt lat="39.503539314682" lon="8.534446852826393"><ele>413.0</ele><time>2026-04-10T16:02:18Z</time></trkpt><trkpt lat="39.50358308507234" lon="8.534622561258637"><ele>413.0</ele><time>2026-04-10T16:02:19Z</time></trkpt><trkpt lat="39.50358731975573" lon="8.534783794256933"><ele>413.0</ele><time>2026-04-10T16:02:20Z</time></trkpt><trkpt lat="39.50359670444757" lon="8.534946001879709"><ele>413.0</ele><time>2026-04-10T16:02:21Z</time></trkpt><trkpt lat="39.5035525552706" lon="8.53511815432184"><ele>413.0</ele><time>2026-04-10T16:02:22Z</time></trkpt><trkpt lat="39.50347886783477" lon="8.535276324810365"><ele>413.5</ele><time>2026-04-10T16:02:23Z</time></trkpt><trkpt lat="39.50340922556142" lon="8.535435278313027"><ele>414.0</ele><time>2026-04-10T16:02:24Z</time></trkpt><trkpt lat="39.503366479108564" lon="8.535612153290792"><ele>414.5</ele><time>2026-04-10T16:02:25Z</time></trkpt><trkpt lat="39.50334019108882" lon="8.535819927162411"><ele>415.0</ele><time>2026-04-10T16:02:26Z</time></trkpt><trkpt lat="39.50332574904161" lon="8.536038309426123"><ele>415.0</ele><time>2026-04-10T16:02:27Z</time></trkpt><trkpt lat="39.503307555530895" lon="8.536258498164928"><ele>415.0</ele><time>2026-04-10T16:02:28Z</time></trkpt><trkpt lat="39.503286837504696" lon="8.536469729212069"><ele>415.0</ele><time>2026-04-10T16:02:29Z</time></trkpt><trkpt lat="39.50326762443993" lon="8.536666376774821"><ele>415.0</ele><time>2026-04-10T16:02:30Z</time></trkpt><trkpt lat="39.50325226156556" lon="8.536854139550218"><ele>415.0</ele><time>2026-04-10T16:02:31Z</time></trkpt><trkpt lat="39.503238249785085" lon="8.537012378329878"><ele>415.0</ele><time>2026-04-10T16:02:32Z</time></trkpt><trkpt lat="39.50323103691012" lon="8.53716585186729"><ele>415.0</ele><time>2026-04-10T16:02:33Z</time></trkpt><trkpt lat="39.503231150820284" lon="8.537307092605525"><ele>414.0</ele><time>2026-04-10T16:02:34Z</time></trkpt><trkpt lat="39.50327790723025" lon="8.537449966290588"><ele>413.0</ele><time>2026-04-10T16:02:35Z</time></trkpt><trkpt lat="39.50333957244483" lon="8.537605491490476"><ele>412.0</ele><time>2026-04-10T16:02:36Z</time></trkpt><trkpt lat="39.50342260300252" lon="8.537758160299695"><ele>411.0</ele><time>2026-04-10T16:02:37Z</time></trkpt><trkpt lat="39.50347840589031" lon="8.53790767493292"><ele>411.0</ele><time>2026-04-10T16:02:38Z</time></trkpt><trkpt lat="39.503537053413055" lon="8.538052414623653"><ele>411.0</ele><time>2026-04-10T16:02:39Z</time></trkpt><trkpt lat="39.50359726587126" lon="8.53819727483759"><ele>411.0</ele><time>2026-04-10T16:02:40Z</time></trkpt><trkpt lat="39.5036697134078" lon="8.538336628636115"><ele>411.0</ele><time>2026-04-10T16:02:41Z</time></trkpt><trkpt lat="39.50376568648422" lon="8.538450133797966"><ele>411.0</ele><time>2026-04-10T16:02:42Z</time></trkpt><trkpt lat="39.503890646726916" lon="8.538530797543837"><ele>411.0</ele><time>2026-04-10T16:02:43Z</time></trkpt><trkpt lat="39.50403097002536" lon="8.53859537845384"><ele>411.0</ele><time>2026-04-10T16:02:44Z</time></trkpt><trkpt lat="39.504177288408044" lon="8.5386667230997"><ele>411.0</ele><time>2026-04-10T16:02:45Z</time></trkpt><trkpt lat="39.504321238468535" lon="8.538739426352542"><ele>409.75</ele><time>2026-04-10T16:02:46Z</time></trkpt><trkpt lat="39.50445655586839" lon="8.538809807689049"><ele>408.5</ele><time>2026-04-10T16:02:47Z</time></trkpt><trkpt lat="39.50458342129178" lon="8.538875744854483"><ele>407.25</ele><time>2026-04-10T16:02:48Z</time></trkpt><trkpt lat="39.50470263152186" lon="8.538942965068502"><ele>406.0</ele><time>2026-04-10T16:02:49Z</time></trkpt><trkpt lat="39.50481215080271" lon="8.539026007958467"><ele>406.0</ele><time>2026-04-10T16:02:50Z</time></trkpt><trkpt lat="39.50490020855476" lon="8.539137802188343"><ele>406.0</ele><time>2026-04-10T16:02:51Z</time></trkpt><trkpt lat="39.50497474253152" lon="8.53926821858117"><ele>406.0</ele><time>2026-04-10T16:02:52Z</time></trkpt><trkpt lat="39.50503096114731" lon="8.539429354487869"><ele>406.0</ele><time>2026-04-10T16:02:53Z</time></trkpt><trkpt lat="39.50508821006309" lon="8.539604518795421"><ele>404.6666666666667</ele><time>2026-04-10T16:02:54Z</time></trkpt><trkpt lat="39.50515432699935" lon="8.539784637400967"><ele>403.33333333333337</ele><time>2026-04-10T16:02:55Z</time></trkpt><trkpt lat="39.505226379078294" lon="8.539977421929182"><ele>402.0</ele><time>2026-04-10T16:02:56Z</time></trkpt><trkpt lat="39.50529968157107" lon="8.5401771760106"><ele>401.33333333333337</ele><time>2026-04-10T16:02:57Z</time></trkpt><trkpt lat="39.5053683785849" lon="8.540383774630918"><ele>400.6666666666667</ele><time>2026-04-10T16:02:58Z</time></trkpt><trkpt lat="39.50543909508752" lon="8.540579320817546"><ele>400.0</ele><time>2026-04-10T16:02:59Z</time></trkpt><trkpt lat="39.50550540229235" lon="8.540768399984985"><ele>400.0</ele><time>2026-04-10T16:03:00Z</time></trkpt><trkpt lat="39.50556903496926" lon="8.540952521801968"><ele>400.0</ele><time>2026-04-10T16:03:01Z</time></trkpt><trkpt lat="39.50562967701986" lon="8.541130126257663"><ele>400.0</ele><time>2026-04-10T16:03:02Z</time></trkpt><trkpt lat="39.50568803465054" lon="8.541301561442847"><ele>399.5</ele><time>2026-04-10T16:03:03Z</time></trkpt><trkpt lat="39.50574378736071" lon="8.541461113964598"><ele>399.0</ele><time>2026-04-10T16:03:04Z</time></trkpt><trkpt lat="39.50579976367528" lon="8.541609456383886"><ele>398.5</ele><time>2026-04-10T16:03:05Z</time></trkpt><trkpt lat="39.50585202650106" lon="8.54175553122907"><ele>398.0</ele><time>2026-04-10T16:03:06Z</time></trkpt><trkpt lat="39.50589965355247" lon="8.541886873056542"><ele>397.99999999999994</ele><time>2026-04-10T16:03:07Z</time></trkpt><trkpt lat="39.50594294632858" lon="8.542006216029762"><ele>398.0</ele><time>2026-04-10T16:03:08Z</time></trkpt><trkpt lat="39.50598033405542" lon="8.54210764772164"><ele>398.0</ele><time>2026-04-10T16:03:09Z</time></trkpt><trkpt lat="39.5060118528627" lon="8.542198268680552"><ele>398.0</ele><time>2026-04-10T16:03:10Z</time></trkpt><trkpt lat="39.506038565689224" lon="8.542281623261854"><ele>397.99999999999994</ele><time>2026-04-10T16:03:11Z</time></trkpt><trkpt lat="39.50604933757521" lon="8.542420383959877"><ele>398.0</ele><time>2026-04-10T16:03:13Z</time></trkpt><trkpt lat="39.50622932606488" lon="8.542460338911157"><ele>398.79999999999995</ele><time>2026-04-10T16:03:15Z</time></trkpt><trkpt lat="39.50631086536467" lon="8.542428128259655"><ele>399.6</ele><time>2026-04-10T16:03:16Z</time></trkpt><trkpt lat="39.50639387516624" lon="8.542368348544645"><ele>400.4</ele><time>2026-04-10T16:03:17Z</time></trkpt><trkpt lat="39.506488601329174" lon="8.542289408105416"><ele>401.20000000000005</ele><time>2026-04-10T16:03:18Z</time></trkpt><trkpt lat="39.506589820982384" lon="8.542198484327928"><ele>402.0</ele><time>2026-04-10T16:03:19Z</time></trkpt><trkpt lat="39.50669324914909" lon="8.54211146395061"><ele>401.75</ele><time>2026-04-10T16:03:20Z</time></trkpt><trkpt lat="39.50680225724468" lon="8.542019091728028"><ele>401.5</ele><time>2026-04-10T16:03:21Z</time></trkpt><trkpt lat="39.50692171706633" lon="8.54191451902204"><ele>401.25</ele><time>2026-04-10T16:03:22Z</time></trkpt><trkpt lat="39.50704989234046" lon="8.54180504491296"><ele>401.0</ele><time>2026-04-10T16:03:23Z</time></trkpt><trkpt lat="39.507175873687245" lon="8.54170091589224"><ele>401.75</ele><time>2026-04-10T16:03:24Z</time></trkpt><trkpt lat="39.50729594607417" lon="8.541592136298378"><ele>402.5</ele><time>2026-04-10T16:03:25Z</time></trkpt><trkpt lat="39.5074172529176" lon="8.541479017259451"><ele>403.25</ele><time>2026-04-10T16:03:26Z</time></trkpt><trkpt lat="39.507533309064584" lon="8.54135827023552"><ele>404.0</ele><time>2026-04-10T16:03:27Z</time></trkpt><trkpt lat="39.507634688053194" lon="8.541218015534724"><ele>403.66666666666663</ele><time>2026-04-10T16:03:28Z</time></trkpt><trkpt lat="39.507723406305836" lon="8.541061659706081"><ele>403.33333333333337</ele><time>2026-04-10T16:03:29Z</time></trkpt><trkpt lat="39.50780529173465" lon="8.540897273391355"><ele>403.0</ele><time>2026-04-10T16:03:30Z</time></trkpt><trkpt lat="39.507884134910576" lon="8.540726953403727"><ele>406.0</ele><time>2026-04-10T16:03:31Z</time></trkpt><trkpt lat="39.50795413996627" lon="8.540543442247554"><ele>409.0</ele><time>2026-04-10T16:03:32Z</time></trkpt><trkpt lat="39.50802203665032" lon="8.5403456084488"><ele>412.0</ele><time>2026-04-10T16:03:33Z</time></trkpt><trkpt lat="39.50808569839179" lon="8.540132268884086"><ele>412.0</ele><time>2026-04-10T16:03:34Z</time></trkpt><trkpt lat="39.50815529635103" lon="8.539913875298865"><ele>412.0</ele><time>2026-04-10T16:03:35Z</time></trkpt><trkpt lat="39.508221172649066" lon="8.539694650769666"><ele>412.0</ele><time>2026-04-10T16:03:36Z</time></trkpt><trkpt lat="39.508283698164675" lon="8.539483312040737"><ele>412.0</ele><time>2026-04-10T16:03:37Z</time></trkpt><trkpt lat="39.5083497627791" lon="8.539272707080631"><ele>412.0</ele><time>2026-04-10T16:03:38Z</time></trkpt><trkpt lat="39.50841805258348" lon="8.539071595848666"><ele>412.0</ele><time>2026-04-10T16:03:39Z</time></trkpt><trkpt lat="39.508476789119975" lon="8.53888546672256"><ele>412.0</ele><time>2026-04-10T16:03:40Z</time></trkpt><trkpt lat="39.5085354026289" lon="8.538697530611566"><ele>412.0</ele><time>2026-04-10T16:03:41Z</time></trkpt><trkpt lat="39.50859501187862" lon="8.538501109315055"><ele>412.0</ele><time>2026-04-10T16:03:42Z</time></trkpt><trkpt lat="39.508653475856946" lon="8.53830522423589"><ele>412.0</ele><time>2026-04-10T16:03:43Z</time></trkpt><trkpt lat="39.50871455698656" lon="8.538112114188973"><ele>412.0</ele><time>2026-04-10T16:03:44Z</time></trkpt><trkpt lat="39.50877896685614" lon="8.537917730969365"><ele>412.0</ele><time>2026-04-10T16:03:45Z</time></trkpt><trkpt lat="39.50883953246572" lon="8.537720516580665"><ele>414.0</ele><time>2026-04-10T16:03:46Z</time></trkpt><trkpt lat="39.50889951618003" lon="8.537527500983334"><ele>416.0</ele><time>2026-04-10T16:03:47Z</time></trkpt><trkpt lat="39.50896094013618" lon="8.537340323188223"><ele>418.0</ele><time>2026-04-10T16:03:48Z</time></trkpt><trkpt lat="39.50902712312475" lon="8.53715465799471"><ele>419.0</ele><time>2026-04-10T16:03:49Z</time></trkpt><trkpt lat="39.509097414616605" lon="8.536978102605339"><ele>420.0</ele><time>2026-04-10T16:03:50Z</time></trkpt><trkpt lat="39.50917071181374" lon="8.536807677529147"><ele>421.0</ele><time>2026-04-10T16:03:51Z</time></trkpt><trkpt lat="39.509241696407464" lon="8.53663217187938"><ele>421.0</ele><time>2026-04-10T16:03:52Z</time></trkpt><trkpt lat="39.50931512152602" lon="8.53645649375047"><ele>421.0</ele><time>2026-04-10T16:03:53Z</time></trkpt><trkpt lat="39.5093891532308" lon="8.536264680347154"><ele>421.0</ele><time>2026-04-10T16:03:54Z</time></trkpt><trkpt lat="39.509464142808575" lon="8.536075893466691"><ele>421.0</ele><time>2026-04-10T16:03:55Z</time></trkpt><trkpt lat="39.509540999497396" lon="8.535904213934717"><ele>421.0</ele><time>2026-04-10T16:03:56Z</time></trkpt><trkpt lat="39.50961749178233" lon="8.535753391430996"><ele>421.0</ele><time>2026-04-10T16:03:57Z</time></trkpt><trkpt lat="39.50971764123622" lon="8.535603583178032"><ele>421.0</ele><time>2026-04-10T16:03:58Z</time></trkpt><trkpt lat="39.50985387949127" lon="8.535455755191435"><ele>424.0</ele><time>2026-04-10T16:03:59Z</time></trkpt><trkpt lat="39.51001474241034" lon="8.535302908696861"><ele>427.0</ele><time>2026-04-10T16:04:00Z</time></trkpt><trkpt lat="39.51016859299175" lon="8.535147247506917"><ele>430.0</ele><time>2026-04-10T16:04:01Z</time></trkpt><trkpt lat="39.51030829565703" lon="8.53496679539287"><ele>433.0</ele><time>2026-04-10T16:04:02Z</time></trkpt><trkpt lat="39.510423904227856" lon="8.534759655303771"><ele>436.0</ele><time>2026-04-10T16:04:03Z</time></trkpt><trkpt lat="39.51052192027693" lon="8.534545318200099"><ele>439.0</ele><time>2026-04-10T16:04:04Z</time></trkpt><trkpt lat="39.51060397236438" lon="8.534311766804706"><ele>439.0</ele><time>2026-04-10T16:04:05Z</time></trkpt><trkpt lat="39.51066515361027" lon="8.53405622682391"><ele>439.0</ele><time>2026-04-10T16:04:06Z</time></trkpt><trkpt lat="39.51071723584881" lon="8.533824436531265"><ele>439.0</ele><time>2026-04-10T16:04:07Z</time></trkpt><trkpt lat="39.51077128174715" lon="8.533621361243185"><ele>439.33333333333337</ele><time>2026-04-10T16:04:08Z</time></trkpt><trkpt lat="39.51083860321159" lon="8.533440562668503"><ele>439.66666666666663</ele><time>2026-04-10T16:04:09Z</time></trkpt><trkpt lat="39.510922442101474" lon="8.533281785825588"><ele>440.0</ele><time>2026-04-10T16:04:10Z</time></trkpt><trkpt lat="39.51102223215025" lon="8.533134677348238"><ele>440.0</ele><time>2026-04-10T16:04:11Z</time></trkpt><trkpt lat="39.511138167547166" lon="8.533011820101175"><ele>440.0</ele><time>2026-04-10T16:04:12Z</time></trkpt><trkpt lat="39.51128109792226" lon="8.532941797431704"><ele>440.0</ele><time>2026-04-10T16:04:13Z</time></trkpt><trkpt lat="39.511429216532335" lon="8.532853633923523"><ele>442.3333333333333</ele><time>2026-04-10T16:04:14Z</time></trkpt><trkpt lat="39.511590879267395" lon="8.532788148456943"><ele>444.66666666666663</ele><time>2026-04-10T16:04:15Z</time></trkpt><trkpt lat="39.51174510001578" lon="8.532710484038828"><ele>447.0</ele><time>2026-04-10T16:04:16Z</time></trkpt><trkpt lat="39.51188457535221" lon="8.532598353361806"><ele>447.0</ele><time>2026-04-10T16:04:17Z</time></trkpt><trkpt lat="39.512004821301815" lon="8.532454046475133"><ele>447.0</ele><time>2026-04-10T16:04:18Z</time></trkpt><trkpt lat="39.51210445722222" lon="8.532279502644432"><ele>447.0</ele><time>2026-04-10T16:04:19Z</time></trkpt><trkpt lat="39.51218571343085" lon="8.532082994638603"><ele>448.66666666666663</ele><time>2026-04-10T16:04:20Z</time></trkpt><trkpt lat="39.512257857427834" lon="8.531872943496966"><ele>450.3333333333333</ele><time>2026-04-10T16:04:21Z</time></trkpt><trkpt lat="39.51233064299908" lon="8.531671996622867"><ele>452.0</ele><time>2026-04-10T16:04:22Z</time></trkpt><trkpt lat="39.51240800609192" lon="8.5314808226785"><ele>452.0</ele><time>2026-04-10T16:04:23Z</time></trkpt><trkpt lat="39.51248896599508" lon="8.531289840388672"><ele>452.0</ele><time>2026-04-10T16:04:24Z</time></trkpt><trkpt lat="39.51257310698386" lon="8.531094289218505"><ele>452.0</ele><time>2026-04-10T16:04:25Z</time></trkpt><trkpt lat="39.51265342728564" lon="8.530895254280047"><ele>453.0</ele><time>2026-04-10T16:04:26Z</time></trkpt><trkpt lat="39.512730878636475" lon="8.530698841175544"><ele>454.0</ele><time>2026-04-10T16:04:27Z</time></trkpt><trkpt lat="39.512799714144506" lon="8.530523388094469"><ele>455.0</ele><time>2026-04-10T16:04:28Z</time></trkpt><trkpt lat="39.51284462793666" lon="8.530366711061824"><ele>455.5</ele><time>2026-04-10T16:04:29Z</time></trkpt><trkpt lat="39.512873141822524" lon="8.530203724766341"><ele>456.0</ele><time>2026-04-10T16:04:30Z</time></trkpt><trkpt lat="39.51285930522475" lon="8.530009476685242"><ele>456.5</ele><time>2026-04-10T16:04:31Z</time></trkpt><trkpt lat="39.51283245722694" lon="8.529808015917146"><ele>457.0</ele><time>2026-04-10T16:04:32Z</time></trkpt><trkpt lat="39.51280347740138" lon="8.529623532057526"><ele>457.75</ele><time>2026-04-10T16:04:33Z</time></trkpt><trkpt lat="39.512795485202226" lon="8.529445256820035"><ele>458.5</ele><time>2026-04-10T16:04:34Z</time></trkpt><trkpt lat="39.51281940397496" lon="8.529263234488292"><ele>459.25</ele><time>2026-04-10T16:04:35Z</time></trkpt><trkpt lat="39.51286449398019" lon="8.529077964613368"><ele>460.0</ele><time>2026-04-10T16:04:36Z</time></trkpt><trkpt lat="39.51293254406788" lon="8.528899277683603"><ele>460.75</ele><time>2026-04-10T16:04:37Z</time></trkpt><trkpt lat="39.513017813669016" lon="8.528751690175863"><ele>461.5</ele><time>2026-04-10T16:04:38Z</time></trkpt><trkpt lat="39.513113996239305" lon="8.528623666119936"><ele>462.25</ele><time>2026-04-10T16:04:39Z</time></trkpt><trkpt lat="39.513221799642096" lon="8.528496758339095"><ele>463.0</ele><time>2026-04-10T16:04:40Z</time></trkpt><trkpt lat="39.51332516942866" lon="8.528363257092257"><ele>463.0</ele><time>2026-04-10T16:04:41Z</time></trkpt><trkpt lat="39.51342039183641" lon="8.528222793988558"><ele>463.0</ele><time>2026-04-10T16:04:42Z</time></trkpt><trkpt lat="39.513494799879325" lon="8.52807560423709"><ele>463.0</ele><time>2026-04-10T16:04:43Z</time></trkpt><trkpt lat="39.513547243307386" lon="8.527913745176148"><ele>463.0</ele><time>2026-04-10T16:04:44Z</time></trkpt><trkpt lat="39.51357547677291" lon="8.527727983012207"><ele>462.33333333333337</ele><time>2026-04-10T16:04:45Z</time></trkpt><trkpt lat="39.513594744268055" lon="8.52753372345159"><ele>461.66666666666663</ele><time>2026-04-10T16:04:46Z</time></trkpt><trkpt lat="39.51359480004478" lon="8.527319840061557"><ele>461.0</ele><time>2026-04-10T16:04:47Z</time></trkpt><trkpt lat="39.513592481026635" lon="8.527094752539714"><ele>459.66666666666663</ele><time>2026-04-10T16:04:48Z</time></trkpt><trkpt lat="39.51358868086578" lon="8.526873886791957"><ele>458.33333333333337</ele><time>2026-04-10T16:04:49Z</time></trkpt><trkpt lat="39.513591043885995" lon="8.526650185690409"><ele>457.0</ele><time>2026-04-10T16:04:50Z</time></trkpt><trkpt lat="39.51359015779408" lon="8.52642770055034"><ele>456.0</ele><time>2026-04-10T16:04:51Z</time></trkpt><trkpt lat="39.51359734369595" lon="8.52619966896043"><ele>455.0</ele><time>2026-04-10T16:04:52Z</time></trkpt><trkpt lat="39.5136010960238" lon="8.525984152312896"><ele>454.0</ele><time>2026-04-10T16:04:53Z</time></trkpt><trkpt lat="39.51359315274978" lon="8.52578393029732"><ele>454.0</ele><time>2026-04-10T16:04:54Z</time></trkpt><trkpt lat="39.5135693638387" lon="8.525592997946232"><ele>454.0</ele><time>2026-04-10T16:04:55Z</time></trkpt><trkpt lat="39.51351193998003" lon="8.525419345507823"><ele>454.0</ele><time>2026-04-10T16:04:56Z</time></trkpt><trkpt lat="39.51342717737931" lon="8.525266179367248"><ele>454.0</ele><time>2026-04-10T16:04:57Z</time></trkpt><trkpt lat="39.51332985398399" lon="8.52513906659785"><ele>451.0</ele><time>2026-04-10T16:04:58Z</time></trkpt><trkpt lat="39.51323364229251" lon="8.525022295950107"><ele>448.0</ele><time>2026-04-10T16:04:59Z</time></trkpt><trkpt lat="39.51314789363807" lon="8.524900303934505"><ele>445.0</ele><time>2026-04-10T16:05:00Z</time></trkpt><trkpt lat="39.51307489696616" lon="8.524767125449445"><ele>442.0</ele><time>2026-04-10T16:05:01Z</time></trkpt><trkpt lat="39.51304302183591" lon="8.524607180108614"><ele>440.25</ele><time>2026-04-10T16:05:02Z</time></trkpt><trkpt lat="39.5130413222661" lon="8.524430393702463"><ele>438.5</ele><time>2026-04-10T16:05:03Z</time></trkpt><trkpt lat="39.513040514363595" lon="8.52423727284793"><ele>436.75</ele><time>2026-04-10T16:05:04Z</time></trkpt><trkpt lat="39.51301666762212" lon="8.524040431496822"><ele>435.0</ele><time>2026-04-10T16:05:05Z</time></trkpt><trkpt lat="39.51296150633543" lon="8.523841202252994"><ele>437.66666666666663</ele><time>2026-04-10T16:05:06Z</time></trkpt><trkpt lat="39.51287673847039" lon="8.523642237133373"><ele>440.3333333333333</ele><time>2026-04-10T16:05:07Z</time></trkpt><trkpt lat="39.51278461801383" lon="8.523477509485462"><ele>443.0</ele><time>2026-04-10T16:05:08Z</time></trkpt><trkpt lat="39.512710978599785" lon="8.52330372395648"><ele>443.0</ele><time>2026-04-10T16:05:09Z</time></trkpt><trkpt lat="39.51267481451856" lon="8.52312504590926"><ele>443.0</ele><time>2026-04-10T16:05:10Z</time></trkpt><trkpt lat="39.51267522217054" lon="8.522947771533977"><ele>443.0</ele><time>2026-04-10T16:05:11Z</time></trkpt><trkpt lat="39.51270431555845" lon="8.522776719222273"><ele>443.0</ele><time>2026-04-10T16:05:12Z</time></trkpt><trkpt lat="39.51276297480121" lon="8.522604812371462"><ele>441.3333333333333</ele><time>2026-04-10T16:05:13Z</time></trkpt><trkpt lat="39.512837083108316" lon="8.522430887082333"><ele>439.66666666666663</ele><time>2026-04-10T16:05:14Z</time></trkpt><trkpt lat="39.51290920515417" lon="8.522248384898097"><ele>438.0</ele><time>2026-04-10T16:05:15Z</time></trkpt><trkpt lat="39.512978908620575" lon="8.522054785388613"><ele>432.33333333333337</ele><time>2026-04-10T16:05:16Z</time></trkpt><trkpt lat="39.513043375617904" lon="8.521867614266924"><ele>426.6666666666667</ele><time>2026-04-10T16:05:17Z</time></trkpt><trkpt lat="39.51310607980991" lon="8.52168705175984"><ele>421.0</ele><time>2026-04-10T16:05:18Z</time></trkpt><trkpt lat="39.51316650303272" lon="8.52151894578627"><ele>421.0</ele><time>2026-04-10T16:05:19Z</time></trkpt><trkpt lat="39.51321398212789" lon="8.521361866420756"><ele>421.0</ele><time>2026-04-10T16:05:20Z</time></trkpt><trkpt lat="39.51324160857613" lon="8.521200897620362"><ele>421.0</ele><time>2026-04-10T16:05:21Z</time></trkpt><trkpt lat="39.51323772741692" lon="8.521037466067076"><ele>421.0</ele><time>2026-04-10T16:05:22Z</time></trkpt><trkpt lat="39.51320863758016" lon="8.520873279990868"><ele>419.5</ele><time>2026-04-10T16:05:23Z</time></trkpt><trkpt lat="39.513158145688024" lon="8.5207123429418"><ele>418.0</ele><time>2026-04-10T16:05:24Z</time></trkpt><trkpt lat="39.51308868489005" lon="8.520558372246247"><ele>416.5</ele><time>2026-04-10T16:05:25Z</time></trkpt><trkpt lat="39.51299340888639" lon="8.52042585359077"><ele>415.0</ele><time>2026-04-10T16:05:26Z</time></trkpt><trkpt lat="39.51288340440519" lon="8.520316172438735"><ele>412.75</ele><time>2026-04-10T16:05:27Z</time></trkpt><trkpt lat="39.51277702314699" lon="8.520219764222317"><ele>410.5</ele><time>2026-04-10T16:05:28Z</time></trkpt><trkpt lat="39.51267007827885" lon="8.520132648308127"><ele>408.25</ele><time>2026-04-10T16:05:29Z</time></trkpt><trkpt lat="39.512554993893815" lon="8.52006243546382"><ele>406.0</ele><time>2026-04-10T16:05:30Z</time></trkpt><trkpt lat="39.51242837528784" lon="8.520019553184282"><ele>406.0</ele><time>2026-04-10T16:05:31Z</time></trkpt><trkpt lat="39.512294367640294" lon="8.520013947834078"><ele>406.0</ele><time>2026-04-10T16:05:32Z</time></trkpt><trkpt lat="39.512146571994116" lon="8.52002571814214"><ele>406.0</ele><time>2026-04-10T16:05:33Z</time></trkpt><trkpt lat="39.51200138963445" lon="8.520039864274835"><ele>406.0</ele><time>2026-04-10T16:05:34Z</time></trkpt><trkpt lat="39.511855406698565" lon="8.520044896276941"><ele>406.5</ele><time>2026-04-10T16:05:35Z</time></trkpt><trkpt lat="39.51171621931269" lon="8.520017536476203"><ele>407.0</ele><time>2026-04-10T16:05:36Z</time></trkpt><trkpt lat="39.511588268468785" lon="8.519958482367391"><ele>407.5</ele><time>2026-04-10T16:05:37Z</time></trkpt><trkpt lat="39.511472426236075" lon="8.519879091516179"><ele>408.0</ele><time>2026-04-10T16:05:38Z</time></trkpt><trkpt lat="39.511371210649486" lon="8.519770276031851"><ele>408.0</ele><time>2026-04-10T16:05:39Z</time></trkpt><trkpt lat="39.51127845034557" lon="8.51964294938542"><ele>408.0</ele><time>2026-04-10T16:05:40Z</time></trkpt><trkpt lat="39.51120001532391" lon="8.519514376062952"><ele>408.0</ele><time>2026-04-10T16:05:41Z</time></trkpt><trkpt lat="39.511136406463876" lon="8.519404739439462"><ele>408.0</ele><time>2026-04-10T16:05:42Z</time></trkpt><trkpt lat="39.511083591928696" lon="8.519318437637256"><ele>408.14285714285717</ele><time>2026-04-10T16:05:43Z</time></trkpt><trkpt lat="39.511037809101985" lon="8.519242966203155"><ele>408.28571428571433</ele><time>2026-04-10T16:05:44Z</time></trkpt><trkpt lat="39.51100196103888" lon="8.519164999424396"><ele>408.42857142857144</ele><time>2026-04-10T16:05:45Z</time></trkpt><trkpt lat="39.510980615219836" lon="8.519077134227507"><ele>408.57142857142856</ele><time>2026-04-10T16:05:46Z</time></trkpt><trkpt lat="39.51097950538019" lon="8.51898059618073"><ele>408.7142857142857</ele><time>2026-04-10T16:05:47Z</time></trkpt><trkpt lat="39.51099285524719" lon="8.518887893317181"><ele>408.85714285714283</ele><time>2026-04-10T16:05:48Z</time></trkpt><trkpt lat="39.51101809560129" lon="8.518803558960773"><ele>409.0</ele><time>2026-04-10T16:05:49Z</time></trkpt><trkpt lat="39.511070626948595" lon="8.518726752248268"><ele>409.0</ele><time>2026-04-10T16:05:50Z</time></trkpt><trkpt lat="39.51115533408691" lon="8.518671299629803"><ele>409.0</ele><time>2026-04-10T16:05:51Z</time></trkpt><trkpt lat="39.51126101768824" lon="8.51864789613197"><ele>409.0</ele><time>2026-04-10T16:05:52Z</time></trkpt><trkpt lat="39.51137574482807" lon="8.518667355647823"><ele>409.0</ele><time>2026-04-10T16:05:53Z</time></trkpt><trkpt lat="39.51149596198186" lon="8.518749485883871"><ele>406.75</ele><time>2026-04-10T16:05:54Z</time></trkpt><trkpt lat="39.511639130168376" lon="8.518785269120457"><ele>404.5</ele><time>2026-04-10T16:05:55Z</time></trkpt><trkpt lat="39.51176198761989" lon="8.518835374352623"><ele>402.25</ele><time>2026-04-10T16:05:56Z</time></trkpt><trkpt lat="39.51189852893207" lon="8.51888189905442"><ele>400.0</ele><time>2026-04-10T16:05:57Z</time></trkpt><trkpt lat="39.51203717144596" lon="8.518891086696769"><ele>398.0</ele><time>2026-04-10T16:05:58Z</time></trkpt><trkpt lat="39.51219633803078" lon="8.518862707396403"><ele>396.0</ele><time>2026-04-10T16:05:59Z</time></trkpt><trkpt lat="39.5123532631788" lon="8.518820583928461"><ele>394.0</ele><time>2026-04-10T16:06:00Z</time></trkpt><trkpt lat="39.51251999684501" lon="8.51876849424312"><ele>393.6666666666667</ele><time>2026-04-10T16:06:01Z</time></trkpt><trkpt lat="39.51269606834512" lon="8.518697862263084"><ele>393.33333333333337</ele><time>2026-04-10T16:06:02Z</time></trkpt><trkpt lat="39.51287040409614" lon="8.518611208410032"><ele>393.0</ele><time>2026-04-10T16:06:03Z</time></trkpt><trkpt lat="39.51302874359504" lon="8.518516234052838"><ele>393.0</ele><time>2026-04-10T16:06:04Z</time></trkpt><trkpt lat="39.51318618644758" lon="8.51842500632879"><ele>393.0</ele><time>2026-04-10T16:06:05Z</time></trkpt><trkpt lat="39.51333268201498" lon="8.518358084178224"><ele>393.0</ele><time>2026-04-10T16:06:06Z</time></trkpt><trkpt lat="39.51348213691901" lon="8.518316330590665"><ele>393.0</ele><time>2026-04-10T16:06:07Z</time></trkpt><trkpt lat="39.51363492164949" lon="8.518293453417545"><ele>393.0</ele><time>2026-04-10T16:06:08Z</time></trkpt><trkpt lat="39.513778411744106" lon="8.518275949479886"><ele>393.0</ele><time>2026-04-10T16:06:09Z</time></trkpt><trkpt lat="39.51392145200674" lon="8.518262053345072"><ele>393.0</ele><time>2026-04-10T16:06:10Z</time></trkpt><trkpt lat="39.514039417428094" lon="8.51822021683344"><ele>391.79999999999995</ele><time>2026-04-10T16:06:11Z</time></trkpt><trkpt lat="39.514135605491845" lon="8.51820824661227"><ele>390.6</ele><time>2026-04-10T16:06:12Z</time></trkpt><trkpt lat="39.51422243994979" lon="8.518145134940562"><ele>389.4</ele><time>2026-04-10T16:06:13Z</time></trkpt><trkpt lat="39.51427959865369" lon="8.518037045794475"><ele>388.20000000000005</ele><time>2026-04-10T16:06:14Z</time></trkpt><trkpt lat="39.51429294293814" lon="8.517877810303634"><ele>387.0</ele><time>2026-04-10T16:06:15Z</time></trkpt><trkpt lat="39.514307051977454" lon="8.517715699277217"><ele>387.0</ele><time>2026-04-10T16:06:16Z</time></trkpt><trkpt lat="39.51432264390244" lon="8.517544226221512"><ele>387.0</ele><time>2026-04-10T16:06:17Z</time></trkpt><trkpt lat="39.51434867170136" lon="8.517375627208905"><ele>387.0</ele><time>2026-04-10T16:06:18Z</time></trkpt><trkpt lat="39.51440144505746" lon="8.51721173711315"><ele>387.0</ele><time>2026-04-10T16:06:19Z</time></trkpt><trkpt lat="39.514485485065094" lon="8.517053678167487"><ele>382.75</ele><time>2026-04-10T16:06:20Z</time></trkpt><trkpt lat="39.514581587545365" lon="8.51691102227133"><ele>378.5</ele><time>2026-04-10T16:06:21Z</time></trkpt><trkpt lat="39.5146866941295" lon="8.516783784611409"><ele>374.25</ele><time>2026-04-10T16:06:22Z</time></trkpt><trkpt lat="39.514791449234664" lon="8.516662875396538"><ele>370.0</ele><time>2026-04-10T16:06:23Z</time></trkpt><trkpt lat="39.51488931776457" lon="8.516548087805491"><ele>370.0</ele><time>2026-04-10T16:06:24Z</time></trkpt><trkpt lat="39.514976337412115" lon="8.516423362404932"><ele>370.0</ele><time>2026-04-10T16:06:25Z</time></trkpt><trkpt lat="39.515050748449504" lon="8.516280599813593"><ele>370.0</ele><time>2026-04-10T16:06:26Z</time></trkpt><trkpt lat="39.51510938448787" lon="8.516114192793069"><ele>370.0</ele><time>2026-04-10T16:06:27Z</time></trkpt><trkpt lat="39.51515167912872" lon="8.515938771762743"><ele>369.75</ele><time>2026-04-10T16:06:28Z</time></trkpt><trkpt lat="39.515159211410655" lon="8.515769294784835"><ele>369.5</ele><time>2026-04-10T16:06:29Z</time></trkpt><trkpt lat="39.515156083605994" lon="8.515612239883666"><ele>369.25</ele><time>2026-04-10T16:06:30Z</time></trkpt><trkpt lat="39.51512077153218" lon="8.515468165088857"><ele>369.0</ele><time>2026-04-10T16:06:31Z</time></trkpt><trkpt lat="39.51506521496691" lon="8.515346294302875"><ele>367.5</ele><time>2026-04-10T16:06:32Z</time></trkpt><trkpt lat="39.5149801652836" lon="8.515248404003195"><ele>366.0</ele><time>2026-04-10T16:06:33Z</time></trkpt><trkpt lat="39.514878386279484" lon="8.515161982076453"><ele>364.5</ele><time>2026-04-10T16:06:34Z</time></trkpt><trkpt lat="39.51477332990494" lon="8.51505952789343"><ele>363.0</ele><time>2026-04-10T16:06:35Z</time></trkpt><trkpt lat="39.51467212658589" lon="8.51493309141732"><ele>363.0</ele><time>2026-04-10T16:06:36Z</time></trkpt><trkpt lat="39.51459114042064" lon="8.514794219851488"><ele>363.0</ele><time>2026-04-10T16:06:37Z</time></trkpt><trkpt lat="39.514519315714345" lon="8.514651926984085"><ele>363.0</ele><time>2026-04-10T16:06:38Z</time></trkpt><trkpt lat="39.51445741992921" lon="8.51451674768232"><ele>363.0</ele><time>2026-04-10T16:06:39Z</time></trkpt><trkpt lat="39.514405813267636" lon="8.51439476779892"><ele>363.0</ele><time>2026-04-10T16:06:40Z</time></trkpt><trkpt lat="39.51436563537989" lon="8.51430016697323"><ele>363.0</ele><time>2026-04-10T16:06:41Z</time></trkpt><trkpt lat="39.51433044530494" lon="8.51422295902688"><ele>363.0</ele><time>2026-04-10T16:06:42Z</time></trkpt><trkpt lat="39.51429064171243" lon="8.514118139115554"><ele>363.0</ele><time>2026-04-10T16:06:44Z</time></trkpt><trkpt lat="39.51427319403981" lon="8.514015895211612"><ele>363.0</ele><time>2026-04-10T16:06:46Z</time></trkpt><trkpt lat="39.514341813886276" lon="8.513886032308584"><ele>363.0</ele><time>2026-04-10T16:06:48Z</time></trkpt><trkpt lat="39.51442549430121" lon="8.513867989328595"><ele>363.0</ele><time>2026-04-10T16:06:49Z</time></trkpt><trkpt lat="39.51451282113158" lon="8.513895163953514"><ele>363.0</ele><time>2026-04-10T16:06:50Z</time></trkpt><trkpt lat="39.5145990191337" lon="8.513972697485997"><ele>363.0</ele><time>2026-04-10T16:06:51Z</time></trkpt><trkpt lat="39.51469321033706" lon="8.514037511946439"><ele>363.0</ele><time>2026-04-10T16:06:52Z</time></trkpt><trkpt lat="39.51480269408218" lon="8.514066774144844"><ele>363.0</ele><time>2026-04-10T16:06:53Z</time></trkpt><trkpt lat="39.51491384511066" lon="8.514033354770978"><ele>360.5</ele><time>2026-04-10T16:06:54Z</time></trkpt><trkpt lat="39.515013329015524" lon="8.513953457061591"><ele>358.0</ele><time>2026-04-10T16:06:55Z</time></trkpt><trkpt lat="39.51510573543577" lon="8.513865107017574"><ele>355.5</ele><time>2026-04-10T16:06:56Z</time></trkpt><trkpt lat="39.51519611585354" lon="8.513774921215639"><ele>353.0</ele><time>2026-04-10T16:06:57Z</time></trkpt><trkpt lat="39.51527856440645" lon="8.51368429358076"><ele>350.0</ele><time>2026-04-10T16:06:58Z</time></trkpt><trkpt lat="39.51533943693544" lon="8.513574030955002"><ele>347.0</ele><time>2026-04-10T16:06:59Z</time></trkpt><trkpt lat="39.51536298078971" lon="8.513439994076004"><ele>344.0</ele><time>2026-04-10T16:07:00Z</time></trkpt><trkpt lat="39.51535612127312" lon="8.513284953724503"><ele>341.0</ele><time>2026-04-10T16:07:01Z</time></trkpt><trkpt lat="39.515343271419155" lon="8.5131073829595"><ele>341.0</ele><time>2026-04-10T16:07:02Z</time></trkpt><trkpt lat="39.51533978166977" lon="8.512925998415954"><ele>341.0</ele><time>2026-04-10T16:07:03Z</time></trkpt><trkpt lat="39.51533734161753" lon="8.51274611113644"><ele>341.0</ele><time>2026-04-10T16:07:04Z</time></trkpt><trkpt lat="39.51533408105712" lon="8.512572986363477"><ele>341.0</ele><time>2026-04-10T16:07:05Z</time></trkpt><trkpt lat="39.51532395939916" lon="8.51240368405516"><ele>338.25</ele><time>2026-04-10T16:07:06Z</time></trkpt><trkpt lat="39.51529506358866" lon="8.512242579294188"><ele>335.5</ele><time>2026-04-10T16:07:07Z</time></trkpt><trkpt lat="39.51525014312961" lon="8.512091893528916"><ele>332.75</ele><time>2026-04-10T16:07:08Z</time></trkpt><trkpt lat="39.51519904923988" lon="8.511955056187034"><ele>330.0</ele><time>2026-04-10T16:07:09Z</time></trkpt><trkpt lat="39.515159038243276" lon="8.511821707777038"><ele>328.6</ele><time>2026-04-10T16:07:10Z</time></trkpt><trkpt lat="39.515150163373164" lon="8.511689214213193"><ele>327.2</ele><time>2026-04-10T16:07:11Z</time></trkpt><trkpt lat="39.51517585037941" lon="8.511568848749082"><ele>325.79999999999995</ele><time>2026-04-10T16:07:12Z</time></trkpt><trkpt lat="39.51523986501091" lon="8.511464067797908"><ele>324.4</ele><time>2026-04-10T16:07:13Z</time></trkpt><trkpt lat="39.5153259274062" lon="8.511371320371177"><ele>323.0</ele><time>2026-04-10T16:07:14Z</time></trkpt><trkpt lat="39.51542401960429" lon="8.511266548613255"><ele>318.5</ele><time>2026-04-10T16:07:15Z</time></trkpt><trkpt lat="39.51552263188037" lon="8.511160538475004"><ele>314.0</ele><time>2026-04-10T16:07:16Z</time></trkpt><trkpt lat="39.515621489475954" lon="8.511072935462295"><ele>309.5</ele><time>2026-04-10T16:07:17Z</time></trkpt><trkpt lat="39.51573228275384" lon="8.511024326732162"><ele>305.0</ele><time>2026-04-10T16:07:18Z</time></trkpt><trkpt lat="39.51584549038314" lon="8.511030647330603"><ele>305.0</ele><time>2026-04-10T16:07:19Z</time></trkpt><trkpt lat="39.51594623168609" lon="8.51109199664121"><ele>305.0</ele><time>2026-04-10T16:07:20Z</time></trkpt><trkpt lat="39.51601331938617" lon="8.51119218815999"><ele>305.0</ele><time>2026-04-10T16:07:21Z</time></trkpt><trkpt lat="39.51604287960248" lon="8.511317481309494"><ele>305.0</ele><time>2026-04-10T16:07:22Z</time></trkpt><trkpt lat="39.516045350481036" lon="8.511462618689606"><ele>305.0</ele><time>2026-04-10T16:07:23Z</time></trkpt><trkpt lat="39.51603167663211" lon="8.511598092182469"><ele>302.8</ele><time>2026-04-10T16:07:24Z</time></trkpt><trkpt lat="39.516030075362195" lon="8.511723762548732"><ele>300.6</ele><time>2026-04-10T16:07:25Z</time></trkpt><trkpt lat="39.516051969692406" lon="8.511834230949253"><ele>298.4</ele><time>2026-04-10T16:07:26Z</time></trkpt><trkpt lat="39.516116585113" lon="8.511924467189978"><ele>296.2</ele><time>2026-04-10T16:07:27Z</time></trkpt><trkpt lat="39.51621226523194" lon="8.51198917149945"><ele>294.0</ele><time>2026-04-10T16:07:28Z</time></trkpt><trkpt lat="39.51633012462406" lon="8.512048769036245"><ele>300.5</ele><time>2026-04-10T16:07:29Z</time></trkpt><trkpt lat="39.51646249999892" lon="8.512101814065423"><ele>307.0</ele><time>2026-04-10T16:07:30Z</time></trkpt><trkpt lat="39.51659500352024" lon="8.512170628537449"><ele>313.5</ele><time>2026-04-10T16:07:31Z</time></trkpt><trkpt lat="39.51671876243497" lon="8.512241360339893"><ele>320.0</ele><time>2026-04-10T16:07:32Z</time></trkpt><trkpt lat="39.51683399017909" lon="8.512318483226256"><ele>320.0</ele><time>2026-04-10T16:07:33Z</time></trkpt><trkpt lat="39.51694418086222" lon="8.512397568445477"><ele>320.0</ele><time>2026-04-10T16:07:34Z</time></trkpt><trkpt lat="39.5170538831103" lon="8.512473547550728"><ele>320.0</ele><time>2026-04-10T16:07:35Z</time></trkpt><trkpt lat="39.51715859877672" lon="8.512545337917853"><ele>320.0</ele><time>2026-04-10T16:07:36Z</time></trkpt><trkpt lat="39.517257178140476" lon="8.512601505733034"><ele>318.0</ele><time>2026-04-10T16:07:37Z</time></trkpt><trkpt lat="39.51735211275139" lon="8.512623728501454"><ele>316.0</ele><time>2026-04-10T16:07:38Z</time></trkpt><trkpt lat="39.51744501374877" lon="8.51258678624227"><ele>314.0</ele><time>2026-04-10T16:07:39Z</time></trkpt><trkpt lat="39.51753024123648" lon="8.512495488421788"><ele>312.0</ele><time>2026-04-10T16:07:40Z</time></trkpt><trkpt lat="39.51759993283728" lon="8.512340193238632"><ele>310.0</ele><time>2026-04-10T16:07:41Z</time></trkpt><trkpt lat="39.51766625350604" lon="8.512163761254927"><ele>302.75</ele><time>2026-04-10T16:07:42Z</time></trkpt><trkpt lat="39.5177376604818" lon="8.51199531788286"><ele>295.5</ele><time>2026-04-10T16:07:43Z</time></trkpt><trkpt lat="39.51780208098554" lon="8.51183146580716"><ele>288.25</ele><time>2026-04-10T16:07:44Z</time></trkpt><trkpt lat="39.51785379870682" lon="8.511672994586434"><ele>281.0</ele><time>2026-04-10T16:07:45Z</time></trkpt><trkpt lat="39.51788970248978" lon="8.511513714491576"><ele>281.0</ele><time>2026-04-10T16:07:46Z</time></trkpt><trkpt lat="39.51789916710732" lon="8.51135438004067"><ele>281.0</ele><time>2026-04-10T16:07:47Z</time></trkpt><trkpt lat="39.5178905096535" lon="8.511196988384954"><ele>281.0</ele><time>2026-04-10T16:07:48Z</time></trkpt><trkpt lat="39.517896303040914" lon="8.511052238688956"><ele>281.0</ele><time>2026-04-10T16:07:49Z</time></trkpt><trkpt lat="39.517942217900476" lon="8.510926385565194"><ele>283.0</ele><time>2026-04-10T16:07:50Z</time></trkpt><trkpt lat="39.51803662484345" lon="8.510834074084148"><ele>285.0</ele><time>2026-04-10T16:07:51Z</time></trkpt><trkpt lat="39.51813067331317" lon="8.510700094225466"><ele>287.0</ele><time>2026-04-10T16:07:52Z</time></trkpt><trkpt lat="39.51823507359289" lon="8.510577465223122"><ele>289.0</ele><time>2026-04-10T16:07:53Z</time></trkpt><trkpt lat="39.51833099331223" lon="8.51045855163695"><ele>284.59999999999997</ele><time>2026-04-10T16:07:54Z</time></trkpt><trkpt lat="39.51842132810002" lon="8.51034794589985"><ele>280.2</ele><time>2026-04-10T16:07:55Z</time></trkpt><trkpt lat="39.51849541164847" lon="8.510260466428617"><ele>275.79999999999995</ele><time>2026-04-10T16:07:56Z</time></trkpt><trkpt lat="39.51855917801519" lon="8.51019872698142"><ele>271.4</ele><time>2026-04-10T16:07:57Z</time></trkpt><trkpt lat="39.518682152253525" lon="8.51021887999861"><ele>267.0</ele><time>2026-04-10T16:07:59Z</time></trkpt><trkpt lat="39.518712278356865" lon="8.510312007491736"><ele>267.0</ele><time>2026-04-10T16:08:00Z</time></trkpt><trkpt lat="39.51872589687288" lon="8.510406366117797"><ele>267.0</ele><time>2026-04-10T16:08:01Z</time></trkpt><trkpt lat="39.518757814627456" lon="8.51050999009044"><ele>267.0</ele><time>2026-04-10T16:08:02Z</time></trkpt><trkpt lat="39.51877572582956" lon="8.51060330652179"><ele>267.0</ele><time>2026-04-10T16:08:03Z</time></trkpt><trkpt lat="39.51878620554143" lon="8.510737114118793"><ele>267.0</ele><time>2026-04-10T16:08:05Z</time></trkpt><trkpt lat="39.518779946635604" lon="8.510864825195815"><ele>267.0</ele><time>2026-04-10T16:08:07Z</time></trkpt><trkpt lat="39.51878160730679" lon="8.510951466908933"><ele>267.4</ele><time>2026-04-10T16:08:08Z</time></trkpt><trkpt lat="39.51878875609333" lon="8.511110104595463"><ele>267.79999999999995</ele><time>2026-04-10T16:08:10Z</time></trkpt><trkpt lat="39.51879648082999" lon="8.511207167808973"><ele>268.2</ele><time>2026-04-10T16:08:11Z</time></trkpt><trkpt lat="39.51883869107893" lon="8.511316920762223"><ele>268.59999999999997</ele><time>2026-04-10T16:08:12Z</time></trkpt><trkpt lat="39.51890836047179" lon="8.511424438362026"><ele>269.0</ele><time>2026-04-10T16:08:13Z</time></trkpt><trkpt lat="39.51898683922286" lon="8.511514967600968"><ele>272.2</ele><time>2026-04-10T16:08:14Z</time></trkpt><trkpt lat="39.519090642293676" lon="8.511559095299983"><ele>275.4</ele><time>2026-04-10T16:08:15Z</time></trkpt><trkpt lat="39.51919242037367" lon="8.511612165406465"><ele>278.6</ele><time>2026-04-10T16:08:16Z</time></trkpt><trkpt lat="39.51930109593881" lon="8.511643706973143"><ele>281.8</ele><time>2026-04-10T16:08:17Z</time></trkpt><trkpt lat="39.51940415506378" lon="8.511649916133532"><ele>285.0</ele><time>2026-04-10T16:08:18Z</time></trkpt><trkpt lat="39.519488673943115" lon="8.511673796355847"><ele>285.0</ele><time>2026-04-10T16:08:19Z</time></trkpt><trkpt lat="39.51956152955317" lon="8.511699102240549"><ele>285.0</ele><time>2026-04-10T16:08:20Z</time></trkpt><trkpt lat="39.51963039210988" lon="8.511742822538931"><ele>285.0</ele><time>2026-04-10T16:08:21Z</time></trkpt><trkpt lat="39.519663457291344" lon="8.511834341227848"><ele>285.0</ele><time>2026-04-10T16:08:22Z</time></trkpt><trkpt lat="39.519704039023594" lon="8.511905537181569"><ele>285.0</ele><time>2026-04-10T16:08:23Z</time></trkpt><trkpt lat="39.51974564989087" lon="8.511973164113217"><ele>285.0</ele><time>2026-04-10T16:08:24Z</time></trkpt><trkpt lat="39.519812816200066" lon="8.511996209546444"><ele>285.0</ele><time>2026-04-10T16:08:25Z</time></trkpt><trkpt lat="39.51988503154038" lon="8.511989051942008"><ele>282.1666666666667</ele><time>2026-04-10T16:08:26Z</time></trkpt><trkpt lat="39.51996573868667" lon="8.511958141461864"><ele>279.3333333333333</ele><time>2026-04-10T16:08:27Z</time></trkpt><trkpt lat="39.520055800378444" lon="8.511907964684609"><ele>276.5</ele><time>2026-04-10T16:08:28Z</time></trkpt><trkpt lat="39.52012779390949" lon="8.511850725850662"><ele>273.66666666666663</ele><time>2026-04-10T16:08:29Z</time></trkpt><trkpt lat="39.52019626427465" lon="8.511791006994732"><ele>270.8333333333333</ele><time>2026-04-10T16:08:30Z</time></trkpt><trkpt lat="39.520258754214844" lon="8.511710658907013"><ele>268.0</ele><time>2026-04-10T16:08:31Z</time></trkpt><trkpt lat="39.52030922023567" lon="8.511615998034227"><ele>268.0</ele><time>2026-04-10T16:08:32Z</time></trkpt><trkpt lat="39.5203414969701" lon="8.511514104224267"><ele>268.0</ele><time>2026-04-10T16:08:33Z</time></trkpt><trkpt lat="39.520363385330995" lon="8.511424753935074"><ele>268.0</ele><time>2026-04-10T16:08:34Z</time></trkpt><trkpt lat="39.5203987426846" lon="8.51130627432542"><ele>268.0</ele><time>2026-04-10T16:08:36Z</time></trkpt><trkpt lat="39.520431799119145" lon="8.51118740981913"><ele>268.0</ele><time>2026-04-10T16:08:38Z</time></trkpt><trkpt lat="39.52047302946868" lon="8.511083768873839"><ele>268.0</ele><time>2026-04-10T16:08:40Z</time></trkpt><trkpt lat="39.52054964221536" lon="8.511019125668641"><ele>266.6</ele><time>2026-04-10T16:08:42Z</time></trkpt><trkpt lat="39.52062622622719" lon="8.511014661045541"><ele>265.20000000000005</ele><time>2026-04-10T16:08:43Z</time></trkpt><trkpt lat="39.520711833713285" lon="8.510964870997206"><ele>263.8</ele><time>2026-04-10T16:08:44Z</time></trkpt><trkpt lat="39.52079805193075" lon="8.510919706413576"><ele>262.40000000000003</ele><time>2026-04-10T16:08:45Z</time></trkpt><trkpt lat="39.52087890493858" lon="8.510853464584844"><ele>261.0</ele><time>2026-04-10T16:08:46Z</time></trkpt><trkpt lat="39.52095560285895" lon="8.51076391616243"><ele>261.0</ele><time>2026-04-10T16:08:47Z</time></trkpt><trkpt lat="39.521010645271545" lon="8.510641702227247"><ele>261.0</ele><time>2026-04-10T16:08:48Z</time></trkpt><trkpt lat="39.52106050067191" lon="8.510502985094067"><ele>261.0</ele><time>2026-04-10T16:08:49Z</time></trkpt><trkpt lat="39.52112268421519" lon="8.510388214527643"><ele>261.0</ele><time>2026-04-10T16:08:50Z</time></trkpt><trkpt lat="39.52120704285775" lon="8.510346832810407"><ele>261.0</ele><time>2026-04-10T16:08:51Z</time></trkpt><trkpt lat="39.5212927638343" lon="8.510349603511136"><ele>259.6666666666667</ele><time>2026-04-10T16:08:52Z</time></trkpt><trkpt lat="39.52136467324418" lon="8.510411415803071"><ele>258.3333333333333</ele><time>2026-04-10T16:08:53Z</time></trkpt><trkpt lat="39.521414255691944" lon="8.510509509423692"><ele>257.0</ele><time>2026-04-10T16:08:54Z</time></trkpt><trkpt lat="39.521450196690886" lon="8.510621940955224"><ele>255.66666666666666</ele><time>2026-04-10T16:08:55Z</time></trkpt><trkpt lat="39.52144526851667" lon="8.510744621675341"><ele>254.33333333333331</ele><time>2026-04-10T16:08:56Z</time></trkpt><trkpt lat="39.521446351077245" lon="8.51084406164443"><ele>253.0</ele><time>2026-04-10T16:08:57Z</time></trkpt><trkpt lat="39.52145823066202" lon="8.510957357589586"><ele>253.0</ele><time>2026-04-10T16:08:59Z</time></trkpt><trkpt lat="39.52150831556148" lon="8.511023246323129"><ele>253.0</ele><time>2026-04-10T16:09:02Z</time></trkpt><trkpt lat="39.521573079819305" lon="8.510715296440258"><ele>253.0</ele><time>2026-04-10T16:09:04Z</time></trkpt><trkpt lat="39.52158123044536" lon="8.510591769297562"><ele>253.0</ele><time>2026-04-10T16:09:05Z</time></trkpt><trkpt lat="39.52157028810118" lon="8.510469703886194"><ele>249.2</ele><time>2026-04-10T16:09:06Z</time></trkpt><trkpt lat="39.521538688455564" lon="8.510362718651372"><ele>245.4</ele><time>2026-04-10T16:09:07Z</time></trkpt><trkpt lat="39.521503002477914" lon="8.510259896458273"><ele>241.59999999999997</ele><time>2026-04-10T16:09:08Z</time></trkpt><trkpt lat="39.52146185619031" lon="8.510154093599946"><ele>237.79999999999998</ele><time>2026-04-10T16:09:09Z</time></trkpt><trkpt lat="39.52141856814137" lon="8.510044797439345"><ele>234.0</ele><time>2026-04-10T16:09:10Z</time></trkpt><trkpt lat="39.521363889346325" lon="8.50995342197784"><ele>234.0</ele><time>2026-04-10T16:09:11Z</time></trkpt><trkpt lat="39.52129235497227" lon="8.50988816332074"><ele>233.99999999999997</ele><time>2026-04-10T16:09:12Z</time></trkpt><trkpt lat="39.52120758037437" lon="8.509858472259422"><ele>233.99999999999997</ele><time>2026-04-10T16:09:13Z</time></trkpt><trkpt lat="39.52111660216012" lon="8.509873464679758"><ele>234.0</ele><time>2026-04-10T16:09:14Z</time></trkpt><trkpt lat="39.52101520966623" lon="8.509932671269294"><ele>234.0</ele><time>2026-04-10T16:09:15Z</time></trkpt><trkpt lat="39.52092593179487" lon="8.510021361468924"><ele>234.5</ele><time>2026-04-10T16:09:16Z</time></trkpt><trkpt lat="39.520848077480665" lon="8.510117311043793"><ele>235.0</ele><time>2026-04-10T16:09:17Z</time></trkpt><trkpt lat="39.52079680093378" lon="8.510228275472562"><ele>235.5</ele><time>2026-04-10T16:09:18Z</time></trkpt><trkpt lat="39.52075952961308" lon="8.510320725576063"><ele>236.0</ele><time>2026-04-10T16:09:19Z</time></trkpt><trkpt lat="39.52071972048134" lon="8.510409726784072"><ele>236.5</ele><time>2026-04-10T16:09:20Z</time></trkpt><trkpt lat="39.520647756413844" lon="8.510453491134838"><ele>237.0</ele><time>2026-04-10T16:09:21Z</time></trkpt><trkpt lat="39.52056898159427" lon="8.510456734963705"><ele>237.0</ele><time>2026-04-10T16:09:22Z</time></trkpt><trkpt lat="39.52050553303242" lon="8.510395799425828"><ele>237.0</ele><time>2026-04-10T16:09:23Z</time></trkpt><trkpt lat="39.520431622377146" lon="8.51036478256768"><ele>237.0</ele><time>2026-04-10T16:09:24Z</time></trkpt><trkpt lat="39.52035985506394" lon="8.510335220662778"><ele>237.0</ele><time>2026-04-10T16:09:25Z</time></trkpt><trkpt lat="39.520281923938036" lon="8.510306294603994"><ele>237.0</ele><time>2026-04-10T16:09:26Z</time></trkpt><trkpt lat="39.520203211345425" lon="8.510334729690014"><ele>237.0</ele><time>2026-04-10T16:09:27Z</time></trkpt><trkpt lat="39.520137824869806" lon="8.510401062818369"><ele>236.33333333333334</ele><time>2026-04-10T16:09:28Z</time></trkpt><trkpt lat="39.52009866170368" lon="8.510500042150856"><ele>235.66666666666669</ele><time>2026-04-10T16:09:29Z</time></trkpt><trkpt lat="39.520055247003725" lon="8.510614411885774"><ele>235.0</ele><time>2026-04-10T16:09:31Z</time></trkpt><trkpt lat="39.519981279097635" lon="8.510601259332873"><ele>234.33333333333334</ele><time>2026-04-10T16:09:33Z</time></trkpt><trkpt lat="39.519931188482225" lon="8.51054928197834"><ele>233.66666666666669</ele><time>2026-04-10T16:09:34Z</time></trkpt><trkpt lat="39.5199204248084" lon="8.51041842459461"><ele>233.0</ele><time>2026-04-10T16:09:36Z</time></trkpt><trkpt lat="39.519971439176906" lon="8.510334235176916"><ele>233.00000000000003</ele><time>2026-04-10T16:09:37Z</time></trkpt><trkpt lat="39.52000010001248" lon="8.510255729518057"><ele>233.0</ele><time>2026-04-10T16:09:38Z</time></trkpt><trkpt lat="39.5199910260194" lon="8.510174146988483"><ele>233.0</ele><time>2026-04-10T16:09:39Z</time></trkpt><trkpt lat="39.51994589654785" lon="8.510113378611168"><ele>233.0</ele><time>2026-04-10T16:09:40Z</time></trkpt><trkpt lat="39.51988963622499" lon="8.510071627119135"><ele>233.00000000000003</ele><time>2026-04-10T16:09:41Z</time></trkpt><trkpt lat="39.51985388904055" lon="8.509948461551321"><ele>233.0</ele><time>2026-04-10T16:09:43Z</time></trkpt><trkpt lat="39.51995704293551" lon="8.509905763095674"><ele>233.0</ele><time>2026-04-10T16:09:45Z</time></trkpt><trkpt lat="39.520069326001206" lon="8.509953522413488"><ele>233.0</ele><time>2026-04-10T16:09:46Z</time></trkpt><trkpt lat="39.52017701089047" lon="8.509983879605285"><ele>233.0</ele><time>2026-04-10T16:09:47Z</time></trkpt><trkpt lat="39.52027838834223" lon="8.510002404949885"><ele>233.0</ele><time>2026-04-10T16:09:48Z</time></trkpt><trkpt lat="39.52037366161699" lon="8.510020756506867"><ele>233.0</ele><time>2026-04-10T16:09:49Z</time></trkpt><trkpt lat="39.52045658758373" lon="8.510019974492861"><ele>233.8</ele><time>2026-04-10T16:09:50Z</time></trkpt><trkpt lat="39.52053793307841" lon="8.509975665748561"><ele>234.60000000000002</ele><time>2026-04-10T16:09:51Z</time></trkpt><trkpt lat="39.52061693124181" lon="8.509885616090836"><ele>235.39999999999998</ele><time>2026-04-10T16:09:52Z</time></trkpt><trkpt lat="39.520696388445494" lon="8.509766104768648"><ele>236.2</ele><time>2026-04-10T16:09:53Z</time></trkpt><trkpt lat="39.52076538971889" lon="8.50965216554497"><ele>237.0</ele><time>2026-04-10T16:09:54Z</time></trkpt><trkpt lat="39.520828127621165" lon="8.509542075028516"><ele>232.8</ele><time>2026-04-10T16:09:55Z</time></trkpt><trkpt lat="39.520884872966555" lon="8.509435609884672"><ele>228.6</ele><time>2026-04-10T16:09:56Z</time></trkpt><trkpt lat="39.52093695428882" lon="8.509331736679265"><ele>224.40000000000003</ele><time>2026-04-10T16:09:57Z</time></trkpt><trkpt lat="39.52098720630642" lon="8.509231758041045"><ele>220.20000000000002</ele><time>2026-04-10T16:09:58Z</time></trkpt><trkpt lat="39.52104360480397" lon="8.509136780083901"><ele>216.0</ele><time>2026-04-10T16:09:59Z</time></trkpt><trkpt lat="39.52111873533491" lon="8.509040696336593"><ele>216.0</ele><time>2026-04-10T16:10:00Z</time></trkpt><trkpt lat="39.521202987967456" lon="8.508955407458298"><ele>216.00000000000003</ele><time>2026-04-10T16:10:01Z</time></trkpt><trkpt lat="39.52129897096448" lon="8.508880868855117"><ele>216.00000000000003</ele><time>2026-04-10T16:10:02Z</time></trkpt><trkpt lat="39.52139591014347" lon="8.508840127927352"><ele>216.0</ele><time>2026-04-10T16:10:03Z</time></trkpt><trkpt lat="39.52148519077371" lon="8.508842050454314"><ele>216.0</ele><time>2026-04-10T16:10:04Z</time></trkpt><trkpt lat="39.52155479377473" lon="8.508888958486121"><ele>214.0</ele><time>2026-04-10T16:10:05Z</time></trkpt><trkpt lat="39.52160299900001" lon="8.508985586034505"><ele>212.0</ele><time>2026-04-10T16:10:06Z</time></trkpt><trkpt lat="39.52164931535982" lon="8.509113242687226"><ele>210.0</ele><time>2026-04-10T16:10:07Z</time></trkpt><trkpt lat="39.521733914730035" lon="8.509252411644102"><ele>208.0</ele><time>2026-04-10T16:10:08Z</time></trkpt><trkpt lat="39.521831992132924" lon="8.509409878171054"><ele>208.0</ele><time>2026-04-10T16:10:09Z</time></trkpt><trkpt lat="39.52192612533578" lon="8.509546844388742"><ele>208.0</ele><time>2026-04-10T16:10:10Z</time></trkpt><trkpt lat="39.52201841389801" lon="8.509664237235247"><ele>208.0</ele><time>2026-04-10T16:10:11Z</time></trkpt><trkpt lat="39.522105061654784" lon="8.509774431519084"><ele>208.0</ele><time>2026-04-10T16:10:12Z</time></trkpt><trkpt lat="39.52219153547262" lon="8.509880986007696"><ele>207.60000000000002</ele><time>2026-04-10T16:10:13Z</time></trkpt><trkpt lat="39.52228147080267" lon="8.509967426136212"><ele>207.20000000000002</ele><time>2026-04-10T16:10:14Z</time></trkpt><trkpt lat="39.52237620897935" lon="8.510031292312437"><ele>206.8</ele><time>2026-04-10T16:10:15Z</time></trkpt><trkpt lat="39.522476491541305" lon="8.510069656913652"><ele>206.4</ele><time>2026-04-10T16:10:16Z</time></trkpt><trkpt lat="39.52258408414958" lon="8.510087995682765"><ele>206.0</ele><time>2026-04-10T16:10:17Z</time></trkpt><trkpt lat="39.52269459555034" lon="8.510111742248695"><ele>206.0</ele><time>2026-04-10T16:10:18Z</time></trkpt><trkpt lat="39.52279846906723" lon="8.510154365381064"><ele>206.0</ele><time>2026-04-10T16:10:19Z</time></trkpt><trkpt lat="39.5228958427894" lon="8.510203467356728"><ele>206.0</ele><time>2026-04-10T16:10:20Z</time></trkpt><trkpt lat="39.52299115281631" lon="8.510233630888154"><ele>206.0</ele><time>2026-04-10T16:10:21Z</time></trkpt><trkpt lat="39.52308409624165" lon="8.510222431690437"><ele>206.0</ele><time>2026-04-10T16:10:22Z</time></trkpt><trkpt lat="39.52316238956016" lon="8.510199669609532"><ele>206.16666666666669</ele><time>2026-04-10T16:10:23Z</time></trkpt><trkpt lat="39.52323224819645" lon="8.51017280888288"><ele>206.33333333333334</ele><time>2026-04-10T16:10:24Z</time></trkpt><trkpt lat="39.523295192353444" lon="8.510028357072883"><ele>206.5</ele><time>2026-04-10T16:10:26Z</time></trkpt><trkpt lat="39.52327561222485" lon="8.509928898665224"><ele>206.66666666666669</ele><time>2026-04-10T16:10:27Z</time></trkpt><trkpt lat="39.523225363582156" lon="8.509849713260179"><ele>206.83333333333334</ele><time>2026-04-10T16:10:28Z</time></trkpt><trkpt lat="39.52315836407476" lon="8.509788923945054"><ele>207.0</ele><time>2026-04-10T16:10:29Z</time></trkpt><trkpt lat="39.52308093256684" lon="8.509727530334601"><ele>207.0</ele><time>2026-04-10T16:10:30Z</time></trkpt><trkpt lat="39.52297509569043" lon="8.509692970772784"><ele>207.0</ele><time>2026-04-10T16:10:31Z</time></trkpt><trkpt lat="39.52286245123806" lon="8.509650927535718"><ele>207.0</ele><time>2026-04-10T16:10:32Z</time></trkpt><trkpt lat="39.522758805276695" lon="8.509599708366824"><ele>207.0</ele><time>2026-04-10T16:10:33Z</time></trkpt><trkpt lat="39.52265628720243" lon="8.509541765493788"><ele>207.0</ele><time>2026-04-10T16:10:34Z</time></trkpt><trkpt lat="39.52256182322723" lon="8.509485397551359"><ele>206.0</ele><time>2026-04-10T16:10:35Z</time></trkpt><trkpt lat="39.52248630178194" lon="8.50942427675764"><ele>205.0</ele><time>2026-04-10T16:10:36Z</time></trkpt><trkpt lat="39.52241448825729" lon="8.509336808469447"><ele>204.0</ele><time>2026-04-10T16:10:37Z</time></trkpt><trkpt lat="39.52236888746694" lon="8.509221897842396"><ele>203.0</ele><time>2026-04-10T16:10:38Z</time></trkpt><trkpt lat="39.5223244982555" lon="8.509103138271009"><ele>202.0</ele><time>2026-04-10T16:10:39Z</time></trkpt><trkpt lat="39.52227336308524" lon="8.508992454918092"><ele>202.0</ele><time>2026-04-10T16:10:40Z</time></trkpt><trkpt lat="39.5222329510212" lon="8.508880340809428"><ele>202.0</ele><time>2026-04-10T16:10:41Z</time></trkpt><trkpt lat="39.52219245878468" lon="8.508749874495972"><ele>202.0</ele><time>2026-04-10T16:10:42Z</time></trkpt><trkpt lat="39.52214526158884" lon="8.508607061947432"><ele>202.0</ele><time>2026-04-10T16:10:43Z</time></trkpt><trkpt lat="39.522113179946814" lon="8.508447588244795"><ele>199.25</ele><time>2026-04-10T16:10:44Z</time></trkpt><trkpt lat="39.52204543684144" lon="8.508310499437886"><ele>196.5</ele><time>2026-04-10T16:10:45Z</time></trkpt><trkpt lat="39.52198319475915" lon="8.508158851963296"><ele>193.75</ele><time>2026-04-10T16:10:46Z</time></trkpt><trkpt lat="39.521905159807844" lon="8.508025189413477"><ele>191.0</ele><time>2026-04-10T16:10:47Z</time></trkpt><trkpt lat="39.52182928597893" lon="8.50788095390308"><ele>189.0</ele><time>2026-04-10T16:10:48Z</time></trkpt><trkpt lat="39.521761575523314" lon="8.507725369658335"><ele>187.0</ele><time>2026-04-10T16:10:49Z</time></trkpt><trkpt lat="39.52171296142535" lon="8.507552615093807"><ele>185.0</ele><time>2026-04-10T16:10:50Z</time></trkpt><trkpt lat="39.52167462787016" lon="8.507386005888623"><ele>183.0</ele><time>2026-04-10T16:10:51Z</time></trkpt><trkpt lat="39.52163491088305" lon="8.507229859708284"><ele>183.0</ele><time>2026-04-10T16:10:52Z</time></trkpt><trkpt lat="39.52159412700353" lon="8.50708116966884"><ele>183.0</ele><time>2026-04-10T16:10:53Z</time></trkpt><trkpt lat="39.52156206566145" lon="8.506931503507193"><ele>183.0</ele><time>2026-04-10T16:10:54Z</time></trkpt><trkpt lat="39.521537897460625" lon="8.506754428022063"><ele>183.0</ele><time>2026-04-10T16:10:55Z</time></trkpt><trkpt lat="39.52153559401393" lon="8.506562631767363"><ele>182.0</ele><time>2026-04-10T16:10:56Z</time></trkpt><trkpt lat="39.52152920420748" lon="8.506369731283682"><ele>181.0</ele><time>2026-04-10T16:10:57Z</time></trkpt><trkpt lat="39.52149335392658" lon="8.50620835041715"><ele>180.0</ele><time>2026-04-10T16:10:58Z</time></trkpt><trkpt lat="39.52143529282922" lon="8.506069612880111"><ele>179.0</ele><time>2026-04-10T16:10:59Z</time></trkpt><trkpt lat="39.52137754028144" lon="8.50595738234725"><ele>179.0</ele><time>2026-04-10T16:11:00Z</time></trkpt><trkpt lat="39.52134882390341" lon="8.505857700759607"><ele>179.0</ele><time>2026-04-10T16:11:01Z</time></trkpt><trkpt lat="39.52136257786485" lon="8.505736638720427"><ele>179.0</ele><time>2026-04-10T16:11:02Z</time></trkpt><trkpt lat="39.521397948672465" lon="8.50560237395297"><ele>179.0</ele><time>2026-04-10T16:11:03Z</time></trkpt><trkpt lat="39.52140145069238" lon="8.505443307028509"><ele>179.0</ele><time>2026-04-10T16:11:04Z</time></trkpt><trkpt lat="39.52134815482229" lon="8.50525728605089"><ele>180.33333333333331</ele><time>2026-04-10T16:11:05Z</time></trkpt><trkpt lat="39.5212723702137" lon="8.505063847777517"><ele>181.66666666666666</ele><time>2026-04-10T16:11:06Z</time></trkpt><trkpt lat="39.52118516691437" lon="8.504869701719882"><ele>183.0</ele><time>2026-04-10T16:11:07Z</time></trkpt><trkpt lat="39.52108973260061" lon="8.504685267818706"><ele>177.66666666666666</ele><time>2026-04-10T16:11:08Z</time></trkpt><trkpt lat="39.52099863092023" lon="8.504518606513667"><ele>172.33333333333331</ele><time>2026-04-10T16:11:09Z</time></trkpt><trkpt lat="39.520911240468514" lon="8.504362984649996"><ele>167.0</ele><time>2026-04-10T16:11:10Z</time></trkpt><trkpt lat="39.52082707071825" lon="8.50421142677716"><ele>167.0</ele><time>2026-04-10T16:11:11Z</time></trkpt><trkpt lat="39.52075223291484" lon="8.50408946816287"><ele>167.0</ele><time>2026-04-10T16:11:12Z</time></trkpt><trkpt lat="39.52068301901164" lon="8.504004294280696"><ele>167.0</ele><time>2026-04-10T16:11:13Z</time></trkpt><trkpt lat="39.52061944542852" lon="8.503937441563215"><ele>167.0</ele><time>2026-04-10T16:11:14Z</time></trkpt><trkpt lat="39.520529083665046" lon="8.503933895948105"><ele>167.0</ele><time>2026-04-10T16:11:15Z</time></trkpt><trkpt lat="39.520438316901554" lon="8.50396926865261"><ele>166.8</ele><time>2026-04-10T16:11:16Z</time></trkpt><trkpt lat="39.52036721667515" lon="8.504068742908313"><ele>166.6</ele><time>2026-04-10T16:11:17Z</time></trkpt><trkpt lat="39.52029834062388" lon="8.504120348730668"><ele>166.4</ele><time>2026-04-10T16:11:18Z</time></trkpt><trkpt lat="39.52023500036955" lon="8.504150754927808"><ele>166.20000000000002</ele><time>2026-04-10T16:11:19Z</time></trkpt><trkpt lat="39.520127880915844" lon="8.504117086701061"><ele>166.0</ele><time>2026-04-10T16:11:21Z</time></trkpt><trkpt lat="39.52007139498622" lon="8.503956374588139"><ele>166.0</ele><time>2026-04-10T16:11:23Z</time></trkpt><trkpt lat="39.5200574869302" lon="8.50382776344023"><ele>166.0</ele><time>2026-04-10T16:11:24Z</time></trkpt><trkpt lat="39.52002243257158" lon="8.50367596785022"><ele>166.0</ele><time>2026-04-10T16:11:25Z</time></trkpt><trkpt lat="39.51999430823324" lon="8.503524638818318"><ele>166.0</ele><time>2026-04-10T16:11:26Z</time></trkpt><trkpt lat="39.519964914472204" lon="8.503354301722458"><ele>164.75</ele><time>2026-04-10T16:11:27Z</time></trkpt><trkpt lat="39.51993544601961" lon="8.50318495204295"><ele>163.5</ele><time>2026-04-10T16:11:28Z</time></trkpt><trkpt lat="39.51990643229684" lon="8.503030633130578"><ele>162.25</ele><time>2026-04-10T16:11:29Z</time></trkpt><trkpt lat="39.519876481040754" lon="8.502885532039633"><ele>161.0</ele><time>2026-04-10T16:11:30Z</time></trkpt><trkpt lat="39.51984593983564" lon="8.502748892446492"><ele>160.60000000000002</ele><time>2026-04-10T16:11:31Z</time></trkpt><trkpt lat="39.51980749727738" lon="8.502635754673648"><ele>160.20000000000002</ele><time>2026-04-10T16:11:32Z</time></trkpt><trkpt lat="39.51976677901136" lon="8.502526030654918"><ele>159.8</ele><time>2026-04-10T16:11:33Z</time></trkpt><trkpt lat="39.5196970568442" lon="8.502448804078561"><ele>159.4</ele><time>2026-04-10T16:11:34Z</time></trkpt><trkpt lat="39.519618648365686" lon="8.502375260131608"><ele>159.0</ele><time>2026-04-10T16:11:35Z</time></trkpt><trkpt lat="39.519542941836804" lon="8.502323013189072"><ele>159.16666666666666</ele><time>2026-04-10T16:11:36Z</time></trkpt><trkpt lat="39.519492347485894" lon="8.502243647783395"><ele>159.33333333333334</ele><time>2026-04-10T16:11:37Z</time></trkpt><trkpt lat="39.51950629450937" lon="8.502102436622707"><ele>159.5</ele><time>2026-04-10T16:11:39Z</time></trkpt><trkpt lat="39.51955578784793" lon="8.502030652976856"><ele>159.66666666666669</ele><time>2026-04-10T16:11:40Z</time></trkpt><trkpt lat="39.5196229593574" lon="8.501961169468922"><ele>159.83333333333334</ele><time>2026-04-10T16:11:41Z</time></trkpt><trkpt lat="39.519656774904114" lon="8.501872143063803"><ele>160.0</ele><time>2026-04-10T16:11:42Z</time></trkpt><trkpt lat="39.519656864450525" lon="8.501757850104763"><ele>160.0</ele><time>2026-04-10T16:11:43Z</time></trkpt><trkpt lat="39.51963919328076" lon="8.501631899369093"><ele>160.0</ele><time>2026-04-10T16:11:44Z</time></trkpt><trkpt lat="39.51958768636335" lon="8.501511108300114"><ele>160.0</ele><time>2026-04-10T16:11:45Z</time></trkpt><trkpt lat="39.51951390240009" lon="8.501400563000308"><ele>160.0</ele><time>2026-04-10T16:11:46Z</time></trkpt><trkpt lat="39.519436393525254" lon="8.501301284008214"><ele>160.0</ele><time>2026-04-10T16:11:47Z</time></trkpt><trkpt lat="39.519367905395974" lon="8.501204447247886"><ele>157.33333333333334</ele><time>2026-04-10T16:11:48Z</time></trkpt><trkpt lat="39.51932856961382" lon="8.501106421694448"><ele>154.66666666666669</ele><time>2026-04-10T16:11:49Z</time></trkpt><trkpt lat="39.51932280780266" lon="8.501007709563817"><ele>152.0</ele><time>2026-04-10T16:11:50Z</time></trkpt><trkpt lat="39.519318952782896" lon="8.500913739557856"><ele>149.33333333333334</ele><time>2026-04-10T16:11:51Z</time></trkpt><trkpt lat="39.519292670616096" lon="8.500824210356669"><ele>146.66666666666666</ele><time>2026-04-10T16:11:52Z</time></trkpt><trkpt lat="39.519231959568316" lon="8.500718439494491"><ele>144.0</ele><time>2026-04-10T16:11:53Z</time></trkpt><trkpt lat="39.519155533516134" lon="8.50061455583161"><ele>144.0</ele><time>2026-04-10T16:11:54Z</time></trkpt><trkpt lat="39.51907324773213" lon="8.500540196063548"><ele>144.0</ele><time>2026-04-10T16:11:55Z</time></trkpt><trkpt lat="39.51898812871523" lon="8.500497220287782"><ele>144.0</ele><time>2026-04-10T16:11:56Z</time></trkpt><trkpt lat="39.518884493448255" lon="8.500458371753448"><ele>144.0</ele><time>2026-04-10T16:11:57Z</time></trkpt><trkpt lat="39.51874684845935" lon="8.500474099007201"><ele>144.0</ele><time>2026-04-10T16:11:58Z</time></trkpt><trkpt lat="39.5186323998387" lon="8.50051528732508"><ele>144.2</ele><time>2026-04-10T16:11:59Z</time></trkpt><trkpt lat="39.518521166956766" lon="8.50052896285314"><ele>144.4</ele><time>2026-04-10T16:12:00Z</time></trkpt><trkpt lat="39.51841139047216" lon="8.500529517283645"><ele>144.6</ele><time>2026-04-10T16:12:01Z</time></trkpt><trkpt lat="39.518301804286246" lon="8.500505861002093"><ele>144.8</ele><time>2026-04-10T16:12:02Z</time></trkpt><trkpt lat="39.51819931767511" lon="8.500441731813913"><ele>145.0</ele><time>2026-04-10T16:12:03Z</time></trkpt><trkpt lat="39.51810328063555" lon="8.500381745550673"><ele>144.5</ele><time>2026-04-10T16:12:04Z</time></trkpt><trkpt lat="39.51805730016886" lon="8.500247376425655"><ele>144.0</ele><time>2026-04-10T16:12:05Z</time></trkpt><trkpt lat="39.51798154622206" lon="8.50011536072674"><ele>143.5</ele><time>2026-04-10T16:12:06Z</time></trkpt><trkpt lat="39.517910536598905" lon="8.499972943400538"><ele>143.0</ele><time>2026-04-10T16:12:07Z</time></trkpt><trkpt lat="39.51781824302149" lon="8.499829941315365"><ele>143.0</ele><time>2026-04-10T16:12:08Z</time></trkpt><trkpt lat="39.517715789272444" lon="8.49969618542478"><ele>143.0</ele><time>2026-04-10T16:12:09Z</time></trkpt><trkpt lat="39.51762428742497" lon="8.499566346696302"><ele>143.0</ele><time>2026-04-10T16:12:10Z</time></trkpt><trkpt lat="39.51754050244217" lon="8.499448172748481"><ele>143.0</ele><time>2026-04-10T16:12:11Z</time></trkpt><trkpt lat="39.51747349682176" lon="8.499344225557431"><ele>140.25</ele><time>2026-04-10T16:12:12Z</time></trkpt><trkpt lat="39.517381306755674" lon="8.499273059324914"><ele>137.5</ele><time>2026-04-10T16:12:13Z</time></trkpt><trkpt lat="39.51725574298128" lon="8.499234010111616"><ele>134.75</ele><time>2026-04-10T16:12:14Z</time></trkpt><trkpt lat="39.51712386613347" lon="8.499205487288421"><ele>132.0</ele><time>2026-04-10T16:12:15Z</time></trkpt><trkpt lat="39.51700542053079" lon="8.49917996450171"><ele>131.4</ele><time>2026-04-10T16:12:16Z</time></trkpt><trkpt lat="39.516905169067215" lon="8.499156055937153"><ele>130.79999999999998</ele><time>2026-04-10T16:12:17Z</time></trkpt><trkpt lat="39.516821944242814" lon="8.499128101583619"><ele>130.2</ele><time>2026-04-10T16:12:18Z</time></trkpt><trkpt lat="39.516765131132196" lon="8.499041782680306"><ele>129.6</ele><time>2026-04-10T16:12:19Z</time></trkpt><trkpt lat="39.516729832091976" lon="8.498914930247684"><ele>129.0</ele><time>2026-04-10T16:12:20Z</time></trkpt><trkpt lat="39.516710752552875" lon="8.4987902742762"><ele>128.6</ele><time>2026-04-10T16:12:21Z</time></trkpt><trkpt lat="39.51667014780457" lon="8.498684875394499"><ele>128.2</ele><time>2026-04-10T16:12:22Z</time></trkpt><trkpt lat="39.51658819468674" lon="8.498581967599641"><ele>127.79999999999998</ele><time>2026-04-10T16:12:23Z</time></trkpt><trkpt lat="39.51649517473019" lon="8.498484015619535"><ele>127.39999999999999</ele><time>2026-04-10T16:12:24Z</time></trkpt><trkpt lat="39.51638078991403" lon="8.498422056186275"><ele>127.0</ele><time>2026-04-10T16:12:25Z</time></trkpt><trkpt lat="39.516265788531285" lon="8.498377824583441"><ele>126.0</ele><time>2026-04-10T16:12:26Z</time></trkpt><trkpt lat="39.51617274120866" lon="8.498264657758897"><ele>125.0</ele><time>2026-04-10T16:12:27Z</time></trkpt><trkpt lat="39.5160720400786" lon="8.498173900502353"><ele>124.0</ele><time>2026-04-10T16:12:28Z</time></trkpt><trkpt lat="39.515985306655615" lon="8.49807431056214"><ele>123.0</ele><time>2026-04-10T16:12:29Z</time></trkpt><trkpt lat="39.51589945541957" lon="8.497986014212815"><ele>122.2</ele><time>2026-04-10T16:12:30Z</time></trkpt><trkpt lat="39.51584300611486" lon="8.49789765278129"><ele>121.4</ele><time>2026-04-10T16:12:31Z</time></trkpt><trkpt lat="39.51581038980185" lon="8.49780153893789"><ele>120.60000000000001</ele><time>2026-04-10T16:12:32Z</time></trkpt><trkpt lat="39.51580245326884" lon="8.497686937054462"><ele>119.80000000000001</ele><time>2026-04-10T16:12:33Z</time></trkpt><trkpt lat="39.515817547817555" lon="8.49754480612237"><ele>119.0</ele><time>2026-04-10T16:12:34Z</time></trkpt><trkpt lat="39.51583043305712" lon="8.49739141775044"><ele>119.0</ele><time>2026-04-10T16:12:35Z</time></trkpt><trkpt lat="39.515831447913506" lon="8.497229473634741"><ele>119.0</ele><time>2026-04-10T16:12:36Z</time></trkpt><trkpt lat="39.51582390401751" lon="8.497075924676427"><ele>119.0</ele><time>2026-04-10T16:12:37Z</time></trkpt><trkpt lat="39.51581158091191" lon="8.4969238662984"><ele>119.0</ele><time>2026-04-10T16:12:38Z</time></trkpt><trkpt lat="39.51578937855867" lon="8.496756574041264"><ele>119.25</ele><time>2026-04-10T16:12:39Z</time></trkpt><trkpt lat="39.51575133520952" lon="8.496581918936187"><ele>119.5</ele><time>2026-04-10T16:12:40Z</time></trkpt><trkpt lat="39.51570453227114" lon="8.496403499404755"><ele>119.75</ele><time>2026-04-10T16:12:41Z</time></trkpt><trkpt lat="39.51565498890955" lon="8.496215417689156"><ele>120.0</ele><time>2026-04-10T16:12:42Z</time></trkpt><trkpt lat="39.51560269519352" lon="8.496028247558783"><ele>121.25</ele><time>2026-04-10T16:12:43Z</time></trkpt><trkpt lat="39.51554580886414" lon="8.495849540636126"><ele>122.5</ele><time>2026-04-10T16:12:44Z</time></trkpt><trkpt lat="39.515488584909214" lon="8.495691741818815"><ele>123.75</ele><time>2026-04-10T16:12:45Z</time></trkpt><trkpt lat="39.5154316572364" lon="8.49555080855368"><ele>125.0</ele><time>2026-04-10T16:12:46Z</time></trkpt><trkpt lat="39.51537726935527" lon="8.49541771225434"><ele>122.0</ele><time>2026-04-10T16:12:47Z</time></trkpt><trkpt lat="39.515330089878574" lon="8.495290293772195"><ele>119.0</ele><time>2026-04-10T16:12:48Z</time></trkpt><trkpt lat="39.51528720645052" lon="8.495169206653847"><ele>116.0</ele><time>2026-04-10T16:12:49Z</time></trkpt><trkpt lat="39.51524378754894" lon="8.495047540352846"><ele>113.0</ele><time>2026-04-10T16:12:50Z</time></trkpt><trkpt lat="39.515200193284116" lon="8.49492798152352"><ele>110.0</ele><time>2026-04-10T16:12:51Z</time></trkpt><trkpt lat="39.51515358232933" lon="8.494809154411417"><ele>110.0</ele><time>2026-04-10T16:12:52Z</time></trkpt><trkpt lat="39.51510213908638" lon="8.494690305125868"><ele>110.0</ele><time>2026-04-10T16:12:53Z</time></trkpt><trkpt lat="39.515053122446176" lon="8.494575390125766"><ele>110.0</ele><time>2026-04-10T16:12:54Z</time></trkpt><trkpt lat="39.515005517913025" lon="8.494460493457055"><ele>110.0</ele><time>2026-04-10T16:12:55Z</time></trkpt><trkpt lat="39.51496520066705" lon="8.494350036123034"><ele>110.0</ele><time>2026-04-10T16:12:56Z</time></trkpt><trkpt lat="39.51494456124203" lon="8.49423549867365"><ele>109.66666666666666</ele><time>2026-04-10T16:12:57Z</time></trkpt><trkpt lat="39.51495685313093" lon="8.494118358291807"><ele>109.33333333333333</ele><time>2026-04-10T16:12:58Z</time></trkpt><trkpt lat="39.514986965774234" lon="8.494014160454173"><ele>109.0</ele><time>2026-04-10T16:12:59Z</time></trkpt><trkpt lat="39.51502146675468" lon="8.493924174893769"><ele>108.66666666666666</ele><time>2026-04-10T16:13:00Z</time></trkpt><trkpt lat="39.51504225372533" lon="8.493836851432489"><ele>108.33333333333333</ele><time>2026-04-10T16:13:01Z</time></trkpt><trkpt lat="39.51504716429858" lon="8.493751367732925"><ele>108.0</ele><time>2026-04-10T16:13:02Z</time></trkpt><trkpt lat="39.51503241297603" lon="8.493670519154916"><ele>107.33333333333333</ele><time>2026-04-10T16:13:03Z</time></trkpt><trkpt lat="39.51497684486644" lon="8.493551266432053"><ele>106.66666666666666</ele><time>2026-04-10T16:13:05Z</time></trkpt><trkpt lat="39.51485838111049" lon="8.493527902754888"><ele>106.0</ele><time>2026-04-10T16:13:07Z</time></trkpt><trkpt lat="39.514796299311236" lon="8.493543559221878"><ele>105.33333333333333</ele><time>2026-04-10T16:13:08Z</time></trkpt><trkpt lat="39.51472404981334" lon="8.493559609686967"><ele>104.66666666666666</ele><time>2026-04-10T16:13:10Z</time></trkpt><trkpt lat="39.51464613620777" lon="8.493573493536806"><ele>104.0</ele><time>2026-04-10T16:13:14Z</time></trkpt><trkpt lat="39.51457784676451" lon="8.49351516083545"><ele>103.99999999999999</ele><time>2026-04-10T16:13:17Z</time></trkpt><trkpt lat="39.51453035297426" lon="8.493384511447287"><ele>104.0</ele><time>2026-04-10T16:13:19Z</time></trkpt><trkpt lat="39.51451962020833" lon="8.493302737318078"><ele>104.0</ele><time>2026-04-10T16:13:20Z</time></trkpt><trkpt lat="39.51451544835147" lon="8.493220445923187"><ele>104.0</ele><time>2026-04-10T16:13:21Z</time></trkpt><trkpt lat="39.51454558379349" lon="8.493089644788025"><ele>103.99999999999999</ele><time>2026-04-10T16:13:23Z</time></trkpt><trkpt lat="39.51458179035892" lon="8.493011394089635"><ele>104.0</ele><time>2026-04-10T16:13:24Z</time></trkpt><trkpt lat="39.51463249918452" lon="8.492928710168192"><ele>104.2</ele><time>2026-04-10T16:13:25Z</time></trkpt><trkpt lat="39.51467942184083" lon="8.49285668485462"><ele>104.4</ele><time>2026-04-10T16:13:26Z</time></trkpt><trkpt lat="39.514752614926486" lon="8.49273372736419"><ele>104.6</ele><time>2026-04-10T16:13:28Z</time></trkpt><trkpt lat="39.51481575635006" lon="8.492621821707456"><ele>104.8</ele><time>2026-04-10T16:13:30Z</time></trkpt><trkpt lat="39.5148311242673" lon="8.492527764530552"><ele>105.0</ele><time>2026-04-10T16:13:43Z</time></trkpt><trkpt lat="39.51483997637317" lon="8.492410740633112"><ele>105.0</ele><time>2026-04-10T16:13:45Z</time></trkpt><trkpt lat="39.51487586751497" lon="8.492313476164384"><ele>105.0</ele><time>2026-04-10T16:13:46Z</time></trkpt><trkpt lat="39.51491187713397" lon="8.492196135212417"><ele>105.0</ele><time>2026-04-10T16:13:47Z</time></trkpt><trkpt lat="39.51495051680959" lon="8.49205565311182"><ele>105.0</ele><time>2026-04-10T16:13:48Z</time></trkpt><trkpt lat="39.51502440004207" lon="8.491932063522457"><ele>105.0</ele><time>2026-04-10T16:13:49Z</time></trkpt><trkpt lat="39.51511788653216" lon="8.491812724350103"><ele>104.75</ele><time>2026-04-10T16:13:50Z</time></trkpt><trkpt lat="39.51522537571095" lon="8.491700619017632"><ele>104.5</ele><time>2026-04-10T16:13:51Z</time></trkpt><trkpt lat="39.515358355237" lon="8.491593135965992"><ele>104.25</ele><time>2026-04-10T16:13:52Z</time></trkpt><trkpt lat="39.515485025520206" lon="8.491503713990992"><ele>104.0</ele><time>2026-04-10T16:13:53Z</time></trkpt><trkpt lat="39.51559178374873" lon="8.491420431325894"><ele>104.0</ele><time>2026-04-10T16:13:54Z</time></trkpt><trkpt lat="39.51567803350769" lon="8.491337091139961"><ele>104.0</ele><time>2026-04-10T16:13:55Z</time></trkpt><trkpt lat="39.515749640228265" lon="8.49124965458303"><ele>104.0</ele><time>2026-04-10T16:13:56Z</time></trkpt><trkpt lat="39.51581148556302" lon="8.491156367831874"><ele>104.0</ele><time>2026-04-10T16:13:57Z</time></trkpt><trkpt lat="39.515860595362895" lon="8.491041750625532"><ele>104.0</ele><time>2026-04-10T16:13:58Z</time></trkpt><trkpt lat="39.515890699603816" lon="8.490915083821845"><ele>104.2</ele><time>2026-04-10T16:13:59Z</time></trkpt><trkpt lat="39.515896735888106" lon="8.490781482169368"><ele>104.4</ele><time>2026-04-10T16:14:00Z</time></trkpt><trkpt lat="39.51588758235974" lon="8.490635075901677"><ele>104.6</ele><time>2026-04-10T16:14:01Z</time></trkpt><trkpt lat="39.51587703079416" lon="8.490479125196979"><ele>104.8</ele><time>2026-04-10T16:14:02Z</time></trkpt><trkpt lat="39.51589105307987" lon="8.490352214209064"><ele>105.0</ele><time>2026-04-10T16:14:03Z</time></trkpt><trkpt lat="39.51593344284566" lon="8.49025673433207"><ele>104.0</ele><time>2026-04-10T16:14:04Z</time></trkpt><trkpt lat="39.516001728593764" lon="8.490184437698383"><ele>103.0</ele><time>2026-04-10T16:14:05Z</time></trkpt><trkpt lat="39.51612172243896" lon="8.490143790327025"><ele>102.0</ele><time>2026-04-10T16:14:06Z</time></trkpt><trkpt lat="39.51624994126204" lon="8.490051503020556"><ele>101.0</ele><time>2026-04-10T16:14:07Z</time></trkpt><trkpt lat="39.51637503668736" lon="8.489948335487789"><ele>101.0</ele><time>2026-04-10T16:14:08Z</time></trkpt><trkpt lat="39.516501221446" lon="8.489862723691232"><ele>101.0</ele><time>2026-04-10T16:14:09Z</time></trkpt><trkpt lat="39.51661718889106" lon="8.489833817923408"><ele>101.0</ele><time>2026-04-10T16:14:10Z</time></trkpt><trkpt lat="39.516735364417684" lon="8.489810217351195"><ele>101.0</ele><time>2026-04-10T16:14:11Z</time></trkpt><trkpt lat="39.51684960999435" lon="8.48978145800368"><ele>101.0</ele><time>2026-04-10T16:14:12Z</time></trkpt><trkpt lat="39.51694738077936" lon="8.489740743233485"><ele>101.0</ele><time>2026-04-10T16:14:13Z</time></trkpt><trkpt lat="39.51702627666668" lon="8.489696419533624"><ele>101.0</ele><time>2026-04-10T16:14:14Z</time></trkpt><trkpt lat="39.51709468356952" lon="8.489624091659717"><ele>101.0</ele><time>2026-04-10T16:14:15Z</time></trkpt><trkpt lat="39.51715952862395" lon="8.489516849781541"><ele>101.0</ele><time>2026-04-10T16:14:16Z</time></trkpt><trkpt lat="39.51719490040426" lon="8.489357646004665"><ele>99.0</ele><time>2026-04-10T16:14:17Z</time></trkpt><trkpt lat="39.517252584987666" lon="8.489155869992823"><ele>97.0</ele><time>2026-04-10T16:14:18Z</time></trkpt><trkpt lat="39.51731240527898" lon="8.488981203286599"><ele>95.0</ele><time>2026-04-10T16:14:19Z</time></trkpt><trkpt lat="39.51741369097955" lon="8.488853989140567"><ele>100.66666666666667</ele><time>2026-04-10T16:14:20Z</time></trkpt><trkpt lat="39.51752749262388" lon="8.488694469453435"><ele>106.33333333333334</ele><time>2026-04-10T16:14:21Z</time></trkpt><trkpt lat="39.517625966885475" lon="8.488554840399654"><ele>112.0</ele><time>2026-04-10T16:14:22Z</time></trkpt><trkpt lat="39.51770790038806" lon="8.48840746698405"><ele>112.0</ele><time>2026-04-10T16:14:23Z</time></trkpt><trkpt lat="39.51779768755367" lon="8.488293787854149"><ele>111.99999999999999</ele><time>2026-04-10T16:14:24Z</time></trkpt><trkpt lat="39.517886020616864" lon="8.488217446850483"><ele>111.99999999999999</ele><time>2026-04-10T16:14:25Z</time></trkpt><trkpt lat="39.51795532747927" lon="8.488148386324752"><ele>112.0</ele><time>2026-04-10T16:14:26Z</time></trkpt><trkpt lat="39.51804580811823" lon="8.488128841917096"><ele>112.0</ele><time>2026-04-10T16:14:27Z</time></trkpt><trkpt lat="39.518154102815494" lon="8.488160968779372"><ele>109.16666666666667</ele><time>2026-04-10T16:14:28Z</time></trkpt><trkpt lat="39.518263968310855" lon="8.488176659713984"><ele>106.33333333333334</ele><time>2026-04-10T16:14:29Z</time></trkpt><trkpt lat="39.51835299062058" lon="8.48816331936729"><ele>103.5</ele><time>2026-04-10T16:14:30Z</time></trkpt><trkpt lat="39.518418840595345" lon="8.488168561909795"><ele>100.66666666666667</ele><time>2026-04-10T16:14:31Z</time></trkpt><trkpt lat="39.518471887348156" lon="8.48811698929127"><ele>97.83333333333334</ele><time>2026-04-10T16:14:32Z</time></trkpt><trkpt lat="39.51850655646426" lon="8.488006573211182"><ele>95.0</ele><time>2026-04-10T16:14:33Z</time></trkpt><trkpt lat="39.51852173371854" lon="8.487891437265121"><ele>95.0</ele><time>2026-04-10T16:14:34Z</time></trkpt><trkpt lat="39.51851291193786" lon="8.487768828546184"><ele>95.0</ele><time>2026-04-10T16:14:35Z</time></trkpt><trkpt lat="39.51849698748072" lon="8.487631508111193"><ele>95.0</ele><time>2026-04-10T16:14:36Z</time></trkpt><trkpt lat="39.518475642035526" lon="8.487485507293"><ele>95.0</ele><time>2026-04-10T16:14:37Z</time></trkpt><trkpt lat="39.51846190637652" lon="8.487348243034397"><ele>95.0</ele><time>2026-04-10T16:14:38Z</time></trkpt><trkpt lat="39.51845390092733" lon="8.48719803520658"><ele>94.75</ele><time>2026-04-10T16:14:39Z</time></trkpt><trkpt lat="39.518450251879656" lon="8.487028041959666"><ele>94.5</ele><time>2026-04-10T16:14:40Z</time></trkpt><trkpt lat="39.51843671925951" lon="8.486858207584529"><ele>94.25</ele><time>2026-04-10T16:14:41Z</time></trkpt><trkpt lat="39.51845702330638" lon="8.48670109814625"><ele>94.0</ele><time>2026-04-10T16:14:42Z</time></trkpt><trkpt lat="39.51848950938535" lon="8.486551319746297"><ele>94.0</ele><time>2026-04-10T16:14:43Z</time></trkpt><trkpt lat="39.51855230980035" lon="8.486397287633931"><ele>94.0</ele><time>2026-04-10T16:14:44Z</time></trkpt><trkpt lat="39.51860671375285" lon="8.486250835805325"><ele>94.0</ele><time>2026-04-10T16:14:45Z</time></trkpt><trkpt lat="39.51865652937506" lon="8.486116918690067"><ele>94.0</ele><time>2026-04-10T16:14:46Z</time></trkpt><trkpt lat="39.51875146412228" lon="8.486005302397736"><ele>91.25</ele><time>2026-04-10T16:14:47Z</time></trkpt><trkpt lat="39.51886390011513" lon="8.485880054991878"><ele>88.5</ele><time>2026-04-10T16:14:48Z</time></trkpt><trkpt lat="39.518958011226545" lon="8.485757029802684"><ele>85.75</ele><time>2026-04-10T16:14:49Z</time></trkpt><trkpt lat="39.51901113474026" lon="8.485639602628343"><ele>83.0</ele><time>2026-04-10T16:14:50Z</time></trkpt><trkpt lat="39.519058825419776" lon="8.4855296185212"><ele>82.0</ele><time>2026-04-10T16:14:51Z</time></trkpt><trkpt lat="39.51907958413818" lon="8.485400375919717"><ele>81.0</ele><time>2026-04-10T16:14:52Z</time></trkpt><trkpt lat="39.519070788578" lon="8.485274432856302"><ele>80.0</ele><time>2026-04-10T16:14:53Z</time></trkpt><trkpt lat="39.51904775002917" lon="8.485111139673219"><ele>79.0</ele><time>2026-04-10T16:14:54Z</time></trkpt><trkpt lat="39.51902177722872" lon="8.48488712115639"><ele>79.0</ele><time>2026-04-10T16:14:55Z</time></trkpt><trkpt lat="39.51898601553838" lon="8.48466959837392"><ele>79.0</ele><time>2026-04-10T16:14:56Z</time></trkpt><trkpt lat="39.518925552154734" lon="8.484498604640777"><ele>79.0</ele><time>2026-04-10T16:14:57Z</time></trkpt><trkpt lat="39.51887975545934" lon="8.484333296987867"><ele>78.0</ele><time>2026-04-10T16:14:58Z</time></trkpt><trkpt lat="39.51884817094409" lon="8.484188242716794"><ele>77.0</ele><time>2026-04-10T16:14:59Z</time></trkpt><trkpt lat="39.518870063530365" lon="8.484072568537707"><ele>76.0</ele><time>2026-04-10T16:15:00Z</time></trkpt><trkpt lat="39.51889251408593" lon="8.483935098144045"><ele>75.0</ele><time>2026-04-10T16:15:01Z</time></trkpt><trkpt lat="39.518907674583986" lon="8.48373195546145"><ele>74.25</ele><time>2026-04-10T16:15:02Z</time></trkpt><trkpt lat="39.51894131823222" lon="8.48353701507015"><ele>73.5</ele><time>2026-04-10T16:15:03Z</time></trkpt><trkpt lat="39.518951617818196" lon="8.483357160936006"><ele>72.75</ele><time>2026-04-10T16:15:04Z</time></trkpt><trkpt lat="39.518969939368844" lon="8.4832063676683"><ele>72.0</ele><time>2026-04-10T16:15:05Z</time></trkpt><trkpt lat="39.51900334084964" lon="8.483073795518713"><ele>72.0</ele><time>2026-04-10T16:15:06Z</time></trkpt><trkpt lat="39.51906412755827" lon="8.482943486942307"><ele>72.0</ele><time>2026-04-10T16:15:07Z</time></trkpt><trkpt lat="39.519141542851216" lon="8.482843017052277"><ele>72.0</ele><time>2026-04-10T16:15:08Z</time></trkpt><trkpt lat="39.51924048863756" lon="8.482759847265626"><ele>72.0</ele><time>2026-04-10T16:15:09Z</time></trkpt><trkpt lat="39.51935488145556" lon="8.482684083180779"><ele>71.5</ele><time>2026-04-10T16:15:10Z</time></trkpt><trkpt lat="39.519494434378316" lon="8.482609581597151"><ele>71.0</ele><time>2026-04-10T16:15:11Z</time></trkpt><trkpt lat="39.51962133109317" lon="8.482563376717161"><ele>70.5</ele><time>2026-04-10T16:15:12Z</time></trkpt><trkpt lat="39.519743165493615" lon="8.48254415901168"><ele>70.0</ele><time>2026-04-10T16:15:13Z</time></trkpt><trkpt lat="39.519861057766576" lon="8.48254281312906"><ele>70.0</ele><time>2026-04-10T16:15:14Z</time></trkpt><trkpt lat="39.5199577267428" lon="8.482532725404385"><ele>70.0</ele><time>2026-04-10T16:15:15Z</time></trkpt><trkpt lat="39.52002570977399" lon="8.48250184170803"><ele>70.0</ele><time>2026-04-10T16:15:16Z</time></trkpt><trkpt lat="39.52008494846175" lon="8.48237320061239"><ele>70.0</ele><time>2026-04-10T16:15:18Z</time></trkpt><trkpt lat="39.52006781021354" lon="8.482269037854817"><ele>70.0</ele><time>2026-04-10T16:15:19Z</time></trkpt><trkpt lat="39.520025278939166" lon="8.482128319869831"><ele>70.0</ele><time>2026-04-10T16:15:20Z</time></trkpt><trkpt lat="39.519954372962395" lon="8.481963715432869"><ele>70.0</ele><time>2026-04-10T16:15:21Z</time></trkpt><trkpt lat="39.51990261335054" lon="8.48183259381571"><ele>70.0</ele><time>2026-04-10T16:15:22Z</time></trkpt><trkpt lat="39.51988863238905" lon="8.481708732082389"><ele>70.0</ele><time>2026-04-10T16:15:23Z</time></trkpt><trkpt lat="39.519922653938856" lon="8.481565131065915"><ele>70.0</ele><time>2026-04-10T16:15:24Z</time></trkpt><trkpt lat="39.51993615907339" lon="8.481410728884656"><ele>70.0</ele><time>2026-04-10T16:15:25Z</time></trkpt><trkpt lat="39.519997640078486" lon="8.481285284865317"><ele>70.0</ele><time>2026-04-10T16:15:26Z</time></trkpt><trkpt lat="39.520057926662936" lon="8.48118463029372"><ele>70.0</ele><time>2026-04-10T16:15:27Z</time></trkpt><trkpt lat="39.52011220718372" lon="8.481101087937652"><ele>70.0</ele><time>2026-04-10T16:15:28Z</time></trkpt><trkpt lat="39.5201766393186" lon="8.481070257872178"><ele>69.83333333333333</ele><time>2026-04-10T16:15:29Z</time></trkpt><trkpt lat="39.52025528085547" lon="8.48109021984163"><ele>69.66666666666666</ele><time>2026-04-10T16:15:30Z</time></trkpt><trkpt lat="39.520378409639164" lon="8.48103315368368"><ele>69.5</ele><time>2026-04-10T16:15:32Z</time></trkpt><trkpt lat="39.5204327158136" lon="8.4809846374635"><ele>69.33333333333333</ele><time>2026-04-10T16:15:33Z</time></trkpt><trkpt lat="39.520488333693024" lon="8.480929556706625"><ele>69.16666666666667</ele><time>2026-04-10T16:15:34Z</time></trkpt><trkpt lat="39.52055261438493" lon="8.480866475518248"><ele>69.0</ele><time>2026-04-10T16:15:35Z</time></trkpt><trkpt lat="39.52062759686668" lon="8.480798127227233"><ele>69.0</ele><time>2026-04-10T16:15:36Z</time></trkpt><trkpt lat="39.520696449230414" lon="8.480726311195573"><ele>69.0</ele><time>2026-04-10T16:15:37Z</time></trkpt><trkpt lat="39.520762688497285" lon="8.48064480720457"><ele>69.0</ele><time>2026-04-10T16:15:38Z</time></trkpt><trkpt lat="39.52081663718462" lon="8.480550321867886"><ele>69.0</ele><time>2026-04-10T16:15:39Z</time></trkpt><trkpt lat="39.520858450101485" lon="8.480448575474082"><ele>69.0</ele><time>2026-04-10T16:15:40Z</time></trkpt><trkpt lat="39.520881927284435" lon="8.480352423038243"><ele>69.0</ele><time>2026-04-10T16:15:41Z</time></trkpt><trkpt lat="39.52088786916154" lon="8.480263306394106"><ele>69.0</ele><time>2026-04-10T16:15:42Z</time></trkpt><trkpt lat="39.52088282356688" lon="8.480164127478147"><ele>69.0</ele><time>2026-04-10T16:15:43Z</time></trkpt><trkpt lat="39.520870336270114" lon="8.480046367842784"><ele>69.0</ele><time>2026-04-10T16:15:44Z</time></trkpt><trkpt lat="39.520838796302186" lon="8.479923718102478"><ele>69.0</ele><time>2026-04-10T16:15:45Z</time></trkpt><trkpt lat="39.52079043503033" lon="8.479799544753453"><ele>69.0</ele><time>2026-04-10T16:15:46Z</time></trkpt><trkpt lat="39.520722676803004" lon="8.479649553396188"><ele>68.0</ele><time>2026-04-10T16:15:47Z</time></trkpt><trkpt lat="39.520651818138106" lon="8.479514599180948"><ele>67.0</ele><time>2026-04-10T16:15:48Z</time></trkpt><trkpt lat="39.52060003029578" lon="8.479395679473637"><ele>66.0</ele><time>2026-04-10T16:15:49Z</time></trkpt><trkpt lat="39.52055711639309" lon="8.479275548740802"><ele>65.0</ele><time>2026-04-10T16:15:50Z</time></trkpt><trkpt lat="39.52052701740928" lon="8.479134964222748"><ele>64.0</ele><time>2026-04-10T16:15:51Z</time></trkpt><trkpt lat="39.52051790751402" lon="8.478985033557558"><ele>64.0</ele><time>2026-04-10T16:15:52Z</time></trkpt><trkpt lat="39.52052364169278" lon="8.478842334591095"><ele>64.0</ele><time>2026-04-10T16:15:53Z</time></trkpt><trkpt lat="39.52052870446619" lon="8.478713729841015"><ele>64.0</ele><time>2026-04-10T16:15:54Z</time></trkpt><trkpt lat="39.52054806965569" lon="8.478595614932754"><ele>64.0</ele><time>2026-04-10T16:15:55Z</time></trkpt><trkpt lat="39.52057860746402" lon="8.47847264592179"><ele>64.0</ele><time>2026-04-10T16:15:56Z</time></trkpt><trkpt lat="39.52063560764048" lon="8.47834699382829"><ele>63.75</ele><time>2026-04-10T16:15:57Z</time></trkpt><trkpt lat="39.520720746008976" lon="8.478180769824421"><ele>63.5</ele><time>2026-04-10T16:15:58Z</time></trkpt><trkpt lat="39.52080045521826" lon="8.478024135434085"><ele>63.25</ele><time>2026-04-10T16:15:59Z</time></trkpt><trkpt lat="39.520862602207664" lon="8.47789065368292"><ele>63.0</ele><time>2026-04-10T16:16:00Z</time></trkpt><trkpt lat="39.52091440245869" lon="8.477763363783755"><ele>64.25</ele><time>2026-04-10T16:16:01Z</time></trkpt><trkpt lat="39.52096174817023" lon="8.477641580965845"><ele>65.5</ele><time>2026-04-10T16:16:02Z</time></trkpt><trkpt lat="39.52101087808457" lon="8.477531285021314"><ele>66.75</ele><time>2026-04-10T16:16:03Z</time></trkpt><trkpt lat="39.52107559871071" lon="8.477398764169827"><ele>68.0</ele><time>2026-04-10T16:16:04Z</time></trkpt><trkpt lat="39.52116076138278" lon="8.477234882317465"><ele>64.25</ele><time>2026-04-10T16:16:05Z</time></trkpt><trkpt lat="39.521248339296264" lon="8.477069173446854"><ele>60.5</ele><time>2026-04-10T16:16:06Z</time></trkpt><trkpt lat="39.521329527069334" lon="8.476951677895853"><ele>56.75</ele><time>2026-04-10T16:16:07Z</time></trkpt><trkpt lat="39.52140195316918" lon="8.47685291462026"><ele>53.0</ele><time>2026-04-10T16:16:08Z</time></trkpt><trkpt lat="39.52149071436068" lon="8.47675688860034"><ele>53.0</ele><time>2026-04-10T16:16:09Z</time></trkpt><trkpt lat="39.52159017013508" lon="8.47667158436044"><ele>53.0</ele><time>2026-04-10T16:16:10Z</time></trkpt><trkpt lat="39.52168433477043" lon="8.476575465771655"><ele>53.0</ele><time>2026-04-10T16:16:11Z</time></trkpt><trkpt lat="39.52176167554258" lon="8.476467304149615"><ele>53.0</ele><time>2026-04-10T16:16:12Z</time></trkpt><trkpt lat="39.52180862274795" lon="8.476323291389145"><ele>54.25</ele><time>2026-04-10T16:16:13Z</time></trkpt><trkpt lat="39.52185725571738" lon="8.476136019196337"><ele>55.5</ele><time>2026-04-10T16:16:14Z</time></trkpt><trkpt lat="39.521895755155725" lon="8.475957784923525"><ele>56.75</ele><time>2026-04-10T16:16:15Z</time></trkpt><trkpt lat="39.52194370331791" lon="8.475815811714652"><ele>58.0</ele><time>2026-04-10T16:16:16Z</time></trkpt><trkpt lat="39.52201505823194" lon="8.475729797246991"><ele>56.25</ele><time>2026-04-10T16:16:17Z</time></trkpt><trkpt lat="39.52207146405785" lon="8.4756736414623"><ele>54.5</ele><time>2026-04-10T16:16:18Z</time></trkpt><trkpt lat="39.522164735701026" lon="8.475653244144222"><ele>52.75</ele><time>2026-04-10T16:16:19Z</time></trkpt><trkpt lat="39.522286442221315" lon="8.475567222601445"><ele>51.0</ele><time>2026-04-10T16:16:20Z</time></trkpt><trkpt lat="39.52242841705702" lon="8.475509776453535"><ele>51.0</ele><time>2026-04-10T16:16:21Z</time></trkpt><trkpt lat="39.522549709378985" lon="8.47544774360781"><ele>51.0</ele><time>2026-04-10T16:16:22Z</time></trkpt><trkpt lat="39.52265142766122" lon="8.475403157707419"><ele>51.0</ele><time>2026-04-10T16:16:23Z</time></trkpt><trkpt lat="39.52275511726364" lon="8.475371481929615"><ele>51.0</ele><time>2026-04-10T16:16:24Z</time></trkpt><trkpt lat="39.5228700937792" lon="8.475352387066573"><ele>52.75</ele><time>2026-04-10T16:16:25Z</time></trkpt><trkpt lat="39.52299340942487" lon="8.475334902014403"><ele>54.5</ele><time>2026-04-10T16:16:26Z</time></trkpt><trkpt lat="39.523124478400845" lon="8.475330455478598"><ele>56.25</ele><time>2026-04-10T16:16:27Z</time></trkpt><trkpt lat="39.523261152331116" lon="8.475338277372453"><ele>58.0</ele><time>2026-04-10T16:16:28Z</time></trkpt><trkpt lat="39.52340121695039" lon="8.475352204231758"><ele>58.0</ele><time>2026-04-10T16:16:29Z</time></trkpt><trkpt lat="39.52354659943075" lon="8.475353552360813"><ele>58.0</ele><time>2026-04-10T16:16:30Z</time></trkpt><trkpt lat="39.523696770752935" lon="8.475329594187789"><ele>58.0</ele><time>2026-04-10T16:16:31Z</time></trkpt><trkpt lat="39.523847009045646" lon="8.475286280787913"><ele>55.5</ele><time>2026-04-10T16:16:32Z</time></trkpt><trkpt lat="39.52399389342241" lon="8.475233425912746"><ele>53.0</ele><time>2026-04-10T16:16:33Z</time></trkpt><trkpt lat="39.52413819220018" lon="8.475172835195568"><ele>50.5</ele><time>2026-04-10T16:16:34Z</time></trkpt><trkpt lat="39.524265489502355" lon="8.47511771660241"><ele>48.0</ele><time>2026-04-10T16:16:35Z</time></trkpt><trkpt lat="39.524376788729" lon="8.475063527690814"><ele>48.0</ele><time>2026-04-10T16:16:36Z</time></trkpt><trkpt lat="39.52447769158637" lon="8.475015644772444"><ele>48.0</ele><time>2026-04-10T16:16:37Z</time></trkpt><trkpt lat="39.524564843122285" lon="8.474968587597646"><ele>48.0</ele><time>2026-04-10T16:16:38Z</time></trkpt><trkpt lat="39.52464121213659" lon="8.474899771349758"><ele>48.0</ele><time>2026-04-10T16:16:39Z</time></trkpt><trkpt lat="39.52471628926694" lon="8.474796721807053"><ele>48.0</ele><time>2026-04-10T16:16:40Z</time></trkpt><trkpt lat="39.52478957989908" lon="8.474648340419801"><ele>46.5</ele><time>2026-04-10T16:16:41Z</time></trkpt><trkpt lat="39.52485272488524" lon="8.474479386705246"><ele>45.0</ele><time>2026-04-10T16:16:42Z</time></trkpt><trkpt lat="39.524883909794355" lon="8.474304710112799"><ele>43.5</ele><time>2026-04-10T16:16:43Z</time></trkpt><trkpt lat="39.524902829187965" lon="8.474116483545098"><ele>42.0</ele><time>2026-04-10T16:16:44Z</time></trkpt><trkpt lat="39.524939433315645" lon="8.473978289968006"><ele>42.0</ele><time>2026-04-10T16:16:45Z</time></trkpt><trkpt lat="39.52495033580108" lon="8.473854144194979"><ele>42.0</ele><time>2026-04-10T16:16:46Z</time></trkpt><trkpt lat="39.52498663126103" lon="8.47372783132602"><ele>42.0</ele><time>2026-04-10T16:16:47Z</time></trkpt><trkpt lat="39.52502366732994" lon="8.473604867914025"><ele>42.0</ele><time>2026-04-10T16:16:48Z</time></trkpt><trkpt lat="39.52505417571447" lon="8.473507414170285"><ele>42.0</ele><time>2026-04-10T16:16:49Z</time></trkpt><trkpt lat="39.525092482517245" lon="8.473407610277189"><ele>42.0</ele><time>2026-04-10T16:16:50Z</time></trkpt><trkpt lat="39.52516078156785" lon="8.473323674921422"><ele>42.0</ele><time>2026-04-10T16:16:51Z</time></trkpt><trkpt lat="39.52523777506997" lon="8.473247170476027"><ele>42.0</ele><time>2026-04-10T16:16:52Z</time></trkpt><trkpt lat="39.5253394999385" lon="8.473172956253862"><ele>42.0</ele><time>2026-04-10T16:16:53Z</time></trkpt><trkpt lat="39.525441514115855" lon="8.47308641990708"><ele>42.0</ele><time>2026-04-10T16:16:54Z</time></trkpt><trkpt lat="39.52553020536392" lon="8.473000362770126"><ele>43.2</ele><time>2026-04-10T16:16:55Z</time></trkpt><trkpt lat="39.52561413132265" lon="8.472918592857523"><ele>44.400000000000006</ele><time>2026-04-10T16:16:56Z</time></trkpt><trkpt lat="39.52569364805785" lon="8.472847028457545"><ele>45.599999999999994</ele><time>2026-04-10T16:16:57Z</time></trkpt><trkpt lat="39.52577756157551" lon="8.472788580071002"><ele>46.8</ele><time>2026-04-10T16:16:58Z</time></trkpt><trkpt lat="39.52586262765393" lon="8.47272878958997"><ele>48.0</ele><time>2026-04-10T16:16:59Z</time></trkpt><trkpt lat="39.52595152603271" lon="8.472653381168605"><ele>48.0</ele><time>2026-04-10T16:17:00Z</time></trkpt><trkpt lat="39.52603332190837" lon="8.47256417462106"><ele>48.0</ele><time>2026-04-10T16:17:01Z</time></trkpt><trkpt lat="39.526110870277286" lon="8.472468876535954"><ele>48.0</ele><time>2026-04-10T16:17:02Z</time></trkpt><trkpt lat="39.52619213281377" lon="8.472377529038596"><ele>48.0</ele><time>2026-04-10T16:17:03Z</time></trkpt><trkpt lat="39.5262760418119" lon="8.472289457271138"><ele>48.0</ele><time>2026-04-10T16:17:04Z</time></trkpt><trkpt lat="39.5263563481976" lon="8.47222582703294"><ele>47.8</ele><time>2026-04-10T16:17:05Z</time></trkpt><trkpt lat="39.526425977237835" lon="8.472168628479395"><ele>47.599999999999994</ele><time>2026-04-10T16:17:06Z</time></trkpt><trkpt lat="39.52650093194035" lon="8.47212586805384"><ele>47.400000000000006</ele><time>2026-04-10T16:17:07Z</time></trkpt><trkpt lat="39.52659692180804" lon="8.472115168429765"><ele>47.2</ele><time>2026-04-10T16:17:08Z</time></trkpt><trkpt lat="39.52671782095649" lon="8.472090052259306"><ele>47.0</ele><time>2026-04-10T16:17:09Z</time></trkpt><trkpt lat="39.52681935341632" lon="8.47207423800076"><ele>47.0</ele><time>2026-04-10T16:17:10Z</time></trkpt><trkpt lat="39.52691595851299" lon="8.47204362951759"><ele>47.0</ele><time>2026-04-10T16:17:11Z</time></trkpt><trkpt lat="39.527014101560425" lon="8.472022795715255"><ele>47.0</ele><time>2026-04-10T16:17:12Z</time></trkpt><trkpt lat="39.52709184184585" lon="8.471975986728575"><ele>47.0</ele><time>2026-04-10T16:17:13Z</time></trkpt><trkpt lat="39.52717899823723" lon="8.471923529957289"><ele>47.0</ele><time>2026-04-10T16:17:14Z</time></trkpt><trkpt lat="39.52726416119446" lon="8.471873231128832"><ele>45.0</ele><time>2026-04-10T16:17:15Z</time></trkpt><trkpt lat="39.527337739770445" lon="8.471823233775023"><ele>43.0</ele><time>2026-04-10T16:17:16Z</time></trkpt><trkpt lat="39.5273958295516" lon="8.471757289256622"><ele>41.0</ele><time>2026-04-10T16:17:17Z</time></trkpt><trkpt lat="39.52744932525719" lon="8.471673992037283"><ele>39.0</ele><time>2026-04-10T16:17:18Z</time></trkpt><trkpt lat="39.527491476054486" lon="8.471581561873608"><ele>37.0</ele><time>2026-04-10T16:17:19Z</time></trkpt><trkpt lat="39.52751466625083" lon="8.471482510839419"><ele>35.0</ele><time>2026-04-10T16:17:20Z</time></trkpt><trkpt lat="39.52752298549773" lon="8.471386808051408"><ele>35.0</ele><time>2026-04-10T16:17:21Z</time></trkpt><trkpt lat="39.52751857718709" lon="8.471292561814598"><ele>35.0</ele><time>2026-04-10T16:17:22Z</time></trkpt><trkpt lat="39.52751664255988" lon="8.471183272007496"><ele>35.0</ele><time>2026-04-10T16:17:23Z</time></trkpt><trkpt lat="39.5275028905297" lon="8.471051205625841"><ele>35.0</ele><time>2026-04-10T16:17:24Z</time></trkpt><trkpt lat="39.52748971801557" lon="8.470932500285443"><ele>35.0</ele><time>2026-04-10T16:17:25Z</time></trkpt><trkpt lat="39.52748230355786" lon="8.470833189473163"><ele>35.0</ele><time>2026-04-10T16:17:26Z</time></trkpt><trkpt lat="39.52747691642575" lon="8.470742647211582"><ele>35.0</ele><time>2026-04-10T16:17:27Z</time></trkpt><trkpt lat="39.52747707181355" lon="8.470660545827922"><ele>35.0</ele><time>2026-04-10T16:17:28Z</time></trkpt><trkpt lat="39.5274872785952" lon="8.470522159091924"><ele>35.0</ele><time>2026-04-10T16:17:30Z</time></trkpt><trkpt lat="39.52751267353983" lon="8.470414338088922"><ele>35.0</ele><time>2026-04-10T16:17:32Z</time></trkpt><trkpt lat="39.52757429768578" lon="8.470296449507666"><ele>35.0</ele><time>2026-04-10T16:17:34Z</time></trkpt><trkpt lat="39.52763127573075" lon="8.470234701004014"><ele>35.0</ele><time>2026-04-10T16:17:35Z</time></trkpt><trkpt lat="39.52768677140441" lon="8.47016979279714"><ele>35.4</ele><time>2026-04-10T16:17:36Z</time></trkpt><trkpt lat="39.52778131527404" lon="8.470041534280746"><ele>35.8</ele><time>2026-04-10T16:17:38Z</time></trkpt><trkpt lat="39.5278368817417" lon="8.469956521598123"><ele>36.2</ele><time>2026-04-10T16:17:39Z</time></trkpt><trkpt lat="39.5278956935029" lon="8.469869924621877"><ele>36.6</ele><time>2026-04-10T16:17:40Z</time></trkpt><trkpt lat="39.52795683129487" lon="8.469798109995203"><ele>37.0</ele><time>2026-04-10T16:17:41Z</time></trkpt><trkpt lat="39.52802259107473" lon="8.469742624402755"><ele>36.5</ele><time>2026-04-10T16:17:42Z</time></trkpt><trkpt lat="39.52807876976828" lon="8.469681577759696"><ele>36.0</ele><time>2026-04-10T16:17:43Z</time></trkpt><trkpt lat="39.52814138753773" lon="8.469619904601277"><ele>35.5</ele><time>2026-04-10T16:17:44Z</time></trkpt><trkpt lat="39.52819801857871" lon="8.469547223303824"><ele>35.0</ele><time>2026-04-10T16:17:45Z</time></trkpt><trkpt lat="39.52824711601092" lon="8.469461008803531"><ele>34.5</ele><time>2026-04-10T16:17:46Z</time></trkpt><trkpt lat="39.5282944218259" lon="8.469367652176023"><ele>34.0</ele><time>2026-04-10T16:17:47Z</time></trkpt><trkpt lat="39.52835078166007" lon="8.469280462956673"><ele>34.0</ele><time>2026-04-10T16:17:48Z</time></trkpt><trkpt lat="39.52838987552277" lon="8.469199425408581"><ele>34.0</ele><time>2026-04-10T16:17:49Z</time></trkpt><trkpt lat="39.528428001663194" lon="8.469120419516964"><ele>34.0</ele><time>2026-04-10T16:17:50Z</time></trkpt><trkpt lat="39.528460279066024" lon="8.469044959028436"><ele>34.0</ele><time>2026-04-10T16:17:51Z</time></trkpt><trkpt lat="39.528515166530525" lon="8.468902082029107"><ele>34.0</ele><time>2026-04-10T16:17:53Z</time></trkpt><trkpt lat="39.528572072580126" lon="8.468772877309927"><ele>33.6</ele><time>2026-04-10T16:17:55Z</time></trkpt><trkpt lat="39.528627845535055" lon="8.468644484944036"><ele>33.2</ele><time>2026-04-10T16:17:57Z</time></trkpt><trkpt lat="39.5286839350682" lon="8.468501215642872"><ele>32.800000000000004</ele><time>2026-04-10T16:17:59Z</time></trkpt><trkpt lat="39.52872990088826" lon="8.468348324986094"><ele>32.4</ele><time>2026-04-10T16:18:01Z</time></trkpt><trkpt lat="39.52875296022165" lon="8.468269563578142"><ele>32.0</ele><time>2026-04-10T16:18:02Z</time></trkpt><trkpt lat="39.5287860462895" lon="8.46818687591143"><ele>32.0</ele><time>2026-04-10T16:18:03Z</time></trkpt><trkpt lat="39.528825191531794" lon="8.468116619552646"><ele>31.999999999999996</ele><time>2026-04-10T16:18:04Z</time></trkpt><trkpt lat="39.52887091107345" lon="8.468043636972832"><ele>32.0</ele><time>2026-04-10T16:18:05Z</time></trkpt><trkpt lat="39.528928085426955" lon="8.467966083135268"><ele>32.0</ele><time>2026-04-10T16:18:06Z</time></trkpt><trkpt lat="39.52898005747142" lon="8.467900767261373"><ele>31.999999999999996</ele><time>2026-04-10T16:18:07Z</time></trkpt><trkpt lat="39.52903587376094" lon="8.467836131056979"><ele>32.0</ele><time>2026-04-10T16:18:08Z</time></trkpt><trkpt lat="39.52908449572193" lon="8.467765084088896"><ele>32.0</ele><time>2026-04-10T16:18:09Z</time></trkpt><trkpt lat="39.52913406398609" lon="8.467700188138744"><ele>31.833333333333332</ele><time>2026-04-10T16:18:10Z</time></trkpt><trkpt lat="39.529187294861295" lon="8.467643431844316"><ele>31.666666666666664</ele><time>2026-04-10T16:18:11Z</time></trkpt><trkpt lat="39.52925058641931" lon="8.467586610742758"><ele>31.5</ele><time>2026-04-10T16:18:12Z</time></trkpt><trkpt lat="39.52931804630559" lon="8.467532746482743"><ele>31.333333333333336</ele><time>2026-04-10T16:18:13Z</time></trkpt><trkpt lat="39.529399011615254" lon="8.467505521819039"><ele>31.166666666666668</ele><time>2026-04-10T16:18:14Z</time></trkpt><trkpt lat="39.52952426126005" lon="8.467471656901608"><ele>31.0</ele><time>2026-04-10T16:18:15Z</time></trkpt><trkpt lat="39.52964616486085" lon="8.467444445017875"><ele>31.0</ele><time>2026-04-10T16:18:16Z</time></trkpt><trkpt lat="39.529747511433804" lon="8.467397382208835"><ele>31.0</ele><time>2026-04-10T16:18:17Z</time></trkpt><trkpt lat="39.52983397397962" lon="8.467307349837066"><ele>31.0</ele><time>2026-04-10T16:18:18Z</time></trkpt><trkpt lat="39.52992866520577" lon="8.46720135737945"><ele>31.0</ele><time>2026-04-10T16:18:19Z</time></trkpt><trkpt lat="39.53001577157059" lon="8.467069167638224"><ele>31.25</ele><time>2026-04-10T16:18:20Z</time></trkpt><trkpt lat="39.53011355717514" lon="8.466942234918466"><ele>31.5</ele><time>2026-04-10T16:18:21Z</time></trkpt><trkpt lat="39.53019662049514" lon="8.466790680629556"><ele>31.75</ele><time>2026-04-10T16:18:22Z</time></trkpt><trkpt lat="39.53026782082817" lon="8.466619631611087"><ele>32.0</ele><time>2026-04-10T16:18:23Z</time></trkpt><trkpt lat="39.5303293363024" lon="8.466436834849741"><ele>31.0</ele><time>2026-04-10T16:18:24Z</time></trkpt><trkpt lat="39.5303897524962" lon="8.466255658002966"><ele>30.0</ele><time>2026-04-10T16:18:25Z</time></trkpt><trkpt lat="39.53045082170808" lon="8.46608638968744"><ele>29.0</ele><time>2026-04-10T16:18:26Z</time></trkpt><trkpt lat="39.53050443954782" lon="8.46593338353801"><ele>28.0</ele><time>2026-04-10T16:18:27Z</time></trkpt><trkpt lat="39.53056064504857" lon="8.46580723278796"><ele>28.0</ele><time>2026-04-10T16:18:28Z</time></trkpt><trkpt lat="39.530625849434365" lon="8.465705617717578"><ele>27.999999999999996</ele><time>2026-04-10T16:18:29Z</time></trkpt><trkpt lat="39.530706765707734" lon="8.465622656432862"><ele>27.999999999999996</ele><time>2026-04-10T16:18:30Z</time></trkpt><trkpt lat="39.53079600085958" lon="8.465543573329612"><ele>28.0</ele><time>2026-04-10T16:18:31Z</time></trkpt><trkpt lat="39.53090442833279" lon="8.465473969964956"><ele>28.0</ele><time>2026-04-10T16:18:32Z</time></trkpt><trkpt lat="39.53104401056218" lon="8.465413316037397"><ele>29.0</ele><time>2026-04-10T16:18:33Z</time></trkpt><trkpt lat="39.53117466641501" lon="8.465379666479173"><ele>30.0</ele><time>2026-04-10T16:18:34Z</time></trkpt><trkpt lat="39.53128799415122" lon="8.465353163572324"><ele>31.0</ele><time>2026-04-10T16:18:35Z</time></trkpt><trkpt lat="39.53138340744593" lon="8.465335005580643"><ele>32.0</ele><time>2026-04-10T16:18:36Z</time></trkpt><trkpt lat="39.531489489279465" lon="8.465308581543253"><ele>32.0</ele><time>2026-04-10T16:18:37Z</time></trkpt><trkpt lat="39.5315909483421" lon="8.465286655950154"><ele>32.0</ele><time>2026-04-10T16:18:38Z</time></trkpt><trkpt lat="39.53169647922486" lon="8.465260996575681"><ele>32.0</ele><time>2026-04-10T16:18:39Z</time></trkpt><trkpt lat="39.53179294843137" lon="8.465236916435364"><ele>32.0</ele><time>2026-04-10T16:18:40Z</time></trkpt><trkpt lat="39.53189062994567" lon="8.465212764912248"><ele>32.0</ele><time>2026-04-10T16:18:41Z</time></trkpt><trkpt lat="39.53199056494036" lon="8.465171375069744"><ele>30.25</ele><time>2026-04-10T16:18:42Z</time></trkpt><trkpt lat="39.53209719508373" lon="8.465119732978922"><ele>28.5</ele><time>2026-04-10T16:18:43Z</time></trkpt><trkpt lat="39.53220248186843" lon="8.465076213801519"><ele>26.75</ele><time>2026-04-10T16:18:44Z</time></trkpt><trkpt lat="39.532310974047654" lon="8.465037454705024"><ele>25.0</ele><time>2026-04-10T16:18:45Z</time></trkpt><trkpt lat="39.53242192049668" lon="8.464993131650216"><ele>25.0</ele><time>2026-04-10T16:18:46Z</time></trkpt><trkpt lat="39.532534631498045" lon="8.464952254472147"><ele>25.0</ele><time>2026-04-10T16:18:47Z</time></trkpt><trkpt lat="39.532644800042156" lon="8.464907754318423"><ele>25.0</ele><time>2026-04-10T16:18:48Z</time></trkpt><trkpt lat="39.53275255229705" lon="8.464858467839042"><ele>25.0</ele><time>2026-04-10T16:18:49Z</time></trkpt><trkpt lat="39.53285539130656" lon="8.464811406808758"><ele>24.4</ele><time>2026-04-10T16:18:50Z</time></trkpt><trkpt lat="39.53295082891071" lon="8.464767323093952"><ele>23.8</ele><time>2026-04-10T16:18:51Z</time></trkpt><trkpt lat="39.533048431676704" lon="8.4647145585955"><ele>23.200000000000003</ele><time>2026-04-10T16:18:52Z</time></trkpt><trkpt lat="39.53314076418387" lon="8.464651543203532"><ele>22.6</ele><time>2026-04-10T16:18:53Z</time></trkpt><trkpt lat="39.53323827753813" lon="8.464589210001899"><ele>22.0</ele><time>2026-04-10T16:18:54Z</time></trkpt><trkpt lat="39.533326433894146" lon="8.46452895317494"><ele>22.0</ele><time>2026-04-10T16:18:55Z</time></trkpt><trkpt lat="39.533422943403565" lon="8.464457037930314"><ele>22.0</ele><time>2026-04-10T16:18:56Z</time></trkpt><trkpt lat="39.53351036074741" lon="8.464380697710546"><ele>22.0</ele><time>2026-04-10T16:18:57Z</time></trkpt><trkpt lat="39.5335977174597" lon="8.464296944616857"><ele>22.0</ele><time>2026-04-10T16:18:58Z</time></trkpt><trkpt lat="39.53368238661722" lon="8.464213239433139"><ele>22.0</ele><time>2026-04-10T16:18:59Z</time></trkpt><trkpt lat="39.53377298848375" lon="8.46413055226276"><ele>22.0</ele><time>2026-04-10T16:19:00Z</time></trkpt><trkpt lat="39.53386675067631" lon="8.46404630574655"><ele>22.0</ele><time>2026-04-10T16:19:01Z</time></trkpt><trkpt lat="39.53396487367896" lon="8.463959105020034"><ele>22.0</ele><time>2026-04-10T16:19:02Z</time></trkpt><trkpt lat="39.534060261436366" lon="8.463878106245403"><ele>22.0</ele><time>2026-04-10T16:19:03Z</time></trkpt><trkpt lat="39.53415302115542" lon="8.463813718318423"><ele>21.8</ele><time>2026-04-10T16:19:04Z</time></trkpt><trkpt lat="39.53425222086609" lon="8.463747104247679"><ele>21.6</ele><time>2026-04-10T16:19:05Z</time></trkpt><trkpt lat="39.53435173275652" lon="8.463678169430652"><ele>21.400000000000002</ele><time>2026-04-10T16:19:06Z</time></trkpt><trkpt lat="39.53444509933147" lon="8.463621550212737"><ele>21.200000000000003</ele><time>2026-04-10T16:19:07Z</time></trkpt><trkpt lat="39.534524139208884" lon="8.463571342898462"><ele>21.0</ele><time>2026-04-10T16:19:08Z</time></trkpt><trkpt lat="39.53459621664172" lon="8.463508515490085"><ele>21.0</ele><time>2026-04-10T16:19:09Z</time></trkpt><trkpt lat="39.5346693632952" lon="8.463428874619902"><ele>21.0</ele><time>2026-04-10T16:19:10Z</time></trkpt><trkpt lat="39.53474914356884" lon="8.463333450047598"><ele>21.0</ele><time>2026-04-10T16:19:11Z</time></trkpt><trkpt lat="39.53483279079139" lon="8.463197181296483"><ele>21.0</ele><time>2026-04-10T16:19:12Z</time></trkpt><trkpt lat="39.53491427208243" lon="8.463077046833517"><ele>21.0</ele><time>2026-04-10T16:19:13Z</time></trkpt><trkpt lat="39.534994948451974" lon="8.46295576815417"><ele>21.0</ele><time>2026-04-10T16:19:14Z</time></trkpt><trkpt lat="39.53507789771432" lon="8.462828480195213"><ele>21.0</ele><time>2026-04-10T16:19:15Z</time></trkpt><trkpt lat="39.535162281410564" lon="8.462701373827016"><ele>21.0</ele><time>2026-04-10T16:19:16Z</time></trkpt><trkpt lat="39.535243151380115" lon="8.462569263805777"><ele>20.5</ele><time>2026-04-10T16:19:17Z</time></trkpt><trkpt lat="39.535319357187284" lon="8.462446639281723"><ele>20.0</ele><time>2026-04-10T16:19:18Z</time></trkpt><trkpt lat="39.53539639811075" lon="8.462339286265122"><ele>19.5</ele><time>2026-04-10T16:19:19Z</time></trkpt><trkpt lat="39.53546269634194" lon="8.462214581207766"><ele>19.0</ele><time>2026-04-10T16:19:20Z</time></trkpt><trkpt lat="39.53553348408519" lon="8.462078420638756"><ele>19.0</ele><time>2026-04-10T16:19:21Z</time></trkpt><trkpt lat="39.53560396549432" lon="8.461939382389033"><ele>19.0</ele><time>2026-04-10T16:19:22Z</time></trkpt><trkpt lat="39.53566949647187" lon="8.461817254488246"><ele>19.0</ele><time>2026-04-10T16:19:23Z</time></trkpt><trkpt lat="39.53572019921361" lon="8.461713511471995"><ele>19.0</ele><time>2026-04-10T16:19:24Z</time></trkpt><trkpt lat="39.5357781488681" lon="8.461604577231459"><ele>19.0</ele><time>2026-04-10T16:19:25Z</time></trkpt><trkpt lat="39.53583719623799" lon="8.46148726699841"><ele>19.0</ele><time>2026-04-10T16:19:26Z</time></trkpt><trkpt lat="39.53589538047706" lon="8.461356064527338"><ele>19.0</ele><time>2026-04-10T16:19:27Z</time></trkpt><trkpt lat="39.53595900019778" lon="8.461219374299878"><ele>19.0</ele><time>2026-04-10T16:19:28Z</time></trkpt><trkpt lat="39.53601967449127" lon="8.461078264347327"><ele>19.0</ele><time>2026-04-10T16:19:29Z</time></trkpt><trkpt lat="39.53607278191989" lon="8.460935161321826"><ele>19.4</ele><time>2026-04-10T16:19:30Z</time></trkpt><trkpt lat="39.536111972350305" lon="8.460800042979931"><ele>19.799999999999997</ele><time>2026-04-10T16:19:31Z</time></trkpt><trkpt lat="39.53614127547807" lon="8.46067792379547"><ele>20.200000000000003</ele><time>2026-04-10T16:19:32Z</time></trkpt><trkpt lat="39.53616117905471" lon="8.460547434438142"><ele>20.6</ele><time>2026-04-10T16:19:33Z</time></trkpt><trkpt lat="39.53618712053736" lon="8.460407793607006"><ele>21.0</ele><time>2026-04-10T16:19:34Z</time></trkpt><trkpt lat="39.53621538174178" lon="8.460285888745908"><ele>20.2</ele><time>2026-04-10T16:19:35Z</time></trkpt><trkpt lat="39.53623657169698" lon="8.460182660228805"><ele>19.400000000000002</ele><time>2026-04-10T16:19:36Z</time></trkpt><trkpt lat="39.53625192158917" lon="8.460065363262965"><ele>18.6</ele><time>2026-04-10T16:19:37Z</time></trkpt><trkpt lat="39.53625686395799" lon="8.4599268152077"><ele>17.8</ele><time>2026-04-10T16:19:38Z</time></trkpt><trkpt lat="39.53626026078378" lon="8.459771600323277"><ele>17.0</ele><time>2026-04-10T16:19:39Z</time></trkpt><trkpt lat="39.536265575431145" lon="8.459611276359592"><ele>17.0</ele><time>2026-04-10T16:19:40Z</time></trkpt><trkpt lat="39.536280048592424" lon="8.459460490091383"><ele>17.0</ele><time>2026-04-10T16:19:41Z</time></trkpt><trkpt lat="39.53632506386593" lon="8.459326035930612"><ele>17.0</ele><time>2026-04-10T16:19:42Z</time></trkpt><trkpt lat="39.53639457412025" lon="8.459176331149546"><ele>17.0</ele><time>2026-04-10T16:19:43Z</time></trkpt><trkpt lat="39.53646111330202" lon="8.459039767694142"><ele>17.0</ele><time>2026-04-10T16:19:44Z</time></trkpt><trkpt lat="39.53651552371762" lon="8.458903043055942"><ele>17.0</ele><time>2026-04-10T16:19:45Z</time></trkpt><trkpt lat="39.5365711155408" lon="8.458760267456919"><ele>17.0</ele><time>2026-04-10T16:19:46Z</time></trkpt><trkpt lat="39.53662984281066" lon="8.458618118309094"><ele>17.0</ele><time>2026-04-10T16:19:47Z</time></trkpt><trkpt lat="39.53668218719802" lon="8.458498166488097"><ele>16.6</ele><time>2026-04-10T16:19:48Z</time></trkpt><trkpt lat="39.53672842306004" lon="8.458416421810828"><ele>16.2</ele><time>2026-04-10T16:19:49Z</time></trkpt><trkpt lat="39.536774236742716" lon="8.458348525229235"><ele>15.8</ele><time>2026-04-10T16:19:50Z</time></trkpt><trkpt lat="39.53682679768918" lon="8.458297940859945"><ele>15.4</ele><time>2026-04-10T16:19:51Z</time></trkpt><trkpt lat="39.53696639909451" lon="8.45824019064702"><ele>15.0</ele><time>2026-04-10T16:19:53Z</time></trkpt><trkpt lat="39.537071023212086" lon="8.45820886493055"><ele>15.0</ele><time>2026-04-10T16:19:54Z</time></trkpt><trkpt lat="39.5371811434124" lon="8.458181067740643"><ele>15.0</ele><time>2026-04-10T16:19:55Z</time></trkpt><trkpt lat="39.537282318008316" lon="8.458163286221087"><ele>15.0</ele><time>2026-04-10T16:19:56Z</time></trkpt><trkpt lat="39.53736545410466" lon="8.458126674178219"><ele>15.0</ele><time>2026-04-10T16:19:57Z</time></trkpt><trkpt lat="39.53743503280825" lon="8.458089607300879"><ele>15.0</ele><time>2026-04-10T16:19:58Z</time></trkpt><trkpt lat="39.537512185294915" lon="8.457982794562527"><ele>14.8</ele><time>2026-04-10T16:20:00Z</time></trkpt><trkpt lat="39.53754673995543" lon="8.457890355486082"><ele>14.6</ele><time>2026-04-10T16:20:01Z</time></trkpt><trkpt lat="39.537584885614166" lon="8.45778715374125"><ele>14.399999999999999</ele><time>2026-04-10T16:20:02Z</time></trkpt><trkpt lat="39.53764318413694" lon="8.457690898812924"><ele>14.2</ele><time>2026-04-10T16:20:03Z</time></trkpt><trkpt lat="39.53769332407201" lon="8.457585072693"><ele>14.0</ele><time>2026-04-10T16:20:04Z</time></trkpt><trkpt lat="39.53773358484365" lon="8.457470170820141"><ele>14.0</ele><time>2026-04-10T16:20:05Z</time></trkpt><trkpt lat="39.53779424467315" lon="8.457370873475245"><ele>13.999999999999998</ele><time>2026-04-10T16:20:06Z</time></trkpt><trkpt lat="39.537858962168734" lon="8.457276546524824"><ele>13.999999999999998</ele><time>2026-04-10T16:20:07Z</time></trkpt><trkpt lat="39.53792715434802" lon="8.457182763164177"><ele>14.0</ele><time>2026-04-10T16:20:08Z</time></trkpt><trkpt lat="39.53798836070155" lon="8.457081024149538"><ele>14.0</ele><time>2026-04-10T16:20:09Z</time></trkpt><trkpt lat="39.53804351919107" lon="8.456977769392067"><ele>13.2</ele><time>2026-04-10T16:20:10Z</time></trkpt><trkpt lat="39.538115124186696" lon="8.456860917967242"><ele>12.399999999999999</ele><time>2026-04-10T16:20:11Z</time></trkpt><trkpt lat="39.538188361273406" lon="8.456742894853512"><ele>11.6</ele><time>2026-04-10T16:20:12Z</time></trkpt><trkpt lat="39.53824068251547" lon="8.45664603532865"><ele>10.8</ele><time>2026-04-10T16:20:13Z</time></trkpt><trkpt lat="39.538277059815755" lon="8.456576571549473"><ele>10.0</ele><time>2026-04-10T16:20:14Z</time></trkpt><trkpt lat="39.53834603428869" lon="8.456472926648857"><ele>10.0</ele><time>2026-04-10T16:20:16Z</time></trkpt><trkpt lat="39.538421285636524" lon="8.456336755328671"><ele>10.0</ele><time>2026-04-10T16:20:18Z</time></trkpt><trkpt lat="39.53847042859227" lon="8.456261559011992"><ele>10.0</ele><time>2026-04-10T16:20:19Z</time></trkpt><trkpt lat="39.53852123758928" lon="8.456175254622515"><ele>10.0</ele><time>2026-04-10T16:20:20Z</time></trkpt><trkpt lat="39.538579948392055" lon="8.45609679941144"><ele>10.0</ele><time>2026-04-10T16:20:21Z</time></trkpt><trkpt lat="39.538645592328486" lon="8.456021749474727"><ele>10.428571428571429</ele><time>2026-04-10T16:20:22Z</time></trkpt><trkpt lat="39.53870344456165" lon="8.455953090772574"><ele>10.857142857142858</ele><time>2026-04-10T16:20:23Z</time></trkpt><trkpt lat="39.5387566265298" lon="8.455886114202642"><ele>11.285714285714285</ele><time>2026-04-10T16:20:24Z</time></trkpt><trkpt lat="39.538814074996914" lon="8.455830057321732"><ele>11.714285714285715</ele><time>2026-04-10T16:20:25Z</time></trkpt><trkpt lat="39.538860054807564" lon="8.45576648930416"><ele>12.142857142857144</ele><time>2026-04-10T16:20:26Z</time></trkpt><trkpt lat="39.538901809553636" lon="8.455693842126855"><ele>12.571428571428571</ele><time>2026-04-10T16:20:27Z</time></trkpt><trkpt lat="39.53893571732242" lon="8.455610519084363"><ele>13.0</ele><time>2026-04-10T16:20:28Z</time></trkpt><trkpt lat="39.53895323189185" lon="8.455526668429501"><ele>12.600000000000001</ele><time>2026-04-10T16:20:29Z</time></trkpt><trkpt lat="39.538953045503916" lon="8.45543376043657"><ele>12.200000000000001</ele><time>2026-04-10T16:20:30Z</time></trkpt><trkpt lat="39.538940494422995" lon="8.455353366026584"><ele>11.8</ele><time>2026-04-10T16:20:31Z</time></trkpt><trkpt lat="39.53892799224389" lon="8.455192122785009"><ele>11.4</ele><time>2026-04-10T16:20:33Z</time></trkpt><trkpt lat="39.53897001333264" lon="8.455037731289638"><ele>11.0</ele><time>2026-04-10T16:20:35Z</time></trkpt><trkpt lat="39.53901257318208" lon="8.454953754233722"><ele>11.0</ele><time>2026-04-10T16:20:36Z</time></trkpt><trkpt lat="39.539051403992076" lon="8.45488155520784"><ele>11.0</ele><time>2026-04-10T16:20:37Z</time></trkpt><trkpt lat="39.53908122120957" lon="8.454797791377727"><ele>11.0</ele><time>2026-04-10T16:20:38Z</time></trkpt><trkpt lat="39.53911405998806" lon="8.454697247372248"><ele>11.0</ele><time>2026-04-10T16:20:39Z</time></trkpt><trkpt lat="39.53914716923507" lon="8.45457610221175"><ele>11.0</ele><time>2026-04-10T16:20:40Z</time></trkpt><trkpt lat="39.539195415922045" lon="8.454479255280003"><ele>11.0</ele><time>2026-04-10T16:20:41Z</time></trkpt><trkpt lat="39.53922785034941" lon="8.454375109775723"><ele>11.5</ele><time>2026-04-10T16:20:42Z</time></trkpt><trkpt lat="39.53927055815504" lon="8.45426711914918"><ele>12.0</ele><time>2026-04-10T16:20:43Z</time></trkpt><trkpt lat="39.53930960059344" lon="8.454159511208372"><ele>12.5</ele><time>2026-04-10T16:20:44Z</time></trkpt><trkpt lat="39.539346834677886" lon="8.454068812220331"><ele>13.0</ele><time>2026-04-10T16:20:45Z</time></trkpt><trkpt lat="39.539389434416414" lon="8.453984467089036"><ele>13.500000000000002</ele><time>2026-04-10T16:20:46Z</time></trkpt><trkpt lat="39.53943252721882" lon="8.453897912777743"><ele>14.0</ele><time>2026-04-10T16:20:47Z</time></trkpt><trkpt lat="39.53947604807378" lon="8.453819575285644"><ele>14.2</ele><time>2026-04-10T16:20:48Z</time></trkpt><trkpt lat="39.53954079382198" lon="8.453688213934607"><ele>14.399999999999999</ele><time>2026-04-10T16:20:50Z</time></trkpt><trkpt lat="39.53961166757996" lon="8.453551647750583"><ele>14.6</ele><time>2026-04-10T16:20:52Z</time></trkpt><trkpt lat="39.53966276334895" lon="8.453481590080875"><ele>14.8</ele><time>2026-04-10T16:20:53Z</time></trkpt><trkpt lat="39.53974276639216" lon="8.453376592165272"><ele>15.0</ele><time>2026-04-10T16:20:55Z</time></trkpt><trkpt lat="39.53980043183284" lon="8.453287375206363"><ele>13.833333333333334</ele><time>2026-04-10T16:20:57Z</time></trkpt><trkpt lat="39.539861456830785" lon="8.453221551605141"><ele>12.666666666666666</ele><time>2026-04-10T16:20:59Z</time></trkpt><trkpt lat="39.53994594727323" lon="8.45315349354035"><ele>11.5</ele><time>2026-04-10T16:21:01Z</time></trkpt><trkpt lat="39.540018037568444" lon="8.45308997240714"><ele>10.333333333333332</ele><time>2026-04-10T16:21:03Z</time></trkpt><trkpt lat="39.540049429784546" lon="8.453017745412998"><ele>9.166666666666666</ele><time>2026-04-10T16:21:06Z</time></trkpt><trkpt lat="39.540103204446915" lon="8.452968258352984"><ele>8.0</ele><time>2026-04-10T16:21:09Z</time></trkpt><trkpt lat="39.5401388057628" lon="8.452812870243642"><ele>8.0</ele><time>2026-04-10T16:21:11Z</time></trkpt><trkpt lat="39.54015403070556" lon="8.45271114527678"><ele>8.0</ele><time>2026-04-10T16:21:13Z</time></trkpt><trkpt lat="39.54021961064033" lon="8.4525919605109"><ele>8.0</ele><time>2026-04-10T16:21:15Z</time></trkpt><trkpt lat="39.54028320871822" lon="8.452511959372861"><ele>8.0</ele><time>2026-04-10T16:21:16Z</time></trkpt><trkpt lat="39.540302320985" lon="8.452394584546306"><ele>8.0</ele><time>2026-04-10T16:21:17Z</time></trkpt><trkpt lat="39.54034438944493" lon="8.452292255437088"><ele>7.999999999999999</ele><time>2026-04-10T16:21:18Z</time></trkpt><trkpt lat="39.54037926107095" lon="8.45219780679943"><ele>8.0</ele><time>2026-04-10T16:21:19Z</time></trkpt><trkpt lat="39.54041391451515" lon="8.45210142057785"><ele>8.0</ele><time>2026-04-10T16:21:20Z</time></trkpt><trkpt lat="39.540473519257986" lon="8.45201410935486"><ele>8.0</ele><time>2026-04-10T16:21:21Z</time></trkpt><trkpt lat="39.54052822395592" lon="8.451924805706682"><ele>7.999999999999999</ele><time>2026-04-10T16:21:22Z</time></trkpt><trkpt lat="39.54058964077545" lon="8.45183058012065"><ele>8.0</ele><time>2026-04-10T16:21:23Z</time></trkpt><trkpt lat="39.540658450949365" lon="8.45174406432506"><ele>7.4</ele><time>2026-04-10T16:21:24Z</time></trkpt><trkpt lat="39.54071759110033" lon="8.451635799716811"><ele>6.800000000000001</ele><time>2026-04-10T16:21:25Z</time></trkpt><trkpt lat="39.540787105776616" lon="8.451539617667178"><ele>6.2</ele><time>2026-04-10T16:21:26Z</time></trkpt><trkpt lat="39.54082701880371" lon="8.451428311898006"><ele>5.6</ele><time>2026-04-10T16:21:27Z</time></trkpt><trkpt lat="39.540851401206844" lon="8.451311360327203"><ele>5.0</ele><time>2026-04-10T16:21:28Z</time></trkpt><trkpt lat="39.540852529141965" lon="8.451211490076687"><ele>5.0</ele><time>2026-04-10T16:21:29Z</time></trkpt><trkpt lat="39.540869118798824" lon="8.451125598383879"><ele>5.0</ele><time>2026-04-10T16:21:30Z</time></trkpt><trkpt lat="39.54104221103273" lon="8.451015326465567"><ele>5.0</ele><time>2026-04-10T16:21:31Z</time></trkpt><trkpt lat="39.541108994193955" lon="8.450986692630568"><ele>5.0</ele><time>2026-04-10T16:21:33Z</time></trkpt><trkpt lat="39.541178416612794" lon="8.45095519364373"><ele>5.0</ele><time>2026-04-10T16:21:48Z</time></trkpt><trkpt lat="39.54124985660763" lon="8.450939445326098"><ele>4.714285714285714</ele><time>2026-04-10T16:29:24Z</time></trkpt><trkpt lat="39.54130521371278" lon="8.450874370580477"><ele>4.428571428571429</ele><time>2026-04-10T16:29:29Z</time></trkpt><trkpt lat="39.54135207253788" lon="8.45080011824994"><ele>4.142857142857142</ele><time>2026-04-10T16:29:35Z</time></trkpt><trkpt lat="39.541405411474614" lon="8.450740315764314"><ele>3.8571428571428568</ele><time>2026-04-10T16:29:41Z</time></trkpt><trkpt lat="39.54145550125117" lon="8.450668200319988"><ele>3.571428571428571</ele><time>2026-04-10T16:29:47Z</time></trkpt><trkpt lat="39.54150519171419" lon="8.450602734156893"><ele>3.2857142857142856</ele><time>2026-04-10T16:29:53Z</time></trkpt><trkpt lat="39.54155921578366" lon="8.450534169691359"><ele>3.0</ele><time>2026-04-10T16:29:59Z</time></trkpt><trkpt lat="39.541619073510454" lon="8.450473628357349"><ele>2.9999999999999996</ele><time>2026-04-10T16:30:05Z</time></trkpt><trkpt lat="39.54166683355401" lon="8.450414824471865"><ele>3.0</ele><time>2026-04-10T16:30:10Z</time></trkpt><trkpt lat="39.54171914067538" lon="8.450343141197495"><ele>3.0</ele><time>2026-04-10T16:30:16Z</time></trkpt><trkpt lat="39.541764186878446" lon="8.4502753539242"><ele>3.0</ele><time>2026-04-10T16:30:21Z</time></trkpt><trkpt lat="39.541810805557326" lon="8.45021244616429"><ele>3.0</ele><time>2026-04-10T16:30:26Z</time></trkpt><trkpt lat="39.54185416177724" lon="8.450134284018484"><ele>2.9999999999999996</ele><time>2026-04-10T16:30:32Z</time></trkpt><trkpt lat="39.541887617316334" lon="8.4500541642257"><ele>3.0</ele><time>2026-04-10T16:30:37Z</time></trkpt><trkpt lat="39.541932978116265" lon="8.449994395102138"><ele>2.9999999999999996</ele><time>2026-04-10T16:30:42Z</time></trkpt><trkpt lat="39.5419678469784" lon="8.4499235725107"><ele>3.0</ele><time>2026-04-10T16:30:47Z</time></trkpt><trkpt lat="39.542013738472704" lon="8.449854447951704"><ele>3.0</ele><time>2026-04-10T16:30:53Z</time></trkpt><trkpt lat="39.54205232472511" lon="8.449786002571008"><ele>3.0</ele><time>2026-04-10T16:31:00Z</time></trkpt><trkpt lat="39.54207446765796" lon="8.449706651930581"><ele>3.0</ele><time>2026-04-10T16:31:14Z</time></trkpt><trkpt lat="39.5421066748837" lon="8.449623359174831"><ele>2.9999999999999996</ele><time>2026-04-10T16:31:21Z</time></trkpt><trkpt lat="39.54214343095938" lon="8.449549125894823"><ele>3.0</ele><time>2026-04-10T16:31:28Z</time></trkpt><trkpt lat="39.542191914369724" lon="8.449489347770434"><ele>3.1428571428571423</ele><time>2026-04-10T16:31:35Z</time></trkpt><trkpt lat="39.54222301027981" lon="8.449414908326599"><ele>3.2857142857142856</ele><time>2026-04-10T16:32:04Z</time></trkpt><trkpt lat="39.542281549084954" lon="8.449374935326581"><ele>3.4285714285714284</ele><time>2026-04-10T16:32:28Z</time></trkpt><trkpt lat="39.54231731448682" lon="8.44930261341879"><ele>3.571428571428571</ele><time>2026-04-10T16:32:35Z</time></trkpt><trkpt lat="39.54235724788274" lon="8.44923667974903"><ele>3.714285714285714</ele><time>2026-04-10T16:33:42Z</time></trkpt><trkpt lat="39.54239782977265" lon="8.449166463992356"><ele>3.8571428571428568</ele><time>2026-04-10T16:33:52Z</time></trkpt><trkpt lat="39.542438800795466" lon="8.449099057320769"><ele>4.0</ele><time>2026-04-10T16:34:01Z</time></trkpt><trkpt lat="39.542386061555284" lon="8.449150525158881"><ele>4.0</ele><time>2026-04-10T16:34:31Z</time></trkpt><trkpt lat="39.54233506785315" lon="8.449212421564543"><ele>3.9999999999999996</ele><time>2026-04-10T16:34:51Z</time></trkpt><trkpt lat="39.54229212515912" lon="8.449273043074346"><ele>4.0</ele><time>2026-04-10T16:35:01Z</time></trkpt><trkpt lat="39.5422506849703" lon="8.449339120567902"><ele>4.0</ele><time>2026-04-10T16:35:12Z</time></trkpt><trkpt lat="39.542223124689656" lon="8.449417813082706"><ele>3.9999999999999996</ele><time>2026-04-10T16:39:00Z</time></trkpt><trkpt lat="39.54216989481084" lon="8.449470238831116"><ele>4.0</ele><time>2026-04-10T16:39:16Z</time></trkpt><trkpt lat="39.54213110443017" lon="8.449534633681276"><ele>4.0</ele><time>2026-04-10T16:39:26Z</time></trkpt><trkpt lat="39.54209772381943" lon="8.449604872433481"><ele>4.0</ele><time>2026-04-10T16:39:49Z</time></trkpt><trkpt lat="39.54206825203634" lon="8.44968287143638"><ele>3.9999999999999996</ele><time>2026-04-10T16:40:02Z</time></trkpt><trkpt lat="39.542042690692575" lon="8.449759675119909"><ele>4.0</ele><time>2026-04-10T16:40:09Z</time></trkpt><trkpt lat="39.54200097794953" lon="8.449827772331286"><ele>4.0</ele><time>2026-04-10T16:40:16Z</time></trkpt><trkpt lat="39.541964716316215" lon="8.449898450028774"><ele>3.9999999999999996</ele><time>2026-04-10T16:40:22Z</time></trkpt><trkpt lat="39.54192788903175" lon="8.449974958834401"><ele>4.0</ele><time>2026-04-10T16:40:29Z</time></trkpt><trkpt lat="39.54187899286545" lon="8.45004441358671"><ele>4.0</ele><time>2026-04-10T16:40:36Z</time></trkpt><trkpt lat="39.54184520866748" lon="8.450129020661237"><ele>3.8571428571428568</ele><time>2026-04-10T16:40:43Z</time></trkpt><trkpt lat="39.54180773783939" lon="8.450200224941247"><ele>3.714285714285714</ele><time>2026-04-10T16:40:49Z</time></trkpt><trkpt lat="39.54177369163494" lon="8.450270858768656"><ele>3.571428571428571</ele><time>2026-04-10T16:40:56Z</time></trkpt><trkpt lat="39.54173347172013" lon="8.450337283559767"><ele>3.4285714285714284</ele><time>2026-04-10T16:41:03Z</time></trkpt><trkpt lat="39.54168592263354" lon="8.450393277261067"><ele>3.2857142857142856</ele><time>2026-04-10T16:41:11Z</time></trkpt><trkpt lat="39.54163120415202" lon="8.450451758429661"><ele>3.1428571428571423</ele><time>2026-04-10T16:41:27Z</time></trkpt><trkpt lat="39.54157741748549" lon="8.450503540821131"><ele>3.0</ele><time>2026-04-10T16:41:35Z</time></trkpt><trkpt lat="39.5415264245902" lon="8.45055337507355"><ele>2.9999999999999996</ele><time>2026-04-10T16:41:43Z</time></trkpt><trkpt lat="39.54149514524594" lon="8.450627584558859"><ele>3.0</ele><time>2026-04-10T16:41:53Z</time></trkpt><trkpt lat="39.54144592134417" lon="8.450692058535727"><ele>3.0</ele><time>2026-04-10T16:42:10Z</time></trkpt><trkpt lat="39.54139980613153" lon="8.450758522414713"><ele>3.0</ele><time>2026-04-10T16:42:20Z</time></trkpt><trkpt lat="39.54135830220895" lon="8.450829806029397"><ele>3.0</ele><time>2026-04-10T16:42:27Z</time></trkpt><trkpt lat="39.54129838628597" lon="8.450874737261673"><ele>2.9999999999999996</ele><time>2026-04-10T16:42:37Z</time></trkpt><trkpt lat="39.54125678651326" lon="8.45095741805209"><ele>3.0</ele><time>2026-04-10T16:42:47Z</time></trkpt><trkpt lat="39.54121161369118" lon="8.451016320227884"><ele>3.0</ele><time>2026-04-10T16:42:56Z</time></trkpt><trkpt lat="39.54127451452763" lon="8.451055177840832"><ele>3.0</ele><time>2026-04-10T16:49:40.001Z</time></trkpt><trkpt lat="39.541328650013284" lon="8.451110863278437"><ele>3.0</ele><time>2026-04-10T16:49:43.001Z</time></trkpt><trkpt lat="39.54135915619051" lon="8.451188342206951"><ele>3.0</ele><time>2026-04-10T16:49:45.001Z</time></trkpt><trkpt lat="39.541362748263005" lon="8.451302048166644"><ele>3.0</ele><time>2026-04-10T16:49:48.001Z</time></trkpt><trkpt lat="39.54134422971464" lon="8.451389349646584"><ele>3.0</ele><time>2026-04-10T16:49:50.001Z</time></trkpt><trkpt lat="39.54129042487151" lon="8.45152108287261"><ele>3.2857142857142856</ele><time>2026-04-10T16:49:52.001Z</time></trkpt><trkpt lat="39.54125461998143" lon="8.451595371362227"><ele>3.571428571428571</ele><time>2026-04-10T16:49:53Z</time></trkpt><trkpt lat="39.54120993447326" lon="8.45166836269416"><ele>3.8571428571428568</ele><time>2026-04-10T16:49:54Z</time></trkpt><trkpt lat="39.541161658061476" lon="8.45173921690006"><ele>4.142857142857142</ele><time>2026-04-10T16:49:55Z</time></trkpt><trkpt lat="39.54111407888483" lon="8.451808457798283"><ele>4.428571428571429</ele><time>2026-04-10T16:49:56Z</time></trkpt><trkpt lat="39.541066106342015" lon="8.451871503366045"><ele>4.714285714285714</ele><time>2026-04-10T16:49:57Z</time></trkpt><trkpt lat="39.54101782677017" lon="8.451930896766493"><ele>5.0</ele><time>2026-04-10T16:49:58Z</time></trkpt><trkpt lat="39.54091575185487" lon="8.452022160588497"><ele>5.0</ele><time>2026-04-10T16:50:00Z</time></trkpt><trkpt lat="39.54085521350994" lon="8.452058800469192"><ele>5.0</ele><time>2026-04-10T16:50:01Z</time></trkpt><trkpt lat="39.54079066307455" lon="8.452090608519347"><ele>5.0</ele><time>2026-04-10T16:50:02Z</time></trkpt><trkpt lat="39.54068484372046" lon="8.452111624318851"><ele>5.0</ele><time>2026-04-10T16:50:04Z</time></trkpt><trkpt lat="39.54060620693172" lon="8.452109023077133"><ele>5.0</ele><time>2026-04-10T16:50:06Z</time></trkpt><trkpt lat="39.54054143544713" lon="8.452122578964314"><ele>5.0</ele><time>2026-04-10T16:50:10Z</time></trkpt><trkpt lat="39.540445128872214" lon="8.452178183876061"><ele>5.166666666666667</ele><time>2026-04-10T16:50:13Z</time></trkpt><trkpt lat="39.54040116771779" lon="8.452278389257902"><ele>5.333333333333334</ele><time>2026-04-10T16:50:15Z</time></trkpt><trkpt lat="39.540368594552355" lon="8.45239138153785"><ele>5.5</ele><time>2026-04-10T16:50:17Z</time></trkpt><trkpt lat="39.54034940652456" lon="8.452481836652678"><ele>5.666666666666667</ele><time>2026-04-10T16:50:19Z</time></trkpt><trkpt lat="39.54029642976768" lon="8.45257931205727"><ele>5.833333333333333</ele><time>2026-04-10T16:50:22Z</time></trkpt><trkpt lat="39.54025062338967" lon="8.452666684739851"><ele>6.0</ele><time>2026-04-10T16:50:24Z</time></trkpt><trkpt lat="39.54019120413273" lon="8.452719431637934"><ele>6.4</ele><time>2026-04-10T16:50:28Z</time></trkpt><trkpt lat="39.54013681366445" lon="8.452765727533608"><ele>6.8</ele><time>2026-04-10T16:50:30Z</time></trkpt><trkpt lat="39.54009957499858" lon="8.452864466486888"><ele>7.200000000000001</ele><time>2026-04-10T16:50:32Z</time></trkpt><trkpt lat="39.54007290190376" lon="8.453006022196696"><ele>7.6000000000000005</ele><time>2026-04-10T16:50:34.001Z</time></trkpt><trkpt lat="39.540029626084504" lon="8.453104956296276"><ele>8.0</ele><time>2026-04-10T16:50:36.001Z</time></trkpt><trkpt lat="39.53994781817584" lon="8.453182760507746"><ele>8.0</ele><time>2026-04-10T16:50:38.001Z</time></trkpt><trkpt lat="39.53985706708946" lon="8.453171339186893"><ele>7.999999999999999</ele><time>2026-04-10T16:50:39.001Z</time></trkpt><trkpt lat="39.5397995058636" lon="8.453205790334785"><ele>8.0</ele><time>2026-04-10T16:50:40.001Z</time></trkpt><trkpt lat="39.53973995655742" lon="8.45324143139274"><ele>8.0</ele><time>2026-04-10T16:50:42.001Z</time></trkpt><trkpt lat="39.53967590278884" lon="8.453222967664452"><ele>7.999999999999999</ele><time>2026-04-10T16:50:44.001Z</time></trkpt><trkpt lat="39.53961634136146" lon="8.453259505388703"><ele>8.0</ele><time>2026-04-10T16:50:46.001Z</time></trkpt><trkpt lat="39.53954675580181" lon="8.453314126673165"><ele>8.0</ele><time>2026-04-10T16:50:48.001Z</time></trkpt><trkpt lat="39.53947854535506" lon="8.45337498969587"><ele>8.0</ele><time>2026-04-10T16:50:51.001Z</time></trkpt><trkpt lat="39.53942212858746" lon="8.453422525706667"><ele>8.0</ele><time>2026-04-10T16:51:03.001Z</time></trkpt><trkpt lat="39.53936369194309" lon="8.45350340054777"><ele>8.0</ele><time>2026-04-10T16:51:05.001Z</time></trkpt><trkpt lat="39.53928892137627" lon="8.45364407357933"><ele>8.0</ele><time>2026-04-10T16:51:08.001Z</time></trkpt><trkpt lat="39.53926608293519" lon="8.453731487034828"><ele>8.0</ele><time>2026-04-10T16:51:13.001Z</time></trkpt><trkpt lat="39.53955073190006" lon="8.453712707904101"><ele>8.0</ele><time>2026-04-10T16:51:32.001Z</time></trkpt><trkpt lat="39.53959477118677" lon="8.453602980031649"><ele>8.0</ele><time>2026-04-10T16:51:33.001Z</time></trkpt><trkpt lat="39.53966279653213" lon="8.453497524069371"><ele>8.0</ele><time>2026-04-10T16:51:34.001Z</time></trkpt><trkpt lat="39.53971507792022" lon="8.45341962049439"><ele>8.0</ele><time>2026-04-10T16:51:35.001Z</time></trkpt><trkpt lat="39.53979482775676" lon="8.453332025507516"><ele>8.0</ele><time>2026-04-10T16:51:37.001Z</time></trkpt><trkpt lat="39.53980899898459" lon="8.453250721304313"><ele>8.0</ele><time>2026-04-10T16:51:39.001Z</time></trkpt><trkpt lat="39.539701469262376" lon="8.453209178168628"><ele>8.0</ele><time>2026-04-10T16:51:43.001Z</time></trkpt><trkpt lat="39.53961573847102" lon="8.453283715228642"><ele>8.0</ele><time>2026-04-10T16:51:45.001Z</time></trkpt><trkpt lat="39.53952391932302" lon="8.4533472488385"><ele>8.0</ele><time>2026-04-10T16:51:46.001Z</time></trkpt><trkpt lat="39.53943405959376" lon="8.453433766263165"><ele>8.0</ele><time>2026-04-10T16:51:47.001Z</time></trkpt><trkpt lat="39.53934338966578" lon="8.45353152059458"><ele>9.2</ele><time>2026-04-10T16:51:48.001Z</time></trkpt><trkpt lat="39.539296926346424" lon="8.453621671179036"><ele>10.4</ele><time>2026-04-10T16:51:49.001Z</time></trkpt><trkpt lat="39.539267741310056" lon="8.453735687327292"><ele>11.599999999999998</ele><time>2026-04-10T16:51:50.001Z</time></trkpt><trkpt lat="39.53922978815335" lon="8.453897415540261"><ele>12.799999999999999</ele><time>2026-04-10T16:51:51Z</time></trkpt><trkpt lat="39.53917528640914" lon="8.454049570195489"><ele>14.0</ele><time>2026-04-10T16:51:52Z</time></trkpt><trkpt lat="39.539141514410574" lon="8.454205604000961"><ele>14.0</ele><time>2026-04-10T16:51:53Z</time></trkpt><trkpt lat="39.53912108653716" lon="8.454365636284857"><ele>13.999999999999998</ele><time>2026-04-10T16:51:54Z</time></trkpt><trkpt lat="39.53909144446794" lon="8.454490470570022"><ele>13.999999999999998</ele><time>2026-04-10T16:51:55Z</time></trkpt><trkpt lat="39.53906035833025" lon="8.454602168553995"><ele>14.0</ele><time>2026-04-10T16:51:56Z</time></trkpt><trkpt lat="39.53902037166533" lon="8.454716523669823"><ele>14.0</ele><time>2026-04-10T16:51:57Z</time></trkpt><trkpt lat="39.53898442306405" lon="8.4548491687399"><ele>13.833333333333334</ele><time>2026-04-10T16:51:58Z</time></trkpt><trkpt lat="39.538960136648114" lon="8.45499435008935"><ele>13.666666666666668</ele><time>2026-04-10T16:51:59Z</time></trkpt><trkpt lat="39.53893741293628" lon="8.455103248519956"><ele>13.5</ele><time>2026-04-10T16:52:00Z</time></trkpt><trkpt lat="39.53892083440991" lon="8.455195372912748"><ele>13.333333333333332</ele><time>2026-04-10T16:52:01Z</time></trkpt><trkpt lat="39.53891882021404" lon="8.45527707851534"><ele>13.166666666666666</ele><time>2026-04-10T16:52:02Z</time></trkpt><trkpt lat="39.53893088593028" lon="8.455363308575782"><ele>13.0</ele><time>2026-04-10T16:52:03Z</time></trkpt><trkpt lat="39.53891670149067" lon="8.45547479295524"><ele>13.0</ele><time>2026-04-10T16:52:04Z</time></trkpt><trkpt lat="39.53890502049095" lon="8.455573239516653"><ele>13.0</ele><time>2026-04-10T16:52:05Z</time></trkpt><trkpt lat="39.5388724734597" lon="8.455649091201455"><ele>13.0</ele><time>2026-04-10T16:52:06Z</time></trkpt><trkpt lat="39.53882024175157" lon="8.455727692408042"><ele>13.0</ele><time>2026-04-10T16:52:07Z</time></trkpt><trkpt lat="39.538739556395626" lon="8.45584525670856"><ele>13.0</ele><time>2026-04-10T16:52:08Z</time></trkpt><trkpt lat="39.538655045907454" lon="8.455953922476137"><ele>13.600000000000001</ele><time>2026-04-10T16:52:09Z</time></trkpt><trkpt lat="39.53858437583567" lon="8.456041937917243"><ele>14.200000000000001</ele><time>2026-04-10T16:52:10Z</time></trkpt><trkpt lat="39.53851134666148" lon="8.456140549511584"><ele>14.8</ele><time>2026-04-10T16:52:11Z</time></trkpt><trkpt lat="39.53844238404341" lon="8.45625940528325"><ele>15.4</ele><time>2026-04-10T16:52:12Z</time></trkpt><trkpt lat="39.538367522627844" lon="8.456393219276078"><ele>16.0</ele><time>2026-04-10T16:52:13Z</time></trkpt><trkpt lat="39.53829251841667" lon="8.456534941808982"><ele>14.5</ele><time>2026-04-10T16:52:14Z</time></trkpt><trkpt lat="39.53820401114753" lon="8.456668108327287"><ele>13.0</ele><time>2026-04-10T16:52:15Z</time></trkpt><trkpt lat="39.53812611443453" lon="8.4568175440589"><ele>11.5</ele><time>2026-04-10T16:52:16Z</time></trkpt><trkpt lat="39.53804147888489" lon="8.45695386263089"><ele>10.0</ele><time>2026-04-10T16:52:17Z</time></trkpt><trkpt lat="39.5379676399939" lon="8.457081649334905"><ele>11.0</ele><time>2026-04-10T16:52:18Z</time></trkpt><trkpt lat="39.537883943428625" lon="8.457211589374843"><ele>12.0</ele><time>2026-04-10T16:52:19Z</time></trkpt><trkpt lat="39.537802184664535" lon="8.457349693780435"><ele>13.0</ele><time>2026-04-10T16:52:20Z</time></trkpt><trkpt lat="39.53771174393781" lon="8.457492882315778"><ele>14.0</ele><time>2026-04-10T16:52:21Z</time></trkpt><trkpt lat="39.53763512034272" lon="8.457636671405771"><ele>14.0</ele><time>2026-04-10T16:52:22Z</time></trkpt><trkpt lat="39.53757268141414" lon="8.457775770968404"><ele>13.999999999999998</ele><time>2026-04-10T16:52:23Z</time></trkpt><trkpt lat="39.53752034034595" lon="8.45789652668819"><ele>13.999999999999998</ele><time>2026-04-10T16:52:24Z</time></trkpt><trkpt lat="39.537470764427965" lon="8.457995673835056"><ele>14.0</ele><time>2026-04-10T16:52:25Z</time></trkpt><trkpt lat="39.537431984729544" lon="8.458060670554397"><ele>14.0</ele><time>2026-04-10T16:52:26Z</time></trkpt><trkpt lat="39.53737058344947" lon="8.458084518220224"><ele>14.25</ele><time>2026-04-10T16:52:27Z</time></trkpt><trkpt lat="39.53728676373035" lon="8.45809666258327"><ele>14.5</ele><time>2026-04-10T16:52:28Z</time></trkpt><trkpt lat="39.537171063448895" lon="8.45813505884363"><ele>14.75</ele><time>2026-04-10T16:52:29Z</time></trkpt><trkpt lat="39.537045012837346" lon="8.458194305539651"><ele>15.0</ele><time>2026-04-10T16:52:30Z</time></trkpt><trkpt lat="39.53691820836048" lon="8.458220737079676"><ele>16.4</ele><time>2026-04-10T16:52:31Z</time></trkpt><trkpt lat="39.536830289645145" lon="8.45826770271781"><ele>17.8</ele><time>2026-04-10T16:52:32Z</time></trkpt><trkpt lat="39.536754780515906" lon="8.458317767087012"><ele>19.200000000000003</ele><time>2026-04-10T16:52:33Z</time></trkpt><trkpt lat="39.536687360621464" lon="8.458371106305226"><ele>20.6</ele><time>2026-04-10T16:52:34Z</time></trkpt><trkpt lat="39.53664073251238" lon="8.45851420007299"><ele>22.0</ele><time>2026-04-10T16:52:35Z</time></trkpt><trkpt lat="39.53657547781407" lon="8.458687568856575"><ele>20.75</ele><time>2026-04-10T16:52:36Z</time></trkpt><trkpt lat="39.536513908600526" lon="8.4588423933223"><ele>19.5</ele><time>2026-04-10T16:52:37Z</time></trkpt><trkpt lat="39.53644971601417" lon="8.45898513503841"><ele>18.25</ele><time>2026-04-10T16:52:38Z</time></trkpt><trkpt lat="39.53638349592075" lon="8.459138769677137"><ele>17.0</ele><time>2026-04-10T16:52:39Z</time></trkpt><trkpt lat="39.536327000094715" lon="8.459271357663726"><ele>17.0</ele><time>2026-04-10T16:52:40Z</time></trkpt><trkpt lat="39.53628303009298" lon="8.459404449220525"><ele>17.0</ele><time>2026-04-10T16:52:41Z</time></trkpt><trkpt lat="39.536233758576934" lon="8.459545689498565"><ele>17.0</ele><time>2026-04-10T16:52:42Z</time></trkpt><trkpt lat="39.53623881606443" lon="8.459700973098789"><ele>17.0</ele><time>2026-04-10T16:52:43Z</time></trkpt><trkpt lat="39.536239557741474" lon="8.459856895690281"><ele>18.0</ele><time>2026-04-10T16:52:44Z</time></trkpt><trkpt lat="39.5362193641322" lon="8.46003729434728"><ele>19.0</ele><time>2026-04-10T16:52:45Z</time></trkpt><trkpt lat="39.53618775562524" lon="8.46022647968968"><ele>20.0</ele><time>2026-04-10T16:52:46Z</time></trkpt><trkpt lat="39.536151649655736" lon="8.460408845346555"><ele>21.0</ele><time>2026-04-10T16:52:47Z</time></trkpt><trkpt lat="39.53614131599005" lon="8.460567346541474"><ele>21.0</ele><time>2026-04-10T16:52:48Z</time></trkpt><trkpt lat="39.53610897644823" lon="8.460721512677944"><ele>21.0</ele><time>2026-04-10T16:52:49Z</time></trkpt><trkpt lat="39.53606486367204" lon="8.460887042617728"><ele>21.0</ele><time>2026-04-10T16:52:50Z</time></trkpt><trkpt lat="39.53599096901963" lon="8.461037559759525"><ele>21.0</ele><time>2026-04-10T16:52:51Z</time></trkpt><trkpt lat="39.53593730910466" lon="8.461197702782426"><ele>20.5</ele><time>2026-04-10T16:52:52Z</time></trkpt><trkpt lat="39.535862801260976" lon="8.4613460230664"><ele>20.0</ele><time>2026-04-10T16:52:53Z</time></trkpt><trkpt lat="39.53578889412974" lon="8.461496331634072"><ele>19.5</ele><time>2026-04-10T16:52:54Z</time></trkpt><trkpt lat="39.53571221827014" lon="8.461646354254219"><ele>19.0</ele><time>2026-04-10T16:52:55Z</time></trkpt><trkpt lat="39.53563999873997" lon="8.461785657456339"><ele>19.0</ele><time>2026-04-10T16:52:56Z</time></trkpt><trkpt lat="39.53556908672771" lon="8.461911308118925"><ele>19.0</ele><time>2026-04-10T16:52:57Z</time></trkpt><trkpt lat="39.535507427237654" lon="8.462017056038661"><ele>19.0</ele><time>2026-04-10T16:52:58Z</time></trkpt><trkpt lat="39.53544893872312" lon="8.46214136532631"><ele>19.0</ele><time>2026-04-10T16:52:59Z</time></trkpt><trkpt lat="39.535389782259095" lon="8.462270022843033"><ele>21.0</ele><time>2026-04-10T16:53:00Z</time></trkpt><trkpt lat="39.53533245211625" lon="8.462395108367998"><ele>23.0</ele><time>2026-04-10T16:53:01Z</time></trkpt><trkpt lat="39.5352552460117" lon="8.462486872186513"><ele>25.0</ele><time>2026-04-10T16:53:02Z</time></trkpt><trkpt lat="39.535174776789646" lon="8.462611442911365"><ele>27.0</ele><time>2026-04-10T16:53:03Z</time></trkpt><trkpt lat="39.535091421585776" lon="8.462743712665159"><ele>27.0</ele><time>2026-04-10T16:53:04Z</time></trkpt><trkpt lat="39.53501023826007" lon="8.462872536039937"><ele>27.0</ele><time>2026-04-10T16:53:05Z</time></trkpt><trkpt lat="39.534926453422315" lon="8.46299957947605"><ele>27.0</ele><time>2026-04-10T16:53:06Z</time></trkpt><trkpt lat="39.534842427753276" lon="8.463121994750468"><ele>27.0</ele><time>2026-04-10T16:53:07Z</time></trkpt><trkpt lat="39.53477381885814" lon="8.463249423588692"><ele>28.0</ele><time>2026-04-10T16:53:08Z</time></trkpt><trkpt lat="39.53469959239197" lon="8.4633360439147"><ele>29.000000000000004</ele><time>2026-04-10T16:53:09Z</time></trkpt><trkpt lat="39.53463358415785" lon="8.463419924219826"><ele>30.000000000000004</ele><time>2026-04-10T16:53:10Z</time></trkpt><trkpt lat="39.534567295224264" lon="8.463502604145395"><ele>31.0</ele><time>2026-04-10T16:53:11Z</time></trkpt><trkpt lat="39.53449496988895" lon="8.463555664519125"><ele>32.0</ele><time>2026-04-10T16:53:12Z</time></trkpt><trkpt lat="39.53441543319546" lon="8.463610252648243"><ele>32.0</ele><time>2026-04-10T16:53:13Z</time></trkpt><trkpt lat="39.53432481487888" lon="8.463653705729433"><ele>32.0</ele><time>2026-04-10T16:53:14Z</time></trkpt><trkpt lat="39.53422975386415" lon="8.46371179857494"><ele>32.0</ele><time>2026-04-10T16:53:15Z</time></trkpt><trkpt lat="39.534144960211115" lon="8.463794193441"><ele>32.0</ele><time>2026-04-10T16:53:16Z</time></trkpt><trkpt lat="39.53404867508746" lon="8.463863125652729"><ele>32.0</ele><time>2026-04-10T16:53:17Z</time></trkpt><trkpt lat="39.533955144242235" lon="8.46394319710196"><ele>31.5</ele><time>2026-04-10T16:53:18Z</time></trkpt><trkpt lat="39.53386541700808" lon="8.464013770752397"><ele>31.0</ele><time>2026-04-10T16:53:19Z</time></trkpt><trkpt lat="39.5337816484361" lon="8.464101244508328"><ele>30.5</ele><time>2026-04-10T16:53:20Z</time></trkpt><trkpt lat="39.53367632394578" lon="8.464191587760407"><ele>30.0</ele><time>2026-04-10T16:53:21Z</time></trkpt><trkpt lat="39.533570124105665" lon="8.464290564013227"><ele>30.0</ele><time>2026-04-10T16:53:22Z</time></trkpt><trkpt lat="39.53346774205293" lon="8.46438384738318"><ele>30.0</ele><time>2026-04-10T16:53:23Z</time></trkpt><trkpt lat="39.53337325775769" lon="8.464460719683915"><ele>30.0</ele><time>2026-04-10T16:53:24Z</time></trkpt><trkpt lat="39.53329205441427" lon="8.46452197526828"><ele>30.0</ele><time>2026-04-10T16:53:25Z</time></trkpt><trkpt lat="39.53321693527218" lon="8.464570832229793"><ele>30.0</ele><time>2026-04-10T16:53:26Z</time></trkpt><trkpt lat="39.53314744557575" lon="8.464613323456746"><ele>29.0</ele><time>2026-04-10T16:53:27Z</time></trkpt><trkpt lat="39.53308236668974" lon="8.464652183954826"><ele>28.0</ele><time>2026-04-10T16:53:28Z</time></trkpt><trkpt lat="39.53302639234718" lon="8.464690071971225"><ele>27.0</ele><time>2026-04-10T16:53:29Z</time></trkpt><trkpt lat="39.53293074588742" lon="8.464752482400206"><ele>26.0</ele><time>2026-04-10T16:53:31Z</time></trkpt><trkpt lat="39.53285883077722" lon="8.464772606800121"><ele>25.0</ele><time>2026-04-10T16:53:33Z</time></trkpt><trkpt lat="39.532911818097396" lon="8.464939753267938"><ele>24.4</ele><time>2026-04-10T16:54:12Z</time></trkpt><trkpt lat="39.53300636525096" lon="8.464948395065024"><ele>23.8</ele><time>2026-04-10T16:54:15Z</time></trkpt><trkpt lat="39.53307994565737" lon="8.46495397326511"><ele>23.200000000000003</ele><time>2026-04-10T16:54:17Z</time></trkpt><trkpt lat="39.53321081204514" lon="8.46495204231051"><ele>22.6</ele><time>2026-04-10T16:54:19Z</time></trkpt><trkpt lat="39.53332028684613" lon="8.464973495992789"><ele>22.0</ele><time>2026-04-10T16:54:21Z</time></trkpt><trkpt lat="39.53342585007435" lon="8.465019191062662"><ele>22.0</ele><time>2026-04-10T16:54:23Z</time></trkpt><trkpt lat="39.53352682668727" lon="8.465070794632421"><ele>22.0</ele><time>2026-04-10T16:54:25Z</time></trkpt><trkpt lat="39.53359818863621" lon="8.465155977206686"><ele>22.0</ele><time>2026-04-10T16:54:27Z</time></trkpt><trkpt lat="39.53367278175694" lon="8.46520222685025"><ele>22.0</ele><time>2026-04-10T16:54:30Z</time></trkpt><trkpt lat="39.53374764880501" lon="8.465263083782274"><ele>22.0</ele><time>2026-04-10T16:54:33Z</time></trkpt><trkpt lat="39.533811213467004" lon="8.465272826288935"><ele>22.0</ele><time>2026-04-10T16:54:35Z</time></trkpt><trkpt lat="39.53387500443316" lon="8.465283355679741"><ele>21.333333333333332</ele><time>2026-04-10T16:54:39Z</time></trkpt><trkpt lat="39.533938236153155" lon="8.465277838363516"><ele>20.666666666666664</ele><time>2026-04-10T16:56:24Z</time></trkpt><trkpt lat="39.534008254122135" lon="8.465287379113159"><ele>20.0</ele><time>2026-04-10T16:56:44Z</time></trkpt><trkpt lat="39.53407063796664" lon="8.465348594465489"><ele>19.333333333333332</ele><time>2026-04-10T16:56:48Z</time></trkpt><trkpt lat="39.534092324815596" lon="8.46543942288797"><ele>18.666666666666668</ele><time>2026-04-10T16:56:50Z</time></trkpt><trkpt lat="39.534107085716315" lon="8.465521622779235"><ele>18.0</ele><time>2026-04-10T16:56:52Z</time></trkpt><trkpt lat="39.534149517652665" lon="8.46564032987845"><ele>18.0</ele><time>2026-04-10T16:56:55Z</time></trkpt><trkpt lat="39.53418815615955" lon="8.465737720374005"><ele>18.0</ele><time>2026-04-10T16:56:57Z</time></trkpt><trkpt lat="39.53425688386966" lon="8.465794106227198"><ele>18.0</ele><time>2026-04-10T16:56:59Z</time></trkpt><trkpt lat="39.534321502416084" lon="8.465861210849566"><ele>18.0</ele><time>2026-04-10T16:59:31Z</time></trkpt><trkpt lat="39.534422957958704" lon="8.465880617327908"><ele>18.0</ele><time>2026-04-10T16:59:35Z</time></trkpt><trkpt lat="39.53455201001315" lon="8.465898274859978"><ele>18.2</ele><time>2026-04-10T16:59:37Z</time></trkpt><trkpt lat="39.53462732870077" lon="8.465896420487464"><ele>18.4</ele><time>2026-04-10T16:59:38Z</time></trkpt><trkpt lat="39.534704391477305" lon="8.465900041376"><ele>18.599999999999998</ele><time>2026-04-10T16:59:39Z</time></trkpt><trkpt lat="39.53479513589824" lon="8.46588377087111"><ele>18.8</ele><time>2026-04-10T16:59:40Z</time></trkpt><trkpt lat="39.534908111585494" lon="8.465868490642281"><ele>19.0</ele><time>2026-04-10T16:59:41Z</time></trkpt><trkpt lat="39.53502660934035" lon="8.465858338943953"><ele>19.0</ele><time>2026-04-10T16:59:42Z</time></trkpt><trkpt lat="39.53512462628402" lon="8.465852301663974"><ele>19.0</ele><time>2026-04-10T16:59:43Z</time></trkpt><trkpt lat="39.53521667213857" lon="8.46584069539269"><ele>19.0</ele><time>2026-04-10T16:59:44Z</time></trkpt><trkpt lat="39.53531120550758" lon="8.465826021637989"><ele>19.0</ele><time>2026-04-10T16:59:45Z</time></trkpt><trkpt lat="39.53539324504623" lon="8.46579850765292"><ele>19.0</ele><time>2026-04-10T16:59:46Z</time></trkpt><trkpt lat="39.5354629210047" lon="8.465765832615228"><ele>19.0</ele><time>2026-04-10T16:59:47Z</time></trkpt><trkpt lat="39.53553875402429" lon="8.465714757553808"><ele>18.833333333333332</ele><time>2026-04-10T16:59:48Z</time></trkpt><trkpt lat="39.53562862595737" lon="8.46567814707275"><ele>18.666666666666664</ele><time>2026-04-10T16:59:49Z</time></trkpt><trkpt lat="39.53570805332245" lon="8.465637154590313"><ele>18.5</ele><time>2026-04-10T16:59:50Z</time></trkpt><trkpt lat="39.53578320814662" lon="8.465586837885896"><ele>18.333333333333332</ele><time>2026-04-10T16:59:51Z</time></trkpt><trkpt lat="39.53586707857454" lon="8.465548268400088"><ele>18.166666666666668</ele><time>2026-04-10T16:59:52Z</time></trkpt><trkpt lat="39.53594945216414" lon="8.465505567543117"><ele>18.0</ele><time>2026-04-10T16:59:53Z</time></trkpt><trkpt lat="39.53602061766463" lon="8.465436721404469"><ele>18.0</ele><time>2026-04-10T16:59:54Z</time></trkpt><trkpt lat="39.536088301551985" lon="8.46535933711268"><ele>18.0</ele><time>2026-04-10T16:59:55Z</time></trkpt><trkpt lat="39.53616529055786" lon="8.465269942899583"><ele>18.0</ele><time>2026-04-10T16:59:56Z</time></trkpt><trkpt lat="39.53625896545083" lon="8.46519403172893"><ele>18.0</ele><time>2026-04-10T16:59:57Z</time></trkpt><trkpt lat="39.53635823785715" lon="8.465127311586008"><ele>18.0</ele><time>2026-04-10T16:59:58Z</time></trkpt><trkpt lat="39.536456571690834" lon="8.465056132202946"><ele>18.6</ele><time>2026-04-10T16:59:59Z</time></trkpt><trkpt lat="39.53655488968133" lon="8.464974741541806"><ele>19.200000000000003</ele><time>2026-04-10T17:00:00Z</time></trkpt><trkpt lat="39.536648257389" lon="8.464898544755584"><ele>19.8</ele><time>2026-04-10T17:00:01Z</time></trkpt><trkpt lat="39.536715872991685" lon="8.464845004514482"><ele>20.400000000000002</ele><time>2026-04-10T17:00:02Z</time></trkpt><trkpt lat="39.53679293723778" lon="8.464804042477809"><ele>21.0</ele><time>2026-04-10T17:00:03Z</time></trkpt><trkpt lat="39.53688424586407" lon="8.464775060901095"><ele>21.0</ele><time>2026-04-10T17:00:04Z</time></trkpt><trkpt lat="39.5369793459008" lon="8.464761674718996"><ele>21.0</ele><time>2026-04-10T17:00:05Z</time></trkpt><trkpt lat="39.53706506086811" lon="8.464730211029261"><ele>21.0</ele><time>2026-04-10T17:00:06Z</time></trkpt><trkpt lat="39.537146923944775" lon="8.464644543281343"><ele>21.0</ele><time>2026-04-10T17:00:07Z</time></trkpt><trkpt lat="39.537262101414086" lon="8.464557272556487"><ele>21.0</ele><time>2026-04-10T17:00:08Z</time></trkpt><trkpt lat="39.53735641033575" lon="8.464487259545692"><ele>21.4</ele><time>2026-04-10T17:00:09Z</time></trkpt><trkpt lat="39.53745383605942" lon="8.464415474807671"><ele>21.8</ele><time>2026-04-10T17:00:10Z</time></trkpt><trkpt lat="39.53755235355037" lon="8.464348934813199"><ele>22.2</ele><time>2026-04-10T17:00:11Z</time></trkpt><trkpt lat="39.53762556912546" lon="8.464281106333464"><ele>22.599999999999998</ele><time>2026-04-10T17:00:12Z</time></trkpt><trkpt lat="39.53766987658147" lon="8.46420047785285"><ele>23.0</ele><time>2026-04-10T17:00:13Z</time></trkpt><trkpt lat="39.53770132205092" lon="8.46409953800919"><ele>23.0</ele><time>2026-04-10T17:00:14Z</time></trkpt><trkpt lat="39.53772087389243" lon="8.46396494193424"><ele>23.0</ele><time>2026-04-10T17:00:15Z</time></trkpt><trkpt lat="39.53774622343504" lon="8.463817267628642"><ele>23.0</ele><time>2026-04-10T17:00:16Z</time></trkpt><trkpt lat="39.537770314761666" lon="8.463716704720623"><ele>23.0</ele><time>2026-04-10T17:00:17Z</time></trkpt><trkpt lat="39.53783274399109" lon="8.463629216518664"><ele>23.0</ele><time>2026-04-10T17:00:19Z</time></trkpt><trkpt lat="39.5379235025281" lon="8.463622081643164"><ele>25.4</ele><time>2026-04-10T17:00:21Z</time></trkpt><trkpt lat="39.53799151054702" lon="8.463676739201095"><ele>27.799999999999997</ele><time>2026-04-10T17:00:22Z</time></trkpt><trkpt lat="39.538060156953605" lon="8.463663066935844"><ele>30.2</ele><time>2026-04-10T17:00:23Z</time></trkpt><trkpt lat="39.53816020041113" lon="8.463621806075023"><ele>32.6</ele><time>2026-04-10T17:00:25Z</time></trkpt><trkpt lat="39.53822150636881" lon="8.463482699902725"><ele>35.0</ele><time>2026-04-10T17:00:27Z</time></trkpt><trkpt lat="39.53825266034283" lon="8.463392212509332"><ele>35.0</ele><time>2026-04-10T17:00:28Z</time></trkpt><trkpt lat="39.538291979989935" lon="8.46331313446199"><ele>35.0</ele><time>2026-04-10T17:00:29Z</time></trkpt><trkpt lat="39.53833830276111" lon="8.463233007078129"><ele>35.0</ele><time>2026-04-10T17:00:30Z</time></trkpt><trkpt lat="39.538391763677176" lon="8.463154794200046"><ele>35.0</ele><time>2026-04-10T17:00:31Z</time></trkpt><trkpt lat="39.538458160928315" lon="8.463074184923652"><ele>35.0</ele><time>2026-04-10T17:00:32Z</time></trkpt><trkpt lat="39.538525164527044" lon="8.463004919798085"><ele>35.0</ele><time>2026-04-10T17:00:33Z</time></trkpt><trkpt lat="39.538585801952976" lon="8.462941712617207"><ele>35.0</ele><time>2026-04-10T17:00:34Z</time></trkpt><trkpt lat="39.538645532858936" lon="8.462853781445672"><ele>35.0</ele><time>2026-04-10T17:00:35Z</time></trkpt><trkpt lat="39.53871300140737" lon="8.462768030552317"><ele>35.0</ele><time>2026-04-10T17:00:36Z</time></trkpt><trkpt lat="39.538772571669405" lon="8.462680139285682"><ele>35.0</ele><time>2026-04-10T17:00:37Z</time></trkpt><trkpt lat="39.53883643645935" lon="8.462603417602491"><ele>35.0</ele><time>2026-04-10T17:00:38Z</time></trkpt><trkpt lat="39.538904837921955" lon="8.462549896697974"><ele>35.0</ele><time>2026-04-10T17:00:39Z</time></trkpt><trkpt lat="39.538986524235945" lon="8.462516095549688"><ele>35.0</ele><time>2026-04-10T17:00:40Z</time></trkpt><trkpt lat="39.539077681854664" lon="8.462496555082028"><ele>35.0</ele><time>2026-04-10T17:00:41Z</time></trkpt><trkpt lat="39.539161245495535" lon="8.46251138394763"><ele>35.0</ele><time>2026-04-10T17:00:42Z</time></trkpt><trkpt lat="39.539244959295125" lon="8.462553987917373"><ele>35.0</ele><time>2026-04-10T17:00:43Z</time></trkpt><trkpt lat="39.5393334083335" lon="8.462621098445176"><ele>35.0</ele><time>2026-04-10T17:00:44Z</time></trkpt><trkpt lat="39.5394213085541" lon="8.462674256411436"><ele>35.0</ele><time>2026-04-10T17:00:45Z</time></trkpt><trkpt lat="39.539501039879674" lon="8.462698428861316"><ele>35.0</ele><time>2026-04-10T17:00:46Z</time></trkpt><trkpt lat="39.53956512505851" lon="8.46268189506118"><ele>35.0</ele><time>2026-04-10T17:00:47Z</time></trkpt><trkpt lat="39.53963008698944" lon="8.462555169528477"><ele>35.0</ele><time>2026-04-10T17:00:49Z</time></trkpt><trkpt lat="39.539641411344185" lon="8.462438360740734"><ele>35.0</ele><time>2026-04-10T17:00:50Z</time></trkpt><trkpt lat="39.53966474190527" lon="8.462294052252862"><ele>35.666666666666664</ele><time>2026-04-10T17:00:51Z</time></trkpt><trkpt lat="39.539710426702406" lon="8.46218253419689"><ele>36.33333333333333</ele><time>2026-04-10T17:00:52Z</time></trkpt><trkpt lat="39.53977068563248" lon="8.462099814047866"><ele>37.0</ele><time>2026-04-10T17:00:53Z</time></trkpt><trkpt lat="39.53984637623382" lon="8.462039025928682"><ele>37.666666666666664</ele><time>2026-04-10T17:00:54Z</time></trkpt><trkpt lat="39.539929387819285" lon="8.461989618160137"><ele>38.333333333333336</ele><time>2026-04-10T17:00:55Z</time></trkpt><trkpt lat="39.54000070482238" lon="8.461947712068463"><ele>39.0</ele><time>2026-04-10T17:00:56Z</time></trkpt><trkpt lat="39.540092378386156" lon="8.461886174103062"><ele>39.0</ele><time>2026-04-10T17:00:58Z</time></trkpt><trkpt lat="39.540177955948096" lon="8.461872883767873"><ele>39.0</ele><time>2026-04-10T17:01:00Z</time></trkpt><trkpt lat="39.54025423883353" lon="8.461853035179132"><ele>39.0</ele><time>2026-04-10T17:01:01Z</time></trkpt><trkpt lat="39.54033222937932" lon="8.46187637333476"><ele>39.0</ele><time>2026-04-10T17:01:02Z</time></trkpt><trkpt lat="39.54041340150645" lon="8.461893066930024"><ele>39.0</ele><time>2026-04-10T17:01:03Z</time></trkpt><trkpt lat="39.540516094381914" lon="8.461894445636137"><ele>39.0</ele><time>2026-04-10T17:01:04Z</time></trkpt><trkpt lat="39.54063773763079" lon="8.461924382817626"><ele>40.5</ele><time>2026-04-10T17:01:05Z</time></trkpt><trkpt lat="39.540750824812065" lon="8.461925493190583"><ele>42.0</ele><time>2026-04-10T17:01:06Z</time></trkpt><trkpt lat="39.54086757099059" lon="8.461945224406797"><ele>43.5</ele><time>2026-04-10T17:01:07Z</time></trkpt><trkpt lat="39.54099143109403" lon="8.46195996202138"><ele>45.0</ele><time>2026-04-10T17:01:08Z</time></trkpt><trkpt lat="39.54111238515601" lon="8.461973294697014"><ele>42.2</ele><time>2026-04-10T17:01:09Z</time></trkpt><trkpt lat="39.54122255821177" lon="8.461988561017675"><ele>39.4</ele><time>2026-04-10T17:01:10Z</time></trkpt><trkpt lat="39.541327728579695" lon="8.462020812290156"><ele>36.6</ele><time>2026-04-10T17:01:11Z</time></trkpt><trkpt lat="39.541425165748336" lon="8.462048011420944"><ele>33.8</ele><time>2026-04-10T17:01:12Z</time></trkpt><trkpt lat="39.54152267528724" lon="8.462064004111802"><ele>31.0</ele><time>2026-04-10T17:01:13Z</time></trkpt><trkpt lat="39.5416289276169" lon="8.462064113625948"><ele>31.0</ele><time>2026-04-10T17:01:14Z</time></trkpt><trkpt lat="39.541741649551234" lon="8.462049751995904"><ele>31.0</ele><time>2026-04-10T17:01:15Z</time></trkpt><trkpt lat="39.541849093028546" lon="8.46203978211438"><ele>31.0</ele><time>2026-04-10T17:01:16Z</time></trkpt><trkpt lat="39.54193963951621" lon="8.46205161080731"><ele>31.0</ele><time>2026-04-10T17:01:17Z</time></trkpt><trkpt lat="39.542027263800776" lon="8.46208863916618"><ele>31.0</ele><time>2026-04-10T17:01:18Z</time></trkpt><trkpt lat="39.5421128205282" lon="8.462150059801171"><ele>29.500000000000004</ele><time>2026-04-10T17:01:19Z</time></trkpt><trkpt lat="39.542192217548525" lon="8.462228496768537"><ele>28.0</ele><time>2026-04-10T17:01:20Z</time></trkpt><trkpt lat="39.542269017139674" lon="8.462291078415392"><ele>26.5</ele><time>2026-04-10T17:01:21Z</time></trkpt><trkpt lat="39.54234773792249" lon="8.4623408735051"><ele>25.0</ele><time>2026-04-10T17:01:22Z</time></trkpt><trkpt lat="39.54242446047047" lon="8.462366261234138"><ele>23.5</ele><time>2026-04-10T17:01:23Z</time></trkpt><trkpt lat="39.54250189137113" lon="8.462386852927498"><ele>22.0</ele><time>2026-04-10T17:01:24Z</time></trkpt><trkpt lat="39.54256849363176" lon="8.462422678276859"><ele>22.0</ele><time>2026-04-10T17:01:25Z</time></trkpt><trkpt lat="39.542619110733696" lon="8.462485124560489"><ele>22.0</ele><time>2026-04-10T17:01:26Z</time></trkpt><trkpt lat="39.54263427248553" lon="8.462595884544687"><ele>22.0</ele><time>2026-04-10T17:01:27Z</time></trkpt><trkpt lat="39.5426840285784" lon="8.46270924220231"><ele>22.0</ele><time>2026-04-10T17:01:28Z</time></trkpt><trkpt lat="39.54274698665259" lon="8.462797039750368"><ele>22.0</ele><time>2026-04-10T17:01:29Z</time></trkpt><trkpt lat="39.54281116172737" lon="8.462871374169115"><ele>22.0</ele><time>2026-04-10T17:01:30Z</time></trkpt><trkpt lat="39.54288214951839" lon="8.462927564189556"><ele>20.666666666666664</ele><time>2026-04-10T17:01:31Z</time></trkpt><trkpt lat="39.54295080430768" lon="8.463005071650176"><ele>19.333333333333332</ele><time>2026-04-10T17:01:32Z</time></trkpt><trkpt lat="39.543030077941125" lon="8.463083375845718"><ele>18.0</ele><time>2026-04-10T17:01:33Z</time></trkpt><trkpt lat="39.54309710679082" lon="8.463157293558925"><ele>16.666666666666668</ele><time>2026-04-10T17:01:34Z</time></trkpt><trkpt lat="39.54314699289892" lon="8.46323204543174"><ele>15.333333333333334</ele><time>2026-04-10T17:01:35Z</time></trkpt><trkpt lat="39.54319289877644" lon="8.463311924517559"><ele>14.0</ele><time>2026-04-10T17:01:36Z</time></trkpt><trkpt lat="39.543249028781894" lon="8.46339390359257"><ele>14.0</ele><time>2026-04-10T17:01:37Z</time></trkpt><trkpt lat="39.54330826092963" lon="8.46346937270817"><ele>13.999999999999998</ele><time>2026-04-10T17:01:38Z</time></trkpt><trkpt lat="39.5434129423947" lon="8.463502876971194"><ele>13.999999999999998</ele><time>2026-04-10T17:01:39Z</time></trkpt><trkpt lat="39.54353118231001" lon="8.463553755152935"><ele>14.0</ele><time>2026-04-10T17:01:40Z</time></trkpt><trkpt lat="39.54365302903671" lon="8.463618873336795"><ele>14.0</ele><time>2026-04-10T17:01:41Z</time></trkpt><trkpt lat="39.543776016471526" lon="8.463678252183083"><ele>13.0</ele><time>2026-04-10T17:01:42Z</time></trkpt><trkpt lat="39.543899224479176" lon="8.463746679485077"><ele>12.0</ele><time>2026-04-10T17:01:43Z</time></trkpt><trkpt lat="39.544009288143386" lon="8.463812770161814"><ele>11.0</ele><time>2026-04-10T17:01:44Z</time></trkpt><trkpt lat="39.54411567193435" lon="8.463870638015981"><ele>10.0</ele><time>2026-04-10T17:01:45Z</time></trkpt><trkpt lat="39.54421949979957" lon="8.463933554169392"><ele>10.0</ele><time>2026-04-10T17:01:46Z</time></trkpt><trkpt lat="39.544323981557774" lon="8.463980542533575"><ele>10.0</ele><time>2026-04-10T17:01:47Z</time></trkpt><trkpt lat="39.54441229484902" lon="8.464030862922211"><ele>10.0</ele><time>2026-04-10T17:01:48Z</time></trkpt><trkpt lat="39.544486919975874" lon="8.464082202638744"><ele>10.0</ele><time>2026-04-10T17:01:49Z</time></trkpt><trkpt lat="39.544543708136324" lon="8.464132572943573"><ele>10.0</ele><time>2026-04-10T17:01:50Z</time></trkpt><trkpt lat="39.54459061025028" lon="8.464199318261672"><ele>10.0</ele><time>2026-04-10T17:01:51Z</time></trkpt><trkpt lat="39.544631611482664" lon="8.464297872184424"><ele>9.75</ele><time>2026-04-10T17:01:52Z</time></trkpt><trkpt lat="39.54467557204608" lon="8.46444062934077"><ele>9.5</ele><time>2026-04-10T17:01:53Z</time></trkpt><trkpt lat="39.54471425737502" lon="8.464583660752748"><ele>9.25</ele><time>2026-04-10T17:01:54Z</time></trkpt><trkpt lat="39.544746680840376" lon="8.464732494437802"><ele>9.0</ele><time>2026-04-10T17:01:55Z</time></trkpt><trkpt lat="39.544785814101104" lon="8.464886290467948"><ele>8.5</ele><time>2026-04-10T17:01:56Z</time></trkpt><trkpt lat="39.54483277819148" lon="8.465038701306556"><ele>8.0</ele><time>2026-04-10T17:01:57Z</time></trkpt><trkpt lat="39.544890739881204" lon="8.465184503460675"><ele>7.5</ele><time>2026-04-10T17:01:58Z</time></trkpt><trkpt lat="39.5449778182954" lon="8.465346276114524"><ele>7.0</ele><time>2026-04-10T17:01:59Z</time></trkpt><trkpt lat="39.54507301711245" lon="8.465472056482163"><ele>7.8</ele><time>2026-04-10T17:02:00Z</time></trkpt><trkpt lat="39.54516240257332" lon="8.46556712014148"><ele>8.6</ele><time>2026-04-10T17:02:01Z</time></trkpt><trkpt lat="39.545250913511055" lon="8.465655265334838"><ele>9.4</ele><time>2026-04-10T17:02:02Z</time></trkpt><trkpt lat="39.545341439298454" lon="8.465732413574683"><ele>10.200000000000001</ele><time>2026-04-10T17:02:03Z</time></trkpt><trkpt lat="39.54543350046211" lon="8.465811812062126"><ele>11.0</ele><time>2026-04-10T17:02:04Z</time></trkpt><trkpt lat="39.545523356356455" lon="8.465887811044588"><ele>11.0</ele><time>2026-04-10T17:02:05Z</time></trkpt><trkpt lat="39.54560595040943" lon="8.465947680949572"><ele>11.0</ele><time>2026-04-10T17:02:06Z</time></trkpt><trkpt lat="39.54568110105678" lon="8.465980480680466"><ele>11.0</ele><time>2026-04-10T17:02:07Z</time></trkpt><trkpt lat="39.54574471493876" lon="8.4660153729333"><ele>11.0</ele><time>2026-04-10T17:02:08Z</time></trkpt><trkpt lat="39.54580886125346" lon="8.466013950195187"><ele>11.0</ele><time>2026-04-10T17:02:09Z</time></trkpt><trkpt lat="39.54587102459533" lon="8.465948553322617"><ele>11.0</ele><time>2026-04-10T17:02:10Z</time></trkpt><trkpt lat="39.545929599499296" lon="8.465893441489586"><ele>11.0</ele><time>2026-04-10T17:02:11Z</time></trkpt><trkpt lat="39.546011660450894" lon="8.465802175167003"><ele>11.0</ele><time>2026-04-10T17:02:13Z</time></trkpt><trkpt lat="39.54601905300264" lon="8.465711597756362"><ele>11.0</ele><time>2026-04-10T17:02:15Z</time></trkpt><trkpt lat="39.54601865802711" lon="8.46562155260451"><ele>11.0</ele><time>2026-04-10T17:02:18Z</time></trkpt><trkpt lat="39.54600531629728" lon="8.465517776201084"><ele>11.0</ele><time>2026-04-10T17:02:23Z</time></trkpt><trkpt lat="39.54602278020681" lon="8.465413905932131"><ele>11.0</ele><time>2026-04-10T17:02:26Z</time></trkpt><trkpt lat="39.54602825357696" lon="8.465293989370577"><ele>12.25</ele><time>2026-04-10T17:02:29Z</time></trkpt><trkpt lat="39.5462349144331" lon="8.465212911060386"><ele>13.5</ele><time>2026-04-10T17:03:38Z</time></trkpt><trkpt lat="39.546358438922084" lon="8.465191640391662"><ele>14.75</ele><time>2026-04-10T17:03:40Z</time></trkpt><trkpt lat="39.546424968422045" lon="8.46517566937521"><ele>16.0</ele><time>2026-04-10T17:03:41Z</time></trkpt><trkpt lat="39.54649523349599" lon="8.465143605254934"><ele>15.999999999999998</ele><time>2026-04-10T17:03:42Z</time></trkpt><trkpt lat="39.54655063787695" lon="8.465102925824839"><ele>16.0</ele><time>2026-04-10T17:03:43Z</time></trkpt><trkpt lat="39.54658710910703" lon="8.464998186091345"><ele>16.0</ele><time>2026-04-10T17:03:45Z</time></trkpt><trkpt lat="39.54656681756812" lon="8.464919206966927"><ele>16.0</ele><time>2026-04-10T17:03:46Z</time></trkpt><trkpt lat="39.54652874572713" lon="8.4648417013062"><ele>15.999999999999998</ele><time>2026-04-10T17:03:47Z</time></trkpt><trkpt lat="39.546485788485796" lon="8.4647603773739"><ele>16.0</ele><time>2026-04-10T17:03:48Z</time></trkpt><trkpt lat="39.54642984269829" lon="8.464667308141756"><ele>17.833333333333332</ele><time>2026-04-10T17:03:49Z</time></trkpt><trkpt lat="39.54638059493826" lon="8.46457620714497"><ele>19.666666666666664</ele><time>2026-04-10T17:03:50Z</time></trkpt><trkpt lat="39.54634435770426" lon="8.464487590985332"><ele>21.5</ele><time>2026-04-10T17:03:51Z</time></trkpt><trkpt lat="39.54632242531047" lon="8.464402172335948"><ele>23.333333333333332</ele><time>2026-04-10T17:03:52Z</time></trkpt><trkpt lat="39.54631820058381" lon="8.464320465247265"><ele>25.166666666666668</ele><time>2026-04-10T17:03:53Z</time></trkpt><trkpt lat="39.546331274437655" lon="8.464233033768892"><ele>27.0</ele><time>2026-04-10T17:03:54Z</time></trkpt><trkpt lat="39.54635567236515" lon="8.464125813929671"><ele>27.0</ele><time>2026-04-10T17:03:55Z</time></trkpt><trkpt lat="39.54638517568227" lon="8.464003303360798"><ele>27.000000000000004</ele><time>2026-04-10T17:03:56Z</time></trkpt><trkpt lat="39.54641956593819" lon="8.463888630485123"><ele>27.000000000000004</ele><time>2026-04-10T17:03:57Z</time></trkpt><trkpt lat="39.546456719552445" lon="8.46376055824248"><ele>27.0</ele><time>2026-04-10T17:03:58Z</time></trkpt><trkpt lat="39.54648730512936" lon="8.463642868955992"><ele>27.0</ele><time>2026-04-10T17:03:59Z</time></trkpt><trkpt lat="39.5465054898186" lon="8.46352585228673"><ele>28.200000000000003</ele><time>2026-04-10T17:04:00Z</time></trkpt><trkpt lat="39.54651545593944" lon="8.463423750503683"><ele>29.400000000000002</ele><time>2026-04-10T17:04:01Z</time></trkpt><trkpt lat="39.54652057843358" lon="8.463273423458796"><ele>30.599999999999998</ele><time>2026-04-10T17:04:03Z</time></trkpt><trkpt lat="39.546525788989705" lon="8.463135643242289"><ele>31.799999999999997</ele><time>2026-04-10T17:04:05Z</time></trkpt><trkpt lat="39.54653388231799" lon="8.463034390887653"><ele>33.0</ele><time>2026-04-10T17:04:06Z</time></trkpt><trkpt lat="39.54653766872893" lon="8.462880966442878"><ele>33.5</ele><time>2026-04-10T17:04:07Z</time></trkpt><trkpt lat="39.546546785543896" lon="8.462734570197899"><ele>34.0</ele><time>2026-04-10T17:04:08Z</time></trkpt><trkpt lat="39.54655812298422" lon="8.462648454264967"><ele>34.5</ele><time>2026-04-10T17:04:09Z</time></trkpt><trkpt lat="39.54656015364061" lon="8.462563971584446"><ele>35.0</ele><time>2026-04-10T17:04:10Z</time></trkpt><trkpt lat="39.546558067182865" lon="8.462454061506072"><ele>35.5</ele><time>2026-04-10T17:04:11Z</time></trkpt><trkpt lat="39.54655931493498" lon="8.462311475540547"><ele>36.0</ele><time>2026-04-10T17:04:12Z</time></trkpt><trkpt lat="39.5465689987538" lon="8.462150294503205"><ele>36.25</ele><time>2026-04-10T17:04:13Z</time></trkpt><trkpt lat="39.54658263665246" lon="8.46198711969533"><ele>36.5</ele><time>2026-04-10T17:04:14Z</time></trkpt><trkpt lat="39.54659622558672" lon="8.461821607880585"><ele>36.75</ele><time>2026-04-10T17:04:15Z</time></trkpt><trkpt lat="39.546603310397686" lon="8.461651441416913"><ele>37.0</ele><time>2026-04-10T17:04:16Z</time></trkpt><trkpt lat="39.54661429348982" lon="8.461486378740815"><ele>37.0</ele><time>2026-04-10T17:04:17Z</time></trkpt><trkpt lat="39.5466271720096" lon="8.461361833749494"><ele>37.0</ele><time>2026-04-10T17:04:18Z</time></trkpt><trkpt lat="39.546633991134456" lon="8.461256800086552"><ele>37.0</ele><time>2026-04-10T17:04:19Z</time></trkpt><trkpt lat="39.54663605365807" lon="8.461133297427907"><ele>37.0</ele><time>2026-04-10T17:04:20Z</time></trkpt><trkpt lat="39.54664415274793" lon="8.460976960088766"><ele>37.0</ele><time>2026-04-10T17:04:21Z</time></trkpt><trkpt lat="39.54665704382105" lon="8.460798867265169"><ele>37.333333333333336</ele><time>2026-04-10T17:04:22Z</time></trkpt><trkpt lat="39.54666749061538" lon="8.460604115361226"><ele>37.666666666666664</ele><time>2026-04-10T17:04:23Z</time></trkpt><trkpt lat="39.54668222040302" lon="8.460403097391259"><ele>38.0</ele><time>2026-04-10T17:04:24Z</time></trkpt><trkpt lat="39.5466977794906" lon="8.46019251452314"><ele>38.0</ele><time>2026-04-10T17:04:25Z</time></trkpt><trkpt lat="39.5467128300586" lon="8.459974803367102"><ele>38.0</ele><time>2026-04-10T17:04:26Z</time></trkpt><trkpt lat="39.5467284090964" lon="8.459749381650873"><ele>38.0</ele><time>2026-04-10T17:04:27Z</time></trkpt><trkpt lat="39.54674092563822" lon="8.459517321945858"><ele>37.0</ele><time>2026-04-10T17:04:28Z</time></trkpt><trkpt lat="39.54675317372859" lon="8.45929175590879"><ele>36.0</ele><time>2026-04-10T17:04:29Z</time></trkpt><trkpt lat="39.54676678528668" lon="8.45905700864933"><ele>35.0</ele><time>2026-04-10T17:04:30Z</time></trkpt><trkpt lat="39.54678481525817" lon="8.458817247901543"><ele>34.33333333333333</ele><time>2026-04-10T17:04:31Z</time></trkpt><trkpt lat="39.54680324902718" lon="8.45858084104852"><ele>33.666666666666664</ele><time>2026-04-10T17:04:32Z</time></trkpt><trkpt lat="39.54682305353286" lon="8.458344556958762"><ele>33.0</ele><time>2026-04-10T17:04:33Z</time></trkpt><trkpt lat="39.54684089059887" lon="8.458110651239132"><ele>32.666666666666664</ele><time>2026-04-10T17:04:34Z</time></trkpt><trkpt lat="39.5468559766464" lon="8.457871762730354"><ele>32.33333333333333</ele><time>2026-04-10T17:04:35Z</time></trkpt><trkpt lat="39.54686331098554" lon="8.457643184060219"><ele>32.0</ele><time>2026-04-10T17:04:36Z</time></trkpt><trkpt lat="39.546879116670226" lon="8.45743145506791"><ele>32.0</ele><time>2026-04-10T17:04:37Z</time></trkpt><trkpt lat="39.54691356364669" lon="8.457241187580843"><ele>32.0</ele><time>2026-04-10T17:04:38Z</time></trkpt><trkpt lat="39.54696581104525" lon="8.457047021609004"><ele>32.0</ele><time>2026-04-10T17:04:39Z</time></trkpt><trkpt lat="39.54702685693496" lon="8.456849251037472"><ele>34.33333333333333</ele><time>2026-04-10T17:04:40Z</time></trkpt><trkpt lat="39.54710762472615" lon="8.456661153978812"><ele>36.666666666666664</ele><time>2026-04-10T17:04:41Z</time></trkpt><trkpt lat="39.54720623167126" lon="8.456483654272903"><ele>39.0</ele><time>2026-04-10T17:04:42Z</time></trkpt><trkpt lat="39.547316916834816" lon="8.45631611090347"><ele>38.333333333333336</ele><time>2026-04-10T17:04:43Z</time></trkpt><trkpt lat="39.54743422314233" lon="8.456157636453757"><ele>37.66666666666667</ele><time>2026-04-10T17:04:44Z</time></trkpt><trkpt lat="39.5475654892458" lon="8.456018215539395"><ele>37.0</ele><time>2026-04-10T17:04:45Z</time></trkpt><trkpt lat="39.547693465658185" lon="8.455905831831492"><ele>37.0</ele><time>2026-04-10T17:04:46Z</time></trkpt><trkpt lat="39.547823720139256" lon="8.455807127864778"><ele>37.0</ele><time>2026-04-10T17:04:47Z</time></trkpt><trkpt lat="39.54795959363162" lon="8.455701636541969"><ele>37.0</ele><time>2026-04-10T17:04:48Z</time></trkpt><trkpt lat="39.548093644350516" lon="8.455591428106503"><ele>37.5</ele><time>2026-04-10T17:04:49Z</time></trkpt><trkpt lat="39.548212244307535" lon="8.455495033277217"><ele>38.0</ele><time>2026-04-10T17:04:50Z</time></trkpt><trkpt lat="39.54832294250813" lon="8.455411551149881"><ele>38.5</ele><time>2026-04-10T17:04:51Z</time></trkpt><trkpt lat="39.54842182920914" lon="8.455345308286494"><ele>39.0</ele><time>2026-04-10T17:04:52Z</time></trkpt><trkpt lat="39.54851428046343" lon="8.455309597833326"><ele>37.8</ele><time>2026-04-10T17:04:53Z</time></trkpt><trkpt lat="39.5486042553976" lon="8.455278852847801"><ele>36.599999999999994</ele><time>2026-04-10T17:04:54Z</time></trkpt><trkpt lat="39.548693791711734" lon="8.455247231783702"><ele>35.4</ele><time>2026-04-10T17:04:55Z</time></trkpt><trkpt lat="39.5487838686836" lon="8.455217257399706"><ele>34.199999999999996</ele><time>2026-04-10T17:04:56Z</time></trkpt><trkpt lat="39.54887482517149" lon="8.455197662363842"><ele>33.0</ele><time>2026-04-10T17:04:57Z</time></trkpt><trkpt lat="39.548962244913426" lon="8.455200132795158"><ele>32.0</ele><time>2026-04-10T17:04:58Z</time></trkpt><trkpt lat="39.54904734799109" lon="8.455203569440416"><ele>31.0</ele><time>2026-04-10T17:04:59Z</time></trkpt><trkpt lat="39.549137138069135" lon="8.455220832903647"><ele>30.0</ele><time>2026-04-10T17:05:00Z</time></trkpt><trkpt lat="39.54923361831234" lon="8.45524076252627"><ele>29.0</ele><time>2026-04-10T17:05:01Z</time></trkpt><trkpt lat="39.549322381738776" lon="8.455264267213126"><ele>28.0</ele><time>2026-04-10T17:05:02Z</time></trkpt><trkpt lat="39.54940344631793" lon="8.455296299000459"><ele>27.0</ele><time>2026-04-10T17:05:03Z</time></trkpt><trkpt lat="39.54949008699689" lon="8.455340004526692"><ele>26.400000000000002</ele><time>2026-04-10T17:05:04Z</time></trkpt><trkpt lat="39.549579987163646" lon="8.455392250323177"><ele>25.800000000000004</ele><time>2026-04-10T17:05:05Z</time></trkpt><trkpt lat="39.54967331727621" lon="8.455457389850366"><ele>25.2</ele><time>2026-04-10T17:05:06Z</time></trkpt><trkpt lat="39.54977017344648" lon="8.45553488138835"><ele>24.6</ele><time>2026-04-10T17:05:07Z</time></trkpt><trkpt lat="39.54987190358679" lon="8.45562444688084"><ele>24.0</ele><time>2026-04-10T17:05:08Z</time></trkpt><trkpt lat="39.54998465364027" lon="8.455721274506736"><ele>25.0</ele><time>2026-04-10T17:05:09Z</time></trkpt><trkpt lat="39.55010274753" lon="8.455820655316488"><ele>26.0</ele><time>2026-04-10T17:05:10Z</time></trkpt><trkpt lat="39.55022687603609" lon="8.45592401831828"><ele>27.0</ele><time>2026-04-10T17:05:11Z</time></trkpt><trkpt lat="39.55034957624425" lon="8.456026979130607"><ele>28.0</ele><time>2026-04-10T17:05:12Z</time></trkpt><trkpt lat="39.55047583175645" lon="8.456131494390679"><ele>28.0</ele><time>2026-04-10T17:05:13Z</time></trkpt><trkpt lat="39.55060441083364" lon="8.456243631016584"><ele>28.0</ele><time>2026-04-10T17:05:14Z</time></trkpt><trkpt lat="39.55073039595355" lon="8.456349188035892"><ele>28.0</ele><time>2026-04-10T17:05:15Z</time></trkpt><trkpt lat="39.55084519757998" lon="8.456442384718777"><ele>28.0</ele><time>2026-04-10T17:05:16Z</time></trkpt><trkpt lat="39.55096456690567" lon="8.456529287433465"><ele>30.0</ele><time>2026-04-10T17:05:17Z</time></trkpt><trkpt lat="39.55108518783744" lon="8.45661285882099"><ele>32.0</ele><time>2026-04-10T17:05:18Z</time></trkpt><trkpt lat="39.55121088463303" lon="8.456692113677724"><ele>34.0</ele><time>2026-04-10T17:05:19Z</time></trkpt><trkpt lat="39.551344064684194" lon="8.456763028861296"><ele>36.0</ele><time>2026-04-10T17:05:20Z</time></trkpt><trkpt lat="39.55147918606461" lon="8.456825400928437"><ele>36.0</ele><time>2026-04-10T17:05:21Z</time></trkpt><trkpt lat="39.55161235329503" lon="8.456884870236726"><ele>36.0</ele><time>2026-04-10T17:05:22Z</time></trkpt><trkpt lat="39.55174187913597" lon="8.45693725543648"><ele>36.0</ele><time>2026-04-10T17:05:23Z</time></trkpt><trkpt lat="39.55187167742888" lon="8.456985433734152"><ele>36.0</ele><time>2026-04-10T17:05:24Z</time></trkpt><trkpt lat="39.55199968433933" lon="8.45702519856347"><ele>37.5</ele><time>2026-04-10T17:05:25Z</time></trkpt><trkpt lat="39.55213105600476" lon="8.457060374703646"><ele>39.0</ele><time>2026-04-10T17:05:26Z</time></trkpt><trkpt lat="39.55226127136527" lon="8.45708858100179"><ele>40.5</ele><time>2026-04-10T17:05:27Z</time></trkpt><trkpt lat="39.55239169477177" lon="8.45711667364663"><ele>42.0</ele><time>2026-04-10T17:05:28Z</time></trkpt><trkpt lat="39.55251628607257" lon="8.457141115777832"><ele>43.25</ele><time>2026-04-10T17:05:29Z</time></trkpt><trkpt lat="39.5526361905855" lon="8.45716542492386"><ele>44.5</ele><time>2026-04-10T17:05:30Z</time></trkpt><trkpt lat="39.552755997112776" lon="8.4571888615811"><ele>45.75</ele><time>2026-04-10T17:05:31Z</time></trkpt><trkpt lat="39.5528767117501" lon="8.45720638080996"><ele>47.0</ele><time>2026-04-10T17:05:32Z</time></trkpt><trkpt lat="39.55299999412676" lon="8.457228876060038"><ele>47.8</ele><time>2026-04-10T17:05:33Z</time></trkpt><trkpt lat="39.55312071379095" lon="8.457258500305212"><ele>48.6</ele><time>2026-04-10T17:05:34Z</time></trkpt><trkpt lat="39.55322906458519" lon="8.457287066309808"><ele>49.4</ele><time>2026-04-10T17:05:35Z</time></trkpt><trkpt lat="39.55332314106154" lon="8.457318240660241"><ele>50.199999999999996</ele><time>2026-04-10T17:05:36Z</time></trkpt><trkpt lat="39.553403774088785" lon="8.457353999104093"><ele>51.0</ele><time>2026-04-10T17:05:37Z</time></trkpt><trkpt lat="39.55348040195898" lon="8.457400061828789"><ele>51.0</ele><time>2026-04-10T17:05:38Z</time></trkpt><trkpt lat="39.55356016270235" lon="8.457450034589941"><ele>51.0</ele><time>2026-04-10T17:05:39Z</time></trkpt><trkpt lat="39.5536422247982" lon="8.457510798476548"><ele>51.0</ele><time>2026-04-10T17:05:40Z</time></trkpt><trkpt lat="39.553727713918065" lon="8.457583648690566"><ele>51.0</ele><time>2026-04-10T17:05:41Z</time></trkpt><trkpt lat="39.55382103798549" lon="8.457665864194636"><ele>51.0</ele><time>2026-04-10T17:05:42Z</time></trkpt><trkpt lat="39.5539121811655" lon="8.457767164679243"><ele>50.25</ele><time>2026-04-10T17:05:43Z</time></trkpt><trkpt lat="39.55399702709135" lon="8.45787927530224"><ele>49.5</ele><time>2026-04-10T17:05:44Z</time></trkpt><trkpt lat="39.55407606538872" lon="8.458003163005337"><ele>48.75</ele><time>2026-04-10T17:05:45Z</time></trkpt><trkpt lat="39.554147466995026" lon="8.458135921361329"><ele>48.0</ele><time>2026-04-10T17:05:46Z</time></trkpt><trkpt lat="39.554214952526245" lon="8.45827216214409"><ele>49.4</ele><time>2026-04-10T17:05:47Z</time></trkpt><trkpt lat="39.55427886809022" lon="8.458390469666025"><ele>50.8</ele><time>2026-04-10T17:05:48Z</time></trkpt><trkpt lat="39.55433342993011" lon="8.458497271877551"><ele>52.2</ele><time>2026-04-10T17:05:49Z</time></trkpt><trkpt lat="39.55438819662507" lon="8.458605907201312"><ele>53.6</ele><time>2026-04-10T17:05:50Z</time></trkpt><trkpt lat="39.554452041150164" lon="8.45871208889164"><ele>55.0</ele><time>2026-04-10T17:05:51Z</time></trkpt><trkpt lat="39.554523960918125" lon="8.458822853507819"><ele>54.25</ele><time>2026-04-10T17:05:52Z</time></trkpt><trkpt lat="39.55460050068443" lon="8.458936692462506"><ele>53.5</ele><time>2026-04-10T17:05:53Z</time></trkpt><trkpt lat="39.554682019076246" lon="8.459052611316697"><ele>52.75</ele><time>2026-04-10T17:05:54Z</time></trkpt><trkpt lat="39.5547701797126" lon="8.459160585026"><ele>52.0</ele><time>2026-04-10T17:05:55Z</time></trkpt><trkpt lat="39.55486188891375" lon="8.459267498729757"><ele>52.0</ele><time>2026-04-10T17:05:56Z</time></trkpt><trkpt lat="39.55495618487838" lon="8.459359541590818"><ele>52.0</ele><time>2026-04-10T17:05:57Z</time></trkpt><trkpt lat="39.55505531897646" lon="8.45944720347744"><ele>52.0</ele><time>2026-04-10T17:05:58Z</time></trkpt><trkpt lat="39.55516185634829" lon="8.45952850599444"><ele>52.0</ele><time>2026-04-10T17:05:59Z</time></trkpt><trkpt lat="39.55527059554979" lon="8.459603856899223"><ele>54.25</ele><time>2026-04-10T17:06:00Z</time></trkpt><trkpt lat="39.55538096773066" lon="8.459678450111433"><ele>56.5</ele><time>2026-04-10T17:06:01Z</time></trkpt><trkpt lat="39.55549679862193" lon="8.45975054237096"><ele>58.75</ele><time>2026-04-10T17:06:02Z</time></trkpt><trkpt lat="39.55561374123976" lon="8.459816072489494"><ele>61.0</ele><time>2026-04-10T17:06:03Z</time></trkpt><trkpt lat="39.55573113854896" lon="8.459870573053179"><ele>61.0</ele><time>2026-04-10T17:06:04Z</time></trkpt><trkpt lat="39.55585114934712" lon="8.459916953821368"><ele>61.0</ele><time>2026-04-10T17:06:05Z</time></trkpt><trkpt lat="39.555973847134304" lon="8.459960565530524"><ele>61.0</ele><time>2026-04-10T17:06:06Z</time></trkpt><trkpt lat="39.556101549448364" lon="8.460004085363765"><ele>61.0</ele><time>2026-04-10T17:06:07Z</time></trkpt><trkpt lat="39.55622776178105" lon="8.460050045088536"><ele>62.0</ele><time>2026-04-10T17:06:08Z</time></trkpt><trkpt lat="39.55635236018945" lon="8.460101030162754"><ele>63.0</ele><time>2026-04-10T17:06:09Z</time></trkpt><trkpt lat="39.55646861139173" lon="8.460148590484234"><ele>64.0</ele><time>2026-04-10T17:06:10Z</time></trkpt><trkpt lat="39.5565697806177" lon="8.460201899772523"><ele>65.0</ele><time>2026-04-10T17:06:11Z</time></trkpt><trkpt lat="39.55666591267587" lon="8.460269584974569"><ele>65.0</ele><time>2026-04-10T17:06:12Z</time></trkpt><trkpt lat="39.55675747551657" lon="8.460346946881359"><ele>65.0</ele><time>2026-04-10T17:06:13Z</time></trkpt><trkpt lat="39.55684453646582" lon="8.460435039558574"><ele>65.0</ele><time>2026-04-10T17:06:14Z</time></trkpt><trkpt lat="39.55692459958213" lon="8.46053335231488"><ele>65.0</ele><time>2026-04-10T17:06:15Z</time></trkpt><trkpt lat="39.55700204572619" lon="8.46064512879441"><ele>65.0</ele><time>2026-04-10T17:06:16Z</time></trkpt><trkpt lat="39.557075272546925" lon="8.460771302044854"><ele>64.0</ele><time>2026-04-10T17:06:17Z</time></trkpt><trkpt lat="39.55713747985421" lon="8.46091072282039"><ele>63.0</ele><time>2026-04-10T17:06:18Z</time></trkpt><trkpt lat="39.557187914969745" lon="8.461060844097522"><ele>62.0</ele><time>2026-04-10T17:06:19Z</time></trkpt><trkpt lat="39.55723232300343" lon="8.46121780149676"><ele>61.0</ele><time>2026-04-10T17:06:20Z</time></trkpt><trkpt lat="39.55726542826714" lon="8.461379977203082"><ele>60.5</ele><time>2026-04-10T17:06:21Z</time></trkpt><trkpt lat="39.55728216854083" lon="8.461544656290151"><ele>60.0</ele><time>2026-04-10T17:06:22Z</time></trkpt><trkpt lat="39.55728728509522" lon="8.461708945984974"><ele>59.5</ele><time>2026-04-10T17:06:23Z</time></trkpt><trkpt lat="39.55728383183339" lon="8.461882801882224"><ele>59.0</ele><time>2026-04-10T17:06:24Z</time></trkpt><trkpt lat="39.55727744054546" lon="8.462055334467902"><ele>58.75</ele><time>2026-04-10T17:06:25Z</time></trkpt><trkpt lat="39.55727590745162" lon="8.462226327592063"><ele>58.5</ele><time>2026-04-10T17:06:26Z</time></trkpt><trkpt lat="39.557280175132796" lon="8.462400482794793"><ele>58.25</ele><time>2026-04-10T17:06:27Z</time></trkpt><trkpt lat="39.5572743207203" lon="8.462567585831705"><ele>58.0</ele><time>2026-04-10T17:06:28Z</time></trkpt><trkpt lat="39.55728134391513" lon="8.462727281021305"><ele>58.0</ele><time>2026-04-10T17:06:29Z</time></trkpt><trkpt lat="39.55727761810046" lon="8.462879271512584"><ele>58.0</ele><time>2026-04-10T17:06:30Z</time></trkpt><trkpt lat="39.55727191321974" lon="8.46303491931047"><ele>58.0</ele><time>2026-04-10T17:06:31Z</time></trkpt><trkpt lat="39.55727468903407" lon="8.463187168706394"><ele>58.0</ele><time>2026-04-10T17:06:32Z</time></trkpt><trkpt lat="39.557277551527264" lon="8.463321456655581"><ele>59.0</ele><time>2026-04-10T17:06:33Z</time></trkpt><trkpt lat="39.55728128574562" lon="8.463454319061702"><ele>60.0</ele><time>2026-04-10T17:06:34Z</time></trkpt><trkpt lat="39.55729448964676" lon="8.46359031374625"><ele>61.0</ele><time>2026-04-10T17:06:35Z</time></trkpt><trkpt lat="39.55732075288682" lon="8.463726582688613"><ele>62.0</ele><time>2026-04-10T17:06:36Z</time></trkpt><trkpt lat="39.557355922065284" lon="8.46386349606232"><ele>63.0</ele><time>2026-04-10T17:06:37Z</time></trkpt><trkpt lat="39.55740221556215" lon="8.463996436339492"><ele>64.75</ele><time>2026-04-10T17:06:38Z</time></trkpt><trkpt lat="39.557456403361314" lon="8.464137626307403"><ele>66.5</ele><time>2026-04-10T17:06:39Z</time></trkpt><trkpt lat="39.5575244039345" lon="8.46426686109106"><ele>68.25</ele><time>2026-04-10T17:06:40Z</time></trkpt><trkpt lat="39.557597571310076" lon="8.46438865263293"><ele>70.0</ele><time>2026-04-10T17:06:41Z</time></trkpt><trkpt lat="39.55768024110025" lon="8.46449701353166"><ele>70.0</ele><time>2026-04-10T17:06:42Z</time></trkpt><trkpt lat="39.55777257934096" lon="8.4645992896222"><ele>70.0</ele><time>2026-04-10T17:06:43Z</time></trkpt><trkpt lat="39.55787300673762" lon="8.464690343921824"><ele>70.0</ele><time>2026-04-10T17:06:44Z</time></trkpt><trkpt lat="39.557982729310275" lon="8.46476638132507"><ele>70.0</ele><time>2026-04-10T17:06:45Z</time></trkpt><trkpt lat="39.558101272861805" lon="8.464827644550802"><ele>70.25</ele><time>2026-04-10T17:06:46Z</time></trkpt><trkpt lat="39.558228888989404" lon="8.464877304112315"><ele>70.5</ele><time>2026-04-10T17:06:47Z</time></trkpt><trkpt lat="39.55836050087036" lon="8.46490560643958"><ele>70.75</ele><time>2026-04-10T17:06:48Z</time></trkpt><trkpt lat="39.55849855930126" lon="8.464915254345176"><ele>71.0</ele><time>2026-04-10T17:06:49Z</time></trkpt><trkpt lat="39.55864458318962" lon="8.464907214243263"><ele>74.33333333333334</ele><time>2026-04-10T17:06:50Z</time></trkpt><trkpt lat="39.558797708547814" lon="8.4648837369076"><ele>77.66666666666667</ele><time>2026-04-10T17:06:51Z</time></trkpt><trkpt lat="39.55895574081705" lon="8.464829356539383"><ele>81.0</ele><time>2026-04-10T17:06:52Z</time></trkpt><trkpt lat="39.55910712290203" lon="8.464742174952692"><ele>81.0</ele><time>2026-04-10T17:06:53Z</time></trkpt><trkpt lat="39.55925632515613" lon="8.46462140005874"><ele>81.0</ele><time>2026-04-10T17:06:54Z</time></trkpt><trkpt lat="39.55938803188534" lon="8.464479790147038"><ele>81.0</ele><time>2026-04-10T17:06:55Z</time></trkpt><trkpt lat="39.55952673221154" lon="8.46430792247506"><ele>81.66666666666667</ele><time>2026-04-10T17:06:56Z</time></trkpt><trkpt lat="39.559647266862235" lon="8.464175655575435"><ele>82.33333333333334</ele><time>2026-04-10T17:06:57Z</time></trkpt><trkpt lat="39.55977792250929" lon="8.464035307356578"><ele>83.0</ele><time>2026-04-10T17:06:58Z</time></trkpt><trkpt lat="39.55991376632318" lon="8.46389668880918"><ele>82.0</ele><time>2026-04-10T17:06:59Z</time></trkpt><trkpt lat="39.56004033436608" lon="8.463767048009688"><ele>81.0</ele><time>2026-04-10T17:07:00Z</time></trkpt><trkpt lat="39.56015431595783" lon="8.46364901653814"><ele>80.0</ele><time>2026-04-10T17:07:01Z</time></trkpt><trkpt lat="39.56026044168822" lon="8.463530892555271"><ele>79.0</ele><time>2026-04-10T17:07:02Z</time></trkpt><trkpt lat="39.5603692827398" lon="8.463400775366758"><ele>79.0</ele><time>2026-04-10T17:07:03Z</time></trkpt><trkpt lat="39.56048437457638" lon="8.463276362361341"><ele>79.0</ele><time>2026-04-10T17:07:04Z</time></trkpt><trkpt lat="39.56060306566989" lon="8.463155251459415"><ele>79.0</ele><time>2026-04-10T17:07:05Z</time></trkpt><trkpt lat="39.560718080652194" lon="8.463034556494401"><ele>79.0</ele><time>2026-04-10T17:07:06Z</time></trkpt><trkpt lat="39.56082529485808" lon="8.462912409846203"><ele>78.0</ele><time>2026-04-10T17:07:07Z</time></trkpt><trkpt lat="39.560931164967776" lon="8.462792203706877"><ele>77.0</ele><time>2026-04-10T17:07:08Z</time></trkpt><trkpt lat="39.56103419621233" lon="8.462681649336984"><ele>76.0</ele><time>2026-04-10T17:07:09Z</time></trkpt><trkpt lat="39.56113540337545" lon="8.46257798741902"><ele>75.0</ele><time>2026-04-10T17:07:10Z</time></trkpt><trkpt lat="39.56122787216574" lon="8.462476961860094"><ele>74.8</ele><time>2026-04-10T17:07:11Z</time></trkpt><trkpt lat="39.56130378601812" lon="8.462385274634398"><ele>74.6</ele><time>2026-04-10T17:07:12Z</time></trkpt><trkpt lat="39.56138153952644" lon="8.462299495258078"><ele>74.4</ele><time>2026-04-10T17:07:13Z</time></trkpt><trkpt lat="39.561462723690916" lon="8.462218798049332"><ele>74.2</ele><time>2026-04-10T17:07:14Z</time></trkpt><trkpt lat="39.56154832955721" lon="8.462140996582923"><ele>74.0</ele><time>2026-04-10T17:07:15Z</time></trkpt><trkpt lat="39.561636752003324" lon="8.462068901550406"><ele>73.25</ele><time>2026-04-10T17:07:16Z</time></trkpt><trkpt lat="39.56172676031501" lon="8.462007426863337"><ele>72.5</ele><time>2026-04-10T17:07:17Z</time></trkpt><trkpt lat="39.56182747105202" lon="8.461961191983315"><ele>71.75</ele><time>2026-04-10T17:07:18Z</time></trkpt><trkpt lat="39.561944900995826" lon="8.46193518088518"><ele>71.0</ele><time>2026-04-10T17:07:19Z</time></trkpt><trkpt lat="39.56207255732045" lon="8.46193138645692"><ele>69.75</ele><time>2026-04-10T17:07:20Z</time></trkpt><trkpt lat="39.56219257435729" lon="8.46194250198252"><ele>68.5</ele><time>2026-04-10T17:07:21Z</time></trkpt><trkpt lat="39.5623060833701" lon="8.461980641546806"><ele>67.25</ele><time>2026-04-10T17:07:22Z</time></trkpt><trkpt lat="39.562410508181934" lon="8.462045129174161"><ele>66.0</ele><time>2026-04-10T17:07:23Z</time></trkpt><trkpt lat="39.56250513741668" lon="8.462133271652856"><ele>66.0</ele><time>2026-04-10T17:07:24Z</time></trkpt><trkpt lat="39.562599675420756" lon="8.462236105050946"><ele>66.0</ele><time>2026-04-10T17:07:25Z</time></trkpt><trkpt lat="39.56266599864268" lon="8.46237514863645"><ele>66.0</ele><time>2026-04-10T17:07:26Z</time></trkpt><trkpt lat="39.56274091129038" lon="8.46251879798711"><ele>66.0</ele><time>2026-04-10T17:07:27Z</time></trkpt><trkpt lat="39.56281681810967" lon="8.46265107905221"><ele>66.0</ele><time>2026-04-10T17:07:28Z</time></trkpt><trkpt lat="39.56287976279003" lon="8.462786853720985"><ele>66.0</ele><time>2026-04-10T17:07:29Z</time></trkpt><trkpt lat="39.56295501881212" lon="8.462906749410395"><ele>66.0</ele><time>2026-04-10T17:07:30Z</time></trkpt><trkpt lat="39.56304532860818" lon="8.46301662118372"><ele>66.0</ele><time>2026-04-10T17:07:31Z</time></trkpt><trkpt lat="39.56314679015646" lon="8.463121310617062"><ele>61.66666666666667</ele><time>2026-04-10T17:07:32Z</time></trkpt><trkpt lat="39.563267046256776" lon="8.463221991549606"><ele>57.333333333333336</ele><time>2026-04-10T17:07:33Z</time></trkpt><trkpt lat="39.563402982434916" lon="8.46331596047833"><ele>53.0</ele><time>2026-04-10T17:07:34Z</time></trkpt><trkpt lat="39.563554075021074" lon="8.463388241041256"><ele>52.66666666666667</ele><time>2026-04-10T17:07:35Z</time></trkpt><trkpt lat="39.563720485153006" lon="8.463443405065988"><ele>52.33333333333333</ele><time>2026-04-10T17:07:36Z</time></trkpt><trkpt lat="39.5639019499011" lon="8.463478775449763"><ele>52.0</ele><time>2026-04-10T17:07:37Z</time></trkpt><trkpt lat="39.56409265718178" lon="8.463498928569136"><ele>52.0</ele><time>2026-04-10T17:07:38Z</time></trkpt><trkpt lat="39.56428124822246" lon="8.46351949569419"><ele>52.0</ele><time>2026-04-10T17:07:39Z</time></trkpt><trkpt lat="39.564466423494174" lon="8.463547175245115"><ele>52.0</ele><time>2026-04-10T17:07:40Z</time></trkpt><trkpt lat="39.564646100944145" lon="8.463581629611047"><ele>51.0</ele><time>2026-04-10T17:07:41Z</time></trkpt><trkpt lat="39.564820689840765" lon="8.463615943098047"><ele>50.0</ele><time>2026-04-10T17:07:42Z</time></trkpt><trkpt lat="39.56498990557048" lon="8.463645068695268"><ele>49.0</ele><time>2026-04-10T17:07:43Z</time></trkpt><trkpt lat="39.56515254737941" lon="8.463673038375862"><ele>49.0</ele><time>2026-04-10T17:07:44Z</time></trkpt><trkpt lat="39.56530744165961" lon="8.463692099449242"><ele>49.0</ele><time>2026-04-10T17:07:45Z</time></trkpt><trkpt lat="39.5654549056125" lon="8.463706633692032"><ele>49.0</ele><time>2026-04-10T17:07:46Z</time></trkpt><trkpt lat="39.56559418807978" lon="8.463714513980689"><ele>49.0</ele><time>2026-04-10T17:07:47Z</time></trkpt><trkpt lat="39.565734928653825" lon="8.463711404528752"><ele>48.33333333333333</ele><time>2026-04-10T17:07:48Z</time></trkpt><trkpt lat="39.5658792566723" lon="8.463694570189878"><ele>47.666666666666664</ele><time>2026-04-10T17:07:49Z</time></trkpt><trkpt lat="39.56603921096163" lon="8.463659987803112"><ele>47.0</ele><time>2026-04-10T17:07:50Z</time></trkpt><trkpt lat="39.56620966088069" lon="8.463603329954301"><ele>40.0</ele><time>2026-04-10T17:07:51Z</time></trkpt><trkpt lat="39.566388379665455" lon="8.463519823941382"><ele>33.0</ele><time>2026-04-10T17:07:52Z</time></trkpt><trkpt lat="39.56655946641135" lon="8.463428220084575"><ele>26.0</ele><time>2026-04-10T17:07:53Z</time></trkpt><trkpt lat="39.56672977658555" lon="8.463324340867075"><ele>26.0</ele><time>2026-04-10T17:07:54Z</time></trkpt><trkpt lat="39.56690560615495" lon="8.46321656084222"><ele>26.0</ele><time>2026-04-10T17:07:55Z</time></trkpt><trkpt lat="39.56706498264108" lon="8.463123128551986"><ele>26.0</ele><time>2026-04-10T17:07:56Z</time></trkpt><trkpt lat="39.56721326467893" lon="8.463042248421452"><ele>25.25</ele><time>2026-04-10T17:07:57Z</time></trkpt><trkpt lat="39.567352959315166" lon="8.462966548073721"><ele>24.5</ele><time>2026-04-10T17:07:58Z</time></trkpt><trkpt lat="39.56748327710711" lon="8.462894572839183"><ele>23.75</ele><time>2026-04-10T17:07:59Z</time></trkpt><trkpt lat="39.567602975984386" lon="8.46282319409593"><ele>23.0</ele><time>2026-04-10T17:08:00Z</time></trkpt><trkpt lat="39.567716373745746" lon="8.462751840030162"><ele>23.0</ele><time>2026-04-10T17:08:01Z</time></trkpt><trkpt lat="39.56782933417831" lon="8.462683203140742"><ele>23.0</ele><time>2026-04-10T17:08:02Z</time></trkpt><trkpt lat="39.56794474032196" lon="8.46261762026635"><ele>23.0</ele><time>2026-04-10T17:08:03Z</time></trkpt><trkpt lat="39.56806197831795" lon="8.462548088985315"><ele>23.0</ele><time>2026-04-10T17:08:04Z</time></trkpt><trkpt lat="39.56818085116239" lon="8.46247467859212"><ele>23.0</ele><time>2026-04-10T17:08:05Z</time></trkpt><trkpt lat="39.56830228415977" lon="8.46239962158476"><ele>23.0</ele><time>2026-04-10T17:08:06Z</time></trkpt><trkpt lat="39.56842027255088" lon="8.462326137799566"><ele>23.0</ele><time>2026-04-10T17:08:07Z</time></trkpt><trkpt lat="39.56854150630676" lon="8.46224980328382"><ele>23.0</ele><time>2026-04-10T17:08:08Z</time></trkpt><trkpt lat="39.568665737434976" lon="8.462171209058498"><ele>22.25</ele><time>2026-04-10T17:08:09Z</time></trkpt><trkpt lat="39.56879222503959" lon="8.462092931840987"><ele>21.5</ele><time>2026-04-10T17:08:10Z</time></trkpt><trkpt lat="39.56891880815923" lon="8.462017299565437"><ele>20.75</ele><time>2026-04-10T17:08:11Z</time></trkpt><trkpt lat="39.56904761343253" lon="8.46194500180512"><ele>20.0</ele><time>2026-04-10T17:08:12Z</time></trkpt><trkpt lat="39.56917352399717" lon="8.461883887124426"><ele>20.0</ele><time>2026-04-10T17:08:13Z</time></trkpt><trkpt lat="39.56930052591592" lon="8.46183188876038"><ele>20.0</ele><time>2026-04-10T17:08:14Z</time></trkpt><trkpt lat="39.56943185601242" lon="8.461792861954303"><ele>20.0</ele><time>2026-04-10T17:08:15Z</time></trkpt><trkpt lat="39.56956757816325" lon="8.461759500177216"><ele>20.0</ele><time>2026-04-10T17:08:16Z</time></trkpt><trkpt lat="39.56970478637385" lon="8.461734402292597"><ele>20.25</ele><time>2026-04-10T17:08:17Z</time></trkpt><trkpt lat="39.56984355509005" lon="8.461722404565618"><ele>20.5</ele><time>2026-04-10T17:08:18Z</time></trkpt><trkpt lat="39.569981778471664" lon="8.4617166479409"><ele>20.75</ele><time>2026-04-10T17:08:19Z</time></trkpt><trkpt lat="39.57011903068126" lon="8.461714957016008"><ele>21.0</ele><time>2026-04-10T17:08:20Z</time></trkpt><trkpt lat="39.570260433842876" lon="8.46171293923501"><ele>21.0</ele><time>2026-04-10T17:08:21Z</time></trkpt><trkpt lat="39.570415743795415" lon="8.461717407771413"><ele>21.0</ele><time>2026-04-10T17:08:22Z</time></trkpt><trkpt lat="39.57055630170083" lon="8.461718365828467"><ele>21.0</ele><time>2026-04-10T17:08:23Z</time></trkpt><trkpt lat="39.57068786474344" lon="8.461721824767698"><ele>21.0</ele><time>2026-04-10T17:08:24Z</time></trkpt><trkpt lat="39.57081810044013" lon="8.461721846721847"><ele>21.0</ele><time>2026-04-10T17:08:25Z</time></trkpt><trkpt lat="39.57094851405574" lon="8.461723776770166"><ele>21.0</ele><time>2026-04-10T17:08:26Z</time></trkpt><trkpt lat="39.57107329219845" lon="8.461725484569603"><ele>21.0</ele><time>2026-04-10T17:08:27Z</time></trkpt><trkpt lat="39.571187154019015" lon="8.46172676584837"><ele>21.0</ele><time>2026-04-10T17:08:28Z</time></trkpt><trkpt lat="39.57129647885922" lon="8.461727874834876"><ele>20.2</ele><time>2026-04-10T17:08:29Z</time></trkpt><trkpt lat="39.57139933330401" lon="8.46172930195425"><ele>19.400000000000002</ele><time>2026-04-10T17:08:30Z</time></trkpt><trkpt lat="39.57150610043905" lon="8.461734037271851"><ele>18.6</ele><time>2026-04-10T17:08:31Z</time></trkpt><trkpt lat="39.57161848754309" lon="8.461752144757343"><ele>17.8</ele><time>2026-04-10T17:08:32Z</time></trkpt><trkpt lat="39.57173342626874" lon="8.461789481857327"><ele>17.0</ele><time>2026-04-10T17:08:33Z</time></trkpt><trkpt lat="39.57184345361371" lon="8.461843623116943"><ele>17.0</ele><time>2026-04-10T17:08:34Z</time></trkpt><trkpt lat="39.57195479843517" lon="8.46190707746778"><ele>17.0</ele><time>2026-04-10T17:08:35Z</time></trkpt><trkpt lat="39.572063756243544" lon="8.461983988548257"><ele>17.0</ele><time>2026-04-10T17:08:36Z</time></trkpt><trkpt lat="39.572169825239435" lon="8.46208628543111"><ele>17.0</ele><time>2026-04-10T17:08:37Z</time></trkpt><trkpt lat="39.5722692721474" lon="8.462211834715976"><ele>18.0</ele><time>2026-04-10T17:08:38Z</time></trkpt><trkpt lat="39.57236393420487" lon="8.462343207464869"><ele>19.0</ele><time>2026-04-10T17:08:39Z</time></trkpt><trkpt lat="39.57245714068766" lon="8.462472305715014"><ele>20.0</ele><time>2026-04-10T17:08:40Z</time></trkpt><trkpt lat="39.57255152523623" lon="8.462592966255997"><ele>21.0</ele><time>2026-04-10T17:08:41Z</time></trkpt><trkpt lat="39.57263859779273" lon="8.462707514349749"><ele>21.0</ele><time>2026-04-10T17:08:42Z</time></trkpt><trkpt lat="39.572719909680956" lon="8.462814843186697"><ele>21.0</ele><time>2026-04-10T17:08:43Z</time></trkpt><trkpt lat="39.5727945576504" lon="8.462914537855594"><ele>21.0</ele><time>2026-04-10T17:08:44Z</time></trkpt><trkpt lat="39.572864181573664" lon="8.463007806961004"><ele>21.0</ele><time>2026-04-10T17:08:45Z</time></trkpt><trkpt lat="39.57292055258183" lon="8.463086324536013"><ele>21.0</ele><time>2026-04-10T17:08:46Z</time></trkpt><trkpt lat="39.572971846953536" lon="8.463159132492107"><ele>20.333333333333332</ele><time>2026-04-10T17:08:47Z</time></trkpt><trkpt lat="39.573029955655116" lon="8.463234344688606"><ele>19.666666666666668</ele><time>2026-04-10T17:08:48Z</time></trkpt><trkpt lat="39.57308442050181" lon="8.463300687328799"><ele>19.0</ele><time>2026-04-10T17:08:49Z</time></trkpt><trkpt lat="39.57313066616637" lon="8.463365157805791"><ele>18.333333333333336</ele><time>2026-04-10T17:08:50Z</time></trkpt><trkpt lat="39.573173374881286" lon="8.46345005069016"><ele>17.666666666666668</ele><time>2026-04-10T17:08:51Z</time></trkpt><trkpt lat="39.57321330362731" lon="8.46354248201891"><ele>17.0</ele><time>2026-04-10T17:08:52Z</time></trkpt><trkpt lat="39.573237635233376" lon="8.463636000074427"><ele>17.0</ele><time>2026-04-10T17:08:53Z</time></trkpt><trkpt lat="39.57325394697077" lon="8.463743289882053"><ele>17.0</ele><time>2026-04-10T17:08:54Z</time></trkpt><trkpt lat="39.57326027658268" lon="8.463838995247006"><ele>17.0</ele><time>2026-04-10T17:08:55Z</time></trkpt><trkpt lat="39.573241461253495" lon="8.463979301606367"><ele>17.0</ele><time>2026-04-10T17:08:57Z</time></trkpt><trkpt lat="39.57318372160796" lon="8.464080975152491"><ele>17.0</ele><time>2026-04-10T17:08:59Z</time></trkpt><trkpt lat="39.5731499981634" lon="8.464185214366662"><ele>17.5</ele><time>2026-04-10T17:09:01Z</time></trkpt><trkpt lat="39.57312754865848" lon="8.46426484065902"><ele>18.0</ele><time>2026-04-10T17:09:02Z</time></trkpt><trkpt lat="39.5731013884707" lon="8.46435762838536"><ele>18.5</ele><time>2026-04-10T17:09:03Z</time></trkpt><trkpt lat="39.57307226233215" lon="8.464460936070525"><ele>19.0</ele><time>2026-04-10T17:09:04Z</time></trkpt><trkpt lat="39.573040972475766" lon="8.464570215941663"><ele>19.5</ele><time>2026-04-10T17:09:05Z</time></trkpt><trkpt lat="39.573010488451764" lon="8.464673831781992"><ele>20.0</ele><time>2026-04-10T17:09:06Z</time></trkpt><trkpt lat="39.57298528149845" lon="8.464759510742933"><ele>21.0</ele><time>2026-04-10T17:09:07Z</time></trkpt><trkpt lat="39.57295824379239" lon="8.464854887220996"><ele>22.0</ele><time>2026-04-10T17:09:08Z</time></trkpt><trkpt lat="39.57292998320448" lon="8.464955693655265"><ele>23.0</ele><time>2026-04-10T17:09:09Z</time></trkpt><trkpt lat="39.57291486644606" lon="8.46507902653045"><ele>24.0</ele><time>2026-04-10T17:09:10Z</time></trkpt><trkpt lat="39.57287967441607" lon="8.465197538207528"><ele>25.0</ele><time>2026-04-10T17:09:11Z</time></trkpt><trkpt lat="39.57289956996523" lon="8.465338086156418"><ele>27.25</ele><time>2026-04-10T17:09:12Z</time></trkpt><trkpt lat="39.57292416260878" lon="8.46547573880126"><ele>29.5</ele><time>2026-04-10T17:09:13Z</time></trkpt><trkpt lat="39.57296307248409" lon="8.465617956906424"><ele>31.75</ele><time>2026-04-10T17:09:14Z</time></trkpt><trkpt lat="39.573012069104564" lon="8.46576472086439"><ele>34.0</ele><time>2026-04-10T17:09:15Z</time></trkpt><trkpt lat="39.573057418838474" lon="8.46592201222452"><ele>34.0</ele><time>2026-04-10T17:09:16Z</time></trkpt><trkpt lat="39.57310671026617" lon="8.466091941415756"><ele>34.0</ele><time>2026-04-10T17:09:17Z</time></trkpt><trkpt lat="39.573161548878986" lon="8.466271831042937"><ele>34.0</ele><time>2026-04-10T17:09:18Z</time></trkpt><trkpt lat="39.57321609174279" lon="8.466451103423463"><ele>34.0</ele><time>2026-04-10T17:09:19Z</time></trkpt><trkpt lat="39.57327634042909" lon="8.466610206336965"><ele>36.0</ele><time>2026-04-10T17:09:20Z</time></trkpt><trkpt lat="39.573367417616204" lon="8.466767673995333"><ele>38.0</ele><time>2026-04-10T17:09:21Z</time></trkpt><trkpt lat="39.573481207015554" lon="8.466922795151689"><ele>40.0</ele><time>2026-04-10T17:09:22Z</time></trkpt><trkpt lat="39.57358365213563" lon="8.467074639184942"><ele>41.0</ele><time>2026-04-10T17:09:23Z</time></trkpt><trkpt lat="39.57366762352037" lon="8.467260947822632"><ele>42.0</ele><time>2026-04-10T17:09:24Z</time></trkpt><trkpt lat="39.57372590618788" lon="8.467461415320058"><ele>43.0</ele><time>2026-04-10T17:09:25Z</time></trkpt><trkpt lat="39.5737676759021" lon="8.467664877350535"><ele>43.0</ele><time>2026-04-10T17:09:26Z</time></trkpt><trkpt lat="39.5738061778235" lon="8.467847928112135"><ele>43.0</ele><time>2026-04-10T17:09:27Z</time></trkpt><trkpt lat="39.57383905346845" lon="8.468025496545508"><ele>43.0</ele><time>2026-04-10T17:09:28Z</time></trkpt><trkpt lat="39.57386847006543" lon="8.468210071790782"><ele>43.0</ele><time>2026-04-10T17:09:29Z</time></trkpt><trkpt lat="39.57389407466808" lon="8.46839653404631"><ele>44.5</ele><time>2026-04-10T17:09:30Z</time></trkpt><trkpt lat="39.57389827901729" lon="8.468579667710822"><ele>46.0</ele><time>2026-04-10T17:09:31Z</time></trkpt><trkpt lat="39.57391170173783" lon="8.468745513582167"><ele>47.5</ele><time>2026-04-10T17:09:32Z</time></trkpt><trkpt lat="39.57391558962147" lon="8.468891056351909"><ele>49.0</ele><time>2026-04-10T17:09:33Z</time></trkpt><trkpt lat="39.57391305741046" lon="8.469049522250842"><ele>50.75</ele><time>2026-04-10T17:09:34Z</time></trkpt><trkpt lat="39.573910101311206" lon="8.469215711955613"><ele>52.5</ele><time>2026-04-10T17:09:35Z</time></trkpt><trkpt lat="39.57390503733484" lon="8.469383892182599"><ele>54.25</ele><time>2026-04-10T17:09:36Z</time></trkpt><trkpt lat="39.573899137460515" lon="8.469547509103297"><ele>56.0</ele><time>2026-04-10T17:09:37Z</time></trkpt><trkpt lat="39.57390554930974" lon="8.469701222690425"><ele>57.5</ele><time>2026-04-10T17:09:38Z</time></trkpt><trkpt lat="39.57397178174773" lon="8.469843990273052"><ele>59.0</ele><time>2026-04-10T17:09:39Z</time></trkpt><trkpt lat="39.574041387771835" lon="8.47000619717403"><ele>60.5</ele><time>2026-04-10T17:09:40Z</time></trkpt><trkpt lat="39.574079776280776" lon="8.470214092409954"><ele>62.0</ele><time>2026-04-10T17:09:41Z</time></trkpt><trkpt lat="39.57411756878408" lon="8.470402226256452"><ele>64.0</ele><time>2026-04-10T17:09:42Z</time></trkpt><trkpt lat="39.57414237661909" lon="8.470586977677051"><ele>66.0</ele><time>2026-04-10T17:09:43Z</time></trkpt><trkpt lat="39.57416492849692" lon="8.470768439532185"><ele>68.0</ele><time>2026-04-10T17:09:44Z</time></trkpt><trkpt lat="39.57418418276658" lon="8.470951199784693"><ele>70.0</ele><time>2026-04-10T17:09:45Z</time></trkpt><trkpt lat="39.57420489117824" lon="8.471147762693926"><ele>73.0</ele><time>2026-04-10T17:09:46Z</time></trkpt><trkpt lat="39.574228940516214" lon="8.471343215057852"><ele>76.0</ele><time>2026-04-10T17:09:47Z</time></trkpt><trkpt lat="39.574255348406034" lon="8.471544762673236"><ele>79.0</ele><time>2026-04-10T17:09:48Z</time></trkpt><trkpt lat="39.574280144157264" lon="8.47173117165758"><ele>79.0</ele><time>2026-04-10T17:09:49Z</time></trkpt><trkpt lat="39.57430431102895" lon="8.471912852871808"><ele>79.0</ele><time>2026-04-10T17:09:50Z</time></trkpt><trkpt lat="39.57433036933728" lon="8.472087062128576"><ele>79.0</ele><time>2026-04-10T17:09:51Z</time></trkpt><trkpt lat="39.57436236916602" lon="8.472242762630632"><ele>79.0</ele><time>2026-04-10T17:09:52Z</time></trkpt><trkpt lat="39.574389333312176" lon="8.472379741509753"><ele>80.4</ele><time>2026-04-10T17:09:53Z</time></trkpt><trkpt lat="39.574406427084575" lon="8.472503966965403"><ele>81.80000000000001</ele><time>2026-04-10T17:09:54Z</time></trkpt><trkpt lat="39.574416244986416" lon="8.47264172989779"><ele>83.19999999999999</ele><time>2026-04-10T17:09:55Z</time></trkpt><trkpt lat="39.57441713752016" lon="8.472776727443238"><ele>84.6</ele><time>2026-04-10T17:09:56Z</time></trkpt><trkpt lat="39.57439154085457" lon="8.472912758505526"><ele>86.0</ele><time>2026-04-10T17:09:57Z</time></trkpt><trkpt lat="39.57435727816467" lon="8.47306155313413"><ele>86.8</ele><time>2026-04-10T17:09:58Z</time></trkpt><trkpt lat="39.574327368389184" lon="8.473217126422798"><ele>87.6</ele><time>2026-04-10T17:09:59Z</time></trkpt><trkpt lat="39.57430771674835" lon="8.47335120210726"><ele>88.4</ele><time>2026-04-10T17:10:00Z</time></trkpt><trkpt lat="39.57429433605651" lon="8.473457625303407"><ele>89.2</ele><time>2026-04-10T17:10:01Z</time></trkpt><trkpt lat="39.57428224829617" lon="8.473572290297975"><ele>90.0</ele><time>2026-04-10T17:10:02Z</time></trkpt><trkpt lat="39.574284280849014" lon="8.473700304651182"><ele>89.6</ele><time>2026-04-10T17:10:03Z</time></trkpt><trkpt lat="39.574300167935306" lon="8.473805170560892"><ele>89.2</ele><time>2026-04-10T17:10:04Z</time></trkpt><trkpt lat="39.57438032801262" lon="8.473887766152277"><ele>88.80000000000001</ele><time>2026-04-10T17:10:05Z</time></trkpt><trkpt lat="39.57446152746803" lon="8.473973637140071"><ele>88.4</ele><time>2026-04-10T17:10:06Z</time></trkpt><trkpt lat="39.574569387158554" lon="8.474072420374869"><ele>88.0</ele><time>2026-04-10T17:10:07Z</time></trkpt><trkpt lat="39.574668267188635" lon="8.474152608804607"><ele>88.0</ele><time>2026-04-10T17:10:08Z</time></trkpt><trkpt lat="39.574724301114294" lon="8.474239749066415"><ele>88.0</ele><time>2026-04-10T17:10:09Z</time></trkpt><trkpt lat="39.57477520593914" lon="8.474300764904962"><ele>88.0</ele><time>2026-04-10T17:10:10Z</time></trkpt><trkpt lat="39.57475392207626" lon="8.474410344724818"><ele>88.0</ele><time>2026-04-10T17:10:11Z</time></trkpt><trkpt lat="39.574741675061176" lon="8.474561077318086"><ele>88.0</ele><time>2026-04-10T17:10:12Z</time></trkpt><trkpt lat="39.57473164423615" lon="8.474735997958993"><ele>89.4</ele><time>2026-04-10T17:10:13Z</time></trkpt><trkpt lat="39.574741284883885" lon="8.474895236958304"><ele>90.80000000000001</ele><time>2026-04-10T17:10:14Z</time></trkpt><trkpt lat="39.574738811476955" lon="8.475022409998015"><ele>92.2</ele><time>2026-04-10T17:10:15Z</time></trkpt><trkpt lat="39.5748012333697" lon="8.475132717858923"><ele>93.6</ele><time>2026-04-10T17:10:16Z</time></trkpt><trkpt lat="39.57487827737403" lon="8.475226386837056"><ele>95.0</ele><time>2026-04-10T17:10:17Z</time></trkpt><trkpt lat="39.57495979099651" lon="8.475345079207814"><ele>96.2</ele><time>2026-04-10T17:10:18Z</time></trkpt><trkpt lat="39.57503722767833" lon="8.475466359036632"><ele>97.4</ele><time>2026-04-10T17:10:19Z</time></trkpt><trkpt lat="39.57508165619491" lon="8.475579918822337"><ele>98.6</ele><time>2026-04-10T17:10:20Z</time></trkpt><trkpt lat="39.575105611114175" lon="8.475687753690202"><ele>99.8</ele><time>2026-04-10T17:10:21Z</time></trkpt><trkpt lat="39.57513901867025" lon="8.475811456161154"><ele>101.0</ele><time>2026-04-10T17:10:22Z</time></trkpt><trkpt lat="39.57517032908968" lon="8.475938279488794"><ele>100.99999999999999</ele><time>2026-04-10T17:10:23Z</time></trkpt><trkpt lat="39.57518031037833" lon="8.47605237584453"><ele>101.0</ele><time>2026-04-10T17:10:24Z</time></trkpt><trkpt lat="39.57516627655028" lon="8.476143015736573"><ele>101.0</ele><time>2026-04-10T17:10:25Z</time></trkpt><trkpt lat="39.57512338522761" lon="8.47622687622507"><ele>101.0</ele><time>2026-04-10T17:10:26Z</time></trkpt><trkpt lat="39.57506891349923" lon="8.47633812560818"><ele>100.99999999999999</ele><time>2026-04-10T17:10:27Z</time></trkpt><trkpt lat="39.57501457600116" lon="8.476462325023702"><ele>101.0</ele><time>2026-04-10T17:10:28Z</time></trkpt><trkpt lat="39.57496202653378" lon="8.47658780853196"><ele>100.6</ele><time>2026-04-10T17:10:29Z</time></trkpt><trkpt lat="39.57490946118996" lon="8.476708561106825"><ele>100.19999999999999</ele><time>2026-04-10T17:10:30Z</time></trkpt><trkpt lat="39.57485860769371" lon="8.47681354508962"><ele>99.80000000000001</ele><time>2026-04-10T17:10:31Z</time></trkpt><trkpt lat="39.57480994399258" lon="8.476911628918316"><ele>99.4</ele><time>2026-04-10T17:10:32Z</time></trkpt><trkpt lat="39.574756148662466" lon="8.477016203780504"><ele>99.0</ele><time>2026-04-10T17:10:33Z</time></trkpt><trkpt lat="39.57469803500312" lon="8.477118338394376"><ele>96.6</ele><time>2026-04-10T17:10:34Z</time></trkpt><trkpt lat="39.574646579720444" lon="8.477232712441852"><ele>94.2</ele><time>2026-04-10T17:10:35Z</time></trkpt><trkpt lat="39.57457889602316" lon="8.477316505734182"><ele>91.8</ele><time>2026-04-10T17:10:36Z</time></trkpt><trkpt lat="39.57454860819733" lon="8.477413289171208"><ele>89.39999999999999</ele><time>2026-04-10T17:10:37Z</time></trkpt><trkpt lat="39.574554703645795" lon="8.477526782188269"><ele>87.0</ele><time>2026-04-10T17:10:38Z</time></trkpt><trkpt lat="39.574606966175374" lon="8.477640601634256"><ele>87.0</ele><time>2026-04-10T17:10:39Z</time></trkpt><trkpt lat="39.57466057898986" lon="8.477748075989826"><ele>87.0</ele><time>2026-04-10T17:10:40Z</time></trkpt><trkpt lat="39.57468720639211" lon="8.477877822202053"><ele>87.0</ele><time>2026-04-10T17:10:41Z</time></trkpt><trkpt lat="39.57471627444402" lon="8.478001906663655"><ele>87.0</ele><time>2026-04-10T17:10:42Z</time></trkpt><trkpt lat="39.574729578598124" lon="8.478118164332038"><ele>87.0</ele><time>2026-04-10T17:10:43Z</time></trkpt><trkpt lat="39.57472362506" lon="8.47822891885461"><ele>87.0</ele><time>2026-04-10T17:10:44Z</time></trkpt><trkpt lat="39.5747052375325" lon="8.478345828037176"><ele>87.0</ele><time>2026-04-10T17:10:45Z</time></trkpt><trkpt lat="39.57467978531717" lon="8.478472233319307"><ele>87.0</ele><time>2026-04-10T17:10:46Z</time></trkpt><trkpt lat="39.574640540694595" lon="8.478617981946273"><ele>87.0</ele><time>2026-04-10T17:10:47Z</time></trkpt><trkpt lat="39.574600626249094" lon="8.478786345757435"><ele>87.0</ele><time>2026-04-10T17:10:48Z</time></trkpt><trkpt lat="39.57456071347061" lon="8.47896131979318"><ele>85.75</ele><time>2026-04-10T17:10:49Z</time></trkpt><trkpt lat="39.57452248210699" lon="8.479123972659885"><ele>84.5</ele><time>2026-04-10T17:10:50Z</time></trkpt><trkpt lat="39.57449229036244" lon="8.479278769769573"><ele>83.25</ele><time>2026-04-10T17:10:51Z</time></trkpt><trkpt lat="39.57440998042082" lon="8.47940586959937"><ele>82.0</ele><time>2026-04-10T17:10:52Z</time></trkpt><trkpt lat="39.574332646799036" lon="8.4795379266841"><ele>86.0</ele><time>2026-04-10T17:10:53Z</time></trkpt><trkpt lat="39.57425009476251" lon="8.479668640175978"><ele>90.0</ele><time>2026-04-10T17:10:54Z</time></trkpt><trkpt lat="39.57415840420283" lon="8.479774755982522"><ele>94.0</ele><time>2026-04-10T17:10:55Z</time></trkpt><trkpt lat="39.574057852676674" lon="8.47984954958129"><ele>98.0</ele><time>2026-04-10T17:10:56Z</time></trkpt><trkpt lat="39.57394086556425" lon="8.479916220021632"><ele>98.0</ele><time>2026-04-10T17:10:57Z</time></trkpt><trkpt lat="39.57381853414094" lon="8.479993993477684"><ele>98.0</ele><time>2026-04-10T17:10:58Z</time></trkpt><trkpt lat="39.57372599330931" lon="8.480096575054132"><ele>98.0</ele><time>2026-04-10T17:10:59Z</time></trkpt><trkpt lat="39.57364195718154" lon="8.480210385214882"><ele>98.0</ele><time>2026-04-10T17:11:00Z</time></trkpt><trkpt lat="39.57353995795318" lon="8.480327184001608"><ele>98.25</ele><time>2026-04-10T17:11:01Z</time></trkpt><trkpt lat="39.573445655390024" lon="8.4804511622766"><ele>98.5</ele><time>2026-04-10T17:11:02Z</time></trkpt><trkpt lat="39.573343906845395" lon="8.480553903353274"><ele>98.75</ele><time>2026-04-10T17:11:03Z</time></trkpt><trkpt lat="39.573223901050156" lon="8.480640052351095"><ele>99.0</ele><time>2026-04-10T17:11:04Z</time></trkpt><trkpt lat="39.573087356164926" lon="8.480736620719863"><ele>99.0</ele><time>2026-04-10T17:11:05Z</time></trkpt><trkpt lat="39.572938268455474" lon="8.480855845106396"><ele>99.0</ele><time>2026-04-10T17:11:06Z</time></trkpt><trkpt lat="39.57278226955992" lon="8.480998011006278"><ele>99.0</ele><time>2026-04-10T17:11:07Z</time></trkpt><trkpt lat="39.57262507518207" lon="8.481135962639755"><ele>100.66666666666666</ele><time>2026-04-10T17:11:08Z</time></trkpt><trkpt lat="39.57248489684957" lon="8.481267336018565"><ele>102.33333333333333</ele><time>2026-04-10T17:11:09Z</time></trkpt><trkpt lat="39.57236153679064" lon="8.481388617488708"><ele>104.0</ele><time>2026-04-10T17:11:10Z</time></trkpt><trkpt lat="39.572256150446975" lon="8.48149635895347"><ele>104.0</ele><time>2026-04-10T17:11:11Z</time></trkpt><trkpt lat="39.57217725061008" lon="8.481612188917012"><ele>104.0</ele><time>2026-04-10T17:11:12Z</time></trkpt><trkpt lat="39.57212918814287" lon="8.481714661871946"><ele>104.0</ele><time>2026-04-10T17:11:13Z</time></trkpt><trkpt lat="39.57213110452402" lon="8.481847967558311"><ele>104.0</ele><time>2026-04-10T17:11:14Z</time></trkpt><trkpt lat="39.57210163319544" lon="8.48200157228662"><ele>104.0</ele><time>2026-04-10T17:11:15Z</time></trkpt><trkpt lat="39.57207796880701" lon="8.482194026023404"><ele>100.66666666666666</ele><time>2026-04-10T17:11:16Z</time></trkpt><trkpt lat="39.572029141057016" lon="8.482390131452831"><ele>97.33333333333333</ele><time>2026-04-10T17:11:17Z</time></trkpt><trkpt lat="39.571957510486094" lon="8.482591751730675"><ele>94.0</ele><time>2026-04-10T17:11:18Z</time></trkpt><trkpt lat="39.571877121204" lon="8.482794352139265"><ele>102.66666666666666</ele><time>2026-04-10T17:11:19Z</time></trkpt><trkpt lat="39.57180023327493" lon="8.482992308558112"><ele>111.33333333333333</ele><time>2026-04-10T17:11:20Z</time></trkpt><trkpt lat="39.57175046688748" lon="8.48318006556575"><ele>120.0</ele><time>2026-04-10T17:11:21Z</time></trkpt><trkpt lat="39.57171133934784" lon="8.483349033270553"><ele>120.0</ele><time>2026-04-10T17:11:22Z</time></trkpt><trkpt lat="39.57168438670347" lon="8.483498448921173"><ele>120.0</ele><time>2026-04-10T17:11:23Z</time></trkpt><trkpt lat="39.57167673261074" lon="8.483615497669676"><ele>120.0</ele><time>2026-04-10T17:11:24Z</time></trkpt><trkpt lat="39.57170192671253" lon="8.48372144568466"><ele>120.0</ele><time>2026-04-10T17:11:25Z</time></trkpt><trkpt lat="39.57180019173593" lon="8.483802279394366"><ele>120.0</ele><time>2026-04-10T17:11:26Z</time></trkpt><trkpt lat="39.571898822897545" lon="8.483898307923548"><ele>121.25</ele><time>2026-04-10T17:11:27Z</time></trkpt><trkpt lat="39.571957991635486" lon="8.484026057263877"><ele>122.5</ele><time>2026-04-10T17:11:28Z</time></trkpt><trkpt lat="39.57200205141852" lon="8.48414033187651"><ele>123.75</ele><time>2026-04-10T17:11:29Z</time></trkpt><trkpt lat="39.571992902407814" lon="8.484280708686999"><ele>125.0</ele><time>2026-04-10T17:11:30Z</time></trkpt><trkpt lat="39.57199286751752" lon="8.484447808528918"><ele>124.66666666666666</ele><time>2026-04-10T17:11:31Z</time></trkpt><trkpt lat="39.57196994567579" lon="8.484626455130117"><ele>124.33333333333334</ele><time>2026-04-10T17:11:32Z</time></trkpt><trkpt lat="39.57192726443303" lon="8.48481091041379"><ele>124.0</ele><time>2026-04-10T17:11:33Z</time></trkpt><trkpt lat="39.571852554280746" lon="8.48502042653403"><ele>124.0</ele><time>2026-04-10T17:11:34Z</time></trkpt><trkpt lat="39.571762266208324" lon="8.485236774592757"><ele>124.0</ele><time>2026-04-10T17:11:35Z</time></trkpt><trkpt lat="39.5716621505662" lon="8.48546111122"><ele>124.0</ele><time>2026-04-10T17:11:36Z</time></trkpt><trkpt lat="39.57155511657598" lon="8.485699862612055"><ele>120.66666666666667</ele><time>2026-04-10T17:11:37Z</time></trkpt><trkpt lat="39.571457179233725" lon="8.485941482834445"><ele>117.33333333333334</ele><time>2026-04-10T17:11:38Z</time></trkpt><trkpt lat="39.57137043970809" lon="8.486171230942936"><ele>114.0</ele><time>2026-04-10T17:11:39Z</time></trkpt><trkpt lat="39.57130590230535" lon="8.486380429142784"><ele>111.33333333333334</ele><time>2026-04-10T17:11:40Z</time></trkpt><trkpt lat="39.57127959119251" lon="8.486590485086762"><ele>108.66666666666667</ele><time>2026-04-10T17:11:41Z</time></trkpt><trkpt lat="39.57122523590641" lon="8.486796161309039"><ele>106.0</ele><time>2026-04-10T17:11:42Z</time></trkpt><trkpt lat="39.57119255391747" lon="8.487017369971555"><ele>108.66666666666667</ele><time>2026-04-10T17:11:43Z</time></trkpt><trkpt lat="39.57118365672515" lon="8.487235766825275"><ele>111.33333333333334</ele><time>2026-04-10T17:11:44Z</time></trkpt><trkpt lat="39.57118260885397" lon="8.487454690680803"><ele>114.0</ele><time>2026-04-10T17:11:45Z</time></trkpt><trkpt lat="39.571185265524115" lon="8.487684230732386"><ele>114.0</ele><time>2026-04-10T17:11:46Z</time></trkpt><trkpt lat="39.571192042459565" lon="8.487897116297876"><ele>114.0</ele><time>2026-04-10T17:11:47Z</time></trkpt><trkpt lat="39.57119882287873" lon="8.488079183179995"><ele>114.0</ele><time>2026-04-10T17:11:48Z</time></trkpt><trkpt lat="39.57120063032085" lon="8.488248645430476"><ele>114.0</ele><time>2026-04-10T17:11:49Z</time></trkpt><trkpt lat="39.57118827988224" lon="8.488400852176737"><ele>114.0</ele><time>2026-04-10T17:11:50Z</time></trkpt><trkpt lat="39.57115814012983" lon="8.48854598991844"><ele>114.0</ele><time>2026-04-10T17:11:51Z</time></trkpt><trkpt lat="39.571124460538144" lon="8.488712264394472"><ele>114.0</ele><time>2026-04-10T17:11:52Z</time></trkpt><trkpt lat="39.57109013246455" lon="8.488894463953375"><ele>114.0</ele><time>2026-04-10T17:11:53Z</time></trkpt><trkpt lat="39.571066318460495" lon="8.489062709093307"><ele>114.6</ele><time>2026-04-10T17:11:54Z</time></trkpt><trkpt lat="39.57106216518519" lon="8.489218057106592"><ele>115.2</ele><time>2026-04-10T17:11:55Z</time></trkpt><trkpt lat="39.57109123262504" lon="8.489353756269583"><ele>115.79999999999998</ele><time>2026-04-10T17:11:56Z</time></trkpt><trkpt lat="39.57112510042692" lon="8.489464069127495"><ele>116.39999999999999</ele><time>2026-04-10T17:11:57Z</time></trkpt><trkpt lat="39.57118252768838" lon="8.489553139132667"><ele>117.0</ele><time>2026-04-10T17:11:58Z</time></trkpt><trkpt lat="39.57126828197274" lon="8.489625521428927"><ele>121.25</ele><time>2026-04-10T17:11:59Z</time></trkpt><trkpt lat="39.57136946336978" lon="8.489670894970265"><ele>125.5</ele><time>2026-04-10T17:12:00Z</time></trkpt><trkpt lat="39.57148990460837" lon="8.489686526563974"><ele>129.75</ele><time>2026-04-10T17:12:01Z</time></trkpt><trkpt lat="39.57163471618426" lon="8.489661642498595"><ele>134.0</ele><time>2026-04-10T17:12:02Z</time></trkpt><trkpt lat="39.571751445251564" lon="8.48963969144922"><ele>134.0</ele><time>2026-04-10T17:12:03Z</time></trkpt><trkpt lat="39.571833693431756" lon="8.489651475521091"><ele>134.0</ele><time>2026-04-10T17:12:04Z</time></trkpt><trkpt lat="39.57186646460501" lon="8.489741534987624"><ele>134.0</ele><time>2026-04-10T17:12:05Z</time></trkpt><trkpt lat="39.57188532894665" lon="8.48983002237295"><ele>134.0</ele><time>2026-04-10T17:12:06Z</time></trkpt><trkpt lat="39.571897793069695" lon="8.489957599182455"><ele>134.0</ele><time>2026-04-10T17:12:07Z</time></trkpt><trkpt lat="39.571894991619764" lon="8.490119887980416"><ele>134.0</ele><time>2026-04-10T17:12:08Z</time></trkpt><trkpt lat="39.57190308044381" lon="8.49027671982714"><ele>134.0</ele><time>2026-04-10T17:12:09Z</time></trkpt><trkpt lat="39.57194434735441" lon="8.490421656193178"><ele>134.0</ele><time>2026-04-10T17:12:10Z</time></trkpt><trkpt lat="39.5719899488479" lon="8.490564992332764"><ele>134.0</ele><time>2026-04-10T17:12:11Z</time></trkpt><trkpt lat="39.57205580019712" lon="8.490707103140979"><ele>134.75</ele><time>2026-04-10T17:12:12Z</time></trkpt><trkpt lat="39.572090315713595" lon="8.490876183263682"><ele>135.5</ele><time>2026-04-10T17:12:13Z</time></trkpt><trkpt lat="39.57212944896953" lon="8.491034071255466"><ele>136.25</ele><time>2026-04-10T17:12:14Z</time></trkpt><trkpt lat="39.57215499006357" lon="8.491189045841423"><ele>137.0</ele><time>2026-04-10T17:12:15Z</time></trkpt><trkpt lat="39.57216160398475" lon="8.491336381112784"><ele>137.0</ele><time>2026-04-10T17:12:16Z</time></trkpt><trkpt lat="39.572159022874466" lon="8.491482770218738"><ele>137.0</ele><time>2026-04-10T17:12:17Z</time></trkpt><trkpt lat="39.57215767615292" lon="8.491616815409094"><ele>137.0</ele><time>2026-04-10T17:12:18Z</time></trkpt><trkpt lat="39.572166923209174" lon="8.491735938883949"><ele>137.0</ele><time>2026-04-10T17:12:19Z</time></trkpt><trkpt lat="39.57219595787806" lon="8.491843443817874"><ele>137.0</ele><time>2026-04-10T17:12:20Z</time></trkpt><trkpt lat="39.57227763176291" lon="8.491916498471914"><ele>137.0</ele><time>2026-04-10T17:12:21Z</time></trkpt><trkpt lat="39.572354323186076" lon="8.49194515787234"><ele>137.0</ele><time>2026-04-10T17:12:22Z</time></trkpt><trkpt lat="39.57244455930746" lon="8.491930862856178"><ele>137.0</ele><time>2026-04-10T17:12:23Z</time></trkpt><trkpt lat="39.57255126088775" lon="8.491916947672761"><ele>137.0</ele><time>2026-04-10T17:12:24Z</time></trkpt><trkpt lat="39.57266093013823" lon="8.49190793884424"><ele>137.0</ele><time>2026-04-10T17:12:25Z</time></trkpt><trkpt lat="39.5727651737911" lon="8.491908987059187"><ele>138.0</ele><time>2026-04-10T17:12:26Z</time></trkpt><trkpt lat="39.57286144201385" lon="8.491917588219001"><ele>139.0</ele><time>2026-04-10T17:12:27Z</time></trkpt><trkpt lat="39.57294521337832" lon="8.491970315865444"><ele>140.0</ele><time>2026-04-10T17:12:28Z</time></trkpt><trkpt lat="39.57302155676224" lon="8.492023700663504"><ele>141.0</ele><time>2026-04-10T17:12:29Z</time></trkpt><trkpt lat="39.57308884504711" lon="8.492095507480387"><ele>142.0</ele><time>2026-04-10T17:12:30Z</time></trkpt><trkpt lat="39.57315436801562" lon="8.49217969030638"><ele>142.0</ele><time>2026-04-10T17:12:31Z</time></trkpt><trkpt lat="39.57320985998367" lon="8.492287435132999"><ele>142.0</ele><time>2026-04-10T17:12:32Z</time></trkpt><trkpt lat="39.57323722461806" lon="8.492411255441391"><ele>142.0</ele><time>2026-04-10T17:12:33Z</time></trkpt><trkpt lat="39.573259936280586" lon="8.49255044495489"><ele>142.0</ele><time>2026-04-10T17:12:34Z</time></trkpt><trkpt lat="39.57326611343454" lon="8.492685548407117"><ele>142.0</ele><time>2026-04-10T17:12:35Z</time></trkpt><trkpt lat="39.57324202966649" lon="8.492805968796283"><ele>142.79999999999998</ele><time>2026-04-10T17:12:36Z</time></trkpt><trkpt lat="39.57320684847746" lon="8.492934888131948"><ele>143.6</ele><time>2026-04-10T17:12:37Z</time></trkpt><trkpt lat="39.573165264323485" lon="8.493076692014096"><ele>144.39999999999998</ele><time>2026-04-10T17:12:38Z</time></trkpt><trkpt lat="39.57311877624886" lon="8.493207317332589"><ele>145.2</ele><time>2026-04-10T17:12:39Z</time></trkpt><trkpt lat="39.57306817236682" lon="8.493332635857435"><ele>146.0</ele><time>2026-04-10T17:12:40Z</time></trkpt><trkpt lat="39.57301755935029" lon="8.493462218652152"><ele>146.0</ele><time>2026-04-10T17:12:41Z</time></trkpt><trkpt lat="39.572995563200735" lon="8.493600016059851"><ele>146.0</ele><time>2026-04-10T17:12:42Z</time></trkpt><trkpt lat="39.572967982650844" lon="8.49373191781615"><ele>146.0</ele><time>2026-04-10T17:12:43Z</time></trkpt><trkpt lat="39.572928963212874" lon="8.493856982513456"><ele>146.0</ele><time>2026-04-10T17:12:44Z</time></trkpt><trkpt lat="39.57289730824542" lon="8.493976763626021"><ele>146.0</ele><time>2026-04-10T17:12:45Z</time></trkpt><trkpt lat="39.572866747333926" lon="8.494106086722292"><ele>148.0</ele><time>2026-04-10T17:12:46Z</time></trkpt><trkpt lat="39.57287669298194" lon="8.49423812697537"><ele>150.0</ele><time>2026-04-10T17:12:47Z</time></trkpt><trkpt lat="39.5728881667098" lon="8.494362939900343"><ele>152.0</ele><time>2026-04-10T17:12:48Z</time></trkpt><trkpt lat="39.57292773228189" lon="8.494477379410522"><ele>154.0</ele><time>2026-04-10T17:12:49Z</time></trkpt><trkpt lat="39.57298218130364" lon="8.494561384585738"><ele>156.0</ele><time>2026-04-10T17:12:50Z</time></trkpt><trkpt lat="39.573053395325076" lon="8.494606481684823"><ele>156.0</ele><time>2026-04-10T17:12:51Z</time></trkpt><trkpt lat="39.573142491481995" lon="8.494632408623975"><ele>156.0</ele><time>2026-04-10T17:12:52Z</time></trkpt><trkpt lat="39.573229753666695" lon="8.494603805749206"><ele>156.0</ele><time>2026-04-10T17:12:53Z</time></trkpt><trkpt lat="39.573333187667494" lon="8.494536023881864"><ele>156.0</ele><time>2026-04-10T17:12:54Z</time></trkpt><trkpt lat="39.5734507772142" lon="8.494474397446306"><ele>156.0</ele><time>2026-04-10T17:12:55Z</time></trkpt><trkpt lat="39.57356197063911" lon="8.49443215471668"><ele>156.0</ele><time>2026-04-10T17:12:56Z</time></trkpt><trkpt lat="39.57367983538271" lon="8.49440395637359"><ele>156.0</ele><time>2026-04-10T17:12:57Z</time></trkpt><trkpt lat="39.57378556928586" lon="8.494441651317732"><ele>156.0</ele><time>2026-04-10T17:12:58Z</time></trkpt><trkpt lat="39.57385793109226" lon="8.494499541310784"><ele>156.0</ele><time>2026-04-10T17:12:59Z</time></trkpt><trkpt lat="39.57388880937185" lon="8.494606210160315"><ele>156.0</ele><time>2026-04-10T17:13:00Z</time></trkpt><trkpt lat="39.57393070144471" lon="8.494753170578791"><ele>159.0</ele><time>2026-04-10T17:13:01Z</time></trkpt><trkpt lat="39.573982732318576" lon="8.494945211441891"><ele>162.0</ele><time>2026-04-10T17:13:02Z</time></trkpt><trkpt lat="39.57403511725805" lon="8.495147090944776"><ele>165.0</ele><time>2026-04-10T17:13:03Z</time></trkpt><trkpt lat="39.574085285967435" lon="8.49532593924803"><ele>166.6</ele><time>2026-04-10T17:13:04Z</time></trkpt><trkpt lat="39.57411986853116" lon="8.495483840057917"><ele>168.2</ele><time>2026-04-10T17:13:05Z</time></trkpt><trkpt lat="39.5741324864953" lon="8.495627786428308"><ele>169.8</ele><time>2026-04-10T17:13:06Z</time></trkpt><trkpt lat="39.57411409064845" lon="8.495750273141883"><ele>171.4</ele><time>2026-04-10T17:13:07Z</time></trkpt><trkpt lat="39.57407124939762" lon="8.495874248053847"><ele>173.0</ele><time>2026-04-10T17:13:08Z</time></trkpt><trkpt lat="39.573998075105486" lon="8.49600929169442"><ele>173.0</ele><time>2026-04-10T17:13:09Z</time></trkpt><trkpt lat="39.57394242742421" lon="8.496192248139433"><ele>173.0</ele><time>2026-04-10T17:13:10Z</time></trkpt><trkpt lat="39.57387538332001" lon="8.496375424144444"><ele>173.0</ele><time>2026-04-10T17:13:11Z</time></trkpt><trkpt lat="39.57379814408573" lon="8.496514069586942"><ele>173.0</ele><time>2026-04-10T17:13:12Z</time></trkpt><trkpt lat="39.573713405608906" lon="8.496630675727472"><ele>179.5</ele><time>2026-04-10T17:13:13Z</time></trkpt><trkpt lat="39.57361885626921" lon="8.496745727455"><ele>186.0</ele><time>2026-04-10T17:13:14Z</time></trkpt><trkpt lat="39.57352464953866" lon="8.496883619700794"><ele>192.5</ele><time>2026-04-10T17:13:15Z</time></trkpt><trkpt lat="39.573466828063104" lon="8.497019456069625"><ele>199.0</ele><time>2026-04-10T17:13:16Z</time></trkpt><trkpt lat="39.573405715705924" lon="8.497119979221335"><ele>199.0</ele><time>2026-04-10T17:13:17Z</time></trkpt><trkpt lat="39.57338279972059" lon="8.497235499065479"><ele>199.0</ele><time>2026-04-10T17:13:18Z</time></trkpt><trkpt lat="39.57338582724603" lon="8.497342430640844"><ele>199.0</ele><time>2026-04-10T17:13:19Z</time></trkpt><trkpt lat="39.57347527789542" lon="8.497445948362609"><ele>199.0</ele><time>2026-04-10T17:13:20Z</time></trkpt><trkpt lat="39.573575838106215" lon="8.49755948569635"><ele>199.0</ele><time>2026-04-10T17:13:21Z</time></trkpt><trkpt lat="39.57365030790966" lon="8.497683464409347"><ele>200.0</ele><time>2026-04-10T17:13:22Z</time></trkpt><trkpt lat="39.57370666774051" lon="8.497785422844366"><ele>201.0</ele><time>2026-04-10T17:13:23Z</time></trkpt><trkpt lat="39.5737269621628" lon="8.497879366226083"><ele>202.0</ele><time>2026-04-10T17:13:24Z</time></trkpt><trkpt lat="39.57370437936128" lon="8.497978863931879"><ele>203.0</ele><time>2026-04-10T17:13:25Z</time></trkpt><trkpt lat="39.57367675787117" lon="8.498112774235205"><ele>204.0</ele><time>2026-04-10T17:13:26Z</time></trkpt><trkpt lat="39.57362847702779" lon="8.498244527401834"><ele>204.0</ele><time>2026-04-10T17:13:27Z</time></trkpt><trkpt lat="39.57356449006767" lon="8.498361836743019"><ele>204.0</ele><time>2026-04-10T17:13:28Z</time></trkpt><trkpt lat="39.57352613131067" lon="8.498465847793984"><ele>204.0</ele><time>2026-04-10T17:13:29Z</time></trkpt><trkpt lat="39.57352865842774" lon="8.498583165099888"><ele>204.0</ele><time>2026-04-10T17:13:30Z</time></trkpt><trkpt lat="39.57358163392004" lon="8.498703118507581"><ele>204.0</ele><time>2026-04-10T17:13:31Z</time></trkpt><trkpt lat="39.57367438735375" lon="8.498794897928295"><ele>204.6</ele><time>2026-04-10T17:13:32Z</time></trkpt><trkpt lat="39.57372261760321" lon="8.498894281473381"><ele>205.2</ele><time>2026-04-10T17:13:33Z</time></trkpt><trkpt lat="39.5737310477478" lon="8.498979713321289"><ele>205.79999999999998</ele><time>2026-04-10T17:13:34Z</time></trkpt><trkpt lat="39.573693185150574" lon="8.49908407328275"><ele>206.39999999999998</ele><time>2026-04-10T17:13:35Z</time></trkpt><trkpt lat="39.57364540680599" lon="8.49922557302551"><ele>207.0</ele><time>2026-04-10T17:13:36Z</time></trkpt><trkpt lat="39.57357192493275" lon="8.499351255630359"><ele>207.0</ele><time>2026-04-10T17:13:37Z</time></trkpt><trkpt lat="39.57347159733443" lon="8.499490857662986"><ele>207.0</ele><time>2026-04-10T17:13:38Z</time></trkpt><trkpt lat="39.57336951127158" lon="8.499628850852991"><ele>207.0</ele><time>2026-04-10T17:13:39Z</time></trkpt><trkpt lat="39.57326524408858" lon="8.499727706746425"><ele>207.0</ele><time>2026-04-10T17:13:40Z</time></trkpt><trkpt lat="39.57315502211067" lon="8.499798174874899"><ele>205.39999999999998</ele><time>2026-04-10T17:13:41Z</time></trkpt><trkpt lat="39.57306462182941" lon="8.499878546922345"><ele>203.79999999999998</ele><time>2026-04-10T17:13:42Z</time></trkpt><trkpt lat="39.57300475810338" lon="8.49997369045995"><ele>202.2</ele><time>2026-04-10T17:13:43Z</time></trkpt><trkpt lat="39.57299196012614" lon="8.500104205316129"><ele>200.6</ele><time>2026-04-10T17:13:44Z</time></trkpt><trkpt lat="39.57301024179569" lon="8.50023526367084"><ele>199.0</ele><time>2026-04-10T17:13:45Z</time></trkpt><trkpt lat="39.57307203533926" lon="8.500352276998603"><ele>202.0</ele><time>2026-04-10T17:13:46Z</time></trkpt><trkpt lat="39.57315012831082" lon="8.500488715696074"><ele>205.0</ele><time>2026-04-10T17:13:47Z</time></trkpt><trkpt lat="39.57324342810917" lon="8.50062184203877"><ele>208.0</ele><time>2026-04-10T17:13:48Z</time></trkpt><trkpt lat="39.57334760519374" lon="8.500721056507325"><ele>211.0</ele><time>2026-04-10T17:13:49Z</time></trkpt><trkpt lat="39.57341412341139" lon="8.500822553902514"><ele>210.99999999999997</ele><time>2026-04-10T17:13:50Z</time></trkpt><trkpt lat="39.573443639543186" lon="8.500922386510553"><ele>211.0</ele><time>2026-04-10T17:13:51Z</time></trkpt><trkpt lat="39.57343363432112" lon="8.501045815034104"><ele>211.0</ele><time>2026-04-10T17:13:52Z</time></trkpt><trkpt lat="39.57345923140174" lon="8.501165847751901"><ele>211.0</ele><time>2026-04-10T17:13:53Z</time></trkpt><trkpt lat="39.57349224804982" lon="8.501254055228866"><ele>210.99999999999997</ele><time>2026-04-10T17:13:54Z</time></trkpt><trkpt lat="39.57359092404234" lon="8.501272571318983"><ele>211.0</ele><time>2026-04-10T17:13:55Z</time></trkpt><trkpt lat="39.573693619762764" lon="8.501277793335001"><ele>207.5</ele><time>2026-04-10T17:13:56Z</time></trkpt><trkpt lat="39.57380944273161" lon="8.501248471902596"><ele>204.0</ele><time>2026-04-10T17:13:57Z</time></trkpt><trkpt lat="39.5739285922835" lon="8.501186639284484"><ele>200.5</ele><time>2026-04-10T17:13:58Z</time></trkpt><trkpt lat="39.57403324317319" lon="8.501106751071559"><ele>197.0</ele><time>2026-04-10T17:13:59Z</time></trkpt><trkpt lat="39.574128864440375" lon="8.501033255249522"><ele>197.0</ele><time>2026-04-10T17:14:00Z</time></trkpt><trkpt lat="39.57422577839341" lon="8.501012853518407"><ele>197.0</ele><time>2026-04-10T17:14:01Z</time></trkpt><trkpt lat="39.57430723988469" lon="8.501075961782357"><ele>197.0</ele><time>2026-04-10T17:14:02Z</time></trkpt><trkpt lat="39.57434998719493" lon="8.501145635060961"><ele>197.0</ele><time>2026-04-10T17:14:03Z</time></trkpt><trkpt lat="39.574304553787115" lon="8.501287198433552"><ele>197.0</ele><time>2026-04-10T17:14:05Z</time></trkpt><trkpt lat="39.57425716317227" lon="8.501368753823416"><ele>199.5</ele><time>2026-04-10T17:14:06Z</time></trkpt><trkpt lat="39.574180345280716" lon="8.501492299224916"><ele>202.0</ele><time>2026-04-10T17:14:07Z</time></trkpt><trkpt lat="39.57409659816533" lon="8.50163377897131"><ele>204.5</ele><time>2026-04-10T17:14:08Z</time></trkpt><trkpt lat="39.574001889468605" lon="8.501790052972119"><ele>207.0</ele><time>2026-04-10T17:14:09Z</time></trkpt><trkpt lat="39.57390004017578" lon="8.501956388785986"><ele>207.33333333333331</ele><time>2026-04-10T17:14:10Z</time></trkpt><trkpt lat="39.573797729008994" lon="8.502124831902137"><ele>207.66666666666666</ele><time>2026-04-10T17:14:11Z</time></trkpt><trkpt lat="39.573720989320606" lon="8.502306227458893"><ele>208.0</ele><time>2026-04-10T17:14:12Z</time></trkpt><trkpt lat="39.57364513393008" lon="8.502473726632475"><ele>215.25</ele><time>2026-04-10T17:14:13Z</time></trkpt><trkpt lat="39.57359917577282" lon="8.50264274133278"><ele>222.5</ele><time>2026-04-10T17:14:14Z</time></trkpt><trkpt lat="39.57357395704943" lon="8.50279539197652"><ele>229.75</ele><time>2026-04-10T17:14:15Z</time></trkpt><trkpt lat="39.573586321554814" lon="8.502922326605493"><ele>237.0</ele><time>2026-04-10T17:14:16Z</time></trkpt><trkpt lat="39.57362983440172" lon="8.5030297277601"><ele>234.39999999999998</ele><time>2026-04-10T17:14:17Z</time></trkpt><trkpt lat="39.57371115923099" lon="8.503111998010285"><ele>231.79999999999998</ele><time>2026-04-10T17:14:18Z</time></trkpt><trkpt lat="39.57382110328171" lon="8.503145397636594"><ele>229.2</ele><time>2026-04-10T17:14:19Z</time></trkpt><trkpt lat="39.573937017485925" lon="8.503175467768793"><ele>226.6</ele><time>2026-04-10T17:14:20Z</time></trkpt><trkpt lat="39.573996992105094" lon="8.503289379969699"><ele>224.0</ele><time>2026-04-10T17:14:21Z</time></trkpt><trkpt lat="39.57405246757124" lon="8.503420244242877"><ele>224.0</ele><time>2026-04-10T17:14:22Z</time></trkpt><trkpt lat="39.574110297060635" lon="8.50352139729019"><ele>224.0</ele><time>2026-04-10T17:14:23Z</time></trkpt><trkpt lat="39.574155222698074" lon="8.503599979417857"><ele>224.0</ele><time>2026-04-10T17:14:24Z</time></trkpt><trkpt lat="39.57441050859003" lon="8.50344604611563"><ele>223.5</ele><time>2026-04-10T17:14:26Z</time></trkpt><trkpt lat="39.574535068096516" lon="8.503313890861847"><ele>223.0</ele><time>2026-04-10T17:14:27Z</time></trkpt><trkpt lat="39.57466160275303" lon="8.50322119113209"><ele>222.5</ele><time>2026-04-10T17:14:28Z</time></trkpt><trkpt lat="39.57478793362951" lon="8.50319789063295"><ele>222.0</ele><time>2026-04-10T17:14:29Z</time></trkpt><trkpt lat="39.57492915098361" lon="8.503220636656794"><ele>222.0</ele><time>2026-04-10T17:14:30Z</time></trkpt><trkpt lat="39.57508676890792" lon="8.503284473364454"><ele>222.0</ele><time>2026-04-10T17:14:31Z</time></trkpt><trkpt lat="39.57522221465206" lon="8.503368683125023"><ele>222.0</ele><time>2026-04-10T17:14:32Z</time></trkpt><trkpt lat="39.57535351596989" lon="8.50348089700058"><ele>221.6</ele><time>2026-04-10T17:14:33Z</time></trkpt><trkpt lat="39.57547439601769" lon="8.503589310722289"><ele>221.2</ele><time>2026-04-10T17:14:34Z</time></trkpt><trkpt lat="39.57556832616534" lon="8.503675374327637"><ele>220.8</ele><time>2026-04-10T17:14:35Z</time></trkpt><trkpt lat="39.57560971842703" lon="8.50376144413122"><ele>220.4</ele><time>2026-04-10T17:14:36Z</time></trkpt><trkpt lat="39.57561241778122" lon="8.503869426538872"><ele>220.0</ele><time>2026-04-10T17:14:37Z</time></trkpt><trkpt lat="39.575585461126714" lon="8.504000631888303"><ele>220.0</ele><time>2026-04-10T17:14:38Z</time></trkpt><trkpt lat="39.575525248575865" lon="8.504151809531042"><ele>220.0</ele><time>2026-04-10T17:14:39Z</time></trkpt><trkpt lat="39.5754478209745" lon="8.504298314487883"><ele>220.0</ele><time>2026-04-10T17:14:40Z</time></trkpt><trkpt lat="39.57533977109718" lon="8.50444078202595"><ele>220.0</ele><time>2026-04-10T17:14:41Z</time></trkpt><trkpt lat="39.57520910570318" lon="8.504586781939828"><ele>223.33333333333331</ele><time>2026-04-10T17:14:42Z</time></trkpt><trkpt lat="39.57507211307473" lon="8.504713488313733"><ele>226.66666666666669</ele><time>2026-04-10T17:14:43Z</time></trkpt><trkpt lat="39.57496358945715" lon="8.504839876043217"><ele>230.0</ele><time>2026-04-10T17:14:44Z</time></trkpt><trkpt lat="39.5748849840216" lon="8.505006279241558"><ele>230.0</ele><time>2026-04-10T17:14:45Z</time></trkpt><trkpt lat="39.57481440064298" lon="8.505201283755628"><ele>230.0</ele><time>2026-04-10T17:14:46Z</time></trkpt><trkpt lat="39.574736513718264" lon="8.505348329286042"><ele>230.0</ele><time>2026-04-10T17:14:47Z</time></trkpt><trkpt lat="39.574644425607325" lon="8.505441884168857"><ele>230.0</ele><time>2026-04-10T17:14:48Z</time></trkpt><trkpt lat="39.57453315399133" lon="8.505504204491537"><ele>233.6</ele><time>2026-04-10T17:14:49Z</time></trkpt><trkpt lat="39.57441655559871" lon="8.505546925531634"><ele>237.2</ele><time>2026-04-10T17:14:50Z</time></trkpt><trkpt lat="39.57433310068824" lon="8.505609174537318"><ele>240.8</ele><time>2026-04-10T17:14:51Z</time></trkpt><trkpt lat="39.57429298198708" lon="8.505716926032274"><ele>244.4</ele><time>2026-04-10T17:14:52Z</time></trkpt><trkpt lat="39.57426709007924" lon="8.505885764638004"><ele>248.0</ele><time>2026-04-10T17:14:53Z</time></trkpt><trkpt lat="39.57421953533915" lon="8.506081096124642"><ele>245.0</ele><time>2026-04-10T17:14:54Z</time></trkpt><trkpt lat="39.57415105141538" lon="8.506275458857797"><ele>242.0</ele><time>2026-04-10T17:14:55Z</time></trkpt><trkpt lat="39.57408544493159" lon="8.506431510746582"><ele>239.0</ele><time>2026-04-10T17:14:56Z</time></trkpt><trkpt lat="39.57401564416142" lon="8.506551816846432"><ele>236.0</ele><time>2026-04-10T17:14:57Z</time></trkpt><trkpt lat="39.57393119184047" lon="8.506637544140947"><ele>236.0</ele><time>2026-04-10T17:14:58Z</time></trkpt><trkpt lat="39.57387324927828" lon="8.506723437384467"><ele>236.0</ele><time>2026-04-10T17:14:59Z</time></trkpt><trkpt lat="39.573851949383204" lon="8.506856645637928"><ele>236.0</ele><time>2026-04-10T17:15:00Z</time></trkpt><trkpt lat="39.5738340775069" lon="8.507049385281972"><ele>236.0</ele><time>2026-04-10T17:15:01Z</time></trkpt><trkpt lat="39.57380141539955" lon="8.507230743509314"><ele>236.0</ele><time>2026-04-10T17:15:02Z</time></trkpt><trkpt lat="39.57378419173861" lon="8.50737040970612"><ele>236.0</ele><time>2026-04-10T17:15:03Z</time></trkpt><trkpt lat="39.57380526855436" lon="8.507500366814083"><ele>236.0</ele><time>2026-04-10T17:15:04Z</time></trkpt><trkpt lat="39.57386397738601" lon="8.507645076629023"><ele>236.0</ele><time>2026-04-10T17:15:05Z</time></trkpt><trkpt lat="39.57391083708069" lon="8.507829028994756"><ele>237.33333333333334</ele><time>2026-04-10T17:15:06Z</time></trkpt><trkpt lat="39.57392454520835" lon="8.508043222165027"><ele>238.66666666666669</ele><time>2026-04-10T17:15:07Z</time></trkpt><trkpt lat="39.573914253846326" lon="8.508277462145635"><ele>240.0</ele><time>2026-04-10T17:15:08Z</time></trkpt><trkpt lat="39.57389916292002" lon="8.508524661197322"><ele>240.0</ele><time>2026-04-10T17:15:09Z</time></trkpt><trkpt lat="39.573873834227065" lon="8.50877712299225"><ele>240.0</ele><time>2026-04-10T17:15:10Z</time></trkpt><trkpt lat="39.573855987078566" lon="8.509021853253367"><ele>240.0</ele><time>2026-04-10T17:15:11Z</time></trkpt><trkpt lat="39.573854089032" lon="8.509240478320775"><ele>240.0</ele><time>2026-04-10T17:15:12Z</time></trkpt><trkpt lat="39.57386007480598" lon="8.509429785712161"><ele>240.0</ele><time>2026-04-10T17:15:13Z</time></trkpt><trkpt lat="39.57385319782131" lon="8.509597116990829"><ele>240.0</ele><time>2026-04-10T17:15:14Z</time></trkpt><trkpt lat="39.57381835544524" lon="8.509764868230588"><ele>240.0</ele><time>2026-04-10T17:15:15Z</time></trkpt><trkpt lat="39.57374846660382" lon="8.509939625308263"><ele>246.0</ele><time>2026-04-10T17:15:16Z</time></trkpt><trkpt lat="39.57364875072072" lon="8.510130573578314"><ele>252.0</ele><time>2026-04-10T17:15:17Z</time></trkpt><trkpt lat="39.573532894637054" lon="8.51032086247811"><ele>258.0</ele><time>2026-04-10T17:15:18Z</time></trkpt><trkpt lat="39.57341076921259" lon="8.510495450547616"><ele>258.0</ele><time>2026-04-10T17:15:19Z</time></trkpt><trkpt lat="39.57327856419183" lon="8.510655935070943"><ele>258.0</ele><time>2026-04-10T17:15:20Z</time></trkpt><trkpt lat="39.57314469840183" lon="8.510780716050828"><ele>258.0</ele><time>2026-04-10T17:15:21Z</time></trkpt><trkpt lat="39.573014999502135" lon="8.510868893162892"><ele>258.0</ele><time>2026-04-10T17:15:22Z</time></trkpt><trkpt lat="39.572901241139434" lon="8.510929345632402"><ele>258.0</ele><time>2026-04-10T17:15:23Z</time></trkpt><trkpt lat="39.572820595074894" lon="8.511001968743871"><ele>258.0</ele><time>2026-04-10T17:15:24Z</time></trkpt><trkpt lat="39.572771185645216" lon="8.51110010433967"><ele>258.0</ele><time>2026-04-10T17:15:25Z</time></trkpt><trkpt lat="39.572769750495446" lon="8.511216705331785"><ele>258.0</ele><time>2026-04-10T17:15:26Z</time></trkpt><trkpt lat="39.572795688357346" lon="8.51133682562485"><ele>258.75</ele><time>2026-04-10T17:15:27Z</time></trkpt><trkpt lat="39.57286058384321" lon="8.511401363543216"><ele>259.5</ele><time>2026-04-10T17:15:28Z</time></trkpt><trkpt lat="39.57295109569237" lon="8.51151618450603"><ele>260.25</ele><time>2026-04-10T17:15:29Z</time></trkpt><trkpt lat="39.57307584377848" lon="8.511620143032848"><ele>261.0</ele><time>2026-04-10T17:15:30Z</time></trkpt><trkpt lat="39.57318972473039" lon="8.511732413928524"><ele>261.0</ele><time>2026-04-10T17:15:31Z</time></trkpt><trkpt lat="39.573280913166016" lon="8.511864261347446"><ele>261.0</ele><time>2026-04-10T17:15:32Z</time></trkpt><trkpt lat="39.573345417200976" lon="8.512035993798296"><ele>261.0</ele><time>2026-04-10T17:15:33Z</time></trkpt><trkpt lat="39.57340714544811" lon="8.512227600392583"><ele>261.0</ele><time>2026-04-10T17:15:34Z</time></trkpt><trkpt lat="39.57349472976251" lon="8.512387209793912"><ele>260.75</ele><time>2026-04-10T17:15:35Z</time></trkpt><trkpt lat="39.573612770668895" lon="8.51250860057367"><ele>260.5</ele><time>2026-04-10T17:15:36Z</time></trkpt><trkpt lat="39.5736916713844" lon="8.51262198181006"><ele>260.25</ele><time>2026-04-10T17:15:37Z</time></trkpt><trkpt lat="39.57373047418324" lon="8.512749200849944"><ele>260.0</ele><time>2026-04-10T17:15:38Z</time></trkpt><trkpt lat="39.57374043764233" lon="8.512926542824944"><ele>260.0</ele><time>2026-04-10T17:15:39Z</time></trkpt><trkpt lat="39.573744724285994" lon="8.513169349110042"><ele>260.0</ele><time>2026-04-10T17:15:40Z</time></trkpt><trkpt lat="39.57375730659762" lon="8.513414064445554"><ele>260.0</ele><time>2026-04-10T17:15:41Z</time></trkpt><trkpt lat="39.57377435645165" lon="8.513617121323097"><ele>262.8</ele><time>2026-04-10T17:15:42Z</time></trkpt><trkpt lat="39.573797338740626" lon="8.513795747186483"><ele>265.6</ele><time>2026-04-10T17:15:43Z</time></trkpt><trkpt lat="39.573834586650904" lon="8.513935581775975"><ele>268.4</ele><time>2026-04-10T17:15:44Z</time></trkpt><trkpt lat="39.573899405486635" lon="8.51402078765637"><ele>271.2</ele><time>2026-04-10T17:15:45Z</time></trkpt><trkpt lat="39.57398827977111" lon="8.514077821380944"><ele>274.0</ele><time>2026-04-10T17:15:46Z</time></trkpt><trkpt lat="39.5741246480079" lon="8.51411716128733"><ele>274.0</ele><time>2026-04-10T17:15:47Z</time></trkpt><trkpt lat="39.574286392094685" lon="8.514164643073615"><ele>274.0</ele><time>2026-04-10T17:15:48Z</time></trkpt><trkpt lat="39.57441547356264" lon="8.514237169030503"><ele>274.0</ele><time>2026-04-10T17:15:49Z</time></trkpt><trkpt lat="39.574517904410534" lon="8.514347501276704"><ele>274.0</ele><time>2026-04-10T17:15:50Z</time></trkpt><trkpt lat="39.574636230429164" lon="8.514508137332857"><ele>274.66666666666663</ele><time>2026-04-10T17:15:51Z</time></trkpt><trkpt lat="39.57476830915861" lon="8.514681537837335"><ele>275.3333333333333</ele><time>2026-04-10T17:15:52Z</time></trkpt><trkpt lat="39.57490599977571" lon="8.514861493119664"><ele>276.0</ele><time>2026-04-10T17:15:53Z</time></trkpt><trkpt lat="39.57503881945099" lon="8.515055960728157"><ele>276.0</ele><time>2026-04-10T17:15:54Z</time></trkpt><trkpt lat="39.57516680214151" lon="8.515263315776963"><ele>276.0</ele><time>2026-04-10T17:15:55Z</time></trkpt><trkpt lat="39.575287090098584" lon="8.515446557086344"><ele>276.0</ele><time>2026-04-10T17:15:56Z</time></trkpt><trkpt lat="39.575390502480474" lon="8.515610996202275"><ele>278.0</ele><time>2026-04-10T17:15:57Z</time></trkpt><trkpt lat="39.57547505620214" lon="8.515777508266655"><ele>280.0</ele><time>2026-04-10T17:15:58Z</time></trkpt><trkpt lat="39.57554184482031" lon="8.515948680101065"><ele>282.0</ele><time>2026-04-10T17:15:59Z</time></trkpt><trkpt lat="39.57559149892158" lon="8.516117325314616"><ele>284.0</ele><time>2026-04-10T17:16:00Z</time></trkpt><trkpt lat="39.57562955117493" lon="8.516267979615874"><ele>284.5</ele><time>2026-04-10T17:16:01Z</time></trkpt><trkpt lat="39.57567428282259" lon="8.516424237773268"><ele>285.0</ele><time>2026-04-10T17:16:02Z</time></trkpt><trkpt lat="39.57573135134258" lon="8.51660393299862"><ele>285.5</ele><time>2026-04-10T17:16:03Z</time></trkpt><trkpt lat="39.57579798005884" lon="8.516798152692441"><ele>286.0</ele><time>2026-04-10T17:16:04Z</time></trkpt><trkpt lat="39.57584834614094" lon="8.516993857526309"><ele>284.0</ele><time>2026-04-10T17:16:05Z</time></trkpt><trkpt lat="39.57587754866627" lon="8.51718894556337"><ele>282.0</ele><time>2026-04-10T17:16:06Z</time></trkpt><trkpt lat="39.57589870206925" lon="8.517355712391227"><ele>280.0</ele><time>2026-04-10T17:16:07Z</time></trkpt><trkpt lat="39.57593437238249" lon="8.517479386802378"><ele>278.0</ele><time>2026-04-10T17:16:08Z</time></trkpt><trkpt lat="39.5759919805981" lon="8.517541387679543"><ele>278.0</ele><time>2026-04-10T17:16:09Z</time></trkpt><trkpt lat="39.57606840105126" lon="8.517558953093577"><ele>278.0</ele><time>2026-04-10T17:16:10Z</time></trkpt><trkpt lat="39.57617575730258" lon="8.517540753545113"><ele>278.0</ele><time>2026-04-10T17:16:11Z</time></trkpt><trkpt lat="39.57632579797136" lon="8.517469443298186"><ele>278.0</ele><time>2026-04-10T17:16:12Z</time></trkpt><trkpt lat="39.576477629618445" lon="8.517391835509407"><ele>278.2</ele><time>2026-04-10T17:16:13Z</time></trkpt><trkpt lat="39.57660991888429" lon="8.51734197256527"><ele>278.4</ele><time>2026-04-10T17:16:14Z</time></trkpt><trkpt lat="39.57670809695974" lon="8.517315058761026"><ele>278.59999999999997</ele><time>2026-04-10T17:16:15Z</time></trkpt><trkpt lat="39.576790059207305" lon="8.517302677415136"><ele>278.8</ele><time>2026-04-10T17:16:16Z</time></trkpt><trkpt lat="39.57690360519425" lon="8.517294135708685"><ele>279.0</ele><time>2026-04-10T17:16:17Z</time></trkpt><trkpt lat="39.57704031374286" lon="8.517281944164404"><ele>281.5</ele><time>2026-04-10T17:16:18Z</time></trkpt><trkpt lat="39.57715084760135" lon="8.51729096394163"><ele>284.0</ele><time>2026-04-10T17:16:19Z</time></trkpt><trkpt lat="39.577257030037906" lon="8.517347660497748"><ele>286.5</ele><time>2026-04-10T17:16:20Z</time></trkpt><trkpt lat="39.57738440668323" lon="8.517437109196138"><ele>289.0</ele><time>2026-04-10T17:16:21Z</time></trkpt><trkpt lat="39.577493160341504" lon="8.517514224564806"><ele>289.0</ele><time>2026-04-10T17:16:22Z</time></trkpt><trkpt lat="39.57756823857886" lon="8.517592391818983"><ele>289.0</ele><time>2026-04-10T17:16:23Z</time></trkpt><trkpt lat="39.577607664696295" lon="8.517697654709696"><ele>289.0</ele><time>2026-04-10T17:16:24Z</time></trkpt><trkpt lat="39.57761148658308" lon="8.517836981914277"><ele>289.0</ele><time>2026-04-10T17:16:25Z</time></trkpt><trkpt lat="39.57760348888417" lon="8.51803728929087"><ele>289.0</ele><time>2026-04-10T17:16:26Z</time></trkpt><trkpt lat="39.577628071231786" lon="8.51828938666584"><ele>285.0</ele><time>2026-04-10T17:16:27Z</time></trkpt><trkpt lat="39.57766996872982" lon="8.51856166005212"><ele>281.0</ele><time>2026-04-10T17:16:28Z</time></trkpt><trkpt lat="39.577704969578846" lon="8.518837738211312"><ele>277.0</ele><time>2026-04-10T17:16:29Z</time></trkpt><trkpt lat="39.577726550828395" lon="8.519076480394252"><ele>276.5</ele><time>2026-04-10T17:16:30Z</time></trkpt><trkpt lat="39.57773872225601" lon="8.51928614601128"><ele>276.0</ele><time>2026-04-10T17:16:31Z</time></trkpt><trkpt lat="39.57773787811445" lon="8.519468900650896"><ele>275.5</ele><time>2026-04-10T17:16:32Z</time></trkpt><trkpt lat="39.57771331833609" lon="8.519653738260274"><ele>275.0</ele><time>2026-04-10T17:16:33Z</time></trkpt><trkpt lat="39.57765819484214" lon="8.51988791776762"><ele>276.6666666666667</ele><time>2026-04-10T17:16:34Z</time></trkpt><trkpt lat="39.57760586188863" lon="8.520145033783823"><ele>278.3333333333333</ele><time>2026-04-10T17:16:35Z</time></trkpt><trkpt lat="39.577560521136974" lon="8.520414522396372"><ele>280.0</ele><time>2026-04-10T17:16:36Z</time></trkpt><trkpt lat="39.57751393089245" lon="8.520667541357025"><ele>281.66666666666663</ele><time>2026-04-10T17:16:37Z</time></trkpt><trkpt lat="39.577466595907005" lon="8.520886830624345"><ele>283.3333333333333</ele><time>2026-04-10T17:16:38Z</time></trkpt><trkpt lat="39.5774198516391" lon="8.52107532951005"><ele>285.0</ele><time>2026-04-10T17:16:39Z</time></trkpt><trkpt lat="39.57737835518467" lon="8.521231729456304"><ele>284.2</ele><time>2026-04-10T17:16:40Z</time></trkpt><trkpt lat="39.57734886243731" lon="8.521361547805638"><ele>283.4</ele><time>2026-04-10T17:16:41Z</time></trkpt><trkpt lat="39.57735530222108" lon="8.521456285427199"><ele>282.6</ele><time>2026-04-10T17:16:42Z</time></trkpt><trkpt lat="39.577409768303134" lon="8.521539327565552"><ele>281.8</ele><time>2026-04-10T17:16:43Z</time></trkpt><trkpt lat="39.577520555662545" lon="8.521632536765372"><ele>281.0</ele><time>2026-04-10T17:16:44Z</time></trkpt><trkpt lat="39.57766365352844" lon="8.521743102064326"><ele>281.0</ele><time>2026-04-10T17:16:45Z</time></trkpt><trkpt lat="39.57780786991924" lon="8.521879304206422"><ele>281.0</ele><time>2026-04-10T17:16:46Z</time></trkpt><trkpt lat="39.577934514872595" lon="8.522023643100209"><ele>281.0</ele><time>2026-04-10T17:16:47Z</time></trkpt><trkpt lat="39.57803532318686" lon="8.522167659810355"><ele>278.5</ele><time>2026-04-10T17:16:48Z</time></trkpt><trkpt lat="39.57812030831481" lon="8.522304222178278"><ele>276.0</ele><time>2026-04-10T17:16:49Z</time></trkpt><trkpt lat="39.5782060547595" lon="8.522417706195672"><ele>273.5</ele><time>2026-04-10T17:16:50Z</time></trkpt><trkpt lat="39.57830160653633" lon="8.522506613274318"><ele>271.0</ele><time>2026-04-10T17:16:51Z</time></trkpt><trkpt lat="39.57840923792814" lon="8.522560557664006"><ele>271.0</ele><time>2026-04-10T17:16:52Z</time></trkpt><trkpt lat="39.578542688464715" lon="8.52259508944213"><ele>271.0</ele><time>2026-04-10T17:16:53Z</time></trkpt><trkpt lat="39.57868866734933" lon="8.522637503660825"><ele>271.0</ele><time>2026-04-10T17:16:54Z</time></trkpt><trkpt lat="39.578839565638624" lon="8.52269667751003"><ele>271.0</ele><time>2026-04-10T17:16:55Z</time></trkpt><trkpt lat="39.57896697932909" lon="8.52273635512991"><ele>271.0</ele><time>2026-04-10T17:16:56Z</time></trkpt><trkpt lat="39.57909180926099" lon="8.522736062842505"><ele>271.0</ele><time>2026-04-10T17:16:57Z</time></trkpt><trkpt lat="39.579239901052006" lon="8.522684511791875"><ele>271.0</ele><time>2026-04-10T17:16:58Z</time></trkpt><trkpt lat="39.57939595168542" lon="8.522632463898487"><ele>271.0</ele><time>2026-04-10T17:16:59Z</time></trkpt><trkpt lat="39.579538031532195" lon="8.522583839133715"><ele>271.0</ele><time>2026-04-10T17:17:00Z</time></trkpt><trkpt lat="39.57966097198652" lon="8.522525888936041"><ele>271.0</ele><time>2026-04-10T17:17:01Z</time></trkpt><trkpt lat="39.5797801652467" lon="8.522444902476542"><ele>271.0</ele><time>2026-04-10T17:17:02Z</time></trkpt><trkpt lat="39.5798796363603" lon="8.52237332881042"><ele>271.0</ele><time>2026-04-10T17:17:03Z</time></trkpt><trkpt lat="39.579957377384524" lon="8.522342762952398"><ele>271.0</ele><time>2026-04-10T17:17:04Z</time></trkpt><trkpt lat="39.580022366208475" lon="8.522377104277286"><ele>271.0</ele><time>2026-04-10T17:17:05Z</time></trkpt><trkpt lat="39.58006975420283" lon="8.522529995430599"><ele>271.0</ele><time>2026-04-10T17:17:07Z</time></trkpt><trkpt lat="39.58007737917128" lon="8.522653073768138"><ele>271.0</ele><time>2026-04-10T17:17:08Z</time></trkpt><trkpt lat="39.580099083810204" lon="8.522811846485986"><ele>271.0</ele><time>2026-04-10T17:17:09Z</time></trkpt><trkpt lat="39.580118077956165" lon="8.52293074979766"><ele>271.6</ele><time>2026-04-10T17:17:10Z</time></trkpt><trkpt lat="39.58016338656841" lon="8.523034545462211"><ele>272.20000000000005</ele><time>2026-04-10T17:17:11Z</time></trkpt><trkpt lat="39.58025558222076" lon="8.523080109957235"><ele>272.79999999999995</ele><time>2026-04-10T17:17:12Z</time></trkpt><trkpt lat="39.5803492433985" lon="8.523109783962028"><ele>273.4</ele><time>2026-04-10T17:17:13Z</time></trkpt><trkpt lat="39.580458767981085" lon="8.52309632726253"><ele>274.0</ele><time>2026-04-10T17:17:14Z</time></trkpt><trkpt lat="39.58054864695136" lon="8.523122668604108"><ele>274.0</ele><time>2026-04-10T17:17:15Z</time></trkpt><trkpt lat="39.58061279032938" lon="8.523155075788381"><ele>274.0</ele><time>2026-04-10T17:17:16Z</time></trkpt><trkpt lat="39.58061449256044" lon="8.5232646523391"><ele>274.0</ele><time>2026-04-10T17:17:17Z</time></trkpt><trkpt lat="39.58058679437705" lon="8.523379897180707"><ele>274.0</ele><time>2026-04-10T17:17:18Z</time></trkpt><trkpt lat="39.58057158952932" lon="8.523561848246827"><ele>274.0</ele><time>2026-04-10T17:17:19Z</time></trkpt><trkpt lat="39.58053972131581" lon="8.52375918430333"><ele>274.25</ele><time>2026-04-10T17:17:20Z</time></trkpt><trkpt lat="39.58050270708555" lon="8.523939802562372"><ele>274.5</ele><time>2026-04-10T17:17:21Z</time></trkpt><trkpt lat="39.580499229656894" lon="8.524099687834994"><ele>274.75</ele><time>2026-04-10T17:17:22Z</time></trkpt><trkpt lat="39.58050803753008" lon="8.524234728340259"><ele>275.0</ele><time>2026-04-10T17:17:23Z</time></trkpt><trkpt lat="39.580521293222" lon="8.524391427046488"><ele>275.0</ele><time>2026-04-10T17:17:24Z</time></trkpt><trkpt lat="39.58052401087281" lon="8.524530073977386"><ele>275.0</ele><time>2026-04-10T17:17:25Z</time></trkpt><trkpt lat="39.58049743124805" lon="8.524633574569139"><ele>275.0</ele><time>2026-04-10T17:17:26Z</time></trkpt><trkpt lat="39.58042444812839" lon="8.524694520916368"><ele>275.0</ele><time>2026-04-10T17:17:27Z</time></trkpt><trkpt lat="39.58034614162177" lon="8.52482907589713"><ele>275.0</ele><time>2026-04-10T17:17:28Z</time></trkpt><trkpt lat="39.58030709661882" lon="8.524998373773586"><ele>263.0</ele><time>2026-04-10T17:17:29Z</time></trkpt><trkpt lat="39.58029603316503" lon="8.525169745716205"><ele>251.0</ele><time>2026-04-10T17:17:30Z</time></trkpt><trkpt lat="39.58031250578243" lon="8.525389090890881"><ele>239.0</ele><time>2026-04-10T17:17:31Z</time></trkpt><trkpt lat="39.58030066250172" lon="8.525625311447197"><ele>239.0</ele><time>2026-04-10T17:17:32Z</time></trkpt><trkpt lat="39.58029845131498" lon="8.525849211615473"><ele>239.0</ele><time>2026-04-10T17:17:33Z</time></trkpt><trkpt lat="39.58029188558044" lon="8.526038442130378"><ele>239.0</ele><time>2026-04-10T17:17:34Z</time></trkpt><trkpt lat="39.58029988402283" lon="8.526201796481624"><ele>239.0</ele><time>2026-04-10T17:17:35Z</time></trkpt><trkpt lat="39.58034144693735" lon="8.526341243213071"><ele>241.25</ele><time>2026-04-10T17:17:36Z</time></trkpt><trkpt lat="39.58040172206969" lon="8.52646450135534"><ele>243.5</ele><time>2026-04-10T17:17:37Z</time></trkpt><trkpt lat="39.58049997259824" lon="8.526569656379747"><ele>245.75</ele><time>2026-04-10T17:17:38Z</time></trkpt><trkpt lat="39.580624266472405" lon="8.526656196913754"><ele>248.0</ele><time>2026-04-10T17:17:39Z</time></trkpt><trkpt lat="39.58077023177822" lon="8.52672484773224"><ele>248.0</ele><time>2026-04-10T17:17:40Z</time></trkpt><trkpt lat="39.580865811279885" lon="8.526838709190134"><ele>248.0</ele><time>2026-04-10T17:17:41Z</time></trkpt><trkpt lat="39.58094211947587" lon="8.526954955018507"><ele>248.0</ele><time>2026-04-10T17:17:42Z</time></trkpt><trkpt lat="39.581022290837616" lon="8.527057246393886"><ele>248.0</ele><time>2026-04-10T17:17:43Z</time></trkpt><trkpt lat="39.58111998598642" lon="8.527123840567299"><ele>243.5</ele><time>2026-04-10T17:17:44Z</time></trkpt><trkpt lat="39.581223089655914" lon="8.52717810284769"><ele>239.0</ele><time>2026-04-10T17:17:45Z</time></trkpt><trkpt lat="39.58136119712097" lon="8.5272044070678"><ele>234.5</ele><time>2026-04-10T17:17:46Z</time></trkpt><trkpt lat="39.581541727449384" lon="8.527216858274299"><ele>230.0</ele><time>2026-04-10T17:17:47Z</time></trkpt><trkpt lat="39.58170172873472" lon="8.527299891379565"><ele>230.0</ele><time>2026-04-10T17:17:48Z</time></trkpt><trkpt lat="39.5818452685452" lon="8.527356341561132"><ele>230.0</ele><time>2026-04-10T17:17:49Z</time></trkpt><trkpt lat="39.58197521414507" lon="8.52737675286514"><ele>230.0</ele><time>2026-04-10T17:17:50Z</time></trkpt><trkpt lat="39.58209592050849" lon="8.527395175159155"><ele>230.0</ele><time>2026-04-10T17:17:51Z</time></trkpt><trkpt lat="39.58223120050986" lon="8.527382874044699"><ele>232.0</ele><time>2026-04-10T17:17:52Z</time></trkpt><trkpt lat="39.582390598176865" lon="8.527350462158031"><ele>234.0</ele><time>2026-04-10T17:17:53Z</time></trkpt><trkpt lat="39.5825486111854" lon="8.527327059074887"><ele>236.0</ele><time>2026-04-10T17:17:54Z</time></trkpt><trkpt lat="39.582694558782684" lon="8.527360712571687"><ele>236.0</ele><time>2026-04-10T17:17:55Z</time></trkpt><trkpt lat="39.582838239841145" lon="8.52735319563353"><ele>236.0</ele><time>2026-04-10T17:17:56Z</time></trkpt><trkpt lat="39.58299097701346" lon="8.527341664352104"><ele>236.0</ele><time>2026-04-10T17:17:57Z</time></trkpt><trkpt lat="39.58314082114165" lon="8.527301138358053"><ele>237.33333333333334</ele><time>2026-04-10T17:17:58Z</time></trkpt><trkpt lat="39.583261185575395" lon="8.527249879150155"><ele>238.66666666666669</ele><time>2026-04-10T17:17:59Z</time></trkpt><trkpt lat="39.58335460215497" lon="8.527261933296419"><ele>240.0</ele><time>2026-04-10T17:18:00Z</time></trkpt><trkpt lat="39.583438203680544" lon="8.527285269165517"><ele>241.33333333333331</ele><time>2026-04-10T17:18:01Z</time></trkpt><trkpt lat="39.58350972795808" lon="8.527319445691987"><ele>242.66666666666666</ele><time>2026-04-10T17:18:02Z</time></trkpt><trkpt lat="39.58353436183975" lon="8.52739516450758"><ele>244.0</ele><time>2026-04-10T17:18:03Z</time></trkpt><trkpt lat="39.58350348055656" lon="8.527492132883266"><ele>244.0</ele><time>2026-04-10T17:18:04Z</time></trkpt><trkpt lat="39.58345777510826" lon="8.527580370886517"><ele>244.0</ele><time>2026-04-10T17:18:05Z</time></trkpt><trkpt lat="39.58336878576167" lon="8.527673574927201"><ele>244.0</ele><time>2026-04-10T17:18:06Z</time></trkpt><trkpt lat="39.583241654191426" lon="8.527791551343258"><ele>244.0</ele><time>2026-04-10T17:18:07Z</time></trkpt><trkpt lat="39.58310131969612" lon="8.527907795081845"><ele>247.0</ele><time>2026-04-10T17:18:08Z</time></trkpt><trkpt lat="39.582964982715914" lon="8.528057355811773"><ele>250.0</ele><time>2026-04-10T17:18:09Z</time></trkpt><trkpt lat="39.58283274265952" lon="8.528213768382162"><ele>253.0</ele><time>2026-04-10T17:18:10Z</time></trkpt><trkpt lat="39.58271557484807" lon="8.528364772234426"><ele>250.0</ele><time>2026-04-10T17:18:11Z</time></trkpt><trkpt lat="39.582595129343964" lon="8.528483025729734"><ele>247.0</ele><time>2026-04-10T17:18:12Z</time></trkpt><trkpt lat="39.582523018882114" lon="8.52862981541311"><ele>244.0</ele><time>2026-04-10T17:18:13Z</time></trkpt><trkpt lat="39.582486128812995" lon="8.528768852214524"><ele>241.0</ele><time>2026-04-10T17:18:14Z</time></trkpt><trkpt lat="39.58247715546092" lon="8.528912793860497"><ele>241.0</ele><time>2026-04-10T17:18:15Z</time></trkpt><trkpt lat="39.58249969778932" lon="8.529090284991954"><ele>241.0</ele><time>2026-04-10T17:18:16Z</time></trkpt><trkpt lat="39.582556534170706" lon="8.529281122415231"><ele>241.0</ele><time>2026-04-10T17:18:17Z</time></trkpt><trkpt lat="39.58262162736895" lon="8.52946505208882"><ele>243.20000000000002</ele><time>2026-04-10T17:18:18Z</time></trkpt><trkpt lat="39.582635183823925" lon="8.529633038506022"><ele>245.40000000000003</ele><time>2026-04-10T17:18:19Z</time></trkpt><trkpt lat="39.58263842780978" lon="8.529786880951104"><ele>247.6</ele><time>2026-04-10T17:18:20Z</time></trkpt><trkpt lat="39.58263256781905" lon="8.5299014999893"><ele>249.8</ele><time>2026-04-10T17:18:21Z</time></trkpt><trkpt lat="39.58258946831241" lon="8.530021585809763"><ele>252.0</ele><time>2026-04-10T17:18:23Z</time></trkpt><trkpt lat="39.58250863631426" lon="8.529999439999335"><ele>252.0</ele><time>2026-04-10T17:18:24Z</time></trkpt><trkpt lat="39.58242508678387" lon="8.5299706383927"><ele>252.0</ele><time>2026-04-10T17:18:25Z</time></trkpt><trkpt lat="39.582330476637686" lon="8.529876672637032"><ele>252.0</ele><time>2026-04-10T17:18:26Z</time></trkpt><trkpt lat="39.58220011685798" lon="8.52977304194586"><ele>252.0</ele><time>2026-04-10T17:18:27Z</time></trkpt><trkpt lat="39.58206402049636" lon="8.529687748249733"><ele>253.75</ele><time>2026-04-10T17:18:28Z</time></trkpt><trkpt lat="39.581937557238355" lon="8.529571177984128"><ele>255.5</ele><time>2026-04-10T17:18:29Z</time></trkpt><trkpt lat="39.581817160485684" lon="8.529478589597517"><ele>257.25</ele><time>2026-04-10T17:18:30Z</time></trkpt><trkpt lat="39.581712768088025" lon="8.5294123892976"><ele>259.0</ele><time>2026-04-10T17:18:31Z</time></trkpt><trkpt lat="39.581588257735" lon="8.529386705734197"><ele>253.75</ele><time>2026-04-10T17:18:32Z</time></trkpt><trkpt lat="39.58143099671619" lon="8.529390548979467"><ele>248.5</ele><time>2026-04-10T17:18:33Z</time></trkpt><trkpt lat="39.58128124679791" lon="8.529357146320653"><ele>243.25</ele><time>2026-04-10T17:18:34Z</time></trkpt><trkpt lat="39.58114639396403" lon="8.529381767298489"><ele>238.0</ele><time>2026-04-10T17:18:35Z</time></trkpt><trkpt lat="39.581013357665434" lon="8.52939973971448"><ele>238.0</ele><time>2026-04-10T17:18:36Z</time></trkpt><trkpt lat="39.580887390464" lon="8.529450792736592"><ele>238.0</ele><time>2026-04-10T17:18:37Z</time></trkpt><trkpt lat="39.580783924432055" lon="8.529528172954066"><ele>238.0</ele><time>2026-04-10T17:18:38Z</time></trkpt><trkpt lat="39.58070668468032" lon="8.52962130746035"><ele>238.0</ele><time>2026-04-10T17:18:39Z</time></trkpt><trkpt lat="39.58064528775453" lon="8.529744537075594"><ele>243.33333333333331</ele><time>2026-04-10T17:18:40Z</time></trkpt><trkpt lat="39.58059838242519" lon="8.529911331968481"><ele>248.66666666666669</ele><time>2026-04-10T17:18:41Z</time></trkpt><trkpt lat="39.580565887274076" lon="8.530111168926826"><ele>254.0</ele><time>2026-04-10T17:18:42Z</time></trkpt><trkpt lat="39.580552348803714" lon="8.530315939214173"><ele>256.25</ele><time>2026-04-10T17:18:43Z</time></trkpt><trkpt lat="39.5805483972826" lon="8.530484194297367"><ele>258.5</ele><time>2026-04-10T17:18:44Z</time></trkpt><trkpt lat="39.58055469596042" lon="8.53061574627156"><ele>260.75</ele><time>2026-04-10T17:18:45Z</time></trkpt><trkpt lat="39.58058840265636" lon="8.53075888512329"><ele>263.0</ele><time>2026-04-10T17:18:46Z</time></trkpt><trkpt lat="39.58064535606688" lon="8.530925309529795"><ele>263.0</ele><time>2026-04-10T17:18:47Z</time></trkpt><trkpt lat="39.58065753805635" lon="8.531086310257459"><ele>263.0</ele><time>2026-04-10T17:18:48Z</time></trkpt><trkpt lat="39.580639931996785" lon="8.53122663848636"><ele>263.0</ele><time>2026-04-10T17:18:49Z</time></trkpt><trkpt lat="39.58060696586145" lon="8.531411332576571"><ele>263.0</ele><time>2026-04-10T17:18:50Z</time></trkpt><trkpt lat="39.58058262309057" lon="8.531623009549245"><ele>264.6666666666667</ele><time>2026-04-10T17:18:51Z</time></trkpt><trkpt lat="39.580570633226266" lon="8.531835005803162"><ele>266.3333333333333</ele><time>2026-04-10T17:18:52Z</time></trkpt><trkpt lat="39.58056179044025" lon="8.532049100236675"><ele>268.0</ele><time>2026-04-10T17:18:53Z</time></trkpt><trkpt lat="39.58054518049193" lon="8.532244131334178"><ele>269.5</ele><time>2026-04-10T17:18:54Z</time></trkpt><trkpt lat="39.58051157487699" lon="8.532408581541238"><ele>271.0</ele><time>2026-04-10T17:18:55Z</time></trkpt><trkpt lat="39.58051795417814" lon="8.532553442852715"><ele>272.5</ele><time>2026-04-10T17:18:56Z</time></trkpt><trkpt lat="39.580534547997814" lon="8.53269254813431"><ele>274.0</ele><time>2026-04-10T17:18:57Z</time></trkpt><trkpt lat="39.580548157027536" lon="8.532862862188372"><ele>275.5</ele><time>2026-04-10T17:18:58Z</time></trkpt><trkpt lat="39.580527946201386" lon="8.533019009631824"><ele>277.0</ele><time>2026-04-10T17:18:59Z</time></trkpt><trkpt lat="39.58050017482747" lon="8.533182294507522"><ele>278.5</ele><time>2026-04-10T17:19:00Z</time></trkpt><trkpt lat="39.58050609427147" lon="8.53335498474073"><ele>280.0</ele><time>2026-04-10T17:19:01Z</time></trkpt><trkpt lat="39.5805182754318" lon="8.533548135185171"><ele>280.3333333333333</ele><time>2026-04-10T17:19:02Z</time></trkpt><trkpt lat="39.580556391324855" lon="8.533740295225126"><ele>280.6666666666667</ele><time>2026-04-10T17:19:03Z</time></trkpt><trkpt lat="39.580596170609326" lon="8.533939724468008"><ele>281.0</ele><time>2026-04-10T17:19:04Z</time></trkpt><trkpt lat="39.58064062424671" lon="8.5341415194131"><ele>281.0</ele><time>2026-04-10T17:19:05Z</time></trkpt><trkpt lat="39.580693245692544" lon="8.53432403136599"><ele>281.0</ele><time>2026-04-10T17:19:06Z</time></trkpt><trkpt lat="39.58076357493299" lon="8.53448746504299"><ele>281.0</ele><time>2026-04-10T17:19:07Z</time></trkpt><trkpt lat="39.58085115193598" lon="8.534653331360511"><ele>281.0</ele><time>2026-04-10T17:19:08Z</time></trkpt><trkpt lat="39.58093599875668" lon="8.534807384422477"><ele>280.6</ele><time>2026-04-10T17:19:09Z</time></trkpt><trkpt lat="39.58099756164254" lon="8.534939428322627"><ele>280.20000000000005</ele><time>2026-04-10T17:19:10Z</time></trkpt><trkpt lat="39.58103202284189" lon="8.535054232922022"><ele>279.79999999999995</ele><time>2026-04-10T17:19:11Z</time></trkpt><trkpt lat="39.58102666614156" lon="8.535151293751374"><ele>279.4</ele><time>2026-04-10T17:19:12Z</time></trkpt><trkpt lat="39.58095442062417" lon="8.535241475798374"><ele>279.0</ele><time>2026-04-10T17:19:13Z</time></trkpt><trkpt lat="39.58089780372742" lon="8.535362156613443"><ele>279.2</ele><time>2026-04-10T17:19:14Z</time></trkpt><trkpt lat="39.58084178221336" lon="8.535510394846952"><ele>279.4</ele><time>2026-04-10T17:19:15Z</time></trkpt><trkpt lat="39.58077939616248" lon="8.535627358816942"><ele>279.6</ele><time>2026-04-10T17:19:16Z</time></trkpt><trkpt lat="39.58075044216104" lon="8.535729137877922"><ele>279.8</ele><time>2026-04-10T17:19:17Z</time></trkpt><trkpt lat="39.58075934946789" lon="8.535837300610561"><ele>280.0</ele><time>2026-04-10T17:19:18Z</time></trkpt><trkpt lat="39.580790225298095" lon="8.535978875717507"><ele>280.0</ele><time>2026-04-10T17:19:19Z</time></trkpt><trkpt lat="39.58084613823929" lon="8.536145844618174"><ele>280.0</ele><time>2026-04-10T17:19:20Z</time></trkpt><trkpt lat="39.580854019690214" lon="8.536330483445505"><ele>280.0</ele><time>2026-04-10T17:19:21Z</time></trkpt><trkpt lat="39.58086154444686" lon="8.53650998744785"><ele>280.0</ele><time>2026-04-10T17:19:22Z</time></trkpt><trkpt lat="39.58086783008909" lon="8.53665856093374"><ele>279.0</ele><time>2026-04-10T17:19:23Z</time></trkpt><trkpt lat="39.58087958676098" lon="8.536781657175894"><ele>278.0</ele><time>2026-04-10T17:19:24Z</time></trkpt><trkpt lat="39.58089134494612" lon="8.536887294127363"><ele>277.0</ele><time>2026-04-10T17:19:25Z</time></trkpt><trkpt lat="39.580924882312935" lon="8.536974342668326"><ele>276.0</ele><time>2026-04-10T17:19:26Z</time></trkpt><trkpt lat="39.58098605034117" lon="8.537064833667431"><ele>275.0</ele><time>2026-04-10T17:19:28Z</time></trkpt><trkpt lat="39.58105675870099" lon="8.537108970090436"><ele>274.0</ele><time>2026-04-10T17:21:26Z</time></trkpt><trkpt lat="39.58107365677949" lon="8.5372232626651"><ele>273.3333333333333</ele><time>2026-04-10T17:21:29Z</time></trkpt><trkpt lat="39.58107413168019" lon="8.53731353410948"><ele>272.66666666666663</ele><time>2026-04-10T17:21:31Z</time></trkpt><trkpt lat="39.58108413452373" lon="8.537405985751167"><ele>272.0</ele><time>2026-04-10T17:21:33Z</time></trkpt><trkpt lat="39.58108534987408" lon="8.537500193056767"><ele>271.3333333333333</ele><time>2026-04-10T17:21:35Z</time></trkpt><trkpt lat="39.58109442439569" lon="8.537621157029486"><ele>270.6666666666667</ele><time>2026-04-10T17:21:38Z</time></trkpt><trkpt lat="39.581098962664825" lon="8.537705038807612"><ele>270.0</ele><time>2026-04-10T17:21:40Z</time></trkpt><trkpt lat="39.58110775913533" lon="8.537804759068372"><ele>269.0</ele><time>2026-04-10T17:21:42Z</time></trkpt><trkpt lat="39.58111034444741" lon="8.537902961033362"><ele>268.0</ele><time>2026-04-10T17:21:44Z</time></trkpt><trkpt lat="39.58111708160185" lon="8.537992692909695"><ele>267.0</ele><time>2026-04-10T17:21:46Z</time></trkpt><trkpt lat="39.5811231383462" lon="8.538085049496178"><ele>266.0</ele><time>2026-04-10T17:21:48Z</time></trkpt><trkpt lat="39.581116823235305" lon="8.538197085300377"><ele>265.0</ele><time>2026-04-10T17:21:51Z</time></trkpt><trkpt lat="39.58111076371264" lon="8.5383448271015"><ele>264.0</ele><time>2026-04-10T17:21:55Z</time></trkpt><trkpt lat="39.58111086944954" lon="8.538458374673027"><ele>264.0</ele><time>2026-04-10T17:21:56Z</time></trkpt><trkpt lat="39.58110464882396" lon="8.538586800846227"><ele>264.0</ele><time>2026-04-10T17:21:57Z</time></trkpt><trkpt lat="39.58109121041009" lon="8.538716641257093"><ele>264.0</ele><time>2026-04-10T17:21:58Z</time></trkpt><trkpt lat="39.58107888282207" lon="8.53883726195913"><ele>264.0</ele><time>2026-04-10T17:21:59Z</time></trkpt><trkpt lat="39.581061690814295" lon="8.53895869615283"><ele>264.0</ele><time>2026-04-10T17:22:00Z</time></trkpt><trkpt lat="39.581049440968876" lon="8.539083192210882"><ele>263.4</ele><time>2026-04-10T17:22:01Z</time></trkpt><trkpt lat="39.58103718004273" lon="8.539213361499721"><ele>262.79999999999995</ele><time>2026-04-10T17:22:02Z</time></trkpt><trkpt lat="39.58102549391394" lon="8.539347621656985"><ele>262.20000000000005</ele><time>2026-04-10T17:22:03Z</time></trkpt><trkpt lat="39.581013714865" lon="8.539492384780846"><ele>261.6</ele><time>2026-04-10T17:22:04Z</time></trkpt><trkpt lat="39.58100656797148" lon="8.539639750217807"><ele>261.0</ele><time>2026-04-10T17:22:05Z</time></trkpt><trkpt lat="39.58099938780574" lon="8.539791271941073"><ele>260.75</ele><time>2026-04-10T17:22:06Z</time></trkpt><trkpt lat="39.58099215928079" lon="8.539940912647445"><ele>260.5</ele><time>2026-04-10T17:22:07Z</time></trkpt><trkpt lat="39.58098724170121" lon="8.540100948330002"><ele>260.25</ele><time>2026-04-10T17:22:08Z</time></trkpt><trkpt lat="39.580979114501375" lon="8.540272222787083"><ele>260.0</ele><time>2026-04-10T17:22:09Z</time></trkpt><trkpt lat="39.5809714432192" lon="8.540449864216118"><ele>258.5</ele><time>2026-04-10T17:22:10Z</time></trkpt><trkpt lat="39.58096691964214" lon="8.540612303542739"><ele>257.0</ele><time>2026-04-10T17:22:11Z</time></trkpt><trkpt lat="39.58097995112043" lon="8.540771950394808"><ele>255.5</ele><time>2026-04-10T17:22:12Z</time></trkpt><trkpt lat="39.5809982221044" lon="8.540943043872696"><ele>254.0</ele><time>2026-04-10T17:22:13Z</time></trkpt><trkpt lat="39.58102387162137" lon="8.541114359570699"><ele>254.75</ele><time>2026-04-10T17:22:14Z</time></trkpt><trkpt lat="39.58105470057098" lon="8.541277675075586"><ele>255.5</ele><time>2026-04-10T17:22:15Z</time></trkpt><trkpt lat="39.581094550953715" lon="8.54144191353512"><ele>256.25</ele><time>2026-04-10T17:22:16Z</time></trkpt><trkpt lat="39.58113990712352" lon="8.541594911543168"><ele>257.0</ele><time>2026-04-10T17:22:17Z</time></trkpt><trkpt lat="39.58120004097713" lon="8.54173321248548"><ele>257.0</ele><time>2026-04-10T17:22:18Z</time></trkpt><trkpt lat="39.581275870723374" lon="8.541855959591727"><ele>257.0</ele><time>2026-04-10T17:22:19Z</time></trkpt><trkpt lat="39.58135787647728" lon="8.541969039031182"><ele>257.0</ele><time>2026-04-10T17:22:20Z</time></trkpt><trkpt lat="39.581431758747485" lon="8.542083582693209"><ele>257.0</ele><time>2026-04-10T17:22:21Z</time></trkpt><trkpt lat="39.58149791955092" lon="8.542191268342775"><ele>256.2</ele><time>2026-04-10T17:22:22Z</time></trkpt><trkpt lat="39.581538946061336" lon="8.54229394704829"><ele>255.39999999999998</ele><time>2026-04-10T17:22:23Z</time></trkpt><trkpt lat="39.58151704903133" lon="8.542401527272213"><ele>254.60000000000002</ele><time>2026-04-10T17:22:24Z</time></trkpt><trkpt lat="39.58147628156202" lon="8.542488496313817"><ele>253.8</ele><time>2026-04-10T17:22:25Z</time></trkpt><trkpt lat="39.58139993038615" lon="8.542549105628694"><ele>253.0</ele><time>2026-04-10T17:22:26Z</time></trkpt><trkpt lat="39.581321524702894" lon="8.542644878878514"><ele>253.0</ele><time>2026-04-10T17:22:27Z</time></trkpt><trkpt lat="39.581234116589755" lon="8.54275026627034"><ele>253.0</ele><time>2026-04-10T17:22:28Z</time></trkpt><trkpt lat="39.58120005839983" lon="8.542909762244836"><ele>253.0</ele><time>2026-04-10T17:22:29Z</time></trkpt><trkpt lat="39.58116342964401" lon="8.543079802802314"><ele>253.0</ele><time>2026-04-10T17:22:30Z</time></trkpt><trkpt lat="39.581130416893046" lon="8.54327478505416"><ele>251.33333333333331</ele><time>2026-04-10T17:22:31Z</time></trkpt><trkpt lat="39.581102464528136" lon="8.543465390322025"><ele>249.66666666666669</ele><time>2026-04-10T17:22:32Z</time></trkpt><trkpt lat="39.58107252040346" lon="8.543658716716946"><ele>248.0</ele><time>2026-04-10T17:22:33Z</time></trkpt><trkpt lat="39.58103321922379" lon="8.543862934902071"><ele>248.0</ele><time>2026-04-10T17:22:34Z</time></trkpt><trkpt lat="39.58097797153527" lon="8.544043903407843"><ele>248.0</ele><time>2026-04-10T17:22:35Z</time></trkpt><trkpt lat="39.58089641458275" lon="8.544219353458598"><ele>248.0</ele><time>2026-04-10T17:22:36Z</time></trkpt><trkpt lat="39.58078860906636" lon="8.544368195425061"><ele>248.0</ele><time>2026-04-10T17:22:37Z</time></trkpt><trkpt lat="39.580696404870686" lon="8.544518284886088"><ele>248.0</ele><time>2026-04-10T17:22:38Z</time></trkpt><trkpt lat="39.58058211075456" lon="8.54463483557686"><ele>248.0</ele><time>2026-04-10T17:22:39Z</time></trkpt><trkpt lat="39.58045199634711" lon="8.54472452355819"><ele>248.0</ele><time>2026-04-10T17:22:40Z</time></trkpt><trkpt lat="39.58030177566503" lon="8.544764157742405"><ele>247.75</ele><time>2026-04-10T17:22:41Z</time></trkpt><trkpt lat="39.58015769521251" lon="8.54482534176362"><ele>247.5</ele><time>2026-04-10T17:22:42Z</time></trkpt><trkpt lat="39.58000748380709" lon="8.54487391088346"><ele>247.25</ele><time>2026-04-10T17:22:43Z</time></trkpt><trkpt lat="39.57987503574987" lon="8.544925820491212"><ele>247.0</ele><time>2026-04-10T17:22:44Z</time></trkpt><trkpt lat="39.57974982112654" lon="8.544971430934787"><ele>247.0</ele><time>2026-04-10T17:22:45Z</time></trkpt><trkpt lat="39.57962807584047" lon="8.545017634728657"><ele>247.0</ele><time>2026-04-10T17:22:46Z</time></trkpt><trkpt lat="39.57951390807439" lon="8.545073708805315"><ele>247.0</ele><time>2026-04-10T17:22:47Z</time></trkpt><trkpt lat="39.57939637953919" lon="8.545123299119288"><ele>247.0</ele><time>2026-04-10T17:22:48Z</time></trkpt><trkpt lat="39.579288198419235" lon="8.545194935126593"><ele>245.5</ele><time>2026-04-10T17:22:49Z</time></trkpt><trkpt lat="39.57918083455944" lon="8.545266325244096"><ele>244.0</ele><time>2026-04-10T17:22:50Z</time></trkpt><trkpt lat="39.57907812151114" lon="8.545352305967057"><ele>242.5</ele><time>2026-04-10T17:22:51Z</time></trkpt><trkpt lat="39.578983863633916" lon="8.545446218300055"><ele>241.0</ele><time>2026-04-10T17:22:52Z</time></trkpt><trkpt lat="39.5789017610604" lon="8.545562284350018"><ele>240.60000000000002</ele><time>2026-04-10T17:22:53Z</time></trkpt><trkpt lat="39.57882867353214" lon="8.545684375236961"><ele>240.20000000000002</ele><time>2026-04-10T17:22:54Z</time></trkpt><trkpt lat="39.57876049183481" lon="8.545812460823527"><ele>239.79999999999998</ele><time>2026-04-10T17:22:55Z</time></trkpt><trkpt lat="39.57870609908608" lon="8.545934998107649"><ele>239.39999999999998</ele><time>2026-04-10T17:22:56Z</time></trkpt><trkpt lat="39.578670928413715" lon="8.546056687483292"><ele>239.0</ele><time>2026-04-10T17:22:57Z</time></trkpt><trkpt lat="39.57867817959851" lon="8.546188732443364"><ele>236.79999999999998</ele><time>2026-04-10T17:22:58Z</time></trkpt><trkpt lat="39.57874916751789" lon="8.546299306036023"><ele>234.59999999999997</ele><time>2026-04-10T17:22:59Z</time></trkpt><trkpt lat="39.578822902976206" lon="8.546395854577526"><ele>232.4</ele><time>2026-04-10T17:23:00Z</time></trkpt><trkpt lat="39.57891002762846" lon="8.546485666840468"><ele>230.2</ele><time>2026-04-10T17:23:01Z</time></trkpt><trkpt lat="39.5789849905123" lon="8.54658707470448"><ele>228.0</ele><time>2026-04-10T17:23:02Z</time></trkpt><trkpt lat="39.57906352860171" lon="8.546684075345011"><ele>228.0</ele><time>2026-04-10T17:23:03Z</time></trkpt><trkpt lat="39.57912922852737" lon="8.546789155318477"><ele>228.0</ele><time>2026-04-10T17:23:04Z</time></trkpt><trkpt lat="39.57920126049107" lon="8.546892927888882"><ele>228.0</ele><time>2026-04-10T17:23:05Z</time></trkpt><trkpt lat="39.5792613504881" lon="8.54702381954645"><ele>228.0</ele><time>2026-04-10T17:23:06Z</time></trkpt><trkpt lat="39.5793731502804" lon="8.547121427766022"><ele>227.5</ele><time>2026-04-10T17:23:07Z</time></trkpt><trkpt lat="39.579486605674475" lon="8.547219241302953"><ele>227.0</ele><time>2026-04-10T17:23:08Z</time></trkpt><trkpt lat="39.57961268409361" lon="8.547312012338015"><ele>226.5</ele><time>2026-04-10T17:23:09Z</time></trkpt><trkpt lat="39.579734624898315" lon="8.547403316341512"><ele>226.0</ele><time>2026-04-10T17:23:10Z</time></trkpt><trkpt lat="39.57984861492355" lon="8.547500792414258"><ele>226.0</ele><time>2026-04-10T17:23:11Z</time></trkpt><trkpt lat="39.57994067406214" lon="8.547607513397669"><ele>226.00000000000003</ele><time>2026-04-10T17:23:12Z</time></trkpt><trkpt lat="39.57999477408073" lon="8.547723840796088"><ele>226.00000000000003</ele><time>2026-04-10T17:23:13Z</time></trkpt><trkpt lat="39.58001944182255" lon="8.547844542133825"><ele>226.0</ele><time>2026-04-10T17:23:14Z</time></trkpt><trkpt lat="39.57997591228118" lon="8.54795630890126"><ele>226.0</ele><time>2026-04-10T17:23:15Z</time></trkpt><trkpt lat="39.579920423850496" lon="8.548058724280997"><ele>222.75</ele><time>2026-04-10T17:23:16Z</time></trkpt><trkpt lat="39.579854992040026" lon="8.548186674511989"><ele>219.5</ele><time>2026-04-10T17:23:17Z</time></trkpt><trkpt lat="39.57977420596036" lon="8.548311799689893"><ele>216.25</ele><time>2026-04-10T17:23:18Z</time></trkpt><trkpt lat="39.57968569500275" lon="8.548430905643583"><ele>213.0</ele><time>2026-04-10T17:23:19Z</time></trkpt><trkpt lat="39.57960544810688" lon="8.54856137966211"><ele>213.5</ele><time>2026-04-10T17:23:20Z</time></trkpt><trkpt lat="39.57954762629965" lon="8.548711526305631"><ele>214.0</ele><time>2026-04-10T17:23:21Z</time></trkpt><trkpt lat="39.579517951172114" lon="8.548879788572384"><ele>214.5</ele><time>2026-04-10T17:23:22Z</time></trkpt><trkpt lat="39.57949124366181" lon="8.549051065007113"><ele>215.0</ele><time>2026-04-10T17:23:23Z</time></trkpt><trkpt lat="39.5794663339575" lon="8.549229113983769"><ele>215.0</ele><time>2026-04-10T17:23:24Z</time></trkpt><trkpt lat="39.57943682021978" lon="8.549419439548602"><ele>215.0</ele><time>2026-04-10T17:23:25Z</time></trkpt><trkpt lat="39.57939917248755" lon="8.549620894885882"><ele>215.0</ele><time>2026-04-10T17:23:26Z</time></trkpt><trkpt lat="39.579305165957116" lon="8.549786951264817"><ele>217.75</ele><time>2026-04-10T17:23:27Z</time></trkpt><trkpt lat="39.57921888458178" lon="8.549937944067349"><ele>220.5</ele><time>2026-04-10T17:23:28Z</time></trkpt><trkpt lat="39.579135450636734" lon="8.550066126760232"><ele>223.25</ele><time>2026-04-10T17:23:29Z</time></trkpt><trkpt lat="39.57902254891773" lon="8.550118906059996"><ele>226.0</ele><time>2026-04-10T17:23:30Z</time></trkpt><trkpt lat="39.57890404938296" lon="8.550139133395586"><ele>226.0</ele><time>2026-04-10T17:23:31Z</time></trkpt><trkpt lat="39.578770044070225" lon="8.55013408489833"><ele>226.0</ele><time>2026-04-10T17:23:32Z</time></trkpt><trkpt lat="39.57861860925635" lon="8.550143589286263"><ele>226.0</ele><time>2026-04-10T17:23:33Z</time></trkpt><trkpt lat="39.57846816200421" lon="8.55012494897025"><ele>226.0</ele><time>2026-04-10T17:23:34Z</time></trkpt><trkpt lat="39.57831849615269" lon="8.550117074308975"><ele>226.5</ele><time>2026-04-10T17:23:35Z</time></trkpt><trkpt lat="39.578167424713406" lon="8.55011275520586"><ele>227.0</ele><time>2026-04-10T17:23:36Z</time></trkpt><trkpt lat="39.5780141614682" lon="8.550106852963234"><ele>227.5</ele><time>2026-04-10T17:23:37Z</time></trkpt><trkpt lat="39.57787334002353" lon="8.550100927090615"><ele>228.0</ele><time>2026-04-10T17:23:38Z</time></trkpt><trkpt lat="39.57774798298922" lon="8.550102630472976"><ele>228.25</ele><time>2026-04-10T17:23:39Z</time></trkpt><trkpt lat="39.5776347874442" lon="8.550124844791773"><ele>228.5</ele><time>2026-04-10T17:23:40Z</time></trkpt><trkpt lat="39.57752999344066" lon="8.550174447327132"><ele>228.75</ele><time>2026-04-10T17:23:41Z</time></trkpt><trkpt lat="39.57742756023885" lon="8.550240745510681"><ele>229.0</ele><time>2026-04-10T17:23:42Z</time></trkpt><trkpt lat="39.57732388696094" lon="8.550292999707551"><ele>229.0</ele><time>2026-04-10T17:23:43Z</time></trkpt><trkpt lat="39.57721763081271" lon="8.550305093562896"><ele>229.0</ele><time>2026-04-10T17:23:44Z</time></trkpt><trkpt lat="39.57712420238116" lon="8.550233862176766"><ele>229.0</ele><time>2026-04-10T17:23:45Z</time></trkpt><trkpt lat="39.576997065069506" lon="8.550185615230891"><ele>229.0</ele><time>2026-04-10T17:23:46Z</time></trkpt><trkpt lat="39.57686415485849" lon="8.55011100676524"><ele>230.33333333333331</ele><time>2026-04-10T17:23:47Z</time></trkpt><trkpt lat="39.57671475437904" lon="8.550066273350268"><ele>231.66666666666669</ele><time>2026-04-10T17:23:48Z</time></trkpt><trkpt lat="39.57656080991731" lon="8.550048556624533"><ele>233.0</ele><time>2026-04-10T17:23:49Z</time></trkpt><trkpt lat="39.5764025051126" lon="8.550047857340541"><ele>233.0</ele><time>2026-04-10T17:23:50Z</time></trkpt><trkpt lat="39.576242577271344" lon="8.550048436126238"><ele>233.0</ele><time>2026-04-10T17:23:51Z</time></trkpt><trkpt lat="39.576079280108374" lon="8.550039134738336"><ele>233.0</ele><time>2026-04-10T17:23:52Z</time></trkpt><trkpt lat="39.575915182684106" lon="8.55002791709256"><ele>233.66666666666669</ele><time>2026-04-10T17:23:53Z</time></trkpt><trkpt lat="39.57575273947881" lon="8.550019260542257"><ele>234.33333333333331</ele><time>2026-04-10T17:23:54Z</time></trkpt><trkpt lat="39.57559189238405" lon="8.550011230210695"><ele>235.0</ele><time>2026-04-10T17:23:55Z</time></trkpt><trkpt lat="39.575428207224725" lon="8.549998665371872"><ele>235.66666666666666</ele><time>2026-04-10T17:23:56Z</time></trkpt><trkpt lat="39.5752660794815" lon="8.549976592761656"><ele>236.33333333333331</ele><time>2026-04-10T17:23:57Z</time></trkpt><trkpt lat="39.57510786495651" lon="8.549917442120686"><ele>237.0</ele><time>2026-04-10T17:23:58Z</time></trkpt><trkpt lat="39.574947278930736" lon="8.549877603798636"><ele>237.0</ele><time>2026-04-10T17:23:59Z</time></trkpt><trkpt lat="39.574798487316194" lon="8.549776731460426"><ele>237.0</ele><time>2026-04-10T17:24:00Z</time></trkpt><trkpt lat="39.57464269048561" lon="8.549699531903041"><ele>237.0</ele><time>2026-04-10T17:24:01Z</time></trkpt><trkpt lat="39.57451882032291" lon="8.549558152262124"><ele>237.33333333333331</ele><time>2026-04-10T17:24:02Z</time></trkpt><trkpt lat="39.57438515422341" lon="8.549433850216197"><ele>237.66666666666666</ele><time>2026-04-10T17:24:03Z</time></trkpt><trkpt lat="39.57426814462956" lon="8.54928250768537"><ele>238.0</ele><time>2026-04-10T17:24:04Z</time></trkpt><trkpt lat="39.57414750798938" lon="8.549135966847572"><ele>238.0</ele><time>2026-04-10T17:24:05Z</time></trkpt><trkpt lat="39.574025382926656" lon="8.548992483856612"><ele>238.0</ele><time>2026-04-10T17:24:06Z</time></trkpt><trkpt lat="39.57390562081428" lon="8.54884741446859"><ele>238.0</ele><time>2026-04-10T17:24:07Z</time></trkpt><trkpt lat="39.5737900429934" lon="8.548699359138723"><ele>238.0</ele><time>2026-04-10T17:24:08Z</time></trkpt><trkpt lat="39.57368598206788" lon="8.54855838797943"><ele>238.0</ele><time>2026-04-10T17:24:09Z</time></trkpt><trkpt lat="39.573588669945316" lon="8.548430268863308"><ele>238.0</ele><time>2026-04-10T17:24:10Z</time></trkpt><trkpt lat="39.57350281066121" lon="8.548303796770789"><ele>238.0</ele><time>2026-04-10T17:24:11Z</time></trkpt><trkpt lat="39.573379004215354" lon="8.54825594567342"><ele>238.0</ele><time>2026-04-10T17:24:12Z</time></trkpt><trkpt lat="39.57324439877761" lon="8.548232687147317"><ele>238.0</ele><time>2026-04-10T17:24:13Z</time></trkpt><trkpt lat="39.5730879011882" lon="8.54820881020619"><ele>238.0</ele><time>2026-04-10T17:24:14Z</time></trkpt><trkpt lat="39.57292339497303" lon="8.548205401286408"><ele>238.66666666666666</ele><time>2026-04-10T17:24:15Z</time></trkpt><trkpt lat="39.572745533210664" lon="8.548199202059026"><ele>239.33333333333331</ele><time>2026-04-10T17:24:16Z</time></trkpt><trkpt lat="39.57256602030015" lon="8.548191668646396"><ele>240.0</ele><time>2026-04-10T17:24:17Z</time></trkpt><trkpt lat="39.57239483618868" lon="8.548205121425092"><ele>240.0</ele><time>2026-04-10T17:24:18Z</time></trkpt><trkpt lat="39.57223925985085" lon="8.54817551344125"><ele>240.0</ele><time>2026-04-10T17:24:19Z</time></trkpt><trkpt lat="39.57209833235304" lon="8.548167969786842"><ele>240.0</ele><time>2026-04-10T17:24:20Z</time></trkpt><trkpt lat="39.57197297485418" lon="8.548170531426976"><ele>240.0</ele><time>2026-04-10T17:24:21Z</time></trkpt><trkpt lat="39.571859031679786" lon="8.548185359041014"><ele>239.75</ele><time>2026-04-10T17:24:22Z</time></trkpt><trkpt lat="39.57174972232735" lon="8.548246420270965"><ele>239.5</ele><time>2026-04-10T17:24:23Z</time></trkpt><trkpt lat="39.571643393561885" lon="8.548369693849656"><ele>239.25</ele><time>2026-04-10T17:24:24Z</time></trkpt><trkpt lat="39.571526608125815" lon="8.548509380685278"><ele>239.0</ele><time>2026-04-10T17:24:25Z</time></trkpt><trkpt lat="39.57140999767935" lon="8.548644535334043"><ele>238.33333333333334</ele><time>2026-04-10T17:24:26Z</time></trkpt><trkpt lat="39.5712929427887" lon="8.54877532444061"><ele>237.66666666666669</ele><time>2026-04-10T17:24:27Z</time></trkpt><trkpt lat="39.57117397026603" lon="8.54890945220653"><ele>237.0</ele><time>2026-04-10T17:24:28Z</time></trkpt><trkpt lat="39.57107118260676" lon="8.549060779387572"><ele>237.0</ele><time>2026-04-10T17:24:29Z</time></trkpt><trkpt lat="39.570952751946095" lon="8.549188396051804"><ele>237.0</ele><time>2026-04-10T17:24:30Z</time></trkpt><trkpt lat="39.570861867579815" lon="8.549352587553036"><ele>237.0</ele><time>2026-04-10T17:24:31Z</time></trkpt><trkpt lat="39.57078790198572" lon="8.549536708982188"><ele>240.0</ele><time>2026-04-10T17:24:32Z</time></trkpt><trkpt lat="39.57072876689264" lon="8.549752489663478"><ele>243.0</ele><time>2026-04-10T17:24:33Z</time></trkpt><trkpt lat="39.570701837700106" lon="8.549986412988412"><ele>246.0</ele><time>2026-04-10T17:24:34Z</time></trkpt><trkpt lat="39.57065385100997" lon="8.550210831377909"><ele>249.33333333333331</ele><time>2026-04-10T17:24:35Z</time></trkpt><trkpt lat="39.57056664654245" lon="8.550415597713343"><ele>252.66666666666666</ele><time>2026-04-10T17:24:36Z</time></trkpt><trkpt lat="39.57047191126092" lon="8.550611940480637"><ele>256.0</ele><time>2026-04-10T17:24:37Z</time></trkpt><trkpt lat="39.57036906436219" lon="8.550804999328761"><ele>251.66666666666666</ele><time>2026-04-10T17:24:38Z</time></trkpt><trkpt lat="39.570275108043184" lon="8.550980705208543"><ele>247.33333333333331</ele><time>2026-04-10T17:24:39Z</time></trkpt><trkpt lat="39.57018866001465" lon="8.551152201408422"><ele>243.0</ele><time>2026-04-10T17:24:40Z</time></trkpt><trkpt lat="39.57013376751645" lon="8.551323440123912"><ele>243.0</ele><time>2026-04-10T17:24:41Z</time></trkpt><trkpt lat="39.57006783316695" lon="8.551475206188003"><ele>243.0</ele><time>2026-04-10T17:24:42Z</time></trkpt><trkpt lat="39.57005655911387" lon="8.551647743655076"><ele>243.0</ele><time>2026-04-10T17:24:43Z</time></trkpt><trkpt lat="39.570054893423105" lon="8.55181329281855"><ele>243.0</ele><time>2026-04-10T17:24:44Z</time></trkpt><trkpt lat="39.57007697799045" lon="8.551976617565025"><ele>243.5</ele><time>2026-04-10T17:24:45Z</time></trkpt><trkpt lat="39.57012056517576" lon="8.552137096548186"><ele>244.0</ele><time>2026-04-10T17:24:46Z</time></trkpt><trkpt lat="39.570188446212455" lon="8.552287094673876"><ele>244.5</ele><time>2026-04-10T17:24:47Z</time></trkpt><trkpt lat="39.57028023135755" lon="8.552414994615587"><ele>245.0</ele><time>2026-04-10T17:24:48Z</time></trkpt><trkpt lat="39.570371025333145" lon="8.552543191421679"><ele>247.0</ele><time>2026-04-10T17:24:49Z</time></trkpt><trkpt lat="39.57044220981991" lon="8.552673294654422"><ele>249.0</ele><time>2026-04-10T17:24:50Z</time></trkpt><trkpt lat="39.570463449683444" lon="8.552810375341222"><ele>251.0</ele><time>2026-04-10T17:24:51Z</time></trkpt><trkpt lat="39.57046416714076" lon="8.55292539912952"><ele>253.0</ele><time>2026-04-10T17:24:52Z</time></trkpt><trkpt lat="39.57038095760674" lon="8.553009761405931"><ele>255.0</ele><time>2026-04-10T17:24:53Z</time></trkpt><trkpt lat="39.57027637274596" lon="8.55307736323807"><ele>255.0</ele><time>2026-04-10T17:24:54Z</time></trkpt><trkpt lat="39.570158973006755" lon="8.553178401857972"><ele>255.0</ele><time>2026-04-10T17:24:55Z</time></trkpt><trkpt lat="39.57002933998306" lon="8.553284284757792"><ele>255.0</ele><time>2026-04-10T17:24:56Z</time></trkpt><trkpt lat="39.569891431020906" lon="8.553394932779838"><ele>255.0</ele><time>2026-04-10T17:24:57Z</time></trkpt><trkpt lat="39.569751503093144" lon="8.553523918728029"><ele>255.0</ele><time>2026-04-10T17:24:58Z</time></trkpt><trkpt lat="39.569603325639115" lon="8.5536234017408"><ele>255.0</ele><time>2026-04-10T17:24:59Z</time></trkpt><trkpt lat="39.56946805901928" lon="8.553753340654094"><ele>255.5</ele><time>2026-04-10T17:25:00Z</time></trkpt><trkpt lat="39.569342478117164" lon="8.553862285742506"><ele>256.0</ele><time>2026-04-10T17:25:01Z</time></trkpt><trkpt lat="39.56923859262646" lon="8.553975796215603"><ele>256.5</ele><time>2026-04-10T17:25:02Z</time></trkpt><trkpt lat="39.56915481276245" lon="8.554112969625168"><ele>257.0</ele><time>2026-04-10T17:25:03Z</time></trkpt><trkpt lat="39.56909759612519" lon="8.55428427551406"><ele>257.0</ele><time>2026-04-10T17:25:04Z</time></trkpt><trkpt lat="39.56906445882731" lon="8.55447957536249"><ele>257.0</ele><time>2026-04-10T17:25:05Z</time></trkpt><trkpt lat="39.56906191433986" lon="8.55468410147411"><ele>257.0</ele><time>2026-04-10T17:25:06Z</time></trkpt><trkpt lat="39.56906783104131" lon="8.554893130307107"><ele>258.6666666666667</ele><time>2026-04-10T17:25:07Z</time></trkpt><trkpt lat="39.56905499037124" lon="8.555116171128976"><ele>260.3333333333333</ele><time>2026-04-10T17:25:08Z</time></trkpt><trkpt lat="39.56905125747087" lon="8.555345923577054"><ele>262.0</ele><time>2026-04-10T17:25:09Z</time></trkpt><trkpt lat="39.56906295723138" lon="8.555585215092734"><ele>263.66666666666663</ele><time>2026-04-10T17:25:10Z</time></trkpt><trkpt lat="39.56905708848589" lon="8.55583106996403"><ele>265.3333333333333</ele><time>2026-04-10T17:25:11Z</time></trkpt><trkpt lat="39.569036401712886" lon="8.556084255974541"><ele>267.0</ele><time>2026-04-10T17:25:12Z</time></trkpt><trkpt lat="39.56903179578255" lon="8.556337561824842"><ele>268.0</ele><time>2026-04-10T17:25:13Z</time></trkpt><trkpt lat="39.56903009286741" lon="8.556601013641922"><ele>269.0</ele><time>2026-04-10T17:25:14Z</time></trkpt><trkpt lat="39.56902845224049" lon="8.55685508679144"><ele>270.0</ele><time>2026-04-10T17:25:15Z</time></trkpt><trkpt lat="39.56901426678252" lon="8.557106609955003"><ele>272.0</ele><time>2026-04-10T17:25:16Z</time></trkpt><trkpt lat="39.56898564106603" lon="8.557357322584119"><ele>274.0</ele><time>2026-04-10T17:25:17Z</time></trkpt><trkpt lat="39.56895602270787" lon="8.557598119790724"><ele>276.0</ele><time>2026-04-10T17:25:18Z</time></trkpt><trkpt lat="39.56892711002573" lon="8.557821338431662"><ele>278.25</ele><time>2026-04-10T17:25:19Z</time></trkpt><trkpt lat="39.56891484142153" lon="8.558022143449902"><ele>280.5</ele><time>2026-04-10T17:25:20Z</time></trkpt><trkpt lat="39.5688788418049" lon="8.558181598776416"><ele>282.75</ele><time>2026-04-10T17:25:21Z</time></trkpt><trkpt lat="39.568821271624515" lon="8.558285269250161"><ele>285.0</ele><time>2026-04-10T17:25:22Z</time></trkpt><trkpt lat="39.568709539153474" lon="8.558289500204696"><ele>284.5</ele><time>2026-04-10T17:25:23Z</time></trkpt><trkpt lat="39.56858572474519" lon="8.558356600357333"><ele>284.0</ele><time>2026-04-10T17:25:24Z</time></trkpt><trkpt lat="39.56847698863235" lon="8.558483922465415"><ele>283.5</ele><time>2026-04-10T17:25:25Z</time></trkpt><trkpt lat="39.56837396516302" lon="8.55864594168779"><ele>283.0</ele><time>2026-04-10T17:25:26Z</time></trkpt><trkpt lat="39.568279764740254" lon="8.558839708781235"><ele>283.0</ele><time>2026-04-10T17:25:27Z</time></trkpt><trkpt lat="39.56818743763704" lon="8.559046224411842"><ele>283.0</ele><time>2026-04-10T17:25:28Z</time></trkpt><trkpt lat="39.56809137293297" lon="8.55925406678152"><ele>283.0</ele><time>2026-04-10T17:25:29Z</time></trkpt><trkpt lat="39.56799814809845" lon="8.559454733964966"><ele>282.5</ele><time>2026-04-10T17:25:30Z</time></trkpt><trkpt lat="39.56791524214846" lon="8.559636984517443"><ele>282.0</ele><time>2026-04-10T17:25:31Z</time></trkpt><trkpt lat="39.567846064439316" lon="8.559798688381035"><ele>281.5</ele><time>2026-04-10T17:25:32Z</time></trkpt><trkpt lat="39.56780698129973" lon="8.559963609556043"><ele>281.0</ele><time>2026-04-10T17:25:33Z</time></trkpt><trkpt lat="39.56779923739945" lon="8.560148320888596"><ele>281.0</ele><time>2026-04-10T17:25:34Z</time></trkpt><trkpt lat="39.56779815302792" lon="8.560344188586317"><ele>281.0</ele><time>2026-04-10T17:25:35Z</time></trkpt><trkpt lat="39.56774122518717" lon="8.560480208040044"><ele>281.0</ele><time>2026-04-10T17:25:36Z</time></trkpt><trkpt lat="39.56767207448302" lon="8.56055777867078"><ele>281.0</ele><time>2026-04-10T17:25:37Z</time></trkpt><trkpt lat="39.567568007466335" lon="8.560597285344418"><ele>286.33333333333337</ele><time>2026-04-10T17:25:38Z</time></trkpt><trkpt lat="39.56744107444365" lon="8.560685703608927"><ele>291.6666666666667</ele><time>2026-04-10T17:25:39Z</time></trkpt><trkpt lat="39.567291705180324" lon="8.560758377006216"><ele>297.0</ele><time>2026-04-10T17:25:40Z</time></trkpt><trkpt lat="39.56713506830014" lon="8.560824577489486"><ele>295.6666666666667</ele><time>2026-04-10T17:25:41Z</time></trkpt><trkpt lat="39.566979129181924" lon="8.560874511641552"><ele>294.33333333333337</ele><time>2026-04-10T17:25:42Z</time></trkpt><trkpt lat="39.56682776493149" lon="8.5608938938983"><ele>293.0</ele><time>2026-04-10T17:25:43Z</time></trkpt><trkpt lat="39.56667895386876" lon="8.560907946570818"><ele>293.0</ele><time>2026-04-10T17:25:44Z</time></trkpt><trkpt lat="39.56652612020411" lon="8.5609928861658"><ele>293.0</ele><time>2026-04-10T17:25:45Z</time></trkpt><trkpt lat="39.56637057067025" lon="8.561089406671375"><ele>293.0</ele><time>2026-04-10T17:25:46Z</time></trkpt><trkpt lat="39.56620574543115" lon="8.561171156490895"><ele>296.0</ele><time>2026-04-10T17:25:47Z</time></trkpt><trkpt lat="39.56605344853813" lon="8.561270993277823"><ele>299.0</ele><time>2026-04-10T17:25:48Z</time></trkpt><trkpt lat="39.56592518757203" lon="8.561374947777256"><ele>302.0</ele><time>2026-04-10T17:25:49Z</time></trkpt><trkpt lat="39.565834771575794" lon="8.56151386129399"><ele>302.0</ele><time>2026-04-10T17:25:50Z</time></trkpt><trkpt lat="39.56575676046536" lon="8.561683684910742"><ele>302.0</ele><time>2026-04-10T17:25:51Z</time></trkpt><trkpt lat="39.565680041805386" lon="8.561890360011114"><ele>302.0</ele><time>2026-04-10T17:25:52Z</time></trkpt><trkpt lat="39.565575077004276" lon="8.562080816273099"><ele>305.5</ele><time>2026-04-10T17:25:53Z</time></trkpt><trkpt lat="39.56549154174074" lon="8.562261784943676"><ele>309.0</ele><time>2026-04-10T17:25:54Z</time></trkpt><trkpt lat="39.56542182556817" lon="8.56241908264605"><ele>312.5</ele><time>2026-04-10T17:25:55Z</time></trkpt><trkpt lat="39.565369731514856" lon="8.562567842597122"><ele>316.0</ele><time>2026-04-10T17:25:56Z</time></trkpt><trkpt lat="39.5653721806304" lon="8.56273729572675"><ele>317.4</ele><time>2026-04-10T17:25:57Z</time></trkpt><trkpt lat="39.56540171490417" lon="8.562902941057931"><ele>318.8</ele><time>2026-04-10T17:25:58Z</time></trkpt><trkpt lat="39.565429886133444" lon="8.563063537333173"><ele>320.2</ele><time>2026-04-10T17:25:59Z</time></trkpt><trkpt lat="39.56543697678698" lon="8.563185693346693"><ele>321.59999999999997</ele><time>2026-04-10T17:26:00Z</time></trkpt><trkpt lat="39.56541107387621" lon="8.563267123254716"><ele>323.0</ele><time>2026-04-10T17:26:01Z</time></trkpt><trkpt lat="39.565294015338154" lon="8.563275762100307"><ele>324.5</ele><time>2026-04-10T17:26:03Z</time></trkpt><trkpt lat="39.565234061164446" lon="8.5631636540172"><ele>326.0</ele><time>2026-04-10T17:26:04Z</time></trkpt><trkpt lat="39.565163695052604" lon="8.562998702276856"><ele>327.5</ele><time>2026-04-10T17:26:05Z</time></trkpt><trkpt lat="39.56507582815405" lon="8.562834604170028"><ele>329.0</ele><time>2026-04-10T17:26:06Z</time></trkpt><trkpt lat="39.56499795397828" lon="8.562661137441099"><ele>324.6666666666667</ele><time>2026-04-10T17:26:07Z</time></trkpt><trkpt lat="39.56490668892606" lon="8.562475776372105"><ele>320.3333333333333</ele><time>2026-04-10T17:26:08Z</time></trkpt><trkpt lat="39.56480570489385" lon="8.562279363382608"><ele>316.0</ele><time>2026-04-10T17:26:09Z</time></trkpt><trkpt lat="39.564705029324614" lon="8.562082563362296"><ele>311.66666666666663</ele><time>2026-04-10T17:26:10Z</time></trkpt><trkpt lat="39.56461808326188" lon="8.561874184324491"><ele>307.3333333333333</ele><time>2026-04-10T17:26:11Z</time></trkpt><trkpt lat="39.564559918641635" lon="8.561640599249083"><ele>303.0</ele><time>2026-04-10T17:26:12Z</time></trkpt><trkpt lat="39.5645131224937" lon="8.561430024269567"><ele>307.0</ele><time>2026-04-10T17:26:13Z</time></trkpt><trkpt lat="39.56445059258078" lon="8.561262081130984"><ele>311.0</ele><time>2026-04-10T17:26:14Z</time></trkpt><trkpt lat="39.56434697259839" lon="8.561125508806043"><ele>315.0</ele><time>2026-04-10T17:26:15Z</time></trkpt><trkpt lat="39.564202339403224" lon="8.561013927390269"><ele>315.0</ele><time>2026-04-10T17:26:16Z</time></trkpt><trkpt lat="39.564037635103766" lon="8.56094202044252"><ele>315.0</ele><time>2026-04-10T17:26:17Z</time></trkpt><trkpt lat="39.56386328971151" lon="8.560932527185452"><ele>315.0</ele><time>2026-04-10T17:26:18Z</time></trkpt><trkpt lat="39.563698713588934" lon="8.560977647845325"><ele>316.3333333333333</ele><time>2026-04-10T17:26:19Z</time></trkpt><trkpt lat="39.563541840505046" lon="8.561078318975687"><ele>317.66666666666663</ele><time>2026-04-10T17:26:20Z</time></trkpt><trkpt lat="39.5633718685692" lon="8.56121719619379"><ele>319.0</ele><time>2026-04-10T17:26:21Z</time></trkpt><trkpt lat="39.56318589302938" lon="8.561333122611213"><ele>322.3333333333333</ele><time>2026-04-10T17:26:22Z</time></trkpt><trkpt lat="39.56299459189754" lon="8.561461146077695"><ele>325.6666666666667</ele><time>2026-04-10T17:26:23Z</time></trkpt><trkpt lat="39.562817049638625" lon="8.561603216588397"><ele>329.0</ele><time>2026-04-10T17:26:24Z</time></trkpt><trkpt lat="39.56262830487319" lon="8.561734204864102"><ele>329.0</ele><time>2026-04-10T17:26:25Z</time></trkpt><trkpt lat="39.56245034879538" lon="8.561878957526043"><ele>329.0</ele><time>2026-04-10T17:26:26Z</time></trkpt><trkpt lat="39.56228438744738" lon="8.562044755911867"><ele>329.0</ele><time>2026-04-10T17:26:27Z</time></trkpt><trkpt lat="39.562122111890496" lon="8.562188995163456"><ele>329.75</ele><time>2026-04-10T17:26:28Z</time></trkpt><trkpt lat="39.561987771194474" lon="8.562323525095307"><ele>330.5</ele><time>2026-04-10T17:26:29Z</time></trkpt><trkpt lat="39.56187141690471" lon="8.562445100423092"><ele>331.25</ele><time>2026-04-10T17:26:30Z</time></trkpt><trkpt lat="39.5617878478848" lon="8.562573684853048"><ele>332.0</ele><time>2026-04-10T17:26:31Z</time></trkpt><trkpt lat="39.561717802874966" lon="8.562686389078426"><ele>332.0</ele><time>2026-04-10T17:26:32Z</time></trkpt><trkpt lat="39.56165558315498" lon="8.562818797564743"><ele>332.0</ele><time>2026-04-10T17:26:33Z</time></trkpt><trkpt lat="39.561656008391495" lon="8.563005530673044"><ele>332.0</ele><time>2026-04-10T17:26:34Z</time></trkpt><trkpt lat="39.56167298084347" lon="8.563210878340847"><ele>332.0</ele><time>2026-04-10T17:26:35Z</time></trkpt><trkpt lat="39.56169611221133" lon="8.56342929797643"><ele>334.20000000000005</ele><time>2026-04-10T17:26:36Z</time></trkpt><trkpt lat="39.561690338180064" lon="8.563600375526587"><ele>336.4</ele><time>2026-04-10T17:26:37Z</time></trkpt><trkpt lat="39.5616833507341" lon="8.563748415036434"><ele>338.6</ele><time>2026-04-10T17:26:38Z</time></trkpt><trkpt lat="39.56164832390424" lon="8.563863075677512"><ele>340.79999999999995</ele><time>2026-04-10T17:26:39Z</time></trkpt><trkpt lat="39.5615909700729" lon="8.563958082144842"><ele>343.0</ele><time>2026-04-10T17:26:40Z</time></trkpt><trkpt lat="39.561511039669604" lon="8.564059389081773"><ele>343.0</ele><time>2026-04-10T17:26:41Z</time></trkpt><trkpt lat="39.56140743820633" lon="8.56414609213561"><ele>343.0</ele><time>2026-04-10T17:26:42Z</time></trkpt><trkpt lat="39.56129722581916" lon="8.564236470087428"><ele>343.0</ele><time>2026-04-10T17:26:43Z</time></trkpt><trkpt lat="39.561197402414756" lon="8.564313953615386"><ele>343.0</ele><time>2026-04-10T17:26:44Z</time></trkpt><trkpt lat="39.56110386936813" lon="8.564387304014243"><ele>343.0</ele><time>2026-04-10T17:26:45Z</time></trkpt><trkpt lat="39.56100894743375" lon="8.564468619128068"><ele>343.0</ele><time>2026-04-10T17:26:46Z</time></trkpt><trkpt lat="39.56091350051903" lon="8.564571103519832"><ele>343.0</ele><time>2026-04-10T17:26:47Z</time></trkpt><trkpt lat="39.560814357496795" lon="8.564694012723105"><ele>343.0</ele><time>2026-04-10T17:26:48Z</time></trkpt><trkpt lat="39.56071656469733" lon="8.56482318634911"><ele>345.25</ele><time>2026-04-10T17:26:49Z</time></trkpt><trkpt lat="39.560635896427854" lon="8.564971815492893"><ele>347.5</ele><time>2026-04-10T17:26:50Z</time></trkpt><trkpt lat="39.56053690075904" lon="8.565087392242068"><ele>349.75</ele><time>2026-04-10T17:26:51Z</time></trkpt><trkpt lat="39.56045819777008" lon="8.565209713819234"><ele>352.0</ele><time>2026-04-10T17:26:52Z</time></trkpt><trkpt lat="39.56038615771701" lon="8.56535242680214"><ele>352.75</ele><time>2026-04-10T17:26:53Z</time></trkpt><trkpt lat="39.5602914447433" lon="8.56546568444834"><ele>353.5</ele><time>2026-04-10T17:26:54Z</time></trkpt><trkpt lat="39.56019511650855" lon="8.565576729384379"><ele>354.25</ele><time>2026-04-10T17:26:55Z</time></trkpt><trkpt lat="39.56008352225078" lon="8.565657523786419"><ele>355.0</ele><time>2026-04-10T17:26:56Z</time></trkpt><trkpt lat="39.55999601450536" lon="8.565766021202327"><ele>355.0</ele><time>2026-04-10T17:26:57Z</time></trkpt><trkpt lat="39.55990238503044" lon="8.565856828134564"><ele>355.0</ele><time>2026-04-10T17:26:58Z</time></trkpt><trkpt lat="39.559807000307465" lon="8.565942207274169"><ele>355.0</ele><time>2026-04-10T17:26:59Z</time></trkpt><trkpt lat="39.55970191052186" lon="8.566005944886832"><ele>355.0</ele><time>2026-04-10T17:27:00Z</time></trkpt><trkpt lat="39.559599328782355" lon="8.566081033180565"><ele>354.75</ele><time>2026-04-10T17:27:01Z</time></trkpt><trkpt lat="39.559491516130784" lon="8.566149891513128"><ele>354.5</ele><time>2026-04-10T17:27:02Z</time></trkpt><trkpt lat="39.55937125310916" lon="8.566211264972093"><ele>354.25</ele><time>2026-04-10T17:27:03Z</time></trkpt><trkpt lat="39.55925264065656" lon="8.56625265239679"><ele>354.0</ele><time>2026-04-10T17:27:04Z</time></trkpt><trkpt lat="39.559136564197516" lon="8.5662831720583"><ele>356.2</ele><time>2026-04-10T17:27:05Z</time></trkpt><trkpt lat="39.55903229239901" lon="8.566324383460552"><ele>358.4</ele><time>2026-04-10T17:27:06Z</time></trkpt><trkpt lat="39.55893422438834" lon="8.566338035331919"><ele>360.6</ele><time>2026-04-10T17:27:07Z</time></trkpt><trkpt lat="39.558843978597125" lon="8.566350989783793"><ele>362.8</ele><time>2026-04-10T17:27:08Z</time></trkpt><trkpt lat="39.55875063418863" lon="8.566367110293848"><ele>365.0</ele><time>2026-04-10T17:27:09Z</time></trkpt><trkpt lat="39.558659843790466" lon="8.566447521160653"><ele>365.0</ele><time>2026-04-10T17:27:10Z</time></trkpt><trkpt lat="39.55857306970929" lon="8.566516764307751"><ele>365.0</ele><time>2026-04-10T17:27:11Z</time></trkpt><trkpt lat="39.55848853972155" lon="8.566596519479956"><ele>365.0</ele><time>2026-04-10T17:27:12Z</time></trkpt><trkpt lat="39.55839985065416" lon="8.56668165671956"><ele>365.0</ele><time>2026-04-10T17:27:13Z</time></trkpt><trkpt lat="39.55830697886498" lon="8.56677003790553"><ele>365.0</ele><time>2026-04-10T17:27:14Z</time></trkpt><trkpt lat="39.55821068256898" lon="8.566859140377334"><ele>365.0</ele><time>2026-04-10T17:27:15Z</time></trkpt><trkpt lat="39.558119899787584" lon="8.56694634808084"><ele>365.0</ele><time>2026-04-10T17:27:16Z</time></trkpt><trkpt lat="39.5580328597968" lon="8.567024072125596"><ele>365.0</ele><time>2026-04-10T17:27:17Z</time></trkpt><trkpt lat="39.557951414098305" lon="8.567104328787979"><ele>365.0</ele><time>2026-04-10T17:27:18Z</time></trkpt><trkpt lat="39.557877720238885" lon="8.567195540776483"><ele>365.0</ele><time>2026-04-10T17:27:19Z</time></trkpt><trkpt lat="39.55781072856222" lon="8.567303068020431"><ele>366.0</ele><time>2026-04-10T17:27:20Z</time></trkpt><trkpt lat="39.557731389946504" lon="8.567424552417434"><ele>367.0</ele><time>2026-04-10T17:27:21Z</time></trkpt><trkpt lat="39.55767190864615" lon="8.567554659328248"><ele>368.0</ele><time>2026-04-10T17:27:22Z</time></trkpt><trkpt lat="39.557621881635214" lon="8.567712749795033"><ele>369.0</ele><time>2026-04-10T17:27:23Z</time></trkpt><trkpt lat="39.557581007397154" lon="8.56786960960531"><ele>369.0</ele><time>2026-04-10T17:27:24Z</time></trkpt><trkpt lat="39.55754309478426" lon="8.568029341676795"><ele>369.0</ele><time>2026-04-10T17:27:25Z</time></trkpt><trkpt lat="39.557490092050344" lon="8.568188447224875"><ele>369.0</ele><time>2026-04-10T17:27:26Z</time></trkpt><trkpt lat="39.55745796404201" lon="8.568346807020184"><ele>369.0</ele><time>2026-04-10T17:27:27Z</time></trkpt><trkpt lat="39.557427401510424" lon="8.56848477287753"><ele>369.0</ele><time>2026-04-10T17:27:28Z</time></trkpt><trkpt lat="39.557413233368834" lon="8.568624987221673"><ele>369.0</ele><time>2026-04-10T17:27:29Z</time></trkpt><trkpt lat="39.55739779271631" lon="8.56876976888428"><ele>369.0</ele><time>2026-04-10T17:27:30Z</time></trkpt><trkpt lat="39.55738014925976" lon="8.568926488079672"><ele>369.0</ele><time>2026-04-10T17:27:31Z</time></trkpt><trkpt lat="39.557375131688566" lon="8.569077519724502"><ele>370.1666666666667</ele><time>2026-04-10T17:27:32Z</time></trkpt><trkpt lat="39.557366168239085" lon="8.56920428291032"><ele>371.3333333333333</ele><time>2026-04-10T17:27:33Z</time></trkpt><trkpt lat="39.5573536816843" lon="8.569315730521902"><ele>372.5</ele><time>2026-04-10T17:27:34Z</time></trkpt><trkpt lat="39.5573439278676" lon="8.569425165358236"><ele>373.66666666666663</ele><time>2026-04-10T17:27:35Z</time></trkpt><trkpt lat="39.55733294071695" lon="8.569519963637537"><ele>374.8333333333333</ele><time>2026-04-10T17:27:36Z</time></trkpt><trkpt lat="39.55730866073549" lon="8.569620853100997"><ele>376.0</ele><time>2026-04-10T17:27:37Z</time></trkpt><trkpt lat="39.55729179051271" lon="8.569726275129561"><ele>376.0</ele><time>2026-04-10T17:27:38Z</time></trkpt><trkpt lat="39.557267941627074" lon="8.569839467901922"><ele>376.0</ele><time>2026-04-10T17:27:39Z</time></trkpt><trkpt lat="39.55724340705153" lon="8.56992212493653"><ele>376.0</ele><time>2026-04-10T17:27:40Z</time></trkpt><trkpt lat="39.55721407440358" lon="8.570023964448035"><ele>376.0</ele><time>2026-04-10T17:27:41Z</time></trkpt><trkpt lat="39.55714171992189" lon="8.570127632501473"><ele>376.0</ele><time>2026-04-10T17:27:43Z</time></trkpt><trkpt lat="39.55701081212201" lon="8.570143586888042"><ele>375.5</ele><time>2026-04-10T17:27:47Z</time></trkpt><trkpt lat="39.556971114642856" lon="8.57024879078929"><ele>375.0</ele><time>2026-04-10T17:27:49Z</time></trkpt><trkpt lat="39.55697161408163" lon="8.57034235889723"><ele>374.5</ele><time>2026-04-10T17:27:52Z</time></trkpt><trkpt lat="39.55701470596124" lon="8.570406038485633"><ele>374.0</ele><time>2026-04-10T17:37:00Z</time></trkpt><trkpt lat="39.557080352813706" lon="8.570380873140426"><ele>373.5</ele><time>2026-04-10T17:37:03Z</time></trkpt><trkpt lat="39.557146589173996" lon="8.57045793247508"><ele>373.0</ele><time>2026-04-10T17:37:06Z</time></trkpt><trkpt lat="39.557150584915355" lon="8.570553362807344"><ele>372.2</ele><time>2026-04-10T17:37:07Z</time></trkpt><trkpt lat="39.557143375601065" lon="8.57067261471381"><ele>371.4</ele><time>2026-04-10T17:37:08Z</time></trkpt><trkpt lat="39.55713841839479" lon="8.570795943737858"><ele>370.59999999999997</ele><time>2026-04-10T17:37:09Z</time></trkpt><trkpt lat="39.55711663823873" lon="8.570932557436493"><ele>369.79999999999995</ele><time>2026-04-10T17:37:10Z</time></trkpt><trkpt lat="39.55711397716169" lon="8.571044372508021"><ele>369.0</ele><time>2026-04-10T17:37:11Z</time></trkpt><trkpt lat="39.55710632639246" lon="8.571132800306907"><ele>367.6666666666667</ele><time>2026-04-10T17:37:12Z</time></trkpt><trkpt lat="39.55706677824795" lon="8.571213121295237"><ele>366.3333333333333</ele><time>2026-04-10T17:37:13Z</time></trkpt><trkpt lat="39.557017233731" lon="8.571294328637238"><ele>365.0</ele><time>2026-04-10T17:37:14Z</time></trkpt><trkpt lat="39.55693946779797" lon="8.571343488914117"><ele>363.66666666666663</ele><time>2026-04-10T17:37:15Z</time></trkpt><trkpt lat="39.556863761687424" lon="8.571360150971305"><ele>362.3333333333333</ele><time>2026-04-10T17:37:16Z</time></trkpt><trkpt lat="39.556796570622836" lon="8.571321718979593"><ele>361.0</ele><time>2026-04-10T17:37:17Z</time></trkpt><trkpt lat="39.55671323652198" lon="8.571256970760354"><ele>361.0</ele><time>2026-04-10T17:37:18Z</time></trkpt><trkpt lat="39.556624602542236" lon="8.571169564197241"><ele>361.0</ele><time>2026-04-10T17:37:19Z</time></trkpt><trkpt lat="39.556536641482765" lon="8.571142433320068"><ele>361.0</ele><time>2026-04-10T17:37:20Z</time></trkpt><trkpt lat="39.55644733942647" lon="8.571161153137028"><ele>361.0</ele><time>2026-04-10T17:37:21Z</time></trkpt><trkpt lat="39.556355775807084" lon="8.571229499082735"><ele>361.0</ele><time>2026-04-10T17:37:22Z</time></trkpt><trkpt lat="39.55625835635812" lon="8.571335568988989"><ele>364.0</ele><time>2026-04-10T17:37:23Z</time></trkpt><trkpt lat="39.55619005220896" lon="8.571473384943324"><ele>367.0</ele><time>2026-04-10T17:37:24Z</time></trkpt><trkpt lat="39.556140615963336" lon="8.571601868337394"><ele>370.0</ele><time>2026-04-10T17:37:25Z</time></trkpt><trkpt lat="39.556099255351846" lon="8.571729415446015"><ele>373.0</ele><time>2026-04-10T17:37:26Z</time></trkpt><trkpt lat="39.55606861403042" lon="8.571863213883425"><ele>373.0</ele><time>2026-04-10T17:37:27Z</time></trkpt><trkpt lat="39.55607529833964" lon="8.572014888479647"><ele>373.0</ele><time>2026-04-10T17:37:28Z</time></trkpt><trkpt lat="39.55605554710991" lon="8.572132714037402"><ele>373.0</ele><time>2026-04-10T17:37:29Z</time></trkpt><trkpt lat="39.556059102891" lon="8.572250800816656"><ele>373.0</ele><time>2026-04-10T17:37:30Z</time></trkpt><trkpt lat="39.556048969734455" lon="8.57239103468111"><ele>373.0</ele><time>2026-04-10T17:37:31Z</time></trkpt><trkpt lat="39.55602749678251" lon="8.572527793213814"><ele>372.0</ele><time>2026-04-10T17:37:32Z</time></trkpt><trkpt lat="39.556013463244625" lon="8.57264822438511"><ele>371.0</ele><time>2026-04-10T17:37:33Z</time></trkpt><trkpt lat="39.55597240621988" lon="8.572754246141855"><ele>370.0</ele><time>2026-04-10T17:37:34Z</time></trkpt><trkpt lat="39.55599057943732" lon="8.57288656658488"><ele>369.0</ele><time>2026-04-10T17:37:35Z</time></trkpt><trkpt lat="39.55596832222617" lon="8.573029401949784"><ele>368.0</ele><time>2026-04-10T17:37:36Z</time></trkpt><trkpt lat="39.555928248956995" lon="8.573173101783615"><ele>366.5</ele><time>2026-04-10T17:37:37Z</time></trkpt><trkpt lat="39.55587858368855" lon="8.573308592863366"><ele>365.0</ele><time>2026-04-10T17:37:38Z</time></trkpt><trkpt lat="39.55578494448252" lon="8.573406964296066"><ele>363.5</ele><time>2026-04-10T17:37:39Z</time></trkpt><trkpt lat="39.555712058784806" lon="8.573542312367262"><ele>362.0</ele><time>2026-04-10T17:37:40Z</time></trkpt><trkpt lat="39.55564799916348" lon="8.573662840601333"><ele>360.6666666666667</ele><time>2026-04-10T17:37:41Z</time></trkpt><trkpt lat="39.55559617500316" lon="8.573764210637005"><ele>359.33333333333337</ele><time>2026-04-10T17:37:42Z</time></trkpt><trkpt lat="39.55555971452999" lon="8.57384668493321"><ele>358.0</ele><time>2026-04-10T17:37:43Z</time></trkpt><trkpt lat="39.55552112436924" lon="8.573957905893911"><ele>356.6666666666667</ele><time>2026-04-10T17:37:45Z</time></trkpt><trkpt lat="39.555519548175184" lon="8.574067945105774"><ele>355.3333333333333</ele><time>2026-04-10T17:38:31Z</time></trkpt><trkpt lat="39.55549530617351" lon="8.574159876597799"><ele>354.0</ele><time>2026-04-10T17:38:32Z</time></trkpt><trkpt lat="39.555487097780045" lon="8.574269962049545"><ele>354.0</ele><time>2026-04-10T17:38:33Z</time></trkpt><trkpt lat="39.55548891421642" lon="8.574392602318056"><ele>354.0</ele><time>2026-04-10T17:38:34Z</time></trkpt><trkpt lat="39.55544851152109" lon="8.574513317871443"><ele>354.0</ele><time>2026-04-10T17:38:35Z</time></trkpt><trkpt lat="39.55540263154035" lon="8.574634020300786"><ele>354.0</ele><time>2026-04-10T17:38:36Z</time></trkpt><trkpt lat="39.55533119320618" lon="8.57472469988155"><ele>354.0</ele><time>2026-04-10T17:38:37Z</time></trkpt><trkpt lat="39.55525279197222" lon="8.574802659831862"><ele>354.1666666666667</ele><time>2026-04-10T17:38:38Z</time></trkpt><trkpt lat="39.555189045716766" lon="8.574865727573368"><ele>354.3333333333333</ele><time>2026-04-10T17:38:39Z</time></trkpt><trkpt lat="39.55510979115108" lon="8.574889353587391"><ele>354.5</ele><time>2026-04-10T17:38:40Z</time></trkpt><trkpt lat="39.55502303100755" lon="8.574874469991725"><ele>354.66666666666663</ele><time>2026-04-10T17:38:41Z</time></trkpt><trkpt lat="39.55493698539737" lon="8.574822357001429"><ele>354.8333333333333</ele><time>2026-04-10T17:38:42Z</time></trkpt><trkpt lat="39.55484562051243" lon="8.57477271970324"><ele>355.0</ele><time>2026-04-10T17:38:43Z</time></trkpt><trkpt lat="39.554746142988066" lon="8.574737263777367"><ele>355.0</ele><time>2026-04-10T17:38:44Z</time></trkpt><trkpt lat="39.554635211026905" lon="8.574725605396793"><ele>355.0</ele><time>2026-04-10T17:38:45Z</time></trkpt><trkpt lat="39.554520499450746" lon="8.574747834693964"><ele>355.0</ele><time>2026-04-10T17:38:46Z</time></trkpt><trkpt lat="39.554415999013884" lon="8.574798366000937"><ele>355.0</ele><time>2026-04-10T17:38:47Z</time></trkpt><trkpt lat="39.55432462879483" lon="8.574885596587343"><ele>357.0</ele><time>2026-04-10T17:38:48Z</time></trkpt><trkpt lat="39.554227904089274" lon="8.574974456207775"><ele>359.0</ele><time>2026-04-10T17:38:49Z</time></trkpt><trkpt lat="39.55414388394201" lon="8.575076766350174"><ele>361.0</ele><time>2026-04-10T17:38:50Z</time></trkpt><trkpt lat="39.554069945992815" lon="8.575175474501362"><ele>363.0</ele><time>2026-04-10T17:38:51Z</time></trkpt><trkpt lat="39.55398711557506" lon="8.57522775118915"><ele>365.0</ele><time>2026-04-10T17:38:52Z</time></trkpt><trkpt lat="39.55390649086808" lon="8.57523087703395"><ele>365.0</ele><time>2026-04-10T17:38:53Z</time></trkpt><trkpt lat="39.55382364009873" lon="8.575186361835392"><ele>365.0</ele><time>2026-04-10T17:38:54Z</time></trkpt><trkpt lat="39.55373652258844" lon="8.575120045717672"><ele>365.0</ele><time>2026-04-10T17:38:55Z</time></trkpt><trkpt lat="39.553643685937345" lon="8.57505564888968"><ele>365.0</ele><time>2026-04-10T17:38:56Z</time></trkpt><trkpt lat="39.55354172862561" lon="8.57500508714088"><ele>365.0</ele><time>2026-04-10T17:38:57Z</time></trkpt><trkpt lat="39.553433042062196" lon="8.574961994024033"><ele>366.0</ele><time>2026-04-10T17:38:58Z</time></trkpt><trkpt lat="39.55332516783003" lon="8.574943532007936"><ele>367.0</ele><time>2026-04-10T17:38:59Z</time></trkpt><trkpt lat="39.55321674972022" lon="8.574957209637212"><ele>368.0</ele><time>2026-04-10T17:39:00Z</time></trkpt><trkpt lat="39.55311023439743" lon="8.57501389539116"><ele>369.0</ele><time>2026-04-10T17:39:01Z</time></trkpt><trkpt lat="39.553013688161144" lon="8.575096226143081"><ele>370.0</ele><time>2026-04-10T17:39:02Z</time></trkpt><trkpt lat="39.55291950929964" lon="8.575162157391906"><ele>374.75</ele><time>2026-04-10T17:39:03Z</time></trkpt><trkpt lat="39.55284903061901" lon="8.575253447423083"><ele>379.5</ele><time>2026-04-10T17:39:04Z</time></trkpt><trkpt lat="39.5528026999331" lon="8.57536230376334"><ele>384.25</ele><time>2026-04-10T17:39:05Z</time></trkpt><trkpt lat="39.552791838204" lon="8.575525099285274"><ele>389.0</ele><time>2026-04-10T17:39:06Z</time></trkpt><trkpt lat="39.55282634973075" lon="8.575706871768313"><ele>389.0</ele><time>2026-04-10T17:39:07Z</time></trkpt><trkpt lat="39.55286969437981" lon="8.575918062448006"><ele>389.0</ele><time>2026-04-10T17:39:08Z</time></trkpt><trkpt lat="39.55291811657533" lon="8.576153992669322"><ele>389.0</ele><time>2026-04-10T17:39:09Z</time></trkpt><trkpt lat="39.55296445216313" lon="8.576382305323463"><ele>377.66666666666663</ele><time>2026-04-10T17:39:10Z</time></trkpt><trkpt lat="39.553013777467456" lon="8.57663220125606"><ele>366.3333333333333</ele><time>2026-04-10T17:39:11Z</time></trkpt><trkpt lat="39.55305878740999" lon="8.576875796380563"><ele>355.0</ele><time>2026-04-10T17:39:12Z</time></trkpt><trkpt lat="39.553089480225296" lon="8.57709109947593"><ele>355.0</ele><time>2026-04-10T17:39:13Z</time></trkpt><trkpt lat="39.55310645434905" lon="8.577284916745558"><ele>355.0</ele><time>2026-04-10T17:39:14Z</time></trkpt><trkpt lat="39.55309753186175" lon="8.577430061010451"><ele>355.0</ele><time>2026-04-10T17:39:15Z</time></trkpt><trkpt lat="39.55305562907012" lon="8.577552588056351"><ele>355.0</ele><time>2026-04-10T17:39:16Z</time></trkpt><trkpt lat="39.55298147971121" lon="8.577644945440364"><ele>362.5</ele><time>2026-04-10T17:39:17Z</time></trkpt><trkpt lat="39.55286982130151" lon="8.577699286195392"><ele>370.0</ele><time>2026-04-10T17:39:18Z</time></trkpt><trkpt lat="39.55272517144758" lon="8.577765034203637"><ele>377.5</ele><time>2026-04-10T17:39:19Z</time></trkpt><trkpt lat="39.55257615504469" lon="8.57780001776728"><ele>385.0</ele><time>2026-04-10T17:39:20Z</time></trkpt><trkpt lat="39.55242598929854" lon="8.577838215075348"><ele>385.25</ele><time>2026-04-10T17:39:21Z</time></trkpt><trkpt lat="39.552281472821676" lon="8.577875279620905"><ele>385.5</ele><time>2026-04-10T17:39:22Z</time></trkpt><trkpt lat="39.55214928644495" lon="8.577905243601014"><ele>385.75</ele><time>2026-04-10T17:39:23Z</time></trkpt><trkpt lat="39.55202813353341" lon="8.577924252748263"><ele>386.0</ele><time>2026-04-10T17:39:24Z</time></trkpt><trkpt lat="39.55191509808113" lon="8.577908206885956"><ele>386.0</ele><time>2026-04-10T17:39:25Z</time></trkpt><trkpt lat="39.55184232947254" lon="8.57811774507288"><ele>386.0</ele><time>2026-04-10T17:39:26Z</time></trkpt><trkpt lat="39.55179606070388" lon="8.578244656720276"><ele>386.0</ele><time>2026-04-10T17:39:27Z</time></trkpt><trkpt lat="39.551811209590475" lon="8.57839249637972"><ele>386.0</ele><time>2026-04-10T17:39:28Z</time></trkpt><trkpt lat="39.55187990120204" lon="8.57854272563805"><ele>392.0</ele><time>2026-04-10T17:39:29Z</time></trkpt><trkpt lat="39.551965951901295" lon="8.578707862584576"><ele>398.0</ele><time>2026-04-10T17:39:30Z</time></trkpt><trkpt lat="39.55205503381349" lon="8.57888747822621"><ele>404.0</ele><time>2026-04-10T17:39:31Z</time></trkpt><trkpt lat="39.552150428022294" lon="8.579059759843641"><ele>400.0</ele><time>2026-04-10T17:39:32Z</time></trkpt><trkpt lat="39.552268716950515" lon="8.579228810395328"><ele>396.0</ele><time>2026-04-10T17:39:33Z</time></trkpt><trkpt lat="39.55240763848893" lon="8.579392858949621"><ele>392.0</ele><time>2026-04-10T17:39:34Z</time></trkpt><trkpt lat="39.55255742273745" lon="8.579561076901578"><ele>392.0</ele><time>2026-04-10T17:39:35Z</time></trkpt><trkpt lat="39.552700548797546" lon="8.5797238444267"><ele>392.0</ele><time>2026-04-10T17:39:36Z</time></trkpt><trkpt lat="39.55282426610114" lon="8.579880893666338"><ele>392.0</ele><time>2026-04-10T17:39:37Z</time></trkpt><trkpt lat="39.55292512380696" lon="8.58003887909448"><ele>384.5</ele><time>2026-04-10T17:39:38Z</time></trkpt><trkpt lat="39.552978070681945" lon="8.58018268666273"><ele>377.0</ele><time>2026-04-10T17:39:39Z</time></trkpt><trkpt lat="39.552985252862555" lon="8.580323289030764"><ele>369.5</ele><time>2026-04-10T17:39:40Z</time></trkpt><trkpt lat="39.55297554076846" lon="8.580498650034523"><ele>362.0</ele><time>2026-04-10T17:39:41Z</time></trkpt><trkpt lat="39.55293751004355" lon="8.58070843845714"><ele>362.0</ele><time>2026-04-10T17:39:42Z</time></trkpt><trkpt lat="39.55289170028103" lon="8.580935169398"><ele>362.0</ele><time>2026-04-10T17:39:43Z</time></trkpt><trkpt lat="39.552850145949996" lon="8.581164294692059"><ele>362.0</ele><time>2026-04-10T17:39:44Z</time></trkpt><trkpt lat="39.55281826897089" lon="8.581406234410304"><ele>363.6666666666667</ele><time>2026-04-10T17:39:45Z</time></trkpt><trkpt lat="39.552824954492664" lon="8.581664856980332"><ele>365.3333333333333</ele><time>2026-04-10T17:39:46Z</time></trkpt><trkpt lat="39.55286417209566" lon="8.5819175557803"><ele>367.0</ele><time>2026-04-10T17:39:47Z</time></trkpt><trkpt lat="39.55290821407115" lon="8.58214508395017"><ele>367.0</ele><time>2026-04-10T17:39:48Z</time></trkpt><trkpt lat="39.552945047486155" lon="8.58234751933393"><ele>367.0</ele><time>2026-04-10T17:39:49Z</time></trkpt><trkpt lat="39.55296899955746" lon="8.582509439101726"><ele>367.0</ele><time>2026-04-10T17:39:50Z</time></trkpt><trkpt lat="39.552970719267805" lon="8.58264973928267"><ele>367.0</ele><time>2026-04-10T17:39:51Z</time></trkpt><trkpt lat="39.552934132846445" lon="8.582766090155628"><ele>367.0</ele><time>2026-04-10T17:39:52Z</time></trkpt><trkpt lat="39.55287769679176" lon="8.582867956916377"><ele>367.0</ele><time>2026-04-10T17:39:53Z</time></trkpt><trkpt lat="39.55277366807488" lon="8.582939623068777"><ele>367.0</ele><time>2026-04-10T17:39:54Z</time></trkpt><trkpt lat="39.55262366673483" lon="8.582991107413065"><ele>367.0</ele><time>2026-04-10T17:39:55Z</time></trkpt><trkpt lat="39.55245475678951" lon="8.58304371231585"><ele>367.75</ele><time>2026-04-10T17:39:56Z</time></trkpt><trkpt lat="39.55230791584263" lon="8.583093216276723"><ele>368.5</ele><time>2026-04-10T17:39:57Z</time></trkpt><trkpt lat="39.55217549162203" lon="8.583126786370613"><ele>369.25</ele><time>2026-04-10T17:39:58Z</time></trkpt><trkpt lat="39.55203639714905" lon="8.583118847560469"><ele>370.0</ele><time>2026-04-10T17:39:59Z</time></trkpt><trkpt lat="39.55187156224183" lon="8.583066839656672"><ele>372.66666666666663</ele><time>2026-04-10T17:40:00Z</time></trkpt><trkpt lat="39.55169362963127" lon="8.583036862953827"><ele>375.3333333333333</ele><time>2026-04-10T17:40:01Z</time></trkpt><trkpt lat="39.55150054728113" lon="8.583049406315261"><ele>378.0</ele><time>2026-04-10T17:40:02Z</time></trkpt><trkpt lat="39.551308368686094" lon="8.583074735274483"><ele>381.66666666666663</ele><time>2026-04-10T17:40:03Z</time></trkpt><trkpt lat="39.55112597688387" lon="8.583063278314041"><ele>385.3333333333333</ele><time>2026-04-10T17:40:04Z</time></trkpt><trkpt lat="39.55097110350313" lon="8.58303533392025"><ele>389.0</ele><time>2026-04-10T17:40:05Z</time></trkpt><trkpt lat="39.55084028412383" lon="8.583015652952154"><ele>389.0</ele><time>2026-04-10T17:40:06Z</time></trkpt><trkpt lat="39.55073024965437" lon="8.58301629777075"><ele>389.0</ele><time>2026-04-10T17:40:07Z</time></trkpt><trkpt lat="39.55063368623501" lon="8.583042841938168"><ele>389.0</ele><time>2026-04-10T17:40:08Z</time></trkpt><trkpt lat="39.550550547872255" lon="8.583131262639771"><ele>389.0</ele><time>2026-04-10T17:40:09Z</time></trkpt><trkpt lat="39.55050313418347" lon="8.583289299392163"><ele>389.0</ele><time>2026-04-10T17:40:10Z</time></trkpt><trkpt lat="39.55050780853234" lon="8.583472499993684"><ele>389.0</ele><time>2026-04-10T17:40:11Z</time></trkpt><trkpt lat="39.55054423485073" lon="8.583666357539444"><ele>389.0</ele><time>2026-04-10T17:40:12Z</time></trkpt><trkpt lat="39.5506051230558" lon="8.583843820009202"><ele>389.0</ele><time>2026-04-10T17:40:13Z</time></trkpt><trkpt lat="39.55071752283798" lon="8.583975492142025"><ele>391.66666666666663</ele><time>2026-04-10T17:40:14Z</time></trkpt><trkpt lat="39.55085296018484" lon="8.584092838987962"><ele>394.33333333333337</ele><time>2026-04-10T17:40:15Z</time></trkpt><trkpt lat="39.55097469274414" lon="8.584235917936706"><ele>397.0</ele><time>2026-04-10T17:40:16Z</time></trkpt><trkpt lat="39.551070458663176" lon="8.584401932624086"><ele>402.6666666666667</ele><time>2026-04-10T17:40:17Z</time></trkpt><trkpt lat="39.551152711873044" lon="8.584587581337349"><ele>408.33333333333337</ele><time>2026-04-10T17:40:18Z</time></trkpt><trkpt lat="39.551217943504454" lon="8.584764417669184"><ele>414.0</ele><time>2026-04-10T17:40:19Z</time></trkpt><trkpt lat="39.55126301522604" lon="8.584933626779565"><ele>403.75</ele><time>2026-04-10T17:40:20Z</time></trkpt><trkpt lat="39.551274324683355" lon="8.585101400551128"><ele>393.5</ele><time>2026-04-10T17:40:21Z</time></trkpt><trkpt lat="39.55128045579568" lon="8.585283793987513"><ele>383.25</ele><time>2026-04-10T17:40:22Z</time></trkpt><trkpt lat="39.551274576029236" lon="8.585466822733887"><ele>373.0</ele><time>2026-04-10T17:40:23Z</time></trkpt><trkpt lat="39.551262961004895" lon="8.585653325312492"><ele>372.66666666666663</ele><time>2026-04-10T17:40:24Z</time></trkpt><trkpt lat="39.551241891367575" lon="8.585841774042654"><ele>372.3333333333333</ele><time>2026-04-10T17:40:25Z</time></trkpt><trkpt lat="39.55121304405396" lon="8.586038082284695"><ele>372.0</ele><time>2026-04-10T17:40:26Z</time></trkpt><trkpt lat="39.551178143696745" lon="8.586228226945464"><ele>380.0</ele><time>2026-04-10T17:40:27Z</time></trkpt><trkpt lat="39.551133553470414" lon="8.586407830727989"><ele>388.0</ele><time>2026-04-10T17:40:28Z</time></trkpt><trkpt lat="39.55107893646514" lon="8.586561910292984"><ele>396.0</ele><time>2026-04-10T17:40:29Z</time></trkpt><trkpt lat="39.550996006062704" lon="8.586671779906096"><ele>404.0</ele><time>2026-04-10T17:40:30Z</time></trkpt><trkpt lat="39.55090314317212" lon="8.586767586560615"><ele>404.0</ele><time>2026-04-10T17:40:31Z</time></trkpt><trkpt lat="39.55083862754286" lon="8.586883652031949"><ele>404.0</ele><time>2026-04-10T17:40:32Z</time></trkpt><trkpt lat="39.55077728705309" lon="8.586993916709957"><ele>404.0</ele><time>2026-04-10T17:40:33Z</time></trkpt><trkpt lat="39.55078302704564" lon="8.58714151369143"><ele>404.0</ele><time>2026-04-10T17:40:34Z</time></trkpt><trkpt lat="39.55085628258054" lon="8.587274478968782"><ele>405.5</ele><time>2026-04-10T17:40:35Z</time></trkpt><trkpt lat="39.55095415491836" lon="8.587388745799169"><ele>407.0</ele><time>2026-04-10T17:40:36Z</time></trkpt><trkpt lat="39.55106666490461" lon="8.587507100746771"><ele>408.5</ele><time>2026-04-10T17:40:37Z</time></trkpt><trkpt lat="39.551184852998766" lon="8.587623622412234"><ele>410.0</ele><time>2026-04-10T17:40:38Z</time></trkpt><trkpt lat="39.551293099139045" lon="8.587753650712727"><ele>402.5</ele><time>2026-04-10T17:40:39Z</time></trkpt><trkpt lat="39.551396827652326" lon="8.587861797876409"><ele>395.0</ele><time>2026-04-10T17:40:40Z</time></trkpt><trkpt lat="39.55148617708063" lon="8.587964900223124"><ele>387.5</ele><time>2026-04-10T17:40:41Z</time></trkpt><trkpt lat="39.55153317663328" lon="8.588098335946269"><ele>380.0</ele><time>2026-04-10T17:40:42Z</time></trkpt><trkpt lat="39.55152762282397" lon="8.588260737220759"><ele>380.0</ele><time>2026-04-10T17:40:43Z</time></trkpt><trkpt lat="39.551525517634005" lon="8.588435330091935"><ele>380.0</ele><time>2026-04-10T17:40:44Z</time></trkpt><trkpt lat="39.55148941267666" lon="8.588600070137435"><ele>380.0</ele><time>2026-04-10T17:40:45Z</time></trkpt><trkpt lat="39.55143376880945" lon="8.588728112254515"><ele>380.0</ele><time>2026-04-10T17:40:46Z</time></trkpt><trkpt lat="39.551358257614986" lon="8.588815912755836"><ele>381.5</ele><time>2026-04-10T17:40:47Z</time></trkpt><trkpt lat="39.55124365430348" lon="8.588880389470694"><ele>383.0</ele><time>2026-04-10T17:40:48Z</time></trkpt><trkpt lat="39.551102720294494" lon="8.588941773220464"><ele>384.5</ele><time>2026-04-10T17:40:49Z</time></trkpt><trkpt lat="39.55093898971003" lon="8.588978390557221"><ele>386.0</ele><time>2026-04-10T17:40:50Z</time></trkpt><trkpt lat="39.55077329495929" lon="8.58898611117341"><ele>386.0</ele><time>2026-04-10T17:40:51Z</time></trkpt><trkpt lat="39.55061430507451" lon="8.588987132649041"><ele>386.0</ele><time>2026-04-10T17:40:52Z</time></trkpt><trkpt lat="39.55047321201306" lon="8.589002647836683"><ele>386.0</ele><time>2026-04-10T17:40:53Z</time></trkpt><trkpt lat="39.550352967629614" lon="8.589023813809922"><ele>386.0</ele><time>2026-04-10T17:40:54Z</time></trkpt><trkpt lat="39.550247862043044" lon="8.58909936202153"><ele>387.25</ele><time>2026-04-10T17:40:55Z</time></trkpt><trkpt lat="39.55016478897958" lon="8.58923224008918"><ele>388.5</ele><time>2026-04-10T17:40:56Z</time></trkpt><trkpt lat="39.55010791182028" lon="8.58940811442777"><ele>389.75</ele><time>2026-04-10T17:40:57Z</time></trkpt><trkpt lat="39.55005395541162" lon="8.589563923274568"><ele>391.0</ele><time>2026-04-10T17:40:58Z</time></trkpt><trkpt lat="39.54998965039721" lon="8.589681418545894"><ele>391.0</ele><time>2026-04-10T17:40:59Z</time></trkpt><trkpt lat="39.549900495887556" lon="8.58974997985844"><ele>391.0</ele><time>2026-04-10T17:41:00Z</time></trkpt><trkpt lat="39.54978905305523" lon="8.58980632363988"><ele>391.0</ele><time>2026-04-10T17:41:01Z</time></trkpt><trkpt lat="39.54967108290462" lon="8.589882380056244"><ele>391.0</ele><time>2026-04-10T17:41:02Z</time></trkpt><trkpt lat="39.54958533249985" lon="8.59002441116131"><ele>391.0</ele><time>2026-04-10T17:41:03Z</time></trkpt><trkpt lat="39.549552729588825" lon="8.590203420613593"><ele>391.0</ele><time>2026-04-10T17:41:04Z</time></trkpt><trkpt lat="39.54955605985407" lon="8.590398708886859"><ele>391.0</ele><time>2026-04-10T17:41:05Z</time></trkpt><trkpt lat="39.5495632695497" lon="8.590575075433723"><ele>391.0</ele><time>2026-04-10T17:41:06Z</time></trkpt><trkpt lat="39.54959962152236" lon="8.590732546581586"><ele>391.6666666666667</ele><time>2026-04-10T17:41:07Z</time></trkpt><trkpt lat="39.54968318774272" lon="8.590870982157965"><ele>392.33333333333337</ele><time>2026-04-10T17:41:08Z</time></trkpt><trkpt lat="39.5498173578947" lon="8.590980619450207"><ele>393.0</ele><time>2026-04-10T17:41:09Z</time></trkpt><trkpt lat="39.5499414669061" lon="8.591126519216623"><ele>399.33333333333337</ele><time>2026-04-10T17:41:10Z</time></trkpt><trkpt lat="39.55006712321717" lon="8.591256711506206"><ele>405.6666666666667</ele><time>2026-04-10T17:41:11Z</time></trkpt><trkpt lat="39.550184917408565" lon="8.591386726588484"><ele>412.0</ele><time>2026-04-10T17:41:12Z</time></trkpt><trkpt lat="39.55028973264589" lon="8.591526763399818"><ele>401.6666666666667</ele><time>2026-04-10T17:41:13Z</time></trkpt><trkpt lat="39.55038586392597" lon="8.59168431350849"><ele>391.33333333333337</ele><time>2026-04-10T17:41:14Z</time></trkpt><trkpt lat="39.55047830334372" lon="8.591846704929095"><ele>381.0</ele><time>2026-04-10T17:41:15Z</time></trkpt><trkpt lat="39.55056012308337" lon="8.59199966730843"><ele>384.25</ele><time>2026-04-10T17:41:16Z</time></trkpt><trkpt lat="39.550619722011234" lon="8.592149536623712"><ele>387.5</ele><time>2026-04-10T17:41:17Z</time></trkpt><trkpt lat="39.550661263382906" lon="8.59230515313839"><ele>390.75</ele><time>2026-04-10T17:41:18Z</time></trkpt><trkpt lat="39.5506826599663" lon="8.592482129723019"><ele>394.0</ele><time>2026-04-10T17:41:19Z</time></trkpt><trkpt lat="39.550688770318416" lon="8.592683522909685"><ele>393.5</ele><time>2026-04-10T17:41:20Z</time></trkpt><trkpt lat="39.550691676656065" lon="8.59288596598212"><ele>393.0</ele><time>2026-04-10T17:41:21Z</time></trkpt><trkpt lat="39.55071674403608" lon="8.593080090366719"><ele>392.5</ele><time>2026-04-10T17:41:22Z</time></trkpt><trkpt lat="39.55071436129083" lon="8.593257791330391"><ele>392.0</ele><time>2026-04-10T17:41:23Z</time></trkpt><trkpt lat="39.55070094087473" lon="8.59342449954722"><ele>392.0</ele><time>2026-04-10T17:41:24Z</time></trkpt><trkpt lat="39.550665172334604" lon="8.59357395760677"><ele>392.0</ele><time>2026-04-10T17:41:25Z</time></trkpt><trkpt lat="39.550607105583225" lon="8.593717900066581"><ele>392.0</ele><time>2026-04-10T17:41:26Z</time></trkpt><trkpt lat="39.550530145909235" lon="8.59385116512159"><ele>392.0</ele><time>2026-04-10T17:41:27Z</time></trkpt><trkpt lat="39.550424046555676" lon="8.593975351601125"><ele>397.66666666666663</ele><time>2026-04-10T17:41:28Z</time></trkpt><trkpt lat="39.55028606529565" lon="8.594102718987337"><ele>403.33333333333337</ele><time>2026-04-10T17:41:29Z</time></trkpt><trkpt lat="39.550126031526446" lon="8.59423571353986"><ele>409.0</ele><time>2026-04-10T17:41:30Z</time></trkpt><trkpt lat="39.54996639643106" lon="8.594373918206308"><ele>410.33333333333337</ele><time>2026-04-10T17:41:31Z</time></trkpt><trkpt lat="39.54981708777695" lon="8.594510135581398"><ele>411.66666666666663</ele><time>2026-04-10T17:41:32Z</time></trkpt><trkpt lat="39.54965959606989" lon="8.59463463985878"><ele>413.0</ele><time>2026-04-10T17:41:33Z</time></trkpt><trkpt lat="39.54953948363573" lon="8.594810301849849"><ele>413.0</ele><time>2026-04-10T17:41:34Z</time></trkpt><trkpt lat="39.549418055103" lon="8.594969128382731"><ele>413.0</ele><time>2026-04-10T17:41:35Z</time></trkpt><trkpt lat="39.54926608838863" lon="8.595084644894802"><ele>413.0</ele><time>2026-04-10T17:41:36Z</time></trkpt><trkpt lat="39.54910666110083" lon="8.595225782981528"><ele>415.3333333333333</ele><time>2026-04-10T17:41:37Z</time></trkpt><trkpt lat="39.548935781654066" lon="8.595343957930035"><ele>417.66666666666663</ele><time>2026-04-10T17:41:38Z</time></trkpt><trkpt lat="39.548771997387234" lon="8.595468097583316"><ele>420.0</ele><time>2026-04-10T17:41:39Z</time></trkpt><trkpt lat="39.54862125508917" lon="8.595589772806377"><ele>420.0</ele><time>2026-04-10T17:41:40Z</time></trkpt><trkpt lat="39.54848334366725" lon="8.59570978889101"><ele>420.0</ele><time>2026-04-10T17:41:41Z</time></trkpt><trkpt lat="39.54837148301651" lon="8.595891171932438"><ele>420.0</ele><time>2026-04-10T17:41:42Z</time></trkpt><trkpt lat="39.5482905718325" lon="8.596098441849682"><ele>412.66666666666663</ele><time>2026-04-10T17:41:43Z</time></trkpt><trkpt lat="39.54818960716482" lon="8.596263216839123"><ele>405.3333333333333</ele><time>2026-04-10T17:41:44Z</time></trkpt><trkpt lat="39.54808321939187" lon="8.59640397036623"><ele>398.0</ele><time>2026-04-10T17:41:45Z</time></trkpt><trkpt lat="39.54796858243132" lon="8.596545223737749"><ele>402.5</ele><time>2026-04-10T17:41:46Z</time></trkpt><trkpt lat="39.547851901926876" lon="8.596618253647037"><ele>407.0</ele><time>2026-04-10T17:41:47Z</time></trkpt><trkpt lat="39.54774318698117" lon="8.596632910969205"><ele>411.5</ele><time>2026-04-10T17:41:48Z</time></trkpt><trkpt lat="39.54761465328711" lon="8.596605249805682"><ele>416.0</ele><time>2026-04-10T17:41:49Z</time></trkpt><trkpt lat="39.54746705450241" lon="8.596548630914928"><ele>416.0</ele><time>2026-04-10T17:41:50Z</time></trkpt><trkpt lat="39.54732433245034" lon="8.596497121443544"><ele>416.0</ele><time>2026-04-10T17:41:51Z</time></trkpt><trkpt lat="39.54720597634177" lon="8.596475659579394"><ele>416.0</ele><time>2026-04-10T17:41:52Z</time></trkpt><trkpt lat="39.54710200878416" lon="8.596500188228498"><ele>416.0</ele><time>2026-04-10T17:41:53Z</time></trkpt><trkpt lat="39.546992246281604" lon="8.596558368964947"><ele>420.75</ele><time>2026-04-10T17:41:54Z</time></trkpt><trkpt lat="39.54690976150099" lon="8.596707970542715"><ele>425.5</ele><time>2026-04-10T17:41:55Z</time></trkpt><trkpt lat="39.54681819193027" lon="8.596842521322216"><ele>430.25</ele><time>2026-04-10T17:41:56Z</time></trkpt><trkpt lat="39.546711906159175" lon="8.596938081636177"><ele>435.0</ele><time>2026-04-10T17:41:57Z</time></trkpt><trkpt lat="39.54657741550527" lon="8.597000715050042"><ele>436.33333333333337</ele><time>2026-04-10T17:41:58Z</time></trkpt><trkpt lat="39.54641405419068" lon="8.59702564771501"><ele>437.6666666666667</ele><time>2026-04-10T17:41:59Z</time></trkpt><trkpt lat="39.54626202636457" lon="8.597073560725253"><ele>439.0</ele><time>2026-04-10T17:42:00Z</time></trkpt><trkpt lat="39.546130722891654" lon="8.597100583370832"><ele>439.0</ele><time>2026-04-10T17:42:01Z</time></trkpt><trkpt lat="39.54601108350822" lon="8.597123106125032"><ele>439.0</ele><time>2026-04-10T17:42:02Z</time></trkpt><trkpt lat="39.54591884489839" lon="8.597219279577915"><ele>439.0</ele><time>2026-04-10T17:42:03Z</time></trkpt><trkpt lat="39.54585299547011" lon="8.597363361677514"><ele>439.0</ele><time>2026-04-10T17:42:04Z</time></trkpt><trkpt lat="39.545852512832525" lon="8.597580940133458"><ele>439.0</ele><time>2026-04-10T17:42:05Z</time></trkpt><trkpt lat="39.5458511773172" lon="8.597792425712438"><ele>439.0</ele><time>2026-04-10T17:42:06Z</time></trkpt><trkpt lat="39.54585049546096" lon="8.59798816898054"><ele>439.0</ele><time>2026-04-10T17:42:07Z</time></trkpt><trkpt lat="39.54584967372484" lon="8.598148445135248"><ele>439.0</ele><time>2026-04-10T17:42:08Z</time></trkpt><trkpt lat="39.545829191080884" lon="8.598289238291546"><ele>436.75</ele><time>2026-04-10T17:42:09Z</time></trkpt><trkpt lat="39.5457708743216" lon="8.59839917475176"><ele>434.5</ele><time>2026-04-10T17:42:10Z</time></trkpt><trkpt lat="39.54566591217955" lon="8.598505570295137"><ele>432.25</ele><time>2026-04-10T17:42:11Z</time></trkpt><trkpt lat="39.54554399506617" lon="8.598622266420188"><ele>430.0</ele><time>2026-04-10T17:42:12Z</time></trkpt><trkpt lat="39.54545160751255" lon="8.59871183052771"><ele>430.5</ele><time>2026-04-10T17:42:13Z</time></trkpt><trkpt lat="39.54534286501623" lon="8.598726753524469"><ele>431.0</ele><time>2026-04-10T17:42:14Z</time></trkpt><trkpt lat="39.545227497751576" lon="8.598674710378653"><ele>431.5</ele><time>2026-04-10T17:42:15Z</time></trkpt><trkpt lat="39.545098864641076" lon="8.59858044591291"><ele>432.0</ele><time>2026-04-10T17:42:16Z</time></trkpt><trkpt lat="39.54497755832449" lon="8.598543126686135"><ele>432.0</ele><time>2026-04-10T17:42:17Z</time></trkpt><trkpt lat="39.54486668095193" lon="8.598560117265292"><ele>432.0</ele><time>2026-04-10T17:42:18Z</time></trkpt><trkpt lat="39.54474858773808" lon="8.59862699519066"><ele>432.0</ele><time>2026-04-10T17:42:19Z</time></trkpt><trkpt lat="39.54463348575566" lon="8.598752754952665"><ele>432.0</ele><time>2026-04-10T17:42:20Z</time></trkpt><trkpt lat="39.54454322554704" lon="8.598902463459636"><ele>444.0</ele><time>2026-04-10T17:42:21Z</time></trkpt><trkpt lat="39.54450237824009" lon="8.599111748409761"><ele>456.0</ele><time>2026-04-10T17:42:22Z</time></trkpt><trkpt lat="39.54446540289589" lon="8.599340335599017"><ele>468.0</ele><time>2026-04-10T17:42:23Z</time></trkpt><trkpt lat="39.54442924791847" lon="8.599577126593532"><ele>468.0</ele><time>2026-04-10T17:42:24Z</time></trkpt><trkpt lat="39.54440190396185" lon="8.599818366784685"><ele>468.0</ele><time>2026-04-10T17:42:25Z</time></trkpt><trkpt lat="39.54440113840667" lon="8.600082264232915"><ele>468.0</ele><time>2026-04-10T17:42:26Z</time></trkpt><trkpt lat="39.54440344851839" lon="8.600348687464393"><ele>464.66666666666663</ele><time>2026-04-10T17:42:27Z</time></trkpt><trkpt lat="39.544406081056565" lon="8.60059919947398"><ele>461.3333333333333</ele><time>2026-04-10T17:42:28Z</time></trkpt><trkpt lat="39.54440733841502" lon="8.600804065584233"><ele>458.0</ele><time>2026-04-10T17:42:29Z</time></trkpt><trkpt lat="39.544398530358144" lon="8.600952737903503"><ele>458.0</ele><time>2026-04-10T17:42:30Z</time></trkpt><trkpt lat="39.544360302977054" lon="8.601069663615956"><ele>457.99999999999994</ele><time>2026-04-10T17:42:31Z</time></trkpt><trkpt lat="39.54429076639492" lon="8.601130822627878"><ele>457.99999999999994</ele><time>2026-04-10T17:42:32Z</time></trkpt><trkpt lat="39.54419287960387" lon="8.601183487667264"><ele>458.0</ele><time>2026-04-10T17:42:33Z</time></trkpt><trkpt lat="39.54405192864255" lon="8.601178248013527"><ele>458.0</ele><time>2026-04-10T17:42:34Z</time></trkpt><trkpt lat="39.54391034630077" lon="8.601162095766725"><ele>459.25</ele><time>2026-04-10T17:42:35Z</time></trkpt><trkpt lat="39.54378680286069" lon="8.601199657594481"><ele>460.5</ele><time>2026-04-10T17:42:36Z</time></trkpt><trkpt lat="39.54366735354332" lon="8.601278615951532"><ele>461.75</ele><time>2026-04-10T17:42:37Z</time></trkpt><trkpt lat="39.54358081603039" lon="8.601451147989314"><ele>463.0</ele><time>2026-04-10T17:42:38Z</time></trkpt><trkpt lat="39.54353140980918" lon="8.601629089931112"><ele>463.0</ele><time>2026-04-10T17:42:39Z</time></trkpt><trkpt lat="39.54346325774568" lon="8.601769376829548"><ele>463.0</ele><time>2026-04-10T17:42:40Z</time></trkpt><trkpt lat="39.54338760984136" lon="8.601879577551408"><ele>463.0</ele><time>2026-04-10T17:42:41Z</time></trkpt><trkpt lat="39.54329396661882" lon="8.601980328625753"><ele>463.0</ele><time>2026-04-10T17:42:42Z</time></trkpt><trkpt lat="39.54316790576974" lon="8.602030431651336"><ele>464.0</ele><time>2026-04-10T17:42:43Z</time></trkpt><trkpt lat="39.543028108417296" lon="8.6020574710136"><ele>465.0</ele><time>2026-04-10T17:42:44Z</time></trkpt><trkpt lat="39.542876572388614" lon="8.602072001039046"><ele>466.0</ele><time>2026-04-10T17:42:45Z</time></trkpt><trkpt lat="39.54271077654697" lon="8.602081126321837"><ele>466.0</ele><time>2026-04-10T17:42:46Z</time></trkpt><trkpt lat="39.542539259565984" lon="8.602085865191304"><ele>466.0</ele><time>2026-04-10T17:42:47Z</time></trkpt><trkpt lat="39.54236652510861" lon="8.602069140295907"><ele>466.0</ele><time>2026-04-10T17:42:48Z</time></trkpt><trkpt lat="39.54218721249075" lon="8.602035802924451"><ele>459.6666666666667</ele><time>2026-04-10T17:42:49Z</time></trkpt><trkpt lat="39.5420020976962" lon="8.601988897418867"><ele>453.33333333333337</ele><time>2026-04-10T17:42:50Z</time></trkpt><trkpt lat="39.54182077073848" lon="8.601936925775743"><ele>447.0</ele><time>2026-04-10T17:42:51Z</time></trkpt><trkpt lat="39.54164932369262" lon="8.60187443023881"><ele>447.0</ele><time>2026-04-10T17:42:52Z</time></trkpt><trkpt lat="39.54148302989017" lon="8.601814161000268"><ele>447.0</ele><time>2026-04-10T17:42:53Z</time></trkpt><trkpt lat="39.541320840378084" lon="8.601759286296833"><ele>447.0</ele><time>2026-04-10T17:42:54Z</time></trkpt><trkpt lat="39.54116070567603" lon="8.60170622042048"><ele>445.0</ele><time>2026-04-10T17:42:55Z</time></trkpt><trkpt lat="39.54100298148256" lon="8.601663344094053"><ele>443.0</ele><time>2026-04-10T17:42:56Z</time></trkpt><trkpt lat="39.540846676658425" lon="8.601646994336628"><ele>441.0</ele><time>2026-04-10T17:42:57Z</time></trkpt><trkpt lat="39.540690364104215" lon="8.601641833348419"><ele>441.0</ele><time>2026-04-10T17:42:58Z</time></trkpt><trkpt lat="39.54053190258441" lon="8.601659829033466"><ele>441.0</ele><time>2026-04-10T17:42:59Z</time></trkpt><trkpt lat="39.540370636793504" lon="8.601703184462234"><ele>441.0</ele><time>2026-04-10T17:43:00Z</time></trkpt><trkpt lat="39.54019735182538" lon="8.601753415739692"><ele>438.33333333333337</ele><time>2026-04-10T17:43:01Z</time></trkpt><trkpt lat="39.540021141058475" lon="8.601792823229808"><ele>435.6666666666667</ele><time>2026-04-10T17:43:02Z</time></trkpt><trkpt lat="39.539850520240975" lon="8.601797726574622"><ele>433.0</ele><time>2026-04-10T17:43:03Z</time></trkpt><trkpt lat="39.53968558511179" lon="8.601828675525914"><ele>429.33333333333337</ele><time>2026-04-10T17:43:04Z</time></trkpt><trkpt lat="39.53953388308896" lon="8.601927018357486"><ele>425.66666666666663</ele><time>2026-04-10T17:43:05Z</time></trkpt><trkpt lat="39.53937693681743" lon="8.602025382002896"><ele>422.0</ele><time>2026-04-10T17:43:06Z</time></trkpt><trkpt lat="39.53920053615923" lon="8.602074392565829"><ele>429.3333333333333</ele><time>2026-04-10T17:43:07Z</time></trkpt><trkpt lat="39.53901576122052" lon="8.602111254029936"><ele>436.66666666666663</ele><time>2026-04-10T17:43:08Z</time></trkpt><trkpt lat="39.53882535625881" lon="8.602159271769535"><ele>444.0</ele><time>2026-04-10T17:43:09Z</time></trkpt><trkpt lat="39.53863897549767" lon="8.602171053147597"><ele>444.0</ele><time>2026-04-10T17:43:10Z</time></trkpt><trkpt lat="39.53846209373583" lon="8.602190772449866"><ele>444.0</ele><time>2026-04-10T17:43:11Z</time></trkpt><trkpt lat="39.538290975041875" lon="8.602218681643471"><ele>444.0</ele><time>2026-04-10T17:43:12Z</time></trkpt><trkpt lat="39.53811892970824" lon="8.602298388551707"><ele>444.0</ele><time>2026-04-10T17:43:13Z</time></trkpt><trkpt lat="39.53794399136108" lon="8.602386136632317"><ele>444.0</ele><time>2026-04-10T17:43:14Z</time></trkpt><trkpt lat="39.53777690809079" lon="8.602501361482888"><ele>444.0</ele><time>2026-04-10T17:43:15Z</time></trkpt><trkpt lat="39.537607122012155" lon="8.602587558149809"><ele>437.66666666666663</ele><time>2026-04-10T17:43:16Z</time></trkpt><trkpt lat="39.537433414148204" lon="8.602624492103827"><ele>431.3333333333333</ele><time>2026-04-10T17:43:17Z</time></trkpt><trkpt lat="39.53726218803122" lon="8.60267985807636"><ele>425.0</ele><time>2026-04-10T17:43:18Z</time></trkpt><trkpt lat="39.53710593307846" lon="8.602751369962904"><ele>427.25</ele><time>2026-04-10T17:43:19Z</time></trkpt><trkpt lat="39.53696272861826" lon="8.60284895507816"><ele>429.5</ele><time>2026-04-10T17:43:20Z</time></trkpt><trkpt lat="39.536837993392595" lon="8.602965899718585"><ele>431.75</ele><time>2026-04-10T17:43:21Z</time></trkpt><trkpt lat="39.536715539479665" lon="8.603034957073545"><ele>434.0</ele><time>2026-04-10T17:43:22Z</time></trkpt><trkpt lat="39.53658989316603" lon="8.603062001770196"><ele>434.0</ele><time>2026-04-10T17:43:23Z</time></trkpt><trkpt lat="39.53646263491975" lon="8.603037903105271"><ele>434.0</ele><time>2026-04-10T17:43:24Z</time></trkpt><trkpt lat="39.53632654358424" lon="8.602970064091766"><ele>434.0</ele><time>2026-04-10T17:43:25Z</time></trkpt><trkpt lat="39.536176047804375" lon="8.602872212051727"><ele>434.0</ele><time>2026-04-10T17:43:26Z</time></trkpt><trkpt lat="39.536021739460985" lon="8.60277229836831"><ele>425.3333333333333</ele><time>2026-04-10T17:43:27Z</time></trkpt><trkpt lat="39.53587247211096" lon="8.60268123925196"><ele>416.66666666666663</ele><time>2026-04-10T17:43:28Z</time></trkpt><trkpt lat="39.535729400496066" lon="8.602609791108609"><ele>408.0</ele><time>2026-04-10T17:43:29Z</time></trkpt><trkpt lat="39.535585155541455" lon="8.602566439166116"><ele>408.0</ele><time>2026-04-10T17:43:30Z</time></trkpt><trkpt lat="39.535441435657084" lon="8.60255030462716"><ele>408.0</ele><time>2026-04-10T17:43:31Z</time></trkpt><trkpt lat="39.535321115719015" lon="8.60251987569395"><ele>408.0</ele><time>2026-04-10T17:43:32Z</time></trkpt><trkpt lat="39.535214105137115" lon="8.602433019372164"><ele>408.0</ele><time>2026-04-10T17:43:33Z</time></trkpt><trkpt lat="39.53510194864446" lon="8.602296571001538"><ele>411.66666666666663</ele><time>2026-04-10T17:43:34Z</time></trkpt><trkpt lat="39.53498136184001" lon="8.602129229184293"><ele>415.3333333333333</ele><time>2026-04-10T17:43:35Z</time></trkpt><trkpt lat="39.53485168319049" lon="8.60198291486487"><ele>419.0</ele><time>2026-04-10T17:43:36Z</time></trkpt><trkpt lat="39.53471086722218" lon="8.601841425508164"><ele>416.0</ele><time>2026-04-10T17:43:37Z</time></trkpt><trkpt lat="39.53456299453346" lon="8.60169369953281"><ele>413.0</ele><time>2026-04-10T17:43:38Z</time></trkpt><trkpt lat="39.534367957489366" lon="8.601591642574554"><ele>410.0</ele><time>2026-04-10T17:43:39Z</time></trkpt><trkpt lat="39.53417362975849" lon="8.60147560426522"><ele>410.0</ele><time>2026-04-10T17:43:40Z</time></trkpt><trkpt lat="39.53398322548655" lon="8.601366162561384"><ele>410.0</ele><time>2026-04-10T17:43:41Z</time></trkpt><trkpt lat="39.53380215917958" lon="8.601261615246504"><ele>410.0</ele><time>2026-04-10T17:43:42Z</time></trkpt><trkpt lat="39.533626686310306" lon="8.601158493351624"><ele>402.0</ele><time>2026-04-10T17:43:43Z</time></trkpt><trkpt lat="39.53345707509153" lon="8.601057166168657"><ele>394.0</ele><time>2026-04-10T17:43:44Z</time></trkpt><trkpt lat="39.53329294147519" lon="8.600949187927426"><ele>386.0</ele><time>2026-04-10T17:43:45Z</time></trkpt><trkpt lat="39.53312279235469" lon="8.600873305238144"><ele>386.0</ele><time>2026-04-10T17:43:46Z</time></trkpt><trkpt lat="39.532949173930895" lon="8.600831441487477"><ele>386.0</ele><time>2026-04-10T17:43:47Z</time></trkpt><trkpt lat="39.532778743522194" lon="8.600807017761735"><ele>386.0</ele><time>2026-04-10T17:43:48Z</time></trkpt><trkpt lat="39.53262188161711" lon="8.60075198186804"><ele>386.66666666666663</ele><time>2026-04-10T17:43:49Z</time></trkpt><trkpt lat="39.53247662005821" lon="8.600667316440125"><ele>387.33333333333337</ele><time>2026-04-10T17:43:50Z</time></trkpt><trkpt lat="39.53233825600756" lon="8.600603444097299"><ele>388.0</ele><time>2026-04-10T17:43:51Z</time></trkpt><trkpt lat="39.532194338181284" lon="8.600576577426708"><ele>386.0</ele><time>2026-04-10T17:43:52Z</time></trkpt><trkpt lat="39.5320387269172" lon="8.600596328308365"><ele>384.0</ele><time>2026-04-10T17:43:53Z</time></trkpt><trkpt lat="39.5318695681136" lon="8.600629092468873"><ele>382.0</ele><time>2026-04-10T17:43:54Z</time></trkpt><trkpt lat="39.53171185031702" lon="8.600662772648132"><ele>382.0</ele><time>2026-04-10T17:43:55Z</time></trkpt><trkpt lat="39.531560298362294" lon="8.600694100522734"><ele>382.0</ele><time>2026-04-10T17:43:56Z</time></trkpt><trkpt lat="39.53141554969045" lon="8.600739193563301"><ele>382.0</ele><time>2026-04-10T17:43:57Z</time></trkpt><trkpt lat="39.53127212814964" lon="8.600789497938244"><ele>377.0</ele><time>2026-04-10T17:43:58Z</time></trkpt><trkpt lat="39.53113074459417" lon="8.600858712062672"><ele>372.0</ele><time>2026-04-10T17:43:59Z</time></trkpt><trkpt lat="39.530983538028536" lon="8.600894143434388"><ele>367.0</ele><time>2026-04-10T17:44:00Z</time></trkpt><trkpt lat="39.53083364327046" lon="8.600898617409946"><ele>367.0</ele><time>2026-04-10T17:44:01Z</time></trkpt><trkpt lat="39.53068491949205" lon="8.600918706790518"><ele>367.0</ele><time>2026-04-10T17:44:02Z</time></trkpt><trkpt lat="39.53053650779763" lon="8.600938005565483"><ele>367.0</ele><time>2026-04-10T17:44:03Z</time></trkpt><trkpt lat="39.53039022469754" lon="8.600958593179069"><ele>367.0</ele><time>2026-04-10T17:44:04Z</time></trkpt><trkpt lat="39.530246079239504" lon="8.600995205234414"><ele>366.5</ele><time>2026-04-10T17:44:05Z</time></trkpt><trkpt lat="39.530116567373085" lon="8.601071014403923"><ele>366.0</ele><time>2026-04-10T17:44:06Z</time></trkpt><trkpt lat="39.52999484545922" lon="8.6011545263887"><ele>365.5</ele><time>2026-04-10T17:44:07Z</time></trkpt><trkpt lat="39.52987179783382" lon="8.6012395475711"><ele>365.0</ele><time>2026-04-10T17:44:08Z</time></trkpt><trkpt lat="39.52976664918076" lon="8.601347817781853"><ele>365.0</ele><time>2026-04-10T17:44:09Z</time></trkpt><trkpt lat="39.52966972570873" lon="8.601467674339414"><ele>365.0</ele><time>2026-04-10T17:44:10Z</time></trkpt><trkpt lat="39.52958457667214" lon="8.601594470183883"><ele>365.0</ele><time>2026-04-10T17:44:11Z</time></trkpt><trkpt lat="39.52950574433805" lon="8.601723584674628"><ele>365.0</ele><time>2026-04-10T17:44:12Z</time></trkpt><trkpt lat="39.529432154334025" lon="8.60185653117125"><ele>359.75</ele><time>2026-04-10T17:44:13Z</time></trkpt><trkpt lat="39.5293702779126" lon="8.601998087839723"><ele>354.5</ele><time>2026-04-10T17:44:14Z</time></trkpt><trkpt lat="39.52931655694759" lon="8.602134648293369"><ele>349.25</ele><time>2026-04-10T17:44:15Z</time></trkpt><trkpt lat="39.52926654981823" lon="8.602273050764326"><ele>344.0</ele><time>2026-04-10T17:44:16Z</time></trkpt><trkpt lat="39.529231505331026" lon="8.602425225964758"><ele>344.0</ele><time>2026-04-10T17:44:17Z</time></trkpt><trkpt lat="39.52922416061628" lon="8.602578518382932"><ele>344.0</ele><time>2026-04-10T17:44:18Z</time></trkpt><trkpt lat="39.52921591505256" lon="8.602722465887336"><ele>344.0</ele><time>2026-04-10T17:44:19Z</time></trkpt><trkpt lat="39.529189987270165" lon="8.60285923644189"><ele>344.0</ele><time>2026-04-10T17:44:20Z</time></trkpt><trkpt lat="39.529152876958186" lon="8.602952644100407"><ele>344.0</ele><time>2026-04-10T17:44:21Z</time></trkpt><trkpt lat="39.529105673092836" lon="8.603054574037833"><ele>344.6</ele><time>2026-04-10T17:44:23Z</time></trkpt><trkpt lat="39.52903569711725" lon="8.603189402030724"><ele>345.2</ele><time>2026-04-10T17:44:25Z</time></trkpt><trkpt lat="39.52898500436466" lon="8.603285675881954"><ele>345.8</ele><time>2026-04-10T17:44:26Z</time></trkpt><trkpt lat="39.52893452760567" lon="8.603381539516944"><ele>346.40000000000003</ele><time>2026-04-10T17:44:27Z</time></trkpt><trkpt lat="39.528905911827714" lon="8.603492629310525"><ele>347.0</ele><time>2026-04-10T17:44:28Z</time></trkpt><trkpt lat="39.52885666772748" lon="8.603587074436094"><ele>347.0</ele><time>2026-04-10T17:44:29Z</time></trkpt><trkpt lat="39.52880612684832" lon="8.60368148033837"><ele>347.0</ele><time>2026-04-10T17:44:30Z</time></trkpt><trkpt lat="39.52876167364212" lon="8.603785223980205"><ele>347.0</ele><time>2026-04-10T17:44:31Z</time></trkpt><trkpt lat="39.528714660622896" lon="8.6038977190646"><ele>347.0</ele><time>2026-04-10T17:44:32Z</time></trkpt><trkpt lat="39.52862442644367" lon="8.603990867228982"><ele>347.0</ele><time>2026-04-10T17:44:33Z</time></trkpt><trkpt lat="39.52856661037945" lon="8.604111190838792"><ele>344.5</ele><time>2026-04-10T17:44:34Z</time></trkpt><trkpt lat="39.52851241506395" lon="8.604218362281747"><ele>342.0</ele><time>2026-04-10T17:44:35Z</time></trkpt><trkpt lat="39.528456474367495" lon="8.604310222120947"><ele>339.5</ele><time>2026-04-10T17:44:36Z</time></trkpt><trkpt lat="39.5284013086801" lon="8.604372374833975"><ele>337.0</ele><time>2026-04-10T17:44:37Z</time></trkpt><trkpt lat="39.528313096810116" lon="8.604431743786902"><ele>334.5</ele><time>2026-04-10T17:44:39Z</time></trkpt><trkpt lat="39.52824080447624" lon="8.60441903091595"><ele>332.0</ele><time>2026-04-10T17:44:41Z</time></trkpt><trkpt lat="39.528116641026834" lon="8.60441286516176"><ele>332.0</ele><time>2026-04-10T17:44:43Z</time></trkpt><trkpt lat="39.52803994473975" lon="8.604479477743302"><ele>332.0</ele><time>2026-04-10T17:44:44Z</time></trkpt><trkpt lat="39.52797066586687" lon="8.604555697526159"><ele>332.0</ele><time>2026-04-10T17:44:45Z</time></trkpt><trkpt lat="39.527899169651405" lon="8.604637387920539"><ele>332.0</ele><time>2026-04-10T17:44:46Z</time></trkpt><trkpt lat="39.527827723950764" lon="8.604724062916354"><ele>332.0</ele><time>2026-04-10T17:44:47Z</time></trkpt><trkpt lat="39.52776005383756" lon="8.604806508350102"><ele>332.20000000000005</ele><time>2026-04-10T17:44:48Z</time></trkpt><trkpt lat="39.52770178483678" lon="8.604879508774259"><ele>332.4</ele><time>2026-04-10T17:44:49Z</time></trkpt><trkpt lat="39.527618909868636" lon="8.604966616227172"><ele>332.6</ele><time>2026-04-10T17:44:51Z</time></trkpt><trkpt lat="39.52748813360814" lon="8.604937390747844"><ele>332.79999999999995</ele><time>2026-04-10T17:44:53Z</time></trkpt><trkpt lat="39.52741042971885" lon="8.604887421115619"><ele>333.0</ele><time>2026-04-10T17:44:54Z</time></trkpt><trkpt lat="39.52732590797908" lon="8.604840214474114"><ele>333.0</ele><time>2026-04-10T17:44:55Z</time></trkpt><trkpt lat="39.52724423515522" lon="8.604801543655784"><ele>333.0</ele><time>2026-04-10T17:44:56Z</time></trkpt><trkpt lat="39.52717619818392" lon="8.604764799638835"><ele>333.0</ele><time>2026-04-10T17:44:57Z</time></trkpt><trkpt lat="39.52706264832224" lon="8.60475826593842"><ele>333.0</ele><time>2026-04-10T17:44:59Z</time></trkpt><trkpt lat="39.52698031414675" lon="8.60478453870331"><ele>333.0</ele><time>2026-04-10T17:45:00Z</time></trkpt><trkpt lat="39.52692265482045" lon="8.604913220838116"><ele>332.0</ele><time>2026-04-10T17:45:01Z</time></trkpt><trkpt lat="39.52683259956342" lon="8.605048597138046"><ele>331.0</ele><time>2026-04-10T17:45:02Z</time></trkpt><trkpt lat="39.52675864030187" lon="8.605164503431103"><ele>330.0</ele><time>2026-04-10T17:45:03Z</time></trkpt><trkpt lat="39.5266765755716" lon="8.605293111998217"><ele>329.0</ele><time>2026-04-10T17:45:04Z</time></trkpt><trkpt lat="39.52660181778549" lon="8.605441977152314"><ele>329.0</ele><time>2026-04-10T17:45:05Z</time></trkpt><trkpt lat="39.526514245893274" lon="8.60557612705796"><ele>329.0</ele><time>2026-04-10T17:45:06Z</time></trkpt><trkpt lat="39.526432762286284" lon="8.605700643740713"><ele>329.0</ele><time>2026-04-10T17:45:07Z</time></trkpt><trkpt lat="39.526351053410124" lon="8.605800049700665"><ele>329.0</ele><time>2026-04-10T17:45:08Z</time></trkpt><trkpt lat="39.526254970299625" lon="8.605868935213635"><ele>329.2</ele><time>2026-04-10T17:45:09Z</time></trkpt><trkpt lat="39.526139868776724" lon="8.605869705016264"><ele>329.4</ele><time>2026-04-10T17:45:10Z</time></trkpt><trkpt lat="39.52603282717469" lon="8.605854453957141"><ele>329.6</ele><time>2026-04-10T17:45:11Z</time></trkpt><trkpt lat="39.525937243718296" lon="8.605853454991442"><ele>329.8</ele><time>2026-04-10T17:45:12Z</time></trkpt><trkpt lat="39.52585021739997" lon="8.605826526406034"><ele>330.0</ele><time>2026-04-10T17:45:13Z</time></trkpt><trkpt lat="39.5257727210348" lon="8.605795312763323"><ele>330.0</ele><time>2026-04-10T17:45:14Z</time></trkpt><trkpt lat="39.525705463377655" lon="8.605759960332392"><ele>330.0</ele><time>2026-04-10T17:45:15Z</time></trkpt><trkpt lat="39.52564801471294" lon="8.605713243971216"><ele>330.0</ele><time>2026-04-10T17:45:16Z</time></trkpt><trkpt lat="39.52557044049179" lon="8.605611804394059"><ele>330.0</ele><time>2026-04-10T17:45:18Z</time></trkpt><trkpt lat="39.52552824699148" lon="8.605534508940643"><ele>330.0</ele><time>2026-04-10T17:45:20Z</time></trkpt><trkpt lat="39.52548242685653" lon="8.605472541635288"><ele>330.0</ele><time>2026-04-10T17:45:24Z</time></trkpt><trkpt lat="39.52544409956461" lon="8.605399866946698"><ele>328.6</ele><time>2026-04-10T17:45:26Z</time></trkpt><trkpt lat="39.52541763385074" lon="8.605300799125231"><ele>327.2</ele><time>2026-04-10T17:45:28Z</time></trkpt><trkpt lat="39.52545620744521" lon="8.605145051464795"><ele>325.79999999999995</ele><time>2026-04-10T17:45:30Z</time></trkpt><trkpt lat="39.52550811128523" lon="8.605036549937711"><ele>324.4</ele><time>2026-04-10T17:45:31Z</time></trkpt><trkpt lat="39.52554660751577" lon="8.60492207283272"><ele>323.0</ele><time>2026-04-10T17:45:32Z</time></trkpt><trkpt lat="39.52561659149206" lon="8.60476767342655"><ele>323.0</ele><time>2026-04-10T17:45:33Z</time></trkpt><trkpt lat="39.52566950695514" lon="8.604581066172099"><ele>323.0</ele><time>2026-04-10T17:45:34Z</time></trkpt><trkpt lat="39.52574797342745" lon="8.60440174336654"><ele>323.0</ele><time>2026-04-10T17:45:35Z</time></trkpt><trkpt lat="39.525821126442025" lon="8.604236900790386"><ele>322.6666666666667</ele><time>2026-04-10T17:45:36Z</time></trkpt><trkpt lat="39.525891181309944" lon="8.604069228485427"><ele>322.3333333333333</ele><time>2026-04-10T17:45:37Z</time></trkpt><trkpt lat="39.525960325957456" lon="8.603882429486806"><ele>322.0</ele><time>2026-04-10T17:45:38Z</time></trkpt><trkpt lat="39.52603137558937" lon="8.603686099551052"><ele>322.0</ele><time>2026-04-10T17:45:39Z</time></trkpt><trkpt lat="39.526105620118855" lon="8.603490695378415"><ele>322.0</ele><time>2026-04-10T17:45:40Z</time></trkpt><trkpt lat="39.52617365322768" lon="8.603309779362352"><ele>322.0</ele><time>2026-04-10T17:45:41Z</time></trkpt><trkpt lat="39.526237810863584" lon="8.603133545907411"><ele>319.75</ele><time>2026-04-10T17:45:42Z</time></trkpt><trkpt lat="39.52629427747944" lon="8.60298335622149"><ele>317.5</ele><time>2026-04-10T17:45:43Z</time></trkpt><trkpt lat="39.526344211237145" lon="8.602840298894202"><ele>315.25</ele><time>2026-04-10T17:45:44Z</time></trkpt><trkpt lat="39.52637702443726" lon="8.602710359285698"><ele>313.0</ele><time>2026-04-10T17:45:45Z</time></trkpt><trkpt lat="39.526390713020625" lon="8.602588034812758"><ele>312.2</ele><time>2026-04-10T17:45:46Z</time></trkpt><trkpt lat="39.526379389027376" lon="8.602479921870865"><ele>311.4</ele><time>2026-04-10T17:45:47Z</time></trkpt><trkpt lat="39.526349996228866" lon="8.602368250039369"><ele>310.59999999999997</ele><time>2026-04-10T17:45:48Z</time></trkpt><trkpt lat="39.52629571343852" lon="8.60224276522143"><ele>309.8</ele><time>2026-04-10T17:45:49Z</time></trkpt><trkpt lat="39.526242543996254" lon="8.602089034949497"><ele>309.0</ele><time>2026-04-10T17:45:50Z</time></trkpt><trkpt lat="39.526193312518096" lon="8.601931736783758"><ele>309.0</ele><time>2026-04-10T17:45:51Z</time></trkpt><trkpt lat="39.526161841651565" lon="8.601785149005115"><ele>309.0</ele><time>2026-04-10T17:45:52Z</time></trkpt><trkpt lat="39.52615201124262" lon="8.601652658710291"><ele>309.0</ele><time>2026-04-10T17:45:53Z</time></trkpt><trkpt lat="39.52613869273019" lon="8.601537826225401"><ele>309.0</ele><time>2026-04-10T17:45:54Z</time></trkpt><trkpt lat="39.52608993736134" lon="8.601449616383121"><ele>309.0</ele><time>2026-04-10T17:45:55Z</time></trkpt><trkpt lat="39.52601852494251" lon="8.601371396006439"><ele>309.0</ele><time>2026-04-10T17:45:56Z</time></trkpt><trkpt lat="39.525921793938984" lon="8.60128105637068"><ele>309.0</ele><time>2026-04-10T17:45:57Z</time></trkpt><trkpt lat="39.52582479883754" lon="8.60116956431909"><ele>309.0</ele><time>2026-04-10T17:45:58Z</time></trkpt><trkpt lat="39.52572070273532" lon="8.60107703667581"><ele>309.0</ele><time>2026-04-10T17:45:59Z</time></trkpt><trkpt lat="39.52560712572527" lon="8.600998927798964"><ele>307.0</ele><time>2026-04-10T17:46:00Z</time></trkpt><trkpt lat="39.52549533634445" lon="8.60091866520205"><ele>305.0</ele><time>2026-04-10T17:46:01Z</time></trkpt><trkpt lat="39.525397904619226" lon="8.600825308045554"><ele>303.0</ele><time>2026-04-10T17:46:02Z</time></trkpt><trkpt lat="39.52532027000058" lon="8.600710363865398"><ele>301.0</ele><time>2026-04-10T17:46:03Z</time></trkpt><trkpt lat="39.52527363747531" lon="8.600574323338032"><ele>300.6</ele><time>2026-04-10T17:46:04Z</time></trkpt><trkpt lat="39.52525750531795" lon="8.600436655018553"><ele>300.20000000000005</ele><time>2026-04-10T17:46:05Z</time></trkpt><trkpt lat="39.52525323937841" lon="8.600307158322517"><ele>299.79999999999995</ele><time>2026-04-10T17:46:06Z</time></trkpt><trkpt lat="39.525221377633144" lon="8.600206862377837"><ele>299.4</ele><time>2026-04-10T17:46:07Z</time></trkpt><trkpt lat="39.52514855048584" lon="8.600108833269088"><ele>299.0</ele><time>2026-04-10T17:46:08Z</time></trkpt><trkpt lat="39.525038518016444" lon="8.599995631942548"><ele>295.5</ele><time>2026-04-10T17:46:09Z</time></trkpt><trkpt lat="39.52492979616999" lon="8.599872464310875"><ele>292.0</ele><time>2026-04-10T17:46:10Z</time></trkpt><trkpt lat="39.52483515700542" lon="8.599740479668753"><ele>288.5</ele><time>2026-04-10T17:46:11Z</time></trkpt><trkpt lat="39.52476201334932" lon="8.59959765155155"><ele>285.0</ele><time>2026-04-10T17:46:12Z</time></trkpt><trkpt lat="39.524673464720706" lon="8.599503368597789"><ele>285.0</ele><time>2026-04-10T17:46:13Z</time></trkpt><trkpt lat="39.52459245376335" lon="8.599434401879158"><ele>285.0</ele><time>2026-04-10T17:46:14Z</time></trkpt><trkpt lat="39.524493890009346" lon="8.599405699814788"><ele>285.0</ele><time>2026-04-10T17:46:15Z</time></trkpt><trkpt lat="39.524364126854564" lon="8.599408313541392"><ele>285.0</ele><time>2026-04-10T17:46:16Z</time></trkpt><trkpt lat="39.52422676554627" lon="8.599384414868675"><ele>283.0</ele><time>2026-04-10T17:46:17Z</time></trkpt><trkpt lat="39.52408262527844" lon="8.59937265276614"><ele>281.0</ele><time>2026-04-10T17:46:18Z</time></trkpt><trkpt lat="39.523938767058965" lon="8.59936131448913"><ele>279.0</ele><time>2026-04-10T17:46:19Z</time></trkpt><trkpt lat="39.5237940086048" lon="8.599349905264631"><ele>277.0</ele><time>2026-04-10T17:46:20Z</time></trkpt><trkpt lat="39.523648553555574" lon="8.599337770508583"><ele>275.25</ele><time>2026-04-10T17:46:21Z</time></trkpt><trkpt lat="39.523506355489985" lon="8.599326760293758"><ele>273.5</ele><time>2026-04-10T17:46:22Z</time></trkpt><trkpt lat="39.523375179748804" lon="8.599277226971656"><ele>271.75</ele><time>2026-04-10T17:46:23Z</time></trkpt><trkpt lat="39.52323548394044" lon="8.599232628198177"><ele>270.0</ele><time>2026-04-10T17:46:24Z</time></trkpt><trkpt lat="39.52310580352226" lon="8.599133597489386"><ele>270.0</ele><time>2026-04-10T17:46:25Z</time></trkpt><trkpt lat="39.52299393350353" lon="8.599008440028229"><ele>270.0</ele><time>2026-04-10T17:46:26Z</time></trkpt><trkpt lat="39.522902971941946" lon="8.598893443720854"><ele>270.0</ele><time>2026-04-10T17:46:27Z</time></trkpt><trkpt lat="39.522833650286664" lon="8.598801805399626"><ele>270.0</ele><time>2026-04-10T17:46:28Z</time></trkpt><trkpt lat="39.52276912946028" lon="8.598755365135125"><ele>270.0</ele><time>2026-04-10T17:46:29Z</time></trkpt><trkpt lat="39.52270133533612" lon="8.598678726090075"><ele>267.75</ele><time>2026-04-10T17:46:31Z</time></trkpt><trkpt lat="39.52260935880811" lon="8.598742954674984"><ele>265.5</ele><time>2026-04-10T17:46:32Z</time></trkpt><trkpt lat="39.52250111398098" lon="8.598777429019766"><ele>263.25</ele><time>2026-04-10T17:46:33Z</time></trkpt><trkpt lat="39.52237066709395" lon="8.598760699788992"><ele>261.0</ele><time>2026-04-10T17:46:34Z</time></trkpt><trkpt lat="39.52225398140888" lon="8.598780545219014"><ele>261.0</ele><time>2026-04-10T17:46:35Z</time></trkpt><trkpt lat="39.52215121476245" lon="8.59884111435223"><ele>261.0</ele><time>2026-04-10T17:46:36Z</time></trkpt><trkpt lat="39.52206926781173" lon="8.598960650309113"><ele>261.0</ele><time>2026-04-10T17:46:37Z</time></trkpt><trkpt lat="39.52197534801883" lon="8.599061239191336"><ele>261.0</ele><time>2026-04-10T17:46:38Z</time></trkpt><trkpt lat="39.52188390586944" lon="8.599114106034516"><ele>260.75</ele><time>2026-04-10T17:46:39Z</time></trkpt><trkpt lat="39.521765340375296" lon="8.599100860208624"><ele>260.5</ele><time>2026-04-10T17:46:40Z</time></trkpt><trkpt lat="39.521627943491715" lon="8.599046549997812"><ele>260.25</ele><time>2026-04-10T17:46:41Z</time></trkpt><trkpt lat="39.52148167312856" lon="8.599000369263024"><ele>260.0</ele><time>2026-04-10T17:46:42Z</time></trkpt><trkpt lat="39.521338465097024" lon="8.598968057429838"><ele>260.5</ele><time>2026-04-10T17:46:43Z</time></trkpt><trkpt lat="39.52120788064378" lon="8.598884102505002"><ele>261.0</ele><time>2026-04-10T17:46:44Z</time></trkpt><trkpt lat="39.52107652755434" lon="8.598823623514331"><ele>261.5</ele><time>2026-04-10T17:46:45Z</time></trkpt><trkpt lat="39.520941672480376" lon="8.598783344458656"><ele>262.0</ele><time>2026-04-10T17:46:46Z</time></trkpt><trkpt lat="39.520801219033174" lon="8.59876577851433"><ele>262.0</ele><time>2026-04-10T17:46:47Z</time></trkpt><trkpt lat="39.520640192809566" lon="8.598764686195679"><ele>262.0</ele><time>2026-04-10T17:46:48Z</time></trkpt><trkpt lat="39.52046654001851" lon="8.598811305135023"><ele>262.0</ele><time>2026-04-10T17:46:49Z</time></trkpt><trkpt lat="39.52029583625854" lon="8.598825906855444"><ele>262.25</ele><time>2026-04-10T17:46:50Z</time></trkpt><trkpt lat="39.520135479535966" lon="8.598833166556634"><ele>262.5</ele><time>2026-04-10T17:46:51Z</time></trkpt><trkpt lat="39.51998606891275" lon="8.598840814840848"><ele>262.75</ele><time>2026-04-10T17:46:52Z</time></trkpt><trkpt lat="39.51985525284008" lon="8.598812705436133"><ele>263.0</ele><time>2026-04-10T17:46:53Z</time></trkpt><trkpt lat="39.519733079378874" lon="8.598819341403463"><ele>263.0</ele><time>2026-04-10T17:46:54Z</time></trkpt><trkpt lat="39.51962269613469" lon="8.598812023232586"><ele>263.0</ele><time>2026-04-10T17:46:55Z</time></trkpt><trkpt lat="39.519517890208654" lon="8.59877803338143"><ele>263.0</ele><time>2026-04-10T17:46:56Z</time></trkpt><trkpt lat="39.519421652114325" lon="8.598731596306745"><ele>263.0</ele><time>2026-04-10T17:46:57Z</time></trkpt><trkpt lat="39.51931946515638" lon="8.598698119942478"><ele>263.0</ele><time>2026-04-10T17:46:58Z</time></trkpt><trkpt lat="39.51923788995936" lon="8.598635806409845"><ele>258.6666666666667</ele><time>2026-04-10T17:46:59Z</time></trkpt><trkpt lat="39.51916070540418" lon="8.598575708868363"><ele>254.33333333333334</ele><time>2026-04-10T17:47:00Z</time></trkpt><trkpt lat="39.519092465707345" lon="8.598525159777648"><ele>250.0</ele><time>2026-04-10T17:47:01Z</time></trkpt><trkpt lat="39.51905217276411" lon="8.598461193693577"><ele>245.66666666666669</ele><time>2026-04-10T17:47:02Z</time></trkpt><trkpt lat="39.51897609788971" lon="8.598435370759457"><ele>241.33333333333334</ele><time>2026-04-10T17:47:04Z</time></trkpt><trkpt lat="39.518908246518905" lon="8.598394114751288"><ele>237.0</ele><time>2026-04-10T17:47:08Z</time></trkpt><trkpt lat="39.51886991396404" lon="8.598319609641592"><ele>237.0</ele><time>2026-04-10T17:47:10Z</time></trkpt><trkpt lat="39.51874375523876" lon="8.598369567770318"><ele>237.0</ele><time>2026-04-10T17:47:13Z</time></trkpt><trkpt lat="39.51872102208118" lon="8.598291350702345"><ele>237.0</ele><time>2026-04-10T17:50:31Z</time></trkpt><trkpt lat="39.51865074931198" lon="8.598246689977376"><ele>237.0</ele><time>2026-04-10T17:50:33Z</time></trkpt><trkpt lat="39.518588103158955" lon="8.598157268979264"><ele>237.0</ele><time>2026-04-10T17:50:36Z</time></trkpt><trkpt lat="39.51847743372724" lon="8.59802604496505"><ele>238.2</ele><time>2026-04-10T17:50:38Z</time></trkpt><trkpt lat="39.518408566228686" lon="8.597967093576209"><ele>239.39999999999998</ele><time>2026-04-10T17:50:39Z</time></trkpt><trkpt lat="39.51833903570085" lon="8.597916815165622"><ele>240.60000000000002</ele><time>2026-04-10T17:50:40Z</time></trkpt><trkpt lat="39.51826138347312" lon="8.59785097237061"><ele>241.8</ele><time>2026-04-10T17:50:41Z</time></trkpt><trkpt lat="39.51818995682604" lon="8.597768263521921"><ele>243.0</ele><time>2026-04-10T17:50:42Z</time></trkpt><trkpt lat="39.51812056683294" lon="8.59767035031234"><ele>240.8</ele><time>2026-04-10T17:50:43Z</time></trkpt><trkpt lat="39.51805075830659" lon="8.597557280178716"><ele>238.60000000000002</ele><time>2026-04-10T17:50:44Z</time></trkpt><trkpt lat="39.51797463245189" lon="8.59744497872124"><ele>236.39999999999998</ele><time>2026-04-10T17:50:45Z</time></trkpt><trkpt lat="39.51789316073284" lon="8.597350572790514"><ele>234.2</ele><time>2026-04-10T17:50:46Z</time></trkpt><trkpt lat="39.51779496623608" lon="8.5972906475166"><ele>232.0</ele><time>2026-04-10T17:50:47Z</time></trkpt><trkpt lat="39.51767636834921" lon="8.597269384348788"><ele>232.0</ele><time>2026-04-10T17:50:48Z</time></trkpt><trkpt lat="39.517554756033" lon="8.59729097397278"><ele>232.0</ele><time>2026-04-10T17:50:49Z</time></trkpt><trkpt lat="39.51744133535302" lon="8.597361743555272"><ele>232.0</ele><time>2026-04-10T17:50:50Z</time></trkpt><trkpt lat="39.51733883377959" lon="8.597467116478512"><ele>232.0</ele><time>2026-04-10T17:50:51Z</time></trkpt><trkpt lat="39.517231709169025" lon="8.597585402576255"><ele>232.0</ele><time>2026-04-10T17:50:52Z</time></trkpt><trkpt lat="39.51710885897887" lon="8.597662803724361"><ele>232.0</ele><time>2026-04-10T17:50:53Z</time></trkpt><trkpt lat="39.51698917852761" lon="8.597715647811192"><ele>232.0</ele><time>2026-04-10T17:50:54Z</time></trkpt><trkpt lat="39.516879990504606" lon="8.59776251615155"><ele>232.0</ele><time>2026-04-10T17:50:55Z</time></trkpt><trkpt lat="39.516788455754174" lon="8.597861321700966"><ele>231.5</ele><time>2026-04-10T17:50:56Z</time></trkpt><trkpt lat="39.51673070918145" lon="8.598012112076388"><ele>231.0</ele><time>2026-04-10T17:50:57Z</time></trkpt><trkpt lat="39.516685436403804" lon="8.598164089140177"><ele>230.5</ele><time>2026-04-10T17:50:58Z</time></trkpt><trkpt lat="39.51666880563316" lon="8.5983322643483"><ele>230.0</ele><time>2026-04-10T17:50:59Z</time></trkpt><trkpt lat="39.51666850824672" lon="8.598519827296458"><ele>231.5</ele><time>2026-04-10T17:51:00Z</time></trkpt><trkpt lat="39.516641525637525" lon="8.598693842190261"><ele>233.0</ele><time>2026-04-10T17:51:01Z</time></trkpt><trkpt lat="39.51659706175948" lon="8.598834674873114"><ele>234.5</ele><time>2026-04-10T17:51:02Z</time></trkpt><trkpt lat="39.51653753870185" lon="8.59895164752298"><ele>236.0</ele><time>2026-04-10T17:51:03Z</time></trkpt><trkpt lat="39.51645399293929" lon="8.599066447475577"><ele>236.0</ele><time>2026-04-10T17:51:04Z</time></trkpt><trkpt lat="39.51635264318353" lon="8.599185322670394"><ele>236.0</ele><time>2026-04-10T17:51:05Z</time></trkpt><trkpt lat="39.51625862554422" lon="8.599319533423147"><ele>236.0</ele><time>2026-04-10T17:51:06Z</time></trkpt><trkpt lat="39.516195104171885" lon="8.599508524632608"><ele>236.0</ele><time>2026-04-10T17:51:07Z</time></trkpt><trkpt lat="39.51612834386079" lon="8.599703736000029"><ele>234.0</ele><time>2026-04-10T17:51:08Z</time></trkpt><trkpt lat="39.51605943718021" lon="8.599868029551486"><ele>232.0</ele><time>2026-04-10T17:51:09Z</time></trkpt><trkpt lat="39.51595913859418" lon="8.599986417347258"><ele>230.0</ele><time>2026-04-10T17:51:10Z</time></trkpt><trkpt lat="39.51583769735929" lon="8.600099315587585"><ele>228.0</ele><time>2026-04-10T17:51:11Z</time></trkpt><trkpt lat="39.51570822289711" lon="8.600204811559841"><ele>228.0</ele><time>2026-04-10T17:51:12Z</time></trkpt><trkpt lat="39.515585450528825" lon="8.600328265994886"><ele>228.0</ele><time>2026-04-10T17:51:13Z</time></trkpt><trkpt lat="39.51545355786883" lon="8.600441319937289"><ele>228.0</ele><time>2026-04-10T17:51:14Z</time></trkpt><trkpt lat="39.51532828895448" lon="8.60057036180219"><ele>227.5</ele><time>2026-04-10T17:51:15Z</time></trkpt><trkpt lat="39.5152157592821" lon="8.600710090949981"><ele>227.0</ele><time>2026-04-10T17:51:16Z</time></trkpt><trkpt lat="39.51513685268347" lon="8.600854880901487"><ele>226.5</ele><time>2026-04-10T17:51:17Z</time></trkpt><trkpt lat="39.51510025487143" lon="8.600999218829685"><ele>226.0</ele><time>2026-04-10T17:51:18Z</time></trkpt><trkpt lat="39.51510296942875" lon="8.601169277832996"><ele>224.75</ele><time>2026-04-10T17:51:19Z</time></trkpt><trkpt lat="39.51513035125061" lon="8.601350983105046"><ele>223.5</ele><time>2026-04-10T17:51:20Z</time></trkpt><trkpt lat="39.515180917290536" lon="8.601515859269574"><ele>222.25</ele><time>2026-04-10T17:51:21Z</time></trkpt><trkpt lat="39.515258585132756" lon="8.601651281940011"><ele>221.0</ele><time>2026-04-10T17:51:22Z</time></trkpt><trkpt lat="39.51535594730094" lon="8.601756288097876"><ele>222.25</ele><time>2026-04-10T17:51:23Z</time></trkpt><trkpt lat="39.51546460511651" lon="8.601826042470611"><ele>223.5</ele><time>2026-04-10T17:51:24Z</time></trkpt><trkpt lat="39.51554932852405" lon="8.601912429376881"><ele>224.75</ele><time>2026-04-10T17:51:25Z</time></trkpt><trkpt lat="39.51563246571014" lon="8.60201690120915"><ele>226.0</ele><time>2026-04-10T17:51:26Z</time></trkpt><trkpt lat="39.515662447839155" lon="8.602186113854374"><ele>226.0</ele><time>2026-04-10T17:51:27Z</time></trkpt><trkpt lat="39.515674601244044" lon="8.602381355593309"><ele>226.0</ele><time>2026-04-10T17:51:28Z</time></trkpt><trkpt lat="39.51568246871326" lon="8.602586723744096"><ele>226.0</ele><time>2026-04-10T17:51:29Z</time></trkpt><trkpt lat="39.51571735854264" lon="8.602798312686541"><ele>224.33333333333331</ele><time>2026-04-10T17:51:30Z</time></trkpt><trkpt lat="39.515746220268575" lon="8.603006164829335"><ele>222.66666666666669</ele><time>2026-04-10T17:51:31Z</time></trkpt><trkpt lat="39.51578218621627" lon="8.603197770220381"><ele>221.0</ele><time>2026-04-10T17:51:32Z</time></trkpt><trkpt lat="39.515780026402375" lon="8.603391465547356"><ele>221.0</ele><time>2026-04-10T17:51:33Z</time></trkpt><trkpt lat="39.51576484110882" lon="8.60359261247487"><ele>221.0</ele><time>2026-04-10T17:51:34Z</time></trkpt><trkpt lat="39.515739032516905" lon="8.603810173953855"><ele>221.0</ele><time>2026-04-10T17:51:35Z</time></trkpt><trkpt lat="39.515747971682195" lon="8.604038856493997"><ele>220.33333333333334</ele><time>2026-04-10T17:51:36Z</time></trkpt><trkpt lat="39.51577571158578" lon="8.604266375658632"><ele>219.66666666666669</ele><time>2026-04-10T17:51:37Z</time></trkpt><trkpt lat="39.51579857507894" lon="8.604504158422419"><ele>219.0</ele><time>2026-04-10T17:51:38Z</time></trkpt><trkpt lat="39.515825896938594" lon="8.6047323091482"><ele>217.33333333333331</ele><time>2026-04-10T17:51:39Z</time></trkpt><trkpt lat="39.51582324046047" lon="8.604957642917709"><ele>215.66666666666666</ele><time>2026-04-10T17:51:40Z</time></trkpt><trkpt lat="39.51581332884876" lon="8.605190644562551"><ele>214.0</ele><time>2026-04-10T17:51:41Z</time></trkpt><trkpt lat="39.51581791984329" lon="8.60542706628878"><ele>213.33333333333331</ele><time>2026-04-10T17:51:42Z</time></trkpt><trkpt lat="39.51580740591224" lon="8.605654370030669"><ele>212.66666666666669</ele><time>2026-04-10T17:51:43Z</time></trkpt><trkpt lat="39.51579947040946" lon="8.605866403051502"><ele>212.0</ele><time>2026-04-10T17:51:44Z</time></trkpt><trkpt lat="39.51579448974847" lon="8.60605216724931"><ele>210.5</ele><time>2026-04-10T17:51:45Z</time></trkpt><trkpt lat="39.51580322141883" lon="8.606213353018129"><ele>209.0</ele><time>2026-04-10T17:51:46Z</time></trkpt><trkpt lat="39.51585011853428" lon="8.606368334964246"><ele>207.5</ele><time>2026-04-10T17:51:47Z</time></trkpt><trkpt lat="39.51593062524919" lon="8.6065320937965"><ele>206.0</ele><time>2026-04-10T17:51:48Z</time></trkpt><trkpt lat="39.51601079878678" lon="8.606706207123263"><ele>206.0</ele><time>2026-04-10T17:51:49Z</time></trkpt><trkpt lat="39.51609089448907" lon="8.60685310877448"><ele>206.0</ele><time>2026-04-10T17:51:50Z</time></trkpt><trkpt lat="39.51615841240918" lon="8.606991624336391"><ele>206.0</ele><time>2026-04-10T17:51:51Z</time></trkpt><trkpt lat="39.51615687654963" lon="8.607142629010621"><ele>206.0</ele><time>2026-04-10T17:51:52Z</time></trkpt><trkpt lat="39.51613106437583" lon="8.607294243524432"><ele>205.66666666666669</ele><time>2026-04-10T17:51:53Z</time></trkpt><trkpt lat="39.51606684722043" lon="8.607459851135411"><ele>205.33333333333331</ele><time>2026-04-10T17:51:54Z</time></trkpt><trkpt lat="39.516007538087834" lon="8.607655282446563"><ele>205.0</ele><time>2026-04-10T17:51:55Z</time></trkpt><trkpt lat="39.515931889253274" lon="8.607842970874984"><ele>205.0</ele><time>2026-04-10T17:51:56Z</time></trkpt><trkpt lat="39.51585059183675" lon="8.608042708993771"><ele>205.0</ele><time>2026-04-10T17:51:57Z</time></trkpt><trkpt lat="39.51575824032551" lon="8.608234591005926"><ele>205.0</ele><time>2026-04-10T17:51:58Z</time></trkpt><trkpt lat="39.51562777815019" lon="8.608401009345666"><ele>205.0</ele><time>2026-04-10T17:51:59Z</time></trkpt><trkpt lat="39.51551934966064" lon="8.608606948350344"><ele>205.0</ele><time>2026-04-10T17:52:00Z</time></trkpt><trkpt lat="39.51540576819792" lon="8.608816483474277"><ele>205.0</ele><time>2026-04-10T17:52:01Z</time></trkpt><trkpt lat="39.515315506356266" lon="8.609015994336572"><ele>204.0</ele><time>2026-04-10T17:52:02Z</time></trkpt><trkpt lat="39.515225455084305" lon="8.60922490013617"><ele>203.0</ele><time>2026-04-10T17:52:03Z</time></trkpt><trkpt lat="39.515121277949575" lon="8.60942014319254"><ele>202.0</ele><time>2026-04-10T17:52:04Z</time></trkpt><trkpt lat="39.5150352150666" lon="8.60960889073575"><ele>202.0</ele><time>2026-04-10T17:52:05Z</time></trkpt><trkpt lat="39.514946463170205" lon="8.609784869482871"><ele>202.0</ele><time>2026-04-10T17:52:06Z</time></trkpt><trkpt lat="39.51486508332941" lon="8.609939071867966"><ele>202.0</ele><time>2026-04-10T17:52:07Z</time></trkpt><trkpt lat="39.514755059266264" lon="8.610034530543421"><ele>202.0</ele><time>2026-04-10T17:52:08Z</time></trkpt><trkpt lat="39.514618122738796" lon="8.610089744388508"><ele>200.0</ele><time>2026-04-10T17:52:09Z</time></trkpt><trkpt lat="39.514457771713374" lon="8.610108107169706"><ele>198.0</ele><time>2026-04-10T17:52:10Z</time></trkpt><trkpt lat="39.514281425084114" lon="8.610104137646568"><ele>196.0</ele><time>2026-04-10T17:52:11Z</time></trkpt><trkpt lat="39.514102765101605" lon="8.610101275404295"><ele>196.0</ele><time>2026-04-10T17:52:12Z</time></trkpt><trkpt lat="39.51393537902798" lon="8.61009690831553"><ele>196.0</ele><time>2026-04-10T17:52:13Z</time></trkpt><trkpt lat="39.513779671184466" lon="8.6100935154743"><ele>196.0</ele><time>2026-04-10T17:52:14Z</time></trkpt><trkpt lat="39.513631110121565" lon="8.610097481053419"><ele>195.0</ele><time>2026-04-10T17:52:15Z</time></trkpt><trkpt lat="39.51348750853068" lon="8.610129779594807"><ele>194.0</ele><time>2026-04-10T17:52:16Z</time></trkpt><trkpt lat="39.51334781665365" lon="8.610202486608092"><ele>193.0</ele><time>2026-04-10T17:52:17Z</time></trkpt><trkpt lat="39.51322182197963" lon="8.610316948246005"><ele>194.0</ele><time>2026-04-10T17:52:18Z</time></trkpt><trkpt lat="39.51312201705437" lon="8.610461348829588"><ele>195.0</ele><time>2026-04-10T17:52:19Z</time></trkpt><trkpt lat="39.51305353940354" lon="8.610649648608932"><ele>196.0</ele><time>2026-04-10T17:52:20Z</time></trkpt><trkpt lat="39.5130127501402" lon="8.610866675862145"><ele>196.0</ele><time>2026-04-10T17:52:21Z</time></trkpt><trkpt lat="39.512983244768265" lon="8.611094579091525"><ele>196.0</ele><time>2026-04-10T17:52:22Z</time></trkpt><trkpt lat="39.51293639239433" lon="8.611300123006286"><ele>196.0</ele><time>2026-04-10T17:52:23Z</time></trkpt><trkpt lat="39.512931570754795" lon="8.611497575510022"><ele>196.5</ele><time>2026-04-10T17:52:24Z</time></trkpt><trkpt lat="39.51296799159128" lon="8.61166605939955"><ele>197.0</ele><time>2026-04-10T17:52:25Z</time></trkpt><trkpt lat="39.512966189951555" lon="8.611817071808085"><ele>197.5</ele><time>2026-04-10T17:52:26Z</time></trkpt><trkpt lat="39.512921348724404" lon="8.61195475346246"><ele>198.0</ele><time>2026-04-10T17:52:27Z</time></trkpt><trkpt lat="39.51283727335954" lon="8.612086345624714"><ele>198.0</ele><time>2026-04-10T17:52:28Z</time></trkpt><trkpt lat="39.51272161392834" lon="8.612195006965782"><ele>198.0</ele><time>2026-04-10T17:52:29Z</time></trkpt><trkpt lat="39.51256823676752" lon="8.61227211816156"><ele>198.0</ele><time>2026-04-10T17:52:30Z</time></trkpt><trkpt lat="39.512397024589454" lon="8.612349562381787"><ele>198.0</ele><time>2026-04-10T17:52:31Z</time></trkpt><trkpt lat="39.51221310303852" lon="8.612436457600097"><ele>198.0</ele><time>2026-04-10T17:52:32Z</time></trkpt><trkpt lat="39.51203712861572" lon="8.61252586040586"><ele>198.0</ele><time>2026-04-10T17:52:33Z</time></trkpt><trkpt lat="39.51184583918881" lon="8.612630847686447"><ele>201.0</ele><time>2026-04-10T17:52:34Z</time></trkpt><trkpt lat="39.511651860725095" lon="8.61271532175665"><ele>204.0</ele><time>2026-04-10T17:52:35Z</time></trkpt><trkpt lat="39.51147558117876" lon="8.612813235522754"><ele>207.0</ele><time>2026-04-10T17:52:36Z</time></trkpt><trkpt lat="39.51131044333868" lon="8.612916379303032"><ele>201.33333333333334</ele><time>2026-04-10T17:52:37Z</time></trkpt><trkpt lat="39.5111391728535" lon="8.61296516641864"><ele>195.66666666666669</ele><time>2026-04-10T17:52:38Z</time></trkpt><trkpt lat="39.51097256051955" lon="8.612985639219342"><ele>190.0</ele><time>2026-04-10T17:52:39Z</time></trkpt><trkpt lat="39.51081058585855" lon="8.613000882775582"><ele>190.0</ele><time>2026-04-10T17:52:40Z</time></trkpt><trkpt lat="39.51065391913712" lon="8.613039009510928"><ele>190.0</ele><time>2026-04-10T17:52:41Z</time></trkpt><trkpt lat="39.51050082967731" lon="8.613112472093084"><ele>190.0</ele><time>2026-04-10T17:52:42Z</time></trkpt><trkpt lat="39.51034039529508" lon="8.613204964066856"><ele>183.66666666666669</ele><time>2026-04-10T17:52:43Z</time></trkpt><trkpt lat="39.510179308809846" lon="8.613288746814536"><ele>177.33333333333334</ele><time>2026-04-10T17:52:44Z</time></trkpt><trkpt lat="39.510040326465436" lon="8.613400273619742"><ele>171.0</ele><time>2026-04-10T17:52:45Z</time></trkpt><trkpt lat="39.5099294054844" lon="8.61353655624079"><ele>174.0</ele><time>2026-04-10T17:52:46Z</time></trkpt><trkpt lat="39.50985460580016" lon="8.613695312664744"><ele>177.0</ele><time>2026-04-10T17:52:47Z</time></trkpt><trkpt lat="39.509783167541" lon="8.613865460587546"><ele>180.0</ele><time>2026-04-10T17:52:48Z</time></trkpt><trkpt lat="39.50974922338059" lon="8.61409855207424"><ele>180.0</ele><time>2026-04-10T17:52:49Z</time></trkpt><trkpt lat="39.50971966058631" lon="8.614323800366897"><ele>180.0</ele><time>2026-04-10T17:52:50Z</time></trkpt><trkpt lat="39.50969040066486" lon="8.614526916869842"><ele>180.0</ele><time>2026-04-10T17:52:51Z</time></trkpt><trkpt lat="39.50967316900544" lon="8.614716953250852"><ele>179.25</ele><time>2026-04-10T17:52:52Z</time></trkpt><trkpt lat="39.509618845551564" lon="8.614872225640188"><ele>178.5</ele><time>2026-04-10T17:52:53Z</time></trkpt><trkpt lat="39.5095411975347" lon="8.615013242958714"><ele>177.75</ele><time>2026-04-10T17:52:54Z</time></trkpt><trkpt lat="39.50943589119641" lon="8.615152703543592"><ele>177.0</ele><time>2026-04-10T17:52:55Z</time></trkpt><trkpt lat="39.50930997057189" lon="8.615311384453685"><ele>172.66666666666666</ele><time>2026-04-10T17:52:56Z</time></trkpt><trkpt lat="39.509180162872816" lon="8.615478417963818"><ele>168.33333333333331</ele><time>2026-04-10T17:52:57Z</time></trkpt><trkpt lat="39.50903935978407" lon="8.615655802084456"><ele>164.0</ele><time>2026-04-10T17:52:58Z</time></trkpt><trkpt lat="39.50889069577012" lon="8.61584161652067"><ele>164.0</ele><time>2026-04-10T17:52:59Z</time></trkpt><trkpt lat="39.50874852695831" lon="8.616021891939457"><ele>164.0</ele><time>2026-04-10T17:53:00Z</time></trkpt><trkpt lat="39.508601444363514" lon="8.616211757502594"><ele>164.0</ele><time>2026-04-10T17:53:01Z</time></trkpt><trkpt lat="39.50845181522645" lon="8.616406690304645"><ele>165.33333333333331</ele><time>2026-04-10T17:53:02Z</time></trkpt><trkpt lat="39.508303715475314" lon="8.61659283801374"><ele>166.66666666666666</ele><time>2026-04-10T17:53:03Z</time></trkpt><trkpt lat="39.50816527404104" lon="8.616765099314229"><ele>168.0</ele><time>2026-04-10T17:53:04Z</time></trkpt><trkpt lat="39.50803074874294" lon="8.616928447358484"><ele>167.66666666666666</ele><time>2026-04-10T17:53:05Z</time></trkpt><trkpt lat="39.507888411888366" lon="8.617084974742706"><ele>167.33333333333331</ele><time>2026-04-10T17:53:06Z</time></trkpt><trkpt lat="39.50773555065783" lon="8.6172226356583"><ele>167.0</ele><time>2026-04-10T17:53:07Z</time></trkpt><trkpt lat="39.507578719369384" lon="8.617347196888195"><ele>167.0</ele><time>2026-04-10T17:53:08Z</time></trkpt><trkpt lat="39.5074215517087" lon="8.617464558751099"><ele>167.0</ele><time>2026-04-10T17:53:09Z</time></trkpt><trkpt lat="39.50727509535071" lon="8.617589620353042"><ele>167.0</ele><time>2026-04-10T17:53:10Z</time></trkpt><trkpt lat="39.507125388880056" lon="8.617718389103599"><ele>167.33333333333331</ele><time>2026-04-10T17:53:11Z</time></trkpt><trkpt lat="39.50696855844183" lon="8.617835685436013"><ele>167.66666666666666</ele><time>2026-04-10T17:53:12Z</time></trkpt><trkpt lat="39.50680329017387" lon="8.617911569661006"><ele>168.0</ele><time>2026-04-10T17:53:13Z</time></trkpt><trkpt lat="39.5066336256034" lon="8.617960160441053"><ele>168.0</ele><time>2026-04-10T17:53:14Z</time></trkpt><trkpt lat="39.506458418098376" lon="8.617978576155778"><ele>168.0</ele><time>2026-04-10T17:53:15Z</time></trkpt><trkpt lat="39.50628524699046" lon="8.617968752612466"><ele>168.0</ele><time>2026-04-10T17:53:16Z</time></trkpt><trkpt lat="39.50612230586092" lon="8.617950985515717"><ele>167.5</ele><time>2026-04-10T17:53:17Z</time></trkpt><trkpt lat="39.50597110838313" lon="8.61793903533921"><ele>167.0</ele><time>2026-04-10T17:53:18Z</time></trkpt><trkpt lat="39.50582817009835" lon="8.617939178029006"><ele>166.5</ele><time>2026-04-10T17:53:19Z</time></trkpt><trkpt lat="39.50568867379951" lon="8.617955213165333"><ele>166.0</ele><time>2026-04-10T17:53:20Z</time></trkpt><trkpt lat="39.50555943776179" lon="8.61799655525065"><ele>166.0</ele><time>2026-04-10T17:53:21Z</time></trkpt><trkpt lat="39.5054238664117" lon="8.618069776982372"><ele>166.0</ele><time>2026-04-10T17:53:22Z</time></trkpt><trkpt lat="39.50528747166645" lon="8.61817531925877"><ele>166.0</ele><time>2026-04-10T17:53:23Z</time></trkpt><trkpt lat="39.50516108888721" lon="8.618319732949502"><ele>163.66666666666669</ele><time>2026-04-10T17:53:24Z</time></trkpt><trkpt lat="39.50505104715698" lon="8.618504822625466"><ele>161.33333333333334</ele><time>2026-04-10T17:53:25Z</time></trkpt><trkpt lat="39.50495810423781" lon="8.618710814644563"><ele>159.0</ele><time>2026-04-10T17:53:26Z</time></trkpt><trkpt lat="39.50488024574474" lon="8.618924396565161"><ele>159.0</ele><time>2026-04-10T17:53:27Z</time></trkpt><trkpt lat="39.5048092492349" lon="8.619153962406264"><ele>159.0</ele><time>2026-04-10T17:53:28Z</time></trkpt><trkpt lat="39.504748663126875" lon="8.61940191175225"><ele>159.0</ele><time>2026-04-10T17:53:29Z</time></trkpt><trkpt lat="39.50469418494516" lon="8.619658495754257"><ele>159.0</ele><time>2026-04-10T17:53:30Z</time></trkpt><trkpt lat="39.50464342043335" lon="8.619916302874119"><ele>159.0</ele><time>2026-04-10T17:53:31Z</time></trkpt><trkpt lat="39.50458878421116" lon="8.620175590404553"><ele>159.0</ele><time>2026-04-10T17:53:32Z</time></trkpt><trkpt lat="39.504532483650465" lon="8.620427301008382"><ele>154.0</ele><time>2026-04-10T17:53:33Z</time></trkpt><trkpt lat="39.50447988268669" lon="8.620669231183212"><ele>149.0</ele><time>2026-04-10T17:53:34Z</time></trkpt><trkpt lat="39.50444225248377" lon="8.620906019223936"><ele>144.0</ele><time>2026-04-10T17:53:35Z</time></trkpt><trkpt lat="39.50443153421508" lon="8.621140329305929"><ele>144.0</ele><time>2026-04-10T17:53:36Z</time></trkpt><trkpt lat="39.50444871570343" lon="8.621373553132052"><ele>144.0</ele><time>2026-04-10T17:53:37Z</time></trkpt><trkpt lat="39.50448822286535" lon="8.621610328146497"><ele>144.0</ele><time>2026-04-10T17:53:38Z</time></trkpt><trkpt lat="39.504545353927654" lon="8.621857488887759"><ele>143.0</ele><time>2026-04-10T17:53:39Z</time></trkpt><trkpt lat="39.50458487634253" lon="8.622122768569792"><ele>142.0</ele><time>2026-04-10T17:53:40Z</time></trkpt><trkpt lat="39.50464130392299" lon="8.622392698902031"><ele>141.0</ele><time>2026-04-10T17:53:41Z</time></trkpt><trkpt lat="39.504715060724365" lon="8.622664641146992"><ele>140.66666666666666</ele><time>2026-04-10T17:53:42Z</time></trkpt><trkpt lat="39.50477078594728" lon="8.622943286808276"><ele>140.33333333333331</ele><time>2026-04-10T17:53:43Z</time></trkpt><trkpt lat="39.504825881670214" lon="8.623223852321857"><ele>140.0</ele><time>2026-04-10T17:53:44Z</time></trkpt><trkpt lat="39.50488183338529" lon="8.623510452806126"><ele>139.5</ele><time>2026-04-10T17:53:45Z</time></trkpt><trkpt lat="39.50494052686918" lon="8.623799238355915"><ele>139.0</ele><time>2026-04-10T17:53:46Z</time></trkpt><trkpt lat="39.50500119974753" lon="8.624092562209444"><ele>139.0</ele><time>2026-04-10T17:53:47Z</time></trkpt><trkpt lat="39.50506357784388" lon="8.624386532007279"><ele>139.0</ele><time>2026-04-10T17:53:48Z</time></trkpt><trkpt lat="39.505127193015745" lon="8.624683390618623"><ele>139.0</ele><time>2026-04-10T17:53:49Z</time></trkpt><trkpt lat="39.50519053894544" lon="8.624984923510528"><ele>139.0</ele><time>2026-04-10T17:53:50Z</time></trkpt><trkpt lat="39.505254278334796" lon="8.625287684435712"><ele>138.5</ele><time>2026-04-10T17:53:51Z</time></trkpt><trkpt lat="39.505320222492394" lon="8.625592401320299"><ele>138.0</ele><time>2026-04-10T17:53:52Z</time></trkpt><trkpt lat="39.50538681972364" lon="8.625900639265248"><ele>138.0</ele><time>2026-04-10T17:53:53Z</time></trkpt><trkpt lat="39.505452496582684" lon="8.626214438202679"><ele>138.0</ele><time>2026-04-10T17:53:54Z</time></trkpt><trkpt lat="39.50551711003075" lon="8.626531550352802"><ele>138.0</ele><time>2026-04-10T17:53:55Z</time></trkpt><trkpt lat="39.505580051784285" lon="8.62685162869946"><ele>138.0</ele><time>2026-04-10T17:53:56Z</time></trkpt><trkpt lat="39.505643870281176" lon="8.627175599925181"><ele>137.0</ele><time>2026-04-10T17:53:57Z</time></trkpt><trkpt lat="39.50570619443562" lon="8.627504784214025"><ele>136.0</ele><time>2026-04-10T17:53:58Z</time></trkpt><trkpt lat="39.505767942957384" lon="8.62783821528937"><ele>135.5</ele><time>2026-04-10T17:53:59Z</time></trkpt><trkpt lat="39.50582957887908" lon="8.628172462386482"><ele>135.0</ele><time>2026-04-10T17:54:00Z</time></trkpt><trkpt lat="39.50589221374254" lon="8.628503751426424"><ele>135.5</ele><time>2026-04-10T17:54:01Z</time></trkpt><trkpt lat="39.5059553761468" lon="8.628830630901689"><ele>136.0</ele><time>2026-04-10T17:54:02Z</time></trkpt><trkpt lat="39.50601585630955" lon="8.629152332365397"><ele>136.0</ele><time>2026-04-10T17:54:03Z</time></trkpt><trkpt lat="39.50607197117156" lon="8.629469703833555"><ele>136.0</ele><time>2026-04-10T17:54:04Z</time></trkpt><trkpt lat="39.50611482319833" lon="8.62975417675465"><ele>136.66666666666669</ele><time>2026-04-10T17:54:05Z</time></trkpt><trkpt lat="39.5061411194868" lon="8.63003342855847"><ele>137.33333333333334</ele><time>2026-04-10T17:54:06Z</time></trkpt><trkpt lat="39.506136897898564" lon="8.630305493140282"><ele>138.0</ele><time>2026-04-10T17:54:07Z</time></trkpt><trkpt lat="39.506109824982246" lon="8.630576442545019"><ele>138.0</ele><time>2026-04-10T17:54:08Z</time></trkpt><trkpt lat="39.50607052513981" lon="8.630843756729895"><ele>138.0</ele><time>2026-04-10T17:54:09Z</time></trkpt><trkpt lat="39.506029182544644" lon="8.631104023010414"><ele>138.0</ele><time>2026-04-10T17:54:10Z</time></trkpt><trkpt lat="39.505979564952156" lon="8.631361406201371"><ele>137.33333333333334</ele><time>2026-04-10T17:54:11Z</time></trkpt><trkpt lat="39.50591467796537" lon="8.63161780983281"><ele>136.66666666666669</ele><time>2026-04-10T17:54:12Z</time></trkpt><trkpt lat="39.50583160518066" lon="8.631871772793481"><ele>136.0</ele><time>2026-04-10T17:54:13Z</time></trkpt><trkpt lat="39.50574646133466" lon="8.63212117640833"><ele>135.66666666666669</ele><time>2026-04-10T17:54:14Z</time></trkpt><trkpt lat="39.50566804283715" lon="8.63236429728367"><ele>135.33333333333334</ele><time>2026-04-10T17:54:15Z</time></trkpt><trkpt lat="39.50560235556138" lon="8.632597421903728"><ele>135.0</ele><time>2026-04-10T17:54:16Z</time></trkpt><trkpt lat="39.50555256029256" lon="8.632831264965647"><ele>135.0</ele><time>2026-04-10T17:54:17Z</time></trkpt><trkpt lat="39.50551497170007" lon="8.633083467952737"><ele>135.0</ele><time>2026-04-10T17:54:18Z</time></trkpt><trkpt lat="39.50548475510911" lon="8.633344952903382"><ele>135.0</ele><time>2026-04-10T17:54:19Z</time></trkpt><trkpt lat="39.50545239202885" lon="8.633606725641737"><ele>135.0</ele><time>2026-04-10T17:54:20Z</time></trkpt><trkpt lat="39.505417178895975" lon="8.633856603851347"><ele>135.0</ele><time>2026-04-10T17:54:21Z</time></trkpt><trkpt lat="39.50538640608751" lon="8.634090962239465"><ele>135.0</ele><time>2026-04-10T17:54:22Z</time></trkpt><trkpt lat="39.50536261136064" lon="8.634313545825055"><ele>134.66666666666666</ele><time>2026-04-10T17:54:23Z</time></trkpt><trkpt lat="39.50536349154906" lon="8.634525564827031"><ele>134.33333333333331</ele><time>2026-04-10T17:54:24Z</time></trkpt><trkpt lat="39.50540339442473" lon="8.634718012733007"><ele>134.0</ele><time>2026-04-10T17:54:25Z</time></trkpt><trkpt lat="39.505448584891866" lon="8.63490385975971"><ele>133.66666666666666</ele><time>2026-04-10T17:54:26Z</time></trkpt><trkpt lat="39.50550779248993" lon="8.635090059267903"><ele>133.33333333333334</ele><time>2026-04-10T17:54:27Z</time></trkpt><trkpt lat="39.505570795110714" lon="8.635288193586018"><ele>133.0</ele><time>2026-04-10T17:54:28Z</time></trkpt><trkpt lat="39.50564643229392" lon="8.635492555195876"><ele>133.0</ele><time>2026-04-10T17:54:29Z</time></trkpt><trkpt lat="39.50594449449273" lon="8.635581678051004"><ele>133.0</ele><time>2026-04-10T17:54:30Z</time></trkpt><trkpt lat="39.506067870717565" lon="8.63577058486733"><ele>133.0</ele><time>2026-04-10T17:54:31Z</time></trkpt><trkpt lat="39.50617879589462" lon="8.635967422182931"><ele>133.0</ele><time>2026-04-10T17:54:32Z</time></trkpt><trkpt lat="39.50626403031958" lon="8.636187046147773"><ele>133.0</ele><time>2026-04-10T17:54:33Z</time></trkpt><trkpt lat="39.50633327369366" lon="8.636432881348625"><ele>132.66666666666669</ele><time>2026-04-10T17:54:34Z</time></trkpt><trkpt lat="39.50639209791038" lon="8.636706325938148"><ele>132.33333333333334</ele><time>2026-04-10T17:54:35Z</time></trkpt><trkpt lat="39.50645748432285" lon="8.636988752655654"><ele>132.0</ele><time>2026-04-10T17:54:36Z</time></trkpt><trkpt lat="39.506523070202036" lon="8.637264510635687"><ele>131.33333333333334</ele><time>2026-04-10T17:54:37Z</time></trkpt><trkpt lat="39.50658612986975" lon="8.637532023224624"><ele>130.66666666666669</ele><time>2026-04-10T17:54:38Z</time></trkpt><trkpt lat="39.50664960158258" lon="8.637806333887326"><ele>130.0</ele><time>2026-04-10T17:54:39Z</time></trkpt><trkpt lat="39.5067180262597" lon="8.638082049755495"><ele>130.0</ele><time>2026-04-10T17:54:40Z</time></trkpt><trkpt lat="39.506796910767456" lon="8.638358666455701"><ele>130.0</ele><time>2026-04-10T17:54:41Z</time></trkpt><trkpt lat="39.5068938481715" lon="8.638633372407545"><ele>130.0</ele><time>2026-04-10T17:54:42Z</time></trkpt><trkpt lat="39.50700506979952" lon="8.638905623649775"><ele>130.0</ele><time>2026-04-10T17:54:43Z</time></trkpt><trkpt lat="39.50712475746127" lon="8.639179321305944"><ele>130.0</ele><time>2026-04-10T17:54:44Z</time></trkpt><trkpt lat="39.50724353236188" lon="8.639457518437418"><ele>130.0</ele><time>2026-04-10T17:54:45Z</time></trkpt><trkpt lat="39.50735439673889" lon="8.63973796308868"><ele>130.5</ele><time>2026-04-10T17:54:46Z</time></trkpt><trkpt lat="39.50745698373605" lon="8.640026739696"><ele>131.0</ele><time>2026-04-10T17:54:47Z</time></trkpt><trkpt lat="39.50754989834577" lon="8.640334207387736"><ele>132.0</ele><time>2026-04-10T17:54:48Z</time></trkpt><trkpt lat="39.50763725802563" lon="8.640657591443864"><ele>133.0</ele><time>2026-04-10T17:54:49Z</time></trkpt><trkpt lat="39.507724575985186" lon="8.640971877869367"><ele>133.5</ele><time>2026-04-10T17:54:50Z</time></trkpt><trkpt lat="39.50781180875043" lon="8.641284337328553"><ele>134.0</ele><time>2026-04-10T17:54:51Z</time></trkpt><trkpt lat="39.50789941107957" lon="8.641593607880278"><ele>134.5</ele><time>2026-04-10T17:54:52Z</time></trkpt><trkpt lat="39.50798399706697" lon="8.641902061080962"><ele>135.0</ele><time>2026-04-10T17:54:53Z</time></trkpt><trkpt lat="39.50807017327227" lon="8.642209362813306"><ele>136.0</ele><time>2026-04-10T17:54:54Z</time></trkpt><trkpt lat="39.5081528023202" lon="8.642500190186258"><ele>137.0</ele><time>2026-04-10T17:54:55Z</time></trkpt><trkpt lat="39.50823122875399" lon="8.642769087732423"><ele>137.0</ele><time>2026-04-10T17:54:56Z</time></trkpt><trkpt lat="39.5083064189415" lon="8.643022999129892"><ele>137.0</ele><time>2026-04-10T17:54:57Z</time></trkpt><trkpt lat="39.50837724080817" lon="8.643271013075154"><ele>137.0</ele><time>2026-04-10T17:54:58Z</time></trkpt><trkpt lat="39.50844647368224" lon="8.643524546566328"><ele>137.66666666666666</ele><time>2026-04-10T17:54:59Z</time></trkpt><trkpt lat="39.50850680841065" lon="8.643782766717386"><ele>138.33333333333334</ele><time>2026-04-10T17:55:00Z</time></trkpt><trkpt lat="39.508559498406896" lon="8.644046923853233"><ele>139.0</ele><time>2026-04-10T17:55:01Z</time></trkpt><trkpt lat="39.50860495149694" lon="8.644315140123704"><ele>139.66666666666669</ele><time>2026-04-10T17:55:02Z</time></trkpt><trkpt lat="39.50864727899286" lon="8.64458657562786"><ele>140.33333333333334</ele><time>2026-04-10T17:55:03Z</time></trkpt><trkpt lat="39.508690008705514" lon="8.644856004380165"><ele>141.0</ele><time>2026-04-10T17:55:04Z</time></trkpt><trkpt lat="39.5087345676055" lon="8.645114463974483"><ele>140.66666666666666</ele><time>2026-04-10T17:55:05Z</time></trkpt><trkpt lat="39.508776131562115" lon="8.6453494348005"><ele>140.33333333333331</ele><time>2026-04-10T17:55:06Z</time></trkpt><trkpt lat="39.508811345750885" lon="8.645556787344507"><ele>140.0</ele><time>2026-04-10T17:55:07Z</time></trkpt><trkpt lat="39.50883059316279" lon="8.64574919709086"><ele>140.0</ele><time>2026-04-10T17:55:08Z</time></trkpt><trkpt lat="39.50882665845763" lon="8.645934679849987"><ele>140.0</ele><time>2026-04-10T17:55:09Z</time></trkpt><trkpt lat="39.508800693626235" lon="8.646132623487379"><ele>140.0</ele><time>2026-04-10T17:55:10Z</time></trkpt><trkpt lat="39.508757402056055" lon="8.646350314407542"><ele>141.66666666666666</ele><time>2026-04-10T17:55:11Z</time></trkpt><trkpt lat="39.508709384726984" lon="8.64658221950451"><ele>143.33333333333334</ele><time>2026-04-10T17:55:12Z</time></trkpt><trkpt lat="39.508664443991755" lon="8.646809723597961"><ele>145.0</ele><time>2026-04-10T17:55:13Z</time></trkpt><trkpt lat="39.50862125629371" lon="8.64703313655637"><ele>146.0</ele><time>2026-04-10T17:55:14Z</time></trkpt><trkpt lat="39.508576095110655" lon="8.647261493859565"><ele>147.0</ele><time>2026-04-10T17:55:15Z</time></trkpt><trkpt lat="39.50852540014721" lon="8.647493763948038"><ele>148.0</ele><time>2026-04-10T17:55:16Z</time></trkpt><trkpt lat="39.50847251317514" lon="8.647727754102341"><ele>147.33333333333334</ele><time>2026-04-10T17:55:17Z</time></trkpt><trkpt lat="39.508409789581215" lon="8.647962020305654"><ele>146.66666666666666</ele><time>2026-04-10T17:55:18Z</time></trkpt><trkpt lat="39.508332721225926" lon="8.648190100450801"><ele>146.0</ele><time>2026-04-10T17:55:19Z</time></trkpt><trkpt lat="39.50824473117239" lon="8.64841039322628"><ele>146.0</ele><time>2026-04-10T17:55:20Z</time></trkpt><trkpt lat="39.50816017978601" lon="8.648618862764149"><ele>146.0</ele><time>2026-04-10T17:55:21Z</time></trkpt><trkpt lat="39.508081570037604" lon="8.648807961060903"><ele>146.0</ele><time>2026-04-10T17:55:22Z</time></trkpt><trkpt lat="39.50800946269522" lon="8.648972251345006"><ele>146.0</ele><time>2026-04-10T17:55:23Z</time></trkpt><trkpt lat="39.50794052781511" lon="8.649112165504983"><ele>146.0</ele><time>2026-04-10T17:55:24Z</time></trkpt><trkpt lat="39.50788112104856" lon="8.649214186075806"><ele>146.0</ele><time>2026-04-10T17:55:25Z</time></trkpt><trkpt lat="39.50782418750923" lon="8.64930665872311"><ele>146.0</ele><time>2026-04-10T17:55:26Z</time></trkpt><trkpt lat="39.507767657719356" lon="8.649394105377718"><ele>146.0</ele><time>2026-04-10T17:55:27Z</time></trkpt><trkpt lat="39.507719642375925" lon="8.649483961832592"><ele>146.5</ele><time>2026-04-10T17:55:28Z</time></trkpt><trkpt lat="39.50770346076398" lon="8.649591740559261"><ele>147.0</ele><time>2026-04-10T17:55:29Z</time></trkpt><trkpt lat="39.507732686429975" lon="8.649714143999208"><ele>147.5</ele><time>2026-04-10T17:55:30Z</time></trkpt><trkpt lat="39.507792481940726" lon="8.64985633842341"><ele>148.0</ele><time>2026-04-10T17:55:31Z</time></trkpt><trkpt lat="39.507870551255685" lon="8.650011520203442"><ele>148.0</ele><time>2026-04-10T17:55:32Z</time></trkpt><trkpt lat="39.50794859702275" lon="8.650182635003619"><ele>148.0</ele><time>2026-04-10T17:55:33Z</time></trkpt><trkpt lat="39.5080299309372" lon="8.650370896581581"><ele>148.0</ele><time>2026-04-10T17:55:34Z</time></trkpt><trkpt lat="39.508116973267065" lon="8.650562541058548"><ele>148.0</ele><time>2026-04-10T17:55:35Z</time></trkpt><trkpt lat="39.50820595055582" lon="8.650759564578841"><ele>148.0</ele><time>2026-04-10T17:55:36Z</time></trkpt><trkpt lat="39.50829415576104" lon="8.650952335277308"><ele>148.0</ele><time>2026-04-10T17:55:37Z</time></trkpt><trkpt lat="39.508380124138625" lon="8.651141218759918"><ele>147.75</ele><time>2026-04-10T17:55:38Z</time></trkpt><trkpt lat="39.50845994995858" lon="8.65131994841559"><ele>147.5</ele><time>2026-04-10T17:55:39Z</time></trkpt><trkpt lat="39.50852569033868" lon="8.651473863373532"><ele>147.25</ele><time>2026-04-10T17:55:40Z</time></trkpt><trkpt lat="39.508570979300764" lon="8.651600814448313"><ele>147.0</ele><time>2026-04-10T17:55:41Z</time></trkpt><trkpt lat="39.508604275672965" lon="8.651731276207567"><ele>147.0</ele><time>2026-04-10T17:55:42Z</time></trkpt><trkpt lat="39.50860838502391" lon="8.651839627655146"><ele>147.0</ele><time>2026-04-10T17:55:43Z</time></trkpt><trkpt lat="39.50856841177028" lon="8.651966099983104"><ele>147.0</ele><time>2026-04-10T17:55:45Z</time></trkpt><trkpt lat="39.5085016983062" lon="8.652067604857876"><ele>147.0</ele><time>2026-04-10T17:55:49Z</time></trkpt><trkpt lat="39.50844919717396" lon="8.652119621458548"><ele>147.0</ele><time>2026-04-10T17:55:50Z</time></trkpt><trkpt lat="39.508369700489766" lon="8.652167603320628"><ele>147.0</ele><time>2026-04-10T17:55:51Z</time></trkpt><trkpt lat="39.508287409465225" lon="8.652223723258743"><ele>146.75</ele><time>2026-04-10T17:55:52Z</time></trkpt><trkpt lat="39.50818678028282" lon="8.652297209533414"><ele>146.5</ele><time>2026-04-10T17:55:53Z</time></trkpt><trkpt lat="39.508074655998094" lon="8.652376771662984"><ele>146.25</ele><time>2026-04-10T17:55:54Z</time></trkpt><trkpt lat="39.50796466417825" lon="8.652457084855154"><ele>146.0</ele><time>2026-04-10T17:55:55Z</time></trkpt><trkpt lat="39.50783192949731" lon="8.65255553354635"><ele>147.33333333333331</ele><time>2026-04-10T17:55:56Z</time></trkpt><trkpt lat="39.50769042860274" lon="8.65266158419308"><ele>148.66666666666666</ele><time>2026-04-10T17:55:57Z</time></trkpt><trkpt lat="39.50754646185138" lon="8.652767453429473"><ele>150.0</ele><time>2026-04-10T17:55:58Z</time></trkpt><trkpt lat="39.50740275359498" lon="8.65287221223203"><ele>150.33333333333334</ele><time>2026-04-10T17:55:59Z</time></trkpt><trkpt lat="39.50724862322061" lon="8.65298834139322"><ele>150.66666666666669</ele><time>2026-04-10T17:56:00Z</time></trkpt><trkpt lat="39.507089935030486" lon="8.653103292948424"><ele>151.0</ele><time>2026-04-10T17:56:01Z</time></trkpt><trkpt lat="39.50692537011765" lon="8.653222839568725"><ele>151.33333333333334</ele><time>2026-04-10T17:56:02Z</time></trkpt><trkpt lat="39.50676582111616" lon="8.653341662942928"><ele>151.66666666666666</ele><time>2026-04-10T17:56:03Z</time></trkpt><trkpt lat="39.50659617399112" lon="8.653465627674942"><ele>152.0</ele><time>2026-04-10T17:56:04Z</time></trkpt><trkpt lat="39.50642317530506" lon="8.653593047153059"><ele>152.0</ele><time>2026-04-10T17:56:05Z</time></trkpt><trkpt lat="39.50625328061279" lon="8.653715362623336"><ele>152.0</ele><time>2026-04-10T17:56:06Z</time></trkpt><trkpt lat="39.50608276024292" lon="8.653836421973756"><ele>152.0</ele><time>2026-04-10T17:56:07Z</time></trkpt><trkpt lat="39.50591437720692" lon="8.653957173818888"><ele>152.66666666666666</ele><time>2026-04-10T17:56:08Z</time></trkpt><trkpt lat="39.5057439006876" lon="8.654081275486032"><ele>153.33333333333334</ele><time>2026-04-10T17:56:09Z</time></trkpt><trkpt lat="39.505576150930175" lon="8.654205745526578"><ele>154.0</ele><time>2026-04-10T17:56:10Z</time></trkpt><trkpt lat="39.50540707812512" lon="8.654329551379467"><ele>154.33333333333334</ele><time>2026-04-10T17:56:11Z</time></trkpt><trkpt lat="39.50523971685639" lon="8.65445422056818"><ele>154.66666666666666</ele><time>2026-04-10T17:56:12Z</time></trkpt><trkpt lat="39.50507240661304" lon="8.65457674688315"><ele>155.0</ele><time>2026-04-10T17:56:13Z</time></trkpt><trkpt lat="39.50490699137622" lon="8.654696765116986"><ele>155.33333333333331</ele><time>2026-04-10T17:56:14Z</time></trkpt><trkpt lat="39.50473959770163" lon="8.654816441408462"><ele>155.66666666666666</ele><time>2026-04-10T17:56:15Z</time></trkpt><trkpt lat="39.50457413856161" lon="8.654933029173339"><ele>156.0</ele><time>2026-04-10T17:56:16Z</time></trkpt><trkpt lat="39.50441088790655" lon="8.655052399427868"><ele>156.66666666666666</ele><time>2026-04-10T17:56:17Z</time></trkpt><trkpt lat="39.504247662924364" lon="8.655173418365315"><ele>157.33333333333331</ele><time>2026-04-10T17:56:18Z</time></trkpt><trkpt lat="39.504085999677905" lon="8.655293616458493"><ele>158.0</ele><time>2026-04-10T17:56:19Z</time></trkpt><trkpt lat="39.50392512949005" lon="8.65541369348504"><ele>158.66666666666666</ele><time>2026-04-10T17:56:20Z</time></trkpt><trkpt lat="39.50376296862451" lon="8.655532019943037"><ele>159.33333333333334</ele><time>2026-04-10T17:56:21Z</time></trkpt><trkpt lat="39.503600752143754" lon="8.655653497348773"><ele>160.0</ele><time>2026-04-10T17:56:22Z</time></trkpt><trkpt lat="39.503438052209695" lon="8.65577535398816"><ele>160.0</ele><time>2026-04-10T17:56:23Z</time></trkpt><trkpt lat="39.50327634980626" lon="8.65589384197188"><ele>160.0</ele><time>2026-04-10T17:56:24Z</time></trkpt><trkpt lat="39.50311758804784" lon="8.656018165182482"><ele>160.0</ele><time>2026-04-10T17:56:25Z</time></trkpt><trkpt lat="39.5029557217664" lon="8.656138267341245"><ele>161.0</ele><time>2026-04-10T17:56:26Z</time></trkpt><trkpt lat="39.50280059812935" lon="8.656248187374732"><ele>162.0</ele><time>2026-04-10T17:56:27Z</time></trkpt><trkpt lat="39.50265681369761" lon="8.656350257348722"><ele>163.0</ele><time>2026-04-10T17:56:28Z</time></trkpt><trkpt lat="39.50252220049309" lon="8.65644888325314"><ele>163.0</ele><time>2026-04-10T17:56:29Z</time></trkpt><trkpt lat="39.50239648434195" lon="8.656538394525088"><ele>163.0</ele><time>2026-04-10T17:56:30Z</time></trkpt><trkpt lat="39.50227632069443" lon="8.656628509798091"><ele>163.0</ele><time>2026-04-10T17:56:31Z</time></trkpt><trkpt lat="39.50215259367165" lon="8.65671866711613"><ele>163.0</ele><time>2026-04-10T17:56:32Z</time></trkpt><trkpt lat="39.5020272965962" lon="8.656809198488238"><ele>163.5</ele><time>2026-04-10T17:56:33Z</time></trkpt><trkpt lat="39.50190033560245" lon="8.656897537852352"><ele>164.0</ele><time>2026-04-10T17:56:34Z</time></trkpt><trkpt lat="39.501771751456616" lon="8.656985833444725"><ele>164.5</ele><time>2026-04-10T17:56:35Z</time></trkpt><trkpt lat="39.501645910383374" lon="8.657082020636786"><ele>165.0</ele><time>2026-04-10T17:56:36Z</time></trkpt><trkpt lat="39.50151759134317" lon="8.657177963206928"><ele>165.25</ele><time>2026-04-10T17:56:37Z</time></trkpt><trkpt lat="39.50139312977943" lon="8.657272485571568"><ele>165.5</ele><time>2026-04-10T17:56:38Z</time></trkpt><trkpt lat="39.50126553425296" lon="8.657363633115772"><ele>165.75</ele><time>2026-04-10T17:56:39Z</time></trkpt><trkpt lat="39.50113909792493" lon="8.657455410524475"><ele>166.0</ele><time>2026-04-10T17:56:40Z</time></trkpt><trkpt lat="39.50101070356166" lon="8.657547375801226"><ele>166.75</ele><time>2026-04-10T17:56:41Z</time></trkpt><trkpt lat="39.50088131040962" lon="8.657641791699746"><ele>167.5</ele><time>2026-04-10T17:56:42Z</time></trkpt><trkpt lat="39.50075081942982" lon="8.65773501048144"><ele>168.25</ele><time>2026-04-10T17:56:43Z</time></trkpt><trkpt lat="39.50062511757283" lon="8.657821636814125"><ele>169.0</ele><time>2026-04-10T17:56:44Z</time></trkpt><trkpt lat="39.5004972503831" lon="8.657919564217062"><ele>169.5</ele><time>2026-04-10T17:56:45Z</time></trkpt><trkpt lat="39.50036909026774" lon="8.658013384091966"><ele>170.0</ele><time>2026-04-10T17:56:46Z</time></trkpt><trkpt lat="39.50023872317899" lon="8.65810703104547"><ele>170.5</ele><time>2026-04-10T17:56:47Z</time></trkpt><trkpt lat="39.500110527207134" lon="8.65820373985254"><ele>171.0</ele><time>2026-04-10T17:56:48Z</time></trkpt><trkpt lat="39.49998256398637" lon="8.658299262259455"><ele>171.0</ele><time>2026-04-10T17:56:49Z</time></trkpt><trkpt lat="39.49985234286734" lon="8.658395052218994"><ele>171.0</ele><time>2026-04-10T17:56:50Z</time></trkpt><trkpt lat="39.49972203828478" lon="8.658488758996565"><ele>171.0</ele><time>2026-04-10T17:56:51Z</time></trkpt><trkpt lat="39.49958963699284" lon="8.658581885777854"><ele>171.0</ele><time>2026-04-10T17:56:52Z</time></trkpt><trkpt lat="39.499460733625945" lon="8.658675450453515"><ele>172.0</ele><time>2026-04-10T17:56:53Z</time></trkpt><trkpt lat="39.499335802583744" lon="8.65876827288297"><ele>173.0</ele><time>2026-04-10T17:56:54Z</time></trkpt><trkpt lat="39.49921837880512" lon="8.65885419598723"><ele>174.0</ele><time>2026-04-10T17:56:55Z</time></trkpt><trkpt lat="39.49910528878304" lon="8.658934028387725"><ele>175.0</ele><time>2026-04-10T17:56:56Z</time></trkpt><trkpt lat="39.49900173368399" lon="8.659012141133633"><ele>175.0</ele><time>2026-04-10T17:56:57Z</time></trkpt><trkpt lat="39.49889478984811" lon="8.659090322317374"><ele>175.0</ele><time>2026-04-10T17:56:58Z</time></trkpt><trkpt lat="39.498788405475366" lon="8.659167512946123"><ele>175.0</ele><time>2026-04-10T17:56:59Z</time></trkpt><trkpt lat="39.49867881354166" lon="8.659245156896157"><ele>175.0</ele><time>2026-04-10T17:57:00Z</time></trkpt><trkpt lat="39.498566400533605" lon="8.659326101061467"><ele>175.25</ele><time>2026-04-10T17:57:01Z</time></trkpt><trkpt lat="39.498451699657316" lon="8.659411485342114"><ele>175.5</ele><time>2026-04-10T17:57:02Z</time></trkpt><trkpt lat="39.49833639029989" lon="8.659500468599187"><ele>175.75</ele><time>2026-04-10T17:57:03Z</time></trkpt><trkpt lat="39.49821501612714" lon="8.659588277773926"><ele>176.0</ele><time>2026-04-10T17:57:04Z</time></trkpt><trkpt lat="39.49809050949533" lon="8.659676742318402"><ele>176.0</ele><time>2026-04-10T17:57:05Z</time></trkpt><trkpt lat="39.49796646364709" lon="8.659766868336021"><ele>176.0</ele><time>2026-04-10T17:57:06Z</time></trkpt><trkpt lat="39.49784152018943" lon="8.659856381293723"><ele>176.0</ele><time>2026-04-10T17:57:07Z</time></trkpt><trkpt lat="39.49771554625471" lon="8.659947259057693"><ele>176.0</ele><time>2026-04-10T17:57:08Z</time></trkpt><trkpt lat="39.49759230082743" lon="8.660037625318848"><ele>176.5</ele><time>2026-04-10T17:57:09Z</time></trkpt><trkpt lat="39.49747399616256" lon="8.6601214537782"><ele>177.0</ele><time>2026-04-10T17:57:10Z</time></trkpt><trkpt lat="39.49736213633581" lon="8.660202886887607"><ele>177.5</ele><time>2026-04-10T17:57:11Z</time></trkpt><trkpt lat="39.49725680520911" lon="8.660280941253294"><ele>178.0</ele><time>2026-04-10T17:57:12Z</time></trkpt><trkpt lat="39.49715301501135" lon="8.660359695456098"><ele>178.5</ele><time>2026-04-10T17:57:13Z</time></trkpt><trkpt lat="39.49704683535841" lon="8.660436613328006"><ele>179.0</ele><time>2026-04-10T17:57:14Z</time></trkpt><trkpt lat="39.496938082816285" lon="8.660519311007775"><ele>179.5</ele><time>2026-04-10T17:57:15Z</time></trkpt><trkpt lat="39.496829367347516" lon="8.660602299009014"><ele>180.0</ele><time>2026-04-10T17:57:16Z</time></trkpt><trkpt lat="39.49672449854313" lon="8.660688874716783"><ele>180.0</ele><time>2026-04-10T17:57:17Z</time></trkpt><trkpt lat="39.49662776787979" lon="8.660782365786485"><ele>180.0</ele><time>2026-04-10T17:57:18Z</time></trkpt><trkpt lat="39.4965368706697" lon="8.660889393048764"><ele>180.0</ele><time>2026-04-10T17:57:19Z</time></trkpt><trkpt lat="39.4964585724417" lon="8.66100852546886"><ele>180.0</ele><time>2026-04-10T17:57:20Z</time></trkpt><trkpt lat="39.49639226421365" lon="8.661136264454694"><ele>180.2</ele><time>2026-04-10T17:57:21Z</time></trkpt><trkpt lat="39.49634867281326" lon="8.661267555065884"><ele>180.4</ele><time>2026-04-10T17:57:22Z</time></trkpt><trkpt lat="39.49631651396809" lon="8.661395404416723"><ele>180.60000000000002</ele><time>2026-04-10T17:57:23Z</time></trkpt><trkpt lat="39.49628967636143" lon="8.66151501795396"><ele>180.8</ele><time>2026-04-10T17:57:24Z</time></trkpt><trkpt lat="39.496249958787" lon="8.661618965678587"><ele>181.0</ele><time>2026-04-10T17:57:25Z</time></trkpt><trkpt lat="39.4962302988383" lon="8.661712696262892"><ele>181.33333333333334</ele><time>2026-04-10T17:57:26Z</time></trkpt><trkpt lat="39.496211094902314" lon="8.66180718826031"><ele>181.66666666666669</ele><time>2026-04-10T17:57:27Z</time></trkpt><trkpt lat="39.496210039401554" lon="8.661895144232002"><ele>182.0</ele><time>2026-04-10T17:57:28Z</time></trkpt><trkpt lat="39.49617009759587" lon="8.662050397837106"><ele>182.33333333333334</ele><time>2026-04-10T17:57:30Z</time></trkpt><trkpt lat="39.49615367360165" lon="8.662143410382727"><ele>182.66666666666666</ele><time>2026-04-10T17:57:31Z</time></trkpt><trkpt lat="39.49613062424096" lon="8.662251436212081"><ele>183.0</ele><time>2026-04-10T17:57:32Z</time></trkpt><trkpt lat="39.496105001251316" lon="8.66236953378642"><ele>183.0</ele><time>2026-04-10T17:57:33Z</time></trkpt><trkpt lat="39.496078664866836" lon="8.662484418781718"><ele>183.0</ele><time>2026-04-10T17:57:34Z</time></trkpt><trkpt lat="39.49605247489531" lon="8.662608187277815"><ele>183.0</ele><time>2026-04-10T17:57:35Z</time></trkpt><trkpt lat="39.496021898749404" lon="8.662736363400061"><ele>183.0</ele><time>2026-04-10T17:57:36Z</time></trkpt><trkpt lat="39.49599906460589" lon="8.662861391680735"><ele>183.0</ele><time>2026-04-10T17:57:37Z</time></trkpt><trkpt lat="39.495984377456935" lon="8.662982070142501"><ele>183.0</ele><time>2026-04-10T17:57:38Z</time></trkpt><trkpt lat="39.495974633233786" lon="8.663101822683391"><ele>183.0</ele><time>2026-04-10T17:57:39Z</time></trkpt><trkpt lat="39.495977417909565" lon="8.663223589465192"><ele>183.0</ele><time>2026-04-10T17:57:40Z</time></trkpt><trkpt lat="39.49598240060675" lon="8.663344794572717"><ele>183.0</ele><time>2026-04-10T17:57:41Z</time></trkpt><trkpt lat="39.49599140499146" lon="8.663463559769335"><ele>183.0</ele><time>2026-04-10T17:57:42Z</time></trkpt><trkpt lat="39.49601052934864" lon="8.663578701513808"><ele>182.8</ele><time>2026-04-10T17:57:43Z</time></trkpt><trkpt lat="39.49603757322288" lon="8.663687418625546"><ele>182.60000000000002</ele><time>2026-04-10T17:57:44Z</time></trkpt><trkpt lat="39.496069261901475" lon="8.663789641992459"><ele>182.39999999999998</ele><time>2026-04-10T17:57:45Z</time></trkpt><trkpt lat="39.49610332084702" lon="8.663889923078056"><ele>182.2</ele><time>2026-04-10T17:57:46Z</time></trkpt><trkpt lat="39.496142677515905" lon="8.664005361824604"><ele>182.0</ele><time>2026-04-10T17:57:47Z</time></trkpt><trkpt lat="39.49618655171012" lon="8.664131613458665"><ele>182.0</ele><time>2026-04-10T17:57:48Z</time></trkpt><trkpt lat="39.49622963984679" lon="8.664254033844093"><ele>182.0</ele><time>2026-04-10T17:57:49Z</time></trkpt><trkpt lat="39.496272002938305" lon="8.664376364807817"><ele>182.0</ele><time>2026-04-10T17:57:50Z</time></trkpt><trkpt lat="39.49631686622655" lon="8.664504402911392"><ele>182.0</ele><time>2026-04-10T17:57:51Z</time></trkpt><trkpt lat="39.49636630108655" lon="8.664641903187293"><ele>182.0</ele><time>2026-04-10T17:57:52Z</time></trkpt><trkpt lat="39.4964189316491" lon="8.664789553051365"><ele>181.75</ele><time>2026-04-10T17:57:53Z</time></trkpt><trkpt lat="39.49647141110386" lon="8.664934285755457"><ele>181.5</ele><time>2026-04-10T17:57:54Z</time></trkpt><trkpt lat="39.496522721625134" lon="8.665083676336971"><ele>181.25</ele><time>2026-04-10T17:57:55Z</time></trkpt><trkpt lat="39.49656943301571" lon="8.665225433793667"><ele>181.0</ele><time>2026-04-10T17:57:56Z</time></trkpt><trkpt lat="39.49661849201604" lon="8.665361523098174"><ele>181.0</ele><time>2026-04-10T17:57:57Z</time></trkpt><trkpt lat="39.496667974302675" lon="8.66550673642132"><ele>181.0</ele><time>2026-04-10T17:57:58Z</time></trkpt><trkpt lat="39.49672088611274" lon="8.665657310109202"><ele>181.0</ele><time>2026-04-10T17:57:59Z</time></trkpt><trkpt lat="39.496778472412764" lon="8.665811963982364"><ele>181.0</ele><time>2026-04-10T17:58:00Z</time></trkpt><trkpt lat="39.496839642853004" lon="8.665972623156259"><ele>181.5</ele><time>2026-04-10T17:58:01Z</time></trkpt><trkpt lat="39.496900270994175" lon="8.66614270429061"><ele>182.0</ele><time>2026-04-10T17:58:02Z</time></trkpt><trkpt lat="39.496959357398254" lon="8.666309270314795"><ele>182.5</ele><time>2026-04-10T17:58:03Z</time></trkpt><trkpt lat="39.49701695788883" lon="8.666476465232432"><ele>183.0</ele><time>2026-04-10T17:58:04Z</time></trkpt><trkpt lat="39.49707286193306" lon="8.666647055426104"><ele>182.66666666666666</ele><time>2026-04-10T17:58:05Z</time></trkpt><trkpt lat="39.49713765656535" lon="8.666833705579231"><ele>182.33333333333331</ele><time>2026-04-10T17:58:06Z</time></trkpt><trkpt lat="39.49721526920094" lon="8.66704197138018"><ele>182.0</ele><time>2026-04-10T17:58:07Z</time></trkpt><trkpt lat="39.497303349403175" lon="8.667268547613247"><ele>183.0</ele><time>2026-04-10T17:58:08Z</time></trkpt><trkpt lat="39.49738676494741" lon="8.667501856868975"><ele>184.0</ele><time>2026-04-10T17:58:09Z</time></trkpt><trkpt lat="39.49746464706266" lon="8.667725955573864"><ele>185.0</ele><time>2026-04-10T17:58:10Z</time></trkpt><trkpt lat="39.497539522355495" lon="8.667953715136262"><ele>185.0</ele><time>2026-04-10T17:58:11Z</time></trkpt><trkpt lat="39.49761851840239" lon="8.668179361314559"><ele>185.0</ele><time>2026-04-10T17:58:12Z</time></trkpt><trkpt lat="39.497696358647765" lon="8.668412004115593"><ele>185.0</ele><time>2026-04-10T17:58:13Z</time></trkpt><trkpt lat="39.49777787322081" lon="8.66863680966961"><ele>185.0</ele><time>2026-04-10T17:58:14Z</time></trkpt><trkpt lat="39.49785735004001" lon="8.668864818477356"><ele>185.0</ele><time>2026-04-10T17:58:15Z</time></trkpt><trkpt lat="39.497935310853464" lon="8.669092213962593"><ele>185.0</ele><time>2026-04-10T17:58:16Z</time></trkpt><trkpt lat="39.49800898784424" lon="8.669322312653394"><ele>185.0</ele><time>2026-04-10T17:58:17Z</time></trkpt><trkpt lat="39.4980695933328" lon="8.669558058500659"><ele>185.0</ele><time>2026-04-10T17:58:18Z</time></trkpt><trkpt lat="39.49811237857963" lon="8.669814755781175"><ele>185.0</ele><time>2026-04-10T17:58:19Z</time></trkpt><trkpt lat="39.49814159792795" lon="8.670092830542659"><ele>184.66666666666666</ele><time>2026-04-10T17:58:20Z</time></trkpt><trkpt lat="39.498157031835945" lon="8.670380114130374"><ele>184.33333333333334</ele><time>2026-04-10T17:58:21Z</time></trkpt><trkpt lat="39.498171573919805" lon="8.67065802038762"><ele>184.0</ele><time>2026-04-10T17:58:22Z</time></trkpt><trkpt lat="39.49818734588105" lon="8.670926954204937"><ele>184.0</ele><time>2026-04-10T17:58:23Z</time></trkpt><trkpt lat="39.49820270940328" lon="8.671199911244365"><ele>184.0</ele><time>2026-04-10T17:58:24Z</time></trkpt><trkpt lat="39.498217487721725" lon="8.671478209329164"><ele>184.0</ele><time>2026-04-10T17:58:25Z</time></trkpt><trkpt lat="39.49823094309639" lon="8.671762734935474"><ele>185.0</ele><time>2026-04-10T17:58:26Z</time></trkpt><trkpt lat="39.498245978927095" lon="8.672041609729655"><ele>186.0</ele><time>2026-04-10T17:58:27Z</time></trkpt><trkpt lat="39.49825838608102" lon="8.672325399174442"><ele>187.0</ele><time>2026-04-10T17:58:28Z</time></trkpt><trkpt lat="39.498272153906065" lon="8.672609474206471"><ele>187.66666666666669</ele><time>2026-04-10T17:58:29Z</time></trkpt><trkpt lat="39.49828462046739" lon="8.672892047419598"><ele>188.33333333333334</ele><time>2026-04-10T17:58:30Z</time></trkpt><trkpt lat="39.498297920542974" lon="8.673178645542514"><ele>189.0</ele><time>2026-04-10T17:58:31Z</time></trkpt><trkpt lat="39.49831363374031" lon="8.67347113087551"><ele>190.5</ele><time>2026-04-10T17:58:32Z</time></trkpt><trkpt lat="39.498330639705394" lon="8.673774514460598"><ele>192.0</ele><time>2026-04-10T17:58:33Z</time></trkpt><trkpt lat="39.49834835827087" lon="8.674076420340572"><ele>192.0</ele><time>2026-04-10T17:58:34Z</time></trkpt><trkpt lat="39.49836725112624" lon="8.674384054799983"><ele>192.0</ele><time>2026-04-10T17:58:35Z</time></trkpt><trkpt lat="39.49838734443327" lon="8.674687903830549"><ele>192.5</ele><time>2026-04-10T17:58:36Z</time></trkpt><trkpt lat="39.4984077177879" lon="8.674996853283032"><ele>193.0</ele><time>2026-04-10T17:58:37Z</time></trkpt><trkpt lat="39.49842697791031" lon="8.675300595177925"><ele>194.0</ele><time>2026-04-10T17:58:38Z</time></trkpt><trkpt lat="39.49844509517192" lon="8.675601020405333"><ele>195.0</ele><time>2026-04-10T17:58:39Z</time></trkpt><trkpt lat="39.498461676801824" lon="8.675906705992459"><ele>195.0</ele><time>2026-04-10T17:58:40Z</time></trkpt><trkpt lat="39.4984816177259" lon="8.67620879973989"><ele>195.0</ele><time>2026-04-10T17:58:41Z</time></trkpt><trkpt lat="39.49850132019096" lon="8.6765117959807"><ele>195.0</ele><time>2026-04-10T17:58:42Z</time></trkpt><trkpt lat="39.49851753430828" lon="8.676812417829117"><ele>195.0</ele><time>2026-04-10T17:58:43Z</time></trkpt><trkpt lat="39.49853364097492" lon="8.677111976152132"><ele>195.0</ele><time>2026-04-10T17:58:44Z</time></trkpt><trkpt lat="39.49855043492883" lon="8.677411996504887"><ele>195.0</ele><time>2026-04-10T17:58:45Z</time></trkpt><trkpt lat="39.49856975324652" lon="8.677705564960634"><ele>196.5</ele><time>2026-04-10T17:58:46Z</time></trkpt><trkpt lat="39.49858404776812" lon="8.678000395933712"><ele>198.0</ele><time>2026-04-10T17:58:47Z</time></trkpt><trkpt lat="39.4985976960457" lon="8.678290451701956"><ele>198.0</ele><time>2026-04-10T17:58:48Z</time></trkpt><trkpt lat="39.49861128822591" lon="8.678578074137796"><ele>198.0</ele><time>2026-04-10T17:58:49Z</time></trkpt><trkpt lat="39.49862663121308" lon="8.678874768493339"><ele>198.0</ele><time>2026-04-10T17:58:50Z</time></trkpt><trkpt lat="39.49864192537447" lon="8.679171205025321"><ele>198.0</ele><time>2026-04-10T17:58:51Z</time></trkpt><trkpt lat="39.49865744933163" lon="8.679466486740916"><ele>198.0</ele><time>2026-04-10T17:58:52Z</time></trkpt><trkpt lat="39.4986743536723" lon="8.679766889078612"><ele>198.0</ele><time>2026-04-10T17:58:53Z</time></trkpt><trkpt lat="39.49869035047069" lon="8.680071331394059"><ele>197.0</ele><time>2026-04-10T17:58:54Z</time></trkpt><trkpt lat="39.49870598690066" lon="8.680379412354787"><ele>196.0</ele><time>2026-04-10T17:58:55Z</time></trkpt><trkpt lat="39.49872233085231" lon="8.680690492804098"><ele>196.0</ele><time>2026-04-10T17:58:56Z</time></trkpt><trkpt lat="39.49874001204506" lon="8.68100062359732"><ele>196.0</ele><time>2026-04-10T17:58:57Z</time></trkpt><trkpt lat="39.49875824518572" lon="8.681312248659916"><ele>191.5</ele><time>2026-04-10T17:58:58Z</time></trkpt><trkpt lat="39.498776021722094" lon="8.681621732240844"><ele>187.0</ele><time>2026-04-10T17:58:59Z</time></trkpt><trkpt lat="39.498792513045025" lon="8.681924502511288"><ele>186.0</ele><time>2026-04-10T17:59:00Z</time></trkpt><trkpt lat="39.49880886559037" lon="8.682222037151885"><ele>185.0</ele><time>2026-04-10T17:59:01Z</time></trkpt><trkpt lat="39.49882540242692" lon="8.682512479610002"><ele>185.33333333333331</ele><time>2026-04-10T17:59:02Z</time></trkpt><trkpt lat="39.49884258783048" lon="8.682803386898126"><ele>185.66666666666666</ele><time>2026-04-10T17:59:03Z</time></trkpt><trkpt lat="39.49885856902865" lon="8.683092510570368"><ele>186.0</ele><time>2026-04-10T17:59:04Z</time></trkpt><trkpt lat="39.49887495759614" lon="8.68338268444165"><ele>185.5</ele><time>2026-04-10T17:59:05Z</time></trkpt><trkpt lat="39.4988903006536" lon="8.683673624194062"><ele>185.0</ele><time>2026-04-10T17:59:06Z</time></trkpt><trkpt lat="39.498905733298756" lon="8.683965149214968"><ele>185.0</ele><time>2026-04-10T17:59:07Z</time></trkpt><trkpt lat="39.49892137580494" lon="8.684253037978028"><ele>185.0</ele><time>2026-04-10T17:59:08Z</time></trkpt><trkpt lat="39.49893337233337" lon="8.684533081705757"><ele>185.0</ele><time>2026-04-10T17:59:09Z</time></trkpt><trkpt lat="39.49893665374211" lon="8.684810048693341"><ele>184.33333333333331</ele><time>2026-04-10T17:59:10Z</time></trkpt><trkpt lat="39.49892703490122" lon="8.685083328278937"><ele>183.66666666666666</ele><time>2026-04-10T17:59:11Z</time></trkpt><trkpt lat="39.49889944280534" lon="8.68535309100586"><ele>183.0</ele><time>2026-04-10T17:59:12Z</time></trkpt><trkpt lat="39.49885444460623" lon="8.685610922708324"><ele>183.0</ele><time>2026-04-10T17:59:13Z</time></trkpt><trkpt lat="39.49878702046422" lon="8.685850582649639"><ele>183.0</ele><time>2026-04-10T17:59:14Z</time></trkpt><trkpt lat="39.498697063827244" lon="8.686076022046581"><ele>183.0</ele><time>2026-04-10T17:59:15Z</time></trkpt><trkpt lat="39.49858861971466" lon="8.686287274670805"><ele>183.33333333333334</ele><time>2026-04-10T17:59:16Z</time></trkpt><trkpt lat="39.49846792949591" lon="8.686494597316482"><ele>183.66666666666669</ele><time>2026-04-10T17:59:17Z</time></trkpt><trkpt lat="39.49834061579329" lon="8.68669902742694"><ele>184.0</ele><time>2026-04-10T17:59:18Z</time></trkpt><trkpt lat="39.49821633298756" lon="8.686897188247698"><ele>183.66666666666669</ele><time>2026-04-10T17:59:19Z</time></trkpt><trkpt lat="39.49810087074506" lon="8.687086705499278"><ele>183.33333333333334</ele><time>2026-04-10T17:59:20Z</time></trkpt><trkpt lat="39.49799388795548" lon="8.687271270374703"><ele>183.0</ele><time>2026-04-10T17:59:21Z</time></trkpt><trkpt lat="39.497902014658884" lon="8.687452580117279"><ele>183.0</ele><time>2026-04-10T17:59:22Z</time></trkpt><trkpt lat="39.49783398682897" lon="8.687641449335112"><ele>183.0</ele><time>2026-04-10T17:59:23Z</time></trkpt><trkpt lat="39.49779392997862" lon="8.687833840092184"><ele>183.0</ele><time>2026-04-10T17:59:24Z</time></trkpt><trkpt lat="39.497803695176756" lon="8.688021730252267"><ele>183.5</ele><time>2026-04-10T17:59:25Z</time></trkpt><trkpt lat="39.49783963886634" lon="8.688192682961892"><ele>184.0</ele><time>2026-04-10T17:59:26Z</time></trkpt><trkpt lat="39.49787470605098" lon="8.688348317104918"><ele>184.5</ele><time>2026-04-10T17:59:27Z</time></trkpt><trkpt lat="39.49788790614077" lon="8.68850127880318"><ele>185.0</ele><time>2026-04-10T17:59:28Z</time></trkpt><trkpt lat="39.4978614869341" lon="8.688663968106201"><ele>183.66666666666666</ele><time>2026-04-10T17:59:29Z</time></trkpt><trkpt lat="39.49779446258253" lon="8.688814794012549"><ele>182.33333333333334</ele><time>2026-04-10T17:59:30Z</time></trkpt><trkpt lat="39.49768227733217" lon="8.688949727672066"><ele>181.0</ele><time>2026-04-10T17:59:31Z</time></trkpt><trkpt lat="39.49754691184956" lon="8.689092325554531"><ele>181.0</ele><time>2026-04-10T17:59:32Z</time></trkpt><trkpt lat="39.49742396792295" lon="8.689228606607907"><ele>181.0</ele><time>2026-04-10T17:59:33Z</time></trkpt><trkpt lat="39.49732080749316" lon="8.689363868929144"><ele>181.0</ele><time>2026-04-10T17:59:34Z</time></trkpt><trkpt lat="39.497241594344125" lon="8.68952237434925"><ele>180.0</ele><time>2026-04-10T17:59:35Z</time></trkpt><trkpt lat="39.49718033460116" lon="8.689710728463519"><ele>179.0</ele><time>2026-04-10T17:59:36Z</time></trkpt><trkpt lat="39.4971520715371" lon="8.689919087302304"><ele>178.0</ele><time>2026-04-10T17:59:37Z</time></trkpt><trkpt lat="39.497161695913825" lon="8.69014999587079"><ele>178.0</ele><time>2026-04-10T17:59:38Z</time></trkpt><trkpt lat="39.49718661199042" lon="8.690388250578325"><ele>178.0</ele><time>2026-04-10T17:59:39Z</time></trkpt><trkpt lat="39.497193201403405" lon="8.690600998089243"><ele>178.0</ele><time>2026-04-10T17:59:40Z</time></trkpt><trkpt lat="39.4971754912276" lon="8.690797619820259"><ele>178.0</ele><time>2026-04-10T17:59:41Z</time></trkpt><trkpt lat="39.49712331933533" lon="8.690983642286676"><ele>178.0</ele><time>2026-04-10T17:59:42Z</time></trkpt><trkpt lat="39.49704230073416" lon="8.691162516232945"><ele>178.0</ele><time>2026-04-10T17:59:43Z</time></trkpt><trkpt lat="39.4969373712828" lon="8.691316591272678"><ele>179.0</ele><time>2026-04-10T17:59:44Z</time></trkpt><trkpt lat="39.49680748469125" lon="8.691447881900135"><ele>180.0</ele><time>2026-04-10T17:59:45Z</time></trkpt><trkpt lat="39.49665376271722" lon="8.691566281318769"><ele>181.0</ele><time>2026-04-10T17:59:46Z</time></trkpt><trkpt lat="39.49647915401551" lon="8.691668371067898"><ele>181.0</ele><time>2026-04-10T17:59:47Z</time></trkpt><trkpt lat="39.4963011711045" lon="8.691762643099704"><ele>181.0</ele><time>2026-04-10T17:59:48Z</time></trkpt><trkpt lat="39.496133391284914" lon="8.691870132434893"><ele>181.0</ele><time>2026-04-10T17:59:49Z</time></trkpt><trkpt lat="39.49597570762662" lon="8.691993273974898"><ele>182.0</ele><time>2026-04-10T17:59:50Z</time></trkpt><trkpt lat="39.495825890595555" lon="8.69213747674239"><ele>183.0</ele><time>2026-04-10T17:59:51Z</time></trkpt><trkpt lat="39.49568707026497" lon="8.692305154635811"><ele>184.0</ele><time>2026-04-10T17:59:52Z</time></trkpt><trkpt lat="39.495561472606255" lon="8.69250087928181"><ele>184.0</ele><time>2026-04-10T17:59:53Z</time></trkpt><trkpt lat="39.49545370091152" lon="8.692730099073259"><ele>184.0</ele><time>2026-04-10T17:59:54Z</time></trkpt><trkpt lat="39.495364103836735" lon="8.692988935679937"><ele>184.0</ele><time>2026-04-10T17:59:55Z</time></trkpt><trkpt lat="39.49529152684813" lon="8.693260916445427"><ele>184.5</ele><time>2026-04-10T17:59:56Z</time></trkpt><trkpt lat="39.495237985233935" lon="8.693550195317345"><ele>185.0</ele><time>2026-04-10T17:59:57Z</time></trkpt><trkpt lat="39.49518538657181" lon="8.693843995590521"><ele>185.0</ele><time>2026-04-10T17:59:58Z</time></trkpt><trkpt lat="39.49513242856599" lon="8.694151218425"><ele>185.0</ele><time>2026-04-10T17:59:59Z</time></trkpt><trkpt lat="39.49503951573809" lon="8.69444508693775"><ele>184.0</ele><time>2026-04-10T18:00:00Z</time></trkpt><trkpt lat="39.494984554041565" lon="8.69474121294363"><ele>183.0</ele><time>2026-04-10T18:00:01Z</time></trkpt><trkpt lat="39.494926208962184" lon="8.695051312712739"><ele>182.0</ele><time>2026-04-10T18:00:02Z</time></trkpt><trkpt lat="39.49486767346069" lon="8.695357706436619"><ele>181.0</ele><time>2026-04-10T18:00:03Z</time></trkpt><trkpt lat="39.49481021753342" lon="8.695658449283323"><ele>181.0</ele><time>2026-04-10T18:00:04Z</time></trkpt><trkpt lat="39.49475314894511" lon="8.695957164648659"><ele>181.0</ele><time>2026-04-10T18:00:05Z</time></trkpt><trkpt lat="39.494696562179314" lon="8.69625272313348"><ele>181.5</ele><time>2026-04-10T18:00:06Z</time></trkpt><trkpt lat="39.49464029617792" lon="8.696544544850642"><ele>182.0</ele><time>2026-04-10T18:00:07Z</time></trkpt><trkpt lat="39.49458461300358" lon="8.696834141435483"><ele>182.5</ele><time>2026-04-10T18:00:08Z</time></trkpt><trkpt lat="39.49452960189787" lon="8.69712193249532"><ele>183.0</ele><time>2026-04-10T18:00:09Z</time></trkpt><trkpt lat="39.494473885393255" lon="8.697409339464606"><ele>183.0</ele><time>2026-04-10T18:00:10Z</time></trkpt><trkpt lat="39.49441901643645" lon="8.697692374485941"><ele>183.0</ele><time>2026-04-10T18:00:11Z</time></trkpt><trkpt lat="39.49436442118209" lon="8.697973997514833"><ele>183.0</ele><time>2026-04-10T18:00:12Z</time></trkpt><trkpt lat="39.49430972196792" lon="8.698256156903165"><ele>183.0</ele><time>2026-04-10T18:00:13Z</time></trkpt><trkpt lat="39.49425597712738" lon="8.6985369413994"><ele>183.0</ele><time>2026-04-10T18:00:14Z</time></trkpt><trkpt lat="39.49420473500615" lon="8.698818055363631"><ele>183.0</ele><time>2026-04-10T18:00:15Z</time></trkpt><trkpt lat="39.494151011296914" lon="8.699100699270506"><ele>183.66666666666666</ele><time>2026-04-10T18:00:16Z</time></trkpt><trkpt lat="39.49409713837789" lon="8.699381580624616"><ele>184.33333333333331</ele><time>2026-04-10T18:00:17Z</time></trkpt><trkpt lat="39.49406635188799" lon="8.699671313899826"><ele>185.0</ele><time>2026-04-10T18:00:18Z</time></trkpt><trkpt lat="39.49401082880723" lon="8.699950625533274"><ele>185.0</ele><time>2026-04-10T18:00:19Z</time></trkpt><trkpt lat="39.493956863827655" lon="8.700226652691422"><ele>185.0</ele><time>2026-04-10T18:00:20Z</time></trkpt><trkpt lat="39.493904579788385" lon="8.700503557100374"><ele>185.0</ele><time>2026-04-10T18:00:21Z</time></trkpt><trkpt lat="39.493854539598225" lon="8.700782301519787"><ele>184.33333333333331</ele><time>2026-04-10T18:00:22Z</time></trkpt><trkpt lat="39.493801556634175" lon="8.701056924884824"><ele>183.66666666666666</ele><time>2026-04-10T18:00:23Z</time></trkpt><trkpt lat="39.49374662874356" lon="8.701328159811947"><ele>183.0</ele><time>2026-04-10T18:00:24Z</time></trkpt><trkpt lat="39.493692066704874" lon="8.70159553999339"><ele>185.0</ele><time>2026-04-10T18:00:25Z</time></trkpt><trkpt lat="39.49361053918938" lon="8.701848322591884"><ele>187.0</ele><time>2026-04-10T18:00:26Z</time></trkpt><trkpt lat="39.49354339099044" lon="8.70209772559051"><ele>189.0</ele><time>2026-04-10T18:00:27Z</time></trkpt><trkpt lat="39.49346605322231" lon="8.702343122978265"><ele>190.33333333333331</ele><time>2026-04-10T18:00:28Z</time></trkpt><trkpt lat="39.4933808596076" lon="8.702585643122942"><ele>191.66666666666666</ele><time>2026-04-10T18:00:29Z</time></trkpt><trkpt lat="39.49329106852485" lon="8.702832128763406"><ele>193.0</ele><time>2026-04-10T18:00:30Z</time></trkpt><trkpt lat="39.49319844807415" lon="8.703085391419583"><ele>193.0</ele><time>2026-04-10T18:00:31Z</time></trkpt><trkpt lat="39.49310542531941" lon="8.703339754184586"><ele>193.0</ele><time>2026-04-10T18:00:32Z</time></trkpt><trkpt lat="39.49301139904214" lon="8.703595221359837"><ele>193.0</ele><time>2026-04-10T18:00:33Z</time></trkpt><trkpt lat="39.492915673052956" lon="8.70385252435533"><ele>194.66666666666666</ele><time>2026-04-10T18:00:34Z</time></trkpt><trkpt lat="39.492820709520394" lon="8.704110888234405"><ele>196.33333333333331</ele><time>2026-04-10T18:00:35Z</time></trkpt><trkpt lat="39.49272648095448" lon="8.704368142867303"><ele>198.0</ele><time>2026-04-10T18:00:36Z</time></trkpt><trkpt lat="39.4926310123315" lon="8.704624920191524"><ele>199.33333333333331</ele><time>2026-04-10T18:00:37Z</time></trkpt><trkpt lat="39.49253653400322" lon="8.704880002712196"><ele>200.66666666666666</ele><time>2026-04-10T18:00:38Z</time></trkpt><trkpt lat="39.492442035655074" lon="8.705135139488176"><ele>202.0</ele><time>2026-04-10T18:00:39Z</time></trkpt><trkpt lat="39.492347949077164" lon="8.705390390845736"><ele>202.0</ele><time>2026-04-10T18:00:40Z</time></trkpt><trkpt lat="39.49225357653523" lon="8.705646488125216"><ele>202.0</ele><time>2026-04-10T18:00:41Z</time></trkpt><trkpt lat="39.492156946961906" lon="8.705908710327945"><ele>202.0</ele><time>2026-04-10T18:00:42Z</time></trkpt><trkpt lat="39.49206018285021" lon="8.706171297641603"><ele>203.0</ele><time>2026-04-10T18:00:43Z</time></trkpt><trkpt lat="39.49196125985197" lon="8.706439743417116"><ele>204.0</ele><time>2026-04-10T18:00:44Z</time></trkpt><trkpt lat="39.49186176513592" lon="8.706709741345314"><ele>203.0</ele><time>2026-04-10T18:00:45Z</time></trkpt><trkpt lat="39.49176342802282" lon="8.706976810453268"><ele>202.0</ele><time>2026-04-10T18:00:46Z</time></trkpt><trkpt lat="39.49166401821275" lon="8.707246844162832"><ele>202.0</ele><time>2026-04-10T18:00:47Z</time></trkpt><trkpt lat="39.49156418217359" lon="8.707518035669514"><ele>202.0</ele><time>2026-04-10T18:00:48Z</time></trkpt><trkpt lat="39.49146379438089" lon="8.707790725954418"><ele>201.0</ele><time>2026-04-10T18:00:49Z</time></trkpt><trkpt lat="39.491362865540296" lon="8.708064885906683"><ele>200.0</ele><time>2026-04-10T18:00:50Z</time></trkpt><trkpt lat="39.491260732529106" lon="8.708341593154397"><ele>202.0</ele><time>2026-04-10T18:00:51Z</time></trkpt><trkpt lat="39.491159793636626" lon="8.708613601252775"><ele>204.0</ele><time>2026-04-10T18:00:52Z</time></trkpt><trkpt lat="39.49106094783289" lon="8.708883194820022"><ele>204.0</ele><time>2026-04-10T18:00:53Z</time></trkpt><trkpt lat="39.49096356406372" lon="8.709147358950707"><ele>204.0</ele><time>2026-04-10T18:00:54Z</time></trkpt><trkpt lat="39.490870282056655" lon="8.709400396661248"><ele>204.0</ele><time>2026-04-10T18:00:55Z</time></trkpt><trkpt lat="39.49079273760798" lon="8.709658286413354"><ele>204.0</ele><time>2026-04-10T18:00:56Z</time></trkpt><trkpt lat="39.49069144518456" lon="8.709885508816784"><ele>204.0</ele><time>2026-04-10T18:00:57Z</time></trkpt><trkpt lat="39.49060547242387" lon="8.710120191689771"><ele>204.0</ele><time>2026-04-10T18:00:58Z</time></trkpt><trkpt lat="39.49052506550025" lon="8.710366073973717"><ele>203.33333333333331</ele><time>2026-04-10T18:00:59Z</time></trkpt><trkpt lat="39.49047158104014" lon="8.710616973922706"><ele>202.66666666666666</ele><time>2026-04-10T18:01:00Z</time></trkpt><trkpt lat="39.49043900112217" lon="8.710854128377218"><ele>202.0</ele><time>2026-04-10T18:01:01Z</time></trkpt><trkpt lat="39.49040661702659" lon="8.711082763032033"><ele>202.0</ele><time>2026-04-10T18:01:02Z</time></trkpt><trkpt lat="39.49034746664104" lon="8.711294564708954"><ele>202.0</ele><time>2026-04-10T18:01:03Z</time></trkpt><trkpt lat="39.49027851559359" lon="8.711494384211614"><ele>202.0</ele><time>2026-04-10T18:01:04Z</time></trkpt><trkpt lat="39.490196204414296" lon="8.711681541123538"><ele>202.0</ele><time>2026-04-10T18:01:05Z</time></trkpt><trkpt lat="39.49014366675982" lon="8.7118837202556"><ele>202.0</ele><time>2026-04-10T18:01:06Z</time></trkpt><trkpt lat="39.49009293090386" lon="8.712078246024603"><ele>202.0</ele><time>2026-04-10T18:01:07Z</time></trkpt><trkpt lat="39.49004305157576" lon="8.712269487787431"><ele>201.5</ele><time>2026-04-10T18:01:08Z</time></trkpt><trkpt lat="39.49022564283725" lon="8.712539888978032"><ele>201.0</ele><time>2026-04-10T18:01:09Z</time></trkpt><trkpt lat="39.49030609314878" lon="8.712750700596596"><ele>200.66666666666669</ele><time>2026-04-10T18:01:10Z</time></trkpt><trkpt lat="39.490398616006836" lon="8.71295283004397"><ele>200.33333333333334</ele><time>2026-04-10T18:01:11Z</time></trkpt><trkpt lat="39.49047215598204" lon="8.713149183898727"><ele>200.0</ele><time>2026-04-10T18:01:12Z</time></trkpt><trkpt lat="39.49052814127667" lon="8.713351780076975"><ele>197.33333333333334</ele><time>2026-04-10T18:01:13Z</time></trkpt><trkpt lat="39.49056816639388" lon="8.713567115558536"><ele>194.66666666666669</ele><time>2026-04-10T18:01:14Z</time></trkpt><trkpt lat="39.490593840761086" lon="8.713788199033"><ele>192.0</ele><time>2026-04-10T18:01:15Z</time></trkpt><trkpt lat="39.49060361092583" lon="8.714019392689115"><ele>192.0</ele><time>2026-04-10T18:01:16Z</time></trkpt><trkpt lat="39.49059594098009" lon="8.714248021231993"><ele>192.0</ele><time>2026-04-10T18:01:17Z</time></trkpt><trkpt lat="39.490569188582185" lon="8.714465364395167"><ele>192.0</ele><time>2026-04-10T18:01:18Z</time></trkpt><trkpt lat="39.49052263704083" lon="8.714676253391351"><ele>191.33333333333334</ele><time>2026-04-10T18:01:19Z</time></trkpt><trkpt lat="39.490453906601054" lon="8.714894793853404"><ele>190.66666666666669</ele><time>2026-04-10T18:01:20Z</time></trkpt><trkpt lat="39.49037680268964" lon="8.715121516070607"><ele>190.0</ele><time>2026-04-10T18:01:21Z</time></trkpt><trkpt lat="39.490296133064994" lon="8.715351597600877"><ele>190.0</ele><time>2026-04-10T18:01:22Z</time></trkpt><trkpt lat="39.49021045977618" lon="8.715587457733575"><ele>190.0</ele><time>2026-04-10T18:01:23Z</time></trkpt><trkpt lat="39.49012687614107" lon="8.715818886814962"><ele>190.0</ele><time>2026-04-10T18:01:24Z</time></trkpt><trkpt lat="39.49004242477384" lon="8.716051693419995"><ele>188.33333333333334</ele><time>2026-04-10T18:01:25Z</time></trkpt><trkpt lat="39.48995616623268" lon="8.716286166133946"><ele>186.66666666666666</ele><time>2026-04-10T18:01:26Z</time></trkpt><trkpt lat="39.48987053125188" lon="8.716523996728716"><ele>185.0</ele><time>2026-04-10T18:01:27Z</time></trkpt><trkpt lat="39.48978453533135" lon="8.716764307921672"><ele>184.0</ele><time>2026-04-10T18:01:28Z</time></trkpt><trkpt lat="39.48969726407284" lon="8.717007552686606"><ele>183.0</ele><time>2026-04-10T18:01:29Z</time></trkpt><trkpt lat="39.48961184331657" lon="8.717246805961144"><ele>182.0</ele><time>2026-04-10T18:01:30Z</time></trkpt><trkpt lat="39.48952830954057" lon="8.717483985640532"><ele>182.0</ele><time>2026-04-10T18:01:31Z</time></trkpt><trkpt lat="39.48945008133328" lon="8.717711003952482"><ele>182.0</ele><time>2026-04-10T18:01:32Z</time></trkpt><trkpt lat="39.48938226897134" lon="8.717936285204013"><ele>182.0</ele><time>2026-04-10T18:01:33Z</time></trkpt><trkpt lat="39.48932765867239" lon="8.718174210133279"><ele>181.33333333333331</ele><time>2026-04-10T18:01:34Z</time></trkpt><trkpt lat="39.489288848252485" lon="8.718432250991254"><ele>180.66666666666666</ele><time>2026-04-10T18:01:35Z</time></trkpt><trkpt lat="39.489259831650045" lon="8.718704619354458"><ele>180.0</ele><time>2026-04-10T18:01:36Z</time></trkpt><trkpt lat="39.48924113618306" lon="8.719003709478486"><ele>178.0</ele><time>2026-04-10T18:01:37Z</time></trkpt><trkpt lat="39.48921986382701" lon="8.719316696657387"><ele>176.0</ele><time>2026-04-10T18:01:38Z</time></trkpt><trkpt lat="39.48919666052921" lon="8.719631598983138"><ele>175.5</ele><time>2026-04-10T18:01:39Z</time></trkpt><trkpt lat="39.48916849273868" lon="8.71995024790807"><ele>175.0</ele><time>2026-04-10T18:01:40Z</time></trkpt><trkpt lat="39.489140815230634" lon="8.720271028037725"><ele>175.0</ele><time>2026-04-10T18:01:41Z</time></trkpt><trkpt lat="39.48911676269199" lon="8.720589447011562"><ele>175.0</ele><time>2026-04-10T18:01:42Z</time></trkpt><trkpt lat="39.489094587463335" lon="8.720906889582597"><ele>173.5</ele><time>2026-04-10T18:01:43Z</time></trkpt><trkpt lat="39.48907294953158" lon="8.72122333370255"><ele>172.0</ele><time>2026-04-10T18:01:44Z</time></trkpt><trkpt lat="39.48904983749074" lon="8.721539492217927"><ele>172.0</ele><time>2026-04-10T18:01:45Z</time></trkpt><trkpt lat="39.48902627594942" lon="8.721853149634383"><ele>172.0</ele><time>2026-04-10T18:01:46Z</time></trkpt><trkpt lat="39.489002646852526" lon="8.722164973634035"><ele>170.0</ele><time>2026-04-10T18:01:47Z</time></trkpt><trkpt lat="39.488980518292884" lon="8.72246759152084"><ele>168.0</ele><time>2026-04-10T18:01:48Z</time></trkpt><trkpt lat="39.48896029911036" lon="8.722755971660579"><ele>166.33333333333334</ele><time>2026-04-10T18:01:49Z</time></trkpt><trkpt lat="39.488939925477" lon="8.72303303811863"><ele>164.66666666666669</ele><time>2026-04-10T18:01:50Z</time></trkpt><trkpt lat="39.48891769274179" lon="8.723302470182785"><ele>163.0</ele><time>2026-04-10T18:01:51Z</time></trkpt><trkpt lat="39.4888930667855" lon="8.723564107381335"><ele>162.33333333333334</ele><time>2026-04-10T18:01:52Z</time></trkpt><trkpt lat="39.48886262145781" lon="8.723829250596957"><ele>161.66666666666666</ele><time>2026-04-10T18:01:53Z</time></trkpt><trkpt lat="39.48882080752367" lon="8.724098339147893"><ele>161.0</ele><time>2026-04-10T18:01:54Z</time></trkpt><trkpt lat="39.48876151857266" lon="8.724369031510099"><ele>159.66666666666666</ele><time>2026-04-10T18:01:55Z</time></trkpt><trkpt lat="39.48868440525173" lon="8.724632461348381"><ele>158.33333333333334</ele><time>2026-04-10T18:01:56Z</time></trkpt><trkpt lat="39.488596127142955" lon="8.724897757071483"><ele>157.0</ele><time>2026-04-10T18:01:57Z</time></trkpt><trkpt lat="39.48849476960031" lon="8.725160443518796"><ele>156.0</ele><time>2026-04-10T18:01:58Z</time></trkpt><trkpt lat="39.48837906726283" lon="8.725424921039677"><ele>155.0</ele><time>2026-04-10T18:01:59Z</time></trkpt><trkpt lat="39.48824858147901" lon="8.725689094758557"><ele>155.0</ele><time>2026-04-10T18:02:00Z</time></trkpt><trkpt lat="39.48811328518612" lon="8.72595804498585"><ele>155.0</ele><time>2026-04-10T18:02:01Z</time></trkpt><trkpt lat="39.48797576658492" lon="8.726234547580646"><ele>157.0</ele><time>2026-04-10T18:02:02Z</time></trkpt><trkpt lat="39.487837274741416" lon="8.726513626867437"><ele>159.0</ele><time>2026-04-10T18:02:03Z</time></trkpt><trkpt lat="39.487696432153356" lon="8.726799129525386"><ele>158.5</ele><time>2026-04-10T18:02:04Z</time></trkpt><trkpt lat="39.48755352846324" lon="8.727084845384598"><ele>158.0</ele><time>2026-04-10T18:02:05Z</time></trkpt><trkpt lat="39.48740772412681" lon="8.72737008244825"><ele>158.0</ele><time>2026-04-10T18:02:06Z</time></trkpt><trkpt lat="39.4872587286339" lon="8.727655523515855"><ele>158.0</ele><time>2026-04-10T18:02:07Z</time></trkpt><trkpt lat="39.48710916003786" lon="8.72794365960345"><ele>157.0</ele><time>2026-04-10T18:02:08Z</time></trkpt><trkpt lat="39.486961592372346" lon="8.72823362428503"><ele>156.0</ele><time>2026-04-10T18:02:09Z</time></trkpt><trkpt lat="39.486816026295685" lon="8.728525451452393"><ele>155.0</ele><time>2026-04-10T18:02:10Z</time></trkpt><trkpt lat="39.48667067133669" lon="8.72881922972912"><ele>154.0</ele><time>2026-04-10T18:02:11Z</time></trkpt><trkpt lat="39.48653259804355" lon="8.729091956814583"><ele>154.0</ele><time>2026-04-10T18:02:12Z</time></trkpt><trkpt lat="39.486401151711036" lon="8.729351612930097"><ele>154.0</ele><time>2026-04-10T18:02:13Z</time></trkpt><trkpt lat="39.48627477732241" lon="8.729600380000479"><ele>152.66666666666669</ele><time>2026-04-10T18:02:14Z</time></trkpt><trkpt lat="39.486153486334416" lon="8.729836074018056"><ele>151.33333333333334</ele><time>2026-04-10T18:02:15Z</time></trkpt><trkpt lat="39.486038443879934" lon="8.730061427017354"><ele>150.0</ele><time>2026-04-10T18:02:16Z</time></trkpt><trkpt lat="39.48592793387736" lon="8.73027903652145"><ele>150.0</ele><time>2026-04-10T18:02:17Z</time></trkpt><trkpt lat="39.48582121957879" lon="8.730491255110394"><ele>150.0</ele><time>2026-04-10T18:02:18Z</time></trkpt><trkpt lat="39.485712955584475" lon="8.730705100895003"><ele>150.0</ele><time>2026-04-10T18:02:19Z</time></trkpt><trkpt lat="39.48560549414398" lon="8.730919223677807"><ele>150.66666666666666</ele><time>2026-04-10T18:02:20Z</time></trkpt><trkpt lat="39.48549941746436" lon="8.731132859203758"><ele>151.33333333333331</ele><time>2026-04-10T18:02:21Z</time></trkpt><trkpt lat="39.485391840596584" lon="8.731347038907547"><ele>152.0</ele><time>2026-04-10T18:02:22Z</time></trkpt><trkpt lat="39.48528314643721" lon="8.731563589283489"><ele>151.66666666666666</ele><time>2026-04-10T18:02:23Z</time></trkpt><trkpt lat="39.4851742039247" lon="8.731780424254795"><ele>151.33333333333334</ele><time>2026-04-10T18:02:24Z</time></trkpt><trkpt lat="39.48506422646557" lon="8.73200069701967"><ele>151.0</ele><time>2026-04-10T18:02:25Z</time></trkpt><trkpt lat="39.484952247628385" lon="8.7322234761146"><ele>151.0</ele><time>2026-04-10T18:02:26Z</time></trkpt><trkpt lat="39.484839708078695" lon="8.732449820745241"><ele>151.0</ele><time>2026-04-10T18:02:27Z</time></trkpt><trkpt lat="39.48472389981547" lon="8.732681948822979"><ele>151.0</ele><time>2026-04-10T18:02:28Z</time></trkpt><trkpt lat="39.484601837394635" lon="8.732924318248807"><ele>152.0</ele><time>2026-04-10T18:02:29Z</time></trkpt><trkpt lat="39.48447757365929" lon="8.733171863960049"><ele>153.0</ele><time>2026-04-10T18:02:30Z</time></trkpt><trkpt lat="39.484352981312696" lon="8.733419939327305"><ele>152.0</ele><time>2026-04-10T18:02:31Z</time></trkpt><trkpt lat="39.48422667553745" lon="8.733671629446217"><ele>151.0</ele><time>2026-04-10T18:02:32Z</time></trkpt><trkpt lat="39.484098551547326" lon="8.733926860400473"><ele>151.0</ele><time>2026-04-10T18:02:33Z</time></trkpt><trkpt lat="39.483971317431866" lon="8.734183770040536"><ele>151.0</ele><time>2026-04-10T18:02:34Z</time></trkpt><trkpt lat="39.48384447170905" lon="8.73444099239372"><ele>152.0</ele><time>2026-04-10T18:02:35Z</time></trkpt><trkpt lat="39.48371664039374" lon="8.734697741915232"><ele>153.0</ele><time>2026-04-10T18:02:36Z</time></trkpt><trkpt lat="39.483589548515404" lon="8.73495528293239"><ele>153.0</ele><time>2026-04-10T18:02:37Z</time></trkpt><trkpt lat="39.483462374867344" lon="8.735211111786164"><ele>153.0</ele><time>2026-04-10T18:02:38Z</time></trkpt><trkpt lat="39.48333480283632" lon="8.735467718909339"><ele>154.0</ele><time>2026-04-10T18:02:39Z</time></trkpt><trkpt lat="39.483206257388986" lon="8.735723423595067"><ele>155.0</ele><time>2026-04-10T18:02:40Z</time></trkpt><trkpt lat="39.483070077948064" lon="8.735974479602953"><ele>153.5</ele><time>2026-04-10T18:02:41Z</time></trkpt><trkpt lat="39.48292787656086" lon="8.73622465305618"><ele>152.0</ele><time>2026-04-10T18:02:42Z</time></trkpt><trkpt lat="39.48278410890714" lon="8.736474882231803"><ele>152.0</ele><time>2026-04-10T18:02:43Z</time></trkpt><trkpt lat="39.48263888268494" lon="8.736722819601942"><ele>152.0</ele><time>2026-04-10T18:02:44Z</time></trkpt><trkpt lat="39.48248942327551" lon="8.736969376414585"><ele>152.0</ele><time>2026-04-10T18:02:45Z</time></trkpt><trkpt lat="39.48233670921041" lon="8.737215659674037"><ele>152.0</ele><time>2026-04-10T18:02:46Z</time></trkpt><trkpt lat="39.48218093425408" lon="8.737464355166427"><ele>153.0</ele><time>2026-04-10T18:02:47Z</time></trkpt><trkpt lat="39.48201053930272" lon="8.73769727301282"><ele>154.0</ele><time>2026-04-10T18:02:48Z</time></trkpt><trkpt lat="39.481863068069444" lon="8.73795835183946"><ele>154.5</ele><time>2026-04-10T18:02:49Z</time></trkpt><trkpt lat="39.48170025152784" lon="8.738206438412922"><ele>155.0</ele><time>2026-04-10T18:02:50Z</time></trkpt><trkpt lat="39.48153772432403" lon="8.738457004975334"><ele>155.0</ele><time>2026-04-10T18:02:51Z</time></trkpt><trkpt lat="39.48137437179619" lon="8.738712210782937"><ele>155.0</ele><time>2026-04-10T18:02:52Z</time></trkpt><trkpt lat="39.48121120438703" lon="8.738965169337094"><ele>155.0</ele><time>2026-04-10T18:02:53Z</time></trkpt><trkpt lat="39.48104847436634" lon="8.739218311032756"><ele>155.0</ele><time>2026-04-10T18:02:54Z</time></trkpt><trkpt lat="39.480884030553376" lon="8.739472451633468"><ele>154.5</ele><time>2026-04-10T18:02:55Z</time></trkpt><trkpt lat="39.4807177508965" lon="8.739724011137467"><ele>154.0</ele><time>2026-04-10T18:02:56Z</time></trkpt><trkpt lat="39.48055236567112" lon="8.73997378017857"><ele>154.5</ele><time>2026-04-10T18:02:57Z</time></trkpt><trkpt lat="39.48038999531494" lon="8.74022412553143"><ele>155.0</ele><time>2026-04-10T18:02:58Z</time></trkpt><trkpt lat="39.48022813350533" lon="8.740475276006961"><ele>155.0</ele><time>2026-04-10T18:02:59Z</time></trkpt><trkpt lat="39.48006558938519" lon="8.74072887813665"><ele>155.0</ele><time>2026-04-10T18:03:00Z</time></trkpt><trkpt lat="39.47990527213288" lon="8.740977708801884"><ele>156.0</ele><time>2026-04-10T18:03:01Z</time></trkpt><trkpt lat="39.479744866804246" lon="8.741227777007365"><ele>157.0</ele><time>2026-04-10T18:03:02Z</time></trkpt><trkpt lat="39.47958634106894" lon="8.741474545893011"><ele>157.0</ele><time>2026-04-10T18:03:03Z</time></trkpt><trkpt lat="39.479426267281816" lon="8.741722577476326"><ele>157.0</ele><time>2026-04-10T18:03:04Z</time></trkpt><trkpt lat="39.47926610434095" lon="8.741970273004496"><ele>155.5</ele><time>2026-04-10T18:03:05Z</time></trkpt><trkpt lat="39.479108289406476" lon="8.742216876686221"><ele>154.0</ele><time>2026-04-10T18:03:06Z</time></trkpt><trkpt lat="39.47894980519034" lon="8.742463697425565"><ele>154.0</ele><time>2026-04-10T18:03:07Z</time></trkpt><trkpt lat="39.47878936153972" lon="8.742710669892102"><ele>154.0</ele><time>2026-04-10T18:03:08Z</time></trkpt><trkpt lat="39.47862940153251" lon="8.74295713799705"><ele>153.0</ele><time>2026-04-10T18:03:09Z</time></trkpt><trkpt lat="39.47846937270517" lon="8.743201251866138"><ele>152.0</ele><time>2026-04-10T18:03:10Z</time></trkpt><trkpt lat="39.4783089356274" lon="8.743447667456651"><ele>151.5</ele><time>2026-04-10T18:03:11Z</time></trkpt><trkpt lat="39.478150774610185" lon="8.743694271736189"><ele>151.0</ele><time>2026-04-10T18:03:12Z</time></trkpt><trkpt lat="39.47799498878698" lon="8.743940143521348"><ele>151.0</ele><time>2026-04-10T18:03:13Z</time></trkpt><trkpt lat="39.47783781569562" lon="8.744184357031443"><ele>151.0</ele><time>2026-04-10T18:03:14Z</time></trkpt><trkpt lat="39.47768094793912" lon="8.74442899566435"><ele>151.0</ele><time>2026-04-10T18:03:15Z</time></trkpt><trkpt lat="39.477524429647076" lon="8.744674352193286"><ele>151.0</ele><time>2026-04-10T18:03:16Z</time></trkpt><trkpt lat="39.47736878190233" lon="8.744919978559437"><ele>151.0</ele><time>2026-04-10T18:03:17Z</time></trkpt><trkpt lat="39.47721307010799" lon="8.745161893825573"><ele>151.0</ele><time>2026-04-10T18:03:18Z</time></trkpt><trkpt lat="39.47705753043724" lon="8.745401990138017"><ele>151.0</ele><time>2026-04-10T18:03:19Z</time></trkpt><trkpt lat="39.47690229490635" lon="8.745639678872749"><ele>151.0</ele><time>2026-04-10T18:03:20Z</time></trkpt><trkpt lat="39.47674929367924" lon="8.745878152047371"><ele>149.5</ele><time>2026-04-10T18:03:21Z</time></trkpt><trkpt lat="39.47659632501793" lon="8.746116198432924"><ele>148.0</ele><time>2026-04-10T18:03:22Z</time></trkpt><trkpt lat="39.47644341559757" lon="8.746353600402253"><ele>148.0</ele><time>2026-04-10T18:03:23Z</time></trkpt><trkpt lat="39.47629102919843" lon="8.74659218254032"><ele>148.0</ele><time>2026-04-10T18:03:24Z</time></trkpt><trkpt lat="39.47613928562079" lon="8.746830693611185"><ele>148.0</ele><time>2026-04-10T18:03:25Z</time></trkpt><trkpt lat="39.4759849600265" lon="8.747067904823263"><ele>148.0</ele><time>2026-04-10T18:03:26Z</time></trkpt><trkpt lat="39.47583012214763" lon="8.747306966133785"><ele>148.0</ele><time>2026-04-10T18:03:27Z</time></trkpt><trkpt lat="39.475676911838626" lon="8.747545821878592"><ele>148.0</ele><time>2026-04-10T18:03:28Z</time></trkpt><trkpt lat="39.475523969299935" lon="8.747787379936948"><ele>147.5</ele><time>2026-04-10T18:03:29Z</time></trkpt><trkpt lat="39.47537040016855" lon="8.748029389622213"><ele>147.0</ele><time>2026-04-10T18:03:30Z</time></trkpt><trkpt lat="39.475212076283526" lon="8.748272973350966"><ele>147.0</ele><time>2026-04-10T18:03:31Z</time></trkpt><trkpt lat="39.475054211526015" lon="8.748514995712858"><ele>147.0</ele><time>2026-04-10T18:03:32Z</time></trkpt><trkpt lat="39.474895573628565" lon="8.748760335936971"><ele>146.5</ele><time>2026-04-10T18:03:33Z</time></trkpt><trkpt lat="39.4747352421021" lon="8.749004294065237"><ele>146.0</ele><time>2026-04-10T18:03:34Z</time></trkpt><trkpt lat="39.474575941706405" lon="8.74925341365534"><ele>146.5</ele><time>2026-04-10T18:03:35Z</time></trkpt><trkpt lat="39.474415655111414" lon="8.749504865862106"><ele>147.0</ele><time>2026-04-10T18:03:36Z</time></trkpt><trkpt lat="39.47425359276406" lon="8.749755688812593"><ele>147.0</ele><time>2026-04-10T18:03:37Z</time></trkpt><trkpt lat="39.474092076084816" lon="8.750007340564157"><ele>147.0</ele><time>2026-04-10T18:03:38Z</time></trkpt><trkpt lat="39.47392635475032" lon="8.750260290115422"><ele>149.5</ele><time>2026-04-10T18:03:39Z</time></trkpt><trkpt lat="39.47376257878563" lon="8.750512275670225"><ele>152.0</ele><time>2026-04-10T18:03:40Z</time></trkpt><trkpt lat="39.47359898777324" lon="8.750766625678112"><ele>152.0</ele><time>2026-04-10T18:03:41Z</time></trkpt><trkpt lat="39.47343436128801" lon="8.751022674535704"><ele>152.0</ele><time>2026-04-10T18:03:42Z</time></trkpt><trkpt lat="39.473270257293514" lon="8.75128011041522"><ele>152.0</ele><time>2026-04-10T18:03:43Z</time></trkpt><trkpt lat="39.473108499056856" lon="8.751535520039562"><ele>152.0</ele><time>2026-04-10T18:03:44Z</time></trkpt><trkpt lat="39.472946565087334" lon="8.751788598004705"><ele>154.0</ele><time>2026-04-10T18:03:45Z</time></trkpt><trkpt lat="39.472790941608686" lon="8.752053497800249"><ele>156.0</ele><time>2026-04-10T18:03:46Z</time></trkpt><trkpt lat="39.47263451491436" lon="8.752292103430323"><ele>156.0</ele><time>2026-04-10T18:03:47Z</time></trkpt><trkpt lat="39.47246705479131" lon="8.752542703152995"><ele>156.0</ele><time>2026-04-10T18:03:48Z</time></trkpt><trkpt lat="39.4723070821554" lon="8.75279201352313"><ele>156.5</ele><time>2026-04-10T18:03:49Z</time></trkpt><trkpt lat="39.47214821473255" lon="8.753038781668671"><ele>157.0</ele><time>2026-04-10T18:03:50Z</time></trkpt><trkpt lat="39.471987618117595" lon="8.75328770134316"><ele>157.0</ele><time>2026-04-10T18:03:51Z</time></trkpt><trkpt lat="39.471831402199946" lon="8.753531616145514"><ele>157.0</ele><time>2026-04-10T18:03:52Z</time></trkpt><trkpt lat="39.47167602605537" lon="8.753774966531584"><ele>156.0</ele><time>2026-04-10T18:03:53Z</time></trkpt><trkpt lat="39.47152204459487" lon="8.754013892816275"><ele>155.0</ele><time>2026-04-10T18:03:54Z</time></trkpt><trkpt lat="39.47137060405343" lon="8.754247489728142"><ele>156.0</ele><time>2026-04-10T18:03:55Z</time></trkpt><trkpt lat="39.47122409519105" lon="8.754473280550112"><ele>157.0</ele><time>2026-04-10T18:03:56Z</time></trkpt><trkpt lat="39.47108149494624" lon="8.754695310831442"><ele>157.0</ele><time>2026-04-10T18:03:57Z</time></trkpt><trkpt lat="39.47093739484352" lon="8.754915257294428"><ele>157.0</ele><time>2026-04-10T18:03:58Z</time></trkpt><trkpt lat="39.470795721205114" lon="8.755142398753547"><ele>157.0</ele><time>2026-04-10T18:03:59Z</time></trkpt><trkpt lat="39.470656778326905" lon="8.755370032325894"><ele>157.33333333333334</ele><time>2026-04-10T18:04:00Z</time></trkpt><trkpt lat="39.470516763652704" lon="8.75559172410202"><ele>157.66666666666666</ele><time>2026-04-10T18:04:01Z</time></trkpt><trkpt lat="39.4703751219209" lon="8.755807549354351"><ele>158.0</ele><time>2026-04-10T18:04:02Z</time></trkpt><trkpt lat="39.47023138343923" lon="8.756028700580107"><ele>157.0</ele><time>2026-04-10T18:04:03Z</time></trkpt><trkpt lat="39.47008330734808" lon="8.75626701570191"><ele>156.0</ele><time>2026-04-10T18:04:04Z</time></trkpt><trkpt lat="39.469928499396126" lon="8.756516955547225"><ele>156.0</ele><time>2026-04-10T18:04:05Z</time></trkpt><trkpt lat="39.46976878310824" lon="8.756769683522357"><ele>156.0</ele><time>2026-04-10T18:04:06Z</time></trkpt><trkpt lat="39.46960509246924" lon="8.757020789459235"><ele>156.0</ele><time>2026-04-10T18:04:07Z</time></trkpt><trkpt lat="39.46943564242769" lon="8.75727274663334"><ele>156.0</ele><time>2026-04-10T18:04:08Z</time></trkpt><trkpt lat="39.46926696537085" lon="8.75752149692721"><ele>155.5</ele><time>2026-04-10T18:04:09Z</time></trkpt><trkpt lat="39.46910086791062" lon="8.757777092716847"><ele>155.0</ele><time>2026-04-10T18:04:10Z</time></trkpt><trkpt lat="39.46893526475377" lon="8.75803371770063"><ele>155.0</ele><time>2026-04-10T18:04:11Z</time></trkpt><trkpt lat="39.46876917529187" lon="8.758290303177722"><ele>155.0</ele><time>2026-04-10T18:04:12Z</time></trkpt><trkpt lat="39.4686044763824" lon="8.758546058299952"><ele>154.5</ele><time>2026-04-10T18:04:13Z</time></trkpt><trkpt lat="39.46843868073328" lon="8.758803650613736"><ele>154.0</ele><time>2026-04-10T18:04:14Z</time></trkpt><trkpt lat="39.46827455091965" lon="8.759059040351165"><ele>154.0</ele><time>2026-04-10T18:04:15Z</time></trkpt><trkpt lat="39.46811071156378" lon="8.759315179869537"><ele>154.0</ele><time>2026-04-10T18:04:16Z</time></trkpt><trkpt lat="39.46794577844665" lon="8.759570241733602"><ele>152.5</ele><time>2026-04-10T18:04:17Z</time></trkpt><trkpt lat="39.467780878713704" lon="8.759826779467327"><ele>151.0</ele><time>2026-04-10T18:04:18Z</time></trkpt><trkpt lat="39.46761408767523" lon="8.760082743174891"><ele>150.5</ele><time>2026-04-10T18:04:19Z</time></trkpt><trkpt lat="39.46744833305329" lon="8.760335489623717"><ele>150.0</ele><time>2026-04-10T18:04:20Z</time></trkpt><trkpt lat="39.46728285174658" lon="8.760592963257912"><ele>150.0</ele><time>2026-04-10T18:04:21Z</time></trkpt><trkpt lat="39.46711657077597" lon="8.76085064002394"><ele>150.0</ele><time>2026-04-10T18:04:22Z</time></trkpt><trkpt lat="39.46695143963537" lon="8.761106471730809"><ele>150.0</ele><time>2026-04-10T18:04:23Z</time></trkpt><trkpt lat="39.4667879490509" lon="8.76136073088772"><ele>150.0</ele><time>2026-04-10T18:04:24Z</time></trkpt><trkpt lat="39.4666219858822" lon="8.761615877066756"><ele>149.5</ele><time>2026-04-10T18:04:25Z</time></trkpt><trkpt lat="39.46645583145488" lon="8.761874270896067"><ele>149.0</ele><time>2026-04-10T18:04:26Z</time></trkpt><trkpt lat="39.46628996585327" lon="8.762131432027498"><ele>149.5</ele><time>2026-04-10T18:04:27Z</time></trkpt><trkpt lat="39.46612384464468" lon="8.762385892262396"><ele>150.0</ele><time>2026-04-10T18:04:28Z</time></trkpt><trkpt lat="39.465952210572524" lon="8.762635644380987"><ele>148.5</ele><time>2026-04-10T18:04:29Z</time></trkpt><trkpt lat="39.46577469678854" lon="8.76287911620148"><ele>147.0</ele><time>2026-04-10T18:04:30Z</time></trkpt><trkpt lat="39.465591973888536" lon="8.76311210778059"><ele>147.5</ele><time>2026-04-10T18:04:31Z</time></trkpt><trkpt lat="39.46540234431138" lon="8.763340598076919"><ele>148.0</ele><time>2026-04-10T18:04:32Z</time></trkpt><trkpt lat="39.46520905476524" lon="8.763568531952785"><ele>148.0</ele><time>2026-04-10T18:04:33Z</time></trkpt><trkpt lat="39.46501058836725" lon="8.763793203656594"><ele>148.0</ele><time>2026-04-10T18:04:34Z</time></trkpt><trkpt lat="39.46481261604957" lon="8.764014531837555"><ele>148.5</ele><time>2026-04-10T18:04:35Z</time></trkpt><trkpt lat="39.46461067901905" lon="8.764237709450432"><ele>149.0</ele><time>2026-04-10T18:04:36Z</time></trkpt><trkpt lat="39.46440859485951" lon="8.764455952485791"><ele>149.0</ele><time>2026-04-10T18:04:37Z</time></trkpt><trkpt lat="39.46420374336064" lon="8.764675144400346"><ele>149.0</ele><time>2026-04-10T18:04:38Z</time></trkpt><trkpt lat="39.464000073911684" lon="8.764894399573121"><ele>149.0</ele><time>2026-04-10T18:04:39Z</time></trkpt><trkpt lat="39.463793442217714" lon="8.765119615145435"><ele>149.0</ele><time>2026-04-10T18:04:40Z</time></trkpt><trkpt lat="39.46358911930205" lon="8.765342647086504"><ele>147.5</ele><time>2026-04-10T18:04:41Z</time></trkpt><trkpt lat="39.46338455970009" lon="8.765565852611592"><ele>146.0</ele><time>2026-04-10T18:04:42Z</time></trkpt><trkpt lat="39.463179893849755" lon="8.765788357744897"><ele>146.0</ele><time>2026-04-10T18:04:43Z</time></trkpt><trkpt lat="39.462975379152766" lon="8.766009763502336"><ele>146.0</ele><time>2026-04-10T18:04:44Z</time></trkpt><trkpt lat="39.46277075390943" lon="8.766233294825591"><ele>146.0</ele><time>2026-04-10T18:04:45Z</time></trkpt><trkpt lat="39.46257075442266" lon="8.766453247875575"><ele>146.0</ele><time>2026-04-10T18:04:46Z</time></trkpt><trkpt lat="39.46237115589174" lon="8.766670488895736"><ele>145.5</ele><time>2026-04-10T18:04:47Z</time></trkpt><trkpt lat="39.46217307357418" lon="8.766886621358676"><ele>145.0</ele><time>2026-04-10T18:04:48Z</time></trkpt><trkpt lat="39.46197588723038" lon="8.767101198647126"><ele>145.0</ele><time>2026-04-10T18:04:49Z</time></trkpt><trkpt lat="39.461777623308706" lon="8.767315535088192"><ele>145.0</ele><time>2026-04-10T18:04:50Z</time></trkpt><trkpt lat="39.461581619290754" lon="8.767525307788317"><ele>144.0</ele><time>2026-04-10T18:04:51Z</time></trkpt><trkpt lat="39.46138575329481" lon="8.767739570265826"><ele>143.0</ele><time>2026-04-10T18:04:52Z</time></trkpt><trkpt lat="39.46118967435286" lon="8.767954058078272"><ele>143.0</ele><time>2026-04-10T18:04:53Z</time></trkpt><trkpt lat="39.4609920057713" lon="8.768172756938743"><ele>143.0</ele><time>2026-04-10T18:04:54Z</time></trkpt><trkpt lat="39.4607928530424" lon="8.768390142494011"><ele>142.5</ele><time>2026-04-10T18:04:55Z</time></trkpt><trkpt lat="39.46059723682209" lon="8.768608013359911"><ele>142.0</ele><time>2026-04-10T18:04:56Z</time></trkpt><trkpt lat="39.46039686434896" lon="8.768828196075702"><ele>142.0</ele><time>2026-04-10T18:04:57Z</time></trkpt><trkpt lat="39.460194432889715" lon="8.769050218021167"><ele>142.0</ele><time>2026-04-10T18:04:58Z</time></trkpt><trkpt lat="39.45999140815044" lon="8.769271442682216"><ele>141.0</ele><time>2026-04-10T18:04:59Z</time></trkpt><trkpt lat="39.459785711409616" lon="8.769493749566463"><ele>140.0</ele><time>2026-04-10T18:05:00Z</time></trkpt><trkpt lat="39.459583965791396" lon="8.769713710554603"><ele>140.0</ele><time>2026-04-10T18:05:01Z</time></trkpt><trkpt lat="39.45938011505484" lon="8.769935523391181"><ele>140.0</ele><time>2026-04-10T18:05:02Z</time></trkpt><trkpt lat="39.459175924270006" lon="8.770156219837832"><ele>140.0</ele><time>2026-04-10T18:05:03Z</time></trkpt><trkpt lat="39.458971898673866" lon="8.770378898473012"><ele>140.0</ele><time>2026-04-10T18:05:04Z</time></trkpt><trkpt lat="39.45876852283393" lon="8.77060056288343"><ele>140.0</ele><time>2026-04-10T18:05:05Z</time></trkpt><trkpt lat="39.45856792979991" lon="8.770819427594889"><ele>140.0</ele><time>2026-04-10T18:05:06Z</time></trkpt><trkpt lat="39.45836723086671" lon="8.771037799928969"><ele>138.5</ele><time>2026-04-10T18:05:07Z</time></trkpt><trkpt lat="39.45816440451006" lon="8.77125511973046"><ele>137.0</ele><time>2026-04-10T18:05:08Z</time></trkpt><trkpt lat="39.457964551257525" lon="8.771471338927599"><ele>137.0</ele><time>2026-04-10T18:05:09Z</time></trkpt><trkpt lat="39.45776283876021" lon="8.771691920227196"><ele>137.0</ele><time>2026-04-10T18:05:10Z</time></trkpt><trkpt lat="39.45755966564726" lon="8.771912440175926"><ele>137.0</ele><time>2026-04-10T18:05:11Z</time></trkpt><trkpt lat="39.45735977992946" lon="8.77213042817282"><ele>137.0</ele><time>2026-04-10T18:05:12Z</time></trkpt><trkpt lat="39.457158953574115" lon="8.772350614758322"><ele>136.5</ele><time>2026-04-10T18:05:13Z</time></trkpt><trkpt lat="39.45696189846311" lon="8.772566466900702"><ele>136.0</ele><time>2026-04-10T18:05:14Z</time></trkpt><trkpt lat="39.45676291157894" lon="8.77278148773734"><ele>135.0</ele><time>2026-04-10T18:05:15Z</time></trkpt><trkpt lat="39.45656407687916" lon="8.772996618741503"><ele>134.0</ele><time>2026-04-10T18:05:16Z</time></trkpt><trkpt lat="39.45636623236914" lon="8.773211231409583"><ele>134.0</ele><time>2026-04-10T18:05:17Z</time></trkpt><trkpt lat="39.456168939361774" lon="8.773427613591775"><ele>134.0</ele><time>2026-04-10T18:05:18Z</time></trkpt><trkpt lat="39.455972705092165" lon="8.773642405531675"><ele>134.0</ele><time>2026-04-10T18:05:19Z</time></trkpt><trkpt lat="39.45577523158353" lon="8.77385609277744"><ele>134.0</ele><time>2026-04-10T18:05:20Z</time></trkpt><trkpt lat="39.4555777220309" lon="8.77407301816472"><ele>133.5</ele><time>2026-04-10T18:05:21Z</time></trkpt><trkpt lat="39.45538061097948" lon="8.77428992561246"><ele>133.0</ele><time>2026-04-10T18:05:22Z</time></trkpt><trkpt lat="39.45518494180628" lon="8.77450578924914"><ele>132.5</ele><time>2026-04-10T18:05:23Z</time></trkpt><trkpt lat="39.454986464940944" lon="8.774723106526869"><ele>132.0</ele><time>2026-04-10T18:05:24Z</time></trkpt><trkpt lat="39.454786753315574" lon="8.774939568313467"><ele>132.0</ele><time>2026-04-10T18:05:25Z</time></trkpt><trkpt lat="39.454586841696454" lon="8.775154927889382"><ele>132.0</ele><time>2026-04-10T18:05:26Z</time></trkpt><trkpt lat="39.454384791079754" lon="8.775374677058219"><ele>132.0</ele><time>2026-04-10T18:05:27Z</time></trkpt><trkpt lat="39.45418265816895" lon="8.775594851279578"><ele>132.0</ele><time>2026-04-10T18:05:28Z</time></trkpt><trkpt lat="39.45397972048993" lon="8.775814486745869"><ele>131.0</ele><time>2026-04-10T18:05:29Z</time></trkpt><trkpt lat="39.453778841643405" lon="8.776034766076025"><ele>130.0</ele><time>2026-04-10T18:05:30Z</time></trkpt><trkpt lat="39.4535748766908" lon="8.776253708107374"><ele>130.0</ele><time>2026-04-10T18:05:31Z</time></trkpt><trkpt lat="39.45337269369231" lon="8.77647407647499"><ele>130.0</ele><time>2026-04-10T18:05:32Z</time></trkpt><trkpt lat="39.45317059581589" lon="8.77669205486523"><ele>129.5</ele><time>2026-04-10T18:05:33Z</time></trkpt><trkpt lat="39.452972607152816" lon="8.776911982845428"><ele>129.0</ele><time>2026-04-10T18:05:34Z</time></trkpt><trkpt lat="39.45277478843403" lon="8.777132158106465"><ele>128.5</ele><time>2026-04-10T18:05:35Z</time></trkpt><trkpt lat="39.452577368925354" lon="8.777350354885211"><ele>128.0</ele><time>2026-04-10T18:05:36Z</time></trkpt><trkpt lat="39.452382647540105" lon="8.77756761530519"><ele>127.5</ele><time>2026-04-10T18:05:37Z</time></trkpt><trkpt lat="39.45218616050114" lon="8.777786031855689"><ele>127.0</ele><time>2026-04-10T18:05:38Z</time></trkpt><trkpt lat="39.45198963207093" lon="8.777996831635788"><ele>128.0</ele><time>2026-04-10T18:05:39Z</time></trkpt><trkpt lat="39.45179455056118" lon="8.778207299738218"><ele>129.0</ele><time>2026-04-10T18:05:40Z</time></trkpt><trkpt lat="39.45159845010099" lon="8.778418528529285"><ele>129.0</ele><time>2026-04-10T18:05:41Z</time></trkpt><trkpt lat="39.4514041887338" lon="8.778628752707425"><ele>129.0</ele><time>2026-04-10T18:05:42Z</time></trkpt><trkpt lat="39.4512103030933" lon="8.778840955217937"><ele>128.5</ele><time>2026-04-10T18:05:43Z</time></trkpt><trkpt lat="39.451015081762066" lon="8.779056166306079"><ele>128.0</ele><time>2026-04-10T18:05:44Z</time></trkpt><trkpt lat="39.45081830428981" lon="8.779266441254645"><ele>127.5</ele><time>2026-04-10T18:05:45Z</time></trkpt><trkpt lat="39.45061658155777" lon="8.779472882972746"><ele>127.0</ele><time>2026-04-10T18:05:46Z</time></trkpt><trkpt lat="39.450411103267705" lon="8.779671663288914"><ele>127.0</ele><time>2026-04-10T18:05:47Z</time></trkpt><trkpt lat="39.45020080509725" lon="8.779857210283483"><ele>127.0</ele><time>2026-04-10T18:05:48Z</time></trkpt><trkpt lat="39.44998490872179" lon="8.780039156263792"><ele>126.5</ele><time>2026-04-10T18:05:49Z</time></trkpt><trkpt lat="39.4497645109603" lon="8.780216408137612"><ele>126.0</ele><time>2026-04-10T18:05:50Z</time></trkpt><trkpt lat="39.44953895849916" lon="8.78038865236407"><ele>126.0</ele><time>2026-04-10T18:05:51Z</time></trkpt><trkpt lat="39.44930946545919" lon="8.780553844296492"><ele>126.0</ele><time>2026-04-10T18:05:52Z</time></trkpt><trkpt lat="39.44907187901896" lon="8.780711626678805"><ele>126.0</ele><time>2026-04-10T18:05:53Z</time></trkpt><trkpt lat="39.44882668871175" lon="8.780859612997986"><ele>126.0</ele><time>2026-04-10T18:05:54Z</time></trkpt><trkpt lat="39.44858128189887" lon="8.780998519263107"><ele>126.0</ele><time>2026-04-10T18:05:55Z</time></trkpt><trkpt lat="39.448329778376134" lon="8.781124880611332"><ele>126.0</ele><time>2026-04-10T18:05:56Z</time></trkpt><trkpt lat="39.44807479511401" lon="8.781245251022423"><ele>125.0</ele><time>2026-04-10T18:05:57Z</time></trkpt><trkpt lat="39.44782111834396" lon="8.78135213699072"><ele>124.0</ele><time>2026-04-10T18:05:58Z</time></trkpt><trkpt lat="39.447564916120136" lon="8.781450897009966"><ele>124.0</ele><time>2026-04-10T18:05:59Z</time></trkpt><trkpt lat="39.44730908853001" lon="8.78154071958524"><ele>124.0</ele><time>2026-04-10T18:06:00Z</time></trkpt><trkpt lat="39.44705244860335" lon="8.781625434138082"><ele>124.0</ele><time>2026-04-10T18:06:01Z</time></trkpt><trkpt lat="39.446791125543214" lon="8.781702605005243"><ele>124.0</ele><time>2026-04-10T18:06:02Z</time></trkpt><trkpt lat="39.446528344688964" lon="8.781768840022558"><ele>124.0</ele><time>2026-04-10T18:06:03Z</time></trkpt><trkpt lat="39.4462630389066" lon="8.781828738486867"><ele>124.0</ele><time>2026-04-10T18:06:04Z</time></trkpt><trkpt lat="39.4460005158952" lon="8.781887234905197"><ele>123.5</ele><time>2026-04-10T18:06:05Z</time></trkpt><trkpt lat="39.445736921188455" lon="8.781947583799587"><ele>123.0</ele><time>2026-04-10T18:06:06Z</time></trkpt><trkpt lat="39.44547287153412" lon="8.78200998714471"><ele>123.0</ele><time>2026-04-10T18:06:07Z</time></trkpt><trkpt lat="39.44520829623068" lon="8.782073203653631"><ele>123.0</ele><time>2026-04-10T18:06:08Z</time></trkpt><trkpt lat="39.44494476154808" lon="8.78213568183001"><ele>123.0</ele><time>2026-04-10T18:06:09Z</time></trkpt><trkpt lat="39.44468276830768" lon="8.782197307149877"><ele>123.0</ele><time>2026-04-10T18:06:10Z</time></trkpt><trkpt lat="39.444420065942296" lon="8.782258452822814"><ele>123.0</ele><time>2026-04-10T18:06:11Z</time></trkpt><trkpt lat="39.44415416245362" lon="8.782317739560993"><ele>123.0</ele><time>2026-04-10T18:06:12Z</time></trkpt><trkpt lat="39.44389183744799" lon="8.782373081795711"><ele>123.0</ele><time>2026-04-10T18:06:13Z</time></trkpt><trkpt lat="39.44362881789847" lon="8.782429080064789"><ele>123.0</ele><time>2026-04-10T18:06:14Z</time></trkpt><trkpt lat="39.44336427571012" lon="8.782490175139248"><ele>123.0</ele><time>2026-04-10T18:06:15Z</time></trkpt><trkpt lat="39.44310020096396" lon="8.78255212216781"><ele>123.0</ele><time>2026-04-10T18:06:16Z</time></trkpt><trkpt lat="39.442838282714476" lon="8.78261329242874"><ele>122.5</ele><time>2026-04-10T18:06:17Z</time></trkpt><trkpt lat="39.44257835754633" lon="8.782676720559769"><ele>122.0</ele><time>2026-04-10T18:06:18Z</time></trkpt><trkpt lat="39.442316998407584" lon="8.7827381764005"><ele>121.5</ele><time>2026-04-10T18:06:19Z</time></trkpt><trkpt lat="39.442056745945244" lon="8.782797057490308"><ele>121.0</ele><time>2026-04-10T18:06:20Z</time></trkpt><trkpt lat="39.441796856864386" lon="8.782857763944651"><ele>121.0</ele><time>2026-04-10T18:06:21Z</time></trkpt><trkpt lat="39.44153725580423" lon="8.782918143066558"><ele>121.0</ele><time>2026-04-10T18:06:22Z</time></trkpt><trkpt lat="39.441279548196015" lon="8.782977202307354"><ele>119.5</ele><time>2026-04-10T18:06:23Z</time></trkpt><trkpt lat="39.44102193575092" lon="8.78303745745361"><ele>118.0</ele><time>2026-04-10T18:06:24Z</time></trkpt><trkpt lat="39.440767423225104" lon="8.783097375927671"><ele>118.0</ele><time>2026-04-10T18:06:25Z</time></trkpt><trkpt lat="39.44050936337987" lon="8.783159370066322"><ele>118.0</ele><time>2026-04-10T18:06:26Z</time></trkpt><trkpt lat="39.44025575869313" lon="8.783218148898465"><ele>117.0</ele><time>2026-04-10T18:06:27Z</time></trkpt><trkpt lat="39.440000621710766" lon="8.783276001828183"><ele>116.0</ele><time>2026-04-10T18:06:28Z</time></trkpt><trkpt lat="39.4397496727194" lon="8.78333566723882"><ele>118.0</ele><time>2026-04-10T18:06:29Z</time></trkpt><trkpt lat="39.439492010400286" lon="8.783397536189698"><ele>120.0</ele><time>2026-04-10T18:06:30Z</time></trkpt><trkpt lat="39.439239248958685" lon="8.783457383639433"><ele>120.5</ele><time>2026-04-10T18:06:31Z</time></trkpt><trkpt lat="39.43898294876667" lon="8.783519060412251"><ele>121.0</ele><time>2026-04-10T18:06:32Z</time></trkpt><trkpt lat="39.43872548526564" lon="8.783579271083514"><ele>121.0</ele><time>2026-04-10T18:06:33Z</time></trkpt><trkpt lat="39.4384677934876" lon="8.78363887393236"><ele>121.0</ele><time>2026-04-10T18:06:34Z</time></trkpt><trkpt lat="39.438209530571804" lon="8.783698645399205"><ele>120.5</ele><time>2026-04-10T18:06:35Z</time></trkpt><trkpt lat="39.43794895675585" lon="8.78375801980547"><ele>120.0</ele><time>2026-04-10T18:06:36Z</time></trkpt><trkpt lat="39.43768742749299" lon="8.783818875430274"><ele>120.0</ele><time>2026-04-10T18:06:37Z</time></trkpt><trkpt lat="39.437425826977766" lon="8.783877754850751"><ele>120.0</ele><time>2026-04-10T18:06:38Z</time></trkpt><trkpt lat="39.43716305691773" lon="8.783938252808225"><ele>120.0</ele><time>2026-04-10T18:06:39Z</time></trkpt><trkpt lat="39.43690088957418" lon="8.784002075807976"><ele>120.0</ele><time>2026-04-10T18:06:40Z</time></trkpt><trkpt lat="39.43663858362945" lon="8.784063099262024"><ele>120.0</ele><time>2026-04-10T18:06:41Z</time></trkpt><trkpt lat="39.43637635001001" lon="8.78412459593821"><ele>120.0</ele><time>2026-04-10T18:06:42Z</time></trkpt><trkpt lat="39.43611227532314" lon="8.784187123593549"><ele>119.5</ele><time>2026-04-10T18:06:43Z</time></trkpt><trkpt lat="39.4358521634384" lon="8.784246714209626"><ele>119.0</ele><time>2026-04-10T18:06:44Z</time></trkpt><trkpt lat="39.435590200578304" lon="8.784305280387025"><ele>118.5</ele><time>2026-04-10T18:06:45Z</time></trkpt><trkpt lat="39.43533140772429" lon="8.784361521534663"><ele>118.0</ele><time>2026-04-10T18:06:46Z</time></trkpt><trkpt lat="39.43507360955367" lon="8.784419415463402"><ele>118.0</ele><time>2026-04-10T18:06:47Z</time></trkpt><trkpt lat="39.434816052896906" lon="8.784479860605206"><ele>118.0</ele><time>2026-04-10T18:06:48Z</time></trkpt><trkpt lat="39.4345599590023" lon="8.784538379048342"><ele>117.5</ele><time>2026-04-10T18:06:49Z</time></trkpt><trkpt lat="39.434301727300735" lon="8.784599135597771"><ele>117.0</ele><time>2026-04-10T18:06:50Z</time></trkpt><trkpt lat="39.43404230389434" lon="8.784661479734192"><ele>117.0</ele><time>2026-04-10T18:06:51Z</time></trkpt><trkpt lat="39.43378304069642" lon="8.784724113636141"><ele>117.0</ele><time>2026-04-10T18:06:52Z</time></trkpt><trkpt lat="39.43352183003156" lon="8.784787620345133"><ele>117.0</ele><time>2026-04-10T18:06:53Z</time></trkpt><trkpt lat="39.43326271637132" lon="8.784846970573554"><ele>117.0</ele><time>2026-04-10T18:06:54Z</time></trkpt><trkpt lat="39.43300795638065" lon="8.78490584512363"><ele>117.0</ele><time>2026-04-10T18:06:55Z</time></trkpt><trkpt lat="39.43275557995289" lon="8.78496131831808"><ele>117.0</ele><time>2026-04-10T18:06:56Z</time></trkpt><trkpt lat="39.43250405778316" lon="8.785017465958514"><ele>117.0</ele><time>2026-04-10T18:06:57Z</time></trkpt><trkpt lat="39.432252508829954" lon="8.785079663915484"><ele>117.0</ele><time>2026-04-10T18:06:58Z</time></trkpt><trkpt lat="39.431998004534606" lon="8.785150997430483"><ele>116.0</ele><time>2026-04-10T18:06:59Z</time></trkpt><trkpt lat="39.43174064336841" lon="8.785234882701857"><ele>115.0</ele><time>2026-04-10T18:07:00Z</time></trkpt><trkpt lat="39.43148581052505" lon="8.785337718979864"><ele>115.0</ele><time>2026-04-10T18:07:01Z</time></trkpt><trkpt lat="39.43123224696346" lon="8.785455800030805"><ele>115.0</ele><time>2026-04-10T18:07:02Z</time></trkpt><trkpt lat="39.430982804502605" lon="8.785596682595116"><ele>115.0</ele><time>2026-04-10T18:07:03Z</time></trkpt><trkpt lat="39.430738570760234" lon="8.78574440711928"><ele>115.0</ele><time>2026-04-10T18:07:04Z</time></trkpt><trkpt lat="39.43049625214945" lon="8.785893069801187"><ele>114.5</ele><time>2026-04-10T18:07:05Z</time></trkpt><trkpt lat="39.430247698075426" lon="8.786038185427817"><ele>114.0</ele><time>2026-04-10T18:07:06Z</time></trkpt><trkpt lat="39.4300194139356" lon="8.786196659011322"><ele>114.0</ele><time>2026-04-10T18:07:07Z</time></trkpt><trkpt lat="39.42978544502409" lon="8.786366594399867"><ele>114.0</ele><time>2026-04-10T18:07:08Z</time></trkpt><trkpt lat="39.42955341700396" lon="8.786542466223853"><ele>114.5</ele><time>2026-04-10T18:07:09Z</time></trkpt><trkpt lat="39.429328259299034" lon="8.786726335555313"><ele>115.0</ele><time>2026-04-10T18:07:10Z</time></trkpt><trkpt lat="39.4291103230109" lon="8.7869311856978"><ele>114.5</ele><time>2026-04-10T18:07:11Z</time></trkpt><trkpt lat="39.42890244754472" lon="8.787151650677579"><ele>114.0</ele><time>2026-04-10T18:07:12Z</time></trkpt><trkpt lat="39.428705262921895" lon="8.787381245852568"><ele>114.0</ele><time>2026-04-10T18:07:13Z</time></trkpt><trkpt lat="39.42851732644413" lon="8.787621840736353"><ele>114.0</ele><time>2026-04-10T18:07:14Z</time></trkpt><trkpt lat="39.42833927419147" lon="8.787873596846293"><ele>113.5</ele><time>2026-04-10T18:07:15Z</time></trkpt><trkpt lat="39.42816681633322" lon="8.788128338388738"><ele>113.0</ele><time>2026-04-10T18:07:16Z</time></trkpt><trkpt lat="39.4280026587281" lon="8.788392407315241"><ele>112.0</ele><time>2026-04-10T18:07:17Z</time></trkpt><trkpt lat="39.42784536347545" lon="8.788661035799295"><ele>111.0</ele><time>2026-04-10T18:07:18Z</time></trkpt><trkpt lat="39.42769900821388" lon="8.788941563432317"><ele>111.0</ele><time>2026-04-10T18:07:19Z</time></trkpt><trkpt lat="39.42756062468875" lon="8.789227889899353"><ele>111.0</ele><time>2026-04-10T18:07:20Z</time></trkpt><trkpt lat="39.42742588290497" lon="8.789516030517685"><ele>111.0</ele><time>2026-04-10T18:07:21Z</time></trkpt><trkpt lat="39.42728647790403" lon="8.78980723364497"><ele>111.0</ele><time>2026-04-10T18:07:22Z</time></trkpt><trkpt lat="39.42715778216541" lon="8.790094149624217"><ele>109.0</ele><time>2026-04-10T18:07:23Z</time></trkpt><trkpt lat="39.427007024057936" lon="8.79036969862498"><ele>107.0</ele><time>2026-04-10T18:07:24Z</time></trkpt><trkpt lat="39.42686733270582" lon="8.7906595254515"><ele>107.0</ele><time>2026-04-10T18:07:25Z</time></trkpt><trkpt lat="39.426726802573114" lon="8.790950444995568"><ele>107.0</ele><time>2026-04-10T18:07:26Z</time></trkpt><trkpt lat="39.426588471997185" lon="8.791236847750998"><ele>107.0</ele><time>2026-04-10T18:07:27Z</time></trkpt><trkpt lat="39.426449798890346" lon="8.79152395967054"><ele>107.0</ele><time>2026-04-10T18:07:28Z</time></trkpt><trkpt lat="39.42631120115857" lon="8.791810915537598"><ele>106.0</ele><time>2026-04-10T18:07:29Z</time></trkpt><trkpt lat="39.42617223345023" lon="8.792098637414535"><ele>105.0</ele><time>2026-04-10T18:07:30Z</time></trkpt><trkpt lat="39.42603404013805" lon="8.792384755953519"><ele>106.0</ele><time>2026-04-10T18:07:31Z</time></trkpt><trkpt lat="39.425910369106056" lon="8.792681366263606"><ele>107.0</ele><time>2026-04-10T18:07:32Z</time></trkpt><trkpt lat="39.42576647965052" lon="8.792964501479252"><ele>107.0</ele><time>2026-04-10T18:07:33Z</time></trkpt><trkpt lat="39.42562773466628" lon="8.793249224652927"><ele>107.0</ele><time>2026-04-10T18:07:34Z</time></trkpt><trkpt lat="39.42549222573427" lon="8.793536442117404"><ele>107.0</ele><time>2026-04-10T18:07:35Z</time></trkpt><trkpt lat="39.42535424603147" lon="8.793826497430503"><ele>107.0</ele><time>2026-04-10T18:07:36Z</time></trkpt><trkpt lat="39.42521463857375" lon="8.794114093751697"><ele>106.0</ele><time>2026-04-10T18:07:37Z</time></trkpt><trkpt lat="39.4250721075828" lon="8.79440225226135"><ele>105.0</ele><time>2026-04-10T18:07:38Z</time></trkpt><trkpt lat="39.42493176935344" lon="8.794690601198711"><ele>105.0</ele><time>2026-04-10T18:07:39Z</time></trkpt><trkpt lat="39.424792715932774" lon="8.794978864497729"><ele>105.0</ele><time>2026-04-10T18:07:40Z</time></trkpt><trkpt lat="39.424651828623546" lon="8.795267667887162"><ele>104.5</ele><time>2026-04-10T18:07:41Z</time></trkpt><trkpt lat="39.424512114654185" lon="8.795558266902383"><ele>104.0</ele><time>2026-04-10T18:07:42Z</time></trkpt><trkpt lat="39.424372283571074" lon="8.79584968197027"><ele>103.0</ele><time>2026-04-10T18:07:43Z</time></trkpt><trkpt lat="39.42423155985041" lon="8.796140464761523"><ele>102.0</ele><time>2026-04-10T18:07:44Z</time></trkpt><trkpt lat="39.42408969646704" lon="8.796431376596475"><ele>102.0</ele><time>2026-04-10T18:07:45Z</time></trkpt><trkpt lat="39.42395007976901" lon="8.796720956117268"><ele>102.0</ele><time>2026-04-10T18:07:46Z</time></trkpt><trkpt lat="39.423808710158916" lon="8.797013024651205"><ele>101.5</ele><time>2026-04-10T18:07:47Z</time></trkpt><trkpt lat="39.42366536012514" lon="8.797306039736485"><ele>101.0</ele><time>2026-04-10T18:07:48Z</time></trkpt><trkpt lat="39.42352176576595" lon="8.797599001123022"><ele>100.0</ele><time>2026-04-10T18:07:49Z</time></trkpt><trkpt lat="39.42337999167627" lon="8.797891240171541"><ele>99.0</ele><time>2026-04-10T18:07:50Z</time></trkpt><trkpt lat="39.42323630871785" lon="8.79818759868397"><ele>99.0</ele><time>2026-04-10T18:07:51Z</time></trkpt><trkpt lat="39.42309279413116" lon="8.798484585524562"><ele>99.0</ele><time>2026-04-10T18:07:52Z</time></trkpt><trkpt lat="39.422949259802486" lon="8.798781271148734"><ele>99.0</ele><time>2026-04-10T18:07:53Z</time></trkpt><trkpt lat="39.422805807508965" lon="8.79907903811599"><ele>99.0</ele><time>2026-04-10T18:07:54Z</time></trkpt><trkpt lat="39.42266124454995" lon="8.7993773471985"><ele>99.0</ele><time>2026-04-10T18:07:55Z</time></trkpt><trkpt lat="39.4225143930858" lon="8.79967604305309"><ele>99.0</ele><time>2026-04-10T18:07:56Z</time></trkpt><trkpt lat="39.422366406096025" lon="8.799974812976558"><ele>98.5</ele><time>2026-04-10T18:07:57Z</time></trkpt><trkpt lat="39.422219068512376" lon="8.80027516276133"><ele>98.0</ele><time>2026-04-10T18:07:58Z</time></trkpt><trkpt lat="39.42207295032358" lon="8.800576631587788"><ele>97.5</ele><time>2026-04-10T18:07:59Z</time></trkpt><trkpt lat="39.42192937439056" lon="8.800876262909206"><ele>97.0</ele><time>2026-04-10T18:08:00Z</time></trkpt><trkpt lat="39.42178618697383" lon="8.801177838026662"><ele>96.5</ele><time>2026-04-10T18:08:01Z</time></trkpt><trkpt lat="39.4216429813527" lon="8.80147974399945"><ele>96.0</ele><time>2026-04-10T18:08:02Z</time></trkpt><trkpt lat="39.42149867762056" lon="8.801783195554702"><ele>96.0</ele><time>2026-04-10T18:08:03Z</time></trkpt><trkpt lat="39.42135179399067" lon="8.802084384652092"><ele>96.0</ele><time>2026-04-10T18:08:04Z</time></trkpt><trkpt lat="39.421206492026506" lon="8.802385585947656"><ele>95.0</ele><time>2026-04-10T18:08:05Z</time></trkpt><trkpt lat="39.421058119920694" lon="8.802687903953455"><ele>94.0</ele><time>2026-04-10T18:08:06Z</time></trkpt><trkpt lat="39.42091118949663" lon="8.802990774603177"><ele>94.0</ele><time>2026-04-10T18:08:07Z</time></trkpt><trkpt lat="39.42076505419564" lon="8.803295230615387"><ele>94.0</ele><time>2026-04-10T18:08:08Z</time></trkpt><trkpt lat="39.4206186151171" lon="8.803597524155503"><ele>92.5</ele><time>2026-04-10T18:08:09Z</time></trkpt><trkpt lat="39.42047467164785" lon="8.803901346065802"><ele>91.0</ele><time>2026-04-10T18:08:10Z</time></trkpt><trkpt lat="39.42032926109057" lon="8.80420448739853"><ele>91.0</ele><time>2026-04-10T18:08:11Z</time></trkpt><trkpt lat="39.42018172634259" lon="8.804508405588727"><ele>91.0</ele><time>2026-04-10T18:08:12Z</time></trkpt><trkpt lat="39.420033060514015" lon="8.804809479538832"><ele>91.0</ele><time>2026-04-10T18:08:13Z</time></trkpt><trkpt lat="39.419884948007066" lon="8.805108531142915"><ele>91.0</ele><time>2026-04-10T18:08:14Z</time></trkpt><trkpt lat="39.41973880608049" lon="8.80540989072256"><ele>91.0</ele><time>2026-04-10T18:08:15Z</time></trkpt><trkpt lat="39.419591862209884" lon="8.80571220698684"><ele>91.0</ele><time>2026-04-10T18:08:16Z</time></trkpt><trkpt lat="39.419447487026304" lon="8.806013163643218"><ele>91.0</ele><time>2026-04-10T18:08:17Z</time></trkpt><trkpt lat="39.419303319983875" lon="8.806313946531082"><ele>91.0</ele><time>2026-04-10T18:08:18Z</time></trkpt><trkpt lat="39.419157159233976" lon="8.806611262606454"><ele>90.0</ele><time>2026-04-10T18:08:19Z</time></trkpt><trkpt lat="39.41901065180504" lon="8.806907576559022"><ele>89.0</ele><time>2026-04-10T18:08:20Z</time></trkpt><trkpt lat="39.41886541793349" lon="8.807206925472679"><ele>89.0</ele><time>2026-04-10T18:08:21Z</time></trkpt><trkpt lat="39.41872242317367" lon="8.80750697652317"><ele>89.0</ele><time>2026-04-10T18:08:22Z</time></trkpt><trkpt lat="39.418579707296985" lon="8.807804094050026"><ele>89.0</ele><time>2026-04-10T18:08:23Z</time></trkpt><trkpt lat="39.41843695244924" lon="8.808102779689927"><ele>89.0</ele><time>2026-04-10T18:08:24Z</time></trkpt><trkpt lat="39.418294604308734" lon="8.808400692310784"><ele>89.0</ele><time>2026-04-10T18:08:25Z</time></trkpt><trkpt lat="39.418146658806634" lon="8.808696969664986"><ele>89.0</ele><time>2026-04-10T18:08:26Z</time></trkpt><trkpt lat="39.41800336296437" lon="8.808984095744547"><ele>88.5</ele><time>2026-04-10T18:08:27Z</time></trkpt><trkpt lat="39.41786312623852" lon="8.809266487937023"><ele>88.0</ele><time>2026-04-10T18:08:28Z</time></trkpt><trkpt lat="39.417729441450035" lon="8.809539397884157"><ele>87.5</ele><time>2026-04-10T18:08:29Z</time></trkpt><trkpt lat="39.41759879926383" lon="8.809812848667601"><ele>87.0</ele><time>2026-04-10T18:08:30Z</time></trkpt><trkpt lat="39.41746855128319" lon="8.810087589896378"><ele>87.0</ele><time>2026-04-10T18:08:31Z</time></trkpt><trkpt lat="39.417342038841376" lon="8.810369720509799"><ele>87.0</ele><time>2026-04-10T18:08:32Z</time></trkpt><trkpt lat="39.41721879103677" lon="8.810661031949847"><ele>87.0</ele><time>2026-04-10T18:08:33Z</time></trkpt><trkpt lat="39.417103079067445" lon="8.810965083900793"><ele>87.0</ele><time>2026-04-10T18:08:34Z</time></trkpt><trkpt lat="39.416997165265485" lon="8.81128568477542"><ele>86.0</ele><time>2026-04-10T18:08:35Z</time></trkpt><trkpt lat="39.41690256445993" lon="8.811616564744675"><ele>85.0</ele><time>2026-04-10T18:08:36Z</time></trkpt><trkpt lat="39.41682093597615" lon="8.811950525634426"><ele>84.5</ele><time>2026-04-10T18:08:37Z</time></trkpt><trkpt lat="39.4167367014058" lon="8.812278417117149"><ele>84.0</ele><time>2026-04-10T18:08:38Z</time></trkpt><trkpt lat="39.416646169286125" lon="8.812601780395648"><ele>84.5</ele><time>2026-04-10T18:08:39Z</time></trkpt><trkpt lat="39.41655433157274" lon="8.812921352167086"><ele>85.0</ele><time>2026-04-10T18:08:40Z</time></trkpt><trkpt lat="39.416464012442006" lon="8.813234867604372"><ele>85.0</ele><time>2026-04-10T18:08:41Z</time></trkpt><trkpt lat="39.41637443185542" lon="8.813549447751805"><ele>85.0</ele><time>2026-04-10T18:08:42Z</time></trkpt><trkpt lat="39.41628356480427" lon="8.813862914492328"><ele>84.5</ele><time>2026-04-10T18:08:43Z</time></trkpt><trkpt lat="39.4161951005846" lon="8.8141743895707"><ele>84.0</ele><time>2026-04-10T18:08:44Z</time></trkpt><trkpt lat="39.41610803861764" lon="8.814481837369483"><ele>83.0</ele><time>2026-04-10T18:08:45Z</time></trkpt><trkpt lat="39.41602535527072" lon="8.814781495743727"><ele>82.0</ele><time>2026-04-10T18:08:46Z</time></trkpt><trkpt lat="39.41594520764246" lon="8.815066416599032"><ele>82.33333333333333</ele><time>2026-04-10T18:08:47Z</time></trkpt><trkpt lat="39.415871166866616" lon="8.81533305103797"><ele>82.66666666666667</ele><time>2026-04-10T18:08:48Z</time></trkpt><trkpt lat="39.415796615723" lon="8.815593147663723"><ele>83.0</ele><time>2026-04-10T18:08:49Z</time></trkpt><trkpt lat="39.415727597380624" lon="8.81583363876438"><ele>82.66666666666667</ele><time>2026-04-10T18:08:50Z</time></trkpt><trkpt lat="39.415659135386086" lon="8.816068557559271"><ele>82.33333333333333</ele><time>2026-04-10T18:08:51Z</time></trkpt><trkpt lat="39.41559739405247" lon="8.816283408627108"><ele>82.0</ele><time>2026-04-10T18:08:52Z</time></trkpt><trkpt lat="39.415542766901545" lon="8.816482864296205"><ele>82.0</ele><time>2026-04-10T18:08:53Z</time></trkpt><trkpt lat="39.41548937286546" lon="8.816667041118585"><ele>82.0</ele><time>2026-04-10T18:08:54Z</time></trkpt><trkpt lat="39.41543124862777" lon="8.81682895015444"><ele>82.0</ele><time>2026-04-10T18:08:55Z</time></trkpt><trkpt lat="39.41535808159091" lon="8.816946083552532"><ele>82.0</ele><time>2026-04-10T18:08:56Z</time></trkpt><trkpt lat="39.41528346614136" lon="8.817044503639842"><ele>82.0</ele><time>2026-04-10T18:08:57Z</time></trkpt><trkpt lat="39.41522157757671" lon="8.817150147913337"><ele>82.0</ele><time>2026-04-10T18:08:58Z</time></trkpt><trkpt lat="39.41519961472871" lon="8.817266827781978"><ele>82.0</ele><time>2026-04-10T18:08:59Z</time></trkpt><trkpt lat="39.41520855381112" lon="8.81740156343658"><ele>82.0</ele><time>2026-04-10T18:09:00Z</time></trkpt><trkpt lat="39.41521352148744" lon="8.817571486476536"><ele>82.0</ele><time>2026-04-10T18:09:01Z</time></trkpt><trkpt lat="39.4151794723462" lon="8.817764964921471"><ele>81.66666666666666</ele><time>2026-04-10T18:09:02Z</time></trkpt><trkpt lat="39.415127571627764" lon="8.817970613276309"><ele>81.33333333333333</ele><time>2026-04-10T18:09:03Z</time></trkpt><trkpt lat="39.41507021921973" lon="8.818169185228884"><ele>81.0</ele><time>2026-04-10T18:09:04Z</time></trkpt><trkpt lat="39.41500517260466" lon="8.818393111635592"><ele>80.66666666666667</ele><time>2026-04-10T18:09:05Z</time></trkpt><trkpt lat="39.41493858995515" lon="8.818631313570211"><ele>80.33333333333334</ele><time>2026-04-10T18:09:06Z</time></trkpt><trkpt lat="39.41486951027618" lon="8.818876517834486"><ele>80.0</ele><time>2026-04-10T18:09:07Z</time></trkpt><trkpt lat="39.414802363653685" lon="8.819119686072915"><ele>80.0</ele><time>2026-04-10T18:09:08Z</time></trkpt><trkpt lat="39.414731517745295" lon="8.819376327621583"><ele>80.0</ele><time>2026-04-10T18:09:09Z</time></trkpt><trkpt lat="39.41465604575755" lon="8.819641085049582"><ele>80.0</ele><time>2026-04-10T18:09:10Z</time></trkpt><trkpt lat="39.41457707422678" lon="8.819921112968292"><ele>79.5</ele><time>2026-04-10T18:09:11Z</time></trkpt><trkpt lat="39.41449809045438" lon="8.820200118485241"><ele>79.0</ele><time>2026-04-10T18:09:12Z</time></trkpt><trkpt lat="39.414422023813835" lon="8.820472763769418"><ele>79.0</ele><time>2026-04-10T18:09:13Z</time></trkpt><trkpt lat="39.41434324753504" lon="8.820757998730118"><ele>79.0</ele><time>2026-04-10T18:09:14Z</time></trkpt><trkpt lat="39.414261901386546" lon="8.821048885011184"><ele>78.5</ele><time>2026-04-10T18:09:15Z</time></trkpt><trkpt lat="39.41417844526635" lon="8.821343418382947"><ele>78.0</ele><time>2026-04-10T18:09:16Z</time></trkpt><trkpt lat="39.41409368114849" lon="8.821637571565986"><ele>77.5</ele><time>2026-04-10T18:09:17Z</time></trkpt><trkpt lat="39.414010173629165" lon="8.821929548894602"><ele>77.0</ele><time>2026-04-10T18:09:18Z</time></trkpt><trkpt lat="39.413930843256544" lon="8.822203325915426"><ele>77.0</ele><time>2026-04-10T18:09:19Z</time></trkpt><trkpt lat="39.413857375103426" lon="8.822466103441636"><ele>77.0</ele><time>2026-04-10T18:09:20Z</time></trkpt><trkpt lat="39.413786436901084" lon="8.8227200470361"><ele>77.0</ele><time>2026-04-10T18:09:21Z</time></trkpt><trkpt lat="39.413718289075256" lon="8.822966055960176"><ele>76.33333333333334</ele><time>2026-04-10T18:09:22Z</time></trkpt><trkpt lat="39.41365100755518" lon="8.823199324521115"><ele>75.66666666666667</ele><time>2026-04-10T18:09:23Z</time></trkpt><trkpt lat="39.41358841849503" lon="8.823410294592254"><ele>75.0</ele><time>2026-04-10T18:09:24Z</time></trkpt><trkpt lat="39.41352918114672" lon="8.823599822361126"><ele>75.0</ele><time>2026-04-10T18:09:25Z</time></trkpt><trkpt lat="39.41347661741335" lon="8.823753416579901"><ele>75.0</ele><time>2026-04-10T18:09:26Z</time></trkpt><trkpt lat="39.413420733749064" lon="8.823882061126001"><ele>75.0</ele><time>2026-04-10T18:09:27Z</time></trkpt><trkpt lat="39.41334954413687" lon="8.823982774882662"><ele>75.0</ele><time>2026-04-10T18:09:28Z</time></trkpt><trkpt lat="39.41328069111558" lon="8.82406958401493"><ele>75.0</ele><time>2026-04-10T18:09:29Z</time></trkpt><trkpt lat="39.41326293543279" lon="8.824188786512558"><ele>75.0</ele><time>2026-04-10T18:09:30Z</time></trkpt><trkpt lat="39.41327287630496" lon="8.824338112598815"><ele>75.0</ele><time>2026-04-10T18:09:31Z</time></trkpt><trkpt lat="39.41326548288311" lon="8.824515359758244"><ele>75.0</ele><time>2026-04-10T18:09:32Z</time></trkpt><trkpt lat="39.413221578222846" lon="8.824705654451611"><ele>75.0</ele><time>2026-04-10T18:09:33Z</time></trkpt><trkpt lat="39.41315559142304" lon="8.824927584462065"><ele>74.66666666666667</ele><time>2026-04-10T18:09:34Z</time></trkpt><trkpt lat="39.413092536964406" lon="8.825150582243264"><ele>74.33333333333334</ele><time>2026-04-10T18:09:35Z</time></trkpt><trkpt lat="39.41302869389435" lon="8.825382185690279"><ele>74.0</ele><time>2026-04-10T18:09:36Z</time></trkpt><trkpt lat="39.41295872736218" lon="8.82564250896115"><ele>74.0</ele><time>2026-04-10T18:09:37Z</time></trkpt><trkpt lat="39.41288205350635" lon="8.82591441330549"><ele>74.0</ele><time>2026-04-10T18:09:38Z</time></trkpt><trkpt lat="39.4128084597024" lon="8.826172299623764"><ele>74.0</ele><time>2026-04-10T18:09:39Z</time></trkpt><trkpt lat="39.41272957307091" lon="8.82644506298006"><ele>73.0</ele><time>2026-04-10T18:09:40Z</time></trkpt><trkpt lat="39.412648333304865" lon="8.826738921330515"><ele>72.0</ele><time>2026-04-10T18:09:41Z</time></trkpt><trkpt lat="39.412563661391886" lon="8.827041574791467"><ele>72.0</ele><time>2026-04-10T18:09:42Z</time></trkpt><trkpt lat="39.412482153008575" lon="8.827328880207999"><ele>72.0</ele><time>2026-04-10T18:09:43Z</time></trkpt><trkpt lat="39.41239924985909" lon="8.827624408430463"><ele>72.0</ele><time>2026-04-10T18:09:44Z</time></trkpt><trkpt lat="39.41231258432458" lon="8.827931693325604"><ele>72.0</ele><time>2026-04-10T18:09:45Z</time></trkpt><trkpt lat="39.41222434050693" lon="8.828242851086225"><ele>71.5</ele><time>2026-04-10T18:09:46Z</time></trkpt><trkpt lat="39.41213662913711" lon="8.828555218735906"><ele>71.0</ele><time>2026-04-10T18:09:47Z</time></trkpt><trkpt lat="39.41204912220199" lon="8.828869358553199"><ele>71.0</ele><time>2026-04-10T18:09:48Z</time></trkpt><trkpt lat="39.41196203763848" lon="8.829181943869909"><ele>71.0</ele><time>2026-04-10T18:09:49Z</time></trkpt><trkpt lat="39.4118735198876" lon="8.829497435360437"><ele>70.5</ele><time>2026-04-10T18:09:50Z</time></trkpt><trkpt lat="39.41178507856244" lon="8.829813578211196"><ele>70.0</ele><time>2026-04-10T18:09:51Z</time></trkpt><trkpt lat="39.411695353527186" lon="8.830131295853276"><ele>69.5</ele><time>2026-04-10T18:09:52Z</time></trkpt><trkpt lat="39.411605231670514" lon="8.830449302766894"><ele>69.0</ele><time>2026-04-10T18:09:53Z</time></trkpt><trkpt lat="39.41151436450552" lon="8.830768100642551"><ele>68.5</ele><time>2026-04-10T18:09:54Z</time></trkpt><trkpt lat="39.41142469601573" lon="8.831086484585668"><ele>68.0</ele><time>2026-04-10T18:09:55Z</time></trkpt><trkpt lat="39.41133365668195" lon="8.831404582384454"><ele>68.0</ele><time>2026-04-10T18:09:56Z</time></trkpt><trkpt lat="39.41124221796751" lon="8.831721228684952"><ele>68.0</ele><time>2026-04-10T18:09:57Z</time></trkpt><trkpt lat="39.411151763211485" lon="8.83203698483248"><ele>67.5</ele><time>2026-04-10T18:09:58Z</time></trkpt><trkpt lat="39.41106270643293" lon="8.832352328072695"><ele>67.0</ele><time>2026-04-10T18:09:59Z</time></trkpt><trkpt lat="39.410973956901486" lon="8.832668756474556"><ele>67.0</ele><time>2026-04-10T18:10:00Z</time></trkpt><trkpt lat="39.4108859461366" lon="8.832986086741993"><ele>67.0</ele><time>2026-04-10T18:10:01Z</time></trkpt><trkpt lat="39.410797001116016" lon="8.83330519298847"><ele>67.0</ele><time>2026-04-10T18:10:02Z</time></trkpt><trkpt lat="39.4107101155937" lon="8.833621138518987"><ele>67.0</ele><time>2026-04-10T18:10:03Z</time></trkpt><trkpt lat="39.4106233656114" lon="8.833930763119964"><ele>67.0</ele><time>2026-04-10T18:10:04Z</time></trkpt><trkpt lat="39.41054048076928" lon="8.834233364379388"><ele>67.0</ele><time>2026-04-10T18:10:05Z</time></trkpt><trkpt lat="39.41046101589219" lon="8.834522638334613"><ele>66.66666666666666</ele><time>2026-04-10T18:10:06Z</time></trkpt><trkpt lat="39.410383878574194" lon="8.8347996596364"><ele>66.33333333333333</ele><time>2026-04-10T18:10:07Z</time></trkpt><trkpt lat="39.41030889884174" lon="8.835063971969532"><ele>66.0</ele><time>2026-04-10T18:10:08Z</time></trkpt><trkpt lat="39.41022123597432" lon="8.835313990727723"><ele>66.0</ele><time>2026-04-10T18:10:09Z</time></trkpt><trkpt lat="39.41014700298273" lon="8.8355771372553"><ele>66.0</ele><time>2026-04-10T18:10:10Z</time></trkpt><trkpt lat="39.410072481511136" lon="8.835841306405449"><ele>66.0</ele><time>2026-04-10T18:10:11Z</time></trkpt><trkpt lat="39.40999494758905" lon="8.836117503286346"><ele>66.0</ele><time>2026-04-10T18:10:12Z</time></trkpt><trkpt lat="39.40991462429015" lon="8.836406393965552"><ele>66.0</ele><time>2026-04-10T18:10:13Z</time></trkpt><trkpt lat="39.40983153006178" lon="8.836705250571365"><ele>64.5</ele><time>2026-04-10T18:10:14Z</time></trkpt><trkpt lat="39.40974572568126" lon="8.837013854492907"><ele>63.0</ele><time>2026-04-10T18:10:15Z</time></trkpt><trkpt lat="39.40965796581079" lon="8.83732949153794"><ele>62.5</ele><time>2026-04-10T18:10:16Z</time></trkpt><trkpt lat="39.40957796312372" lon="8.83765352931241"><ele>62.0</ele><time>2026-04-10T18:10:17Z</time></trkpt><trkpt lat="39.40948656194372" lon="8.837974122938618"><ele>62.0</ele><time>2026-04-10T18:10:18Z</time></trkpt><trkpt lat="39.409394990953274" lon="8.838299146994515"><ele>62.0</ele><time>2026-04-10T18:10:19Z</time></trkpt><trkpt lat="39.409302841511234" lon="8.838625537547813"><ele>62.5</ele><time>2026-04-10T18:10:20Z</time></trkpt><trkpt lat="39.409211257506634" lon="8.838951854019978"><ele>63.0</ele><time>2026-04-10T18:10:21Z</time></trkpt><trkpt lat="39.4091173723618" lon="8.839279516561755"><ele>63.0</ele><time>2026-04-10T18:10:22Z</time></trkpt><trkpt lat="39.40902402777674" lon="8.839602223876817"><ele>63.0</ele><time>2026-04-10T18:10:23Z</time></trkpt><trkpt lat="39.40893234846238" lon="8.83992488727534"><ele>62.5</ele><time>2026-04-10T18:10:24Z</time></trkpt><trkpt lat="39.40884320076601" lon="8.8402481511415"><ele>62.0</ele><time>2026-04-10T18:10:25Z</time></trkpt><trkpt lat="39.4087565644817" lon="8.840567843647078"><ele>62.0</ele><time>2026-04-10T18:10:26Z</time></trkpt><trkpt lat="39.40866733188436" lon="8.840884740568324"><ele>62.0</ele><time>2026-04-10T18:10:27Z</time></trkpt><trkpt lat="39.40857879110149" lon="8.841201262127317"><ele>61.5</ele><time>2026-04-10T18:10:28Z</time></trkpt><trkpt lat="39.408489871892066" lon="8.841514666348667"><ele>61.0</ele><time>2026-04-10T18:10:29Z</time></trkpt><trkpt lat="39.40840071239857" lon="8.841827870389308"><ele>60.5</ele><time>2026-04-10T18:10:30Z</time></trkpt><trkpt lat="39.408312660927315" lon="8.842141162954908"><ele>60.0</ele><time>2026-04-10T18:10:31Z</time></trkpt><trkpt lat="39.408224049270785" lon="8.842454968561949"><ele>60.5</ele><time>2026-04-10T18:10:32Z</time></trkpt><trkpt lat="39.40813600194686" lon="8.842765330278025"><ele>61.0</ele><time>2026-04-10T18:10:33Z</time></trkpt><trkpt lat="39.4080479942691" lon="8.843075849837856"><ele>60.5</ele><time>2026-04-10T18:10:34Z</time></trkpt><trkpt lat="39.407960606555235" lon="8.8433867885013"><ele>60.0</ele><time>2026-04-10T18:10:35Z</time></trkpt><trkpt lat="39.407871819628035" lon="8.843698867931526"><ele>60.0</ele><time>2026-04-10T18:10:36Z</time></trkpt><trkpt lat="39.40778226661931" lon="8.84400903129451"><ele>60.0</ele><time>2026-04-10T18:10:37Z</time></trkpt><trkpt lat="39.40769438900266" lon="8.844320832799436"><ele>60.0</ele><time>2026-04-10T18:10:38Z</time></trkpt><trkpt lat="39.4076084726218" lon="8.844629381521706"><ele>60.0</ele><time>2026-04-10T18:10:39Z</time></trkpt><trkpt lat="39.407519996720374" lon="8.844941030256367"><ele>59.0</ele><time>2026-04-10T18:10:40Z</time></trkpt><trkpt lat="39.407432302060016" lon="8.845252886392494"><ele>58.0</ele><time>2026-04-10T18:10:41Z</time></trkpt><trkpt lat="39.407342439814265" lon="8.845565927415871"><ele>58.0</ele><time>2026-04-10T18:10:42Z</time></trkpt><trkpt lat="39.407254422120225" lon="8.845877329673403"><ele>58.0</ele><time>2026-04-10T18:10:43Z</time></trkpt><trkpt lat="39.40716496077605" lon="8.84619110176478"><ele>57.5</ele><time>2026-04-10T18:10:44Z</time></trkpt><trkpt lat="39.40707738420254" lon="8.846505808216142"><ele>57.0</ele><time>2026-04-10T18:10:45Z</time></trkpt><trkpt lat="39.40699037333683" lon="8.846822964124357"><ele>56.5</ele><time>2026-04-10T18:10:46Z</time></trkpt><trkpt lat="39.40690335927326" lon="8.847139214494662"><ele>56.0</ele><time>2026-04-10T18:10:47Z</time></trkpt><trkpt lat="39.40681358657709" lon="8.847454957915561"><ele>56.0</ele><time>2026-04-10T18:10:48Z</time></trkpt><trkpt lat="39.40672396989059" lon="8.847770499163792"><ele>56.0</ele><time>2026-04-10T18:10:49Z</time></trkpt><trkpt lat="39.40663502743114" lon="8.848086066136776"><ele>56.0</ele><time>2026-04-10T18:10:50Z</time></trkpt><trkpt lat="39.40654454235263" lon="8.848403801818685"><ele>56.0</ele><time>2026-04-10T18:10:51Z</time></trkpt><trkpt lat="39.40645682268958" lon="8.848719630467068"><ele>56.0</ele><time>2026-04-10T18:10:52Z</time></trkpt><trkpt lat="39.406368491342015" lon="8.849035208934547"><ele>56.0</ele><time>2026-04-10T18:10:53Z</time></trkpt><trkpt lat="39.40628001020613" lon="8.849349948358624"><ele>55.5</ele><time>2026-04-10T18:10:54Z</time></trkpt><trkpt lat="39.40618828129871" lon="8.849668517466053"><ele>55.0</ele><time>2026-04-10T18:10:55Z</time></trkpt><trkpt lat="39.406096665219444" lon="8.849984067401353"><ele>55.0</ele><time>2026-04-10T18:10:56Z</time></trkpt><trkpt lat="39.406003903521636" lon="8.850303555793168"><ele>55.0</ele><time>2026-04-10T18:10:57Z</time></trkpt><trkpt lat="39.40591394565263" lon="8.8506246209606"><ele>55.0</ele><time>2026-04-10T18:10:58Z</time></trkpt><trkpt lat="39.40582085739506" lon="8.850943588454232"><ele>55.0</ele><time>2026-04-10T18:10:59Z</time></trkpt><trkpt lat="39.40573105370491" lon="8.851261514658768"><ele>55.0</ele><time>2026-04-10T18:11:00Z</time></trkpt><trkpt lat="39.40564142251376" lon="8.851580142101598"><ele>55.0</ele><time>2026-04-10T18:11:01Z</time></trkpt><trkpt lat="39.40555399134148" lon="8.851902178538149"><ele>53.5</ele><time>2026-04-10T18:11:02Z</time></trkpt><trkpt lat="39.405464016569425" lon="8.852222491767646"><ele>52.0</ele><time>2026-04-10T18:11:03Z</time></trkpt><trkpt lat="39.40537119285209" lon="8.85254229550935"><ele>52.5</ele><time>2026-04-10T18:11:04Z</time></trkpt><trkpt lat="39.405279200686756" lon="8.852862235807015"><ele>53.0</ele><time>2026-04-10T18:11:05Z</time></trkpt><trkpt lat="39.40518995646089" lon="8.85318108355478"><ele>53.0</ele><time>2026-04-10T18:11:06Z</time></trkpt><trkpt lat="39.40510052574347" lon="8.853504359039341"><ele>53.0</ele><time>2026-04-10T18:11:07Z</time></trkpt><trkpt lat="39.40501010334781" lon="8.853827769474496"><ele>53.0</ele><time>2026-04-10T18:11:08Z</time></trkpt><trkpt lat="39.40491822139421" lon="8.85415150894817"><ele>53.0</ele><time>2026-04-10T18:11:09Z</time></trkpt><trkpt lat="39.40482610359071" lon="8.854476940214926"><ele>52.5</ele><time>2026-04-10T18:11:10Z</time></trkpt><trkpt lat="39.40473614004168" lon="8.854801940803883"><ele>52.0</ele><time>2026-04-10T18:11:11Z</time></trkpt><trkpt lat="39.404645415751325" lon="8.855129088673792"><ele>52.0</ele><time>2026-04-10T18:11:12Z</time></trkpt><trkpt lat="39.40455244255771" lon="8.855455365038619"><ele>52.0</ele><time>2026-04-10T18:11:13Z</time></trkpt><trkpt lat="39.40445941530743" lon="8.855782398128449"><ele>52.5</ele><time>2026-04-10T18:11:14Z</time></trkpt><trkpt lat="39.40436744929465" lon="8.85610957659927"><ele>53.0</ele><time>2026-04-10T18:11:15Z</time></trkpt><trkpt lat="39.40427513936251" lon="8.856437056836434"><ele>53.0</ele><time>2026-04-10T18:11:16Z</time></trkpt><trkpt lat="39.404181478227464" lon="8.85676568469631"><ele>53.0</ele><time>2026-04-10T18:11:17Z</time></trkpt><trkpt lat="39.404088530006106" lon="8.857093944608557"><ele>51.5</ele><time>2026-04-10T18:11:18Z</time></trkpt><trkpt lat="39.40399593223746" lon="8.857422522554085"><ele>50.0</ele><time>2026-04-10T18:11:19Z</time></trkpt><trkpt lat="39.40390191399306" lon="8.857751892504233"><ele>49.5</ele><time>2026-04-10T18:11:20Z</time></trkpt><trkpt lat="39.4038089574403" lon="8.858083139560618"><ele>49.0</ele><time>2026-04-10T18:11:21Z</time></trkpt><trkpt lat="39.40371677448199" lon="8.858413070413956"><ele>48.5</ele><time>2026-04-10T18:11:22Z</time></trkpt><trkpt lat="39.40362395437585" lon="8.85874351337844"><ele>48.0</ele><time>2026-04-10T18:11:23Z</time></trkpt><trkpt lat="39.40353029026426" lon="8.859073889829643"><ele>48.5</ele><time>2026-04-10T18:11:24Z</time></trkpt><trkpt lat="39.4034376284065" lon="8.859402780031141"><ele>49.0</ele><time>2026-04-10T18:11:25Z</time></trkpt><trkpt lat="39.40334295541921" lon="8.859734100523669"><ele>49.0</ele><time>2026-04-10T18:11:26Z</time></trkpt><trkpt lat="39.403250113999924" lon="8.860064656709982"><ele>49.0</ele><time>2026-04-10T18:11:27Z</time></trkpt><trkpt lat="39.40315729049571" lon="8.860392544982252"><ele>49.0</ele><time>2026-04-10T18:11:28Z</time></trkpt><trkpt lat="39.40306253561195" lon="8.860723493703658"><ele>49.0</ele><time>2026-04-10T18:11:29Z</time></trkpt><trkpt lat="39.402967418404614" lon="8.861055196377684"><ele>47.5</ele><time>2026-04-10T18:11:30Z</time></trkpt><trkpt lat="39.402875673980645" lon="8.861383241084669"><ele>46.0</ele><time>2026-04-10T18:11:31Z</time></trkpt><trkpt lat="39.40278247033114" lon="8.861711996299531"><ele>46.5</ele><time>2026-04-10T18:11:32Z</time></trkpt><trkpt lat="39.402690281717" lon="8.86203952044674"><ele>47.0</ele><time>2026-04-10T18:11:33Z</time></trkpt><trkpt lat="39.402600705742124" lon="8.862365855649674"><ele>48.0</ele><time>2026-04-10T18:11:34Z</time></trkpt><trkpt lat="39.40250886271272" lon="8.862694617534775"><ele>49.0</ele><time>2026-04-10T18:11:35Z</time></trkpt><trkpt lat="39.40241607780542" lon="8.863027639819375"><ele>49.0</ele><time>2026-04-10T18:11:36Z</time></trkpt><trkpt lat="39.4023216195912" lon="8.863362485459941"><ele>49.0</ele><time>2026-04-10T18:11:37Z</time></trkpt><trkpt lat="39.40222632433019" lon="8.86369379472161"><ele>47.5</ele><time>2026-04-10T18:11:38Z</time></trkpt><trkpt lat="39.402131144996034" lon="8.864028539780623"><ele>46.0</ele><time>2026-04-10T18:11:39Z</time></trkpt><trkpt lat="39.402037723629604" lon="8.864365207104603"><ele>45.5</ele><time>2026-04-10T18:11:40Z</time></trkpt><trkpt lat="39.40194526136137" lon="8.864697428619053"><ele>45.0</ele><time>2026-04-10T18:11:41Z</time></trkpt><trkpt lat="39.401850485834714" lon="8.865030985137158"><ele>44.5</ele><time>2026-04-10T18:11:42Z</time></trkpt><trkpt lat="39.4017580821742" lon="8.865361986572502"><ele>44.0</ele><time>2026-04-10T18:11:43Z</time></trkpt><trkpt lat="39.401663716487796" lon="8.865696949166503"><ele>43.5</ele><time>2026-04-10T18:11:44Z</time></trkpt><trkpt lat="39.4015697291308" lon="8.866029499212585"><ele>43.0</ele><time>2026-04-10T18:11:45Z</time></trkpt><trkpt lat="39.40147600393956" lon="8.866362568571365"><ele>43.0</ele><time>2026-04-10T18:11:46Z</time></trkpt><trkpt lat="39.401380427162806" lon="8.866694073061526"><ele>43.0</ele><time>2026-04-10T18:11:47Z</time></trkpt><trkpt lat="39.401284663974664" lon="8.867027727366233"><ele>43.0</ele><time>2026-04-10T18:11:48Z</time></trkpt><trkpt lat="39.401188403499404" lon="8.867361154641191"><ele>43.0</ele><time>2026-04-10T18:11:49Z</time></trkpt><trkpt lat="39.4010922038154" lon="8.867695244175287"><ele>43.5</ele><time>2026-04-10T18:11:50Z</time></trkpt><trkpt lat="39.40099871410526" lon="8.8680282569763"><ele>44.0</ele><time>2026-04-10T18:11:51Z</time></trkpt><trkpt lat="39.40090618499014" lon="8.868365752622193"><ele>44.0</ele><time>2026-04-10T18:11:52Z</time></trkpt><trkpt lat="39.40081230881537" lon="8.868701732502892"><ele>44.0</ele><time>2026-04-10T18:11:53Z</time></trkpt><trkpt lat="39.40071710104196" lon="8.869036545024795"><ele>44.0</ele><time>2026-04-10T18:11:54Z</time></trkpt><trkpt lat="39.40062217330142" lon="8.869367805051342"><ele>44.0</ele><time>2026-04-10T18:11:55Z</time></trkpt><trkpt lat="39.4005294967096" lon="8.869701194383653"><ele>44.0</ele><time>2026-04-10T18:11:56Z</time></trkpt><trkpt lat="39.40043654389447" lon="8.870032656601383"><ele>44.0</ele><time>2026-04-10T18:11:57Z</time></trkpt><trkpt lat="39.40034444014985" lon="8.870361738422526"><ele>44.0</ele><time>2026-04-10T18:11:58Z</time></trkpt><trkpt lat="39.40025086697397" lon="8.870691068544593"><ele>44.0</ele><time>2026-04-10T18:11:59Z</time></trkpt><trkpt lat="39.40015830375268" lon="8.871018412764764"><ele>43.0</ele><time>2026-04-10T18:12:00Z</time></trkpt><trkpt lat="39.400065699652345" lon="8.871346004010855"><ele>42.0</ele><time>2026-04-10T18:12:01Z</time></trkpt><trkpt lat="39.39997346751006" lon="8.871673733724018"><ele>42.5</ele><time>2026-04-10T18:12:02Z</time></trkpt><trkpt lat="39.39988148594849" lon="8.871999049227883"><ele>43.0</ele><time>2026-04-10T18:12:03Z</time></trkpt><trkpt lat="39.399789408116696" lon="8.872324994349613"><ele>42.5</ele><time>2026-04-10T18:12:04Z</time></trkpt><trkpt lat="39.39969711952302" lon="8.872650599302961"><ele>42.0</ele><time>2026-04-10T18:12:05Z</time></trkpt><trkpt lat="39.399602971626514" lon="8.87297732345334"><ele>41.0</ele><time>2026-04-10T18:12:06Z</time></trkpt><trkpt lat="39.399510777971" lon="8.873300088436315"><ele>40.0</ele><time>2026-04-10T18:12:07Z</time></trkpt><trkpt lat="39.39941846212216" lon="8.873623262721402"><ele>40.0</ele><time>2026-04-10T18:12:08Z</time></trkpt><trkpt lat="39.399328155129034" lon="8.873947237107767"><ele>40.0</ele><time>2026-04-10T18:12:09Z</time></trkpt><trkpt lat="39.39923682473094" lon="8.874272509775524"><ele>40.0</ele><time>2026-04-10T18:12:10Z</time></trkpt><trkpt lat="39.39914626099737" lon="8.874596137426996"><ele>40.0</ele><time>2026-04-10T18:12:11Z</time></trkpt><trkpt lat="39.399057360157876" lon="8.874918048291379"><ele>39.0</ele><time>2026-04-10T18:12:12Z</time></trkpt><trkpt lat="39.398965778356754" lon="8.875242533299682"><ele>38.0</ele><time>2026-04-10T18:12:13Z</time></trkpt><trkpt lat="39.398875213002384" lon="8.875566207309198"><ele>38.5</ele><time>2026-04-10T18:12:14Z</time></trkpt><trkpt lat="39.398784522745125" lon="8.875887129306868"><ele>39.0</ele><time>2026-04-10T18:12:15Z</time></trkpt><trkpt lat="39.398689592075584" lon="8.876211251342712"><ele>39.0</ele><time>2026-04-10T18:12:16Z</time></trkpt><trkpt lat="39.39859847956274" lon="8.876532318494773"><ele>39.0</ele><time>2026-04-10T18:12:17Z</time></trkpt><trkpt lat="39.39850733829868" lon="8.876854257942513"><ele>39.5</ele><time>2026-04-10T18:12:18Z</time></trkpt><trkpt lat="39.39841179716101" lon="8.877177293511206"><ele>40.0</ele><time>2026-04-10T18:12:19Z</time></trkpt><trkpt lat="39.398317127297204" lon="8.877499345103898"><ele>40.0</ele><time>2026-04-10T18:12:20Z</time></trkpt><trkpt lat="39.39822836398765" lon="8.87781996164353"><ele>40.0</ele><time>2026-04-10T18:12:21Z</time></trkpt><trkpt lat="39.398139351765465" lon="8.878143322463144"><ele>39.5</ele><time>2026-04-10T18:12:22Z</time></trkpt><trkpt lat="39.3980492760291" lon="8.878464350262394"><ele>39.0</ele><time>2026-04-10T18:12:23Z</time></trkpt><trkpt lat="39.397960466431634" lon="8.878784479989186"><ele>38.5</ele><time>2026-04-10T18:12:24Z</time></trkpt><trkpt lat="39.39786906923969" lon="8.879108039189623"><ele>38.0</ele><time>2026-04-10T18:12:25Z</time></trkpt><trkpt lat="39.39778022828927" lon="8.879428832155053"><ele>38.0</ele><time>2026-04-10T18:12:26Z</time></trkpt><trkpt lat="39.397689109814735" lon="8.87974848976952"><ele>38.0</ele><time>2026-04-10T18:12:27Z</time></trkpt><trkpt lat="39.39759610726141" lon="8.88007039153086"><ele>38.5</ele><time>2026-04-10T18:12:28Z</time></trkpt><trkpt lat="39.39750645148444" lon="8.880389841861406"><ele>39.0</ele><time>2026-04-10T18:12:29Z</time></trkpt><trkpt lat="39.397418548524506" lon="8.88071101951321"><ele>38.0</ele><time>2026-04-10T18:12:30Z</time></trkpt><trkpt lat="39.3973261040187" lon="8.881035803227642"><ele>37.0</ele><time>2026-04-10T18:12:31Z</time></trkpt><trkpt lat="39.397230010814994" lon="8.881360745821437"><ele>36.5</ele><time>2026-04-10T18:12:32Z</time></trkpt><trkpt lat="39.39713501697927" lon="8.881684835234017"><ele>36.0</ele><time>2026-04-10T18:12:33Z</time></trkpt><trkpt lat="39.39704274159464" lon="8.88201133121737"><ele>35.5</ele><time>2026-04-10T18:12:34Z</time></trkpt><trkpt lat="39.39695220113254" lon="8.882336072987156"><ele>35.0</ele><time>2026-04-10T18:12:35Z</time></trkpt><trkpt lat="39.39686087992836" lon="8.882664923487363"><ele>35.0</ele><time>2026-04-10T18:12:36Z</time></trkpt><trkpt lat="39.39676974453487" lon="8.882989051985419"><ele>35.0</ele><time>2026-04-10T18:12:37Z</time></trkpt><trkpt lat="39.396676970465215" lon="8.883312685610655"><ele>34.5</ele><time>2026-04-10T18:12:38Z</time></trkpt><trkpt lat="39.39658550115416" lon="8.883637444123817"><ele>34.0</ele><time>2026-04-10T18:12:39Z</time></trkpt><trkpt lat="39.39649427849974" lon="8.883963028739046"><ele>33.5</ele><time>2026-04-10T18:12:40Z</time></trkpt><trkpt lat="39.39640190941676" lon="8.884289057935074"><ele>33.0</ele><time>2026-04-10T18:12:41Z</time></trkpt><trkpt lat="39.39630976963805" lon="8.884611744318198"><ele>33.0</ele><time>2026-04-10T18:12:42Z</time></trkpt><trkpt lat="39.39621926844779" lon="8.884935546659895"><ele>33.0</ele><time>2026-04-10T18:12:43Z</time></trkpt><trkpt lat="39.396126494448474" lon="8.885262096301506"><ele>33.5</ele><time>2026-04-10T18:12:44Z</time></trkpt><trkpt lat="39.39603707429417" lon="8.885586472758407"><ele>34.0</ele><time>2026-04-10T18:12:45Z</time></trkpt><trkpt lat="39.395944748715664" lon="8.885909946762837"><ele>34.0</ele><time>2026-04-10T18:12:46Z</time></trkpt><trkpt lat="39.39585172051849" lon="8.886232981995818"><ele>34.0</ele><time>2026-04-10T18:12:47Z</time></trkpt><trkpt lat="39.39576035052789" lon="8.886556569895516"><ele>34.5</ele><time>2026-04-10T18:12:48Z</time></trkpt><trkpt lat="39.395670325204286" lon="8.88688032618154"><ele>35.0</ele><time>2026-04-10T18:12:49Z</time></trkpt><trkpt lat="39.39557985204062" lon="8.887202811036433"><ele>34.5</ele><time>2026-04-10T18:12:50Z</time></trkpt><trkpt lat="39.39549078906076" lon="8.887525414187083"><ele>34.0</ele><time>2026-04-10T18:12:51Z</time></trkpt><trkpt lat="39.39539974042233" lon="8.88784669481775"><ele>34.0</ele><time>2026-04-10T18:12:52Z</time></trkpt><trkpt lat="39.39530537411463" lon="8.888169998455302"><ele>34.0</ele><time>2026-04-10T18:12:53Z</time></trkpt><trkpt lat="39.39521278601735" lon="8.888491900941155"><ele>33.5</ele><time>2026-04-10T18:12:54Z</time></trkpt><trkpt lat="39.395122754486444" lon="8.888814905920539"><ele>33.0</ele><time>2026-04-10T18:12:55Z</time></trkpt><trkpt lat="39.395034119533264" lon="8.889139166073617"><ele>32.0</ele><time>2026-04-10T18:12:56Z</time></trkpt><trkpt lat="39.39494298511803" lon="8.889461106054137"><ele>31.0</ele><time>2026-04-10T18:12:57Z</time></trkpt><trkpt lat="39.394850665555566" lon="8.889784973085526"><ele>31.0</ele><time>2026-04-10T18:12:58Z</time></trkpt><trkpt lat="39.39475922892507" lon="8.890108369965871"><ele>31.0</ele><time>2026-04-10T18:12:59Z</time></trkpt><trkpt lat="39.39466687824015" lon="8.890432105129834"><ele>31.0</ele><time>2026-04-10T18:13:00Z</time></trkpt><trkpt lat="39.39457412085054" lon="8.890757780196141"><ele>31.0</ele><time>2026-04-10T18:13:01Z</time></trkpt><trkpt lat="39.3944789998236" lon="8.891088587486273"><ele>30.5</ele><time>2026-04-10T18:13:02Z</time></trkpt><trkpt lat="39.39438624641547" lon="8.891418652882326"><ele>30.0</ele><time>2026-04-10T18:13:03Z</time></trkpt><trkpt lat="39.39429248280357" lon="8.891748551296324"><ele>30.0</ele><time>2026-04-10T18:13:04Z</time></trkpt><trkpt lat="39.39420177122574" lon="8.892078634505294"><ele>30.0</ele><time>2026-04-10T18:13:05Z</time></trkpt><trkpt lat="39.39410958867903" lon="8.892406337615636"><ele>30.0</ele><time>2026-04-10T18:13:06Z</time></trkpt><trkpt lat="39.39401586979162" lon="8.892735504274462"><ele>30.0</ele><time>2026-04-10T18:13:07Z</time></trkpt><trkpt lat="39.393922983683176" lon="8.893063906783334"><ele>29.5</ele><time>2026-04-10T18:13:08Z</time></trkpt><trkpt lat="39.39382836963899" lon="8.893392986306699"><ele>29.0</ele><time>2026-04-10T18:13:09Z</time></trkpt><trkpt lat="39.39373359340047" lon="8.893723941077072"><ele>29.0</ele><time>2026-04-10T18:13:10Z</time></trkpt><trkpt lat="39.39364137385125" lon="8.894054502641431"><ele>29.0</ele><time>2026-04-10T18:13:11Z</time></trkpt><trkpt lat="39.39354924776639" lon="8.894383763909795"><ele>29.5</ele><time>2026-04-10T18:13:12Z</time></trkpt><trkpt lat="39.39345551796165" lon="8.894716022867128"><ele>30.0</ele><time>2026-04-10T18:13:13Z</time></trkpt><trkpt lat="39.39336217013015" lon="8.895046671066625"><ele>32.0</ele><time>2026-04-10T18:13:14Z</time></trkpt><trkpt lat="39.39326860461542" lon="8.895375957070803"><ele>34.0</ele><time>2026-04-10T18:13:15Z</time></trkpt><trkpt lat="39.39317475375959" lon="8.895705473891526"><ele>33.5</ele><time>2026-04-10T18:13:16Z</time></trkpt><trkpt lat="39.39308029331675" lon="8.896036080661023"><ele>33.0</ele><time>2026-04-10T18:13:17Z</time></trkpt><trkpt lat="39.392987589752856" lon="8.896366070936248"><ele>33.0</ele><time>2026-04-10T18:13:18Z</time></trkpt><trkpt lat="39.392895240135914" lon="8.896693788301715"><ele>33.0</ele><time>2026-04-10T18:13:19Z</time></trkpt><trkpt lat="39.39280186811303" lon="8.897026085021785"><ele>33.0</ele><time>2026-04-10T18:13:20Z</time></trkpt><trkpt lat="39.39270824178821" lon="8.897357266836385"><ele>33.0</ele><time>2026-04-10T18:13:21Z</time></trkpt><trkpt lat="39.39261413267299" lon="8.897682497830836"><ele>33.0</ele><time>2026-04-10T18:13:22Z</time></trkpt><trkpt lat="39.39252380781943" lon="8.898010229943807"><ele>33.0</ele><time>2026-04-10T18:13:23Z</time></trkpt><trkpt lat="39.39243456485038" lon="8.898337729338026"><ele>32.5</ele><time>2026-04-10T18:13:24Z</time></trkpt><trkpt lat="39.3923442618489" lon="8.898663789714242"><ele>32.0</ele><time>2026-04-10T18:13:25Z</time></trkpt><trkpt lat="39.39225359303203" lon="8.898987318651823"><ele>30.0</ele><time>2026-04-10T18:13:26Z</time></trkpt><trkpt lat="39.39216156960129" lon="8.899310625259371"><ele>28.0</ele><time>2026-04-10T18:13:27Z</time></trkpt><trkpt lat="39.392070554884306" lon="8.899631123196421"><ele>28.0</ele><time>2026-04-10T18:13:28Z</time></trkpt><trkpt lat="39.39198104507246" lon="8.89994999773228"><ele>28.0</ele><time>2026-04-10T18:13:29Z</time></trkpt><trkpt lat="39.39189060493415" lon="8.900267222093216"><ele>28.5</ele><time>2026-04-10T18:13:30Z</time></trkpt><trkpt lat="39.391796655642345" lon="8.900581389527005"><ele>29.0</ele><time>2026-04-10T18:13:31Z</time></trkpt><trkpt lat="39.391707284305035" lon="8.90089435827542"><ele>29.0</ele><time>2026-04-10T18:13:32Z</time></trkpt><trkpt lat="39.39162077728303" lon="8.90120326300538"><ele>29.0</ele><time>2026-04-10T18:13:33Z</time></trkpt><trkpt lat="39.39153800361769" lon="8.90150752565684"><ele>28.5</ele><time>2026-04-10T18:13:34Z</time></trkpt><trkpt lat="39.391451855923975" lon="8.901812423315839"><ele>28.0</ele><time>2026-04-10T18:13:35Z</time></trkpt><trkpt lat="39.391364172644465" lon="8.902120955170561"><ele>27.5</ele><time>2026-04-10T18:13:36Z</time></trkpt><trkpt lat="39.39127405187531" lon="8.902432517123826"><ele>27.0</ele><time>2026-04-10T18:13:37Z</time></trkpt><trkpt lat="39.39118633293273" lon="8.902742888888099"><ele>26.5</ele><time>2026-04-10T18:13:38Z</time></trkpt><trkpt lat="39.39109947998651" lon="8.903056320291011"><ele>26.0</ele><time>2026-04-10T18:13:39Z</time></trkpt><trkpt lat="39.391010339270395" lon="8.903369832642307"><ele>26.0</ele><time>2026-04-10T18:13:40Z</time></trkpt><trkpt lat="39.39092131964875" lon="8.903683088379815"><ele>26.0</ele><time>2026-04-10T18:13:41Z</time></trkpt><trkpt lat="39.39083057016446" lon="8.903993850363427"><ele>26.5</ele><time>2026-04-10T18:13:42Z</time></trkpt><trkpt lat="39.390739130583555" lon="8.904304888810504"><ele>27.0</ele><time>2026-04-10T18:13:43Z</time></trkpt><trkpt lat="39.390649957835876" lon="8.90461658271789"><ele>27.0</ele><time>2026-04-10T18:13:44Z</time></trkpt><trkpt lat="39.3905637330968" lon="8.904932743176893"><ele>27.0</ele><time>2026-04-10T18:13:45Z</time></trkpt><trkpt lat="39.39048010326708" lon="8.905247266833314"><ele>27.0</ele><time>2026-04-10T18:13:46Z</time></trkpt><trkpt lat="39.39039226951307" lon="8.905559888306659"><ele>27.0</ele><time>2026-04-10T18:13:47Z</time></trkpt><trkpt lat="39.39030343758012" lon="8.905870189026533"><ele>28.0</ele><time>2026-04-10T18:13:48Z</time></trkpt><trkpt lat="39.39021524714983" lon="8.906178972180607"><ele>29.0</ele><time>2026-04-10T18:13:49Z</time></trkpt><trkpt lat="39.39012764503704" lon="8.906491243122685"><ele>28.0</ele><time>2026-04-10T18:13:50Z</time></trkpt><trkpt lat="39.39004015329298" lon="8.90680651701056"><ele>27.0</ele><time>2026-04-10T18:13:51Z</time></trkpt><trkpt lat="39.389955334608665" lon="8.907118852509486"><ele>27.0</ele><time>2026-04-10T18:13:52Z</time></trkpt><trkpt lat="39.38986778671099" lon="8.90743263986705"><ele>27.0</ele><time>2026-04-10T18:13:53Z</time></trkpt><trkpt lat="39.38977839242457" lon="8.90774464658555"><ele>26.5</ele><time>2026-04-10T18:13:54Z</time></trkpt><trkpt lat="39.38969112454837" lon="8.908053566855664"><ele>26.0</ele><time>2026-04-10T18:13:55Z</time></trkpt><trkpt lat="39.38960261900367" lon="8.908364237224552"><ele>25.5</ele><time>2026-04-10T18:13:56Z</time></trkpt><trkpt lat="39.38951575702682" lon="8.908674669806029"><ele>25.0</ele><time>2026-04-10T18:13:57Z</time></trkpt><trkpt lat="39.38943046015428" lon="8.908983595592195"><ele>24.5</ele><time>2026-04-10T18:13:58Z</time></trkpt><trkpt lat="39.38934235905309" lon="8.909296278416797"><ele>24.0</ele><time>2026-04-10T18:13:59Z</time></trkpt><trkpt lat="39.38925482870982" lon="8.90960739384598"><ele>24.0</ele><time>2026-04-10T18:14:00Z</time></trkpt><trkpt lat="39.38916597432419" lon="8.909924677417742"><ele>24.0</ele><time>2026-04-10T18:14:01Z</time></trkpt><trkpt lat="39.38907748569007" lon="8.910239665632869"><ele>24.0</ele><time>2026-04-10T18:14:02Z</time></trkpt><trkpt lat="39.38898931415644" lon="8.910555457867757"><ele>24.0</ele><time>2026-04-10T18:14:03Z</time></trkpt><trkpt lat="39.38889896451098" lon="8.910874049045006"><ele>23.0</ele><time>2026-04-10T18:14:04Z</time></trkpt><trkpt lat="39.388805298868675" lon="8.911194481938256"><ele>22.0</ele><time>2026-04-10T18:14:05Z</time></trkpt><trkpt lat="39.38871068287877" lon="8.911518667324742"><ele>22.5</ele><time>2026-04-10T18:14:06Z</time></trkpt><trkpt lat="39.38861795450597" lon="8.911844950232174"><ele>23.0</ele><time>2026-04-10T18:14:07Z</time></trkpt><trkpt lat="39.388524194742594" lon="8.91217087896096"><ele>23.0</ele><time>2026-04-10T18:14:08Z</time></trkpt><trkpt lat="39.38843251036382" lon="8.912493111842277"><ele>23.0</ele><time>2026-04-10T18:14:09Z</time></trkpt><trkpt lat="39.38834179906404" lon="8.912814698988006"><ele>23.0</ele><time>2026-04-10T18:14:10Z</time></trkpt><trkpt lat="39.388254150958026" lon="8.913136598111562"><ele>23.0</ele><time>2026-04-10T18:14:11Z</time></trkpt><trkpt lat="39.38816584708895" lon="8.91345754537354"><ele>23.5</ele><time>2026-04-10T18:14:12Z</time></trkpt><trkpt lat="39.38807757475641" lon="8.91377734371493"><ele>24.0</ele><time>2026-04-10T18:14:13Z</time></trkpt><trkpt lat="39.387986641628025" lon="8.914092426080238"><ele>24.0</ele><time>2026-04-10T18:14:14Z</time></trkpt><trkpt lat="39.38789515128685" lon="8.914409581766309"><ele>24.0</ele><time>2026-04-10T18:14:15Z</time></trkpt><trkpt lat="39.387804044091666" lon="8.914727219151665"><ele>24.0</ele><time>2026-04-10T18:14:16Z</time></trkpt><trkpt lat="39.387715264163326" lon="8.915047665879042"><ele>24.0</ele><time>2026-04-10T18:14:17Z</time></trkpt><trkpt lat="39.38762439960968" lon="8.915365008082171"><ele>24.5</ele><time>2026-04-10T18:14:18Z</time></trkpt><trkpt lat="39.38753330763979" lon="8.915687008876768"><ele>25.0</ele><time>2026-04-10T18:14:19Z</time></trkpt><trkpt lat="39.38744195816481" lon="8.916009405307669"><ele>25.0</ele><time>2026-04-10T18:14:20Z</time></trkpt><trkpt lat="39.38734910031904" lon="8.916332797470494"><ele>25.0</ele><time>2026-04-10T18:14:21Z</time></trkpt><trkpt lat="39.387256646544806" lon="8.916658955488787"><ele>24.0</ele><time>2026-04-10T18:14:22Z</time></trkpt><trkpt lat="39.38716526030098" lon="8.916983263746738"><ele>23.0</ele><time>2026-04-10T18:14:23Z</time></trkpt><trkpt lat="39.38707432263523" lon="8.917310247800103"><ele>23.5</ele><time>2026-04-10T18:14:24Z</time></trkpt><trkpt lat="39.386979016100874" lon="8.917632104576846"><ele>24.0</ele><time>2026-04-10T18:14:25Z</time></trkpt><trkpt lat="39.38688883714072" lon="8.917967608544854"><ele>24.0</ele><time>2026-04-10T18:14:26Z</time></trkpt><trkpt lat="39.38679351756572" lon="8.918291501199722"><ele>24.0</ele><time>2026-04-10T18:14:27Z</time></trkpt><trkpt lat="39.38670201791352" lon="8.918615250237524"><ele>23.5</ele><time>2026-04-10T18:14:28Z</time></trkpt><trkpt lat="39.38661259929975" lon="8.918939801623177"><ele>23.0</ele><time>2026-04-10T18:14:29Z</time></trkpt><trkpt lat="39.386522948399936" lon="8.919263042272737"><ele>22.5</ele><time>2026-04-10T18:14:30Z</time></trkpt><trkpt lat="39.386431887078174" lon="8.919587098518582"><ele>22.0</ele><time>2026-04-10T18:14:31Z</time></trkpt><trkpt lat="39.38634252328737" lon="8.919909717500856"><ele>21.5</ele><time>2026-04-10T18:14:32Z</time></trkpt><trkpt lat="39.386251767676285" lon="8.920230756545923"><ele>21.0</ele><time>2026-04-10T18:14:33Z</time></trkpt><trkpt lat="39.386160885748076" lon="8.920548754345004"><ele>21.0</ele><time>2026-04-10T18:14:34Z</time></trkpt><trkpt lat="39.386070370251204" lon="8.920867780378053"><ele>21.0</ele><time>2026-04-10T18:14:35Z</time></trkpt><trkpt lat="39.38598045074087" lon="8.921185311953156"><ele>21.5</ele><time>2026-04-10T18:14:36Z</time></trkpt><trkpt lat="39.38589100222895" lon="8.921503346505917"><ele>22.0</ele><time>2026-04-10T18:14:37Z</time></trkpt><trkpt lat="39.385803801283686" lon="8.921818217506583"><ele>22.5</ele><time>2026-04-10T18:14:38Z</time></trkpt><trkpt lat="39.38571582108766" lon="8.92212754929016"><ele>23.0</ele><time>2026-04-10T18:14:39Z</time></trkpt><trkpt lat="39.385632543925446" lon="8.92242717875937"><ele>23.0</ele><time>2026-04-10T18:14:40Z</time></trkpt><trkpt lat="39.385555636563204" lon="8.922700512554924"><ele>23.0</ele><time>2026-04-10T18:14:41Z</time></trkpt><trkpt lat="39.38548121769312" lon="8.922965379676572"><ele>23.0</ele><time>2026-04-10T18:14:42Z</time></trkpt><trkpt lat="39.38540809559089" lon="8.923215830678508"><ele>23.0</ele><time>2026-04-10T18:14:43Z</time></trkpt><trkpt lat="39.38533855631223" lon="8.923453040617646"><ele>23.0</ele><time>2026-04-10T18:14:44Z</time></trkpt><trkpt lat="39.38527181874975" lon="8.92368917811737"><ele>23.0</ele><time>2026-04-10T18:14:45Z</time></trkpt><trkpt lat="39.38520060956897" lon="8.9239379914702"><ele>23.0</ele><time>2026-04-10T18:14:46Z</time></trkpt><trkpt lat="39.38512688417446" lon="8.924200462291981"><ele>23.0</ele><time>2026-04-10T18:14:47Z</time></trkpt><trkpt lat="39.38505124800854" lon="8.924470556688357"><ele>23.0</ele><time>2026-04-10T18:14:48Z</time></trkpt><trkpt lat="39.3849766440096" lon="8.924739889221149"><ele>23.0</ele><time>2026-04-10T18:14:49Z</time></trkpt><trkpt lat="39.38490180624913" lon="8.925012161657728"><ele>23.0</ele><time>2026-04-10T18:14:50Z</time></trkpt><trkpt lat="39.38482520383927" lon="8.925289367932685"><ele>23.0</ele><time>2026-04-10T18:14:51Z</time></trkpt><trkpt lat="39.38474730230603" lon="8.925571823031047"><ele>23.0</ele><time>2026-04-10T18:14:52Z</time></trkpt><trkpt lat="39.38466786886774" lon="8.92585257152528"><ele>23.0</ele><time>2026-04-10T18:14:53Z</time></trkpt><trkpt lat="39.38458936151095" lon="8.926131507076208"><ele>23.0</ele><time>2026-04-10T18:14:54Z</time></trkpt><trkpt lat="39.384512563269276" lon="8.926404328445118"><ele>23.0</ele><time>2026-04-10T18:14:55Z</time></trkpt><trkpt lat="39.38443576459739" lon="8.92667880821568"><ele>23.0</ele><time>2026-04-10T18:14:56Z</time></trkpt><trkpt lat="39.38436184308385" lon="8.926944852382368"><ele>23.0</ele><time>2026-04-10T18:14:57Z</time></trkpt><trkpt lat="39.3842905415137" lon="8.927196995913965"><ele>22.666666666666668</ele><time>2026-04-10T18:14:58Z</time></trkpt><trkpt lat="39.38422128844366" lon="8.927439966301224"><ele>22.333333333333332</ele><time>2026-04-10T18:14:59Z</time></trkpt><trkpt lat="39.38415586144603" lon="8.92767059072518"><ele>22.0</ele><time>2026-04-10T18:15:00Z</time></trkpt><trkpt lat="39.3840932965228" lon="8.927888828952849"><ele>21.666666666666664</ele><time>2026-04-10T18:15:01Z</time></trkpt><trkpt lat="39.384033887865755" lon="8.928094269210272"><ele>21.333333333333332</ele><time>2026-04-10T18:15:02Z</time></trkpt><trkpt lat="39.383978672068444" lon="8.928291891013492"><ele>21.0</ele><time>2026-04-10T18:15:03Z</time></trkpt><trkpt lat="39.38391963575258" lon="8.928491058067893"><ele>21.0</ele><time>2026-04-10T18:15:04Z</time></trkpt><trkpt lat="39.383863013759466" lon="8.928700451864477"><ele>21.0</ele><time>2026-04-10T18:15:05Z</time></trkpt><trkpt lat="39.3838041702088" lon="8.92890605423608"><ele>21.0</ele><time>2026-04-10T18:15:06Z</time></trkpt><trkpt lat="39.38374507205919" lon="8.929119446867693"><ele>21.666666666666668</ele><time>2026-04-10T18:15:07Z</time></trkpt><trkpt lat="39.38368423098438" lon="8.929332817095158"><ele>22.333333333333336</ele><time>2026-04-10T18:15:08Z</time></trkpt><trkpt lat="39.383623531680996" lon="8.929545990096887"><ele>23.0</ele><time>2026-04-10T18:15:09Z</time></trkpt><trkpt lat="39.383566496775366" lon="8.929746908701622"><ele>23.0</ele><time>2026-04-10T18:15:10Z</time></trkpt><trkpt lat="39.3835128109358" lon="8.929939993420776"><ele>23.0</ele><time>2026-04-10T18:15:11Z</time></trkpt><trkpt lat="39.38346300135192" lon="8.93012210326883"><ele>23.0</ele><time>2026-04-10T18:15:12Z</time></trkpt><trkpt lat="39.38341405039363" lon="8.930295143003244"><ele>23.0</ele><time>2026-04-10T18:15:13Z</time></trkpt><trkpt lat="39.38336452940933" lon="8.9304631187217"><ele>23.0</ele><time>2026-04-10T18:15:14Z</time></trkpt><trkpt lat="39.38331055514134" lon="8.930630099700904"><ele>23.0</ele><time>2026-04-10T18:15:15Z</time></trkpt><trkpt lat="39.3832490433349" lon="8.930799869607402"><ele>23.0</ele><time>2026-04-10T18:15:16Z</time></trkpt><trkpt lat="39.383177407195305" lon="8.93095266411927"><ele>23.25</ele><time>2026-04-10T18:15:17Z</time></trkpt><trkpt lat="39.383093960883" lon="8.931087509896598"><ele>23.5</ele><time>2026-04-10T18:15:18Z</time></trkpt><trkpt lat="39.38300210008157" lon="8.931198423099973"><ele>23.75</ele><time>2026-04-10T18:15:19Z</time></trkpt><trkpt lat="39.38290258822112" lon="8.931288072485003"><ele>24.0</ele><time>2026-04-10T18:15:20Z</time></trkpt><trkpt lat="39.382795538055845" lon="8.931369474261256"><ele>24.0</ele><time>2026-04-10T18:15:21Z</time></trkpt><trkpt lat="39.38266713869164" lon="8.931436427033168"><ele>24.0</ele><time>2026-04-10T18:15:22Z</time></trkpt><trkpt lat="39.382528722830024" lon="8.93147936885882"><ele>24.0</ele><time>2026-04-10T18:15:23Z</time></trkpt><trkpt lat="39.38238951840677" lon="8.931503535901749"><ele>24.0</ele><time>2026-04-10T18:15:24Z</time></trkpt><trkpt lat="39.382245558333196" lon="8.931497512707532"><ele>23.75</ele><time>2026-04-10T18:15:25Z</time></trkpt><trkpt lat="39.38210563895827" lon="8.931465367483726"><ele>23.5</ele><time>2026-04-10T18:15:26Z</time></trkpt><trkpt lat="39.38196976039559" lon="8.931396658137366"><ele>23.25</ele><time>2026-04-10T18:15:27Z</time></trkpt><trkpt lat="39.38184823572809" lon="8.931316865355166"><ele>23.0</ele><time>2026-04-10T18:15:28Z</time></trkpt><trkpt lat="39.38173485813748" lon="8.93124642134093"><ele>23.0</ele><time>2026-04-10T18:15:29Z</time></trkpt><trkpt lat="39.38163102716138" lon="8.931183230807774"><ele>23.0</ele><time>2026-04-10T18:15:30Z</time></trkpt><trkpt lat="39.3815381156372" lon="8.931124920507672"><ele>23.0</ele><time>2026-04-10T18:15:31Z</time></trkpt><trkpt lat="39.38145418550357" lon="8.931063521130266"><ele>23.0</ele><time>2026-04-10T18:15:32Z</time></trkpt><trkpt lat="39.38139303439049" lon="8.930990681303362"><ele>23.0</ele><time>2026-04-10T18:15:33Z</time></trkpt><trkpt lat="39.38135150043989" lon="8.930908172720132"><ele>22.666666666666668</ele><time>2026-04-10T18:15:34Z</time></trkpt><trkpt lat="39.381321825730744" lon="8.930820275652975"><ele>22.333333333333336</ele><time>2026-04-10T18:15:35Z</time></trkpt><trkpt lat="39.3812911812024" lon="8.930732935640243"><ele>22.0</ele><time>2026-04-10T18:15:36Z</time></trkpt><trkpt lat="39.38124537401345" lon="8.930650569741784"><ele>21.666666666666668</ele><time>2026-04-10T18:15:37Z</time></trkpt><trkpt lat="39.38118116024857" lon="8.930589421993623"><ele>21.333333333333332</ele><time>2026-04-10T18:15:38Z</time></trkpt><trkpt lat="39.3811032882801" lon="8.930556531672355"><ele>21.0</ele><time>2026-04-10T18:15:39Z</time></trkpt><trkpt lat="39.38101981886012" lon="8.93054766608515"><ele>21.0</ele><time>2026-04-10T18:15:40Z</time></trkpt><trkpt lat="39.380942816279024" lon="8.930593518869214"><ele>21.0</ele><time>2026-04-10T18:15:41Z</time></trkpt><trkpt lat="39.380866399196435" lon="8.930666969259251"><ele>21.0</ele><time>2026-04-10T18:15:42Z</time></trkpt><trkpt lat="39.38078519591793" lon="8.930738850187764"><ele>21.0</ele><time>2026-04-10T18:15:43Z</time></trkpt><trkpt lat="39.38069759247793" lon="8.93078527750136"><ele>21.0</ele><time>2026-04-10T18:15:44Z</time></trkpt><trkpt lat="39.38060322806545" lon="8.930828141689828"><ele>21.0</ele><time>2026-04-10T18:15:45Z</time></trkpt><trkpt lat="39.380455225160084" lon="8.930799139042044"><ele>21.0</ele><time>2026-04-10T18:15:46Z</time></trkpt><trkpt lat="39.380307665079954" lon="8.930770178405036"><ele>21.0</ele><time>2026-04-10T18:15:47Z</time></trkpt><trkpt lat="39.38015101861642" lon="8.930767232501577"><ele>21.0</ele><time>2026-04-10T18:15:48Z</time></trkpt><trkpt lat="39.379993934792076" lon="8.930765296183498"><ele>21.0</ele><time>2026-04-10T18:15:49Z</time></trkpt><trkpt lat="39.37981882224829" lon="8.93076767491263"><ele>21.0</ele><time>2026-04-10T18:15:50Z</time></trkpt><trkpt lat="39.37963734089642" lon="8.930782261271618"><ele>21.333333333333332</ele><time>2026-04-10T18:15:51Z</time></trkpt><trkpt lat="39.37945148313045" lon="8.930804016477694"><ele>21.666666666666664</ele><time>2026-04-10T18:15:52Z</time></trkpt><trkpt lat="39.37925806967998" lon="8.930834457475807"><ele>22.0</ele><time>2026-04-10T18:15:53Z</time></trkpt><trkpt lat="39.37905061325366" lon="8.93087846772941"><ele>21.666666666666664</ele><time>2026-04-10T18:15:54Z</time></trkpt><trkpt lat="39.37883410940918" lon="8.930929255954947"><ele>21.333333333333332</ele><time>2026-04-10T18:15:55Z</time></trkpt><trkpt lat="39.37861657762257" lon="8.930991445465905"><ele>21.0</ele><time>2026-04-10T18:15:56Z</time></trkpt><trkpt lat="39.378401201297365" lon="8.931037122816786"><ele>21.0</ele><time>2026-04-10T18:15:57Z</time></trkpt><trkpt lat="39.378175664578265" lon="8.93108557276653"><ele>21.0</ele><time>2026-04-10T18:15:58Z</time></trkpt><trkpt lat="39.377944537651125" lon="8.931135356075552"><ele>22.0</ele><time>2026-04-10T18:15:59Z</time></trkpt><trkpt lat="39.377714432595766" lon="8.931185014359247"><ele>23.0</ele><time>2026-04-10T18:16:00Z</time></trkpt><trkpt lat="39.37748408806188" lon="8.931234882898096"><ele>23.0</ele><time>2026-04-10T18:16:01Z</time></trkpt><trkpt lat="39.37725225884943" lon="8.931286872598722"><ele>23.0</ele><time>2026-04-10T18:16:02Z</time></trkpt><trkpt lat="39.37701949263162" lon="8.93133808538306"><ele>23.0</ele><time>2026-04-10T18:16:03Z</time></trkpt><trkpt lat="39.3767859996333" lon="8.931389799220904"><ele>23.0</ele><time>2026-04-10T18:16:04Z</time></trkpt><trkpt lat="39.37655170435654" lon="8.93144286765087"><ele>22.0</ele><time>2026-04-10T18:16:05Z</time></trkpt><trkpt lat="39.376318157506475" lon="8.93149704526315"><ele>21.0</ele><time>2026-04-10T18:16:06Z</time></trkpt><trkpt lat="39.37608349570646" lon="8.931551136510112"><ele>21.0</ele><time>2026-04-10T18:16:07Z</time></trkpt><trkpt lat="39.3758464090154" lon="8.931605327950104"><ele>21.0</ele><time>2026-04-10T18:16:08Z</time></trkpt><trkpt lat="39.37561020741583" lon="8.931661635418749"><ele>21.5</ele><time>2026-04-10T18:16:09Z</time></trkpt><trkpt lat="39.37537369479274" lon="8.93171757396848"><ele>22.0</ele><time>2026-04-10T18:16:10Z</time></trkpt><trkpt lat="39.37513647290887" lon="8.93177273229755"><ele>21.5</ele><time>2026-04-10T18:16:11Z</time></trkpt><trkpt lat="39.37490040461347" lon="8.931827586620756"><ele>21.0</ele><time>2026-04-10T18:16:12Z</time></trkpt><trkpt lat="39.374662860361326" lon="8.93188294000406"><ele>21.0</ele><time>2026-04-10T18:16:13Z</time></trkpt><trkpt lat="39.37442257802024" lon="8.931938671245996"><ele>21.0</ele><time>2026-04-10T18:16:14Z</time></trkpt><trkpt lat="39.37418333952371" lon="8.931993757631526"><ele>21.0</ele><time>2026-04-10T18:16:15Z</time></trkpt><trkpt lat="39.373944603999156" lon="8.932047469427149"><ele>21.0</ele><time>2026-04-10T18:16:16Z</time></trkpt><trkpt lat="39.37370427312602" lon="8.932100476952737"><ele>20.5</ele><time>2026-04-10T18:16:17Z</time></trkpt><trkpt lat="39.373464507028125" lon="8.932152845629759"><ele>20.0</ele><time>2026-04-10T18:16:18Z</time></trkpt><trkpt lat="39.37322401436093" lon="8.932208228551673"><ele>20.5</ele><time>2026-04-10T18:16:19Z</time></trkpt><trkpt lat="39.37298174842861" lon="8.932267294196539"><ele>21.0</ele><time>2026-04-10T18:16:20Z</time></trkpt><trkpt lat="39.37273683386493" lon="8.932332211739224"><ele>21.0</ele><time>2026-04-10T18:16:21Z</time></trkpt><trkpt lat="39.372493257985944" lon="8.93239925186064"><ele>21.0</ele><time>2026-04-10T18:16:22Z</time></trkpt><trkpt lat="39.372251145929965" lon="8.932470087339711"><ele>20.5</ele><time>2026-04-10T18:16:23Z</time></trkpt><trkpt lat="39.37200804976179" lon="8.932550957199245"><ele>20.0</ele><time>2026-04-10T18:16:24Z</time></trkpt><trkpt lat="39.371765649418926" lon="8.932641252641712"><ele>20.0</ele><time>2026-04-10T18:16:25Z</time></trkpt><trkpt lat="39.37152661169409" lon="8.932745189314321"><ele>20.0</ele><time>2026-04-10T18:16:26Z</time></trkpt><trkpt lat="39.371288439338336" lon="8.932863628553378"><ele>20.0</ele><time>2026-04-10T18:16:27Z</time></trkpt><trkpt lat="39.3710545726568" lon="8.932993611014753"><ele>20.0</ele><time>2026-04-10T18:16:28Z</time></trkpt><trkpt lat="39.370822030868666" lon="8.933130364086146"><ele>20.0</ele><time>2026-04-10T18:16:29Z</time></trkpt><trkpt lat="39.370590945292875" lon="8.933274617479286"><ele>20.0</ele><time>2026-04-10T18:16:30Z</time></trkpt><trkpt lat="39.37036177205939" lon="8.933430508598317"><ele>21.0</ele><time>2026-04-10T18:16:31Z</time></trkpt><trkpt lat="39.370135209939505" lon="8.933592000035727"><ele>22.0</ele><time>2026-04-10T18:16:32Z</time></trkpt><trkpt lat="39.36991028352344" lon="8.933767920407607"><ele>22.0</ele><time>2026-04-10T18:16:33Z</time></trkpt><trkpt lat="39.36969223484838" lon="8.933958497443381"><ele>22.0</ele><time>2026-04-10T18:16:34Z</time></trkpt><trkpt lat="39.369477802305404" lon="8.93416100608777"><ele>20.0</ele><time>2026-04-10T18:16:35Z</time></trkpt><trkpt lat="39.36927139815426" lon="8.934376759460212"><ele>18.0</ele><time>2026-04-10T18:16:36Z</time></trkpt><trkpt lat="39.36906864671315" lon="8.934597256491468"><ele>18.0</ele><time>2026-04-10T18:16:37Z</time></trkpt><trkpt lat="39.36887244667165" lon="8.934826668775443"><ele>18.0</ele><time>2026-04-10T18:16:38Z</time></trkpt><trkpt lat="39.36867075504653" lon="8.935048584879743"><ele>18.0</ele><time>2026-04-10T18:16:39Z</time></trkpt><trkpt lat="39.36849761849873" lon="8.935311412191073"><ele>18.0</ele><time>2026-04-10T18:16:40Z</time></trkpt><trkpt lat="39.36831951534823" lon="8.935564215420985"><ele>18.0</ele><time>2026-04-10T18:16:41Z</time></trkpt><trkpt lat="39.36814794589204" lon="8.935827209316587"><ele>18.0</ele><time>2026-04-10T18:16:42Z</time></trkpt><trkpt lat="39.36798393614233" lon="8.936099501175764"><ele>19.0</ele><time>2026-04-10T18:16:43Z</time></trkpt><trkpt lat="39.36782443734874" lon="8.936381245383728"><ele>20.0</ele><time>2026-04-10T18:16:44Z</time></trkpt><trkpt lat="39.36767567989883" lon="8.936669184177168"><ele>20.0</ele><time>2026-04-10T18:16:45Z</time></trkpt><trkpt lat="39.367528234560055" lon="8.936961439862253"><ele>20.0</ele><time>2026-04-10T18:16:46Z</time></trkpt><trkpt lat="39.36739189934854" lon="8.937262605091679"><ele>20.0</ele><time>2026-04-10T18:16:47Z</time></trkpt><trkpt lat="39.36726627647139" lon="8.937568569558229"><ele>20.0</ele><time>2026-04-10T18:16:48Z</time></trkpt><trkpt lat="39.36715330802623" lon="8.937884232465851"><ele>20.0</ele><time>2026-04-10T18:16:49Z</time></trkpt><trkpt lat="39.36704898915893" lon="8.938204248151537"><ele>20.0</ele><time>2026-04-10T18:16:50Z</time></trkpt><trkpt lat="39.3669447854705" lon="8.938527881812723"><ele>20.0</ele><time>2026-04-10T18:16:51Z</time></trkpt><trkpt lat="39.366848601129114" lon="8.938844446667575"><ele>20.0</ele><time>2026-04-10T18:16:52Z</time></trkpt><trkpt lat="39.366756837722754" lon="8.93915171962198"><ele>20.0</ele><time>2026-04-10T18:16:53Z</time></trkpt><trkpt lat="39.36666851006305" lon="8.939448152933783"><ele>20.0</ele><time>2026-04-10T18:16:54Z</time></trkpt><trkpt lat="39.36658713061459" lon="8.939732022116974"><ele>20.0</ele><time>2026-04-10T18:16:55Z</time></trkpt><trkpt lat="39.36650820779057" lon="8.940017710446883"><ele>20.0</ele><time>2026-04-10T18:16:56Z</time></trkpt><trkpt lat="39.366428740731116" lon="8.940297631419016"><ele>20.666666666666668</ele><time>2026-04-10T18:16:57Z</time></trkpt><trkpt lat="39.36635164745977" lon="8.940567650815316"><ele>21.333333333333332</ele><time>2026-04-10T18:16:58Z</time></trkpt><trkpt lat="39.366275585437876" lon="8.940825608554606"><ele>22.0</ele><time>2026-04-10T18:16:59Z</time></trkpt><trkpt lat="39.36620140782292" lon="8.94107252129217"><ele>23.333333333333332</ele><time>2026-04-10T18:17:00Z</time></trkpt><trkpt lat="39.366133744294366" lon="8.941309120853761"><ele>24.666666666666664</ele><time>2026-04-10T18:17:01Z</time></trkpt><trkpt lat="39.36606906546746" lon="8.941532666776023"><ele>26.0</ele><time>2026-04-10T18:17:02Z</time></trkpt><trkpt lat="39.36600709665179" lon="8.94174318764239"><ele>26.0</ele><time>2026-04-10T18:17:03Z</time></trkpt><trkpt lat="39.36594724703104" lon="8.941937492834635"><ele>26.0</ele><time>2026-04-10T18:17:04Z</time></trkpt><trkpt lat="39.36589014783124" lon="8.942100880902906"><ele>26.0</ele><time>2026-04-10T18:17:05Z</time></trkpt><trkpt lat="39.36583673435578" lon="8.942224037737269"><ele>26.0</ele><time>2026-04-10T18:17:06Z</time></trkpt><trkpt lat="39.36577943979666" lon="8.942317618516405"><ele>26.0</ele><time>2026-04-10T18:17:07Z</time></trkpt><trkpt lat="39.36568900900846" lon="8.942372804877833"><ele>26.0</ele><time>2026-04-10T18:17:08Z</time></trkpt><trkpt lat="39.365588181412676" lon="8.9424606837353"><ele>26.0</ele><time>2026-04-10T18:17:09Z</time></trkpt><trkpt lat="39.36548823578381" lon="8.942561106874061"><ele>26.0</ele><time>2026-04-10T18:17:10Z</time></trkpt><trkpt lat="39.36536321242164" lon="8.94264880438553"><ele>26.0</ele><time>2026-04-10T18:17:11Z</time></trkpt><trkpt lat="39.3651982923565" lon="8.942699071880526"><ele>26.0</ele><time>2026-04-10T18:17:12Z</time></trkpt><trkpt lat="39.36500573891251" lon="8.942730549285045"><ele>26.0</ele><time>2026-04-10T18:17:13Z</time></trkpt><trkpt lat="39.36480376026686" lon="8.942760856069478"><ele>26.0</ele><time>2026-04-10T18:17:14Z</time></trkpt><trkpt lat="39.3646105167371" lon="8.94279253609781"><ele>26.0</ele><time>2026-04-10T18:17:15Z</time></trkpt><trkpt lat="39.3643895188506" lon="8.942832432349887"><ele>26.0</ele><time>2026-04-10T18:17:16Z</time></trkpt><trkpt lat="39.36415419519983" lon="8.942871616084433"><ele>26.0</ele><time>2026-04-10T18:17:17Z</time></trkpt><trkpt lat="39.36391172785253" lon="8.942910865584611"><ele>26.0</ele><time>2026-04-10T18:17:18Z</time></trkpt><trkpt lat="39.363680565511665" lon="8.942948742320452"><ele>25.0</ele><time>2026-04-10T18:17:19Z</time></trkpt><trkpt lat="39.36343117150811" lon="8.942989825889292"><ele>24.0</ele><time>2026-04-10T18:17:20Z</time></trkpt><trkpt lat="39.363170383495074" lon="8.943032234339132"><ele>24.5</ele><time>2026-04-10T18:17:21Z</time></trkpt><trkpt lat="39.36291576998406" lon="8.94307142709012"><ele>25.0</ele><time>2026-04-10T18:17:22Z</time></trkpt><trkpt lat="39.362665389554074" lon="8.943109814360891"><ele>25.0</ele><time>2026-04-10T18:17:23Z</time></trkpt><trkpt lat="39.362412050971166" lon="8.943148319838604"><ele>25.0</ele><time>2026-04-10T18:17:24Z</time></trkpt><trkpt lat="39.362162019323094" lon="8.943188815775605"><ele>24.5</ele><time>2026-04-10T18:17:25Z</time></trkpt><trkpt lat="39.36191326096173" lon="8.94322815643359"><ele>24.0</ele><time>2026-04-10T18:17:26Z</time></trkpt><trkpt lat="39.36166590008997" lon="8.94326972745018"><ele>24.0</ele><time>2026-04-10T18:17:27Z</time></trkpt><trkpt lat="39.361420262773564" lon="8.943310382922826"><ele>24.0</ele><time>2026-04-10T18:17:28Z</time></trkpt><trkpt lat="39.36117666244824" lon="8.943347644490354"><ele>24.0</ele><time>2026-04-10T18:17:29Z</time></trkpt><trkpt lat="39.360935006761025" lon="8.943385537450114"><ele>24.0</ele><time>2026-04-10T18:17:30Z</time></trkpt><trkpt lat="39.36069545856352" lon="8.94342132876156"><ele>24.0</ele><time>2026-04-10T18:17:31Z</time></trkpt><trkpt lat="39.360457588780015" lon="8.943458055406776"><ele>24.0</ele><time>2026-04-10T18:17:32Z</time></trkpt><trkpt lat="39.360220483245136" lon="8.943493073352856"><ele>24.0</ele><time>2026-04-10T18:17:33Z</time></trkpt><trkpt lat="39.359984465715584" lon="8.943529318518637"><ele>24.0</ele><time>2026-04-10T18:17:34Z</time></trkpt><trkpt lat="39.35974929737839" lon="8.943565171210873"><ele>24.0</ele><time>2026-04-10T18:17:35Z</time></trkpt><trkpt lat="39.35951213327502" lon="8.94360223924374"><ele>24.0</ele><time>2026-04-10T18:17:36Z</time></trkpt><trkpt lat="39.35927387747344" lon="8.943638820985655"><ele>24.0</ele><time>2026-04-10T18:17:37Z</time></trkpt><trkpt lat="39.359035445234504" lon="8.943675861406854"><ele>24.0</ele><time>2026-04-10T18:17:38Z</time></trkpt><trkpt lat="39.35879762678479" lon="8.943711675974065"><ele>24.0</ele><time>2026-04-10T18:17:39Z</time></trkpt><trkpt lat="39.35855761478223" lon="8.943748067589187"><ele>24.0</ele><time>2026-04-10T18:17:40Z</time></trkpt><trkpt lat="39.358315981923965" lon="8.943786324615346"><ele>24.0</ele><time>2026-04-10T18:17:41Z</time></trkpt><trkpt lat="39.35807339775282" lon="8.943823037816859"><ele>24.0</ele><time>2026-04-10T18:17:42Z</time></trkpt><trkpt lat="39.35783398129646" lon="8.943860481501838"><ele>24.0</ele><time>2026-04-10T18:17:43Z</time></trkpt><trkpt lat="39.35759163918483" lon="8.943898031268688"><ele>24.0</ele><time>2026-04-10T18:17:44Z</time></trkpt><trkpt lat="39.357349116101936" lon="8.943936900844067"><ele>23.5</ele><time>2026-04-10T18:17:45Z</time></trkpt><trkpt lat="39.357111048532715" lon="8.943977691808438"><ele>23.0</ele><time>2026-04-10T18:17:46Z</time></trkpt><trkpt lat="39.356866223554746" lon="8.944013194613902"><ele>23.0</ele><time>2026-04-10T18:17:47Z</time></trkpt><trkpt lat="39.35662692907119" lon="8.944050838029389"><ele>23.0</ele><time>2026-04-10T18:17:48Z</time></trkpt><trkpt lat="39.35638587062955" lon="8.94408833452983"><ele>22.5</ele><time>2026-04-10T18:17:49Z</time></trkpt><trkpt lat="39.356143334934615" lon="8.944126556312625"><ele>22.0</ele><time>2026-04-10T18:17:50Z</time></trkpt><trkpt lat="39.355898268243465" lon="8.944165395967882"><ele>22.0</ele><time>2026-04-10T18:17:51Z</time></trkpt><trkpt lat="39.355654135804095" lon="8.944201376716919"><ele>22.0</ele><time>2026-04-10T18:17:52Z</time></trkpt><trkpt lat="39.35540784953515" lon="8.944238932745334"><ele>23.0</ele><time>2026-04-10T18:17:53Z</time></trkpt><trkpt lat="39.35516150034208" lon="8.94427660603743"><ele>24.0</ele><time>2026-04-10T18:17:54Z</time></trkpt><trkpt lat="39.35491275981657" lon="8.944313738096218"><ele>23.5</ele><time>2026-04-10T18:17:55Z</time></trkpt><trkpt lat="39.35466381452483" lon="8.944352680407064"><ele>23.0</ele><time>2026-04-10T18:17:56Z</time></trkpt><trkpt lat="39.354414795391165" lon="8.944391131384238"><ele>23.0</ele><time>2026-04-10T18:17:57Z</time></trkpt><trkpt lat="39.35416663095558" lon="8.94443096111008"><ele>23.0</ele><time>2026-04-10T18:17:58Z</time></trkpt><trkpt lat="39.3539190925962" lon="8.944468885469668"><ele>23.0</ele><time>2026-04-10T18:17:59Z</time></trkpt><trkpt lat="39.35367393467905" lon="8.944506807896598"><ele>23.0</ele><time>2026-04-10T18:18:00Z</time></trkpt><trkpt lat="39.35342753113595" lon="8.944544123701299"><ele>23.0</ele><time>2026-04-10T18:18:01Z</time></trkpt><trkpt lat="39.353183700493716" lon="8.944579417679405"><ele>23.0</ele><time>2026-04-10T18:18:02Z</time></trkpt><trkpt lat="39.35293895744152" lon="8.944611967139371"><ele>22.5</ele><time>2026-04-10T18:18:03Z</time></trkpt><trkpt lat="39.35269681952717" lon="8.944645724329021"><ele>22.0</ele><time>2026-04-10T18:18:04Z</time></trkpt><trkpt lat="39.35245496765587" lon="8.944684753805674"><ele>22.0</ele><time>2026-04-10T18:18:05Z</time></trkpt><trkpt lat="39.35221258271579" lon="8.944732864406777"><ele>22.0</ele><time>2026-04-10T18:18:06Z</time></trkpt><trkpt lat="39.35197377302622" lon="8.944792128430356"><ele>21.5</ele><time>2026-04-10T18:18:07Z</time></trkpt><trkpt lat="39.3517350060085" lon="8.944858826073322"><ele>21.0</ele><time>2026-04-10T18:18:08Z</time></trkpt><trkpt lat="39.351495576455406" lon="8.944925180585031"><ele>21.0</ele><time>2026-04-10T18:18:09Z</time></trkpt><trkpt lat="39.3512570675661" lon="8.944994985775281"><ele>21.0</ele><time>2026-04-10T18:18:10Z</time></trkpt><trkpt lat="39.35101946733224" lon="8.945067629573295"><ele>21.0</ele><time>2026-04-10T18:18:11Z</time></trkpt><trkpt lat="39.35078180435235" lon="8.94514914959333"><ele>21.0</ele><time>2026-04-10T18:18:12Z</time></trkpt><trkpt lat="39.35054582095251" lon="8.945239479428961"><ele>21.0</ele><time>2026-04-10T18:18:13Z</time></trkpt><trkpt lat="39.35030768214745" lon="8.945337790169551"><ele>21.0</ele><time>2026-04-10T18:18:14Z</time></trkpt><trkpt lat="39.35007423822864" lon="8.945445593949023"><ele>21.0</ele><time>2026-04-10T18:18:15Z</time></trkpt><trkpt lat="39.34983803088773" lon="8.945554627179165"><ele>21.0</ele><time>2026-04-10T18:18:16Z</time></trkpt><trkpt lat="39.34960180590625" lon="8.945670781018551"><ele>20.5</ele><time>2026-04-10T18:18:17Z</time></trkpt><trkpt lat="39.349367837536086" lon="8.945790613594504"><ele>20.0</ele><time>2026-04-10T18:18:18Z</time></trkpt><trkpt lat="39.349134417521505" lon="8.945912652453748"><ele>20.0</ele><time>2026-04-10T18:18:19Z</time></trkpt><trkpt lat="39.34889665317371" lon="8.946041644367536"><ele>20.0</ele><time>2026-04-10T18:18:20Z</time></trkpt><trkpt lat="39.3486622565741" lon="8.946167931381275"><ele>19.0</ele><time>2026-04-10T18:18:21Z</time></trkpt><trkpt lat="39.348427559213434" lon="8.946294965787514"><ele>18.0</ele><time>2026-04-10T18:18:22Z</time></trkpt><trkpt lat="39.348190542729085" lon="8.946421897085628"><ele>17.5</ele><time>2026-04-10T18:18:23Z</time></trkpt><trkpt lat="39.34795590991705" lon="8.946548436383702"><ele>17.0</ele><time>2026-04-10T18:18:24Z</time></trkpt><trkpt lat="39.347719456416215" lon="8.946677454581428"><ele>17.0</ele><time>2026-04-10T18:18:25Z</time></trkpt><trkpt lat="39.347483783769924" lon="8.946805715437844"><ele>17.0</ele><time>2026-04-10T18:18:26Z</time></trkpt><trkpt lat="39.34725041401863" lon="8.946934179790539"><ele>16.5</ele><time>2026-04-10T18:18:27Z</time></trkpt><trkpt lat="39.34701506119797" lon="8.94706409742976"><ele>16.0</ele><time>2026-04-10T18:18:28Z</time></trkpt><trkpt lat="39.346781424839726" lon="8.947190736247464"><ele>16.0</ele><time>2026-04-10T18:18:29Z</time></trkpt><trkpt lat="39.34654488318732" lon="8.947316993407968"><ele>16.0</ele><time>2026-04-10T18:18:30Z</time></trkpt><trkpt lat="39.34630894607034" lon="8.947442857292248"><ele>17.0</ele><time>2026-04-10T18:18:31Z</time></trkpt><trkpt lat="39.34607287418068" lon="8.947572451682818"><ele>18.0</ele><time>2026-04-10T18:18:32Z</time></trkpt><trkpt lat="39.345836862932174" lon="8.947703351441403"><ele>18.0</ele><time>2026-04-10T18:18:33Z</time></trkpt><trkpt lat="39.34560209174982" lon="8.9478342031208"><ele>18.0</ele><time>2026-04-10T18:18:34Z</time></trkpt><trkpt lat="39.345364762538495" lon="8.947961237837998"><ele>19.0</ele><time>2026-04-10T18:18:35Z</time></trkpt><trkpt lat="39.34512788773036" lon="8.948088284575922"><ele>20.0</ele><time>2026-04-10T18:18:36Z</time></trkpt><trkpt lat="39.34489094274707" lon="8.948215191502351"><ele>19.5</ele><time>2026-04-10T18:18:37Z</time></trkpt><trkpt lat="39.34465292034561" lon="8.948343435107349"><ele>19.0</ele><time>2026-04-10T18:18:38Z</time></trkpt><trkpt lat="39.34441664501855" lon="8.948473193101306"><ele>19.0</ele><time>2026-04-10T18:18:39Z</time></trkpt><trkpt lat="39.344176570345944" lon="8.948603692125223"><ele>19.0</ele><time>2026-04-10T18:18:40Z</time></trkpt><trkpt lat="39.343938510905204" lon="8.948727725236132"><ele>18.0</ele><time>2026-04-10T18:18:41Z</time></trkpt><trkpt lat="39.343700490117584" lon="8.94885495690233"><ele>17.0</ele><time>2026-04-10T18:18:42Z</time></trkpt><trkpt lat="39.34346169472066" lon="8.948983650504479"><ele>17.0</ele><time>2026-04-10T18:18:43Z</time></trkpt><trkpt lat="39.34322213520292" lon="8.949114437608005"><ele>17.0</ele><time>2026-04-10T18:18:44Z</time></trkpt><trkpt lat="39.34298429132462" lon="8.949241285479081"><ele>17.5</ele><time>2026-04-10T18:18:45Z</time></trkpt><trkpt lat="39.34275404947603" lon="8.949369310588308"><ele>18.0</ele><time>2026-04-10T18:18:46Z</time></trkpt><trkpt lat="39.342529359344205" lon="8.949490145965871"><ele>18.0</ele><time>2026-04-10T18:18:47Z</time></trkpt><trkpt lat="39.342304004577976" lon="8.94961164457155"><ele>18.0</ele><time>2026-04-10T18:18:48Z</time></trkpt><trkpt lat="39.342081245496615" lon="8.949732982326163"><ele>17.0</ele><time>2026-04-10T18:18:49Z</time></trkpt><trkpt lat="39.34186052507179" lon="8.949851686888392"><ele>16.0</ele><time>2026-04-10T18:18:50Z</time></trkpt><trkpt lat="39.34164188230358" lon="8.949971312907955"><ele>16.0</ele><time>2026-04-10T18:18:51Z</time></trkpt><trkpt lat="39.34142308135486" lon="8.950087837917321"><ele>16.0</ele><time>2026-04-10T18:18:52Z</time></trkpt><trkpt lat="39.34120343964723" lon="8.950205859647589"><ele>16.0</ele><time>2026-04-10T18:18:53Z</time></trkpt><trkpt lat="39.34098863905826" lon="8.950324299385144"><ele>16.0</ele><time>2026-04-10T18:18:54Z</time></trkpt><trkpt lat="39.34077755157617" lon="8.950440405728894"><ele>16.0</ele><time>2026-04-10T18:18:55Z</time></trkpt><trkpt lat="39.34056907597141" lon="8.950552835687924"><ele>16.0</ele><time>2026-04-10T18:18:56Z</time></trkpt><trkpt lat="39.340359608751925" lon="8.950661496434416"><ele>16.0</ele><time>2026-04-10T18:18:57Z</time></trkpt><trkpt lat="39.34014409266681" lon="8.950775007197773"><ele>16.0</ele><time>2026-04-10T18:18:58Z</time></trkpt><trkpt lat="39.339920843333665" lon="8.950891937330981"><ele>16.0</ele><time>2026-04-10T18:18:59Z</time></trkpt><trkpt lat="39.339691107649976" lon="8.951017361963828"><ele>16.0</ele><time>2026-04-10T18:19:00Z</time></trkpt><trkpt lat="39.33945553008731" lon="8.951144561168167"><ele>16.0</ele><time>2026-04-10T18:19:01Z</time></trkpt><trkpt lat="39.339216477555034" lon="8.951273606763898"><ele>16.0</ele><time>2026-04-10T18:19:02Z</time></trkpt><trkpt lat="39.338975727280264" lon="8.951404211966885"><ele>16.0</ele><time>2026-04-10T18:19:03Z</time></trkpt><trkpt lat="39.33873135443547" lon="8.951535171760131"><ele>16.0</ele><time>2026-04-10T18:19:04Z</time></trkpt><trkpt lat="39.33849028909142" lon="8.951663803864745"><ele>15.5</ele><time>2026-04-10T18:19:05Z</time></trkpt><trkpt lat="39.3382490427591" lon="8.951791460066898"><ele>15.0</ele><time>2026-04-10T18:19:06Z</time></trkpt><trkpt lat="39.33801187750983" lon="8.951918768332542"><ele>15.0</ele><time>2026-04-10T18:19:07Z</time></trkpt><trkpt lat="39.33777497766191" lon="8.952047374773533"><ele>15.0</ele><time>2026-04-10T18:19:08Z</time></trkpt><trkpt lat="39.337542156078605" lon="8.952173260142528"><ele>15.0</ele><time>2026-04-10T18:19:09Z</time></trkpt><trkpt lat="39.33731725053153" lon="8.952294754634165"><ele>15.0</ele><time>2026-04-10T18:19:10Z</time></trkpt><trkpt lat="39.33708870330884" lon="8.952415924127376"><ele>15.0</ele><time>2026-04-10T18:19:11Z</time></trkpt><trkpt lat="39.336863561092166" lon="8.952536366349158"><ele>15.0</ele><time>2026-04-10T18:19:12Z</time></trkpt><trkpt lat="39.33663939452119" lon="8.952657559831597"><ele>15.5</ele><time>2026-04-10T18:19:13Z</time></trkpt><trkpt lat="39.336417990816734" lon="8.952778476754993"><ele>16.0</ele><time>2026-04-10T18:19:14Z</time></trkpt><trkpt lat="39.336193953134625" lon="8.952896574806802"><ele>16.0</ele><time>2026-04-10T18:19:15Z</time></trkpt><trkpt lat="39.335967991108994" lon="8.953018374430728"><ele>16.0</ele><time>2026-04-10T18:19:16Z</time></trkpt><trkpt lat="39.33573989410748" lon="8.953141894293008"><ele>15.5</ele><time>2026-04-10T18:19:17Z</time></trkpt><trkpt lat="39.33551482309407" lon="8.95326199275314"><ele>15.0</ele><time>2026-04-10T18:19:18Z</time></trkpt><trkpt lat="39.33529352596021" lon="8.95338403627501"><ele>15.0</ele><time>2026-04-10T18:19:19Z</time></trkpt><trkpt lat="39.33508008407584" lon="8.953500855945212"><ele>15.0</ele><time>2026-04-10T18:19:20Z</time></trkpt><trkpt lat="39.33487313286053" lon="8.953611974704938"><ele>15.0</ele><time>2026-04-10T18:19:21Z</time></trkpt><trkpt lat="39.33467417516281" lon="8.9537215013603"><ele>15.0</ele><time>2026-04-10T18:19:22Z</time></trkpt><trkpt lat="39.33447800487474" lon="8.953828560731056"><ele>15.0</ele><time>2026-04-10T18:19:23Z</time></trkpt><trkpt lat="39.33428797437917" lon="8.953932154222825"><ele>15.0</ele><time>2026-04-10T18:19:24Z</time></trkpt><trkpt lat="39.33410876460143" lon="8.954029119183538"><ele>15.0</ele><time>2026-04-10T18:19:25Z</time></trkpt><trkpt lat="39.33394342043179" lon="8.954120317046005"><ele>15.0</ele><time>2026-04-10T18:19:26Z</time></trkpt><trkpt lat="39.3337847371941" lon="8.95421276167694"><ele>15.0</ele><time>2026-04-10T18:19:27Z</time></trkpt><trkpt lat="39.33362563460703" lon="8.95430655717185"><ele>15.0</ele><time>2026-04-10T18:19:28Z</time></trkpt><trkpt lat="39.33345019076083" lon="8.954419306688605"><ele>15.0</ele><time>2026-04-10T18:19:29Z</time></trkpt><trkpt lat="39.33326446716394" lon="8.954540331108067"><ele>15.0</ele><time>2026-04-10T18:19:30Z</time></trkpt><trkpt lat="39.33306412968006" lon="8.954676404820418"><ele>15.0</ele><time>2026-04-10T18:19:31Z</time></trkpt><trkpt lat="39.33285010400239" lon="8.95482042603314"><ele>15.5</ele><time>2026-04-10T18:19:32Z</time></trkpt><trkpt lat="39.33263480899181" lon="8.954966672526774"><ele>16.0</ele><time>2026-04-10T18:19:33Z</time></trkpt><trkpt lat="39.332421096540806" lon="8.955111388292165"><ele>15.0</ele><time>2026-04-10T18:19:34Z</time></trkpt><trkpt lat="39.332211281279314" lon="8.955254736700079"><ele>14.0</ele><time>2026-04-10T18:19:35Z</time></trkpt><trkpt lat="39.33200277535966" lon="8.955399452708628"><ele>14.0</ele><time>2026-04-10T18:19:36Z</time></trkpt><trkpt lat="39.33179529612118" lon="8.9555447312851"><ele>14.0</ele><time>2026-04-10T18:19:37Z</time></trkpt><trkpt lat="39.331588719270236" lon="8.955693818993467"><ele>14.0</ele><time>2026-04-10T18:19:38Z</time></trkpt><trkpt lat="39.33138527770317" lon="8.955844377779622"><ele>14.0</ele><time>2026-04-10T18:19:39Z</time></trkpt><trkpt lat="39.33118093861143" lon="8.955998301883879"><ele>14.0</ele><time>2026-04-10T18:19:40Z</time></trkpt><trkpt lat="39.33098023433907" lon="8.95614958195886"><ele>14.0</ele><time>2026-04-10T18:19:41Z</time></trkpt><trkpt lat="39.33077918700835" lon="8.956305856206999"><ele>14.0</ele><time>2026-04-10T18:19:42Z</time></trkpt><trkpt lat="39.33058168553982" lon="8.956463089601687"><ele>14.0</ele><time>2026-04-10T18:19:43Z</time></trkpt><trkpt lat="39.33038520592136" lon="8.956619985185752"><ele>13.5</ele><time>2026-04-10T18:19:44Z</time></trkpt><trkpt lat="39.330189685973906" lon="8.95677850611373"><ele>13.0</ele><time>2026-04-10T18:19:45Z</time></trkpt><trkpt lat="39.329996876043474" lon="8.956938460967013"><ele>13.0</ele><time>2026-04-10T18:19:46Z</time></trkpt><trkpt lat="39.329805114469096" lon="8.957100545576859"><ele>13.0</ele><time>2026-04-10T18:19:47Z</time></trkpt><trkpt lat="39.32961314895358" lon="8.957258332874659"><ele>13.0</ele><time>2026-04-10T18:19:48Z</time></trkpt><trkpt lat="39.32942218985708" lon="8.957417491578015"><ele>13.0</ele><time>2026-04-10T18:19:49Z</time></trkpt><trkpt lat="39.32922751933589" lon="8.957578251603701"><ele>13.5</ele><time>2026-04-10T18:19:50Z</time></trkpt><trkpt lat="39.32903651304435" lon="8.957739986206152"><ele>14.0</ele><time>2026-04-10T18:19:51Z</time></trkpt><trkpt lat="39.32884784397279" lon="8.957904152851627"><ele>14.0</ele><time>2026-04-10T18:19:52Z</time></trkpt><trkpt lat="39.328660945090306" lon="8.958070312986461"><ele>14.0</ele><time>2026-04-10T18:19:53Z</time></trkpt><trkpt lat="39.32847458372719" lon="8.958239582292162"><ele>13.5</ele><time>2026-04-10T18:19:54Z</time></trkpt><trkpt lat="39.32828952474325" lon="8.958411569897455"><ele>13.0</ele><time>2026-04-10T18:19:55Z</time></trkpt><trkpt lat="39.32809979662211" lon="8.958585289726392"><ele>13.0</ele><time>2026-04-10T18:19:56Z</time></trkpt><trkpt lat="39.32790201203244" lon="8.958765124238305"><ele>13.0</ele><time>2026-04-10T18:19:57Z</time></trkpt><trkpt lat="39.327718225100085" lon="8.958935518991984"><ele>13.0</ele><time>2026-04-10T18:19:58Z</time></trkpt><trkpt lat="39.32755039023778" lon="8.959093951293573"><ele>13.0</ele><time>2026-04-10T18:19:59Z</time></trkpt><trkpt lat="39.32739515070773" lon="8.95925010297318"><ele>13.0</ele><time>2026-04-10T18:20:00Z</time></trkpt><trkpt lat="39.32724038432766" lon="8.959407332652377"><ele>12.666666666666666</ele><time>2026-04-10T18:20:01Z</time></trkpt><trkpt lat="39.32706899263927" lon="8.959548346469578"><ele>12.333333333333332</ele><time>2026-04-10T18:20:02Z</time></trkpt><trkpt lat="39.32689575534522" lon="8.959703846649155"><ele>12.0</ele><time>2026-04-10T18:20:03Z</time></trkpt><trkpt lat="39.32671750836549" lon="8.959865183195213"><ele>13.0</ele><time>2026-04-10T18:20:04Z</time></trkpt><trkpt lat="39.32653884169057" lon="8.960037902216616"><ele>14.0</ele><time>2026-04-10T18:20:05Z</time></trkpt><trkpt lat="39.32634722494338" lon="8.960199198627613"><ele>14.333333333333334</ele><time>2026-04-10T18:20:06Z</time></trkpt><trkpt lat="39.32616641895493" lon="8.96036014446303"><ele>14.666666666666668</ele><time>2026-04-10T18:20:07Z</time></trkpt><trkpt lat="39.32598533620574" lon="8.960528067787992"><ele>15.0</ele><time>2026-04-10T18:20:08Z</time></trkpt><trkpt lat="39.32580720003004" lon="8.960692754945272"><ele>15.0</ele><time>2026-04-10T18:20:09Z</time></trkpt><trkpt lat="39.32563191267113" lon="8.960851188947249"><ele>15.0</ele><time>2026-04-10T18:20:10Z</time></trkpt><trkpt lat="39.325452263569325" lon="8.961013666987778"><ele>15.0</ele><time>2026-04-10T18:20:11Z</time></trkpt><trkpt lat="39.325272644067695" lon="8.961174457565424"><ele>15.333333333333332</ele><time>2026-04-10T18:20:12Z</time></trkpt><trkpt lat="39.325104030870726" lon="8.9613151786317"><ele>15.666666666666666</ele><time>2026-04-10T18:20:13Z</time></trkpt><trkpt lat="39.32493536790417" lon="8.96143282871657"><ele>16.0</ele><time>2026-04-10T18:20:14Z</time></trkpt><trkpt lat="39.324750701328576" lon="8.961533645516438"><ele>15.0</ele><time>2026-04-10T18:20:15Z</time></trkpt><trkpt lat="39.32455386698561" lon="8.961604425268842"><ele>14.0</ele><time>2026-04-10T18:20:16Z</time></trkpt><trkpt lat="39.324346884707005" lon="8.96165101082715"><ele>13.0</ele><time>2026-04-10T18:20:17Z</time></trkpt><trkpt lat="39.324134329555086" lon="8.961662391903593"><ele>13.0</ele><time>2026-04-10T18:20:18Z</time></trkpt><trkpt lat="39.323931136530256" lon="8.961645599551067"><ele>13.0</ele><time>2026-04-10T18:20:19Z</time></trkpt><trkpt lat="39.32372632379026" lon="8.961586459199133"><ele>13.0</ele><time>2026-04-10T18:20:20Z</time></trkpt><trkpt lat="39.323512300363774" lon="8.961510726697286"><ele>12.5</ele><time>2026-04-10T18:20:21Z</time></trkpt><trkpt lat="39.32329342936067" lon="8.96143021984432"><ele>12.0</ele><time>2026-04-10T18:20:22Z</time></trkpt><trkpt lat="39.32306312177709" lon="8.961338517395218"><ele>12.0</ele><time>2026-04-10T18:20:23Z</time></trkpt><trkpt lat="39.322831935319556" lon="8.961251599813135"><ele>12.0</ele><time>2026-04-10T18:20:24Z</time></trkpt><trkpt lat="39.32259460436328" lon="8.96116784262923"><ele>12.0</ele><time>2026-04-10T18:20:25Z</time></trkpt><trkpt lat="39.3223570978615" lon="8.96108038963288"><ele>12.0</ele><time>2026-04-10T18:20:26Z</time></trkpt><trkpt lat="39.32211647334255" lon="8.960988211314488"><ele>11.5</ele><time>2026-04-10T18:20:27Z</time></trkpt><trkpt lat="39.32187548164193" lon="8.960896799838185"><ele>11.0</ele><time>2026-04-10T18:20:28Z</time></trkpt><trkpt lat="39.32163312211683" lon="8.960806215729484"><ele>11.5</ele><time>2026-04-10T18:20:29Z</time></trkpt><trkpt lat="39.321391565789675" lon="8.960717643339565"><ele>12.0</ele><time>2026-04-10T18:20:30Z</time></trkpt><trkpt lat="39.321146072059136" lon="8.960627532405068"><ele>12.0</ele><time>2026-04-10T18:20:31Z</time></trkpt><trkpt lat="39.32089963664378" lon="8.960538161988502"><ele>12.0</ele><time>2026-04-10T18:20:32Z</time></trkpt><trkpt lat="39.32065325034454" lon="8.960453934638227"><ele>12.5</ele><time>2026-04-10T18:20:33Z</time></trkpt><trkpt lat="39.32040525105892" lon="8.960380147669209"><ele>13.0</ele><time>2026-04-10T18:20:34Z</time></trkpt><trkpt lat="39.320155575985844" lon="8.960313073971765"><ele>13.0</ele><time>2026-04-10T18:20:35Z</time></trkpt><trkpt lat="39.319905534922746" lon="8.960252196243264"><ele>13.0</ele><time>2026-04-10T18:20:36Z</time></trkpt><trkpt lat="39.319654013823936" lon="8.960192820664034"><ele>13.0</ele><time>2026-04-10T18:20:37Z</time></trkpt><trkpt lat="39.31940234050331" lon="8.960135658378455"><ele>13.0</ele><time>2026-04-10T18:20:38Z</time></trkpt><trkpt lat="39.31915010693244" lon="8.960077350860347"><ele>11.0</ele><time>2026-04-10T18:20:39Z</time></trkpt><trkpt lat="39.31889797676702" lon="8.960014911436177"><ele>9.0</ele><time>2026-04-10T18:20:40Z</time></trkpt><trkpt lat="39.31864370869991" lon="8.959952679534076"><ele>9.0</ele><time>2026-04-10T18:20:41Z</time></trkpt><trkpt lat="39.31839199387589" lon="8.95989015149395"><ele>9.0</ele><time>2026-04-10T18:20:42Z</time></trkpt><trkpt lat="39.31813929949176" lon="8.959831210727044"><ele>10.5</ele><time>2026-04-10T18:20:43Z</time></trkpt><trkpt lat="39.31789457728626" lon="8.959772326311171"><ele>12.0</ele><time>2026-04-10T18:20:44Z</time></trkpt><trkpt lat="39.31766347034556" lon="8.95972138611353"><ele>12.0</ele><time>2026-04-10T18:20:45Z</time></trkpt><trkpt lat="39.3174451027241" lon="8.95967343980794"><ele>12.0</ele><time>2026-04-10T18:20:46Z</time></trkpt><trkpt lat="39.31723985466272" lon="8.95962400337784"><ele>12.0</ele><time>2026-04-10T18:20:47Z</time></trkpt><trkpt lat="39.31704006554549" lon="8.959578301483655"><ele>11.666666666666666</ele><time>2026-04-10T18:20:48Z</time></trkpt><trkpt lat="39.316839762616524" lon="8.959530212396418"><ele>11.333333333333332</ele><time>2026-04-10T18:20:49Z</time></trkpt><trkpt lat="39.31663337077737" lon="8.959487484257192"><ele>11.0</ele><time>2026-04-10T18:20:50Z</time></trkpt><trkpt lat="39.316430213309964" lon="8.959433395378031"><ele>10.0</ele><time>2026-04-10T18:20:51Z</time></trkpt><trkpt lat="39.31622852401933" lon="8.95938354660822"><ele>9.0</ele><time>2026-04-10T18:20:52Z</time></trkpt><trkpt lat="39.31602614241664" lon="8.959333955169756"><ele>8.0</ele><time>2026-04-10T18:20:53Z</time></trkpt><trkpt lat="39.31582688187185" lon="8.959297861843886"><ele>8.0</ele><time>2026-04-10T18:20:54Z</time></trkpt><trkpt lat="39.31562868810645" lon="8.95925181503044"><ele>8.0</ele><time>2026-04-10T18:20:55Z</time></trkpt><trkpt lat="39.31543248348739" lon="8.959199076392457"><ele>8.0</ele><time>2026-04-10T18:20:56Z</time></trkpt><trkpt lat="39.3152326638895" lon="8.959155090097198"><ele>8.0</ele><time>2026-04-10T18:20:57Z</time></trkpt><trkpt lat="39.31503734647902" lon="8.959108598392499"><ele>8.0</ele><time>2026-04-10T18:20:58Z</time></trkpt><trkpt lat="39.31484312932742" lon="8.959065002681047"><ele>8.0</ele><time>2026-04-10T18:20:59Z</time></trkpt><trkpt lat="39.31465943555865" lon="8.959025214871069"><ele>8.0</ele><time>2026-04-10T18:21:00Z</time></trkpt><trkpt lat="39.31448024018202" lon="8.958979970367741"><ele>8.0</ele><time>2026-04-10T18:21:01Z</time></trkpt><trkpt lat="39.314298297063" lon="8.95893871523787"><ele>8.0</ele><time>2026-04-10T18:21:02Z</time></trkpt><trkpt lat="39.314113743673666" lon="8.958897244266831"><ele>8.0</ele><time>2026-04-10T18:21:03Z</time></trkpt><trkpt lat="39.31392529993333" lon="8.958857815991452"><ele>8.0</ele><time>2026-04-10T18:21:04Z</time></trkpt><trkpt lat="39.313734986337" lon="8.958812445207695"><ele>8.0</ele><time>2026-04-10T18:21:05Z</time></trkpt><trkpt lat="39.31354181013911" lon="8.958766632752225"><ele>8.0</ele><time>2026-04-10T18:21:06Z</time></trkpt><trkpt lat="39.31334479782317" lon="8.958718742856465"><ele>8.0</ele><time>2026-04-10T18:21:07Z</time></trkpt><trkpt lat="39.31313911024187" lon="8.958669513354419"><ele>8.0</ele><time>2026-04-10T18:21:08Z</time></trkpt><trkpt lat="39.31292730155389" lon="8.958617359830335"><ele>8.0</ele><time>2026-04-10T18:21:09Z</time></trkpt><trkpt lat="39.312716490838255" lon="8.958567346124616"><ele>8.0</ele><time>2026-04-10T18:21:10Z</time></trkpt><trkpt lat="39.3125006745367" lon="8.958518499988251"><ele>8.0</ele><time>2026-04-10T18:21:11Z</time></trkpt><trkpt lat="39.31227781250288" lon="8.95846903888855"><ele>8.5</ele><time>2026-04-10T18:21:12Z</time></trkpt><trkpt lat="39.3120422758641" lon="8.958416342053868"><ele>9.0</ele><time>2026-04-10T18:21:13Z</time></trkpt><trkpt lat="39.3118105648169" lon="8.958365276357233"><ele>9.0</ele><time>2026-04-10T18:21:14Z</time></trkpt><trkpt lat="39.31158442956395" lon="8.958313356962112"><ele>9.0</ele><time>2026-04-10T18:21:15Z</time></trkpt><trkpt lat="39.311372021043745" lon="8.958256706305871"><ele>9.0</ele><time>2026-04-10T18:21:16Z</time></trkpt><trkpt lat="39.31117057235079" lon="8.958210426566326"><ele>9.666666666666666</ele><time>2026-04-10T18:21:17Z</time></trkpt><trkpt lat="39.31097848657438" lon="8.958164038174687"><ele>10.333333333333332</ele><time>2026-04-10T18:21:18Z</time></trkpt><trkpt lat="39.31079118592487" lon="8.958122596570119"><ele>11.0</ele><time>2026-04-10T18:21:19Z</time></trkpt><trkpt lat="39.31061633963224" lon="8.95808272773819"><ele>11.0</ele><time>2026-04-10T18:21:20Z</time></trkpt><trkpt lat="39.31045158441606" lon="8.958052002022379"><ele>11.0</ele><time>2026-04-10T18:21:21Z</time></trkpt><trkpt lat="39.31029445750117" lon="8.958033318328223"><ele>11.0</ele><time>2026-04-10T18:21:22Z</time></trkpt><trkpt lat="39.31014076610071" lon="8.958024151441085"><ele>11.0</ele><time>2026-04-10T18:21:23Z</time></trkpt><trkpt lat="39.30999541528765" lon="8.958031756233055"><ele>11.0</ele><time>2026-04-10T18:21:24Z</time></trkpt><trkpt lat="39.30986189462068" lon="8.958047875264901"><ele>11.0</ele><time>2026-04-10T18:21:25Z</time></trkpt><trkpt lat="39.30973609851084" lon="8.958065882958861"><ele>11.0</ele><time>2026-04-10T18:21:26Z</time></trkpt><trkpt lat="39.30962776661803" lon="8.958089657132835"><ele>10.75</ele><time>2026-04-10T18:21:27Z</time></trkpt><trkpt lat="39.30950974126471" lon="8.958121336704764"><ele>10.5</ele><time>2026-04-10T18:21:28Z</time></trkpt><trkpt lat="39.309387631743526" lon="8.958169153877208"><ele>10.25</ele><time>2026-04-10T18:21:29Z</time></trkpt><trkpt lat="39.309256048759515" lon="8.9582187586985"><ele>10.0</ele><time>2026-04-10T18:21:30Z</time></trkpt><trkpt lat="39.30912494671971" lon="8.958266473892557"><ele>10.0</ele><time>2026-04-10T18:21:31Z</time></trkpt><trkpt lat="39.30900309456431" lon="8.95830535732002"><ele>10.0</ele><time>2026-04-10T18:21:32Z</time></trkpt><trkpt lat="39.308893620184485" lon="8.958341026076766"><ele>10.0</ele><time>2026-04-10T18:21:33Z</time></trkpt><trkpt lat="39.308804273574616" lon="8.958375540520475"><ele>10.0</ele><time>2026-04-10T18:21:34Z</time></trkpt><trkpt lat="39.308739756758264" lon="8.958419466759052"><ele>10.0</ele><time>2026-04-10T18:21:35Z</time></trkpt><trkpt lat="39.30868562445992" lon="8.958574424623194"><ele>9.75</ele><time>2026-04-10T18:21:37Z</time></trkpt><trkpt lat="39.30870005791831" lon="8.958702936299982"><ele>9.5</ele><time>2026-04-10T18:21:38Z</time></trkpt><trkpt lat="39.308729319034654" lon="8.958853813263385"><ele>9.25</ele><time>2026-04-10T18:21:39Z</time></trkpt><trkpt lat="39.308775021625245" lon="8.95903840947313"><ele>9.0</ele><time>2026-04-10T18:21:40Z</time></trkpt><trkpt lat="39.308820647754544" lon="8.959225885574506"><ele>9.0</ele><time>2026-04-10T18:21:41Z</time></trkpt><trkpt lat="39.30886361868972" lon="8.959412753676197"><ele>9.0</ele><time>2026-04-10T18:21:42Z</time></trkpt><trkpt lat="39.308907848056215" lon="8.959595126721256"><ele>9.0</ele><time>2026-04-10T18:21:43Z</time></trkpt><trkpt lat="39.30894926206867" lon="8.959775678718087"><ele>9.0</ele><time>2026-04-10T18:21:44Z</time></trkpt><trkpt lat="39.308987990143194" lon="8.959938531985893"><ele>8.8</ele><time>2026-04-10T18:21:45Z</time></trkpt><trkpt lat="39.30902259773776" lon="8.960087503641585"><ele>8.600000000000001</ele><time>2026-04-10T18:21:46Z</time></trkpt><trkpt lat="39.30905454642304" lon="8.9602244815901"><ele>8.4</ele><time>2026-04-10T18:21:47Z</time></trkpt><trkpt lat="39.3090856261846" lon="8.96035088371569"><ele>8.200000000000001</ele><time>2026-04-10T18:21:48Z</time></trkpt><trkpt lat="39.30911182038824" lon="8.960462642297058"><ele>8.0</ele><time>2026-04-10T18:21:49Z</time></trkpt><trkpt lat="39.30912688059842" lon="8.960548092365478"><ele>8.0</ele><time>2026-04-10T18:21:50Z</time></trkpt><trkpt lat="39.309128527303066" lon="8.960692083799838"><ele>7.999999999999999</ele><time>2026-04-10T18:21:52Z</time></trkpt><trkpt lat="39.309108989615815" lon="8.96077418088707"><ele>8.0</ele><time>2026-04-10T18:21:53Z</time></trkpt><trkpt lat="39.309096295649255" lon="8.960864462927214"><ele>8.0</ele><time>2026-04-10T18:21:54Z</time></trkpt><trkpt lat="39.30911449310802" lon="8.960946521047038"><ele>7.999999999999999</ele><time>2026-04-10T18:21:55Z</time></trkpt><trkpt lat="39.30916662765031" lon="8.960997935841215"><ele>8.0</ele><time>2026-04-10T18:21:56Z</time></trkpt><trkpt lat="39.30923023026327" lon="8.96102117398893"><ele>8.0</ele><time>2026-04-10T18:21:57Z</time></trkpt><trkpt lat="39.30930735450642" lon="8.96099605008258"><ele>8.0</ele><time>2026-04-10T18:21:58Z</time></trkpt><trkpt lat="39.309372124482074" lon="8.96093223540446"><ele>8.0</ele><time>2026-04-10T18:21:59Z</time></trkpt><trkpt lat="39.30942021358504" lon="8.960838838035924"><ele>8.0</ele><time>2026-04-10T18:22:00Z</time></trkpt><trkpt lat="39.30949215485983" lon="8.960762063221859"><ele>8.0</ele><time>2026-04-10T18:22:01Z</time></trkpt><trkpt lat="39.3095962037596" lon="8.960705461039906"><ele>8.0</ele><time>2026-04-10T18:22:02Z</time></trkpt><trkpt lat="39.30972540607712" lon="8.960649555992594"><ele>8.5</ele><time>2026-04-10T18:22:03Z</time></trkpt><trkpt lat="39.309845354303846" lon="8.96058426492264"><ele>9.0</ele><time>2026-04-10T18:22:04Z</time></trkpt><trkpt lat="39.30997244487106" lon="8.96050917238945"><ele>9.5</ele><time>2026-04-10T18:22:05Z</time></trkpt><trkpt lat="39.31010787736763" lon="8.960423050856374"><ele>10.0</ele><time>2026-04-10T18:22:06Z</time></trkpt><trkpt lat="39.31024264766491" lon="8.960323269085007"><ele>10.0</ele><time>2026-04-10T18:22:07Z</time></trkpt><trkpt lat="39.31037178669726" lon="8.960213066986345"><ele>10.0</ele><time>2026-04-10T18:22:08Z</time></trkpt><trkpt lat="39.31049361487646" lon="8.960088762920371"><ele>10.0</ele><time>2026-04-10T18:22:09Z</time></trkpt><trkpt lat="39.310607761304425" lon="8.959950914876691"><ele>9.25</ele><time>2026-04-10T18:22:10Z</time></trkpt><trkpt lat="39.310711822262746" lon="8.959817451217194"><ele>8.5</ele><time>2026-04-10T18:22:11Z</time></trkpt><trkpt lat="39.31079784478776" lon="8.959694654018975"><ele>7.75</ele><time>2026-04-10T18:22:12Z</time></trkpt><trkpt lat="39.31087651384946" lon="8.959584641555908"><ele>7.0</ele><time>2026-04-10T18:22:13Z</time></trkpt><trkpt lat="39.31092865307835" lon="8.959524937917516"><ele>7.0</ele><time>2026-04-10T18:22:14Z</time></trkpt><trkpt lat="39.310972339275295" lon="8.959443786538564"><ele>6.999999999999999</ele><time>2026-04-10T18:22:16Z</time></trkpt><trkpt lat="39.311046845043926" lon="8.959467818603168"><ele>6.999999999999999</ele><time>2026-04-10T18:22:18Z</time></trkpt><trkpt lat="39.31114774604954" lon="8.95953993957314"><ele>7.0</ele><time>2026-04-10T18:22:20Z</time></trkpt><trkpt lat="39.311209136445804" lon="8.959645003060897"><ele>7.0</ele><time>2026-04-10T18:22:21Z</time></trkpt><trkpt lat="39.31126938234531" lon="8.959738723606222"><ele>7.0</ele><time>2026-04-10T18:22:22Z</time></trkpt><trkpt lat="39.31134597001817" lon="8.95984866383927"><ele>7.0</ele><time>2026-04-10T18:22:23Z</time></trkpt><trkpt lat="39.311438624099075" lon="8.959970313220595"><ele>7.0</ele><time>2026-04-10T18:22:24Z</time></trkpt><trkpt lat="39.311526496542314" lon="8.960089455794662"><ele>7.0</ele><time>2026-04-10T18:22:25Z</time></trkpt><trkpt lat="39.31162327444415" lon="8.960225556732551"><ele>6.666666666666667</ele><time>2026-04-10T18:22:26Z</time></trkpt><trkpt lat="39.31173464999591" lon="8.960377932036726"><ele>6.333333333333334</ele><time>2026-04-10T18:22:27Z</time></trkpt><trkpt lat="39.31184713635684" lon="8.960529586816806"><ele>6.0</ele><time>2026-04-10T18:22:28Z</time></trkpt><trkpt lat="39.31195841538168" lon="8.960681314229012"><ele>6.0</ele><time>2026-04-10T18:22:29Z</time></trkpt><trkpt lat="39.31207828000093" lon="8.960847472912725"><ele>6.0</ele><time>2026-04-10T18:22:30Z</time></trkpt><trkpt lat="39.31220253752557" lon="8.961016916979373"><ele>6.0</ele><time>2026-04-10T18:22:31Z</time></trkpt><trkpt lat="39.31232519010105" lon="8.961183814667015"><ele>7.333333333333334</ele><time>2026-04-10T18:22:32Z</time></trkpt><trkpt lat="39.31245971176939" lon="8.961364520288184"><ele>8.666666666666668</ele><time>2026-04-10T18:22:33Z</time></trkpt><trkpt lat="39.31258736774827" lon="8.961537850342078"><ele>10.0</ele><time>2026-04-10T18:22:34Z</time></trkpt><trkpt lat="39.31271683114459" lon="8.96171789598419"><ele>10.0</ele><time>2026-04-10T18:22:35Z</time></trkpt><trkpt lat="39.312842548560205" lon="8.961895105465771"><ele>10.0</ele><time>2026-04-10T18:22:36Z</time></trkpt><trkpt lat="39.31296919713071" lon="8.962072125421978"><ele>10.0</ele><time>2026-04-10T18:22:37Z</time></trkpt><trkpt lat="39.31310043900478" lon="8.962251754685859"><ele>9.666666666666668</ele><time>2026-04-10T18:22:38Z</time></trkpt><trkpt lat="39.3132317084574" lon="8.962432049867045"><ele>9.333333333333334</ele><time>2026-04-10T18:22:39Z</time></trkpt><trkpt lat="39.31336324206674" lon="8.962613959149163"><ele>9.0</ele><time>2026-04-10T18:22:40Z</time></trkpt><trkpt lat="39.31349502736989" lon="8.962794831903846"><ele>9.0</ele><time>2026-04-10T18:22:41Z</time></trkpt><trkpt lat="39.31362859715206" lon="8.962978544752"><ele>9.0</ele><time>2026-04-10T18:22:42Z</time></trkpt><trkpt lat="39.313762068236116" lon="8.963161891485129"><ele>9.0</ele><time>2026-04-10T18:22:43Z</time></trkpt><trkpt lat="39.31389352438374" lon="8.963339625637959"><ele>9.0</ele><time>2026-04-10T18:22:44Z</time></trkpt><trkpt lat="39.31402416965322" lon="8.96351783869678"><ele>9.0</ele><time>2026-04-10T18:22:45Z</time></trkpt><trkpt lat="39.31415055754391" lon="8.963692977883369"><ele>9.0</ele><time>2026-04-10T18:22:46Z</time></trkpt><trkpt lat="39.314272650425465" lon="8.96386095660691"><ele>9.0</ele><time>2026-04-10T18:22:47Z</time></trkpt><trkpt lat="39.3143963675032" lon="8.964027088222856"><ele>9.0</ele><time>2026-04-10T18:22:48Z</time></trkpt><trkpt lat="39.31452073439353" lon="8.964192390966181"><ele>9.0</ele><time>2026-04-10T18:22:49Z</time></trkpt><trkpt lat="39.31464331903079" lon="8.964357845919618"><ele>9.666666666666666</ele><time>2026-04-10T18:22:50Z</time></trkpt><trkpt lat="39.31476132398055" lon="8.964520681819806"><ele>10.333333333333332</ele><time>2026-04-10T18:22:51Z</time></trkpt><trkpt lat="39.314879494412445" lon="8.964682151509267"><ele>11.0</ele><time>2026-04-10T18:22:52Z</time></trkpt><trkpt lat="39.314997841371635" lon="8.964845680865762"><ele>11.0</ele><time>2026-04-10T18:22:53Z</time></trkpt><trkpt lat="39.31511719894318" lon="8.965006495508604"><ele>11.0</ele><time>2026-04-10T18:22:54Z</time></trkpt><trkpt lat="39.3152325195367" lon="8.965164839699609"><ele>11.0</ele><time>2026-04-10T18:22:55Z</time></trkpt><trkpt lat="39.31534731617683" lon="8.96532136006458"><ele>11.333333333333332</ele><time>2026-04-10T18:22:56Z</time></trkpt><trkpt lat="39.315461028515095" lon="8.965476677643034"><ele>11.666666666666666</ele><time>2026-04-10T18:22:57Z</time></trkpt><trkpt lat="39.315576785820795" lon="8.96563222254075"><ele>12.0</ele><time>2026-04-10T18:22:58Z</time></trkpt><trkpt lat="39.31568720672953" lon="8.965784913781"><ele>11.0</ele><time>2026-04-10T18:22:59Z</time></trkpt><trkpt lat="39.31579934601669" lon="8.965939081539013"><ele>10.0</ele><time>2026-04-10T18:23:00Z</time></trkpt><trkpt lat="39.315911400837834" lon="8.966095118918243"><ele>9.0</ele><time>2026-04-10T18:23:01Z</time></trkpt><trkpt lat="39.316023717671804" lon="8.966251909252069"><ele>9.0</ele><time>2026-04-10T18:23:02Z</time></trkpt><trkpt lat="39.31613459283522" lon="8.966402749266406"><ele>9.0</ele><time>2026-04-10T18:23:03Z</time></trkpt><trkpt lat="39.316247775026625" lon="8.966552856683718"><ele>9.0</ele><time>2026-04-10T18:23:04Z</time></trkpt><trkpt lat="39.316365137690894" lon="8.966709222041876"><ele>8.333333333333334</ele><time>2026-04-10T18:23:05Z</time></trkpt><trkpt lat="39.31647600714819" lon="8.966865731879137"><ele>7.666666666666667</ele><time>2026-04-10T18:23:06Z</time></trkpt><trkpt lat="39.31658511994365" lon="8.9670195559189"><ele>7.0</ele><time>2026-04-10T18:23:07Z</time></trkpt><trkpt lat="39.31669726573783" lon="8.967176578525173"><ele>7.0</ele><time>2026-04-10T18:23:08Z</time></trkpt><trkpt lat="39.31680902883302" lon="8.967331323827636"><ele>7.0</ele><time>2026-04-10T18:23:09Z</time></trkpt><trkpt lat="39.31691801892118" lon="8.967481774098372"><ele>7.0</ele><time>2026-04-10T18:23:10Z</time></trkpt><trkpt lat="39.31702762008125" lon="8.967630785147241"><ele>7.333333333333334</ele><time>2026-04-10T18:23:11Z</time></trkpt><trkpt lat="39.31713543325494" lon="8.967774957080229"><ele>7.666666666666666</ele><time>2026-04-10T18:23:12Z</time></trkpt><trkpt lat="39.31724200392252" lon="8.967916728537336"><ele>8.0</ele><time>2026-04-10T18:23:13Z</time></trkpt><trkpt lat="39.31734340642628" lon="8.968055098289296"><ele>8.75</ele><time>2026-04-10T18:23:14Z</time></trkpt><trkpt lat="39.31744171483688" lon="8.96819636814431"><ele>9.5</ele><time>2026-04-10T18:23:15Z</time></trkpt><trkpt lat="39.31753698644355" lon="8.968335980641656"><ele>10.25</ele><time>2026-04-10T18:23:16Z</time></trkpt><trkpt lat="39.31762934726003" lon="8.968478932879094"><ele>11.0</ele><time>2026-04-10T18:23:17Z</time></trkpt><trkpt lat="39.31770913233903" lon="8.968615033660663"><ele>11.0</ele><time>2026-04-10T18:23:18Z</time></trkpt><trkpt lat="39.317787395770694" lon="8.968752512014515"><ele>11.0</ele><time>2026-04-10T18:23:19Z</time></trkpt><trkpt lat="39.317864228059555" lon="8.968894078588319"><ele>11.0</ele><time>2026-04-10T18:23:20Z</time></trkpt><trkpt lat="39.31793755007614" lon="8.96904227565396"><ele>11.0</ele><time>2026-04-10T18:23:21Z</time></trkpt><trkpt lat="39.31800935603424" lon="8.969190613957759"><ele>11.5</ele><time>2026-04-10T18:23:22Z</time></trkpt><trkpt lat="39.318075401776156" lon="8.969343717786114"><ele>12.0</ele><time>2026-04-10T18:23:23Z</time></trkpt><trkpt lat="39.318137625533375" lon="8.96949947586496"><ele>12.5</ele><time>2026-04-10T18:23:24Z</time></trkpt><trkpt lat="39.318195113946025" lon="8.969654855240297"><ele>13.0</ele><time>2026-04-10T18:23:25Z</time></trkpt><trkpt lat="39.3182501030873" lon="8.96981379301777"><ele>13.0</ele><time>2026-04-10T18:23:26Z</time></trkpt><trkpt lat="39.318301798724875" lon="8.969985793019855"><ele>13.0</ele><time>2026-04-10T18:23:27Z</time></trkpt><trkpt lat="39.31835438498273" lon="8.970161631239609"><ele>13.0</ele><time>2026-04-10T18:23:28Z</time></trkpt><trkpt lat="39.31840347325842" lon="8.97034487050771"><ele>13.0</ele><time>2026-04-10T18:23:29Z</time></trkpt><trkpt lat="39.31844797071581" lon="8.970536462017552"><ele>13.666666666666666</ele><time>2026-04-10T18:23:30Z</time></trkpt><trkpt lat="39.318487510044086" lon="8.970726859078802"><ele>14.333333333333332</ele><time>2026-04-10T18:23:31Z</time></trkpt><trkpt lat="39.31852116213725" lon="8.970919063188244"><ele>15.0</ele><time>2026-04-10T18:23:32Z</time></trkpt><trkpt lat="39.318546735395046" lon="8.971108022598532"><ele>15.0</ele><time>2026-04-10T18:23:33Z</time></trkpt><trkpt lat="39.318564738461475" lon="8.971300973223926"><ele>15.0</ele><time>2026-04-10T18:23:34Z</time></trkpt><trkpt lat="39.3185737791851" lon="8.971489773378705"><ele>15.0</ele><time>2026-04-10T18:23:35Z</time></trkpt><trkpt lat="39.31857947962321" lon="8.971674615432255"><ele>15.0</ele><time>2026-04-10T18:23:36Z</time></trkpt><trkpt lat="39.31858323114605" lon="8.971863676355822"><ele>15.0</ele><time>2026-04-10T18:23:37Z</time></trkpt><trkpt lat="39.31858337705886" lon="8.972051646428284"><ele>15.0</ele><time>2026-04-10T18:23:38Z</time></trkpt><trkpt lat="39.3185792497371" lon="8.972236189946457"><ele>15.0</ele><time>2026-04-10T18:23:39Z</time></trkpt><trkpt lat="39.318571211908754" lon="8.972416923727952"><ele>15.0</ele><time>2026-04-10T18:23:40Z</time></trkpt><trkpt lat="39.31855710195995" lon="8.972594658939611"><ele>15.25</ele><time>2026-04-10T18:23:41Z</time></trkpt><trkpt lat="39.31853711736816" lon="8.972770062511247"><ele>15.5</ele><time>2026-04-10T18:23:42Z</time></trkpt><trkpt lat="39.31851079026734" lon="8.972945579148746"><ele>15.75</ele><time>2026-04-10T18:23:43Z</time></trkpt><trkpt lat="39.3184811361806" lon="8.973125691371525"><ele>16.0</ele><time>2026-04-10T18:23:44Z</time></trkpt><trkpt lat="39.31844416587148" lon="8.973309759223984"><ele>15.666666666666666</ele><time>2026-04-10T18:23:45Z</time></trkpt><trkpt lat="39.31840573151335" lon="8.973506183595633"><ele>15.333333333333332</ele><time>2026-04-10T18:23:46Z</time></trkpt><trkpt lat="39.31836681984768" lon="8.973711503733563"><ele>15.0</ele><time>2026-04-10T18:23:47Z</time></trkpt><trkpt lat="39.318324042131906" lon="8.97392542160513"><ele>15.0</ele><time>2026-04-10T18:23:48Z</time></trkpt><trkpt lat="39.31827438370042" lon="8.974146134618971"><ele>15.0</ele><time>2026-04-10T18:23:49Z</time></trkpt><trkpt lat="39.318224326085996" lon="8.974369753048514"><ele>15.0</ele><time>2026-04-10T18:23:50Z</time></trkpt><trkpt lat="39.318172549963045" lon="8.97460141806194"><ele>15.333333333333332</ele><time>2026-04-10T18:23:51Z</time></trkpt><trkpt lat="39.318119046907974" lon="8.974834415533506"><ele>15.666666666666666</ele><time>2026-04-10T18:23:52Z</time></trkpt><trkpt lat="39.31806267874343" lon="8.975069369422597"><ele>16.0</ele><time>2026-04-10T18:23:53Z</time></trkpt><trkpt lat="39.318001950875086" lon="8.975306319418504"><ele>16.0</ele><time>2026-04-10T18:23:54Z</time></trkpt><trkpt lat="39.31793915975837" lon="8.975544691396264"><ele>16.0</ele><time>2026-04-10T18:23:55Z</time></trkpt><trkpt lat="39.317872748131535" lon="8.975781294275336"><ele>16.0</ele><time>2026-04-10T18:23:56Z</time></trkpt><trkpt lat="39.317804430798766" lon="8.976013166551194"><ele>16.0</ele><time>2026-04-10T18:23:57Z</time></trkpt><trkpt lat="39.31773747014323" lon="8.976249105131382"><ele>16.0</ele><time>2026-04-10T18:23:58Z</time></trkpt><trkpt lat="39.3176704058808" lon="8.976486452687123"><ele>16.0</ele><time>2026-04-10T18:23:59Z</time></trkpt><trkpt lat="39.31760419854659" lon="8.976719050673688"><ele>16.0</ele><time>2026-04-10T18:24:00Z</time></trkpt><trkpt lat="39.3175349976998" lon="8.976949468966446"><ele>16.0</ele><time>2026-04-10T18:24:01Z</time></trkpt><trkpt lat="39.31745969818148" lon="8.977175426939164"><ele>16.0</ele><time>2026-04-10T18:24:02Z</time></trkpt><trkpt lat="39.317374696350434" lon="8.977399106016263"><ele>16.0</ele><time>2026-04-10T18:24:03Z</time></trkpt><trkpt lat="39.317279543010194" lon="8.977615640115244"><ele>16.0</ele><time>2026-04-10T18:24:04Z</time></trkpt><trkpt lat="39.317176260894925" lon="8.977825642220498"><ele>16.0</ele><time>2026-04-10T18:24:05Z</time></trkpt><trkpt lat="39.31706260479752" lon="8.978025424757934"><ele>16.0</ele><time>2026-04-10T18:24:06Z</time></trkpt><trkpt lat="39.31693851525493" lon="8.978217244592367"><ele>16.0</ele><time>2026-04-10T18:24:07Z</time></trkpt><trkpt lat="39.31680407364763" lon="8.978397949582437"><ele>16.0</ele><time>2026-04-10T18:24:08Z</time></trkpt><trkpt lat="39.31666084589918" lon="8.97856827649032"><ele>15.666666666666666</ele><time>2026-04-10T18:24:09Z</time></trkpt><trkpt lat="39.316511592678964" lon="8.978726447182996"><ele>15.333333333333332</ele><time>2026-04-10T18:24:10Z</time></trkpt><trkpt lat="39.31635726719942" lon="8.978870703745017"><ele>15.0</ele><time>2026-04-10T18:24:11Z</time></trkpt><trkpt lat="39.31619414942581" lon="8.979004025081318"><ele>15.0</ele><time>2026-04-10T18:24:12Z</time></trkpt><trkpt lat="39.316026400222995" lon="8.979128226627981"><ele>15.0</ele><time>2026-04-10T18:24:13Z</time></trkpt><trkpt lat="39.31585363913649" lon="8.979246357798909"><ele>15.0</ele><time>2026-04-10T18:24:14Z</time></trkpt><trkpt lat="39.31567862291307" lon="8.979358145459711"><ele>16.0</ele><time>2026-04-10T18:24:15Z</time></trkpt><trkpt lat="39.31549935232862" lon="8.979469461889472"><ele>17.0</ele><time>2026-04-10T18:24:16Z</time></trkpt><trkpt lat="39.31531707306086" lon="8.979582962704317"><ele>18.0</ele><time>2026-04-10T18:24:17Z</time></trkpt><trkpt lat="39.31513166976805" lon="8.97969933797734"><ele>18.0</ele><time>2026-04-10T18:24:18Z</time></trkpt><trkpt lat="39.31494045725343" lon="8.97982223386685"><ele>18.0</ele><time>2026-04-10T18:24:19Z</time></trkpt><trkpt lat="39.3147425464795" lon="8.979950638312841"><ele>18.0</ele><time>2026-04-10T18:24:20Z</time></trkpt><trkpt lat="39.31453774644086" lon="8.980080333584965"><ele>17.0</ele><time>2026-04-10T18:24:21Z</time></trkpt><trkpt lat="39.31433035789711" lon="8.980210069313205"><ele>16.0</ele><time>2026-04-10T18:24:22Z</time></trkpt><trkpt lat="39.31412386103421" lon="8.980339966235988"><ele>16.0</ele><time>2026-04-10T18:24:23Z</time></trkpt><trkpt lat="39.313916135507235" lon="8.980470240903633"><ele>16.0</ele><time>2026-04-10T18:24:24Z</time></trkpt><trkpt lat="39.31370555323661" lon="8.98060318537901"><ele>16.0</ele><time>2026-04-10T18:24:25Z</time></trkpt><trkpt lat="39.313496092670036" lon="8.980737665237505"><ele>16.0</ele><time>2026-04-10T18:24:26Z</time></trkpt><trkpt lat="39.31328714702995" lon="8.980870980512021"><ele>16.0</ele><time>2026-04-10T18:24:27Z</time></trkpt><trkpt lat="39.313079113840914" lon="8.981004414760045"><ele>16.0</ele><time>2026-04-10T18:24:28Z</time></trkpt><trkpt lat="39.31287069794417" lon="8.981137693108108"><ele>15.5</ele><time>2026-04-10T18:24:29Z</time></trkpt><trkpt lat="39.31266097934546" lon="8.98126929219685"><ele>15.0</ele><time>2026-04-10T18:24:30Z</time></trkpt><trkpt lat="39.31245298341867" lon="8.981399677423894"><ele>15.0</ele><time>2026-04-10T18:24:31Z</time></trkpt><trkpt lat="39.31224796283243" lon="8.981527661325813"><ele>15.0</ele><time>2026-04-10T18:24:32Z</time></trkpt><trkpt lat="39.31204162157356" lon="8.981657556126557"><ele>15.5</ele><time>2026-04-10T18:24:33Z</time></trkpt><trkpt lat="39.31183554080297" lon="8.981787371851187"><ele>16.0</ele><time>2026-04-10T18:24:34Z</time></trkpt><trkpt lat="39.311632078629174" lon="8.981917093577822"><ele>16.0</ele><time>2026-04-10T18:24:35Z</time></trkpt><trkpt lat="39.31142889998825" lon="8.982048828235152"><ele>16.0</ele><time>2026-04-10T18:24:36Z</time></trkpt><trkpt lat="39.31122606070376" lon="8.982177332525348"><ele>15.0</ele><time>2026-04-10T18:24:37Z</time></trkpt><trkpt lat="39.3110230557109" lon="8.98230759590575"><ele>14.0</ele><time>2026-04-10T18:24:38Z</time></trkpt><trkpt lat="39.31081912984056" lon="8.982436202509328"><ele>14.5</ele><time>2026-04-10T18:24:39Z</time></trkpt><trkpt lat="39.31061580621522" lon="8.982567105815283"><ele>15.0</ele><time>2026-04-10T18:24:40Z</time></trkpt><trkpt lat="39.31041487980737" lon="8.982694312043632"><ele>15.0</ele><time>2026-04-10T18:24:41Z</time></trkpt><trkpt lat="39.310211682830904" lon="8.982821319447467"><ele>15.0</ele><time>2026-04-10T18:24:42Z</time></trkpt><trkpt lat="39.31000742564586" lon="8.982949349424173"><ele>15.0</ele><time>2026-04-10T18:24:43Z</time></trkpt><trkpt lat="39.309804526788334" lon="8.98307667405477"><ele>15.0</ele><time>2026-04-10T18:24:44Z</time></trkpt><trkpt lat="39.30960105687846" lon="8.983205539292873"><ele>14.5</ele><time>2026-04-10T18:24:45Z</time></trkpt><trkpt lat="39.30939517060705" lon="8.983336127211855"><ele>14.0</ele><time>2026-04-10T18:24:46Z</time></trkpt><trkpt lat="39.3091891006223" lon="8.983467443038075"><ele>14.0</ele><time>2026-04-10T18:24:47Z</time></trkpt><trkpt lat="39.30898009028138" lon="8.983601282160686"><ele>14.0</ele><time>2026-04-10T18:24:48Z</time></trkpt><trkpt lat="39.308771376315704" lon="8.983733625489402"><ele>13.0</ele><time>2026-04-10T18:24:49Z</time></trkpt><trkpt lat="39.30856103293869" lon="8.98386585129069"><ele>12.0</ele><time>2026-04-10T18:24:50Z</time></trkpt><trkpt lat="39.30835159393546" lon="8.983998780220636"><ele>12.0</ele><time>2026-04-10T18:24:51Z</time></trkpt><trkpt lat="39.308141505616426" lon="8.984133116944435"><ele>12.0</ele><time>2026-04-10T18:24:52Z</time></trkpt><trkpt lat="39.30793144821013" lon="8.984272020991465"><ele>12.5</ele><time>2026-04-10T18:24:53Z</time></trkpt><trkpt lat="39.30772435178136" lon="8.984415520969133"><ele>13.0</ele><time>2026-04-10T18:24:54Z</time></trkpt><trkpt lat="39.307517308154175" lon="8.984566593775972"><ele>13.0</ele><time>2026-04-10T18:24:55Z</time></trkpt><trkpt lat="39.3073175187058" lon="8.984726062250164"><ele>13.0</ele><time>2026-04-10T18:24:56Z</time></trkpt><trkpt lat="39.30712258106422" lon="8.984896984670476"><ele>12.0</ele><time>2026-04-10T18:24:57Z</time></trkpt><trkpt lat="39.30693354458839" lon="8.985081788621496"><ele>11.0</ele><time>2026-04-10T18:24:58Z</time></trkpt><trkpt lat="39.3067508350838" lon="8.985278103554862"><ele>11.0</ele><time>2026-04-10T18:24:59Z</time></trkpt><trkpt lat="39.306574675322096" lon="8.985487313727898"><ele>11.0</ele><time>2026-04-10T18:25:00Z</time></trkpt><trkpt lat="39.30640395860046" lon="8.985706252187114"><ele>10.5</ele><time>2026-04-10T18:25:01Z</time></trkpt><trkpt lat="39.30623884755486" lon="8.985934668951977"><ele>10.0</ele><time>2026-04-10T18:25:02Z</time></trkpt><trkpt lat="39.30608400259893" lon="8.986173860733247"><ele>10.0</ele><time>2026-04-10T18:25:03Z</time></trkpt><trkpt lat="39.30593655992532" lon="8.986424638777013"><ele>10.0</ele><time>2026-04-10T18:25:04Z</time></trkpt><trkpt lat="39.30579430643125" lon="8.98668314907038"><ele>9.5</ele><time>2026-04-10T18:25:05Z</time></trkpt><trkpt lat="39.30565499593303" lon="8.986947205111484"><ele>9.0</ele><time>2026-04-10T18:25:06Z</time></trkpt><trkpt lat="39.305514763315685" lon="8.987212911923054"><ele>9.5</ele><time>2026-04-10T18:25:07Z</time></trkpt><trkpt lat="39.3053766070992" lon="8.98747978309236"><ele>10.0</ele><time>2026-04-10T18:25:08Z</time></trkpt><trkpt lat="39.30524018656394" lon="8.987747484059893"><ele>10.0</ele><time>2026-04-10T18:25:09Z</time></trkpt><trkpt lat="39.30510159630974" lon="8.988015559392704"><ele>10.0</ele><time>2026-04-10T18:25:10Z</time></trkpt><trkpt lat="39.30496428585638" lon="8.988283726551492"><ele>10.5</ele><time>2026-04-10T18:25:11Z</time></trkpt><trkpt lat="39.304825384035865" lon="8.988555319578019"><ele>11.0</ele><time>2026-04-10T18:25:12Z</time></trkpt><trkpt lat="39.30468862636695" lon="8.988825137380449"><ele>11.5</ele><time>2026-04-10T18:25:13Z</time></trkpt><trkpt lat="39.30455328900989" lon="8.989095550005247"><ele>12.0</ele><time>2026-04-10T18:25:14Z</time></trkpt><trkpt lat="39.30441549304288" lon="8.989365955683647"><ele>11.0</ele><time>2026-04-10T18:25:15Z</time></trkpt><trkpt lat="39.30427847616702" lon="8.989635523500311"><ele>10.0</ele><time>2026-04-10T18:25:16Z</time></trkpt><trkpt lat="39.304140545668645" lon="8.98990712508036"><ele>9.5</ele><time>2026-04-10T18:25:17Z</time></trkpt><trkpt lat="39.30399905039332" lon="8.990179566331495"><ele>9.0</ele><time>2026-04-10T18:25:18Z</time></trkpt><trkpt lat="39.30385826016085" lon="8.990450069746435"><ele>9.5</ele><time>2026-04-10T18:25:19Z</time></trkpt><trkpt lat="39.30371533451472" lon="8.990721792811417"><ele>10.0</ele><time>2026-04-10T18:25:20Z</time></trkpt><trkpt lat="39.303575706643244" lon="8.990991243183819"><ele>10.0</ele><time>2026-04-10T18:25:21Z</time></trkpt><trkpt lat="39.30343598116928" lon="8.99126041974295"><ele>10.0</ele><time>2026-04-10T18:25:22Z</time></trkpt><trkpt lat="39.303297686892925" lon="8.99153144766428"><ele>10.0</ele><time>2026-04-10T18:25:23Z</time></trkpt><trkpt lat="39.30316585032419" lon="8.991791337086346"><ele>10.0</ele><time>2026-04-10T18:25:24Z</time></trkpt><trkpt lat="39.30303550929754" lon="8.992047302694973"><ele>10.0</ele><time>2026-04-10T18:25:25Z</time></trkpt><trkpt lat="39.302908298236055" lon="8.992297815864429"><ele>10.0</ele><time>2026-04-10T18:25:26Z</time></trkpt><trkpt lat="39.30278056872786" lon="8.992550710190212"><ele>10.666666666666668</ele><time>2026-04-10T18:25:27Z</time></trkpt><trkpt lat="39.30265465664919" lon="8.992795242422554"><ele>11.333333333333334</ele><time>2026-04-10T18:25:28Z</time></trkpt><trkpt lat="39.302534252832125" lon="8.993030380516037"><ele>12.0</ele><time>2026-04-10T18:25:29Z</time></trkpt><trkpt lat="39.302417330263694" lon="8.993264251349181"><ele>11.0</ele><time>2026-04-10T18:25:30Z</time></trkpt><trkpt lat="39.302299080098884" lon="8.99350174637189"><ele>10.0</ele><time>2026-04-10T18:25:31Z</time></trkpt><trkpt lat="39.30217339089674" lon="8.993755413207161"><ele>10.5</ele><time>2026-04-10T18:25:32Z</time></trkpt><trkpt lat="39.30203853898178" lon="8.994027039972563"><ele>11.0</ele><time>2026-04-10T18:25:33Z</time></trkpt><trkpt lat="39.30189749156204" lon="8.994311521631928"><ele>11.0</ele><time>2026-04-10T18:25:34Z</time></trkpt><trkpt lat="39.30175509793393" lon="8.99459517538138"><ele>11.0</ele><time>2026-04-10T18:25:35Z</time></trkpt><trkpt lat="39.30161287401907" lon="8.99487473639252"><ele>11.0</ele><time>2026-04-10T18:25:36Z</time></trkpt><trkpt lat="39.301470718333604" lon="8.995154060042085"><ele>11.0</ele><time>2026-04-10T18:25:37Z</time></trkpt><trkpt lat="39.30132615361025" lon="8.995433148566795"><ele>11.5</ele><time>2026-04-10T18:25:38Z</time></trkpt><trkpt lat="39.301183173959494" lon="8.99570673846108"><ele>12.0</ele><time>2026-04-10T18:25:39Z</time></trkpt><trkpt lat="39.30103613518323" lon="8.995974798289714"><ele>12.0</ele><time>2026-04-10T18:25:40Z</time></trkpt><trkpt lat="39.300890783754404" lon="8.996241229093568"><ele>12.0</ele><time>2026-04-10T18:25:41Z</time></trkpt><trkpt lat="39.30075268524535" lon="8.996505941541477"><ele>12.0</ele><time>2026-04-10T18:25:42Z</time></trkpt><trkpt lat="39.300616828387184" lon="8.996769376365664"><ele>12.0</ele><time>2026-04-10T18:25:43Z</time></trkpt><trkpt lat="39.30048524875957" lon="8.997025110677386"><ele>12.0</ele><time>2026-04-10T18:25:44Z</time></trkpt><trkpt lat="39.300357281325006" lon="8.997275861227788"><ele>12.0</ele><time>2026-04-10T18:25:45Z</time></trkpt><trkpt lat="39.300229016103586" lon="8.997523605749269"><ele>13.0</ele><time>2026-04-10T18:25:46Z</time></trkpt><trkpt lat="39.30010342493778" lon="8.997769184153299"><ele>14.0</ele><time>2026-04-10T18:25:47Z</time></trkpt><trkpt lat="39.29997953741095" lon="8.998012872222029"><ele>14.0</ele><time>2026-04-10T18:25:48Z</time></trkpt><trkpt lat="39.29985411606725" lon="8.998255317604709"><ele>14.0</ele><time>2026-04-10T18:25:49Z</time></trkpt><trkpt lat="39.299729039722905" lon="8.998495386202809"><ele>13.0</ele><time>2026-04-10T18:25:50Z</time></trkpt><trkpt lat="39.29960677400494" lon="8.998735382479408"><ele>12.0</ele><time>2026-04-10T18:25:51Z</time></trkpt><trkpt lat="39.299485425310344" lon="8.998977483275965"><ele>11.0</ele><time>2026-04-10T18:25:52Z</time></trkpt><trkpt lat="39.299366352397556" lon="8.999213019128087"><ele>10.666666666666666</ele><time>2026-04-10T18:25:53Z</time></trkpt><trkpt lat="39.29925469641341" lon="8.99943302002914"><ele>10.333333333333334</ele><time>2026-04-10T18:25:54Z</time></trkpt><trkpt lat="39.29914770027973" lon="8.999643493872153"><ele>10.0</ele><time>2026-04-10T18:25:55Z</time></trkpt><trkpt lat="39.29904465701423" lon="8.999846493387295"><ele>10.0</ele><time>2026-04-10T18:25:56Z</time></trkpt><trkpt lat="39.298948178539035" lon="9.000033286631583"><ele>10.0</ele><time>2026-04-10T18:25:57Z</time></trkpt><trkpt lat="39.298858881586064" lon="9.000212658460999"><ele>10.0</ele><time>2026-04-10T18:25:58Z</time></trkpt><trkpt lat="39.29877363791039" lon="9.000377757108136"><ele>10.2</ele><time>2026-04-10T18:25:59Z</time></trkpt><trkpt lat="39.29869506282593" lon="9.00053109294305"><ele>10.4</ele><time>2026-04-10T18:26:00Z</time></trkpt><trkpt lat="39.29863306814108" lon="9.00065549300258"><ele>10.600000000000001</ele><time>2026-04-10T18:26:01Z</time></trkpt><trkpt lat="39.29858482118105" lon="9.000751987613627"><ele>10.8</ele><time>2026-04-10T18:26:02Z</time></trkpt><trkpt lat="39.298544002795545" lon="9.00083845730235"><ele>11.0</ele><time>2026-04-10T18:26:03Z</time></trkpt><trkpt lat="39.29851091098946" lon="9.000913181515621"><ele>11.0</ele><time>2026-04-10T18:26:04Z</time></trkpt><trkpt lat="39.2984582611395" lon="9.001030952546834"><ele>11.0</ele><time>2026-04-10T18:26:06Z</time></trkpt><trkpt lat="39.298407224239575" lon="9.0011119327185"><ele>11.0</ele><time>2026-04-10T18:27:12Z</time></trkpt><trkpt lat="39.298328709407095" lon="9.00127027977637"><ele>11.0</ele><time>2026-04-10T18:27:14Z</time></trkpt><trkpt lat="39.29827634121491" lon="9.001379561181617"><ele>11.0</ele><time>2026-04-10T18:27:15Z</time></trkpt><trkpt lat="39.298209214322696" lon="9.001510551762243"><ele>11.0</ele><time>2026-04-10T18:27:16Z</time></trkpt><trkpt lat="39.29813438879012" lon="9.00165334789191"><ele>11.0</ele><time>2026-04-10T18:27:17Z</time></trkpt><trkpt lat="39.29805116326127" lon="9.001815525860666"><ele>11.0</ele><time>2026-04-10T18:27:18Z</time></trkpt><trkpt lat="39.29795539895411" lon="9.002004753814196"><ele>11.0</ele><time>2026-04-10T18:27:19Z</time></trkpt><trkpt lat="39.29786189031858" lon="9.002190152628012"><ele>11.0</ele><time>2026-04-10T18:27:20Z</time></trkpt><trkpt lat="39.29775859038966" lon="9.002388376589922"><ele>11.0</ele><time>2026-04-10T18:27:21Z</time></trkpt><trkpt lat="39.297648756861385" lon="9.002594689007365"><ele>11.0</ele><time>2026-04-10T18:27:22Z</time></trkpt><trkpt lat="39.29753245654458" lon="9.002805115680049"><ele>11.0</ele><time>2026-04-10T18:27:23Z</time></trkpt><trkpt lat="39.297416528810814" lon="9.00302340529533"><ele>11.0</ele><time>2026-04-10T18:27:24Z</time></trkpt><trkpt lat="39.29730227942422" lon="9.003241009653483"><ele>11.666666666666666</ele><time>2026-04-10T18:27:25Z</time></trkpt><trkpt lat="39.29718893349626" lon="9.003462191973231"><ele>12.333333333333332</ele><time>2026-04-10T18:27:26Z</time></trkpt><trkpt lat="39.29707396076744" lon="9.00368288778472"><ele>13.0</ele><time>2026-04-10T18:27:27Z</time></trkpt><trkpt lat="39.29695964940878" lon="9.003903454160675"><ele>13.0</ele><time>2026-04-10T18:27:28Z</time></trkpt><trkpt lat="39.29684616321921" lon="9.004124680421565"><ele>13.0</ele><time>2026-04-10T18:27:29Z</time></trkpt><trkpt lat="39.29673509509014" lon="9.00434431791014"><ele>13.0</ele><time>2026-04-10T18:27:30Z</time></trkpt><trkpt lat="39.29662168575484" lon="9.004564522819388"><ele>12.666666666666666</ele><time>2026-04-10T18:27:31Z</time></trkpt><trkpt lat="39.29650625194235" lon="9.00478123886308"><ele>12.333333333333332</ele><time>2026-04-10T18:27:32Z</time></trkpt><trkpt lat="39.29639140272384" lon="9.0049991706208"><ele>12.0</ele><time>2026-04-10T18:27:33Z</time></trkpt><trkpt lat="39.29627696478015" lon="9.005219425778487"><ele>12.0</ele><time>2026-04-10T18:27:34Z</time></trkpt><trkpt lat="39.296163005153005" lon="9.005437093720767"><ele>12.0</ele><time>2026-04-10T18:27:35Z</time></trkpt><trkpt lat="39.2960460098211" lon="9.005660158251201"><ele>12.0</ele><time>2026-04-10T18:27:36Z</time></trkpt><trkpt lat="39.29592762845603" lon="9.005885139997092"><ele>12.0</ele><time>2026-04-10T18:27:37Z</time></trkpt><trkpt lat="39.295809316610104" lon="9.006114002682102"><ele>12.0</ele><time>2026-04-10T18:27:38Z</time></trkpt><trkpt lat="39.29568708010417" lon="9.006344185821785"><ele>12.0</ele><time>2026-04-10T18:27:39Z</time></trkpt><trkpt lat="39.29556330547487" lon="9.006577375796367"><ele>12.0</ele><time>2026-04-10T18:27:40Z</time></trkpt><trkpt lat="39.29544888877271" lon="9.00679808663494"><ele>12.0</ele><time>2026-04-10T18:27:41Z</time></trkpt><trkpt lat="39.295341583448355" lon="9.007008185450076"><ele>12.0</ele><time>2026-04-10T18:27:42Z</time></trkpt><trkpt lat="39.29523636219491" lon="9.007211321701156"><ele>12.0</ele><time>2026-04-10T18:27:43Z</time></trkpt><trkpt lat="39.29513575992328" lon="9.007402633174951"><ele>12.0</ele><time>2026-04-10T18:27:44Z</time></trkpt><trkpt lat="39.295039750694045" lon="9.007582324712931"><ele>12.0</ele><time>2026-04-10T18:27:45Z</time></trkpt><trkpt lat="39.29495089987232" lon="9.00775249662603"><ele>12.0</ele><time>2026-04-10T18:27:46Z</time></trkpt><trkpt lat="39.294872768030146" lon="9.007907423474572"><ele>12.0</ele><time>2026-04-10T18:27:47Z</time></trkpt><trkpt lat="39.29479811604927" lon="9.008060582299693"><ele>12.0</ele><time>2026-04-10T18:27:48Z</time></trkpt><trkpt lat="39.294719326655475" lon="9.008210087130134"><ele>12.0</ele><time>2026-04-10T18:27:49Z</time></trkpt><trkpt lat="39.294639495774994" lon="9.00835347354606"><ele>11.0</ele><time>2026-04-10T18:27:50Z</time></trkpt><trkpt lat="39.29455986936679" lon="9.008501076129498"><ele>10.0</ele><time>2026-04-10T18:27:51Z</time></trkpt><trkpt lat="39.29447774421081" lon="9.008665604652348"><ele>9.0</ele><time>2026-04-10T18:27:52Z</time></trkpt><trkpt lat="39.294387205979255" lon="9.008854251513"><ele>9.0</ele><time>2026-04-10T18:27:53Z</time></trkpt><trkpt lat="39.294280913483995" lon="9.00907011857789"><ele>9.0</ele><time>2026-04-10T18:27:54Z</time></trkpt><trkpt lat="39.294167489701536" lon="9.009301917112923"><ele>9.0</ele><time>2026-04-10T18:27:55Z</time></trkpt><trkpt lat="39.29404864925029" lon="9.009536798952821"><ele>9.0</ele><time>2026-04-10T18:27:56Z</time></trkpt><trkpt lat="39.29392826020035" lon="9.009772259584084"><ele>9.0</ele><time>2026-04-10T18:27:57Z</time></trkpt><trkpt lat="39.29379432014707" lon="9.01002006713835"><ele>8.5</ele><time>2026-04-10T18:27:58Z</time></trkpt><trkpt lat="39.29365179163288" lon="9.010269588330415"><ele>8.0</ele><time>2026-04-10T18:27:59Z</time></trkpt><trkpt lat="39.29351201939788" lon="9.010519312961904"><ele>8.0</ele><time>2026-04-10T18:28:00Z</time></trkpt><trkpt lat="39.29337500152423" lon="9.01077092914088"><ele>8.0</ele><time>2026-04-10T18:28:01Z</time></trkpt><trkpt lat="39.29323862826095" lon="9.01101910427527"><ele>8.0</ele><time>2026-04-10T18:28:02Z</time></trkpt><trkpt lat="39.29311136778133" lon="9.01125539962408"><ele>8.0</ele><time>2026-04-10T18:28:03Z</time></trkpt><trkpt lat="39.29299109141288" lon="9.01147999589161"><ele>8.0</ele><time>2026-04-10T18:28:04Z</time></trkpt><trkpt lat="39.29287680755827" lon="9.011694427941903"><ele>8.0</ele><time>2026-04-10T18:28:05Z</time></trkpt><trkpt lat="39.29276606043665" lon="9.011896407707637"><ele>8.0</ele><time>2026-04-10T18:28:06Z</time></trkpt><trkpt lat="39.292662417121186" lon="9.012089261747633"><ele>8.0</ele><time>2026-04-10T18:28:07Z</time></trkpt><trkpt lat="39.29256462974774" lon="9.012274920367334"><ele>8.0</ele><time>2026-04-10T18:28:08Z</time></trkpt><trkpt lat="39.29246953062786" lon="9.012451032898813"><ele>8.0</ele><time>2026-04-10T18:28:09Z</time></trkpt><trkpt lat="39.2923794060122" lon="9.012616014358953"><ele>8.0</ele><time>2026-04-10T18:28:10Z</time></trkpt><trkpt lat="39.29229204663594" lon="9.012772110398757"><ele>8.25</ele><time>2026-04-10T18:28:11Z</time></trkpt><trkpt lat="39.29221165032338" lon="9.01291885581729"><ele>8.5</ele><time>2026-04-10T18:28:12Z</time></trkpt><trkpt lat="39.2921374716734" lon="9.01306014886179"><ele>8.75</ele><time>2026-04-10T18:28:13Z</time></trkpt><trkpt lat="39.292065644493995" lon="9.013193410156353"><ele>9.0</ele><time>2026-04-10T18:28:14Z</time></trkpt><trkpt lat="39.29199895010791" lon="9.013320755173744"><ele>9.2</ele><time>2026-04-10T18:28:15Z</time></trkpt><trkpt lat="39.291936310185655" lon="9.01343670249043"><ele>9.4</ele><time>2026-04-10T18:28:16Z</time></trkpt><trkpt lat="39.29187776526348" lon="9.013547510478537"><ele>9.6</ele><time>2026-04-10T18:28:17Z</time></trkpt><trkpt lat="39.291824423833596" lon="9.013650592227325"><ele>9.8</ele><time>2026-04-10T18:28:18Z</time></trkpt><trkpt lat="39.29177081793746" lon="9.01375652921437"><ele>10.0</ele><time>2026-04-10T18:28:19Z</time></trkpt><trkpt lat="39.29171662978974" lon="9.013862425273171"><ele>10.0</ele><time>2026-04-10T18:28:20Z</time></trkpt><trkpt lat="39.29166804845359" lon="9.013956476489124"><ele>10.0</ele><time>2026-04-10T18:28:21Z</time></trkpt><trkpt lat="39.291624345046436" lon="9.014043524145492"><ele>10.0</ele><time>2026-04-10T18:28:22Z</time></trkpt><trkpt lat="39.29158338373734" lon="9.014126115752614"><ele>10.0</ele><time>2026-04-10T18:28:23Z</time></trkpt><trkpt lat="39.29154561914714" lon="9.014202304815592"><ele>10.0</ele><time>2026-04-10T18:28:24Z</time></trkpt><trkpt lat="39.29151307615938" lon="9.014272719067332"><ele>10.0</ele><time>2026-04-10T18:28:25Z</time></trkpt><trkpt lat="39.291449410764145" lon="9.014393204050924"><ele>10.2</ele><time>2026-04-10T18:28:27Z</time></trkpt><trkpt lat="39.29140191983905" lon="9.014480658958933"><ele>10.4</ele><time>2026-04-10T18:28:29Z</time></trkpt><trkpt lat="39.29136193577787" lon="9.014591150061838"><ele>10.600000000000001</ele><time>2026-04-10T18:28:48Z</time></trkpt><trkpt lat="39.291309620336115" lon="9.014693399227378"><ele>10.8</ele><time>2026-04-10T18:28:49Z</time></trkpt><trkpt lat="39.29124568607271" lon="9.014815616290441"><ele>11.0</ele><time>2026-04-10T18:28:50Z</time></trkpt><trkpt lat="39.29116963290033" lon="9.014958373431543"><ele>11.0</ele><time>2026-04-10T18:28:51Z</time></trkpt><trkpt lat="39.29108294895409" lon="9.015120145158734"><ele>11.0</ele><time>2026-04-10T18:28:52Z</time></trkpt><trkpt lat="39.290981056205865" lon="9.015308847347887"><ele>11.0</ele><time>2026-04-10T18:28:53Z</time></trkpt><trkpt lat="39.29087258057111" lon="9.015510482199318"><ele>11.0</ele><time>2026-04-10T18:28:54Z</time></trkpt><trkpt lat="39.290751670284614" lon="9.015733196264266"><ele>11.0</ele><time>2026-04-10T18:28:55Z</time></trkpt><trkpt lat="39.29063122726918" lon="9.01595792049133"><ele>11.0</ele><time>2026-04-10T18:28:56Z</time></trkpt><trkpt lat="39.29050621390554" lon="9.016193652612662"><ele>10.5</ele><time>2026-04-10T18:28:57Z</time></trkpt><trkpt lat="39.29037991403861" lon="9.016432157122528"><ele>10.0</ele><time>2026-04-10T18:28:58Z</time></trkpt><trkpt lat="39.290252983065166" lon="9.016675552749028"><ele>10.0</ele><time>2026-04-10T18:28:59Z</time></trkpt><trkpt lat="39.290126875860956" lon="9.016917154945402"><ele>10.0</ele><time>2026-04-10T18:29:00Z</time></trkpt><trkpt lat="39.29000189997633" lon="9.017158108407058"><ele>10.0</ele><time>2026-04-10T18:29:01Z</time></trkpt><trkpt lat="39.28987676967906" lon="9.01740004268857"><ele>10.0</ele><time>2026-04-10T18:29:02Z</time></trkpt><trkpt lat="39.289752757448774" lon="9.017643399660301"><ele>10.666666666666668</ele><time>2026-04-10T18:29:03Z</time></trkpt><trkpt lat="39.289629317527535" lon="9.017887177669227"><ele>11.333333333333334</ele><time>2026-04-10T18:29:04Z</time></trkpt><trkpt lat="39.28950674957625" lon="9.01812651269588"><ele>12.0</ele><time>2026-04-10T18:29:05Z</time></trkpt><trkpt lat="39.2893805001377" lon="9.018365053763768"><ele>12.333333333333332</ele><time>2026-04-10T18:29:06Z</time></trkpt><trkpt lat="39.28925601898628" lon="9.018601712322928"><ele>12.666666666666666</ele><time>2026-04-10T18:29:07Z</time></trkpt><trkpt lat="39.28913254347626" lon="9.018839787778578"><ele>13.0</ele><time>2026-04-10T18:29:08Z</time></trkpt><trkpt lat="39.28900953311978" lon="9.01907781671798"><ele>12.0</ele><time>2026-04-10T18:29:09Z</time></trkpt><trkpt lat="39.28888693563016" lon="9.019314195025759"><ele>11.0</ele><time>2026-04-10T18:29:10Z</time></trkpt><trkpt lat="39.288763478510305" lon="9.01954705581215"><ele>10.0</ele><time>2026-04-10T18:29:11Z</time></trkpt><trkpt lat="39.28863998984107" lon="9.019781957322712"><ele>9.333333333333334</ele><time>2026-04-10T18:29:12Z</time></trkpt><trkpt lat="39.28851347074746" lon="9.020017348105728"><ele>8.666666666666666</ele><time>2026-04-10T18:29:13Z</time></trkpt><trkpt lat="39.288389869633384" lon="9.020254138992385"><ele>8.0</ele><time>2026-04-10T18:29:14Z</time></trkpt><trkpt lat="39.288264323734666" lon="9.020490807242435"><ele>8.0</ele><time>2026-04-10T18:29:15Z</time></trkpt><trkpt lat="39.28814109407457" lon="9.02072679161056"><ele>8.0</ele><time>2026-04-10T18:29:16Z</time></trkpt><trkpt lat="39.28801594828802" lon="9.02096354527551"><ele>8.0</ele><time>2026-04-10T18:29:17Z</time></trkpt><trkpt lat="39.28789136724228" lon="9.021200361158948"><ele>8.0</ele><time>2026-04-10T18:29:18Z</time></trkpt><trkpt lat="39.28776896251813" lon="9.021431671791095"><ele>8.0</ele><time>2026-04-10T18:29:19Z</time></trkpt><trkpt lat="39.287646327740205" lon="9.02166460537368"><ele>8.0</ele><time>2026-04-10T18:29:20Z</time></trkpt><trkpt lat="39.28752481041337" lon="9.02189732489392"><ele>8.0</ele><time>2026-04-10T18:29:21Z</time></trkpt><trkpt lat="39.28740443690856" lon="9.022130151315134"><ele>8.0</ele><time>2026-04-10T18:29:22Z</time></trkpt><trkpt lat="39.28728250797268" lon="9.022362784492184"><ele>8.0</ele><time>2026-04-10T18:29:23Z</time></trkpt><trkpt lat="39.287162978979886" lon="9.022595497259378"><ele>8.5</ele><time>2026-04-10T18:29:24Z</time></trkpt><trkpt lat="39.28703693548032" lon="9.0228494162519"><ele>9.0</ele><time>2026-04-10T18:29:25Z</time></trkpt><trkpt lat="39.28690055012425" lon="9.023120550922783"><ele>9.5</ele><time>2026-04-10T18:29:26Z</time></trkpt><trkpt lat="39.28676240383303" lon="9.023391641501249"><ele>10.0</ele><time>2026-04-10T18:29:27Z</time></trkpt><trkpt lat="39.28662398715188" lon="9.02366323318626"><ele>10.0</ele><time>2026-04-10T18:29:28Z</time></trkpt><trkpt lat="39.28648530916724" lon="9.023932814254676"><ele>10.0</ele><time>2026-04-10T18:29:29Z</time></trkpt><trkpt lat="39.2863439342717" lon="9.024197911683796"><ele>9.5</ele><time>2026-04-10T18:29:30Z</time></trkpt><trkpt lat="39.28620050204593" lon="9.024459387909792"><ele>9.0</ele><time>2026-04-10T18:29:31Z</time></trkpt><trkpt lat="39.28605846912859" lon="9.024718685030729"><ele>9.0</ele><time>2026-04-10T18:29:32Z</time></trkpt><trkpt lat="39.28591863824993" lon="9.024978833311595"><ele>9.0</ele><time>2026-04-10T18:29:33Z</time></trkpt><trkpt lat="39.285782696942334" lon="9.025234244072308"><ele>9.0</ele><time>2026-04-10T18:29:34Z</time></trkpt><trkpt lat="39.28564654527058" lon="9.025490841727857"><ele>9.0</ele><time>2026-04-10T18:29:35Z</time></trkpt><trkpt lat="39.285509723269186" lon="9.025746245798373"><ele>7.5</ele><time>2026-04-10T18:29:36Z</time></trkpt><trkpt lat="39.28537510532186" lon="9.026002308818976"><ele>6.0</ele><time>2026-04-10T18:29:37Z</time></trkpt><trkpt lat="39.28524186133035" lon="9.026258293827151"><ele>6.0</ele><time>2026-04-10T18:29:38Z</time></trkpt><trkpt lat="39.285107478923436" lon="9.026512502188144"><ele>6.0</ele><time>2026-04-10T18:29:39Z</time></trkpt><trkpt lat="39.284973929461195" lon="9.026765055283338"><ele>6.0</ele><time>2026-04-10T18:29:40Z</time></trkpt><trkpt lat="39.284841086626066" lon="9.027016381035779"><ele>6.0</ele><time>2026-04-10T18:29:41Z</time></trkpt><trkpt lat="39.28470756301636" lon="9.027265197809665"><ele>7.0</ele><time>2026-04-10T18:29:42Z</time></trkpt><trkpt lat="39.28457781303539" lon="9.027519853400221"><ele>8.0</ele><time>2026-04-10T18:29:43Z</time></trkpt><trkpt lat="39.28444420230353" lon="9.027775088922507"><ele>8.0</ele><time>2026-04-10T18:29:44Z</time></trkpt><trkpt lat="39.28431232700523" lon="9.028032795159529"><ele>8.0</ele><time>2026-04-10T18:29:45Z</time></trkpt><trkpt lat="39.284173686591046" lon="9.028295836493147"><ele>8.0</ele><time>2026-04-10T18:29:46Z</time></trkpt><trkpt lat="39.28403526077845" lon="9.02855868669455"><ele>8.0</ele><time>2026-04-10T18:29:47Z</time></trkpt><trkpt lat="39.28389518705937" lon="9.028819438542905"><ele>7.0</ele><time>2026-04-10T18:29:48Z</time></trkpt><trkpt lat="39.28375771121791" lon="9.029080965190818"><ele>6.0</ele><time>2026-04-10T18:29:49Z</time></trkpt><trkpt lat="39.28361917829112" lon="9.029345535363476"><ele>5.5</ele><time>2026-04-10T18:29:50Z</time></trkpt><trkpt lat="39.28348232703467" lon="9.029612691735194"><ele>5.0</ele><time>2026-04-10T18:29:51Z</time></trkpt><trkpt lat="39.28334142491764" lon="9.029877222141012"><ele>4.5</ele><time>2026-04-10T18:29:52Z</time></trkpt><trkpt lat="39.28320292671103" lon="9.03014351105945"><ele>4.0</ele><time>2026-04-10T18:29:53Z</time></trkpt><trkpt lat="39.28306273634818" lon="9.03040643584285"><ele>4.0</ele><time>2026-04-10T18:29:54Z</time></trkpt><trkpt lat="39.28292340432902" lon="9.030666514710713"><ele>4.0</ele><time>2026-04-10T18:29:55Z</time></trkpt><trkpt lat="39.28278654296282" lon="9.030922941002276"><ele>4.5</ele><time>2026-04-10T18:29:56Z</time></trkpt><trkpt lat="39.282649416496625" lon="9.031180391208284"><ele>5.0</ele><time>2026-04-10T18:29:57Z</time></trkpt><trkpt lat="39.282514261222936" lon="9.031434532703182"><ele>6.0</ele><time>2026-04-10T18:29:58Z</time></trkpt><trkpt lat="39.28238039537389" lon="9.03168855243071"><ele>7.0</ele><time>2026-04-10T18:29:59Z</time></trkpt><trkpt lat="39.28224996185162" lon="9.031940953492208"><ele>7.0</ele><time>2026-04-10T18:30:00Z</time></trkpt><trkpt lat="39.28211988410275" lon="9.03218941088738"><ele>7.0</ele><time>2026-04-10T18:30:01Z</time></trkpt><trkpt lat="39.2819888405371" lon="9.03243607911402"><ele>8.5</ele><time>2026-04-10T18:30:02Z</time></trkpt><trkpt lat="39.28185620037005" lon="9.03268508917839"><ele>10.0</ele><time>2026-04-10T18:30:03Z</time></trkpt><trkpt lat="39.281725844359954" lon="9.032932536245745"><ele>10.0</ele><time>2026-04-10T18:30:04Z</time></trkpt><trkpt lat="39.28159485163696" lon="9.033180147269249"><ele>10.0</ele><time>2026-04-10T18:30:05Z</time></trkpt><trkpt lat="39.281459537631065" lon="9.033428542548425"><ele>8.5</ele><time>2026-04-10T18:30:06Z</time></trkpt><trkpt lat="39.28132796267082" lon="9.033675819374482"><ele>7.0</ele><time>2026-04-10T18:30:07Z</time></trkpt><trkpt lat="39.28119695430603" lon="9.033924255733488"><ele>6.0</ele><time>2026-04-10T18:30:08Z</time></trkpt><trkpt lat="39.281062835544326" lon="9.034169067519064"><ele>5.0</ele><time>2026-04-10T18:30:09Z</time></trkpt><trkpt lat="39.28093125317976" lon="9.034413749782031"><ele>5.0</ele><time>2026-04-10T18:30:10Z</time></trkpt><trkpt lat="39.2808006548416" lon="9.034660756790393"><ele>5.0</ele><time>2026-04-10T18:30:11Z</time></trkpt><trkpt lat="39.280668834161894" lon="9.034908539380886"><ele>6.5</ele><time>2026-04-10T18:30:12Z</time></trkpt><trkpt lat="39.280537517373176" lon="9.03515666229387"><ele>8.0</ele><time>2026-04-10T18:30:13Z</time></trkpt><trkpt lat="39.28040282799871" lon="9.035403445056652"><ele>8.0</ele><time>2026-04-10T18:30:14Z</time></trkpt><trkpt lat="39.28027099539441" lon="9.035653268906854"><ele>8.0</ele><time>2026-04-10T18:30:15Z</time></trkpt><trkpt lat="39.280140500267684" lon="9.035901702572739"><ele>7.5</ele><time>2026-04-10T18:30:16Z</time></trkpt><trkpt lat="39.2800111646847" lon="9.036150085220855"><ele>7.0</ele><time>2026-04-10T18:30:17Z</time></trkpt><trkpt lat="39.27987905123045" lon="9.03639901390521"><ele>7.0</ele><time>2026-04-10T18:30:18Z</time></trkpt><trkpt lat="39.279748925735596" lon="9.03664718344715"><ele>7.0</ele><time>2026-04-10T18:30:19Z</time></trkpt><trkpt lat="39.27961520892585" lon="9.036893024275097"><ele>7.0</ele><time>2026-04-10T18:30:20Z</time></trkpt><trkpt lat="39.27948280930521" lon="9.037137585469827"><ele>7.0</ele><time>2026-04-10T18:30:21Z</time></trkpt><trkpt lat="39.279351755881" lon="9.037381989139709"><ele>7.0</ele><time>2026-04-10T18:30:22Z</time></trkpt><trkpt lat="39.279222689450734" lon="9.0376267839062"><ele>7.0</ele><time>2026-04-10T18:30:23Z</time></trkpt><trkpt lat="39.27909407402519" lon="9.037871115395308"><ele>7.0</ele><time>2026-04-10T18:30:24Z</time></trkpt><trkpt lat="39.27896445421622" lon="9.038114892132777"><ele>7.0</ele><time>2026-04-10T18:30:25Z</time></trkpt><trkpt lat="39.2788352147789" lon="9.038356477885202"><ele>6.5</ele><time>2026-04-10T18:30:26Z</time></trkpt><trkpt lat="39.27870343965307" lon="9.038600528663437"><ele>6.0</ele><time>2026-04-10T18:30:27Z</time></trkpt><trkpt lat="39.278573054087516" lon="9.03884627749942"><ele>6.0</ele><time>2026-04-10T18:30:28Z</time></trkpt><trkpt lat="39.27844213751191" lon="9.03908887001704"><ele>6.0</ele><time>2026-04-10T18:30:29Z</time></trkpt><trkpt lat="39.27831315550338" lon="9.039333066245053"><ele>6.5</ele><time>2026-04-10T18:30:30Z</time></trkpt><trkpt lat="39.27818417476728" lon="9.039576452386287"><ele>7.0</ele><time>2026-04-10T18:30:31Z</time></trkpt><trkpt lat="39.27805546678552" lon="9.039819017725193"><ele>7.5</ele><time>2026-04-10T18:30:32Z</time></trkpt><trkpt lat="39.27792635744981" lon="9.040060603687532"><ele>8.0</ele><time>2026-04-10T18:30:33Z</time></trkpt><trkpt lat="39.277797192896564" lon="9.040305437911643"><ele>8.0</ele><time>2026-04-10T18:30:34Z</time></trkpt><trkpt lat="39.27766843821789" lon="9.040547298834348"><ele>8.0</ele><time>2026-04-10T18:30:35Z</time></trkpt><trkpt lat="39.277540646679995" lon="9.040791512164233"><ele>7.0</ele><time>2026-04-10T18:30:36Z</time></trkpt><trkpt lat="39.27741278639382" lon="9.041037579815919"><ele>6.0</ele><time>2026-04-10T18:30:37Z</time></trkpt><trkpt lat="39.277284001419915" lon="9.041280525319118"><ele>6.0</ele><time>2026-04-10T18:30:38Z</time></trkpt><trkpt lat="39.27715433150728" lon="9.041522978656829"><ele>6.0</ele><time>2026-04-10T18:30:39Z</time></trkpt><trkpt lat="39.27702515018242" lon="9.041767377631562"><ele>6.0</ele><time>2026-04-10T18:30:40Z</time></trkpt><trkpt lat="39.27689492426112" lon="9.042012732900696"><ele>6.0</ele><time>2026-04-10T18:30:41Z</time></trkpt><trkpt lat="39.27676246007565" lon="9.042259245465292"><ele>6.0</ele><time>2026-04-10T18:30:42Z</time></trkpt><trkpt lat="39.276628843019516" lon="9.042503945149242"><ele>6.0</ele><time>2026-04-10T18:30:43Z</time></trkpt><trkpt lat="39.27649772884957" lon="9.0427528387201"><ele>7.0</ele><time>2026-04-10T18:30:44Z</time></trkpt><trkpt lat="39.27636683420438" lon="9.042999372246204"><ele>8.0</ele><time>2026-04-10T18:30:45Z</time></trkpt><trkpt lat="39.2762363722661" lon="9.04324751015806"><ele>7.0</ele><time>2026-04-10T18:30:46Z</time></trkpt><trkpt lat="39.27610547765521" lon="9.043498355367092"><ele>6.0</ele><time>2026-04-10T18:30:47Z</time></trkpt><trkpt lat="39.27597493612863" lon="9.043750144244246"><ele>6.0</ele><time>2026-04-10T18:30:48Z</time></trkpt><trkpt lat="39.27584159896438" lon="9.04399622189747"><ele>6.0</ele><time>2026-04-10T18:30:49Z</time></trkpt><trkpt lat="39.27570994468088" lon="9.044241823045892"><ele>4.5</ele><time>2026-04-10T18:30:50Z</time></trkpt><trkpt lat="39.27557852874065" lon="9.04448855210127"><ele>3.0</ele><time>2026-04-10T18:30:51Z</time></trkpt><trkpt lat="39.27544349189468" lon="9.044735282464536"><ele>3.5</ele><time>2026-04-10T18:30:52Z</time></trkpt><trkpt lat="39.27530987366786" lon="9.044985775546023"><ele>4.0</ele><time>2026-04-10T18:30:53Z</time></trkpt><trkpt lat="39.27517548372404" lon="9.045237447390631"><ele>4.0</ele><time>2026-04-10T18:30:54Z</time></trkpt><trkpt lat="39.27503955186482" lon="9.045490594883459"><ele>4.0</ele><time>2026-04-10T18:30:55Z</time></trkpt><trkpt lat="39.274901408365864" lon="9.0457413735836"><ele>5.0</ele><time>2026-04-10T18:30:56Z</time></trkpt><trkpt lat="39.274767230351394" lon="9.04599285436782"><ele>6.0</ele><time>2026-04-10T18:30:57Z</time></trkpt><trkpt lat="39.27463470829038" lon="9.04624593062806"><ele>6.0</ele><time>2026-04-10T18:30:58Z</time></trkpt><trkpt lat="39.274506878439524" lon="9.046496182891477"><ele>6.0</ele><time>2026-04-10T18:30:59Z</time></trkpt><trkpt lat="39.274377641194086" lon="9.046742702753646"><ele>7.5</ele><time>2026-04-10T18:31:00Z</time></trkpt><trkpt lat="39.274250807722645" lon="9.04698919844909"><ele>9.0</ele><time>2026-04-10T18:31:01Z</time></trkpt><trkpt lat="39.274130812840546" lon="9.04724127764779"><ele>9.0</ele><time>2026-04-10T18:31:02Z</time></trkpt><trkpt lat="39.274019431516855" lon="9.047502210973821"><ele>9.0</ele><time>2026-04-10T18:31:03Z</time></trkpt><trkpt lat="39.27391576447237" lon="9.047768243106825"><ele>9.0</ele><time>2026-04-10T18:31:04Z</time></trkpt><trkpt lat="39.273822843818394" lon="9.048041074096428"><ele>9.0</ele><time>2026-04-10T18:31:05Z</time></trkpt><trkpt lat="39.273737460383416" lon="9.048318909623129"><ele>9.0</ele><time>2026-04-10T18:31:06Z</time></trkpt><trkpt lat="39.27366580176628" lon="9.048600474260875"><ele>9.0</ele><time>2026-04-10T18:31:07Z</time></trkpt><trkpt lat="39.27360138546874" lon="9.04889218932974"><ele>8.0</ele><time>2026-04-10T18:31:08Z</time></trkpt><trkpt lat="39.273545544070664" lon="9.049184020708463"><ele>7.0</ele><time>2026-04-10T18:31:09Z</time></trkpt><trkpt lat="39.27348875069178" lon="9.049474475812548"><ele>7.0</ele><time>2026-04-10T18:31:10Z</time></trkpt><trkpt lat="39.27343577733506" lon="9.049761512850305"><ele>7.0</ele><time>2026-04-10T18:31:11Z</time></trkpt><trkpt lat="39.27338501003282" lon="9.05003751477743"><ele>7.0</ele><time>2026-04-10T18:31:12Z</time></trkpt><trkpt lat="39.27333601829043" lon="9.050299836387433"><ele>7.0</ele><time>2026-04-10T18:31:13Z</time></trkpt><trkpt lat="39.27329508169335" lon="9.050548793709332"><ele>7.0</ele><time>2026-04-10T18:31:14Z</time></trkpt><trkpt lat="39.273256039246796" lon="9.050783967273748"><ele>7.0</ele><time>2026-04-10T18:31:15Z</time></trkpt><trkpt lat="39.273216908021766" lon="9.051010725748698"><ele>7.0</ele><time>2026-04-10T18:31:16Z</time></trkpt><trkpt lat="39.27317998789884" lon="9.05122813698259"><ele>7.0</ele><time>2026-04-10T18:31:17Z</time></trkpt><trkpt lat="39.27314602529728" lon="9.051431981800723"><ele>7.0</ele><time>2026-04-10T18:31:18Z</time></trkpt><trkpt lat="39.273109092115426" lon="9.051629065732314"><ele>7.0</ele><time>2026-04-10T18:31:19Z</time></trkpt><trkpt lat="39.2730756252568" lon="9.051816295879004"><ele>7.0</ele><time>2026-04-10T18:31:20Z</time></trkpt><trkpt lat="39.27304508422766" lon="9.051992889825634"><ele>7.0</ele><time>2026-04-10T18:31:21Z</time></trkpt><trkpt lat="39.27301442171513" lon="9.05216065668685"><ele>7.0</ele><time>2026-04-10T18:31:22Z</time></trkpt><trkpt lat="39.272984358217606" lon="9.052319076816504"><ele>7.0</ele><time>2026-04-10T18:31:23Z</time></trkpt><trkpt lat="39.272955153189194" lon="9.052470693014559"><ele>6.999999999999999</ele><time>2026-04-10T18:31:24Z</time></trkpt><trkpt lat="39.27292842168202" lon="9.052611760456204"><ele>6.999999999999999</ele><time>2026-04-10T18:31:25Z</time></trkpt><trkpt lat="39.27290443921092" lon="9.05274342897291"><ele>7.0</ele><time>2026-04-10T18:31:26Z</time></trkpt><trkpt lat="39.27288146131947" lon="9.052868292853056"><ele>7.0</ele><time>2026-04-10T18:31:27Z</time></trkpt><trkpt lat="39.2728592572376" lon="9.052986100446699"><ele>7.000000000000001</ele><time>2026-04-10T18:31:28Z</time></trkpt><trkpt lat="39.27283941164384" lon="9.053089496686576"><ele>7.0</ele><time>2026-04-10T18:31:29Z</time></trkpt><trkpt lat="39.27282269285125" lon="9.05318712380102"><ele>7.0</ele><time>2026-04-10T18:31:30Z</time></trkpt><trkpt lat="39.272806548594424" lon="9.053269633461827"><ele>7.0</ele><time>2026-04-10T18:31:31Z</time></trkpt><trkpt lat="39.272784164518676" lon="9.053405001916524"><ele>7.000000000000001</ele><time>2026-04-10T18:31:33Z</time></trkpt><trkpt lat="39.27276889377131" lon="9.053493618437587"><ele>7.0</ele><time>2026-04-10T18:31:35Z</time></trkpt><trkpt lat="39.27275954859307" lon="9.05357476368483"><ele>7.25</ele><time>2026-04-10T18:31:40Z</time></trkpt><trkpt lat="39.27273002448397" lon="9.05375005175297"><ele>7.5</ele><time>2026-04-10T18:32:30Z</time></trkpt><trkpt lat="39.272710610619484" lon="9.053881824389753"><ele>7.75</ele><time>2026-04-10T18:32:31Z</time></trkpt><trkpt lat="39.27268016611879" lon="9.054043669450666"><ele>8.0</ele><time>2026-04-10T18:32:32Z</time></trkpt><trkpt lat="39.272647011998295" lon="9.054228836746256"><ele>8.666666666666666</ele><time>2026-04-10T18:32:33Z</time></trkpt><trkpt lat="39.27261190001533" lon="9.054426098570795"><ele>9.333333333333334</ele><time>2026-04-10T18:32:34Z</time></trkpt><trkpt lat="39.27257123796926" lon="9.054644881842858"><ele>10.0</ele><time>2026-04-10T18:32:35Z</time></trkpt><trkpt lat="39.272530186675006" lon="9.054882066981186"><ele>9.666666666666668</ele><time>2026-04-10T18:32:36Z</time></trkpt><trkpt lat="39.272487576323414" lon="9.055127976127697"><ele>9.333333333333334</ele><time>2026-04-10T18:32:37Z</time></trkpt><trkpt lat="39.27244132477122" lon="9.055387425757953"><ele>9.0</ele><time>2026-04-10T18:32:38Z</time></trkpt><trkpt lat="39.272392216892136" lon="9.055651008646036"><ele>9.0</ele><time>2026-04-10T18:32:39Z</time></trkpt><trkpt lat="39.272335028491916" lon="9.055912302619268"><ele>9.0</ele><time>2026-04-10T18:32:40Z</time></trkpt><trkpt lat="39.27226546454164" lon="9.056177646645049"><ele>9.0</ele><time>2026-04-10T18:32:41Z</time></trkpt><trkpt lat="39.272184355492094" lon="9.056439982861718"><ele>9.333333333333334</ele><time>2026-04-10T18:32:42Z</time></trkpt><trkpt lat="39.272088406047345" lon="9.056696982729374"><ele>9.666666666666668</ele><time>2026-04-10T18:32:43Z</time></trkpt><trkpt lat="39.271976669960836" lon="9.05695042974389"><ele>10.0</ele><time>2026-04-10T18:32:44Z</time></trkpt><trkpt lat="39.27185539856782" lon="9.05719750180125"><ele>10.0</ele><time>2026-04-10T18:32:45Z</time></trkpt><trkpt lat="39.27172541184386" lon="9.057434795217471"><ele>10.0</ele><time>2026-04-10T18:32:46Z</time></trkpt><trkpt lat="39.27158504689177" lon="9.057649607204631"><ele>10.0</ele><time>2026-04-10T18:32:47Z</time></trkpt><trkpt lat="39.271440101164444" lon="9.05783495288887"><ele>10.666666666666668</ele><time>2026-04-10T18:32:48Z</time></trkpt><trkpt lat="39.27129312887429" lon="9.058000061886647"><ele>11.333333333333334</ele><time>2026-04-10T18:32:49Z</time></trkpt><trkpt lat="39.27115939580107" lon="9.058136531104575"><ele>12.0</ele><time>2026-04-10T18:32:50Z</time></trkpt><trkpt lat="39.27103819066926" lon="9.058258100689468"><ele>11.25</ele><time>2026-04-10T18:32:51Z</time></trkpt><trkpt lat="39.27093035854691" lon="9.058363332118585"><ele>10.5</ele><time>2026-04-10T18:32:52Z</time></trkpt><trkpt lat="39.270824419223764" lon="9.058463474696781"><ele>9.75</ele><time>2026-04-10T18:32:53Z</time></trkpt><trkpt lat="39.270726822754014" lon="9.058555119555413"><ele>9.0</ele><time>2026-04-10T18:32:54Z</time></trkpt><trkpt lat="39.27062736144878" lon="9.058648408457062"><ele>8.333333333333334</ele><time>2026-04-10T18:32:55Z</time></trkpt><trkpt lat="39.270517875970995" lon="9.058755915094231"><ele>7.666666666666667</ele><time>2026-04-10T18:32:56Z</time></trkpt><trkpt lat="39.27039409163331" lon="9.05888218585144"><ele>7.0</ele><time>2026-04-10T18:32:57Z</time></trkpt><trkpt lat="39.27026205002248" lon="9.059011333124612"><ele>7.333333333333334</ele><time>2026-04-10T18:32:58Z</time></trkpt><trkpt lat="39.270117590239664" lon="9.059138379843771"><ele>7.666666666666666</ele><time>2026-04-10T18:32:59Z</time></trkpt><trkpt lat="39.26996606067985" lon="9.059261581320273"><ele>8.0</ele><time>2026-04-10T18:33:00Z</time></trkpt><trkpt lat="39.26980567327068" lon="9.05937634198143"><ele>8.333333333333332</ele><time>2026-04-10T18:33:01Z</time></trkpt><trkpt lat="39.26963829108952" lon="9.059478401306968"><ele>8.666666666666666</ele><time>2026-04-10T18:33:02Z</time></trkpt><trkpt lat="39.26946531715492" lon="9.05957775630909"><ele>9.0</ele><time>2026-04-10T18:33:03Z</time></trkpt><trkpt lat="39.26928165608537" lon="9.05967031367639"><ele>9.0</ele><time>2026-04-10T18:33:04Z</time></trkpt><trkpt lat="39.26907669315318" lon="9.059751790074818"><ele>9.0</ele><time>2026-04-10T18:33:05Z</time></trkpt><trkpt lat="39.26887210330321" lon="9.059824406472357"><ele>9.0</ele><time>2026-04-10T18:33:06Z</time></trkpt><trkpt lat="39.26866580724433" lon="9.05989373141261"><ele>8.666666666666666</ele><time>2026-04-10T18:33:07Z</time></trkpt><trkpt lat="39.26845939520666" lon="9.059966108257678"><ele>8.333333333333332</ele><time>2026-04-10T18:33:08Z</time></trkpt><trkpt lat="39.26825243035833" lon="9.060040990037349"><ele>8.0</ele><time>2026-04-10T18:33:09Z</time></trkpt><trkpt lat="39.26804280841043" lon="9.060119424287556"><ele>7.666666666666666</ele><time>2026-04-10T18:33:10Z</time></trkpt><trkpt lat="39.26783660277487" lon="9.060193015526032"><ele>7.333333333333334</ele><time>2026-04-10T18:33:11Z</time></trkpt><trkpt lat="39.26763131387433" lon="9.060264860908823"><ele>7.0</ele><time>2026-04-10T18:33:12Z</time></trkpt><trkpt lat="39.26742846745446" lon="9.06033929499055"><ele>8.0</ele><time>2026-04-10T18:33:13Z</time></trkpt><trkpt lat="39.26722670696926" lon="9.06041364602425"><ele>9.0</ele><time>2026-04-10T18:33:14Z</time></trkpt><trkpt lat="39.267021935872464" lon="9.06048729158372"><ele>10.0</ele><time>2026-04-10T18:33:15Z</time></trkpt><trkpt lat="39.26681953081518" lon="9.060559443827948"><ele>10.0</ele><time>2026-04-10T18:33:16Z</time></trkpt><trkpt lat="39.26661499533159" lon="9.060632345885308"><ele>10.0</ele><time>2026-04-10T18:33:17Z</time></trkpt><trkpt lat="39.2664132140486" lon="9.060705329579527"><ele>10.0</ele><time>2026-04-10T18:33:18Z</time></trkpt><trkpt lat="39.26621103234783" lon="9.060780192205659"><ele>11.0</ele><time>2026-04-10T18:33:19Z</time></trkpt><trkpt lat="39.266008902845066" lon="9.060853206162832"><ele>12.0</ele><time>2026-04-10T18:33:20Z</time></trkpt><trkpt lat="39.26580652807153" lon="9.060924834839124"><ele>13.0</ele><time>2026-04-10T18:33:21Z</time></trkpt><trkpt lat="39.26560206764828" lon="9.06099660598766"><ele>13.333333333333332</ele><time>2026-04-10T18:33:22Z</time></trkpt><trkpt lat="39.265393684823785" lon="9.06106605654509"><ele>13.666666666666668</ele><time>2026-04-10T18:33:23Z</time></trkpt><trkpt lat="39.26518775822642" lon="9.061142882704065"><ele>14.0</ele><time>2026-04-10T18:33:24Z</time></trkpt><trkpt lat="39.26498315208702" lon="9.061219303836811"><ele>14.333333333333334</ele><time>2026-04-10T18:33:25Z</time></trkpt><trkpt lat="39.264777701983874" lon="9.061294011663737"><ele>14.666666666666668</ele><time>2026-04-10T18:33:26Z</time></trkpt><trkpt lat="39.264572831823074" lon="9.061370165626702"><ele>15.0</ele><time>2026-04-10T18:33:27Z</time></trkpt><trkpt lat="39.26437243806807" lon="9.061443830385842"><ele>15.0</ele><time>2026-04-10T18:33:28Z</time></trkpt><trkpt lat="39.264171852621196" lon="9.06151945560632"><ele>15.0</ele><time>2026-04-10T18:33:29Z</time></trkpt><trkpt lat="39.26397091395486" lon="9.061601686858483"><ele>15.0</ele><time>2026-04-10T18:33:30Z</time></trkpt><trkpt lat="39.263773349612684" lon="9.061688737778482"><ele>14.666666666666668</ele><time>2026-04-10T18:33:31Z</time></trkpt><trkpt lat="39.26358022339165" lon="9.061788330973975"><ele>14.333333333333334</ele><time>2026-04-10T18:33:32Z</time></trkpt><trkpt lat="39.26339628234287" lon="9.061897499204253"><ele>14.0</ele><time>2026-04-10T18:33:33Z</time></trkpt><trkpt lat="39.26321147605132" lon="9.062023397710428"><ele>14.0</ele><time>2026-04-10T18:33:34Z</time></trkpt><trkpt lat="39.263036744317" lon="9.062160820991535"><ele>14.0</ele><time>2026-04-10T18:33:35Z</time></trkpt><trkpt lat="39.26286413201162" lon="9.062306717611843"><ele>14.0</ele><time>2026-04-10T18:33:36Z</time></trkpt><trkpt lat="39.262695351620195" lon="9.06246594646311"><ele>14.666666666666668</ele><time>2026-04-10T18:33:37Z</time></trkpt><trkpt lat="39.26253022625621" lon="9.062636295441171"><ele>15.333333333333332</ele><time>2026-04-10T18:33:38Z</time></trkpt><trkpt lat="39.26237416875015" lon="9.062820591437077"><ele>16.0</ele><time>2026-04-10T18:33:39Z</time></trkpt><trkpt lat="39.262223327819356" lon="9.063010449642288"><ele>16.0</ele><time>2026-04-10T18:33:40Z</time></trkpt><trkpt lat="39.262076837167726" lon="9.063203536431239"><ele>16.0</ele><time>2026-04-10T18:33:41Z</time></trkpt><trkpt lat="39.26194402671954" lon="9.063412231176223"><ele>16.0</ele><time>2026-04-10T18:33:42Z</time></trkpt><trkpt lat="39.26181393363173" lon="9.063626397759634"><ele>16.0</ele><time>2026-04-10T18:33:43Z</time></trkpt><trkpt lat="39.26169491778206" lon="9.06384618508699"><ele>16.0</ele><time>2026-04-10T18:33:44Z</time></trkpt><trkpt lat="39.26158065054212" lon="9.064075577680613"><ele>16.0</ele><time>2026-04-10T18:33:45Z</time></trkpt><trkpt lat="39.26147129135615" lon="9.064305328467034"><ele>16.333333333333332</ele><time>2026-04-10T18:33:46Z</time></trkpt><trkpt lat="39.26136432619491" lon="9.06454401631105"><ele>16.666666666666668</ele><time>2026-04-10T18:33:47Z</time></trkpt><trkpt lat="39.26125931766528" lon="9.064785140794012"><ele>17.0</ele><time>2026-04-10T18:33:48Z</time></trkpt><trkpt lat="39.26115584138946" lon="9.065026219806654"><ele>17.0</ele><time>2026-04-10T18:33:49Z</time></trkpt><trkpt lat="39.261053769876675" lon="9.065272067765147"><ele>17.0</ele><time>2026-04-10T18:33:50Z</time></trkpt><trkpt lat="39.260953303880235" lon="9.065517331410122"><ele>17.0</ele><time>2026-04-10T18:33:51Z</time></trkpt><trkpt lat="39.26085059248141" lon="9.065762665131123"><ele>17.0</ele><time>2026-04-10T18:33:52Z</time></trkpt><trkpt lat="39.26074635352247" lon="9.066007120066951"><ele>17.0</ele><time>2026-04-10T18:33:53Z</time></trkpt><trkpt lat="39.26064449699126" lon="9.066245571868789"><ele>17.0</ele><time>2026-04-10T18:33:54Z</time></trkpt><trkpt lat="39.26054491332715" lon="9.066478155278386"><ele>17.666666666666668</ele><time>2026-04-10T18:33:55Z</time></trkpt><trkpt lat="39.260449579734114" lon="9.066710219854164"><ele>18.333333333333332</ele><time>2026-04-10T18:33:56Z</time></trkpt><trkpt lat="39.26035354392909" lon="9.066937013987948"><ele>19.0</ele><time>2026-04-10T18:33:57Z</time></trkpt><trkpt lat="39.26025732584781" lon="9.06717041422308"><ele>19.0</ele><time>2026-04-10T18:33:58Z</time></trkpt><trkpt lat="39.260153966109414" lon="9.06741007180008"><ele>19.0</ele><time>2026-04-10T18:33:59Z</time></trkpt><trkpt lat="39.26004711606497" lon="9.067652661218908"><ele>19.0</ele><time>2026-04-10T18:34:00Z</time></trkpt><trkpt lat="39.25994431840044" lon="9.067890348154968"><ele>19.0</ele><time>2026-04-10T18:34:01Z</time></trkpt><trkpt lat="39.25984052510446" lon="9.068138025055656"><ele>19.0</ele><time>2026-04-10T18:34:02Z</time></trkpt><trkpt lat="39.25973040950965" lon="9.06839655493942"><ele>19.0</ele><time>2026-04-10T18:34:03Z</time></trkpt><trkpt lat="39.2596210223397" lon="9.068649637455637"><ele>19.0</ele><time>2026-04-10T18:34:04Z</time></trkpt><trkpt lat="39.259513336868544" lon="9.0689011039409"><ele>19.0</ele><time>2026-04-10T18:34:05Z</time></trkpt><trkpt lat="39.25940815078162" lon="9.069148615339682"><ele>19.0</ele><time>2026-04-10T18:34:06Z</time></trkpt><trkpt lat="39.25930843337092" lon="9.069390066913927"><ele>19.0</ele><time>2026-04-10T18:34:07Z</time></trkpt><trkpt lat="39.259206527249106" lon="9.069624096919561"><ele>19.0</ele><time>2026-04-10T18:34:08Z</time></trkpt><trkpt lat="39.25910582543677" lon="9.06985699164157"><ele>19.0</ele><time>2026-04-10T18:34:09Z</time></trkpt><trkpt lat="39.2590043592061" lon="9.070088189274513"><ele>18.333333333333332</ele><time>2026-04-10T18:34:10Z</time></trkpt><trkpt lat="39.25890510481162" lon="9.070319908356185"><ele>17.666666666666668</ele><time>2026-04-10T18:34:11Z</time></trkpt><trkpt lat="39.25880699379182" lon="9.070550691198502"><ele>17.0</ele><time>2026-04-10T18:34:12Z</time></trkpt><trkpt lat="39.25870998093021" lon="9.07077965836458"><ele>16.333333333333336</ele><time>2026-04-10T18:34:13Z</time></trkpt><trkpt lat="39.25861362497416" lon="9.071005076400384"><ele>15.666666666666668</ele><time>2026-04-10T18:34:14Z</time></trkpt><trkpt lat="39.25851849971546" lon="9.07122653312982"><ele>15.0</ele><time>2026-04-10T18:34:15Z</time></trkpt><trkpt lat="39.25842650020934" lon="9.071439107111335"><ele>14.666666666666668</ele><time>2026-04-10T18:34:16Z</time></trkpt><trkpt lat="39.258337808663654" lon="9.071638626437094"><ele>14.333333333333334</ele><time>2026-04-10T18:34:17Z</time></trkpt><trkpt lat="39.25825369554471" lon="9.07183248636087"><ele>14.0</ele><time>2026-04-10T18:34:18Z</time></trkpt><trkpt lat="39.25817376487969" lon="9.072019555875773"><ele>14.333333333333334</ele><time>2026-04-10T18:34:19Z</time></trkpt><trkpt lat="39.25809613069055" lon="9.07220507977964"><ele>14.666666666666668</ele><time>2026-04-10T18:34:20Z</time></trkpt><trkpt lat="39.258018096006744" lon="9.072386775589408"><ele>15.0</ele><time>2026-04-10T18:34:21Z</time></trkpt><trkpt lat="39.25793977554247" lon="9.072564666252978"><ele>15.0</ele><time>2026-04-10T18:34:22Z</time></trkpt><trkpt lat="39.25786239837891" lon="9.072739762549958"><ele>15.0</ele><time>2026-04-10T18:34:23Z</time></trkpt><trkpt lat="39.25778465539624" lon="9.072917389494727"><ele>15.0</ele><time>2026-04-10T18:34:24Z</time></trkpt><trkpt lat="39.25770684053722" lon="9.073096878726133"><ele>15.0</ele><time>2026-04-10T18:34:25Z</time></trkpt><trkpt lat="39.25763132315829" lon="9.073271405699101"><ele>15.0</ele><time>2026-04-10T18:34:26Z</time></trkpt><trkpt lat="39.257561904057795" lon="9.073434701913227"><ele>15.0</ele><time>2026-04-10T18:34:27Z</time></trkpt><trkpt lat="39.25749124063573" lon="9.07358973613417"><ele>15.0</ele><time>2026-04-10T18:34:28Z</time></trkpt><trkpt lat="39.25742240319638" lon="9.0737331240939"><ele>15.0</ele><time>2026-04-10T18:34:29Z</time></trkpt><trkpt lat="39.25735015197774" lon="9.073874462852146"><ele>15.0</ele><time>2026-04-10T18:34:30Z</time></trkpt><trkpt lat="39.257276885827785" lon="9.074017956761471"><ele>15.0</ele><time>2026-04-10T18:34:31Z</time></trkpt><trkpt lat="39.25719997560542" lon="9.074164528374473"><ele>15.0</ele><time>2026-04-10T18:34:32Z</time></trkpt><trkpt lat="39.25712190906133" lon="9.074309984765433"><ele>15.25</ele><time>2026-04-10T18:34:33Z</time></trkpt><trkpt lat="39.25704021430668" lon="9.074455007845675"><ele>15.5</ele><time>2026-04-10T18:34:34Z</time></trkpt><trkpt lat="39.256953634330294" lon="9.074604500916704"><ele>15.75</ele><time>2026-04-10T18:34:35Z</time></trkpt><trkpt lat="39.256865085781406" lon="9.074748484315332"><ele>16.0</ele><time>2026-04-10T18:34:36Z</time></trkpt><trkpt lat="39.25677547157425" lon="9.074885966390795"><ele>16.0</ele><time>2026-04-10T18:34:37Z</time></trkpt><trkpt lat="39.25667667448484" lon="9.07501682584099"><ele>16.0</ele><time>2026-04-10T18:34:38Z</time></trkpt><trkpt lat="39.25657269903114" lon="9.075139655227119"><ele>16.0</ele><time>2026-04-10T18:34:39Z</time></trkpt><trkpt lat="39.25646584518971" lon="9.075251813451121"><ele>16.0</ele><time>2026-04-10T18:34:40Z</time></trkpt><trkpt lat="39.256356676435765" lon="9.075354488239878"><ele>16.25</ele><time>2026-04-10T18:34:41Z</time></trkpt><trkpt lat="39.25624174833994" lon="9.075442068124879"><ele>16.5</ele><time>2026-04-10T18:34:42Z</time></trkpt><trkpt lat="39.25612398869919" lon="9.075517379753219"><ele>16.75</ele><time>2026-04-10T18:34:43Z</time></trkpt><trkpt lat="39.25600959182225" lon="9.075585697377777"><ele>17.0</ele><time>2026-04-10T18:34:44Z</time></trkpt><trkpt lat="39.25589492682566" lon="9.075656007028478"><ele>17.0</ele><time>2026-04-10T18:34:45Z</time></trkpt><trkpt lat="39.255788326283906" lon="9.075741740698893"><ele>17.0</ele><time>2026-04-10T18:34:46Z</time></trkpt><trkpt lat="39.25569662143224" lon="9.075840479665574"><ele>17.0</ele><time>2026-04-10T18:34:47Z</time></trkpt><trkpt lat="39.25562283937513" lon="9.07595378868186"><ele>17.0</ele><time>2026-04-10T18:34:48Z</time></trkpt><trkpt lat="39.25556740862339" lon="9.07608265033506"><ele>16.5</ele><time>2026-04-10T18:34:49Z</time></trkpt><trkpt lat="39.2555301691338" lon="9.07622906590475"><ele>16.0</ele><time>2026-04-10T18:34:50Z</time></trkpt><trkpt lat="39.25550745241225" lon="9.07638647456868"><ele>15.5</ele><time>2026-04-10T18:34:51Z</time></trkpt><trkpt lat="39.25549865910699" lon="9.07654682390179"><ele>15.0</ele><time>2026-04-10T18:34:52Z</time></trkpt><trkpt lat="39.25551008071733" lon="9.076723743270172"><ele>14.25</ele><time>2026-04-10T18:34:53Z</time></trkpt><trkpt lat="39.255523782043824" lon="9.076901249645726"><ele>13.5</ele><time>2026-04-10T18:34:54Z</time></trkpt><trkpt lat="39.255517763903555" lon="9.07708369688628"><ele>12.75</ele><time>2026-04-10T18:34:55Z</time></trkpt><trkpt lat="39.25548630213841" lon="9.077236390901975"><ele>12.0</ele><time>2026-04-10T18:34:56Z</time></trkpt><trkpt lat="39.255438668273136" lon="9.077378787201475"><ele>12.0</ele><time>2026-04-10T18:34:57Z</time></trkpt><trkpt lat="39.25536158954713" lon="9.07752011344867"><ele>12.0</ele><time>2026-04-10T18:34:58Z</time></trkpt><trkpt lat="39.25528055127618" lon="9.077650300748822"><ele>12.0</ele><time>2026-04-10T18:34:59Z</time></trkpt><trkpt lat="39.25519311841707" lon="9.077780632734108"><ele>12.0</ele><time>2026-04-10T18:35:00Z</time></trkpt><trkpt lat="39.25510343038183" lon="9.077912132903625"><ele>12.0</ele><time>2026-04-10T18:35:01Z</time></trkpt><trkpt lat="39.25501389844049" lon="9.078040753890827"><ele>12.0</ele><time>2026-04-10T18:35:02Z</time></trkpt><trkpt lat="39.2549337926957" lon="9.078163010663122"><ele>12.0</ele><time>2026-04-10T18:35:03Z</time></trkpt><trkpt lat="39.25486184787494" lon="9.078277820267312"><ele>12.0</ele><time>2026-04-10T18:35:04Z</time></trkpt><trkpt lat="39.25479468568818" lon="9.07838662151621"><ele>10.799999999999999</ele><time>2026-04-10T18:35:05Z</time></trkpt><trkpt lat="39.2547310611243" lon="9.07849272220302"><ele>9.6</ele><time>2026-04-10T18:35:06Z</time></trkpt><trkpt lat="39.254668742321044" lon="9.07859432101036"><ele>8.399999999999999</ele><time>2026-04-10T18:35:07Z</time></trkpt><trkpt lat="39.25460559610274" lon="9.078694139433036"><ele>7.199999999999999</ele><time>2026-04-10T18:35:08Z</time></trkpt><trkpt lat="39.254538302384525" lon="9.078794473525198"><ele>6.0</ele><time>2026-04-10T18:35:09Z</time></trkpt><trkpt lat="39.254470742600304" lon="9.078898611960533"><ele>6.0</ele><time>2026-04-10T18:35:10Z</time></trkpt><trkpt lat="39.254401731292056" lon="9.078997075971738"><ele>6.0</ele><time>2026-04-10T18:35:11Z</time></trkpt><trkpt lat="39.2543335199575" lon="9.07908519969977"><ele>6.0</ele><time>2026-04-10T18:35:12Z</time></trkpt><trkpt lat="39.25425958955267" lon="9.079166100991802"><ele>6.0</ele><time>2026-04-10T18:35:13Z</time></trkpt><trkpt lat="39.254178482565884" lon="9.079239224481368"><ele>6.0</ele><time>2026-04-10T18:35:14Z</time></trkpt><trkpt lat="39.25408905746902" lon="9.079293145064462"><ele>6.6</ele><time>2026-04-10T18:35:15Z</time></trkpt><trkpt lat="39.25399294698215" lon="9.07933202681478"><ele>7.199999999999999</ele><time>2026-04-10T18:35:16Z</time></trkpt><trkpt lat="39.25389545538162" lon="9.07934464361521"><ele>7.800000000000001</ele><time>2026-04-10T18:35:17Z</time></trkpt><trkpt lat="39.253798976659255" lon="9.079328429755224"><ele>8.4</ele><time>2026-04-10T18:35:18Z</time></trkpt><trkpt lat="39.25370108136823" lon="9.07927738083543"><ele>9.0</ele><time>2026-04-10T18:35:19Z</time></trkpt><trkpt lat="39.253614212596545" lon="9.079189685098074"><ele>8.6</ele><time>2026-04-10T18:35:20Z</time></trkpt><trkpt lat="39.25354593426116" lon="9.079076016961832"><ele>8.2</ele><time>2026-04-10T18:35:21Z</time></trkpt><trkpt lat="39.25349881788102" lon="9.078953635249393"><ele>7.799999999999999</ele><time>2026-04-10T18:35:22Z</time></trkpt><trkpt lat="39.253486752091426" lon="9.07881911196269"><ele>7.3999999999999995</ele><time>2026-04-10T18:35:23Z</time></trkpt><trkpt lat="39.253505648807746" lon="9.078687259774481"><ele>7.0</ele><time>2026-04-10T18:35:24Z</time></trkpt><trkpt lat="39.253527703972765" lon="9.078555183904749"><ele>7.0</ele><time>2026-04-10T18:35:25Z</time></trkpt><trkpt lat="39.253608937844945" lon="9.078445514556464"><ele>6.999999999999999</ele><time>2026-04-10T18:35:26Z</time></trkpt><trkpt lat="39.25369941663684" lon="9.078359169916878"><ele>6.999999999999999</ele><time>2026-04-10T18:35:27Z</time></trkpt><trkpt lat="39.253797120156584" lon="9.078312046300265"><ele>7.0</ele><time>2026-04-10T18:35:28Z</time></trkpt><trkpt lat="39.253897321369784" lon="9.078292053456643"><ele>7.0</ele><time>2026-04-10T18:35:29Z</time></trkpt><trkpt lat="39.25398635292416" lon="9.078299619144188"><ele>6.833333333333334</ele><time>2026-04-10T18:35:30Z</time></trkpt><trkpt lat="39.254053421998464" lon="9.078320744002214"><ele>6.666666666666667</ele><time>2026-04-10T18:35:31Z</time></trkpt><trkpt lat="39.254119041915374" lon="9.07832969621785"><ele>6.5</ele><time>2026-04-10T18:35:32Z</time></trkpt><trkpt lat="39.25419294599073" lon="9.078357903805692"><ele>6.333333333333334</ele><time>2026-04-10T18:35:33Z</time></trkpt><trkpt lat="39.25426816858455" lon="9.078427147489341"><ele>6.166666666666667</ele><time>2026-04-10T18:35:34Z</time></trkpt><trkpt lat="39.25433055842749" lon="9.078489773725721"><ele>6.0</ele><time>2026-04-10T18:35:35Z</time></trkpt><trkpt lat="39.254388832001396" lon="9.07856500617418"><ele>6.0</ele><time>2026-04-10T18:35:36Z</time></trkpt><trkpt lat="39.254455863435346" lon="9.078619705245902"><ele>6.0</ele><time>2026-04-10T18:35:37Z</time></trkpt><trkpt lat="39.254524359983144" lon="9.078683106738987"><ele>6.0</ele><time>2026-04-10T18:35:38Z</time></trkpt><trkpt lat="39.254602259555696" lon="9.078755212347856"><ele>6.0</ele><time>2026-04-10T18:35:39Z</time></trkpt><trkpt lat="39.25470086138175" lon="9.078836389718251"><ele>6.0</ele><time>2026-04-10T18:35:40Z</time></trkpt><trkpt lat="39.25480736928257" lon="9.078932373931805"><ele>7.25</ele><time>2026-04-10T18:35:41Z</time></trkpt><trkpt lat="39.254904714494806" lon="9.079031244008666"><ele>8.5</ele><time>2026-04-10T18:35:42Z</time></trkpt><trkpt lat="39.25501358065874" lon="9.079134033505193"><ele>9.75</ele><time>2026-04-10T18:35:43Z</time></trkpt><trkpt lat="39.25510856635121" lon="9.079225824712589"><ele>11.0</ele><time>2026-04-10T18:35:44Z</time></trkpt><trkpt lat="39.255202439712164" lon="9.079317165401571"><ele>11.0</ele><time>2026-04-10T18:35:45Z</time></trkpt><trkpt lat="39.25529875247375" lon="9.079412055817455"><ele>11.0</ele><time>2026-04-10T18:35:46Z</time></trkpt><trkpt lat="39.255392400137374" lon="9.079510221653944"><ele>11.0</ele><time>2026-04-10T18:35:47Z</time></trkpt><trkpt lat="39.25548717711446" lon="9.079613194434808"><ele>11.0</ele><time>2026-04-10T18:35:48Z</time></trkpt><trkpt lat="39.25559660405231" lon="9.079723135966047"><ele>11.666666666666666</ele><time>2026-04-10T18:35:49Z</time></trkpt><trkpt lat="39.255718228348464" lon="9.079845253273216"><ele>12.333333333333332</ele><time>2026-04-10T18:35:50Z</time></trkpt><trkpt lat="39.25584762658572" lon="9.079979394924555"><ele>13.0</ele><time>2026-04-10T18:35:51Z</time></trkpt><trkpt lat="39.255980472851995" lon="9.080114516006738"><ele>13.0</ele><time>2026-04-10T18:35:52Z</time></trkpt><trkpt lat="39.25611921177437" lon="9.080258644582033"><ele>13.0</ele><time>2026-04-10T18:35:53Z</time></trkpt><trkpt lat="39.25624641221358" lon="9.080405636072213"><ele>13.0</ele><time>2026-04-10T18:35:54Z</time></trkpt><trkpt lat="39.25637560105131" lon="9.080582374215195"><ele>13.333333333333332</ele><time>2026-04-10T18:35:55Z</time></trkpt><trkpt lat="39.2565088526067" lon="9.080802295045352"><ele>13.666666666666668</ele><time>2026-04-10T18:35:56Z</time></trkpt><trkpt lat="39.25663894445145" lon="9.08103600807246"><ele>14.0</ele><time>2026-04-10T18:35:57Z</time></trkpt><trkpt lat="39.25676260737116" lon="9.08125158499392"><ele>14.0</ele><time>2026-04-10T18:35:58Z</time></trkpt><trkpt lat="39.2569018069373" lon="9.081488631946184"><ele>14.0</ele><time>2026-04-10T18:35:59Z</time></trkpt><trkpt lat="39.25704463553038" lon="9.081729622890977"><ele>14.0</ele><time>2026-04-10T18:36:00Z</time></trkpt><trkpt lat="39.25718388773908" lon="9.081960554838359"><ele>14.0</ele><time>2026-04-10T18:36:01Z</time></trkpt><trkpt lat="39.257318185927325" lon="9.082179363915222"><ele>14.0</ele><time>2026-04-10T18:36:02Z</time></trkpt><trkpt lat="39.25744489092836" lon="9.082384620025215"><ele>13.666666666666668</ele><time>2026-04-10T18:36:03Z</time></trkpt><trkpt lat="39.25757284450747" lon="9.082575891368583"><ele>13.333333333333332</ele><time>2026-04-10T18:36:04Z</time></trkpt><trkpt lat="39.25771227224499" lon="9.082755663260176"><ele>13.0</ele><time>2026-04-10T18:36:05Z</time></trkpt><trkpt lat="39.25786495446477" lon="9.082934453197478"><ele>13.0</ele><time>2026-04-10T18:36:06Z</time></trkpt><trkpt lat="39.25802383371108" lon="9.083106862284856"><ele>13.0</ele><time>2026-04-10T18:36:07Z</time></trkpt><trkpt lat="39.25819109606996" lon="9.083276528774247"><ele>13.0</ele><time>2026-04-10T18:36:08Z</time></trkpt><trkpt lat="39.258371503772395" lon="9.083442145580397"><ele>12.333333333333332</ele><time>2026-04-10T18:36:09Z</time></trkpt><trkpt lat="39.25855118814873" lon="9.083594061675193"><ele>11.666666666666666</ele><time>2026-04-10T18:36:10Z</time></trkpt><trkpt lat="39.25873287188481" lon="9.083735478733834"><ele>11.0</ele><time>2026-04-10T18:36:11Z</time></trkpt><trkpt lat="39.25891579990341" lon="9.083860142108376"><ele>11.666666666666666</ele><time>2026-04-10T18:36:12Z</time></trkpt><trkpt lat="39.259095228429445" lon="9.083966208065979"><ele>12.333333333333332</ele><time>2026-04-10T18:36:13Z</time></trkpt><trkpt lat="39.25926777638027" lon="9.084051972801207"><ele>13.0</ele><time>2026-04-10T18:36:14Z</time></trkpt><trkpt lat="39.25943774232315" lon="9.084135004618515"><ele>13.0</ele><time>2026-04-10T18:36:15Z</time></trkpt><trkpt lat="39.25961617115905" lon="9.084220688350591"><ele>13.0</ele><time>2026-04-10T18:36:16Z</time></trkpt><trkpt lat="39.25980314024241" lon="9.084311534315606"><ele>13.0</ele><time>2026-04-10T18:36:17Z</time></trkpt><trkpt lat="39.25998866384863" lon="9.084401948220805"><ele>13.333333333333332</ele><time>2026-04-10T18:36:18Z</time></trkpt><trkpt lat="39.260173020220854" lon="9.084493031931618"><ele>13.666666666666668</ele><time>2026-04-10T18:36:19Z</time></trkpt><trkpt lat="39.26033881751557" lon="9.08458716995664"><ele>14.0</ele><time>2026-04-10T18:36:20Z</time></trkpt><trkpt lat="39.26049265637598" lon="9.084692817071087"><ele>13.666666666666668</ele><time>2026-04-10T18:36:21Z</time></trkpt><trkpt lat="39.26064370814646" lon="9.084823265585268"><ele>13.333333333333332</ele><time>2026-04-10T18:36:22Z</time></trkpt><trkpt lat="39.26079157542" lon="9.084973856152907"><ele>13.0</ele><time>2026-04-10T18:36:23Z</time></trkpt><trkpt lat="39.260929841975894" lon="9.085136314486986"><ele>13.0</ele><time>2026-04-10T18:36:24Z</time></trkpt><trkpt lat="39.261058118545805" lon="9.085315413941933"><ele>13.0</ele><time>2026-04-10T18:36:25Z</time></trkpt><trkpt lat="39.261184797252184" lon="9.085526827644312"><ele>13.0</ele><time>2026-04-10T18:36:26Z</time></trkpt><trkpt lat="39.261306952868296" lon="9.085774083542125"><ele>12.5</ele><time>2026-04-10T18:36:27Z</time></trkpt><trkpt lat="39.26142532772495" lon="9.086042610049867"><ele>12.0</ele><time>2026-04-10T18:36:28Z</time></trkpt><trkpt lat="39.261537848335074" lon="9.08629441895143"><ele>12.0</ele><time>2026-04-10T18:36:29Z</time></trkpt><trkpt lat="39.26164694037224" lon="9.086540142039434"><ele>12.0</ele><time>2026-04-10T18:36:30Z</time></trkpt><trkpt lat="39.261748015774785" lon="9.086772986719621"><ele>12.0</ele><time>2026-04-10T18:36:31Z</time></trkpt><trkpt lat="39.26184074430562" lon="9.087003595874963"><ele>10.666666666666666</ele><time>2026-04-10T18:36:32Z</time></trkpt><trkpt lat="39.26191980453733" lon="9.087236908584439"><ele>9.333333333333332</ele><time>2026-04-10T18:36:33Z</time></trkpt><trkpt lat="39.26197936000204" lon="9.087469249529203"><ele>8.0</ele><time>2026-04-10T18:36:34Z</time></trkpt><trkpt lat="39.26202120093085" lon="9.087703429704517"><ele>7.666666666666666</ele><time>2026-04-10T18:36:35Z</time></trkpt><trkpt lat="39.26204313294769" lon="9.08793640101159"><ele>7.333333333333334</ele><time>2026-04-10T18:36:36Z</time></trkpt><trkpt lat="39.262041836912026" lon="9.088149052565406"><ele>7.0</ele><time>2026-04-10T18:36:37Z</time></trkpt><trkpt lat="39.26202252292786" lon="9.088358017194889"><ele>7.0</ele><time>2026-04-10T18:36:38Z</time></trkpt><trkpt lat="39.261992914007266" lon="9.088557474818984"><ele>7.0</ele><time>2026-04-10T18:36:39Z</time></trkpt><trkpt lat="39.26195191428144" lon="9.088755209724285"><ele>7.0</ele><time>2026-04-10T18:36:40Z</time></trkpt><trkpt lat="39.261898753697416" lon="9.088943102077952"><ele>7.0</ele><time>2026-04-10T18:36:41Z</time></trkpt><trkpt lat="39.26183620638479" lon="9.089123723565958"><ele>7.0</ele><time>2026-04-10T18:36:42Z</time></trkpt><trkpt lat="39.2617597446704" lon="9.089294604635691"><ele>7.0</ele><time>2026-04-10T18:36:43Z</time></trkpt><trkpt lat="39.261665926456544" lon="9.089473470856767"><ele>7.0</ele><time>2026-04-10T18:36:44Z</time></trkpt><trkpt lat="39.26154428544594" lon="9.089673200206997"><ele>7.0</ele><time>2026-04-10T18:36:45Z</time></trkpt><trkpt lat="39.26140589130204" lon="9.089881434350671"><ele>7.0</ele><time>2026-04-10T18:36:46Z</time></trkpt><trkpt lat="39.26125918138876" lon="9.090096388651"><ele>7.5</ele><time>2026-04-10T18:36:47Z</time></trkpt><trkpt lat="39.26110568782171" lon="9.09031999775942"><ele>8.0</ele><time>2026-04-10T18:36:48Z</time></trkpt><trkpt lat="39.26094731469678" lon="9.09054902522447"><ele>8.5</ele><time>2026-04-10T18:36:49Z</time></trkpt><trkpt lat="39.26078395466907" lon="9.090789046759756"><ele>9.0</ele><time>2026-04-10T18:36:50Z</time></trkpt><trkpt lat="39.26060964775927" lon="9.09104555763363"><ele>10.0</ele><time>2026-04-10T18:36:51Z</time></trkpt><trkpt lat="39.2604351441268" lon="9.091298964195921"><ele>11.0</ele><time>2026-04-10T18:36:52Z</time></trkpt><trkpt lat="39.26026120756369" lon="9.091551774478987"><ele>10.5</ele><time>2026-04-10T18:36:53Z</time></trkpt><trkpt lat="39.26009093776063" lon="9.091803496585054"><ele>10.0</ele><time>2026-04-10T18:36:54Z</time></trkpt><trkpt lat="39.25992235777141" lon="9.092054006180511"><ele>11.5</ele><time>2026-04-10T18:36:55Z</time></trkpt><trkpt lat="39.25976372313166" lon="9.09228868582977"><ele>13.0</ele><time>2026-04-10T18:36:56Z</time></trkpt><trkpt lat="39.25961448965614" lon="9.092511303891742"><ele>13.0</ele><time>2026-04-10T18:36:57Z</time></trkpt><trkpt lat="39.259476511489225" lon="9.09272060809411"><ele>13.0</ele><time>2026-04-10T18:36:58Z</time></trkpt><trkpt lat="39.25934728197772" lon="9.09292899824078"><ele>13.0</ele><time>2026-04-10T18:36:59Z</time></trkpt><trkpt lat="39.25923071170406" lon="9.093142347160851"><ele>13.0</ele><time>2026-04-10T18:37:00Z</time></trkpt><trkpt lat="39.259121825952604" lon="9.093368466935313"><ele>13.0</ele><time>2026-04-10T18:37:01Z</time></trkpt><trkpt lat="39.25901884642384" lon="9.093625197680037"><ele>13.0</ele><time>2026-04-10T18:37:02Z</time></trkpt><trkpt lat="39.25892536293984" lon="9.09390437219785"><ele>14.0</ele><time>2026-04-10T18:37:03Z</time></trkpt><trkpt lat="39.25884403205528" lon="9.094187453659805"><ele>15.0</ele><time>2026-04-10T18:37:04Z</time></trkpt><trkpt lat="39.2587985017118" lon="9.09450219678298"><ele>15.0</ele><time>2026-04-10T18:37:05Z</time></trkpt><trkpt lat="39.25877193958927" lon="9.094829025824975"><ele>15.0</ele><time>2026-04-10T18:37:06Z</time></trkpt><trkpt lat="39.25876670992249" lon="9.095160712646942"><ele>16.5</ele><time>2026-04-10T18:37:07Z</time></trkpt><trkpt lat="39.25878670207936" lon="9.095498384060496"><ele>18.0</ele><time>2026-04-10T18:37:08Z</time></trkpt><trkpt lat="39.258827761165406" lon="9.095832324196618"><ele>17.5</ele><time>2026-04-10T18:37:09Z</time></trkpt><trkpt lat="39.2588853469123" lon="9.096160451203763"><ele>17.0</ele><time>2026-04-10T18:37:10Z</time></trkpt><trkpt lat="39.258950977482634" lon="9.096484849743044"><ele>16.0</ele><time>2026-04-10T18:37:11Z</time></trkpt><trkpt lat="39.25902048611632" lon="9.096802493822139"><ele>15.0</ele><time>2026-04-10T18:37:12Z</time></trkpt><trkpt lat="39.25908535214792" lon="9.09711739813806"><ele>16.5</ele><time>2026-04-10T18:37:13Z</time></trkpt><trkpt lat="39.259145032038006" lon="9.097419884330545"><ele>18.0</ele><time>2026-04-10T18:37:14Z</time></trkpt><trkpt lat="39.25920229926865" lon="9.097715453936168"><ele>18.0</ele><time>2026-04-10T18:37:15Z</time></trkpt><trkpt lat="39.259259441806265" lon="9.098008061364375"><ele>18.0</ele><time>2026-04-10T18:37:16Z</time></trkpt><trkpt lat="39.25931568795828" lon="9.098289795472986"><ele>19.666666666666668</ele><time>2026-04-10T18:37:17Z</time></trkpt><trkpt lat="39.25937020872904" lon="9.09855600625279"><ele>21.333333333333336</ele><time>2026-04-10T18:37:18Z</time></trkpt><trkpt lat="39.25942072142597" lon="9.098808868520555"><ele>23.0</ele><time>2026-04-10T18:37:19Z</time></trkpt><trkpt lat="39.2594697894204" lon="9.099048357538077"><ele>23.0</ele><time>2026-04-10T18:37:20Z</time></trkpt><trkpt lat="39.25951652789987" lon="9.099279859662769"><ele>23.0</ele><time>2026-04-10T18:37:21Z</time></trkpt><trkpt lat="39.259563116171805" lon="9.099504626936826"><ele>23.0</ele><time>2026-04-10T18:37:22Z</time></trkpt><trkpt lat="39.259608769434706" lon="9.099723836889524"><ele>23.666666666666668</ele><time>2026-04-10T18:37:23Z</time></trkpt><trkpt lat="39.25965465177044" lon="9.099944065497537"><ele>24.333333333333336</ele><time>2026-04-10T18:37:24Z</time></trkpt><trkpt lat="39.25970058351414" lon="9.100161897435537"><ele>25.0</ele><time>2026-04-10T18:37:25Z</time></trkpt><trkpt lat="39.25974764896634" lon="9.100382256417891"><ele>23.666666666666668</ele><time>2026-04-10T18:37:26Z</time></trkpt><trkpt lat="39.259792935549115" lon="9.100602848341675"><ele>22.333333333333336</ele><time>2026-04-10T18:37:27Z</time></trkpt><trkpt lat="39.25983887816835" lon="9.100822211871662"><ele>21.0</ele><time>2026-04-10T18:37:28Z</time></trkpt><trkpt lat="39.25988319157337" lon="9.101032485158825"><ele>20.666666666666668</ele><time>2026-04-10T18:37:29Z</time></trkpt><trkpt lat="39.259924740895535" lon="9.10123169861426"><ele>20.333333333333336</ele><time>2026-04-10T18:37:30Z</time></trkpt><trkpt lat="39.259965063050366" lon="9.10142071575684"><ele>20.0</ele><time>2026-04-10T18:37:31Z</time></trkpt><trkpt lat="39.26000258998871" lon="9.101611565213071"><ele>20.5</ele><time>2026-04-10T18:37:32Z</time></trkpt><trkpt lat="39.26003600509402" lon="9.101803069959066"><ele>21.0</ele><time>2026-04-10T18:37:33Z</time></trkpt><trkpt lat="39.260061305325785" lon="9.10199434221628"><ele>21.5</ele><time>2026-04-10T18:37:34Z</time></trkpt><trkpt lat="39.260070826260126" lon="9.102177138393115"><ele>22.0</ele><time>2026-04-10T18:37:35Z</time></trkpt><trkpt lat="39.26006315921614" lon="9.102349729910317"><ele>22.0</ele><time>2026-04-10T18:37:36Z</time></trkpt><trkpt lat="39.26004140177056" lon="9.102509805416267"><ele>22.0</ele><time>2026-04-10T18:37:37Z</time></trkpt><trkpt lat="39.260012937674034" lon="9.1026636700477"><ele>22.0</ele><time>2026-04-10T18:37:38Z</time></trkpt><trkpt lat="39.25997323880208" lon="9.102813024234454"><ele>22.0</ele><time>2026-04-10T18:37:39Z</time></trkpt><trkpt lat="39.25992034934926" lon="9.102959966017007"><ele>22.0</ele><time>2026-04-10T18:37:40Z</time></trkpt><trkpt lat="39.259860417693744" lon="9.103106676903575"><ele>22.0</ele><time>2026-04-10T18:37:41Z</time></trkpt><trkpt lat="39.25979833171627" lon="9.103254883520746"><ele>22.0</ele><time>2026-04-10T18:37:42Z</time></trkpt><trkpt lat="39.25973699360193" lon="9.103402878258942"><ele>22.0</ele><time>2026-04-10T18:37:43Z</time></trkpt><trkpt lat="39.259670650010065" lon="9.10355064983178"><ele>23.25</ele><time>2026-04-10T18:37:44Z</time></trkpt><trkpt lat="39.25960339834382" lon="9.103702189558486"><ele>24.5</ele><time>2026-04-10T18:37:45Z</time></trkpt><trkpt lat="39.259538652222695" lon="9.103858303655699"><ele>25.75</ele><time>2026-04-10T18:37:46Z</time></trkpt><trkpt lat="39.25947615328981" lon="9.10401342445384"><ele>27.0</ele><time>2026-04-10T18:37:47Z</time></trkpt><trkpt lat="39.259410422643015" lon="9.10416996371015"><ele>28.0</ele><time>2026-04-10T18:37:48Z</time></trkpt><trkpt lat="39.25934249509913" lon="9.104339132742941"><ele>29.0</ele><time>2026-04-10T18:37:49Z</time></trkpt><trkpt lat="39.259269926258284" lon="9.10452258030531"><ele>30.0</ele><time>2026-04-10T18:37:50Z</time></trkpt><trkpt lat="39.259193107248585" lon="9.104709987307428"><ele>30.333333333333336</ele><time>2026-04-10T18:37:51Z</time></trkpt><trkpt lat="39.25910530639318" lon="9.104922114748272"><ele>30.666666666666668</ele><time>2026-04-10T18:37:52Z</time></trkpt><trkpt lat="39.25901778288281" lon="9.105139131126238"><ele>31.0</ele><time>2026-04-10T18:37:53Z</time></trkpt><trkpt lat="39.25892911229528" lon="9.105362359406554"><ele>33.333333333333336</ele><time>2026-04-10T18:37:54Z</time></trkpt><trkpt lat="39.25884082836358" lon="9.105584863369598"><ele>35.666666666666664</ele><time>2026-04-10T18:37:55Z</time></trkpt><trkpt lat="39.25875115613939" lon="9.105810319176696"><ele>38.0</ele><time>2026-04-10T18:37:56Z</time></trkpt><trkpt lat="39.25866099504315" lon="9.106033603611529"><ele>38.33333333333333</ele><time>2026-04-10T18:37:57Z</time></trkpt><trkpt lat="39.258574167254736" lon="9.106252154784693"><ele>38.666666666666664</ele><time>2026-04-10T18:37:58Z</time></trkpt><trkpt lat="39.25849514393817" lon="9.106451098398507"><ele>39.0</ele><time>2026-04-10T18:37:59Z</time></trkpt><trkpt lat="39.25842279907587" lon="9.106639226712321"><ele>39.0</ele><time>2026-04-10T18:38:00Z</time></trkpt><trkpt lat="39.25836429142985" lon="9.106812273577068"><ele>39.0</ele><time>2026-04-10T18:38:01Z</time></trkpt><trkpt lat="39.258325558073466" lon="9.106978071698013"><ele>39.0</ele><time>2026-04-10T18:38:02Z</time></trkpt><trkpt lat="39.25830905358142" lon="9.107138997153552"><ele>39.0</ele><time>2026-04-10T18:38:03Z</time></trkpt><trkpt lat="39.25831333560074" lon="9.107301957908911"><ele>38.75</ele><time>2026-04-10T18:38:04Z</time></trkpt><trkpt lat="39.258331531645794" lon="9.107470233699777"><ele>38.5</ele><time>2026-04-10T18:38:05Z</time></trkpt><trkpt lat="39.258354684598565" lon="9.107633302727125"><ele>38.25</ele><time>2026-04-10T18:38:06Z</time></trkpt><trkpt lat="39.25837452651221" lon="9.107790064004803"><ele>38.0</ele><time>2026-04-10T18:38:07Z</time></trkpt><trkpt lat="39.258385773651106" lon="9.107940898663461"><ele>38.0</ele><time>2026-04-10T18:38:08Z</time></trkpt><trkpt lat="39.25839674647546" lon="9.108097310845995"><ele>38.0</ele><time>2026-04-10T18:38:09Z</time></trkpt><trkpt lat="39.25840271589678" lon="9.10825112517982"><ele>38.0</ele><time>2026-04-10T18:38:10Z</time></trkpt><trkpt lat="39.25839905561305" lon="9.108399741186712"><ele>38.0</ele><time>2026-04-10T18:38:11Z</time></trkpt><trkpt lat="39.25838338308474" lon="9.1085434915816"><ele>38.5</ele><time>2026-04-10T18:38:12Z</time></trkpt><trkpt lat="39.258350364690614" lon="9.108671787198462"><ele>39.0</ele><time>2026-04-10T18:38:13Z</time></trkpt><trkpt lat="39.25830580998264" lon="9.108781311743785"><ele>39.5</ele><time>2026-04-10T18:38:14Z</time></trkpt><trkpt lat="39.258259538935135" lon="9.108868243636683"><ele>40.0</ele><time>2026-04-10T18:38:15Z</time></trkpt><trkpt lat="39.25821275548893" lon="9.108948250848345"><ele>40.5</ele><time>2026-04-10T18:38:16Z</time></trkpt><trkpt lat="39.25816027277215" lon="9.109020691277257"><ele>41.0</ele><time>2026-04-10T18:38:17Z</time></trkpt><trkpt lat="39.25809114241657" lon="9.109104875299982"><ele>42.0</ele><time>2026-04-10T18:38:18Z</time></trkpt><trkpt lat="39.25801700053868" lon="9.109195282723428"><ele>43.0</ele><time>2026-04-10T18:38:19Z</time></trkpt><trkpt lat="39.25794872654365" lon="9.109280259459444"><ele>44.0</ele><time>2026-04-10T18:38:20Z</time></trkpt><trkpt lat="39.25789103386065" lon="9.109349056273812"><ele>45.0</ele><time>2026-04-10T18:38:21Z</time></trkpt><trkpt lat="39.257827516587135" lon="9.109421750962163"><ele>46.0</ele><time>2026-04-10T18:38:23Z</time></trkpt><trkpt lat="39.25778204968808" lon="9.10949300409629"><ele>47.0</ele><time>2026-04-10T18:38:25Z</time></trkpt><trkpt lat="39.25768785800055" lon="9.109608146925353"><ele>47.0</ele><time>2026-04-10T18:38:27Z</time></trkpt><trkpt lat="39.25761646362741" lon="9.109688700807444"><ele>47.0</ele><time>2026-04-10T18:38:28Z</time></trkpt><trkpt lat="39.257542429214936" lon="9.109777099384507"><ele>47.0</ele><time>2026-04-10T18:38:29Z</time></trkpt><trkpt lat="39.257458092228525" lon="9.109869126916028"><ele>47.0</ele><time>2026-04-10T18:38:30Z</time></trkpt><trkpt lat="39.257371853895386" lon="9.109965009150004"><ele>47.0</ele><time>2026-04-10T18:38:31Z</time></trkpt><trkpt lat="39.25728220078436" lon="9.1100670777378"><ele>47.5</ele><time>2026-04-10T18:38:32Z</time></trkpt><trkpt lat="39.25718839665811" lon="9.110167227074967"><ele>48.0</ele><time>2026-04-10T18:38:33Z</time></trkpt><trkpt lat="39.257090760592355" lon="9.110270211813544"><ele>48.5</ele><time>2026-04-10T18:38:34Z</time></trkpt><trkpt lat="39.256997286331604" lon="9.110374886689034"><ele>49.0</ele><time>2026-04-10T18:38:35Z</time></trkpt><trkpt lat="39.25688403650475" lon="9.11050597218514"><ele>49.0</ele><time>2026-04-10T18:38:36Z</time></trkpt><trkpt lat="39.25673452138315" lon="9.11067680528705"><ele>49.0</ele><time>2026-04-10T18:38:37Z</time></trkpt><trkpt lat="39.25658054493797" lon="9.110837377540019"><ele>49.0</ele><time>2026-04-10T18:38:38Z</time></trkpt><trkpt lat="39.25641736571626" lon="9.110998829707972"><ele>49.33333333333333</ele><time>2026-04-10T18:38:39Z</time></trkpt><trkpt lat="39.256231998655046" lon="9.11115146555243"><ele>49.66666666666667</ele><time>2026-04-10T18:38:40Z</time></trkpt><trkpt lat="39.256041589819596" lon="9.111290547194432"><ele>50.0</ele><time>2026-04-10T18:38:41Z</time></trkpt><trkpt lat="39.25584781006676" lon="9.111417802757249"><ele>50.0</ele><time>2026-04-10T18:38:42Z</time></trkpt><trkpt lat="39.255661589397" lon="9.111538888678387"><ele>50.0</ele><time>2026-04-10T18:38:43Z</time></trkpt><trkpt lat="39.255485952437404" lon="9.111640632747505"><ele>50.0</ele><time>2026-04-10T18:38:44Z</time></trkpt><trkpt lat="39.25532090936899" lon="9.111741475203107"><ele>51.66666666666667</ele><time>2026-04-10T18:38:45Z</time></trkpt><trkpt lat="39.255164549466684" lon="9.111840883476791"><ele>53.33333333333333</ele><time>2026-04-10T18:38:46Z</time></trkpt><trkpt lat="39.25500380145848" lon="9.111943883319256"><ele>55.0</ele><time>2026-04-10T18:38:47Z</time></trkpt><trkpt lat="39.25483874954437" lon="9.112054209640355"><ele>55.0</ele><time>2026-04-10T18:38:48Z</time></trkpt><trkpt lat="39.25466040110185" lon="9.112176798340995"><ele>55.0</ele><time>2026-04-10T18:38:49Z</time></trkpt><trkpt lat="39.25446435348541" lon="9.11230992707568"><ele>55.0</ele><time>2026-04-10T18:38:50Z</time></trkpt><trkpt lat="39.25427753229309" lon="9.112434526504089"><ele>54.33333333333333</ele><time>2026-04-10T18:38:51Z</time></trkpt><trkpt lat="39.25409927826679" lon="9.11254814628989"><ele>53.66666666666667</ele><time>2026-04-10T18:38:52Z</time></trkpt><trkpt lat="39.253928191792916" lon="9.112656170856432"><ele>53.0</ele><time>2026-04-10T18:38:53Z</time></trkpt><trkpt lat="39.253763766667596" lon="9.112762142743028"><ele>51.66666666666667</ele><time>2026-04-10T18:38:54Z</time></trkpt><trkpt lat="39.253599486656505" lon="9.112866083482036"><ele>50.33333333333333</ele><time>2026-04-10T18:38:55Z</time></trkpt><trkpt lat="39.25343885273398" lon="9.11296738328882"><ele>49.0</ele><time>2026-04-10T18:38:56Z</time></trkpt><trkpt lat="39.25328645349018" lon="9.113062237968103"><ele>49.0</ele><time>2026-04-10T18:38:57Z</time></trkpt><trkpt lat="39.253125951682875" lon="9.113164833655349"><ele>49.0</ele><time>2026-04-10T18:38:58Z</time></trkpt><trkpt lat="39.252965203062715" lon="9.11326983021851"><ele>49.0</ele><time>2026-04-10T18:38:59Z</time></trkpt><trkpt lat="39.25279702281835" lon="9.11337722619362"><ele>46.33333333333333</ele><time>2026-04-10T18:39:00Z</time></trkpt><trkpt lat="39.25261804788008" lon="9.11349170966506"><ele>43.666666666666664</ele><time>2026-04-10T18:39:01Z</time></trkpt><trkpt lat="39.252433772771745" lon="9.113605677863731"><ele>41.0</ele><time>2026-04-10T18:39:02Z</time></trkpt><trkpt lat="39.25224014158703" lon="9.113724348853198"><ele>39.666666666666664</ele><time>2026-04-10T18:39:03Z</time></trkpt><trkpt lat="39.252040992193606" lon="9.113842519709866"><ele>38.333333333333336</ele><time>2026-04-10T18:39:04Z</time></trkpt><trkpt lat="39.251843402188435" lon="9.113952441181707"><ele>37.0</ele><time>2026-04-10T18:39:05Z</time></trkpt><trkpt lat="39.25163364475426" lon="9.114059327221458"><ele>34.5</ele><time>2026-04-10T18:39:06Z</time></trkpt><trkpt lat="39.25141349780083" lon="9.114158685642062"><ele>32.0</ele><time>2026-04-10T18:39:07Z</time></trkpt><trkpt lat="39.25119061464646" lon="9.11425179533427"><ele>32.0</ele><time>2026-04-10T18:39:08Z</time></trkpt><trkpt lat="39.250962002433326" lon="9.114341431561563"><ele>32.0</ele><time>2026-04-10T18:39:09Z</time></trkpt><trkpt lat="39.25073215896051" lon="9.114431044725134"><ele>31.5</ele><time>2026-04-10T18:39:10Z</time></trkpt><trkpt lat="39.25050110712108" lon="9.11452609213274"><ele>31.0</ele><time>2026-04-10T18:39:11Z</time></trkpt><trkpt lat="39.25026883218744" lon="9.114619869310978"><ele>31.0</ele><time>2026-04-10T18:39:12Z</time></trkpt><trkpt lat="39.2500364002407" lon="9.114710350345815"><ele>31.0</ele><time>2026-04-10T18:39:13Z</time></trkpt><trkpt lat="39.249799769056914" lon="9.114804908720007"><ele>30.5</ele><time>2026-04-10T18:39:14Z</time></trkpt><trkpt lat="39.249560592515024" lon="9.114899846902325"><ele>30.0</ele><time>2026-04-10T18:39:15Z</time></trkpt><trkpt lat="39.24931900303584" lon="9.114997334824732"><ele>29.5</ele><time>2026-04-10T18:39:16Z</time></trkpt><trkpt lat="39.24907319873842" lon="9.115095669490962"><ele>29.0</ele><time>2026-04-10T18:39:17Z</time></trkpt><trkpt lat="39.24882482720777" lon="9.115195631396588"><ele>26.5</ele><time>2026-04-10T18:39:18Z</time></trkpt><trkpt lat="39.24857188094713" lon="9.115294302842187"><ele>24.0</ele><time>2026-04-10T18:39:19Z</time></trkpt><trkpt lat="39.24831242320781" lon="9.115393768549868"><ele>25.0</ele><time>2026-04-10T18:39:20Z</time></trkpt><trkpt lat="39.248050150489924" lon="9.115495516475482"><ele>26.0</ele><time>2026-04-10T18:39:21Z</time></trkpt><trkpt lat="39.24778514479748" lon="9.115602458740558"><ele>26.0</ele><time>2026-04-10T18:39:22Z</time></trkpt><trkpt lat="39.2475292634882" lon="9.115706285185878"><ele>26.0</ele><time>2026-04-10T18:39:23Z</time></trkpt><trkpt lat="39.247289711006154" lon="9.115802620667417"><ele>26.5</ele><time>2026-04-10T18:39:24Z</time></trkpt><trkpt lat="39.247057595948036" lon="9.11589958774147"><ele>27.0</ele><time>2026-04-10T18:39:25Z</time></trkpt><trkpt lat="39.24683625577492" lon="9.11599025443452"><ele>27.0</ele><time>2026-04-10T18:39:26Z</time></trkpt><trkpt lat="39.24661494112075" lon="9.116078163204742"><ele>27.0</ele><time>2026-04-10T18:39:27Z</time></trkpt><trkpt lat="39.246395168472276" lon="9.116166130958945"><ele>27.5</ele><time>2026-04-10T18:39:28Z</time></trkpt><trkpt lat="39.24617081423858" lon="9.11625774172469"><ele>28.0</ele><time>2026-04-10T18:39:29Z</time></trkpt><trkpt lat="39.245943656449235" lon="9.116350076550228"><ele>28.0</ele><time>2026-04-10T18:39:30Z</time></trkpt><trkpt lat="39.24572022250395" lon="9.116439368109074"><ele>28.0</ele><time>2026-04-10T18:39:31Z</time></trkpt><trkpt lat="39.24549532911572" lon="9.116526702357646"><ele>26.5</ele><time>2026-04-10T18:39:32Z</time></trkpt><trkpt lat="39.245270988511294" lon="9.116615645065664"><ele>25.0</ele><time>2026-04-10T18:39:33Z</time></trkpt><trkpt lat="39.245045182998005" lon="9.11670410257613"><ele>25.0</ele><time>2026-04-10T18:39:34Z</time></trkpt><trkpt lat="39.2448208258663" lon="9.116793690438987"><ele>25.0</ele><time>2026-04-10T18:39:35Z</time></trkpt><trkpt lat="39.24459684440881" lon="9.116881251201377"><ele>26.0</ele><time>2026-04-10T18:39:36Z</time></trkpt><trkpt lat="39.24437856633927" lon="9.11696931272561"><ele>27.0</ele><time>2026-04-10T18:39:37Z</time></trkpt><trkpt lat="39.24415536732177" lon="9.117057403088449"><ele>24.5</ele><time>2026-04-10T18:39:38Z</time></trkpt><trkpt lat="39.2439268415004" lon="9.117151097821907"><ele>22.0</ele><time>2026-04-10T18:39:39Z</time></trkpt><trkpt lat="39.2436898230768" lon="9.11724304890247"><ele>22.0</ele><time>2026-04-10T18:39:40Z</time></trkpt><trkpt lat="39.24345553697009" lon="9.117338049678368"><ele>22.0</ele><time>2026-04-10T18:39:41Z</time></trkpt><trkpt lat="39.24322644404033" lon="9.117431514744297"><ele>22.0</ele><time>2026-04-10T18:39:42Z</time></trkpt><trkpt lat="39.24300022167297" lon="9.117522544995564"><ele>22.0</ele><time>2026-04-10T18:39:43Z</time></trkpt><trkpt lat="39.24278583803878" lon="9.117609975510744"><ele>22.0</ele><time>2026-04-10T18:39:44Z</time></trkpt><trkpt lat="39.24258036341372" lon="9.1176970198647"><ele>22.0</ele><time>2026-04-10T18:39:45Z</time></trkpt><trkpt lat="39.24238181063955" lon="9.117781048304408"><ele>22.0</ele><time>2026-04-10T18:39:46Z</time></trkpt><trkpt lat="39.24218912929261" lon="9.117865282770161"><ele>23.0</ele><time>2026-04-10T18:39:47Z</time></trkpt><trkpt lat="39.24199727320398" lon="9.117950449504974"><ele>24.0</ele><time>2026-04-10T18:39:48Z</time></trkpt><trkpt lat="39.24180415592784" lon="9.118034236605181"><ele>25.0</ele><time>2026-04-10T18:39:49Z</time></trkpt><trkpt lat="39.24160849336158" lon="9.118122584257017"><ele>25.666666666666668</ele><time>2026-04-10T18:39:50Z</time></trkpt><trkpt lat="39.241411539233646" lon="9.11821104033098"><ele>26.333333333333336</ele><time>2026-04-10T18:39:51Z</time></trkpt><trkpt lat="39.24121207337463" lon="9.11829965729035"><ele>27.0</ele><time>2026-04-10T18:39:52Z</time></trkpt><trkpt lat="39.241008680314486" lon="9.11839255876228"><ele>24.333333333333332</ele><time>2026-04-10T18:39:53Z</time></trkpt><trkpt lat="39.240809157386316" lon="9.118484316670044"><ele>21.666666666666664</ele><time>2026-04-10T18:39:54Z</time></trkpt><trkpt lat="39.24061387734187" lon="9.118574311831491"><ele>19.0</ele><time>2026-04-10T18:39:55Z</time></trkpt><trkpt lat="39.24042972032665" lon="9.118657843615841"><ele>19.0</ele><time>2026-04-10T18:39:56Z</time></trkpt><trkpt lat="39.24025041073438" lon="9.118741015564659"><ele>19.0</ele><time>2026-04-10T18:39:57Z</time></trkpt><trkpt lat="39.24006323034361" lon="9.118830389409435"><ele>19.0</ele><time>2026-04-10T18:39:58Z</time></trkpt><trkpt lat="39.23987833706304" lon="9.11891700432746"><ele>19.333333333333332</ele><time>2026-04-10T18:39:59Z</time></trkpt><trkpt lat="39.239693019922626" lon="9.119002655339502"><ele>19.666666666666668</ele><time>2026-04-10T18:40:00Z</time></trkpt><trkpt lat="39.23951225042199" lon="9.11908571979986"><ele>20.0</ele><time>2026-04-10T18:40:01Z</time></trkpt><trkpt lat="39.23933178102889" lon="9.119167700042867"><ele>19.0</ele><time>2026-04-10T18:40:02Z</time></trkpt><trkpt lat="39.23914539722703" lon="9.119252563299225"><ele>18.0</ele><time>2026-04-10T18:40:03Z</time></trkpt><trkpt lat="39.23894689919395" lon="9.119342023191285"><ele>17.0</ele><time>2026-04-10T18:40:04Z</time></trkpt><trkpt lat="39.2387485646321" lon="9.119430694284532"><ele>17.0</ele><time>2026-04-10T18:40:05Z</time></trkpt><trkpt lat="39.23854662067943" lon="9.119520699465236"><ele>17.0</ele><time>2026-04-10T18:40:06Z</time></trkpt><trkpt lat="39.23835249231981" lon="9.119607977761826"><ele>17.0</ele><time>2026-04-10T18:40:07Z</time></trkpt><trkpt lat="39.23816814966275" lon="9.119700115950486"><ele>17.666666666666668</ele><time>2026-04-10T18:40:08Z</time></trkpt><trkpt lat="39.23799973786897" lon="9.11980060290676"><ele>18.333333333333332</ele><time>2026-04-10T18:40:09Z</time></trkpt><trkpt lat="39.23785497248549" lon="9.119914248126898"><ele>19.0</ele><time>2026-04-10T18:40:10Z</time></trkpt><trkpt lat="39.23772858926263" lon="9.120034391875954"><ele>19.0</ele><time>2026-04-10T18:40:11Z</time></trkpt><trkpt lat="39.23762419046493" lon="9.120179270738229"><ele>19.0</ele><time>2026-04-10T18:40:12Z</time></trkpt><trkpt lat="39.237525090708" lon="9.120340167654785"><ele>19.0</ele><time>2026-04-10T18:40:13Z</time></trkpt><trkpt lat="39.237428553444765" lon="9.12053263979794"><ele>19.0</ele><time>2026-04-10T18:40:14Z</time></trkpt><trkpt lat="39.23733611562523" lon="9.120741226943236"><ele>19.0</ele><time>2026-04-10T18:40:15Z</time></trkpt><trkpt lat="39.23725190711203" lon="9.12096276036774"><ele>19.0</ele><time>2026-04-10T18:40:16Z</time></trkpt><trkpt lat="39.23717850255545" lon="9.12117906951413"><ele>19.0</ele><time>2026-04-10T18:40:17Z</time></trkpt><trkpt lat="39.23711939620441" lon="9.121412603667771"><ele>19.0</ele><time>2026-04-10T18:40:18Z</time></trkpt><trkpt lat="39.23705759774758" lon="9.121673288573604"><ele>19.0</ele><time>2026-04-10T18:40:19Z</time></trkpt><trkpt lat="39.2369942240071" lon="9.121942707311618"><ele>21.0</ele><time>2026-04-10T18:40:20Z</time></trkpt><trkpt lat="39.23692355345039" lon="9.122230696291302"><ele>23.0</ele><time>2026-04-10T18:40:21Z</time></trkpt><trkpt lat="39.236849272550366" lon="9.122519898045388"><ele>23.0</ele><time>2026-04-10T18:40:22Z</time></trkpt><trkpt lat="39.23677573393739" lon="9.122799803879781"><ele>23.0</ele><time>2026-04-10T18:40:23Z</time></trkpt><trkpt lat="39.23670099635366" lon="9.123096626492353"><ele>22.0</ele><time>2026-04-10T18:40:24Z</time></trkpt><trkpt lat="39.23662941034652" lon="9.123390640336437"><ele>21.0</ele><time>2026-04-10T18:40:25Z</time></trkpt><trkpt lat="39.23655991294153" lon="9.123674228769287"><ele>21.0</ele><time>2026-04-10T18:40:26Z</time></trkpt><trkpt lat="39.236489310825704" lon="9.123955483771356"><ele>21.0</ele><time>2026-04-10T18:40:27Z</time></trkpt><trkpt lat="39.23641763246385" lon="9.124240394363808"><ele>22.0</ele><time>2026-04-10T18:40:28Z</time></trkpt><trkpt lat="39.236345377550066" lon="9.124536009095435"><ele>23.0</ele><time>2026-04-10T18:40:29Z</time></trkpt><trkpt lat="39.23627142718615" lon="9.124830601603527"><ele>24.0</ele><time>2026-04-10T18:40:30Z</time></trkpt><trkpt lat="39.236200238151596" lon="9.12511784619461"><ele>25.0</ele><time>2026-04-10T18:40:31Z</time></trkpt><trkpt lat="39.236128341480395" lon="9.12539655780937"><ele>25.0</ele><time>2026-04-10T18:40:32Z</time></trkpt><trkpt lat="39.236056851744145" lon="9.12566739961036"><ele>25.0</ele><time>2026-04-10T18:40:33Z</time></trkpt><trkpt lat="39.23598680807023" lon="9.12593106374734"><ele>25.0</ele><time>2026-04-10T18:40:34Z</time></trkpt><trkpt lat="39.235913898497955" lon="9.126181962272604"><ele>26.666666666666668</ele><time>2026-04-10T18:40:35Z</time></trkpt><trkpt lat="39.23583033755348" lon="9.126424279865702"><ele>28.333333333333336</ele><time>2026-04-10T18:40:36Z</time></trkpt><trkpt lat="39.23572846470785" lon="9.126668436746202"><ele>30.0</ele><time>2026-04-10T18:40:37Z</time></trkpt><trkpt lat="39.235605772783984" lon="9.126894433208207"><ele>30.333333333333336</ele><time>2026-04-10T18:40:38Z</time></trkpt><trkpt lat="39.23548382609529" lon="9.12711481569151"><ele>30.666666666666668</ele><time>2026-04-10T18:40:39Z</time></trkpt><trkpt lat="39.23536774165514" lon="9.127361196792263"><ele>31.0</ele><time>2026-04-10T18:40:40Z</time></trkpt><trkpt lat="39.235252837145055" lon="9.127623782457174"><ele>31.5</ele><time>2026-04-10T18:40:41Z</time></trkpt><trkpt lat="39.235140225148534" lon="9.127898870116946"><ele>32.0</ele><time>2026-04-10T18:40:42Z</time></trkpt><trkpt lat="39.23502244488501" lon="9.128179009900112"><ele>33.0</ele><time>2026-04-10T18:40:43Z</time></trkpt><trkpt lat="39.2349033565634" lon="9.128466715760831"><ele>34.0</ele><time>2026-04-10T18:40:44Z</time></trkpt><trkpt lat="39.23478520285394" lon="9.128758472104758"><ele>34.0</ele><time>2026-04-10T18:40:45Z</time></trkpt><trkpt lat="39.23466420241144" lon="9.129052349738465"><ele>34.0</ele><time>2026-04-10T18:40:46Z</time></trkpt><trkpt lat="39.23454531656856" lon="9.129338165647646"><ele>34.0</ele><time>2026-04-10T18:40:47Z</time></trkpt><trkpt lat="39.23443541055045" lon="9.129606424704997"><ele>34.0</ele><time>2026-04-10T18:40:48Z</time></trkpt><trkpt lat="39.23433080242712" lon="9.129859138314153"><ele>33.0</ele><time>2026-04-10T18:40:49Z</time></trkpt><trkpt lat="39.23422681225709" lon="9.130109770536599"><ele>32.0</ele><time>2026-04-10T18:40:50Z</time></trkpt><trkpt lat="39.23411782959839" lon="9.13037059274778"><ele>32.0</ele><time>2026-04-10T18:40:51Z</time></trkpt><trkpt lat="39.234007851575925" lon="9.130635134235206"><ele>32.0</ele><time>2026-04-10T18:40:52Z</time></trkpt><trkpt lat="39.233900274822076" lon="9.130896875415457"><ele>29.0</ele><time>2026-04-10T18:40:53Z</time></trkpt><trkpt lat="39.23379402433401" lon="9.13115366130424"><ele>26.0</ele><time>2026-04-10T18:40:54Z</time></trkpt><trkpt lat="39.233682631150664" lon="9.131419825084516"><ele>23.5</ele><time>2026-04-10T18:40:55Z</time></trkpt><trkpt lat="39.23356530525516" lon="9.131700963279279"><ele>21.0</ele><time>2026-04-10T18:40:56Z</time></trkpt><trkpt lat="39.23344517079608" lon="9.131988015983506"><ele>21.0</ele><time>2026-04-10T18:40:57Z</time></trkpt><trkpt lat="39.233328038768" lon="9.132258233198309"><ele>21.0</ele><time>2026-04-10T18:40:58Z</time></trkpt><trkpt lat="39.23321632004254" lon="9.132511571648484"><ele>18.0</ele><time>2026-04-10T18:40:59Z</time></trkpt><trkpt lat="39.233103035649556" lon="9.132768546228808"><ele>15.0</ele><time>2026-04-10T18:41:00Z</time></trkpt><trkpt lat="39.23298755199535" lon="9.13302702696929"><ele>14.333333333333332</ele><time>2026-04-10T18:41:01Z</time></trkpt><trkpt lat="39.23287271544875" lon="9.133277220682224"><ele>13.666666666666666</ele><time>2026-04-10T18:41:02Z</time></trkpt><trkpt lat="39.232757682983525" lon="9.133523916002988"><ele>13.0</ele><time>2026-04-10T18:41:03Z</time></trkpt><trkpt lat="39.2326380153816" lon="9.133771840771022"><ele>13.0</ele><time>2026-04-10T18:41:04Z</time></trkpt><trkpt lat="39.23251971842744" lon="9.13400735005571"><ele>13.0</ele><time>2026-04-10T18:41:05Z</time></trkpt><trkpt lat="39.23240148274421" lon="9.134234409006075"><ele>13.0</ele><time>2026-04-10T18:41:06Z</time></trkpt><trkpt lat="39.232282877159115" lon="9.134443996829107"><ele>13.0</ele><time>2026-04-10T18:41:07Z</time></trkpt><trkpt lat="39.232165434155796" lon="9.134642787994213"><ele>13.0</ele><time>2026-04-10T18:41:08Z</time></trkpt><trkpt lat="39.23204941362733" lon="9.134834256164316"><ele>13.0</ele><time>2026-04-10T18:41:09Z</time></trkpt><trkpt lat="39.23193591442833" lon="9.135016715431728"><ele>11.333333333333332</ele><time>2026-04-10T18:41:10Z</time></trkpt><trkpt lat="39.231819194334776" lon="9.135197422304387"><ele>9.666666666666666</ele><time>2026-04-10T18:41:11Z</time></trkpt><trkpt lat="39.23169779482608" lon="9.135370226457226"><ele>8.0</ele><time>2026-04-10T18:41:12Z</time></trkpt><trkpt lat="39.23156434104565" lon="9.135545796952233"><ele>8.0</ele><time>2026-04-10T18:41:13Z</time></trkpt><trkpt lat="39.231422233978364" lon="9.135719743523874"><ele>8.0</ele><time>2026-04-10T18:41:14Z</time></trkpt><trkpt lat="39.23127375479233" lon="9.135881689450718"><ele>8.0</ele><time>2026-04-10T18:41:15Z</time></trkpt><trkpt lat="39.23112007431558" lon="9.13602575163901"><ele>7.666666666666666</ele><time>2026-04-10T18:41:16Z</time></trkpt><trkpt lat="39.230953896573034" lon="9.136169090838894"><ele>7.333333333333334</ele><time>2026-04-10T18:41:17Z</time></trkpt><trkpt lat="39.23078182985683" lon="9.136304672467519"><ele>7.0</ele><time>2026-04-10T18:41:18Z</time></trkpt><trkpt lat="39.23059316129369" lon="9.13643488141423"><ele>6.0</ele><time>2026-04-10T18:41:19Z</time></trkpt><trkpt lat="39.230396572211795" lon="9.136556293931832"><ele>5.0</ele><time>2026-04-10T18:41:20Z</time></trkpt><trkpt lat="39.23020027836994" lon="9.13666174996906"><ele>4.0</ele><time>2026-04-10T18:41:21Z</time></trkpt><trkpt lat="39.23000831450006" lon="9.136742297645547"><ele>4.0</ele><time>2026-04-10T18:41:22Z</time></trkpt><trkpt lat="39.22981397587777" lon="9.136814896448936"><ele>4.0</ele><time>2026-04-10T18:41:23Z</time></trkpt><trkpt lat="39.229615426595984" lon="9.136877476755751"><ele>4.0</ele><time>2026-04-10T18:41:24Z</time></trkpt><trkpt lat="39.229402977243105" lon="9.136943764658694"><ele>4.5</ele><time>2026-04-10T18:41:25Z</time></trkpt><trkpt lat="39.229174920336426" lon="9.137008859479048"><ele>5.0</ele><time>2026-04-10T18:41:26Z</time></trkpt><trkpt lat="39.22893955771612" lon="9.137076834100396"><ele>5.0</ele><time>2026-04-10T18:41:27Z</time></trkpt><trkpt lat="39.22870528972185" lon="9.137145206604893"><ele>5.0</ele><time>2026-04-10T18:41:28Z</time></trkpt><trkpt lat="39.22846169938211" lon="9.137217233248137"><ele>5.0</ele><time>2026-04-10T18:41:29Z</time></trkpt><trkpt lat="39.22821433414457" lon="9.137290722805517"><ele>5.0</ele><time>2026-04-10T18:41:30Z</time></trkpt><trkpt lat="39.22796954907213" lon="9.137363683842967"><ele>4.5</ele><time>2026-04-10T18:41:31Z</time></trkpt><trkpt lat="39.22772999382463" lon="9.13743814851177"><ele>4.0</ele><time>2026-04-10T18:41:32Z</time></trkpt><trkpt lat="39.227489883992156" lon="9.137508869178804"><ele>4.0</ele><time>2026-04-10T18:41:33Z</time></trkpt><trkpt lat="39.22725401738684" lon="9.13757925124401"><ele>4.0</ele><time>2026-04-10T18:41:34Z</time></trkpt><trkpt lat="39.227020172899735" lon="9.137648007467364"><ele>4.0</ele><time>2026-04-10T18:41:35Z</time></trkpt><trkpt lat="39.22678326117492" lon="9.137719266869402"><ele>4.0</ele><time>2026-04-10T18:41:36Z</time></trkpt><trkpt lat="39.226542548144785" lon="9.137788940110308"><ele>5.5</ele><time>2026-04-10T18:41:37Z</time></trkpt><trkpt lat="39.226303810410094" lon="9.137863086063312"><ele>7.0</ele><time>2026-04-10T18:41:38Z</time></trkpt><trkpt lat="39.22607191579669" lon="9.137934286161116"><ele>7.0</ele><time>2026-04-10T18:41:39Z</time></trkpt><trkpt lat="39.225841530446" lon="9.138002908572119"><ele>7.0</ele><time>2026-04-10T18:41:40Z</time></trkpt><trkpt lat="39.225599815512304" lon="9.138074236336296"><ele>6.5</ele><time>2026-04-10T18:41:41Z</time></trkpt><trkpt lat="39.22534414944514" lon="9.138147494301299"><ele>6.0</ele><time>2026-04-10T18:41:42Z</time></trkpt><trkpt lat="39.22506390965664" lon="9.13813520484798"><ele>6.5</ele><time>2026-04-10T18:41:43Z</time></trkpt><trkpt lat="39.224792837885545" lon="9.138191753924831"><ele>7.0</ele><time>2026-04-10T18:41:44Z</time></trkpt><trkpt lat="39.22451957833444" lon="9.13823904857108"><ele>6.0</ele><time>2026-04-10T18:41:45Z</time></trkpt><trkpt lat="39.224246751840305" lon="9.138295906012472"><ele>5.0</ele><time>2026-04-10T18:41:46Z</time></trkpt><trkpt lat="39.22399601440367" lon="9.138562114766392"><ele>7.0</ele><time>2026-04-10T18:41:47Z</time></trkpt><trkpt lat="39.223732614371414" lon="9.138649306433685"><ele>9.0</ele><time>2026-04-10T18:41:48Z</time></trkpt><trkpt lat="39.22347164449245" lon="9.138736839047132"><ele>9.0</ele><time>2026-04-10T18:41:49Z</time></trkpt><trkpt lat="39.22321555188262" lon="9.13882254307882"><ele>9.0</ele><time>2026-04-10T18:41:50Z</time></trkpt><trkpt lat="39.222978893487955" lon="9.138901812951186"><ele>9.0</ele><time>2026-04-10T18:41:51Z</time></trkpt><trkpt lat="39.22275437030612" lon="9.138979691799781"><ele>9.0</ele><time>2026-04-10T18:41:52Z</time></trkpt><trkpt lat="39.22252859811844" lon="9.139060413561047"><ele>7.0</ele><time>2026-04-10T18:41:53Z</time></trkpt><trkpt lat="39.22229404207583" lon="9.139145339038729"><ele>5.0</ele><time>2026-04-10T18:41:54Z</time></trkpt><trkpt lat="39.222058066794325" lon="9.139228198594422"><ele>5.0</ele><time>2026-04-10T18:41:55Z</time></trkpt><trkpt lat="39.221824065204814" lon="9.139307898816911"><ele>5.0</ele><time>2026-04-10T18:41:56Z</time></trkpt><trkpt lat="39.22159035056952" lon="9.139385850365251"><ele>5.0</ele><time>2026-04-10T18:41:57Z</time></trkpt><trkpt lat="39.2213647122099" lon="9.139461902300988"><ele>5.0</ele><time>2026-04-10T18:41:58Z</time></trkpt><trkpt lat="39.22113386430247" lon="9.139538464602373"><ele>5.0</ele><time>2026-04-10T18:41:59Z</time></trkpt><trkpt lat="39.220902129388065" lon="9.139618858232483"><ele>5.0</ele><time>2026-04-10T18:42:00Z</time></trkpt><trkpt lat="39.22067795937653" lon="9.139696044472524"><ele>5.0</ele><time>2026-04-10T18:42:01Z</time></trkpt><trkpt lat="39.22046247247155" lon="9.139770621911685"><ele>5.0</ele><time>2026-04-10T18:42:02Z</time></trkpt><trkpt lat="39.22025103894876" lon="9.13985050578415"><ele>5.0</ele><time>2026-04-10T18:42:03Z</time></trkpt><trkpt lat="39.220048991916" lon="9.139942507990682"><ele>4.666666666666667</ele><time>2026-04-10T18:42:04Z</time></trkpt><trkpt lat="39.21984495596991" lon="9.14003918578192"><ele>4.333333333333333</ele><time>2026-04-10T18:42:05Z</time></trkpt><trkpt lat="39.2196412482626" lon="9.140142389100589"><ele>4.0</ele><time>2026-04-10T18:42:06Z</time></trkpt><trkpt lat="39.21943681936259" lon="9.140248167341747"><ele>4.0</ele><time>2026-04-10T18:42:07Z</time></trkpt><trkpt lat="39.21923348973318" lon="9.140358521954814"><ele>4.0</ele><time>2026-04-10T18:42:08Z</time></trkpt><trkpt lat="39.21903215282425" lon="9.140473768729866"><ele>4.0</ele><time>2026-04-10T18:42:09Z</time></trkpt><trkpt lat="39.21882996188665" lon="9.140596190674371"><ele>3.5</ele><time>2026-04-10T18:42:10Z</time></trkpt><trkpt lat="39.21863068479731" lon="9.140725009007781"><ele>3.0</ele><time>2026-04-10T18:42:11Z</time></trkpt><trkpt lat="39.218429602823825" lon="9.14086489341274"><ele>3.0</ele><time>2026-04-10T18:42:12Z</time></trkpt><trkpt lat="39.21823004370902" lon="9.141017575486293"><ele>3.0</ele><time>2026-04-10T18:42:13Z</time></trkpt><trkpt lat="39.21803651564356" lon="9.14117216135056"><ele>4.5</ele><time>2026-04-10T18:42:14Z</time></trkpt><trkpt lat="39.217838112604205" lon="9.141326234520259"><ele>6.0</ele><time>2026-04-10T18:42:15Z</time></trkpt><trkpt lat="39.217644102661595" lon="9.141475954885394"><ele>6.0</ele><time>2026-04-10T18:42:16Z</time></trkpt><trkpt lat="39.21744458473576" lon="9.141627813910384"><ele>6.0</ele><time>2026-04-10T18:42:17Z</time></trkpt><trkpt lat="39.217240997656866" lon="9.141776432726868"><ele>5.0</ele><time>2026-04-10T18:42:18Z</time></trkpt><trkpt lat="39.21703001247263" lon="9.141907529779486"><ele>4.0</ele><time>2026-04-10T18:42:19Z</time></trkpt><trkpt lat="39.21682965771279" lon="9.142016836748699"><ele>4.0</ele><time>2026-04-10T18:42:20Z</time></trkpt><trkpt lat="39.216629987433215" lon="9.142112476915317"><ele>4.0</ele><time>2026-04-10T18:42:21Z</time></trkpt><trkpt lat="39.21641466388762" lon="9.142207713877221"><ele>4.0</ele><time>2026-04-10T18:42:22Z</time></trkpt><trkpt lat="39.216190613934515" lon="9.142302565455681"><ele>4.0</ele><time>2026-04-10T18:42:23Z</time></trkpt><trkpt lat="39.21597588785233" lon="9.142393833474081"><ele>4.0</ele><time>2026-04-10T18:42:24Z</time></trkpt><trkpt lat="39.215773061204175" lon="9.142475188728643"><ele>4.0</ele><time>2026-04-10T18:42:25Z</time></trkpt><trkpt lat="39.215581520890034" lon="9.142554397426855"><ele>4.333333333333333</ele><time>2026-04-10T18:42:26Z</time></trkpt><trkpt lat="39.215395194289854" lon="9.142635329020692"><ele>4.666666666666667</ele><time>2026-04-10T18:42:27Z</time></trkpt><trkpt lat="39.21521912621888" lon="9.142717565244068"><ele>5.0</ele><time>2026-04-10T18:42:28Z</time></trkpt><trkpt lat="39.215044491032955" lon="9.142796353355283"><ele>5.0</ele><time>2026-04-10T18:42:29Z</time></trkpt><trkpt lat="39.21485865913301" lon="9.142874569634767"><ele>5.0</ele><time>2026-04-10T18:42:30Z</time></trkpt><trkpt lat="39.214659002134034" lon="9.14294176689607"><ele>5.0</ele><time>2026-04-10T18:42:31Z</time></trkpt><trkpt lat="39.21444394310255" lon="9.14298991725508"><ele>5.0</ele><time>2026-04-10T18:42:32Z</time></trkpt><trkpt lat="39.21422706765106" lon="9.143019107542447"><ele>5.0</ele><time>2026-04-10T18:42:33Z</time></trkpt><trkpt lat="39.21400640481016" lon="9.143031005842886"><ele>5.0</ele><time>2026-04-10T18:42:34Z</time></trkpt><trkpt lat="39.213795327431036" lon="9.14302271073928"><ele>5.333333333333334</ele><time>2026-04-10T18:42:35Z</time></trkpt><trkpt lat="39.21359614775302" lon="9.143005943179885"><ele>5.666666666666667</ele><time>2026-04-10T18:42:36Z</time></trkpt><trkpt lat="39.213385751001" lon="9.142978464572694"><ele>6.0</ele><time>2026-04-10T18:42:37Z</time></trkpt><trkpt lat="39.21317060653587" lon="9.142931745301258"><ele>5.333333333333333</ele><time>2026-04-10T18:42:38Z</time></trkpt><trkpt lat="39.21296006978542" lon="9.142856671592424"><ele>4.666666666666666</ele><time>2026-04-10T18:42:39Z</time></trkpt><trkpt lat="39.212744339329944" lon="9.142770241673016"><ele>4.0</ele><time>2026-04-10T18:42:40Z</time></trkpt><trkpt lat="39.2125202693407" lon="9.142688064542801"><ele>3.0</ele><time>2026-04-10T18:42:41Z</time></trkpt><trkpt lat="39.212286102371145" lon="9.142616884188078"><ele>2.0</ele><time>2026-04-10T18:42:42Z</time></trkpt><trkpt lat="39.212057042985265" lon="9.142550061640344"><ele>2.0</ele><time>2026-04-10T18:42:43Z</time></trkpt><trkpt lat="39.2118400811417" lon="9.142482464666813"><ele>2.0</ele><time>2026-04-10T18:42:44Z</time></trkpt><trkpt lat="39.21163675097767" lon="9.142421746839586"><ele>2.0</ele><time>2026-04-10T18:42:45Z</time></trkpt><trkpt lat="39.2114424895841" lon="9.1423771410963"><ele>3.333333333333333</ele><time>2026-04-10T18:42:46Z</time></trkpt><trkpt lat="39.21126210474147" lon="9.142362881650516"><ele>4.666666666666667</ele><time>2026-04-10T18:42:47Z</time></trkpt><trkpt lat="39.21108764010475" lon="9.142365053408476"><ele>6.0</ele><time>2026-04-10T18:42:48Z</time></trkpt><trkpt lat="39.21091845521937" lon="9.142380636499688"><ele>5.666666666666667</ele><time>2026-04-10T18:42:49Z</time></trkpt><trkpt lat="39.21074982567419" lon="9.142412075448929"><ele>5.333333333333334</ele><time>2026-04-10T18:42:50Z</time></trkpt><trkpt lat="39.210580024249104" lon="9.142456618263726"><ele>5.0</ele><time>2026-04-10T18:42:51Z</time></trkpt><trkpt lat="39.21041387036494" lon="9.142511848450702"><ele>6.0</ele><time>2026-04-10T18:42:52Z</time></trkpt><trkpt lat="39.21024234371799" lon="9.142568518868393"><ele>7.0</ele><time>2026-04-10T18:42:53Z</time></trkpt><trkpt lat="39.21007478771774" lon="9.142622165803354"><ele>8.0</ele><time>2026-04-10T18:42:54Z</time></trkpt><trkpt lat="39.20990154163278" lon="9.142679816249307"><ele>8.666666666666666</ele><time>2026-04-10T18:42:55Z</time></trkpt><trkpt lat="39.20972997618401" lon="9.14273472729286"><ele>9.333333333333334</ele><time>2026-04-10T18:42:56Z</time></trkpt><trkpt lat="39.20955690987406" lon="9.142787992761683"><ele>10.0</ele><time>2026-04-10T18:42:57Z</time></trkpt><trkpt lat="39.20938680177292" lon="9.142844389835792"><ele>10.0</ele><time>2026-04-10T18:42:58Z</time></trkpt><trkpt lat="39.209219021707106" lon="9.142897587711456"><ele>10.0</ele><time>2026-04-10T18:42:59Z</time></trkpt><trkpt lat="39.20905126184222" lon="9.14294905004576"><ele>10.0</ele><time>2026-04-10T18:43:00Z</time></trkpt><trkpt lat="39.20888416855461" lon="9.143003529117136"><ele>10.333333333333334</ele><time>2026-04-10T18:43:01Z</time></trkpt><trkpt lat="39.208713140702756" lon="9.143061405773608"><ele>10.666666666666666</ele><time>2026-04-10T18:43:02Z</time></trkpt><trkpt lat="39.208542162899626" lon="9.14311706329519"><ele>11.0</ele><time>2026-04-10T18:43:03Z</time></trkpt><trkpt lat="39.20837157320715" lon="9.143169780066637"><ele>11.0</ele><time>2026-04-10T18:43:04Z</time></trkpt><trkpt lat="39.20820301794561" lon="9.143205924510351"><ele>11.0</ele><time>2026-04-10T18:43:05Z</time></trkpt><trkpt lat="39.208037510133344" lon="9.14322383125552"><ele>11.0</ele><time>2026-04-10T18:43:06Z</time></trkpt><trkpt lat="39.207877487168595" lon="9.143229962718221"><ele>8.333333333333332</ele><time>2026-04-10T18:43:07Z</time></trkpt><trkpt lat="39.20771514264902" lon="9.14323726711605"><ele>5.666666666666666</ele><time>2026-04-10T18:43:08Z</time></trkpt><trkpt lat="39.207558669349496" lon="9.14324436523426"><ele>3.0</ele><time>2026-04-10T18:43:09Z</time></trkpt><trkpt lat="39.20740425972958" lon="9.14325599447733"><ele>3.666666666666667</ele><time>2026-04-10T18:43:10Z</time></trkpt><trkpt lat="39.20724885984054" lon="9.143273074046624"><ele>4.333333333333334</ele><time>2026-04-10T18:43:11Z</time></trkpt><trkpt lat="39.20709561460355" lon="9.143289497547906"><ele>5.0</ele><time>2026-04-10T18:43:12Z</time></trkpt><trkpt lat="39.20694363194837" lon="9.143300631800319"><ele>5.0</ele><time>2026-04-10T18:43:13Z</time></trkpt><trkpt lat="39.20678853271153" lon="9.14330930454157"><ele>5.0</ele><time>2026-04-10T18:43:14Z</time></trkpt><trkpt lat="39.206627113703234" lon="9.143318257627728"><ele>5.0</ele><time>2026-04-10T18:43:15Z</time></trkpt><trkpt lat="39.20646880534339" lon="9.14332941425524"><ele>4.0</ele><time>2026-04-10T18:43:16Z</time></trkpt><trkpt lat="39.2063134203129" lon="9.143334085422882"><ele>3.0</ele><time>2026-04-10T18:43:17Z</time></trkpt><trkpt lat="39.20616144482908" lon="9.143332295863209"><ele>2.0</ele><time>2026-04-10T18:43:18Z</time></trkpt><trkpt lat="39.206004026821766" lon="9.143316655599676"><ele>2.0</ele><time>2026-04-10T18:43:19Z</time></trkpt><trkpt lat="39.205843962456676" lon="9.14328052322337"><ele>2.0</ele><time>2026-04-10T18:43:20Z</time></trkpt><trkpt lat="39.20568015775211" lon="9.143226636203703"><ele>2.0</ele><time>2026-04-10T18:43:21Z</time></trkpt><trkpt lat="39.20552504933346" lon="9.143160728041737"><ele>2.333333333333333</ele><time>2026-04-10T18:43:22Z</time></trkpt><trkpt lat="39.20538004346753" lon="9.143075266109832"><ele>2.6666666666666665</ele><time>2026-04-10T18:43:23Z</time></trkpt><trkpt lat="39.20524133345375" lon="9.142984095757969"><ele>3.0</ele><time>2026-04-10T18:43:24Z</time></trkpt><trkpt lat="39.205105549682166" lon="9.142880150455612"><ele>3.0</ele><time>2026-04-10T18:43:25Z</time></trkpt><trkpt lat="39.204980967330954" lon="9.142768640627288"><ele>3.0</ele><time>2026-04-10T18:43:26Z</time></trkpt><trkpt lat="39.20486380142583" lon="9.142647986282775"><ele>3.0</ele><time>2026-04-10T18:43:27Z</time></trkpt><trkpt lat="39.2047520162714" lon="9.142509436401244"><ele>2.6666666666666665</ele><time>2026-04-10T18:43:28Z</time></trkpt><trkpt lat="39.204645731361445" lon="9.142362222005147"><ele>2.333333333333333</ele><time>2026-04-10T18:43:29Z</time></trkpt><trkpt lat="39.20454472396415" lon="9.142215419723163"><ele>2.0</ele><time>2026-04-10T18:43:30Z</time></trkpt><trkpt lat="39.20444452894205" lon="9.142070211079872"><ele>2.0</ele><time>2026-04-10T18:43:31Z</time></trkpt><trkpt lat="39.204343452176914" lon="9.14192253135864"><ele>2.0</ele><time>2026-04-10T18:43:32Z</time></trkpt><trkpt lat="39.20424314660012" lon="9.141775119440531"><ele>2.0</ele><time>2026-04-10T18:43:33Z</time></trkpt><trkpt lat="39.204139398139" lon="9.141627808201555"><ele>1.3333333333333333</ele><time>2026-04-10T18:43:34Z</time></trkpt><trkpt lat="39.20403319177215" lon="9.141475732886908"><ele>0.6666666666666666</ele><time>2026-04-10T18:43:35Z</time></trkpt><trkpt lat="39.20392812730908" lon="9.141319213215988"><ele>0.0</ele><time>2026-04-10T18:43:36Z</time></trkpt><trkpt lat="39.20383130444819" lon="9.141172828919284"><ele>0.0</ele><time>2026-04-10T18:43:37Z</time></trkpt><trkpt lat="39.203740574850684" lon="9.141032517065641"><ele>0.0</ele><time>2026-04-10T18:43:38Z</time></trkpt><trkpt lat="39.20364561115842" lon="9.140887050464904"><ele>0.0</ele><time>2026-04-10T18:43:39Z</time></trkpt><trkpt lat="39.203548075793066" lon="9.14073428393335"><ele>0.0</ele><time>2026-04-10T18:43:40Z</time></trkpt><trkpt lat="39.20344632349812" lon="9.140582518686243"><ele>0.75</ele><time>2026-04-10T18:43:41Z</time></trkpt><trkpt lat="39.20334770261601" lon="9.140434701033435"><ele>1.5</ele><time>2026-04-10T18:43:42Z</time></trkpt><trkpt lat="39.20325970842445" lon="9.140300171678977"><ele>2.25</ele><time>2026-04-10T18:43:43Z</time></trkpt><trkpt lat="39.20317252638913" lon="9.140166728212268"><ele>3.0</ele><time>2026-04-10T18:43:44Z</time></trkpt><trkpt lat="39.2030889272623" lon="9.14003488219275"><ele>3.0</ele><time>2026-04-10T18:43:45Z</time></trkpt><trkpt lat="39.20302723930556" lon="9.139928400590755"><ele>3.0</ele><time>2026-04-10T18:43:46Z</time></trkpt><trkpt lat="39.202968418975054" lon="9.139823996072598"><ele>3.0</ele><time>2026-04-10T18:43:47Z</time></trkpt><trkpt lat="39.20292005435967" lon="9.139727353500495"><ele>3.0</ele><time>2026-04-10T18:43:48Z</time></trkpt><trkpt lat="39.20289778904969" lon="9.139626617782499"><ele>3.0</ele><time>2026-04-10T18:43:49Z</time></trkpt><trkpt lat="39.20289786322364" lon="9.139515973994845"><ele>3.2</ele><time>2026-04-10T18:43:50Z</time></trkpt><trkpt lat="39.202907972247836" lon="9.139391454293257"><ele>3.4</ele><time>2026-04-10T18:43:51Z</time></trkpt><trkpt lat="39.20292654145373" lon="9.139268199275307"><ele>3.6000000000000005</ele><time>2026-04-10T18:43:52Z</time></trkpt><trkpt lat="39.20295423012123" lon="9.13914036205315"><ele>3.8000000000000003</ele><time>2026-04-10T18:43:53Z</time></trkpt><trkpt lat="39.203000575285735" lon="9.139017649823602"><ele>4.0</ele><time>2026-04-10T18:43:54Z</time></trkpt><trkpt lat="39.203079677771065" lon="9.138923324599102"><ele>4.2</ele><time>2026-04-10T18:43:55Z</time></trkpt><trkpt lat="39.20316610191432" lon="9.13884829400164"><ele>4.4</ele><time>2026-04-10T18:43:56Z</time></trkpt><trkpt lat="39.20326723276477" lon="9.13879536695734"><ele>4.6</ele><time>2026-04-10T18:43:57Z</time></trkpt><trkpt lat="39.203374812688864" lon="9.138773807111734"><ele>4.8</ele><time>2026-04-10T18:43:58Z</time></trkpt><trkpt lat="39.20348252823032" lon="9.138781461924046"><ele>5.0</ele><time>2026-04-10T18:43:59Z</time></trkpt><trkpt lat="39.20358895844985" lon="9.138816377424384"><ele>5.0</ele><time>2026-04-10T18:44:00Z</time></trkpt><trkpt lat="39.20368807478567" lon="9.138873218181006"><ele>5.0</ele><time>2026-04-10T18:44:01Z</time></trkpt><trkpt lat="39.203759166263545" lon="9.138950752831441"><ele>5.0</ele><time>2026-04-10T18:44:02Z</time></trkpt><trkpt lat="39.203813353730126" lon="9.139037606695874"><ele>5.0</ele><time>2026-04-10T18:44:03Z</time></trkpt><trkpt lat="39.20385052510455" lon="9.139128441378933"><ele>5.0</ele><time>2026-04-10T18:44:04Z</time></trkpt><trkpt lat="39.20387125485044" lon="9.13921575456913"><ele>5.0</ele><time>2026-04-10T18:44:05Z</time></trkpt><trkpt lat="39.203883423289284" lon="9.139297012566466"><ele>4.8</ele><time>2026-04-10T18:44:06Z</time></trkpt><trkpt lat="39.203880085332464" lon="9.139446929633486"><ele>4.6</ele><time>2026-04-10T18:44:08Z</time></trkpt><trkpt lat="39.203847661847796" lon="9.139597373763317"><ele>4.4</ele><time>2026-04-10T18:44:10Z</time></trkpt><trkpt lat="39.20381792730536" lon="9.139681063970615"><ele>4.2</ele><time>2026-04-10T18:44:11Z</time></trkpt><trkpt lat="39.203762950443846" lon="9.13976820473714"><ele>4.0</ele><time>2026-04-10T18:44:12Z</time></trkpt><trkpt lat="39.20369204594752" lon="9.139864517071919"><ele>3.8000000000000003</ele><time>2026-04-10T18:44:13Z</time></trkpt><trkpt lat="39.20360799302509" lon="9.139956307502796"><ele>3.6000000000000005</ele><time>2026-04-10T18:44:14Z</time></trkpt><trkpt lat="39.20352939792212" lon="9.140032813921865"><ele>3.4</ele><time>2026-04-10T18:44:15Z</time></trkpt><trkpt lat="39.203452155596736" lon="9.140105499901981"><ele>3.2</ele><time>2026-04-10T18:44:16Z</time></trkpt><trkpt lat="39.203366063829925" lon="9.140179067591477"><ele>3.0</ele><time>2026-04-10T18:44:17Z</time></trkpt><trkpt lat="39.20326986320429" lon="9.140251452489665"><ele>3.0</ele><time>2026-04-10T18:44:18Z</time></trkpt><trkpt lat="39.2031733875734" lon="9.140325832441329"><ele>3.0</ele><time>2026-04-10T18:44:19Z</time></trkpt><trkpt lat="39.203072850614625" lon="9.140397327734224"><ele>3.0</ele><time>2026-04-10T18:44:20Z</time></trkpt><trkpt lat="39.20297506772492" lon="9.140471211408485"><ele>3.0</ele><time>2026-04-10T18:44:21Z</time></trkpt><trkpt lat="39.20287106777419" lon="9.14055119236641"><ele>3.0</ele><time>2026-04-10T18:44:22Z</time></trkpt><trkpt lat="39.202757199932115" lon="9.140636277675316"><ele>3.0</ele><time>2026-04-10T18:44:23Z</time></trkpt><trkpt lat="39.202635098543574" lon="9.140730040718559"><ele>3.0</ele><time>2026-04-10T18:44:24Z</time></trkpt><trkpt lat="39.202516882334734" lon="9.140820623887524"><ele>3.0</ele><time>2026-04-10T18:44:25Z</time></trkpt><trkpt lat="39.202404485488316" lon="9.140905224793299"><ele>3.4</ele><time>2026-04-10T18:44:26Z</time></trkpt><trkpt lat="39.202301695215" lon="9.140983276282325"><ele>3.8</ele><time>2026-04-10T18:44:27Z</time></trkpt><trkpt lat="39.20221426221286" lon="9.141048260402444"><ele>4.2</ele><time>2026-04-10T18:44:28Z</time></trkpt><trkpt lat="39.20214529401473" lon="9.141099474123848"><ele>4.6</ele><time>2026-04-10T18:44:29Z</time></trkpt><trkpt lat="39.20207273197857" lon="9.141148860320497"><ele>5.0</ele><time>2026-04-10T18:44:31Z</time></trkpt><trkpt lat="39.2020039886762" lon="9.14118546959894"><ele>5.0</ele><time>2026-04-10T18:44:34Z</time></trkpt><trkpt lat="39.201966252257385" lon="9.141100745138454"><ele>5.0</ele><time>2026-04-10T18:44:35Z</time></trkpt><trkpt lat="39.20189153696784" lon="9.141099748075314"><ele>5.0</ele><time>2026-04-10T18:44:37Z</time></trkpt><trkpt lat="39.20184423635877" lon="9.141200122127254"><ele>5.0</ele><time>2026-04-10T18:44:38Z</time></trkpt><trkpt lat="39.20176303238781" lon="9.14121079552014"><ele>5.0</ele><time>2026-04-10T18:44:40Z</time></trkpt><trkpt lat="39.20169774360667" lon="9.141253979213973"><ele>5.0</ele><time>2026-04-10T18:44:42Z</time></trkpt><trkpt lat="39.20165011091746" lon="9.141328619044307"><ele>5.0</ele><time>2026-04-10T18:44:44Z</time></trkpt><trkpt lat="39.20163200613101" lon="9.141409091826455"><ele>5.0</ele><time>2026-04-10T18:44:46Z</time></trkpt><trkpt lat="39.20161831238029" lon="9.141501588060468"><ele>5.0</ele><time>2026-04-10T18:44:48Z</time></trkpt><trkpt lat="39.201575723574244" lon="9.141629290225909"><ele>5.0</ele><time>2026-04-10T18:44:50Z</time></trkpt><trkpt lat="39.201488420039574" lon="9.141727589634431"><ele>5.0</ele><time>2026-04-10T18:44:52Z</time></trkpt><trkpt lat="39.20139485328964" lon="9.14174635076715"><ele>5.0</ele><time>2026-04-10T18:44:54Z</time></trkpt><trkpt lat="39.201307979138136" lon="9.141651566207683"><ele>5.0</ele><time>2026-04-10T18:44:56Z</time></trkpt><trkpt lat="39.20129031617815" lon="9.141570030073941"><ele>5.0</ele><time>2026-04-10T18:44:57Z</time></trkpt><trkpt lat="39.201274948309646" lon="9.141476948031286"><ele>5.0</ele><time>2026-04-10T18:44:58Z</time></trkpt><trkpt lat="39.20125778676561" lon="9.141385841460776"><ele>5.0</ele><time>2026-04-10T18:44:59Z</time></trkpt><trkpt lat="39.20123682372758" lon="9.141304653579262"><ele>5.0</ele><time>2026-04-10T18:45:00Z</time></trkpt><trkpt lat="39.20126600471372" lon="9.141229729947884"><ele>5.0</ele><time>2026-04-10T18:45:02Z</time></trkpt><trkpt lat="39.201133287539356" lon="9.141222101140277"><ele>5.0</ele><time>2026-04-10T18:45:03Z</time></trkpt><trkpt lat="39.201048507924746" lon="9.141268942924313"><ele>5.0</ele><time>2026-04-10T18:45:05Z</time></trkpt><trkpt lat="39.20093559264062" lon="9.141345689638202"><ele>5.0</ele><time>2026-04-10T18:45:07Z</time></trkpt><trkpt lat="39.200873532785984" lon="9.141408381752491"><ele>5.0</ele><time>2026-04-10T18:45:08Z</time></trkpt><trkpt lat="39.20080020967737" lon="9.141460452601974"><ele>5.0</ele><time>2026-04-10T18:45:09Z</time></trkpt><trkpt lat="39.20072390694144" lon="9.141506516721327"><ele>5.0</ele><time>2026-04-10T18:45:10Z</time></trkpt><trkpt lat="39.20065294779556" lon="9.14154592866933"><ele>5.0</ele><time>2026-04-10T18:45:11Z</time></trkpt><trkpt lat="39.200593082514416" lon="9.14157297289238"><ele>5.0</ele><time>2026-04-10T18:45:12Z</time></trkpt><trkpt lat="39.20051764123459" lon="9.141595994963788"><ele>5.0</ele><time>2026-04-10T18:45:13Z</time></trkpt><trkpt lat="39.20044737528899" lon="9.141607075083469"><ele>5.0</ele><time>2026-04-10T18:45:14Z</time></trkpt><trkpt lat="39.20034808998436" lon="9.14156143575789"><ele>5.0</ele><time>2026-04-10T18:45:15Z</time></trkpt><trkpt lat="39.20025502749827" lon="9.141537885207942"><ele>5.0</ele><time>2026-04-10T18:45:17Z</time></trkpt><trkpt lat="39.20016531470147" lon="9.14157467601278"><ele>5.0</ele><time>2026-04-10T18:45:19Z</time></trkpt><trkpt lat="39.20010574052669" lon="9.14168321986614"><ele>5.0</ele><time>2026-04-10T18:45:21Z</time></trkpt><trkpt lat="39.20003334762403" lon="9.141707729705335"><ele>5.0</ele><time>2026-04-10T18:45:22Z</time></trkpt><trkpt lat="39.19995263341254" lon="9.141712710500283"><ele>5.0</ele><time>2026-04-10T18:45:23Z</time></trkpt><trkpt lat="39.19988429907136" lon="9.141715794852445"><ele>5.166666666666667</ele><time>2026-04-10T18:45:24Z</time></trkpt><trkpt lat="39.19981670171479" lon="9.141727687535257"><ele>5.333333333333334</ele><time>2026-04-10T18:45:25Z</time></trkpt><trkpt lat="39.19973229801149" lon="9.141742887165126"><ele>5.5</ele><time>2026-04-10T18:45:26Z</time></trkpt><trkpt lat="39.19965234297495" lon="9.141758213409826"><ele>5.666666666666667</ele><time>2026-04-10T18:45:27Z</time></trkpt><trkpt lat="39.19955449548329" lon="9.141821911340415"><ele>5.833333333333333</ele><time>2026-04-10T18:45:29Z</time></trkpt><trkpt lat="39.1995133216951" lon="9.141927558569847"><ele>6.0</ele><time>2026-04-10T18:45:31Z</time></trkpt><trkpt lat="39.199524009447636" lon="9.14201654893746"><ele>6.0</ele><time>2026-04-10T18:45:33Z</time></trkpt><trkpt lat="39.19953008152538" lon="9.142116240305498"><ele>6.0</ele><time>2026-04-10T18:46:01Z</time></trkpt><trkpt lat="39.19966683864162" lon="9.14213045795344"><ele>6.0</ele><time>2026-04-10T18:46:05Z</time></trkpt><trkpt lat="39.199738165736676" lon="9.142113345230557"><ele>6.0</ele><time>2026-04-10T18:46:07Z</time></trkpt><trkpt lat="39.199848550303145" lon="9.142104536137106"><ele>5.0</ele><time>2026-04-10T18:47:10Z</time></trkpt></trkseg></trk></gpx>